<?xml version="1.0" encoding="UTF-8"?>
<gpx version="1.1" creator="https://www.youtrack.es" xsi:schemaLocation="http://www.topografix.com/GPX/1/1 http://www.topografix.com/GPX/1/1/gpx.xsd http://www.garmin.com/xmlschemas/GpxExtensions/v3 http://www.garmin.com/xmlschemas/GpxExtensionsv3.xsd http://www.garmin.com/xmlschemas/TrackPointExtension/v1 http://www.garmin.com/xmlschemas/TrackPointExtensionv1.xsd" xmlns:gpxtpx="http://www.garmin.com/xmlschemas/TrackPointExtension/v1" xmlns:gpxx="http://www.garmin.com/xmlschemas/GpxExtensions/v3" xmlns:xsi="http://www.w3.org/2001/XMLSchema-instance">
  <metadata>
    <link href="https://www.youtrack.es">
      <text>YouTrack.es</text>
    </link>
    <time>2026-05-08T16:51:04Z</time>
  </metadata>
  <trk>
    <src>https://www.youtrack.es</src>
    <link href="https://www.youtrack.es/ruta/34434-cresta-rolando-y-pico-tallon">
      <text>YouTrack.es</text>
    </link>
    <trkseg>
      <trkpt lat="42.6924990" lon="-0.1071940">
        <ele>1339.8</ele>
        <time>2022-07-23T08:32:36Z</time>
      </trkpt>
      <trkpt lat="42.6925550" lon="-0.1072860">
        <ele>1340.2</ele>
        <time>2022-07-23T08:32:50Z</time>
      </trkpt>
      <trkpt lat="42.6925860" lon="-0.1073870">
        <ele>1340.4</ele>
        <time>2022-07-23T08:32:58Z</time>
      </trkpt>
      <trkpt lat="42.6926330" lon="-0.1074310">
        <ele>1340.2</ele>
        <time>2022-07-23T08:33:04Z</time>
      </trkpt>
      <trkpt lat="42.6927480" lon="-0.1075680">
        <ele>1340.2</ele>
        <time>2022-07-23T08:33:20Z</time>
      </trkpt>
      <trkpt lat="42.6929910" lon="-0.1077040">
        <ele>1340.2</ele>
        <time>2022-07-23T08:33:33Z</time>
      </trkpt>
      <trkpt lat="42.6930140" lon="-0.1077130">
        <ele>1340.2</ele>
        <time>2022-07-23T08:33:35Z</time>
      </trkpt>
      <trkpt lat="42.6931990" lon="-0.1077600">
        <ele>1340.4</ele>
        <time>2022-07-23T08:33:50Z</time>
      </trkpt>
      <trkpt lat="42.6933270" lon="-0.1077580">
        <ele>1340.6</ele>
        <time>2022-07-23T08:34:02Z</time>
      </trkpt>
      <trkpt lat="42.6933860" lon="-0.1077400">
        <ele>1340.8</ele>
        <time>2022-07-23T08:34:07Z</time>
      </trkpt>
      <trkpt lat="42.6935890" lon="-0.1077060">
        <ele>1341.0</ele>
        <time>2022-07-23T08:34:24Z</time>
      </trkpt>
      <trkpt lat="42.6936900" lon="-0.1076870">
        <ele>1341.2</ele>
        <time>2022-07-23T08:34:34Z</time>
      </trkpt>
      <trkpt lat="42.6937670" lon="-0.1076710">
        <ele>1341.6</ele>
        <time>2022-07-23T08:34:42Z</time>
      </trkpt>
      <trkpt lat="42.6938290" lon="-0.1076510">
        <ele>1341.8</ele>
        <time>2022-07-23T08:34:48Z</time>
      </trkpt>
      <trkpt lat="42.6939170" lon="-0.1076310">
        <ele>1342.0</ele>
        <time>2022-07-23T08:34:55Z</time>
      </trkpt>
      <trkpt lat="42.6940310" lon="-0.1076170">
        <ele>1342.4</ele>
        <time>2022-07-23T08:35:03Z</time>
      </trkpt>
      <trkpt lat="42.6941350" lon="-0.1075950">
        <ele>1342.6</ele>
        <time>2022-07-23T08:35:11Z</time>
      </trkpt>
      <trkpt lat="42.6942650" lon="-0.1076120">
        <ele>1342.8</ele>
        <time>2022-07-23T08:35:21Z</time>
      </trkpt>
      <trkpt lat="42.6942750" lon="-0.1076070">
        <ele>1342.6</ele>
        <time>2022-07-23T08:35:22Z</time>
      </trkpt>
      <trkpt lat="42.6942870" lon="-0.1075720">
        <ele>1342.8</ele>
        <time>2022-07-23T08:35:25Z</time>
      </trkpt>
      <trkpt lat="42.6943010" lon="-0.1075440">
        <ele>1342.8</ele>
        <time>2022-07-23T08:35:27Z</time>
      </trkpt>
      <trkpt lat="42.6943200" lon="-0.1074900">
        <ele>1343.0</ele>
        <time>2022-07-23T08:35:31Z</time>
      </trkpt>
      <trkpt lat="42.6943150" lon="-0.1074390">
        <ele>1343.0</ele>
        <time>2022-07-23T08:35:34Z</time>
      </trkpt>
      <trkpt lat="42.6942930" lon="-0.1073260">
        <ele>1343.0</ele>
        <time>2022-07-23T08:35:41Z</time>
      </trkpt>
      <trkpt lat="42.6942900" lon="-0.1073210">
        <ele>1343.2</ele>
        <time>2022-07-23T08:35:42Z</time>
      </trkpt>
      <trkpt lat="42.6942860" lon="-0.1072890">
        <ele>1343.2</ele>
        <time>2022-07-23T08:35:45Z</time>
      </trkpt>
      <trkpt lat="42.6942910" lon="-0.1072330">
        <ele>1343.0</ele>
        <time>2022-07-23T08:35:48Z</time>
      </trkpt>
      <trkpt lat="42.6943040" lon="-0.1072030">
        <ele>1343.0</ele>
        <time>2022-07-23T08:35:50Z</time>
      </trkpt>
      <trkpt lat="42.6943320" lon="-0.1071550">
        <ele>1343.2</ele>
        <time>2022-07-23T08:35:57Z</time>
      </trkpt>
      <trkpt lat="42.6943390" lon="-0.1070340">
        <ele>1343.8</ele>
        <time>2022-07-23T08:36:07Z</time>
      </trkpt>
      <trkpt lat="42.6944020" lon="-0.1068960">
        <ele>1344.0</ele>
        <time>2022-07-23T08:36:18Z</time>
      </trkpt>
      <trkpt lat="42.6944210" lon="-0.1068500">
        <ele>1344.2</ele>
        <time>2022-07-23T08:36:26Z</time>
      </trkpt>
      <trkpt lat="42.6944100" lon="-0.1068350">
        <ele>1344.2</ele>
        <time>2022-07-23T08:36:29Z</time>
      </trkpt>
      <trkpt lat="42.6944900" lon="-0.1067140">
        <ele>1344.2</ele>
        <time>2022-07-23T08:36:40Z</time>
      </trkpt>
      <trkpt lat="42.6945490" lon="-0.1066800">
        <ele>1344.2</ele>
        <time>2022-07-23T08:36:45Z</time>
      </trkpt>
      <trkpt lat="42.6946310" lon="-0.1066740">
        <ele>1344.4</ele>
        <time>2022-07-23T08:36:53Z</time>
      </trkpt>
      <trkpt lat="42.6947680" lon="-0.1066120">
        <ele>1345.2</ele>
        <time>2022-07-23T08:37:05Z</time>
      </trkpt>
      <trkpt lat="42.6947960" lon="-0.1066090">
        <ele>1345.4</ele>
        <time>2022-07-23T08:37:07Z</time>
      </trkpt>
      <trkpt lat="42.6949280" lon="-0.1064920">
        <ele>1345.8</ele>
        <time>2022-07-23T08:37:18Z</time>
      </trkpt>
      <trkpt lat="42.6950500" lon="-0.1063440">
        <ele>1346.0</ele>
        <time>2022-07-23T08:37:31Z</time>
      </trkpt>
      <trkpt lat="42.6950600" lon="-0.1063160">
        <ele>1346.2</ele>
        <time>2022-07-23T08:37:35Z</time>
      </trkpt>
      <trkpt lat="42.6950800" lon="-0.1062770">
        <ele>1346.8</ele>
        <time>2022-07-23T08:37:40Z</time>
      </trkpt>
      <trkpt lat="42.6951390" lon="-0.1061780">
        <ele>1348.0</ele>
        <time>2022-07-23T08:37:49Z</time>
      </trkpt>
      <trkpt lat="42.6951430" lon="-0.1061630">
        <ele>1348.2</ele>
        <time>2022-07-23T08:37:50Z</time>
      </trkpt>
      <trkpt lat="42.6951750" lon="-0.1060430">
        <ele>1349.0</ele>
        <time>2022-07-23T08:37:58Z</time>
      </trkpt>
      <trkpt lat="42.6952070" lon="-0.1059520">
        <ele>1349.2</ele>
        <time>2022-07-23T08:38:04Z</time>
      </trkpt>
      <trkpt lat="42.6952280" lon="-0.1058250">
        <ele>1348.8</ele>
        <time>2022-07-23T08:38:12Z</time>
      </trkpt>
      <trkpt lat="42.6952410" lon="-0.1058060">
        <ele>1349.0</ele>
        <time>2022-07-23T08:38:15Z</time>
      </trkpt>
      <trkpt lat="42.6952740" lon="-0.1057900">
        <ele>1349.4</ele>
        <time>2022-07-23T08:38:20Z</time>
      </trkpt>
      <trkpt lat="42.6953130" lon="-0.1057790">
        <ele>1350.6</ele>
        <time>2022-07-23T08:38:28Z</time>
      </trkpt>
      <trkpt lat="42.6953360" lon="-0.1057080">
        <ele>1351.6</ele>
        <time>2022-07-23T08:38:36Z</time>
      </trkpt>
      <trkpt lat="42.6953450" lon="-0.1056790">
        <ele>1352.2</ele>
        <time>2022-07-23T08:38:40Z</time>
      </trkpt>
      <trkpt lat="42.6953580" lon="-0.1056880">
        <ele>1352.2</ele>
        <time>2022-07-23T08:38:43Z</time>
      </trkpt>
      <trkpt lat="42.6953640" lon="-0.1056910">
        <ele>1352.4</ele>
        <time>2022-07-23T08:38:44Z</time>
      </trkpt>
      <trkpt lat="42.6953800" lon="-0.1057050">
        <ele>1352.4</ele>
        <time>2022-07-23T08:38:46Z</time>
      </trkpt>
      <trkpt lat="42.6953910" lon="-0.1057300">
        <ele>1353.4</ele>
        <time>2022-07-23T08:38:49Z</time>
      </trkpt>
      <trkpt lat="42.6953970" lon="-0.1057480">
        <ele>1353.6</ele>
        <time>2022-07-23T08:38:51Z</time>
      </trkpt>
      <trkpt lat="42.6954620" lon="-0.1057680">
        <ele>1355.4</ele>
        <time>2022-07-23T08:39:02Z</time>
      </trkpt>
      <trkpt lat="42.6954660" lon="-0.1057600">
        <ele>1355.6</ele>
        <time>2022-07-23T08:39:03Z</time>
      </trkpt>
      <trkpt lat="42.6954840" lon="-0.1057040">
        <ele>1356.6</ele>
        <time>2022-07-23T08:39:09Z</time>
      </trkpt>
      <trkpt lat="42.6954930" lon="-0.1057510">
        <ele>1357.4</ele>
        <time>2022-07-23T08:39:13Z</time>
      </trkpt>
      <trkpt lat="42.6955230" lon="-0.1057610">
        <ele>1358.2</ele>
        <time>2022-07-23T08:39:17Z</time>
      </trkpt>
      <trkpt lat="42.6955810" lon="-0.1057260">
        <ele>1359.2</ele>
        <time>2022-07-23T08:39:25Z</time>
      </trkpt>
      <trkpt lat="42.6955940" lon="-0.1057150">
        <ele>1359.6</ele>
        <time>2022-07-23T08:39:27Z</time>
      </trkpt>
      <trkpt lat="42.6955900" lon="-0.1056880">
        <ele>1360.0</ele>
        <time>2022-07-23T08:39:30Z</time>
      </trkpt>
      <trkpt lat="42.6955710" lon="-0.1056840">
        <ele>1360.4</ele>
        <time>2022-07-23T08:39:34Z</time>
      </trkpt>
      <trkpt lat="42.6955620" lon="-0.1056850">
        <ele>1360.6</ele>
        <time>2022-07-23T08:39:36Z</time>
      </trkpt>
      <trkpt lat="42.6955410" lon="-0.1056460">
        <ele>1361.4</ele>
        <time>2022-07-23T08:39:41Z</time>
      </trkpt>
      <trkpt lat="42.6955420" lon="-0.1056360">
        <ele>1361.6</ele>
        <time>2022-07-23T08:39:42Z</time>
      </trkpt>
      <trkpt lat="42.6955430" lon="-0.1056280">
        <ele>1361.6</ele>
        <time>2022-07-23T08:39:43Z</time>
      </trkpt>
      <trkpt lat="42.6955410" lon="-0.1056170">
        <ele>1361.8</ele>
        <time>2022-07-23T08:39:45Z</time>
      </trkpt>
      <trkpt lat="42.6955440" lon="-0.1056030">
        <ele>1362.2</ele>
        <time>2022-07-23T08:39:47Z</time>
      </trkpt>
      <trkpt lat="42.6955420" lon="-0.1055880">
        <ele>1362.4</ele>
        <time>2022-07-23T08:39:49Z</time>
      </trkpt>
      <trkpt lat="42.6955710" lon="-0.1055360">
        <ele>1363.8</ele>
        <time>2022-07-23T08:39:56Z</time>
      </trkpt>
      <trkpt lat="42.6955920" lon="-0.1055330">
        <ele>1364.8</ele>
        <time>2022-07-23T08:40:00Z</time>
      </trkpt>
      <trkpt lat="42.6956080" lon="-0.1055270">
        <ele>1365.2</ele>
        <time>2022-07-23T08:40:03Z</time>
      </trkpt>
      <trkpt lat="42.6956600" lon="-0.1055000">
        <ele>1366.6</ele>
        <time>2022-07-23T08:40:11Z</time>
      </trkpt>
      <trkpt lat="42.6956840" lon="-0.1055230">
        <ele>1367.8</ele>
        <time>2022-07-23T08:40:16Z</time>
      </trkpt>
      <trkpt lat="42.6957090" lon="-0.1055410">
        <ele>1368.2</ele>
        <time>2022-07-23T08:40:19Z</time>
      </trkpt>
      <trkpt lat="42.6957890" lon="-0.1056050">
        <ele>1369.8</ele>
        <time>2022-07-23T08:40:29Z</time>
      </trkpt>
      <trkpt lat="42.6957910" lon="-0.1056150">
        <ele>1369.8</ele>
        <time>2022-07-23T08:40:30Z</time>
      </trkpt>
      <trkpt lat="42.6958590" lon="-0.1055950">
        <ele>1371.4</ele>
        <time>2022-07-23T08:40:41Z</time>
      </trkpt>
      <trkpt lat="42.6958780" lon="-0.1056110">
        <ele>1371.8</ele>
        <time>2022-07-23T08:40:44Z</time>
      </trkpt>
      <trkpt lat="42.6959250" lon="-0.1056160">
        <ele>1372.4</ele>
        <time>2022-07-23T08:40:51Z</time>
      </trkpt>
      <trkpt lat="42.6960230" lon="-0.1055710">
        <ele>1373.6</ele>
        <time>2022-07-23T08:41:01Z</time>
      </trkpt>
      <trkpt lat="42.6960310" lon="-0.1055700">
        <ele>1374.0</ele>
        <time>2022-07-23T08:41:03Z</time>
      </trkpt>
      <trkpt lat="42.6961120" lon="-0.1055220">
        <ele>1375.4</ele>
        <time>2022-07-23T08:41:12Z</time>
      </trkpt>
      <trkpt lat="42.6961300" lon="-0.1055360">
        <ele>1375.8</ele>
        <time>2022-07-23T08:41:16Z</time>
      </trkpt>
      <trkpt lat="42.6961480" lon="-0.1055330">
        <ele>1376.2</ele>
        <time>2022-07-23T08:41:18Z</time>
      </trkpt>
      <trkpt lat="42.6961960" lon="-0.1055290">
        <ele>1376.8</ele>
        <time>2022-07-23T08:41:22Z</time>
      </trkpt>
      <trkpt lat="42.6962390" lon="-0.1055130">
        <ele>1377.8</ele>
        <time>2022-07-23T08:41:28Z</time>
      </trkpt>
      <trkpt lat="42.6962480" lon="-0.1055190">
        <ele>1379.0</ele>
        <time>2022-07-23T08:41:33Z</time>
      </trkpt>
      <trkpt lat="42.6962640" lon="-0.1055340">
        <ele>1379.6</ele>
        <time>2022-07-23T08:41:37Z</time>
      </trkpt>
      <trkpt lat="42.6962760" lon="-0.1055380">
        <ele>1379.6</ele>
        <time>2022-07-23T08:41:40Z</time>
      </trkpt>
      <trkpt lat="42.6963330" lon="-0.1055090">
        <ele>1380.8</ele>
        <time>2022-07-23T08:41:45Z</time>
      </trkpt>
      <trkpt lat="42.6963820" lon="-0.1054890">
        <ele>1382.0</ele>
        <time>2022-07-23T08:41:51Z</time>
      </trkpt>
      <trkpt lat="42.6964180" lon="-0.1054710">
        <ele>1382.4</ele>
        <time>2022-07-23T08:41:54Z</time>
      </trkpt>
      <trkpt lat="42.6964460" lon="-0.1054540">
        <ele>1382.6</ele>
        <time>2022-07-23T08:41:57Z</time>
      </trkpt>
      <trkpt lat="42.6964460" lon="-0.1054540">
        <ele>1383.8</ele>
        <time>2022-07-23T08:42:03Z</time>
      </trkpt>
      <trkpt lat="42.6964480" lon="-0.1055100">
        <ele>1384.8</ele>
        <time>2022-07-23T08:42:09Z</time>
      </trkpt>
      <trkpt lat="42.6964300" lon="-0.1055670">
        <ele>1385.6</ele>
        <time>2022-07-23T08:42:13Z</time>
      </trkpt>
      <trkpt lat="42.6964190" lon="-0.1056310">
        <ele>1386.4</ele>
        <time>2022-07-23T08:42:19Z</time>
      </trkpt>
      <trkpt lat="42.6964360" lon="-0.1056630">
        <ele>1387.2</ele>
        <time>2022-07-23T08:42:23Z</time>
      </trkpt>
      <trkpt lat="42.6964330" lon="-0.1056760">
        <ele>1387.4</ele>
        <time>2022-07-23T08:42:24Z</time>
      </trkpt>
      <trkpt lat="42.6964170" lon="-0.1057450">
        <ele>1388.8</ele>
        <time>2022-07-23T08:42:31Z</time>
      </trkpt>
      <trkpt lat="42.6964280" lon="-0.1057200">
        <ele>1390.0</ele>
        <time>2022-07-23T08:42:38Z</time>
      </trkpt>
      <trkpt lat="42.6964310" lon="-0.1057130">
        <ele>1390.2</ele>
        <time>2022-07-23T08:42:39Z</time>
      </trkpt>
      <trkpt lat="42.6964310" lon="-0.1057130">
        <ele>1391.2</ele>
        <time>2022-07-23T08:42:46Z</time>
      </trkpt>
      <trkpt lat="42.6965140" lon="-0.1056870">
        <ele>1392.2</ele>
        <time>2022-07-23T08:42:52Z</time>
      </trkpt>
      <trkpt lat="42.6965110" lon="-0.1056990">
        <ele>1392.2</ele>
        <time>2022-07-23T08:42:53Z</time>
      </trkpt>
      <trkpt lat="42.6965110" lon="-0.1056990">
        <ele>1394.2</ele>
        <time>2022-07-23T08:43:02Z</time>
      </trkpt>
      <trkpt lat="42.6965110" lon="-0.1056990">
        <ele>1395.4</ele>
        <time>2022-07-23T08:43:09Z</time>
      </trkpt>
      <trkpt lat="42.6965110" lon="-0.1056990">
        <ele>1396.4</ele>
        <time>2022-07-23T08:43:16Z</time>
      </trkpt>
      <trkpt lat="42.6965110" lon="-0.1056990">
        <ele>1398.2</ele>
        <time>2022-07-23T08:43:25Z</time>
      </trkpt>
      <trkpt lat="42.6965110" lon="-0.1056990">
        <ele>1400.0</ele>
        <time>2022-07-23T08:43:34Z</time>
      </trkpt>
      <trkpt lat="42.6965110" lon="-0.1056990">
        <ele>1401.6</ele>
        <time>2022-07-23T08:43:45Z</time>
      </trkpt>
      <trkpt lat="42.6969700" lon="-0.1055790">
        <ele>1403.0</ele>
        <time>2022-07-23T08:43:54Z</time>
      </trkpt>
      <trkpt lat="42.6970060" lon="-0.1055590">
        <ele>1403.4</ele>
        <time>2022-07-23T08:43:57Z</time>
      </trkpt>
      <trkpt lat="42.6970320" lon="-0.1055470">
        <ele>1404.0</ele>
        <time>2022-07-23T08:43:59Z</time>
      </trkpt>
      <trkpt lat="42.6970680" lon="-0.1055250">
        <ele>1404.4</ele>
        <time>2022-07-23T08:44:01Z</time>
      </trkpt>
      <trkpt lat="42.6971230" lon="-0.1054930">
        <ele>1404.8</ele>
        <time>2022-07-23T08:44:05Z</time>
      </trkpt>
      <trkpt lat="42.6971470" lon="-0.1054900">
        <ele>1405.4</ele>
        <time>2022-07-23T08:44:09Z</time>
      </trkpt>
      <trkpt lat="42.6971690" lon="-0.1054760">
        <ele>1406.0</ele>
        <time>2022-07-23T08:44:12Z</time>
      </trkpt>
      <trkpt lat="42.6972560" lon="-0.1053970">
        <ele>1407.8</ele>
        <time>2022-07-23T08:44:21Z</time>
      </trkpt>
      <trkpt lat="42.6972610" lon="-0.1054070">
        <ele>1407.8</ele>
        <time>2022-07-23T08:44:22Z</time>
      </trkpt>
      <trkpt lat="42.6972760" lon="-0.1053920">
        <ele>1409.0</ele>
        <time>2022-07-23T08:44:29Z</time>
      </trkpt>
      <trkpt lat="42.6972730" lon="-0.1053930">
        <ele>1409.8</ele>
        <time>2022-07-23T08:44:33Z</time>
      </trkpt>
      <trkpt lat="42.6972920" lon="-0.1054060">
        <ele>1410.4</ele>
        <time>2022-07-23T08:44:37Z</time>
      </trkpt>
      <trkpt lat="42.6973010" lon="-0.1054360">
        <ele>1411.4</ele>
        <time>2022-07-23T08:44:42Z</time>
      </trkpt>
      <trkpt lat="42.6973190" lon="-0.1054240">
        <ele>1412.6</ele>
        <time>2022-07-23T08:44:46Z</time>
      </trkpt>
      <trkpt lat="42.6973160" lon="-0.1054300">
        <ele>1413.0</ele>
        <time>2022-07-23T08:44:48Z</time>
      </trkpt>
      <trkpt lat="42.6973050" lon="-0.1054440">
        <ele>1413.6</ele>
        <time>2022-07-23T08:44:53Z</time>
      </trkpt>
      <trkpt lat="42.6973030" lon="-0.1054440">
        <ele>1413.8</ele>
        <time>2022-07-23T08:44:54Z</time>
      </trkpt>
      <trkpt lat="42.6973230" lon="-0.1054140">
        <ele>1414.6</ele>
        <time>2022-07-23T08:44:58Z</time>
      </trkpt>
      <trkpt lat="42.6973850" lon="-0.1053990">
        <ele>1416.8</ele>
        <time>2022-07-23T08:45:08Z</time>
      </trkpt>
      <trkpt lat="42.6974100" lon="-0.1053790">
        <ele>1417.2</ele>
        <time>2022-07-23T08:45:11Z</time>
      </trkpt>
      <trkpt lat="42.6975530" lon="-0.1052170">
        <ele>1418.8</ele>
        <time>2022-07-23T08:45:26Z</time>
      </trkpt>
      <trkpt lat="42.6975910" lon="-0.1052050">
        <ele>1419.2</ele>
        <time>2022-07-23T08:45:29Z</time>
      </trkpt>
      <trkpt lat="42.6976880" lon="-0.1051760">
        <ele>1420.0</ele>
        <time>2022-07-23T08:45:39Z</time>
      </trkpt>
      <trkpt lat="42.6977000" lon="-0.1051760">
        <ele>1420.2</ele>
        <time>2022-07-23T08:45:40Z</time>
      </trkpt>
      <trkpt lat="42.6977950" lon="-0.1051370">
        <ele>1421.0</ele>
        <time>2022-07-23T08:45:46Z</time>
      </trkpt>
      <trkpt lat="42.6978630" lon="-0.1050860">
        <ele>1422.0</ele>
        <time>2022-07-23T08:45:54Z</time>
      </trkpt>
      <trkpt lat="42.6978710" lon="-0.1050820">
        <ele>1422.2</ele>
        <time>2022-07-23T08:45:55Z</time>
      </trkpt>
      <trkpt lat="42.6978870" lon="-0.1050650">
        <ele>1422.4</ele>
        <time>2022-07-23T08:45:57Z</time>
      </trkpt>
      <trkpt lat="42.6978910" lon="-0.1050540">
        <ele>1422.6</ele>
        <time>2022-07-23T08:45:58Z</time>
      </trkpt>
      <trkpt lat="42.6979140" lon="-0.1050450">
        <ele>1423.6</ele>
        <time>2022-07-23T08:46:04Z</time>
      </trkpt>
      <trkpt lat="42.6979280" lon="-0.1050380">
        <ele>1423.8</ele>
        <time>2022-07-23T08:46:06Z</time>
      </trkpt>
      <trkpt lat="42.6979390" lon="-0.1050330">
        <ele>1424.2</ele>
        <time>2022-07-23T08:46:07Z</time>
      </trkpt>
      <trkpt lat="42.6979500" lon="-0.1050320">
        <ele>1424.4</ele>
        <time>2022-07-23T08:46:08Z</time>
      </trkpt>
      <trkpt lat="42.6979740" lon="-0.1050390">
        <ele>1425.6</ele>
        <time>2022-07-23T08:46:15Z</time>
      </trkpt>
      <trkpt lat="42.6979800" lon="-0.1050190">
        <ele>1426.0</ele>
        <time>2022-07-23T08:46:18Z</time>
      </trkpt>
      <trkpt lat="42.6979940" lon="-0.1050210">
        <ele>1427.0</ele>
        <time>2022-07-23T08:46:22Z</time>
      </trkpt>
      <trkpt lat="42.6980210" lon="-0.1050230">
        <ele>1427.6</ele>
        <time>2022-07-23T08:46:28Z</time>
      </trkpt>
      <trkpt lat="42.6980220" lon="-0.1050210">
        <ele>1428.0</ele>
        <time>2022-07-23T08:46:29Z</time>
      </trkpt>
      <trkpt lat="42.6980210" lon="-0.1050240">
        <ele>1428.2</ele>
        <time>2022-07-23T08:46:30Z</time>
      </trkpt>
      <trkpt lat="42.6980270" lon="-0.1050170">
        <ele>1428.6</ele>
        <time>2022-07-23T08:46:32Z</time>
      </trkpt>
      <trkpt lat="42.6980320" lon="-0.1050110">
        <ele>1428.8</ele>
        <time>2022-07-23T08:46:33Z</time>
      </trkpt>
      <trkpt lat="42.6980350" lon="-0.1050090">
        <ele>1428.8</ele>
        <time>2022-07-23T08:46:34Z</time>
      </trkpt>
      <trkpt lat="42.6980390" lon="-0.1050090">
        <ele>1429.2</ele>
        <time>2022-07-23T08:46:35Z</time>
      </trkpt>
      <trkpt lat="42.6980440" lon="-0.1050130">
        <ele>1429.4</ele>
        <time>2022-07-23T08:46:36Z</time>
      </trkpt>
      <trkpt lat="42.6980460" lon="-0.1050190">
        <ele>1430.6</ele>
        <time>2022-07-23T08:46:41Z</time>
      </trkpt>
      <trkpt lat="42.6980470" lon="-0.1050150">
        <ele>1430.6</ele>
        <time>2022-07-23T08:46:42Z</time>
      </trkpt>
      <trkpt lat="42.6980540" lon="-0.1050160">
        <ele>1431.4</ele>
        <time>2022-07-23T08:46:44Z</time>
      </trkpt>
      <trkpt lat="42.6980820" lon="-0.1050130">
        <ele>1432.4</ele>
        <time>2022-07-23T08:46:48Z</time>
      </trkpt>
      <trkpt lat="42.6981670" lon="-0.1050150">
        <ele>1433.4</ele>
        <time>2022-07-23T08:46:57Z</time>
      </trkpt>
      <trkpt lat="42.6981790" lon="-0.1050240">
        <ele>1434.0</ele>
        <time>2022-07-23T08:46:59Z</time>
      </trkpt>
      <trkpt lat="42.6982160" lon="-0.1050070">
        <ele>1434.6</ele>
        <time>2022-07-23T08:47:04Z</time>
      </trkpt>
      <trkpt lat="42.6982270" lon="-0.1050010">
        <ele>1435.0</ele>
        <time>2022-07-23T08:47:07Z</time>
      </trkpt>
      <trkpt lat="42.6982320" lon="-0.1049940">
        <ele>1435.2</ele>
        <time>2022-07-23T08:47:08Z</time>
      </trkpt>
      <trkpt lat="42.6982430" lon="-0.1049850">
        <ele>1435.8</ele>
        <time>2022-07-23T08:47:10Z</time>
      </trkpt>
      <trkpt lat="42.6982470" lon="-0.1049810">
        <ele>1435.8</ele>
        <time>2022-07-23T08:47:11Z</time>
      </trkpt>
      <trkpt lat="42.6982630" lon="-0.1049810">
        <ele>1436.4</ele>
        <time>2022-07-23T08:47:15Z</time>
      </trkpt>
      <trkpt lat="42.6982650" lon="-0.1049890">
        <ele>1437.6</ele>
        <time>2022-07-23T08:47:22Z</time>
      </trkpt>
      <trkpt lat="42.6982640" lon="-0.1049840">
        <ele>1438.0</ele>
        <time>2022-07-23T08:47:24Z</time>
      </trkpt>
      <trkpt lat="42.6982140" lon="-0.1049720">
        <ele>1439.2</ele>
        <time>2022-07-23T08:47:32Z</time>
      </trkpt>
      <trkpt lat="42.6981920" lon="-0.1049600">
        <ele>1440.2</ele>
        <time>2022-07-23T08:47:37Z</time>
      </trkpt>
      <trkpt lat="42.6981720" lon="-0.1049790">
        <ele>1441.0</ele>
        <time>2022-07-23T08:47:41Z</time>
      </trkpt>
      <trkpt lat="42.6981640" lon="-0.1049650">
        <ele>1442.2</ele>
        <time>2022-07-23T08:47:48Z</time>
      </trkpt>
      <trkpt lat="42.6981440" lon="-0.1049740">
        <ele>1442.4</ele>
        <time>2022-07-23T08:47:51Z</time>
      </trkpt>
      <trkpt lat="42.6981440" lon="-0.1049740">
        <ele>1442.6</ele>
        <time>2022-07-23T08:47:52Z</time>
      </trkpt>
      <trkpt lat="42.6981390" lon="-0.1049730">
        <ele>1443.0</ele>
        <time>2022-07-23T08:47:53Z</time>
      </trkpt>
      <trkpt lat="42.6981290" lon="-0.1049650">
        <ele>1443.6</ele>
        <time>2022-07-23T08:47:58Z</time>
      </trkpt>
      <trkpt lat="42.6980960" lon="-0.1049170">
        <ele>1444.4</ele>
        <time>2022-07-23T08:48:05Z</time>
      </trkpt>
      <trkpt lat="42.6980730" lon="-0.1048970">
        <ele>1445.2</ele>
        <time>2022-07-23T08:48:08Z</time>
      </trkpt>
      <trkpt lat="42.6980080" lon="-0.1049050">
        <ele>1446.2</ele>
        <time>2022-07-23T08:48:19Z</time>
      </trkpt>
      <trkpt lat="42.6979990" lon="-0.1049020">
        <ele>1446.6</ele>
        <time>2022-07-23T08:48:21Z</time>
      </trkpt>
      <trkpt lat="42.6979910" lon="-0.1049000">
        <ele>1446.6</ele>
        <time>2022-07-23T08:48:22Z</time>
      </trkpt>
      <trkpt lat="42.6979860" lon="-0.1048930">
        <ele>1446.8</ele>
        <time>2022-07-23T08:48:23Z</time>
      </trkpt>
      <trkpt lat="42.6979790" lon="-0.1048790">
        <ele>1447.2</ele>
        <time>2022-07-23T08:48:25Z</time>
      </trkpt>
      <trkpt lat="42.6980210" lon="-0.1048420">
        <ele>1448.2</ele>
        <time>2022-07-23T08:48:31Z</time>
      </trkpt>
      <trkpt lat="42.6981060" lon="-0.1047830">
        <ele>1449.4</ele>
        <time>2022-07-23T08:48:37Z</time>
      </trkpt>
      <trkpt lat="42.6981450" lon="-0.1047760">
        <ele>1450.0</ele>
        <time>2022-07-23T08:48:41Z</time>
      </trkpt>
      <trkpt lat="42.6981700" lon="-0.1047620">
        <ele>1450.4</ele>
        <time>2022-07-23T08:48:44Z</time>
      </trkpt>
      <trkpt lat="42.6981920" lon="-0.1047410">
        <ele>1451.0</ele>
        <time>2022-07-23T08:48:47Z</time>
      </trkpt>
      <trkpt lat="42.6981790" lon="-0.1047170">
        <ele>1451.6</ele>
        <time>2022-07-23T08:48:52Z</time>
      </trkpt>
      <trkpt lat="42.6981850" lon="-0.1047090">
        <ele>1452.0</ele>
        <time>2022-07-23T08:48:54Z</time>
      </trkpt>
      <trkpt lat="42.6981690" lon="-0.1046890">
        <ele>1453.6</ele>
        <time>2022-07-23T08:49:00Z</time>
      </trkpt>
      <trkpt lat="42.6981430" lon="-0.1046520">
        <ele>1454.6</ele>
        <time>2022-07-23T08:49:05Z</time>
      </trkpt>
      <trkpt lat="42.6981190" lon="-0.1046460">
        <ele>1455.4</ele>
        <time>2022-07-23T08:49:09Z</time>
      </trkpt>
      <trkpt lat="42.6980490" lon="-0.1046160">
        <ele>1457.4</ele>
        <time>2022-07-23T08:49:17Z</time>
      </trkpt>
      <trkpt lat="42.6980170" lon="-0.1045750">
        <ele>1458.4</ele>
        <time>2022-07-23T08:49:22Z</time>
      </trkpt>
      <trkpt lat="42.6980110" lon="-0.1045620">
        <ele>1458.6</ele>
        <time>2022-07-23T08:49:23Z</time>
      </trkpt>
      <trkpt lat="42.6979840" lon="-0.1045290">
        <ele>1459.2</ele>
        <time>2022-07-23T08:49:28Z</time>
      </trkpt>
      <trkpt lat="42.6979790" lon="-0.1045320">
        <ele>1459.6</ele>
        <time>2022-07-23T08:49:29Z</time>
      </trkpt>
      <trkpt lat="42.6979300" lon="-0.1045260">
        <ele>1461.0</ele>
        <time>2022-07-23T08:49:35Z</time>
      </trkpt>
      <trkpt lat="42.6979130" lon="-0.1045020">
        <ele>1462.2</ele>
        <time>2022-07-23T08:49:41Z</time>
      </trkpt>
      <trkpt lat="42.6979140" lon="-0.1045020">
        <ele>1462.2</ele>
        <time>2022-07-23T08:49:42Z</time>
      </trkpt>
      <trkpt lat="42.6979420" lon="-0.1044600">
        <ele>1463.2</ele>
        <time>2022-07-23T08:49:48Z</time>
      </trkpt>
      <trkpt lat="42.6979430" lon="-0.1044280">
        <ele>1464.4</ele>
        <time>2022-07-23T08:49:52Z</time>
      </trkpt>
      <trkpt lat="42.6979410" lon="-0.1044200">
        <ele>1464.6</ele>
        <time>2022-07-23T08:49:54Z</time>
      </trkpt>
      <trkpt lat="42.6978770" lon="-0.1043730">
        <ele>1466.8</ele>
        <time>2022-07-23T08:50:04Z</time>
      </trkpt>
      <trkpt lat="42.6978410" lon="-0.1043540">
        <ele>1467.2</ele>
        <time>2022-07-23T08:50:08Z</time>
      </trkpt>
      <trkpt lat="42.6978400" lon="-0.1043260">
        <ele>1468.0</ele>
        <time>2022-07-23T08:50:15Z</time>
      </trkpt>
      <trkpt lat="42.6978400" lon="-0.1043280">
        <ele>1468.4</ele>
        <time>2022-07-23T08:50:16Z</time>
      </trkpt>
      <trkpt lat="42.6978750" lon="-0.1043170">
        <ele>1469.2</ele>
        <time>2022-07-23T08:50:21Z</time>
      </trkpt>
      <trkpt lat="42.6979420" lon="-0.1043450">
        <ele>1470.0</ele>
        <time>2022-07-23T08:50:26Z</time>
      </trkpt>
      <trkpt lat="42.6979530" lon="-0.1043560">
        <ele>1470.2</ele>
        <time>2022-07-23T08:50:27Z</time>
      </trkpt>
      <trkpt lat="42.6979790" lon="-0.1043580">
        <ele>1470.8</ele>
        <time>2022-07-23T08:50:30Z</time>
      </trkpt>
      <trkpt lat="42.6980050" lon="-0.1043620">
        <ele>1471.2</ele>
        <time>2022-07-23T08:50:32Z</time>
      </trkpt>
      <trkpt lat="42.6980850" lon="-0.1043400">
        <ele>1472.0</ele>
        <time>2022-07-23T08:50:38Z</time>
      </trkpt>
      <trkpt lat="42.6981480" lon="-0.1043180">
        <ele>1472.2</ele>
        <time>2022-07-23T08:50:44Z</time>
      </trkpt>
      <trkpt lat="42.6981830" lon="-0.1043010">
        <ele>1472.8</ele>
        <time>2022-07-23T08:50:48Z</time>
      </trkpt>
      <trkpt lat="42.6982230" lon="-0.1042810">
        <ele>1473.2</ele>
        <time>2022-07-23T08:50:52Z</time>
      </trkpt>
      <trkpt lat="42.6983070" lon="-0.1042580">
        <ele>1475.4</ele>
        <time>2022-07-23T08:51:02Z</time>
      </trkpt>
      <trkpt lat="42.6983140" lon="-0.1042610">
        <ele>1475.8</ele>
        <time>2022-07-23T08:51:03Z</time>
      </trkpt>
      <trkpt lat="42.6983520" lon="-0.1042860">
        <ele>1476.8</ele>
        <time>2022-07-23T08:51:10Z</time>
      </trkpt>
      <trkpt lat="42.6983940" lon="-0.1042910">
        <ele>1478.0</ele>
        <time>2022-07-23T08:51:17Z</time>
      </trkpt>
      <trkpt lat="42.6984810" lon="-0.1042910">
        <ele>1480.2</ele>
        <time>2022-07-23T08:51:29Z</time>
      </trkpt>
      <trkpt lat="42.6984950" lon="-0.1042850">
        <ele>1480.8</ele>
        <time>2022-07-23T08:51:32Z</time>
      </trkpt>
      <trkpt lat="42.6985800" lon="-0.1042710">
        <ele>1481.6</ele>
        <time>2022-07-23T08:51:41Z</time>
      </trkpt>
      <trkpt lat="42.6985920" lon="-0.1042850">
        <ele>1482.2</ele>
        <time>2022-07-23T08:51:46Z</time>
      </trkpt>
      <trkpt lat="42.6986450" lon="-0.1043110">
        <ele>1484.4</ele>
        <time>2022-07-23T08:51:56Z</time>
      </trkpt>
      <trkpt lat="42.6986530" lon="-0.1043090">
        <ele>1484.6</ele>
        <time>2022-07-23T08:51:57Z</time>
      </trkpt>
      <trkpt lat="42.6987420" lon="-0.1042880">
        <ele>1485.6</ele>
        <time>2022-07-23T08:52:03Z</time>
      </trkpt>
      <trkpt lat="42.6987640" lon="-0.1042770">
        <ele>1486.2</ele>
        <time>2022-07-23T08:52:07Z</time>
      </trkpt>
      <trkpt lat="42.6987360" lon="-0.1042280">
        <ele>1487.6</ele>
        <time>2022-07-23T08:52:14Z</time>
      </trkpt>
      <trkpt lat="42.6986700" lon="-0.1041880">
        <ele>1489.6</ele>
        <time>2022-07-23T08:52:25Z</time>
      </trkpt>
      <trkpt lat="42.6986460" lon="-0.1041890">
        <ele>1490.2</ele>
        <time>2022-07-23T08:52:27Z</time>
      </trkpt>
      <trkpt lat="42.6985620" lon="-0.1041930">
        <ele>1491.4</ele>
        <time>2022-07-23T08:52:35Z</time>
      </trkpt>
      <trkpt lat="42.6985350" lon="-0.1041790">
        <ele>1491.6</ele>
        <time>2022-07-23T08:52:38Z</time>
      </trkpt>
      <trkpt lat="42.6985230" lon="-0.1041500">
        <ele>1492.2</ele>
        <time>2022-07-23T08:52:42Z</time>
      </trkpt>
      <trkpt lat="42.6985310" lon="-0.1041460">
        <ele>1492.6</ele>
        <time>2022-07-23T08:52:43Z</time>
      </trkpt>
      <trkpt lat="42.6985590" lon="-0.1041370">
        <ele>1493.0</ele>
        <time>2022-07-23T08:52:48Z</time>
      </trkpt>
      <trkpt lat="42.6985940" lon="-0.1041090">
        <ele>1493.6</ele>
        <time>2022-07-23T08:52:51Z</time>
      </trkpt>
      <trkpt lat="42.6986020" lon="-0.1041130">
        <ele>1493.6</ele>
        <time>2022-07-23T08:52:52Z</time>
      </trkpt>
      <trkpt lat="42.6986270" lon="-0.1041080">
        <ele>1494.0</ele>
        <time>2022-07-23T08:52:54Z</time>
      </trkpt>
      <trkpt lat="42.6987230" lon="-0.1041000">
        <ele>1495.2</ele>
        <time>2022-07-23T08:53:02Z</time>
      </trkpt>
      <trkpt lat="42.6987430" lon="-0.1040960">
        <ele>1495.6</ele>
        <time>2022-07-23T08:53:04Z</time>
      </trkpt>
      <trkpt lat="42.6987770" lon="-0.1040560">
        <ele>1497.0</ele>
        <time>2022-07-23T08:53:11Z</time>
      </trkpt>
      <trkpt lat="42.6987610" lon="-0.1040330">
        <ele>1497.2</ele>
        <time>2022-07-23T08:53:14Z</time>
      </trkpt>
      <trkpt lat="42.6987250" lon="-0.1040110">
        <ele>1497.6</ele>
        <time>2022-07-23T08:53:17Z</time>
      </trkpt>
      <trkpt lat="42.6986690" lon="-0.1039840">
        <ele>1498.8</ele>
        <time>2022-07-23T08:53:23Z</time>
      </trkpt>
      <trkpt lat="42.6986410" lon="-0.1039650">
        <ele>1499.2</ele>
        <time>2022-07-23T08:53:26Z</time>
      </trkpt>
      <trkpt lat="42.6985750" lon="-0.1039670">
        <ele>1500.2</ele>
        <time>2022-07-23T08:53:32Z</time>
      </trkpt>
      <trkpt lat="42.6985440" lon="-0.1039370">
        <ele>1501.4</ele>
        <time>2022-07-23T08:53:38Z</time>
      </trkpt>
      <trkpt lat="42.6985410" lon="-0.1039010">
        <ele>1502.4</ele>
        <time>2022-07-23T08:53:43Z</time>
      </trkpt>
      <trkpt lat="42.6985840" lon="-0.1038790">
        <ele>1503.8</ele>
        <time>2022-07-23T08:53:49Z</time>
      </trkpt>
      <trkpt lat="42.6986330" lon="-0.1038560">
        <ele>1505.2</ele>
        <time>2022-07-23T08:53:55Z</time>
      </trkpt>
      <trkpt lat="42.6986590" lon="-0.1038610">
        <ele>1506.0</ele>
        <time>2022-07-23T08:54:00Z</time>
      </trkpt>
      <trkpt lat="42.6986690" lon="-0.1038640">
        <ele>1506.2</ele>
        <time>2022-07-23T08:54:01Z</time>
      </trkpt>
      <trkpt lat="42.6987390" lon="-0.1038570">
        <ele>1508.0</ele>
        <time>2022-07-23T08:54:09Z</time>
      </trkpt>
      <trkpt lat="42.6987770" lon="-0.1038470">
        <ele>1509.0</ele>
        <time>2022-07-23T08:54:14Z</time>
      </trkpt>
      <trkpt lat="42.6988010" lon="-0.1038430">
        <ele>1510.0</ele>
        <time>2022-07-23T08:54:19Z</time>
      </trkpt>
      <trkpt lat="42.6988240" lon="-0.1038360">
        <ele>1510.6</ele>
        <time>2022-07-23T08:54:23Z</time>
      </trkpt>
      <trkpt lat="42.6988470" lon="-0.1038310">
        <ele>1510.8</ele>
        <time>2022-07-23T08:54:27Z</time>
      </trkpt>
      <trkpt lat="42.6988620" lon="-0.1038310">
        <ele>1511.6</ele>
        <time>2022-07-23T08:54:30Z</time>
      </trkpt>
      <trkpt lat="42.6988680" lon="-0.1038320">
        <ele>1511.8</ele>
        <time>2022-07-23T08:54:31Z</time>
      </trkpt>
      <trkpt lat="42.6989040" lon="-0.1038260">
        <ele>1513.0</ele>
        <time>2022-07-23T08:54:36Z</time>
      </trkpt>
      <trkpt lat="42.6989380" lon="-0.1038200">
        <ele>1514.0</ele>
        <time>2022-07-23T08:54:41Z</time>
      </trkpt>
      <trkpt lat="42.6989850" lon="-0.1038010">
        <ele>1514.6</ele>
        <time>2022-07-23T08:54:45Z</time>
      </trkpt>
      <trkpt lat="42.6990330" lon="-0.1037800">
        <ele>1515.6</ele>
        <time>2022-07-23T08:54:50Z</time>
      </trkpt>
      <trkpt lat="42.6990540" lon="-0.1037630">
        <ele>1516.0</ele>
        <time>2022-07-23T08:54:53Z</time>
      </trkpt>
      <trkpt lat="42.6990610" lon="-0.1037590">
        <ele>1516.0</ele>
        <time>2022-07-23T08:54:54Z</time>
      </trkpt>
      <trkpt lat="42.6990680" lon="-0.1037520">
        <ele>1516.0</ele>
        <time>2022-07-23T08:54:55Z</time>
      </trkpt>
      <trkpt lat="42.6991030" lon="-0.1037430">
        <ele>1516.6</ele>
        <time>2022-07-23T08:54:59Z</time>
      </trkpt>
      <trkpt lat="42.6991490" lon="-0.1036830">
        <ele>1518.2</ele>
        <time>2022-07-23T08:55:07Z</time>
      </trkpt>
      <trkpt lat="42.6991580" lon="-0.1036710">
        <ele>1518.6</ele>
        <time>2022-07-23T08:55:08Z</time>
      </trkpt>
      <trkpt lat="42.6992250" lon="-0.1036290">
        <ele>1519.6</ele>
        <time>2022-07-23T08:55:16Z</time>
      </trkpt>
      <trkpt lat="42.6992240" lon="-0.1036090">
        <ele>1520.2</ele>
        <time>2022-07-23T08:55:20Z</time>
      </trkpt>
      <trkpt lat="42.6992100" lon="-0.1035710">
        <ele>1520.8</ele>
        <time>2022-07-23T08:55:24Z</time>
      </trkpt>
      <trkpt lat="42.6991960" lon="-0.1035200">
        <ele>1521.8</ele>
        <time>2022-07-23T08:55:29Z</time>
      </trkpt>
      <trkpt lat="42.6991940" lon="-0.1035120">
        <ele>1522.0</ele>
        <time>2022-07-23T08:55:30Z</time>
      </trkpt>
      <trkpt lat="42.6991960" lon="-0.1034980">
        <ele>1522.0</ele>
        <time>2022-07-23T08:55:32Z</time>
      </trkpt>
      <trkpt lat="42.6992010" lon="-0.1034840">
        <ele>1523.0</ele>
        <time>2022-07-23T08:55:37Z</time>
      </trkpt>
      <trkpt lat="42.6991920" lon="-0.1034390">
        <ele>1523.2</ele>
        <time>2022-07-23T08:55:42Z</time>
      </trkpt>
      <trkpt lat="42.6991920" lon="-0.1034210">
        <ele>1523.4</ele>
        <time>2022-07-23T08:55:44Z</time>
      </trkpt>
      <trkpt lat="42.6991910" lon="-0.1034130">
        <ele>1523.6</ele>
        <time>2022-07-23T08:55:45Z</time>
      </trkpt>
      <trkpt lat="42.6992060" lon="-0.1033830">
        <ele>1523.6</ele>
        <time>2022-07-23T08:55:46Z</time>
      </trkpt>
      <trkpt lat="42.6992230" lon="-0.1033890">
        <ele>1523.4</ele>
        <time>2022-07-23T08:55:48Z</time>
      </trkpt>
      <trkpt lat="42.6992320" lon="-0.1033990">
        <ele>1523.6</ele>
        <time>2022-07-23T08:55:49Z</time>
      </trkpt>
      <trkpt lat="42.6992700" lon="-0.1034900">
        <ele>1523.6</ele>
        <time>2022-07-23T08:55:56Z</time>
      </trkpt>
      <trkpt lat="42.6992220" lon="-0.1034890">
        <ele>1523.4</ele>
        <time>2022-07-23T08:56:07Z</time>
      </trkpt>
      <trkpt lat="42.6991730" lon="-0.1034350">
        <ele>1523.4</ele>
        <time>2022-07-23T08:56:11Z</time>
      </trkpt>
      <trkpt lat="42.6991540" lon="-0.1034190">
        <ele>1523.4</ele>
        <time>2022-07-23T08:56:15Z</time>
      </trkpt>
      <trkpt lat="42.6991600" lon="-0.1034110">
        <ele>1523.2</ele>
        <time>2022-07-23T08:56:16Z</time>
      </trkpt>
      <trkpt lat="42.6991600" lon="-0.1034020">
        <ele>1523.4</ele>
        <time>2022-07-23T08:56:17Z</time>
      </trkpt>
      <trkpt lat="42.6991620" lon="-0.1034010">
        <ele>1523.6</ele>
        <time>2022-07-23T08:56:18Z</time>
      </trkpt>
      <trkpt lat="42.6991510" lon="-0.1033960">
        <ele>1524.2</ele>
        <time>2022-07-23T08:56:21Z</time>
      </trkpt>
      <trkpt lat="42.6991310" lon="-0.1033910">
        <ele>1524.6</ele>
        <time>2022-07-23T08:56:24Z</time>
      </trkpt>
      <trkpt lat="42.6990950" lon="-0.1033480">
        <ele>1525.6</ele>
        <time>2022-07-23T08:56:29Z</time>
      </trkpt>
      <trkpt lat="42.6990590" lon="-0.1033550">
        <ele>1526.2</ele>
        <time>2022-07-23T08:56:33Z</time>
      </trkpt>
      <trkpt lat="42.6990550" lon="-0.1033570">
        <ele>1526.2</ele>
        <time>2022-07-23T08:56:34Z</time>
      </trkpt>
      <trkpt lat="42.6990530" lon="-0.1033570">
        <ele>1526.4</ele>
        <time>2022-07-23T08:56:35Z</time>
      </trkpt>
      <trkpt lat="42.6990520" lon="-0.1033530">
        <ele>1526.6</ele>
        <time>2022-07-23T08:56:37Z</time>
      </trkpt>
      <trkpt lat="42.6990330" lon="-0.1033550">
        <ele>1527.8</ele>
        <time>2022-07-23T08:56:43Z</time>
      </trkpt>
      <trkpt lat="42.6990220" lon="-0.1033250">
        <ele>1528.2</ele>
        <time>2022-07-23T08:56:45Z</time>
      </trkpt>
      <trkpt lat="42.6990410" lon="-0.1032880">
        <ele>1528.6</ele>
        <time>2022-07-23T08:56:50Z</time>
      </trkpt>
      <trkpt lat="42.6990280" lon="-0.1032750">
        <ele>1529.8</ele>
        <time>2022-07-23T08:56:55Z</time>
      </trkpt>
      <trkpt lat="42.6990170" lon="-0.1032590">
        <ele>1530.8</ele>
        <time>2022-07-23T08:57:02Z</time>
      </trkpt>
      <trkpt lat="42.6989990" lon="-0.1032490">
        <ele>1531.8</ele>
        <time>2022-07-23T08:57:07Z</time>
      </trkpt>
      <trkpt lat="42.6990010" lon="-0.1032320">
        <ele>1532.0</ele>
        <time>2022-07-23T08:57:09Z</time>
      </trkpt>
      <trkpt lat="42.6990370" lon="-0.1031870">
        <ele>1532.6</ele>
        <time>2022-07-23T08:57:14Z</time>
      </trkpt>
      <trkpt lat="42.6990550" lon="-0.1031670">
        <ele>1532.8</ele>
        <time>2022-07-23T08:57:16Z</time>
      </trkpt>
      <trkpt lat="42.6990760" lon="-0.1031480">
        <ele>1532.8</ele>
        <time>2022-07-23T08:57:18Z</time>
      </trkpt>
      <trkpt lat="42.6991050" lon="-0.1031150">
        <ele>1533.4</ele>
        <time>2022-07-23T08:57:22Z</time>
      </trkpt>
      <trkpt lat="42.6991630" lon="-0.1030820">
        <ele>1533.8</ele>
        <time>2022-07-23T08:57:25Z</time>
      </trkpt>
      <trkpt lat="42.6991840" lon="-0.1030760">
        <ele>1534.0</ele>
        <time>2022-07-23T08:57:26Z</time>
      </trkpt>
      <trkpt lat="42.6992150" lon="-0.1030690">
        <ele>1534.0</ele>
        <time>2022-07-23T08:57:27Z</time>
      </trkpt>
      <trkpt lat="42.6992460" lon="-0.1030640">
        <ele>1534.2</ele>
        <time>2022-07-23T08:57:28Z</time>
      </trkpt>
      <trkpt lat="42.6992820" lon="-0.1030670">
        <ele>1535.0</ele>
        <time>2022-07-23T08:57:33Z</time>
      </trkpt>
      <trkpt lat="42.6992740" lon="-0.1030470">
        <ele>1535.6</ele>
        <time>2022-07-23T08:57:37Z</time>
      </trkpt>
      <trkpt lat="42.6992510" lon="-0.1030450">
        <ele>1535.8</ele>
        <time>2022-07-23T08:57:40Z</time>
      </trkpt>
      <trkpt lat="42.6992120" lon="-0.1030340">
        <ele>1536.8</ele>
        <time>2022-07-23T08:57:46Z</time>
      </trkpt>
      <trkpt lat="42.6991940" lon="-0.1030130">
        <ele>1536.8</ele>
        <time>2022-07-23T08:57:48Z</time>
      </trkpt>
      <trkpt lat="42.6991540" lon="-0.1030020">
        <ele>1537.0</ele>
        <time>2022-07-23T08:57:52Z</time>
      </trkpt>
      <trkpt lat="42.6991520" lon="-0.1029940">
        <ele>1537.2</ele>
        <time>2022-07-23T08:57:56Z</time>
      </trkpt>
      <trkpt lat="42.6991520" lon="-0.1029890">
        <ele>1537.4</ele>
        <time>2022-07-23T08:57:58Z</time>
      </trkpt>
      <trkpt lat="42.6991480" lon="-0.1029900">
        <ele>1537.8</ele>
        <time>2022-07-23T08:58:00Z</time>
      </trkpt>
      <trkpt lat="42.6991460" lon="-0.1029940">
        <ele>1538.4</ele>
        <time>2022-07-23T08:58:02Z</time>
      </trkpt>
      <trkpt lat="42.6991360" lon="-0.1029860">
        <ele>1538.6</ele>
        <time>2022-07-23T08:58:05Z</time>
      </trkpt>
      <trkpt lat="42.6991090" lon="-0.1029900">
        <ele>1539.8</ele>
        <time>2022-07-23T08:58:10Z</time>
      </trkpt>
      <trkpt lat="42.6991100" lon="-0.1029970">
        <ele>1540.4</ele>
        <time>2022-07-23T08:58:12Z</time>
      </trkpt>
      <trkpt lat="42.6990810" lon="-0.1030510">
        <ele>1541.8</ele>
        <time>2022-07-23T08:58:19Z</time>
      </trkpt>
      <trkpt lat="42.6990660" lon="-0.1030620">
        <ele>1542.4</ele>
        <time>2022-07-23T08:58:22Z</time>
      </trkpt>
      <trkpt lat="42.6990410" lon="-0.1030790">
        <ele>1542.8</ele>
        <time>2022-07-23T08:58:25Z</time>
      </trkpt>
      <trkpt lat="42.6989800" lon="-0.1030930">
        <ele>1543.6</ele>
        <time>2022-07-23T08:58:31Z</time>
      </trkpt>
      <trkpt lat="42.6989690" lon="-0.1030930">
        <ele>1543.8</ele>
        <time>2022-07-23T08:58:32Z</time>
      </trkpt>
      <trkpt lat="42.6989330" lon="-0.1030760">
        <ele>1544.2</ele>
        <time>2022-07-23T08:58:37Z</time>
      </trkpt>
      <trkpt lat="42.6989270" lon="-0.1030690">
        <ele>1544.4</ele>
        <time>2022-07-23T08:58:39Z</time>
      </trkpt>
      <trkpt lat="42.6989450" lon="-0.1030210">
        <ele>1545.4</ele>
        <time>2022-07-23T08:58:45Z</time>
      </trkpt>
      <trkpt lat="42.6989470" lon="-0.1030100">
        <ele>1545.2</ele>
        <time>2022-07-23T08:58:46Z</time>
      </trkpt>
      <trkpt lat="42.6989490" lon="-0.1030020">
        <ele>1545.6</ele>
        <time>2022-07-23T08:58:47Z</time>
      </trkpt>
      <trkpt lat="42.6989540" lon="-0.1029670">
        <ele>1546.6</ele>
        <time>2022-07-23T08:58:51Z</time>
      </trkpt>
      <trkpt lat="42.6989630" lon="-0.1029160">
        <ele>1546.8</ele>
        <time>2022-07-23T08:58:55Z</time>
      </trkpt>
      <trkpt lat="42.6989690" lon="-0.1029020">
        <ele>1547.2</ele>
        <time>2022-07-23T08:58:56Z</time>
      </trkpt>
      <trkpt lat="42.6989850" lon="-0.1028620">
        <ele>1548.0</ele>
        <time>2022-07-23T08:59:00Z</time>
      </trkpt>
      <trkpt lat="42.6989910" lon="-0.1028050">
        <ele>1549.4</ele>
        <time>2022-07-23T08:59:06Z</time>
      </trkpt>
      <trkpt lat="42.6989970" lon="-0.1027750">
        <ele>1550.0</ele>
        <time>2022-07-23T08:59:09Z</time>
      </trkpt>
      <trkpt lat="42.6990060" lon="-0.1027400">
        <ele>1550.6</ele>
        <time>2022-07-23T08:59:12Z</time>
      </trkpt>
      <trkpt lat="42.6990160" lon="-0.1027140">
        <ele>1551.4</ele>
        <time>2022-07-23T08:59:15Z</time>
      </trkpt>
      <trkpt lat="42.6990400" lon="-0.1027090">
        <ele>1551.8</ele>
        <time>2022-07-23T08:59:18Z</time>
      </trkpt>
      <trkpt lat="42.6990730" lon="-0.1026780">
        <ele>1553.2</ele>
        <time>2022-07-23T08:59:24Z</time>
      </trkpt>
      <trkpt lat="42.6991190" lon="-0.1026140">
        <ele>1554.8</ele>
        <time>2022-07-23T08:59:32Z</time>
      </trkpt>
      <trkpt lat="42.6991210" lon="-0.1026070">
        <ele>1555.0</ele>
        <time>2022-07-23T08:59:33Z</time>
      </trkpt>
      <trkpt lat="42.6991270" lon="-0.1025910">
        <ele>1555.4</ele>
        <time>2022-07-23T08:59:35Z</time>
      </trkpt>
      <trkpt lat="42.6991320" lon="-0.1025750">
        <ele>1555.8</ele>
        <time>2022-07-23T08:59:37Z</time>
      </trkpt>
      <trkpt lat="42.6991610" lon="-0.1025320">
        <ele>1557.2</ele>
        <time>2022-07-23T08:59:45Z</time>
      </trkpt>
      <trkpt lat="42.6991860" lon="-0.1024910">
        <ele>1558.2</ele>
        <time>2022-07-23T08:59:50Z</time>
      </trkpt>
      <trkpt lat="42.6991930" lon="-0.1024800">
        <ele>1558.8</ele>
        <time>2022-07-23T08:59:53Z</time>
      </trkpt>
      <trkpt lat="42.6992010" lon="-0.1024720">
        <ele>1559.4</ele>
        <time>2022-07-23T08:59:57Z</time>
      </trkpt>
      <trkpt lat="42.6992470" lon="-0.1024150">
        <ele>1560.8</ele>
        <time>2022-07-23T09:00:04Z</time>
      </trkpt>
      <trkpt lat="42.6992520" lon="-0.1024030">
        <ele>1560.8</ele>
        <time>2022-07-23T09:00:05Z</time>
      </trkpt>
      <trkpt lat="42.6992740" lon="-0.1023460">
        <ele>1561.8</ele>
        <time>2022-07-23T09:00:11Z</time>
      </trkpt>
      <trkpt lat="42.6993370" lon="-0.1023000">
        <ele>1563.6</ele>
        <time>2022-07-23T09:00:19Z</time>
      </trkpt>
      <trkpt lat="42.6993470" lon="-0.1022890">
        <ele>1564.0</ele>
        <time>2022-07-23T09:00:21Z</time>
      </trkpt>
      <trkpt lat="42.6994060" lon="-0.1022360">
        <ele>1565.4</ele>
        <time>2022-07-23T09:00:29Z</time>
      </trkpt>
      <trkpt lat="42.6994400" lon="-0.1022170">
        <ele>1566.0</ele>
        <time>2022-07-23T09:00:33Z</time>
      </trkpt>
      <trkpt lat="42.6994780" lon="-0.1021810">
        <ele>1566.8</ele>
        <time>2022-07-23T09:00:39Z</time>
      </trkpt>
      <trkpt lat="42.6994990" lon="-0.1021550">
        <ele>1567.6</ele>
        <time>2022-07-23T09:00:43Z</time>
      </trkpt>
      <trkpt lat="42.6995400" lon="-0.1021400">
        <ele>1568.4</ele>
        <time>2022-07-23T09:00:49Z</time>
      </trkpt>
      <trkpt lat="42.6995640" lon="-0.1021370">
        <ele>1569.4</ele>
        <time>2022-07-23T09:00:53Z</time>
      </trkpt>
      <trkpt lat="42.6996100" lon="-0.1021510">
        <ele>1571.6</ele>
        <time>2022-07-23T09:01:05Z</time>
      </trkpt>
      <trkpt lat="42.6996220" lon="-0.1021630">
        <ele>1572.2</ele>
        <time>2022-07-23T09:01:08Z</time>
      </trkpt>
      <trkpt lat="42.6996910" lon="-0.1022100">
        <ele>1572.4</ele>
        <time>2022-07-23T09:01:15Z</time>
      </trkpt>
      <trkpt lat="42.6997080" lon="-0.1022220">
        <ele>1572.8</ele>
        <time>2022-07-23T09:01:17Z</time>
      </trkpt>
      <trkpt lat="42.6997510" lon="-0.1022260">
        <ele>1574.0</ele>
        <time>2022-07-23T09:01:21Z</time>
      </trkpt>
      <trkpt lat="42.6998340" lon="-0.1022410">
        <ele>1575.4</ele>
        <time>2022-07-23T09:01:28Z</time>
      </trkpt>
      <trkpt lat="42.6998470" lon="-0.1022390">
        <ele>1575.4</ele>
        <time>2022-07-23T09:01:29Z</time>
      </trkpt>
      <trkpt lat="42.6998940" lon="-0.1022220">
        <ele>1576.6</ele>
        <time>2022-07-23T09:01:35Z</time>
      </trkpt>
      <trkpt lat="42.6999460" lon="-0.1021940">
        <ele>1578.0</ele>
        <time>2022-07-23T09:01:42Z</time>
      </trkpt>
      <trkpt lat="42.6999550" lon="-0.1021860">
        <ele>1578.4</ele>
        <time>2022-07-23T09:01:44Z</time>
      </trkpt>
      <trkpt lat="42.6999960" lon="-0.1021820">
        <ele>1579.6</ele>
        <time>2022-07-23T09:01:51Z</time>
      </trkpt>
      <trkpt lat="42.7000100" lon="-0.1021660">
        <ele>1580.2</ele>
        <time>2022-07-23T09:01:55Z</time>
      </trkpt>
      <trkpt lat="42.7000180" lon="-0.1021640">
        <ele>1580.4</ele>
        <time>2022-07-23T09:01:56Z</time>
      </trkpt>
      <trkpt lat="42.7000630" lon="-0.1021330">
        <ele>1581.6</ele>
        <time>2022-07-23T09:02:04Z</time>
      </trkpt>
      <trkpt lat="42.7000830" lon="-0.1021090">
        <ele>1582.0</ele>
        <time>2022-07-23T09:02:07Z</time>
      </trkpt>
      <trkpt lat="42.7000940" lon="-0.1021030">
        <ele>1582.4</ele>
        <time>2022-07-23T09:02:09Z</time>
      </trkpt>
      <trkpt lat="42.7000970" lon="-0.1020610">
        <ele>1584.0</ele>
        <time>2022-07-23T09:02:16Z</time>
      </trkpt>
      <trkpt lat="42.7000740" lon="-0.1020430">
        <ele>1584.4</ele>
        <time>2022-07-23T09:02:19Z</time>
      </trkpt>
      <trkpt lat="42.7000060" lon="-0.1020590">
        <ele>1585.8</ele>
        <time>2022-07-23T09:02:26Z</time>
      </trkpt>
      <trkpt lat="42.6999950" lon="-0.1020110">
        <ele>1586.4</ele>
        <time>2022-07-23T09:02:29Z</time>
      </trkpt>
      <trkpt lat="42.6999910" lon="-0.1020030">
        <ele>1586.4</ele>
        <time>2022-07-23T09:02:30Z</time>
      </trkpt>
      <trkpt lat="42.6999560" lon="-0.1019610">
        <ele>1587.2</ele>
        <time>2022-07-23T09:02:36Z</time>
      </trkpt>
      <trkpt lat="42.6999100" lon="-0.1019240">
        <ele>1587.8</ele>
        <time>2022-07-23T09:02:40Z</time>
      </trkpt>
      <trkpt lat="42.6998970" lon="-0.1019250">
        <ele>1588.2</ele>
        <time>2022-07-23T09:02:41Z</time>
      </trkpt>
      <trkpt lat="42.6998210" lon="-0.1018750">
        <ele>1589.6</ele>
        <time>2022-07-23T09:02:48Z</time>
      </trkpt>
      <trkpt lat="42.6997970" lon="-0.1018490">
        <ele>1589.8</ele>
        <time>2022-07-23T09:02:51Z</time>
      </trkpt>
      <trkpt lat="42.6998220" lon="-0.1017770">
        <ele>1590.4</ele>
        <time>2022-07-23T09:02:56Z</time>
      </trkpt>
      <trkpt lat="42.6998440" lon="-0.1017500">
        <ele>1590.8</ele>
        <time>2022-07-23T09:02:58Z</time>
      </trkpt>
      <trkpt lat="42.6998670" lon="-0.1017140">
        <ele>1591.4</ele>
        <time>2022-07-23T09:03:01Z</time>
      </trkpt>
      <trkpt lat="42.6998880" lon="-0.1016930">
        <ele>1591.8</ele>
        <time>2022-07-23T09:03:03Z</time>
      </trkpt>
      <trkpt lat="42.6999420" lon="-0.1016920">
        <ele>1592.4</ele>
        <time>2022-07-23T09:03:08Z</time>
      </trkpt>
      <trkpt lat="42.6999500" lon="-0.1016890">
        <ele>1592.8</ele>
        <time>2022-07-23T09:03:09Z</time>
      </trkpt>
      <trkpt lat="42.6999780" lon="-0.1016700">
        <ele>1594.0</ele>
        <time>2022-07-23T09:03:13Z</time>
      </trkpt>
      <trkpt lat="42.7000200" lon="-0.1016420">
        <ele>1595.0</ele>
        <time>2022-07-23T09:03:19Z</time>
      </trkpt>
      <trkpt lat="42.7000460" lon="-0.1016400">
        <ele>1595.4</ele>
        <time>2022-07-23T09:03:21Z</time>
      </trkpt>
      <trkpt lat="42.7000850" lon="-0.1015800">
        <ele>1596.8</ele>
        <time>2022-07-23T09:03:28Z</time>
      </trkpt>
      <trkpt lat="42.7001130" lon="-0.1015560">
        <ele>1598.0</ele>
        <time>2022-07-23T09:03:33Z</time>
      </trkpt>
      <trkpt lat="42.7001600" lon="-0.1015120">
        <ele>1599.4</ele>
        <time>2022-07-23T09:03:39Z</time>
      </trkpt>
      <trkpt lat="42.7001810" lon="-0.1014880">
        <ele>1600.4</ele>
        <time>2022-07-23T09:03:46Z</time>
      </trkpt>
      <trkpt lat="42.7001870" lon="-0.1014890">
        <ele>1601.6</ele>
        <time>2022-07-23T09:03:51Z</time>
      </trkpt>
      <trkpt lat="42.7001830" lon="-0.1014930">
        <ele>1602.2</ele>
        <time>2022-07-23T09:03:59Z</time>
      </trkpt>
      <trkpt lat="42.7001940" lon="-0.1014810">
        <ele>1602.2</ele>
        <time>2022-07-23T09:04:09Z</time>
      </trkpt>
      <trkpt lat="42.7001830" lon="-0.1014570">
        <ele>1602.0</ele>
        <time>2022-07-23T09:04:14Z</time>
      </trkpt>
      <trkpt lat="42.7001710" lon="-0.1014550">
        <ele>1602.2</ele>
        <time>2022-07-23T09:04:16Z</time>
      </trkpt>
      <trkpt lat="42.7001290" lon="-0.1014610">
        <ele>1602.2</ele>
        <time>2022-07-23T09:04:21Z</time>
      </trkpt>
      <trkpt lat="42.7001140" lon="-0.1014700">
        <ele>1602.2</ele>
        <time>2022-07-23T09:04:23Z</time>
      </trkpt>
      <trkpt lat="42.7000560" lon="-0.1014770">
        <ele>1603.8</ele>
        <time>2022-07-23T09:04:32Z</time>
      </trkpt>
      <trkpt lat="42.7000380" lon="-0.1014550">
        <ele>1604.6</ele>
        <time>2022-07-23T09:04:36Z</time>
      </trkpt>
      <trkpt lat="42.7000280" lon="-0.1014400">
        <ele>1605.0</ele>
        <time>2022-07-23T09:04:38Z</time>
      </trkpt>
      <trkpt lat="42.6999840" lon="-0.1013830">
        <ele>1606.4</ele>
        <time>2022-07-23T09:04:46Z</time>
      </trkpt>
      <trkpt lat="42.6999810" lon="-0.1013670">
        <ele>1606.8</ele>
        <time>2022-07-23T09:04:47Z</time>
      </trkpt>
      <trkpt lat="42.6999800" lon="-0.1013530">
        <ele>1606.8</ele>
        <time>2022-07-23T09:04:48Z</time>
      </trkpt>
      <trkpt lat="42.6999760" lon="-0.1013240">
        <ele>1607.2</ele>
        <time>2022-07-23T09:04:51Z</time>
      </trkpt>
      <trkpt lat="42.6999770" lon="-0.1012980">
        <ele>1607.6</ele>
        <time>2022-07-23T09:04:55Z</time>
      </trkpt>
      <trkpt lat="42.6999730" lon="-0.1012320">
        <ele>1609.4</ele>
        <time>2022-07-23T09:05:03Z</time>
      </trkpt>
      <trkpt lat="42.6999690" lon="-0.1012160">
        <ele>1609.6</ele>
        <time>2022-07-23T09:05:04Z</time>
      </trkpt>
      <trkpt lat="42.6999670" lon="-0.1012000">
        <ele>1609.6</ele>
        <time>2022-07-23T09:05:05Z</time>
      </trkpt>
      <trkpt lat="42.6999650" lon="-0.1011440">
        <ele>1610.6</ele>
        <time>2022-07-23T09:05:09Z</time>
      </trkpt>
      <trkpt lat="42.6999580" lon="-0.1011350">
        <ele>1611.0</ele>
        <time>2022-07-23T09:05:10Z</time>
      </trkpt>
      <trkpt lat="42.6999560" lon="-0.1011250">
        <ele>1611.2</ele>
        <time>2022-07-23T09:05:11Z</time>
      </trkpt>
      <trkpt lat="42.6999230" lon="-0.1010920">
        <ele>1611.6</ele>
        <time>2022-07-23T09:05:15Z</time>
      </trkpt>
      <trkpt lat="42.6998840" lon="-0.1010600">
        <ele>1612.8</ele>
        <time>2022-07-23T09:05:20Z</time>
      </trkpt>
      <trkpt lat="42.6998300" lon="-0.1010430">
        <ele>1613.6</ele>
        <time>2022-07-23T09:05:25Z</time>
      </trkpt>
      <trkpt lat="42.6998200" lon="-0.1010310">
        <ele>1613.6</ele>
        <time>2022-07-23T09:05:27Z</time>
      </trkpt>
      <trkpt lat="42.6997960" lon="-0.1009940">
        <ele>1615.0</ele>
        <time>2022-07-23T09:05:33Z</time>
      </trkpt>
      <trkpt lat="42.6998050" lon="-0.1009720">
        <ele>1615.2</ele>
        <time>2022-07-23T09:05:35Z</time>
      </trkpt>
      <trkpt lat="42.6998400" lon="-0.1009980">
        <ele>1616.0</ele>
        <time>2022-07-23T09:05:40Z</time>
      </trkpt>
      <trkpt lat="42.6998480" lon="-0.1009980">
        <ele>1616.2</ele>
        <time>2022-07-23T09:05:41Z</time>
      </trkpt>
      <trkpt lat="42.6999200" lon="-0.1009800">
        <ele>1618.0</ele>
        <time>2022-07-23T09:05:50Z</time>
      </trkpt>
      <trkpt lat="42.6999680" lon="-0.1009620">
        <ele>1618.6</ele>
        <time>2022-07-23T09:05:56Z</time>
      </trkpt>
      <trkpt lat="42.7000500" lon="-0.1009430">
        <ele>1620.2</ele>
        <time>2022-07-23T09:06:04Z</time>
      </trkpt>
      <trkpt lat="42.7000810" lon="-0.1009120">
        <ele>1620.6</ele>
        <time>2022-07-23T09:06:08Z</time>
      </trkpt>
      <trkpt lat="42.7000960" lon="-0.1008810">
        <ele>1621.0</ele>
        <time>2022-07-23T09:06:10Z</time>
      </trkpt>
      <trkpt lat="42.7001530" lon="-0.1007840">
        <ele>1622.0</ele>
        <time>2022-07-23T09:06:17Z</time>
      </trkpt>
      <trkpt lat="42.7002040" lon="-0.1007260">
        <ele>1624.2</ele>
        <time>2022-07-23T09:06:26Z</time>
      </trkpt>
      <trkpt lat="42.7002080" lon="-0.1007180">
        <ele>1624.6</ele>
        <time>2022-07-23T09:06:27Z</time>
      </trkpt>
      <trkpt lat="42.7002270" lon="-0.1006900">
        <ele>1625.2</ele>
        <time>2022-07-23T09:06:31Z</time>
      </trkpt>
      <trkpt lat="42.7002300" lon="-0.1006860">
        <ele>1625.2</ele>
        <time>2022-07-23T09:06:33Z</time>
      </trkpt>
      <trkpt lat="42.7002100" lon="-0.1006850">
        <ele>1627.0</ele>
        <time>2022-07-23T09:06:43Z</time>
      </trkpt>
      <trkpt lat="42.7001920" lon="-0.1006880">
        <ele>1627.4</ele>
        <time>2022-07-23T09:06:57Z</time>
      </trkpt>
      <trkpt lat="42.7001940" lon="-0.1006880">
        <ele>1627.4</ele>
        <time>2022-07-23T09:07:11Z</time>
      </trkpt>
      <trkpt lat="42.7002000" lon="-0.1006660">
        <ele>1627.2</ele>
        <time>2022-07-23T09:07:27Z</time>
      </trkpt>
      <trkpt lat="42.7002070" lon="-0.1006600">
        <ele>1627.2</ele>
        <time>2022-07-23T09:07:28Z</time>
      </trkpt>
      <trkpt lat="42.7002200" lon="-0.1006060">
        <ele>1627.4</ele>
        <time>2022-07-23T09:07:36Z</time>
      </trkpt>
      <trkpt lat="42.7002230" lon="-0.1006080">
        <ele>1628.8</ele>
        <time>2022-07-23T09:07:52Z</time>
      </trkpt>
      <trkpt lat="42.7002100" lon="-0.1006430">
        <ele>1628.6</ele>
        <time>2022-07-23T09:08:22Z</time>
      </trkpt>
      <trkpt lat="42.7002040" lon="-0.1006520">
        <ele>1628.6</ele>
        <time>2022-07-23T09:08:23Z</time>
      </trkpt>
      <trkpt lat="42.7001920" lon="-0.1006660">
        <ele>1628.6</ele>
        <time>2022-07-23T09:08:25Z</time>
      </trkpt>
      <trkpt lat="42.7001890" lon="-0.1006720">
        <ele>1628.6</ele>
        <time>2022-07-23T09:08:26Z</time>
      </trkpt>
      <trkpt lat="42.7001790" lon="-0.1006780">
        <ele>1628.4</ele>
        <time>2022-07-23T09:08:28Z</time>
      </trkpt>
      <trkpt lat="42.7001730" lon="-0.1006790">
        <ele>1628.2</ele>
        <time>2022-07-23T09:08:29Z</time>
      </trkpt>
      <trkpt lat="42.7001410" lon="-0.1006770">
        <ele>1628.0</ele>
        <time>2022-07-23T09:08:33Z</time>
      </trkpt>
      <trkpt lat="42.7001240" lon="-0.1006740">
        <ele>1627.8</ele>
        <time>2022-07-23T09:08:35Z</time>
      </trkpt>
      <trkpt lat="42.7000920" lon="-0.1006720">
        <ele>1628.0</ele>
        <time>2022-07-23T09:08:38Z</time>
      </trkpt>
      <trkpt lat="42.7000340" lon="-0.1006520">
        <ele>1629.2</ele>
        <time>2022-07-23T09:08:46Z</time>
      </trkpt>
      <trkpt lat="42.7000130" lon="-0.1006490">
        <ele>1629.8</ele>
        <time>2022-07-23T09:08:49Z</time>
      </trkpt>
      <trkpt lat="42.6999800" lon="-0.1006420">
        <ele>1630.2</ele>
        <time>2022-07-23T09:08:54Z</time>
      </trkpt>
      <trkpt lat="42.6999460" lon="-0.1005970">
        <ele>1631.2</ele>
        <time>2022-07-23T09:08:59Z</time>
      </trkpt>
      <trkpt lat="42.6999400" lon="-0.1005850">
        <ele>1631.4</ele>
        <time>2022-07-23T09:09:00Z</time>
      </trkpt>
      <trkpt lat="42.6999330" lon="-0.1005620">
        <ele>1631.8</ele>
        <time>2022-07-23T09:09:02Z</time>
      </trkpt>
      <trkpt lat="42.6999320" lon="-0.1005210">
        <ele>1632.4</ele>
        <time>2022-07-23T09:09:05Z</time>
      </trkpt>
      <trkpt lat="42.6999500" lon="-0.1004570">
        <ele>1633.6</ele>
        <time>2022-07-23T09:09:11Z</time>
      </trkpt>
      <trkpt lat="42.6999540" lon="-0.1004480">
        <ele>1633.8</ele>
        <time>2022-07-23T09:09:12Z</time>
      </trkpt>
      <trkpt lat="42.6999560" lon="-0.1003930">
        <ele>1635.0</ele>
        <time>2022-07-23T09:09:18Z</time>
      </trkpt>
      <trkpt lat="42.6999280" lon="-0.1003340">
        <ele>1636.4</ele>
        <time>2022-07-23T09:09:25Z</time>
      </trkpt>
      <trkpt lat="42.6999160" lon="-0.1003210">
        <ele>1636.6</ele>
        <time>2022-07-23T09:09:27Z</time>
      </trkpt>
      <trkpt lat="42.6998970" lon="-0.1002750">
        <ele>1637.8</ele>
        <time>2022-07-23T09:09:33Z</time>
      </trkpt>
      <trkpt lat="42.6998600" lon="-0.1002340">
        <ele>1638.8</ele>
        <time>2022-07-23T09:09:39Z</time>
      </trkpt>
      <trkpt lat="42.6998560" lon="-0.1002290">
        <ele>1638.8</ele>
        <time>2022-07-23T09:09:40Z</time>
      </trkpt>
      <trkpt lat="42.6998410" lon="-0.1001700">
        <ele>1640.4</ele>
        <time>2022-07-23T09:09:47Z</time>
      </trkpt>
      <trkpt lat="42.6998580" lon="-0.1001190">
        <ele>1641.4</ele>
        <time>2022-07-23T09:09:52Z</time>
      </trkpt>
      <trkpt lat="42.6998570" lon="-0.1001100">
        <ele>1641.6</ele>
        <time>2022-07-23T09:09:53Z</time>
      </trkpt>
      <trkpt lat="42.6998440" lon="-0.1000790">
        <ele>1642.4</ele>
        <time>2022-07-23T09:09:57Z</time>
      </trkpt>
      <trkpt lat="42.6998310" lon="-0.1000360">
        <ele>1643.4</ele>
        <time>2022-07-23T09:10:01Z</time>
      </trkpt>
      <trkpt lat="42.6998170" lon="-0.1000090">
        <ele>1644.2</ele>
        <time>2022-07-23T09:10:04Z</time>
      </trkpt>
      <trkpt lat="42.6998130" lon="-0.0999980">
        <ele>1644.6</ele>
        <time>2022-07-23T09:10:05Z</time>
      </trkpt>
      <trkpt lat="42.6997960" lon="-0.0999570">
        <ele>1646.0</ele>
        <time>2022-07-23T09:10:10Z</time>
      </trkpt>
      <trkpt lat="42.6997780" lon="-0.0999260">
        <ele>1647.0</ele>
        <time>2022-07-23T09:10:15Z</time>
      </trkpt>
      <trkpt lat="42.6997630" lon="-0.0998970">
        <ele>1647.6</ele>
        <time>2022-07-23T09:10:18Z</time>
      </trkpt>
      <trkpt lat="42.6997540" lon="-0.0998860">
        <ele>1648.0</ele>
        <time>2022-07-23T09:10:19Z</time>
      </trkpt>
      <trkpt lat="42.6996820" lon="-0.0998470">
        <ele>1649.8</ele>
        <time>2022-07-23T09:10:26Z</time>
      </trkpt>
      <trkpt lat="42.6996610" lon="-0.0998360">
        <ele>1650.4</ele>
        <time>2022-07-23T09:10:29Z</time>
      </trkpt>
      <trkpt lat="42.6996330" lon="-0.0998130">
        <ele>1651.4</ele>
        <time>2022-07-23T09:10:33Z</time>
      </trkpt>
      <trkpt lat="42.6996150" lon="-0.0997720">
        <ele>1652.0</ele>
        <time>2022-07-23T09:10:38Z</time>
      </trkpt>
      <trkpt lat="42.6996410" lon="-0.0997750">
        <ele>1653.0</ele>
        <time>2022-07-23T09:10:43Z</time>
      </trkpt>
      <trkpt lat="42.6996590" lon="-0.0997580">
        <ele>1653.6</ele>
        <time>2022-07-23T09:10:46Z</time>
      </trkpt>
      <trkpt lat="42.6996680" lon="-0.0996870">
        <ele>1655.0</ele>
        <time>2022-07-23T09:10:55Z</time>
      </trkpt>
      <trkpt lat="42.6996670" lon="-0.0996810">
        <ele>1655.0</ele>
        <time>2022-07-23T09:10:56Z</time>
      </trkpt>
      <trkpt lat="42.6996310" lon="-0.0996640">
        <ele>1656.0</ele>
        <time>2022-07-23T09:11:04Z</time>
      </trkpt>
      <trkpt lat="42.6996280" lon="-0.0996380">
        <ele>1656.6</ele>
        <time>2022-07-23T09:11:07Z</time>
      </trkpt>
      <trkpt lat="42.6996190" lon="-0.0995970">
        <ele>1657.6</ele>
        <time>2022-07-23T09:11:12Z</time>
      </trkpt>
      <trkpt lat="42.6996490" lon="-0.0995430">
        <ele>1659.0</ele>
        <time>2022-07-23T09:11:20Z</time>
      </trkpt>
      <trkpt lat="42.6996460" lon="-0.0995400">
        <ele>1659.0</ele>
        <time>2022-07-23T09:11:21Z</time>
      </trkpt>
      <trkpt lat="42.6996380" lon="-0.0995300">
        <ele>1659.6</ele>
        <time>2022-07-23T09:11:23Z</time>
      </trkpt>
      <trkpt lat="42.6996300" lon="-0.0995250">
        <ele>1659.8</ele>
        <time>2022-07-23T09:11:24Z</time>
      </trkpt>
      <trkpt lat="42.6995650" lon="-0.0995220">
        <ele>1660.2</ele>
        <time>2022-07-23T09:11:29Z</time>
      </trkpt>
      <trkpt lat="42.6995530" lon="-0.0995190">
        <ele>1660.4</ele>
        <time>2022-07-23T09:11:30Z</time>
      </trkpt>
      <trkpt lat="42.6994990" lon="-0.0994780">
        <ele>1662.0</ele>
        <time>2022-07-23T09:11:37Z</time>
      </trkpt>
      <trkpt lat="42.6994380" lon="-0.0994360">
        <ele>1663.8</ele>
        <time>2022-07-23T09:11:47Z</time>
      </trkpt>
      <trkpt lat="42.6994240" lon="-0.0994140">
        <ele>1664.0</ele>
        <time>2022-07-23T09:11:50Z</time>
      </trkpt>
      <trkpt lat="42.6994300" lon="-0.0993650">
        <ele>1664.8</ele>
        <time>2022-07-23T09:11:56Z</time>
      </trkpt>
      <trkpt lat="42.6994400" lon="-0.0993390">
        <ele>1665.6</ele>
        <time>2022-07-23T09:12:00Z</time>
      </trkpt>
      <trkpt lat="42.6994400" lon="-0.0993310">
        <ele>1665.8</ele>
        <time>2022-07-23T09:12:01Z</time>
      </trkpt>
      <trkpt lat="42.6994350" lon="-0.0993080">
        <ele>1666.4</ele>
        <time>2022-07-23T09:12:05Z</time>
      </trkpt>
      <trkpt lat="42.6994310" lon="-0.0992570">
        <ele>1668.2</ele>
        <time>2022-07-23T09:12:12Z</time>
      </trkpt>
      <trkpt lat="42.6994260" lon="-0.0992110">
        <ele>1669.4</ele>
        <time>2022-07-23T09:12:16Z</time>
      </trkpt>
      <trkpt lat="42.6994240" lon="-0.0992020">
        <ele>1669.6</ele>
        <time>2022-07-23T09:12:17Z</time>
      </trkpt>
      <trkpt lat="42.6994280" lon="-0.0991560">
        <ele>1671.0</ele>
        <time>2022-07-23T09:12:23Z</time>
      </trkpt>
      <trkpt lat="42.6994370" lon="-0.0991130">
        <ele>1672.8</ele>
        <time>2022-07-23T09:12:31Z</time>
      </trkpt>
      <trkpt lat="42.6994390" lon="-0.0991050">
        <ele>1673.0</ele>
        <time>2022-07-23T09:12:32Z</time>
      </trkpt>
      <trkpt lat="42.6994560" lon="-0.0990570">
        <ele>1673.6</ele>
        <time>2022-07-23T09:12:36Z</time>
      </trkpt>
      <trkpt lat="42.6994550" lon="-0.0990350">
        <ele>1673.6</ele>
        <time>2022-07-23T09:12:38Z</time>
      </trkpt>
      <trkpt lat="42.6994540" lon="-0.0990220">
        <ele>1674.2</ele>
        <time>2022-07-23T09:12:39Z</time>
      </trkpt>
      <trkpt lat="42.6994470" lon="-0.0990120">
        <ele>1674.2</ele>
        <time>2022-07-23T09:12:40Z</time>
      </trkpt>
      <trkpt lat="42.6994300" lon="-0.0989960">
        <ele>1674.8</ele>
        <time>2022-07-23T09:12:43Z</time>
      </trkpt>
      <trkpt lat="42.6994310" lon="-0.0989890">
        <ele>1676.0</ele>
        <time>2022-07-23T09:12:48Z</time>
      </trkpt>
      <trkpt lat="42.6994660" lon="-0.0989680">
        <ele>1677.6</ele>
        <time>2022-07-23T09:12:57Z</time>
      </trkpt>
      <trkpt lat="42.6994990" lon="-0.0989540">
        <ele>1678.4</ele>
        <time>2022-07-23T09:13:01Z</time>
      </trkpt>
      <trkpt lat="42.6995610" lon="-0.0988820">
        <ele>1680.0</ele>
        <time>2022-07-23T09:13:10Z</time>
      </trkpt>
      <trkpt lat="42.6995640" lon="-0.0988700">
        <ele>1680.2</ele>
        <time>2022-07-23T09:13:11Z</time>
      </trkpt>
      <trkpt lat="42.6995400" lon="-0.0988120">
        <ele>1681.2</ele>
        <time>2022-07-23T09:13:16Z</time>
      </trkpt>
      <trkpt lat="42.6995320" lon="-0.0988010">
        <ele>1681.2</ele>
        <time>2022-07-23T09:13:17Z</time>
      </trkpt>
      <trkpt lat="42.6995220" lon="-0.0987910">
        <ele>1681.6</ele>
        <time>2022-07-23T09:13:18Z</time>
      </trkpt>
      <trkpt lat="42.6995130" lon="-0.0987750">
        <ele>1682.0</ele>
        <time>2022-07-23T09:13:20Z</time>
      </trkpt>
      <trkpt lat="42.6995080" lon="-0.0987670">
        <ele>1682.0</ele>
        <time>2022-07-23T09:13:21Z</time>
      </trkpt>
      <trkpt lat="42.6994650" lon="-0.0987670">
        <ele>1684.0</ele>
        <time>2022-07-23T09:13:33Z</time>
      </trkpt>
      <trkpt lat="42.6994750" lon="-0.0987630">
        <ele>1684.2</ele>
        <time>2022-07-23T09:13:44Z</time>
      </trkpt>
      <trkpt lat="42.6994810" lon="-0.0987560">
        <ele>1684.0</ele>
        <time>2022-07-23T09:13:57Z</time>
      </trkpt>
      <trkpt lat="42.6994930" lon="-0.0987500">
        <ele>1684.2</ele>
        <time>2022-07-23T09:14:17Z</time>
      </trkpt>
      <trkpt lat="42.6994860" lon="-0.0987600">
        <ele>1684.2</ele>
        <time>2022-07-23T09:14:32Z</time>
      </trkpt>
      <trkpt lat="42.6994780" lon="-0.0987520">
        <ele>1684.2</ele>
        <time>2022-07-23T09:14:47Z</time>
      </trkpt>
      <trkpt lat="42.6994760" lon="-0.0987480">
        <ele>1684.2</ele>
        <time>2022-07-23T09:14:48Z</time>
      </trkpt>
      <trkpt lat="42.6994390" lon="-0.0986740">
        <ele>1684.2</ele>
        <time>2022-07-23T09:14:57Z</time>
      </trkpt>
      <trkpt lat="42.6994330" lon="-0.0986470">
        <ele>1684.4</ele>
        <time>2022-07-23T09:14:59Z</time>
      </trkpt>
      <trkpt lat="42.6994190" lon="-0.0986000">
        <ele>1684.6</ele>
        <time>2022-07-23T09:15:02Z</time>
      </trkpt>
      <trkpt lat="42.6994150" lon="-0.0985740">
        <ele>1684.8</ele>
        <time>2022-07-23T09:15:04Z</time>
      </trkpt>
      <trkpt lat="42.6994100" lon="-0.0985350">
        <ele>1685.8</ele>
        <time>2022-07-23T09:15:08Z</time>
      </trkpt>
      <trkpt lat="42.6994080" lon="-0.0984980">
        <ele>1686.2</ele>
        <time>2022-07-23T09:15:12Z</time>
      </trkpt>
      <trkpt lat="42.6993920" lon="-0.0984610">
        <ele>1687.0</ele>
        <time>2022-07-23T09:15:16Z</time>
      </trkpt>
      <trkpt lat="42.6993620" lon="-0.0983600">
        <ele>1688.0</ele>
        <time>2022-07-23T09:15:23Z</time>
      </trkpt>
      <trkpt lat="42.6993440" lon="-0.0983160">
        <ele>1688.8</ele>
        <time>2022-07-23T09:15:26Z</time>
      </trkpt>
      <trkpt lat="42.6993380" lon="-0.0983040">
        <ele>1689.0</ele>
        <time>2022-07-23T09:15:27Z</time>
      </trkpt>
      <trkpt lat="42.6992810" lon="-0.0982780">
        <ele>1690.4</ele>
        <time>2022-07-23T09:15:36Z</time>
      </trkpt>
      <trkpt lat="42.6992680" lon="-0.0982790">
        <ele>1691.0</ele>
        <time>2022-07-23T09:15:38Z</time>
      </trkpt>
      <trkpt lat="42.6992640" lon="-0.0982840">
        <ele>1691.2</ele>
        <time>2022-07-23T09:15:39Z</time>
      </trkpt>
      <trkpt lat="42.6992530" lon="-0.0982940">
        <ele>1691.6</ele>
        <time>2022-07-23T09:15:41Z</time>
      </trkpt>
      <trkpt lat="42.6992460" lon="-0.0983030">
        <ele>1691.8</ele>
        <time>2022-07-23T09:15:42Z</time>
      </trkpt>
      <trkpt lat="42.6992300" lon="-0.0983360">
        <ele>1692.6</ele>
        <time>2022-07-23T09:15:49Z</time>
      </trkpt>
      <trkpt lat="42.6992140" lon="-0.0983410">
        <ele>1693.2</ele>
        <time>2022-07-23T09:15:52Z</time>
      </trkpt>
      <trkpt lat="42.6992020" lon="-0.0983300">
        <ele>1694.2</ele>
        <time>2022-07-23T09:16:00Z</time>
      </trkpt>
      <trkpt lat="42.6992300" lon="-0.0983030">
        <ele>1694.4</ele>
        <time>2022-07-23T09:16:05Z</time>
      </trkpt>
      <trkpt lat="42.6992200" lon="-0.0982800">
        <ele>1695.0</ele>
        <time>2022-07-23T09:16:09Z</time>
      </trkpt>
      <trkpt lat="42.6992150" lon="-0.0982720">
        <ele>1695.0</ele>
        <time>2022-07-23T09:16:10Z</time>
      </trkpt>
      <trkpt lat="42.6992090" lon="-0.0982640">
        <ele>1695.0</ele>
        <time>2022-07-23T09:16:11Z</time>
      </trkpt>
      <trkpt lat="42.6992210" lon="-0.0982240">
        <ele>1696.0</ele>
        <time>2022-07-23T09:16:18Z</time>
      </trkpt>
      <trkpt lat="42.6992260" lon="-0.0982130">
        <ele>1696.6</ele>
        <time>2022-07-23T09:16:19Z</time>
      </trkpt>
      <trkpt lat="42.6992850" lon="-0.0980950">
        <ele>1698.2</ele>
        <time>2022-07-23T09:16:31Z</time>
      </trkpt>
      <trkpt lat="42.6992880" lon="-0.0980870">
        <ele>1698.4</ele>
        <time>2022-07-23T09:16:32Z</time>
      </trkpt>
      <trkpt lat="42.6993380" lon="-0.0980370">
        <ele>1699.2</ele>
        <time>2022-07-23T09:16:38Z</time>
      </trkpt>
      <trkpt lat="42.6993660" lon="-0.0979920">
        <ele>1700.0</ele>
        <time>2022-07-23T09:16:44Z</time>
      </trkpt>
      <trkpt lat="42.6993720" lon="-0.0979870">
        <ele>1700.2</ele>
        <time>2022-07-23T09:16:45Z</time>
      </trkpt>
      <trkpt lat="42.6994040" lon="-0.0979190">
        <ele>1701.4</ele>
        <time>2022-07-23T09:16:53Z</time>
      </trkpt>
      <trkpt lat="42.6993790" lon="-0.0978440">
        <ele>1702.8</ele>
        <time>2022-07-23T09:17:00Z</time>
      </trkpt>
      <trkpt lat="42.6993650" lon="-0.0978340">
        <ele>1702.8</ele>
        <time>2022-07-23T09:17:01Z</time>
      </trkpt>
      <trkpt lat="42.6993100" lon="-0.0978400">
        <ele>1704.6</ele>
        <time>2022-07-23T09:17:10Z</time>
      </trkpt>
      <trkpt lat="42.6993010" lon="-0.0978460">
        <ele>1704.8</ele>
        <time>2022-07-23T09:17:11Z</time>
      </trkpt>
      <trkpt lat="42.6992610" lon="-0.0978560">
        <ele>1705.6</ele>
        <time>2022-07-23T09:17:15Z</time>
      </trkpt>
      <trkpt lat="42.6992190" lon="-0.0978360">
        <ele>1707.0</ele>
        <time>2022-07-23T09:17:22Z</time>
      </trkpt>
      <trkpt lat="42.6992130" lon="-0.0978330">
        <ele>1707.0</ele>
        <time>2022-07-23T09:17:23Z</time>
      </trkpt>
      <trkpt lat="42.6991300" lon="-0.0978110">
        <ele>1709.2</ele>
        <time>2022-07-23T09:17:34Z</time>
      </trkpt>
      <trkpt lat="42.6991010" lon="-0.0977660">
        <ele>1709.8</ele>
        <time>2022-07-23T09:17:39Z</time>
      </trkpt>
      <trkpt lat="42.6990930" lon="-0.0977190">
        <ele>1710.2</ele>
        <time>2022-07-23T09:17:43Z</time>
      </trkpt>
      <trkpt lat="42.6990880" lon="-0.0976480">
        <ele>1711.4</ele>
        <time>2022-07-23T09:17:51Z</time>
      </trkpt>
      <trkpt lat="42.6990900" lon="-0.0976370">
        <ele>1711.4</ele>
        <time>2022-07-23T09:17:52Z</time>
      </trkpt>
      <trkpt lat="42.6991380" lon="-0.0976350">
        <ele>1712.4</ele>
        <time>2022-07-23T09:17:58Z</time>
      </trkpt>
      <trkpt lat="42.6991700" lon="-0.0976400">
        <ele>1713.2</ele>
        <time>2022-07-23T09:18:02Z</time>
      </trkpt>
      <trkpt lat="42.6992030" lon="-0.0975710">
        <ele>1714.8</ele>
        <time>2022-07-23T09:18:11Z</time>
      </trkpt>
      <trkpt lat="42.6991990" lon="-0.0975400">
        <ele>1715.2</ele>
        <time>2022-07-23T09:18:14Z</time>
      </trkpt>
      <trkpt lat="42.6991860" lon="-0.0975070">
        <ele>1715.2</ele>
        <time>2022-07-23T09:18:17Z</time>
      </trkpt>
      <trkpt lat="42.6991610" lon="-0.0974280">
        <ele>1716.2</ele>
        <time>2022-07-23T09:18:24Z</time>
      </trkpt>
      <trkpt lat="42.6991780" lon="-0.0973610">
        <ele>1717.0</ele>
        <time>2022-07-23T09:18:29Z</time>
      </trkpt>
      <trkpt lat="42.6991840" lon="-0.0973320">
        <ele>1717.6</ele>
        <time>2022-07-23T09:18:33Z</time>
      </trkpt>
      <trkpt lat="42.6991860" lon="-0.0973190">
        <ele>1718.2</ele>
        <time>2022-07-23T09:18:36Z</time>
      </trkpt>
      <trkpt lat="42.6992220" lon="-0.0972650">
        <ele>1719.6</ele>
        <time>2022-07-23T09:18:46Z</time>
      </trkpt>
      <trkpt lat="42.6992220" lon="-0.0972550">
        <ele>1719.8</ele>
        <time>2022-07-23T09:18:47Z</time>
      </trkpt>
      <trkpt lat="42.6992310" lon="-0.0971790">
        <ele>1720.6</ele>
        <time>2022-07-23T09:18:54Z</time>
      </trkpt>
      <trkpt lat="42.6992550" lon="-0.0971150">
        <ele>1721.4</ele>
        <time>2022-07-23T09:19:00Z</time>
      </trkpt>
      <trkpt lat="42.6992680" lon="-0.0970500">
        <ele>1722.6</ele>
        <time>2022-07-23T09:19:07Z</time>
      </trkpt>
      <trkpt lat="42.6992340" lon="-0.0969830">
        <ele>1723.6</ele>
        <time>2022-07-23T09:19:14Z</time>
      </trkpt>
      <trkpt lat="42.6992290" lon="-0.0969770">
        <ele>1723.6</ele>
        <time>2022-07-23T09:19:15Z</time>
      </trkpt>
      <trkpt lat="42.6992410" lon="-0.0969330">
        <ele>1725.0</ele>
        <time>2022-07-23T09:19:21Z</time>
      </trkpt>
      <trkpt lat="42.6992580" lon="-0.0969080">
        <ele>1726.0</ele>
        <time>2022-07-23T09:19:25Z</time>
      </trkpt>
      <trkpt lat="42.6992610" lon="-0.0969030">
        <ele>1726.0</ele>
        <time>2022-07-23T09:19:26Z</time>
      </trkpt>
      <trkpt lat="42.6992670" lon="-0.0968510">
        <ele>1726.8</ele>
        <time>2022-07-23T09:19:34Z</time>
      </trkpt>
      <trkpt lat="42.6992870" lon="-0.0968230">
        <ele>1727.6</ele>
        <time>2022-07-23T09:19:39Z</time>
      </trkpt>
      <trkpt lat="42.6992890" lon="-0.0968150">
        <ele>1728.0</ele>
        <time>2022-07-23T09:19:40Z</time>
      </trkpt>
      <trkpt lat="42.6992800" lon="-0.0968000">
        <ele>1728.2</ele>
        <time>2022-07-23T09:19:42Z</time>
      </trkpt>
      <trkpt lat="42.6992740" lon="-0.0967520">
        <ele>1729.2</ele>
        <time>2022-07-23T09:19:48Z</time>
      </trkpt>
      <trkpt lat="42.6992810" lon="-0.0967330">
        <ele>1729.6</ele>
        <time>2022-07-23T09:19:50Z</time>
      </trkpt>
      <trkpt lat="42.6993000" lon="-0.0967150">
        <ele>1730.2</ele>
        <time>2022-07-23T09:19:53Z</time>
      </trkpt>
      <trkpt lat="42.6993260" lon="-0.0966420">
        <ele>1731.8</ele>
        <time>2022-07-23T09:20:02Z</time>
      </trkpt>
      <trkpt lat="42.6993300" lon="-0.0966170">
        <ele>1732.8</ele>
        <time>2022-07-23T09:20:05Z</time>
      </trkpt>
      <trkpt lat="42.6993270" lon="-0.0965920">
        <ele>1733.6</ele>
        <time>2022-07-23T09:20:09Z</time>
      </trkpt>
      <trkpt lat="42.6993250" lon="-0.0965280">
        <ele>1734.6</ele>
        <time>2022-07-23T09:20:17Z</time>
      </trkpt>
      <trkpt lat="42.6993270" lon="-0.0965110">
        <ele>1735.0</ele>
        <time>2022-07-23T09:20:19Z</time>
      </trkpt>
      <trkpt lat="42.6993280" lon="-0.0964800">
        <ele>1735.8</ele>
        <time>2022-07-23T09:20:22Z</time>
      </trkpt>
      <trkpt lat="42.6993320" lon="-0.0964300">
        <ele>1736.8</ele>
        <time>2022-07-23T09:20:27Z</time>
      </trkpt>
      <trkpt lat="42.6993320" lon="-0.0963570">
        <ele>1738.0</ele>
        <time>2022-07-23T09:20:34Z</time>
      </trkpt>
      <trkpt lat="42.6993300" lon="-0.0963200">
        <ele>1738.8</ele>
        <time>2022-07-23T09:20:38Z</time>
      </trkpt>
      <trkpt lat="42.6993260" lon="-0.0962910">
        <ele>1739.8</ele>
        <time>2022-07-23T09:20:42Z</time>
      </trkpt>
      <trkpt lat="42.6993310" lon="-0.0962490">
        <ele>1740.8</ele>
        <time>2022-07-23T09:20:48Z</time>
      </trkpt>
      <trkpt lat="42.6993500" lon="-0.0961580">
        <ele>1742.2</ele>
        <time>2022-07-23T09:20:55Z</time>
      </trkpt>
      <trkpt lat="42.6993540" lon="-0.0961340">
        <ele>1742.6</ele>
        <time>2022-07-23T09:20:57Z</time>
      </trkpt>
      <trkpt lat="42.6993850" lon="-0.0960270">
        <ele>1744.4</ele>
        <time>2022-07-23T09:21:06Z</time>
      </trkpt>
      <trkpt lat="42.6993910" lon="-0.0959980">
        <ele>1745.0</ele>
        <time>2022-07-23T09:21:09Z</time>
      </trkpt>
      <trkpt lat="42.6993950" lon="-0.0959790">
        <ele>1745.2</ele>
        <time>2022-07-23T09:21:11Z</time>
      </trkpt>
      <trkpt lat="42.6993980" lon="-0.0959130">
        <ele>1746.4</ele>
        <time>2022-07-23T09:21:17Z</time>
      </trkpt>
      <trkpt lat="42.6994020" lon="-0.0958920">
        <ele>1746.8</ele>
        <time>2022-07-23T09:21:19Z</time>
      </trkpt>
      <trkpt lat="42.6994040" lon="-0.0958730">
        <ele>1747.2</ele>
        <time>2022-07-23T09:21:21Z</time>
      </trkpt>
      <trkpt lat="42.6994060" lon="-0.0958490">
        <ele>1747.8</ele>
        <time>2022-07-23T09:21:24Z</time>
      </trkpt>
      <trkpt lat="42.6994080" lon="-0.0958410">
        <ele>1748.2</ele>
        <time>2022-07-23T09:21:25Z</time>
      </trkpt>
      <trkpt lat="42.6994060" lon="-0.0957850">
        <ele>1749.8</ele>
        <time>2022-07-23T09:21:32Z</time>
      </trkpt>
      <trkpt lat="42.6994060" lon="-0.0957460">
        <ele>1751.0</ele>
        <time>2022-07-23T09:21:37Z</time>
      </trkpt>
      <trkpt lat="42.6994070" lon="-0.0957230">
        <ele>1751.4</ele>
        <time>2022-07-23T09:21:41Z</time>
      </trkpt>
      <trkpt lat="42.6994190" lon="-0.0956890">
        <ele>1752.8</ele>
        <time>2022-07-23T09:21:45Z</time>
      </trkpt>
      <trkpt lat="42.6994190" lon="-0.0956740">
        <ele>1753.0</ele>
        <time>2022-07-23T09:21:47Z</time>
      </trkpt>
      <trkpt lat="42.6994220" lon="-0.0956680">
        <ele>1753.0</ele>
        <time>2022-07-23T09:21:48Z</time>
      </trkpt>
      <trkpt lat="42.6994230" lon="-0.0956600">
        <ele>1753.0</ele>
        <time>2022-07-23T09:21:49Z</time>
      </trkpt>
      <trkpt lat="42.6994220" lon="-0.0956320">
        <ele>1753.6</ele>
        <time>2022-07-23T09:21:53Z</time>
      </trkpt>
      <trkpt lat="42.6994270" lon="-0.0955870">
        <ele>1755.2</ele>
        <time>2022-07-23T09:21:59Z</time>
      </trkpt>
      <trkpt lat="42.6994260" lon="-0.0955430">
        <ele>1756.2</ele>
        <time>2022-07-23T09:22:04Z</time>
      </trkpt>
      <trkpt lat="42.6994320" lon="-0.0954910">
        <ele>1757.0</ele>
        <time>2022-07-23T09:22:09Z</time>
      </trkpt>
      <trkpt lat="42.6994390" lon="-0.0954560">
        <ele>1757.6</ele>
        <time>2022-07-23T09:22:13Z</time>
      </trkpt>
      <trkpt lat="42.6994380" lon="-0.0953760">
        <ele>1759.2</ele>
        <time>2022-07-23T09:22:21Z</time>
      </trkpt>
      <trkpt lat="42.6994350" lon="-0.0952950">
        <ele>1760.8</ele>
        <time>2022-07-23T09:22:29Z</time>
      </trkpt>
      <trkpt lat="42.6994240" lon="-0.0952130">
        <ele>1762.0</ele>
        <time>2022-07-23T09:22:36Z</time>
      </trkpt>
      <trkpt lat="42.6994070" lon="-0.0951090">
        <ele>1763.6</ele>
        <time>2022-07-23T09:22:45Z</time>
      </trkpt>
      <trkpt lat="42.6994120" lon="-0.0950990">
        <ele>1764.2</ele>
        <time>2022-07-23T09:22:46Z</time>
      </trkpt>
      <trkpt lat="42.6994210" lon="-0.0950000">
        <ele>1766.2</ele>
        <time>2022-07-23T09:22:57Z</time>
      </trkpt>
      <trkpt lat="42.6994180" lon="-0.0949910">
        <ele>1766.2</ele>
        <time>2022-07-23T09:22:58Z</time>
      </trkpt>
      <trkpt lat="42.6994040" lon="-0.0949560">
        <ele>1767.0</ele>
        <time>2022-07-23T09:23:03Z</time>
      </trkpt>
      <trkpt lat="42.6993950" lon="-0.0948630">
        <ele>1768.4</ele>
        <time>2022-07-23T09:23:12Z</time>
      </trkpt>
      <trkpt lat="42.6993900" lon="-0.0948030">
        <ele>1769.0</ele>
        <time>2022-07-23T09:23:16Z</time>
      </trkpt>
      <trkpt lat="42.6993790" lon="-0.0946760">
        <ele>1770.6</ele>
        <time>2022-07-23T09:23:24Z</time>
      </trkpt>
      <trkpt lat="42.6993790" lon="-0.0946470">
        <ele>1771.0</ele>
        <time>2022-07-23T09:23:27Z</time>
      </trkpt>
      <trkpt lat="42.6993780" lon="-0.0946420">
        <ele>1771.0</ele>
        <time>2022-07-23T09:23:28Z</time>
      </trkpt>
      <trkpt lat="42.6993460" lon="-0.0946820">
        <ele>1772.4</ele>
        <time>2022-07-23T09:23:35Z</time>
      </trkpt>
      <trkpt lat="42.6994020" lon="-0.0947130">
        <ele>1773.4</ele>
        <time>2022-07-23T09:23:48Z</time>
      </trkpt>
      <trkpt lat="42.6994160" lon="-0.0947090">
        <ele>1773.4</ele>
        <time>2022-07-23T09:24:03Z</time>
      </trkpt>
      <trkpt lat="42.6994280" lon="-0.0947300">
        <ele>1773.8</ele>
        <time>2022-07-23T09:24:19Z</time>
      </trkpt>
      <trkpt lat="42.6994090" lon="-0.0947280">
        <ele>1774.0</ele>
        <time>2022-07-23T09:24:32Z</time>
      </trkpt>
      <trkpt lat="42.6994090" lon="-0.0947200">
        <ele>1774.0</ele>
        <time>2022-07-23T09:24:35Z</time>
      </trkpt>
      <trkpt lat="42.6994110" lon="-0.0947110">
        <ele>1774.0</ele>
        <time>2022-07-23T09:24:56Z</time>
      </trkpt>
      <trkpt lat="42.6993990" lon="-0.0946950">
        <ele>1773.6</ele>
        <time>2022-07-23T09:25:10Z</time>
      </trkpt>
      <trkpt lat="42.6994050" lon="-0.0946890">
        <ele>1773.8</ele>
        <time>2022-07-23T09:25:32Z</time>
      </trkpt>
      <trkpt lat="42.6993950" lon="-0.0946800">
        <ele>1773.4</ele>
        <time>2022-07-23T09:25:53Z</time>
      </trkpt>
      <trkpt lat="42.6993920" lon="-0.0946770">
        <ele>1773.4</ele>
        <time>2022-07-23T09:25:58Z</time>
      </trkpt>
      <trkpt lat="42.6993890" lon="-0.0946770">
        <ele>1773.2</ele>
        <time>2022-07-23T09:25:59Z</time>
      </trkpt>
      <trkpt lat="42.6993690" lon="-0.0946330">
        <ele>1773.4</ele>
        <time>2022-07-23T09:26:06Z</time>
      </trkpt>
      <trkpt lat="42.6993600" lon="-0.0946070">
        <ele>1773.4</ele>
        <time>2022-07-23T09:26:09Z</time>
      </trkpt>
      <trkpt lat="42.6993430" lon="-0.0945370">
        <ele>1774.2</ele>
        <time>2022-07-23T09:26:19Z</time>
      </trkpt>
      <trkpt lat="42.6993290" lon="-0.0945210">
        <ele>1774.6</ele>
        <time>2022-07-23T09:26:23Z</time>
      </trkpt>
      <trkpt lat="42.6993060" lon="-0.0944850">
        <ele>1775.4</ele>
        <time>2022-07-23T09:26:30Z</time>
      </trkpt>
      <trkpt lat="42.6992960" lon="-0.0944540">
        <ele>1775.6</ele>
        <time>2022-07-23T09:26:33Z</time>
      </trkpt>
      <trkpt lat="42.6992930" lon="-0.0943690">
        <ele>1776.6</ele>
        <time>2022-07-23T09:26:41Z</time>
      </trkpt>
      <trkpt lat="42.6992930" lon="-0.0943420">
        <ele>1777.2</ele>
        <time>2022-07-23T09:26:45Z</time>
      </trkpt>
      <trkpt lat="42.6992910" lon="-0.0943210">
        <ele>1777.4</ele>
        <time>2022-07-23T09:26:48Z</time>
      </trkpt>
      <trkpt lat="42.6992730" lon="-0.0942610">
        <ele>1778.6</ele>
        <time>2022-07-23T09:26:56Z</time>
      </trkpt>
      <trkpt lat="42.6992520" lon="-0.0941870">
        <ele>1779.4</ele>
        <time>2022-07-23T09:27:02Z</time>
      </trkpt>
      <trkpt lat="42.6992290" lon="-0.0941390">
        <ele>1780.4</ele>
        <time>2022-07-23T09:27:08Z</time>
      </trkpt>
      <trkpt lat="42.6992210" lon="-0.0941210">
        <ele>1780.6</ele>
        <time>2022-07-23T09:27:10Z</time>
      </trkpt>
      <trkpt lat="42.6992180" lon="-0.0941090">
        <ele>1780.8</ele>
        <time>2022-07-23T09:27:11Z</time>
      </trkpt>
      <trkpt lat="42.6992250" lon="-0.0940810">
        <ele>1781.2</ele>
        <time>2022-07-23T09:27:15Z</time>
      </trkpt>
      <trkpt lat="42.6992450" lon="-0.0940590">
        <ele>1782.6</ele>
        <time>2022-07-23T09:27:20Z</time>
      </trkpt>
      <trkpt lat="42.6992320" lon="-0.0940080">
        <ele>1783.8</ele>
        <time>2022-07-23T09:27:29Z</time>
      </trkpt>
      <trkpt lat="42.6992170" lon="-0.0939790">
        <ele>1784.6</ele>
        <time>2022-07-23T09:27:34Z</time>
      </trkpt>
      <trkpt lat="42.6992520" lon="-0.0939110">
        <ele>1786.2</ele>
        <time>2022-07-23T09:27:43Z</time>
      </trkpt>
      <trkpt lat="42.6992670" lon="-0.0938980">
        <ele>1786.4</ele>
        <time>2022-07-23T09:27:45Z</time>
      </trkpt>
      <trkpt lat="42.6992830" lon="-0.0938710">
        <ele>1786.8</ele>
        <time>2022-07-23T09:27:48Z</time>
      </trkpt>
      <trkpt lat="42.6992890" lon="-0.0938320">
        <ele>1788.0</ele>
        <time>2022-07-23T09:27:53Z</time>
      </trkpt>
      <trkpt lat="42.6992910" lon="-0.0937520">
        <ele>1789.0</ele>
        <time>2022-07-23T09:28:00Z</time>
      </trkpt>
      <trkpt lat="42.6993150" lon="-0.0936680">
        <ele>1791.0</ele>
        <time>2022-07-23T09:28:08Z</time>
      </trkpt>
      <trkpt lat="42.6993600" lon="-0.0936450">
        <ele>1792.0</ele>
        <time>2022-07-23T09:28:13Z</time>
      </trkpt>
      <trkpt lat="42.6993680" lon="-0.0936430">
        <ele>1792.2</ele>
        <time>2022-07-23T09:28:14Z</time>
      </trkpt>
      <trkpt lat="42.6993590" lon="-0.0935840">
        <ele>1793.6</ele>
        <time>2022-07-23T09:28:21Z</time>
      </trkpt>
      <trkpt lat="42.6993590" lon="-0.0935440">
        <ele>1794.6</ele>
        <time>2022-07-23T09:28:25Z</time>
      </trkpt>
      <trkpt lat="42.6993610" lon="-0.0935370">
        <ele>1794.6</ele>
        <time>2022-07-23T09:28:26Z</time>
      </trkpt>
      <trkpt lat="42.6993710" lon="-0.0934490">
        <ele>1796.6</ele>
        <time>2022-07-23T09:28:34Z</time>
      </trkpt>
      <trkpt lat="42.6993610" lon="-0.0934080">
        <ele>1797.6</ele>
        <time>2022-07-23T09:28:38Z</time>
      </trkpt>
      <trkpt lat="42.6993680" lon="-0.0933830">
        <ele>1798.4</ele>
        <time>2022-07-23T09:28:41Z</time>
      </trkpt>
      <trkpt lat="42.6993910" lon="-0.0933610">
        <ele>1798.8</ele>
        <time>2022-07-23T09:28:44Z</time>
      </trkpt>
      <trkpt lat="42.6994060" lon="-0.0933410">
        <ele>1799.0</ele>
        <time>2022-07-23T09:28:46Z</time>
      </trkpt>
      <trkpt lat="42.6994660" lon="-0.0932830">
        <ele>1800.4</ele>
        <time>2022-07-23T09:28:53Z</time>
      </trkpt>
      <trkpt lat="42.6994950" lon="-0.0932400">
        <ele>1801.0</ele>
        <time>2022-07-23T09:28:59Z</time>
      </trkpt>
      <trkpt lat="42.6994960" lon="-0.0932240">
        <ele>1800.8</ele>
        <time>2022-07-23T09:29:00Z</time>
      </trkpt>
      <trkpt lat="42.6994890" lon="-0.0931660">
        <ele>1800.8</ele>
        <time>2022-07-23T09:29:04Z</time>
      </trkpt>
      <trkpt lat="42.6994850" lon="-0.0931500">
        <ele>1800.6</ele>
        <time>2022-07-23T09:29:05Z</time>
      </trkpt>
      <trkpt lat="42.6994610" lon="-0.0930450">
        <ele>1800.6</ele>
        <time>2022-07-23T09:29:12Z</time>
      </trkpt>
      <trkpt lat="42.6994600" lon="-0.0929700">
        <ele>1800.8</ele>
        <time>2022-07-23T09:29:18Z</time>
      </trkpt>
      <trkpt lat="42.6994720" lon="-0.0929300">
        <ele>1801.4</ele>
        <time>2022-07-23T09:29:22Z</time>
      </trkpt>
      <trkpt lat="42.6994990" lon="-0.0929180">
        <ele>1802.0</ele>
        <time>2022-07-23T09:29:27Z</time>
      </trkpt>
      <trkpt lat="42.6995060" lon="-0.0929180">
        <ele>1802.2</ele>
        <time>2022-07-23T09:29:28Z</time>
      </trkpt>
      <trkpt lat="42.6995310" lon="-0.0929110">
        <ele>1802.6</ele>
        <time>2022-07-23T09:29:32Z</time>
      </trkpt>
      <trkpt lat="42.6995520" lon="-0.0929130">
        <ele>1804.0</ele>
        <time>2022-07-23T09:29:39Z</time>
      </trkpt>
      <trkpt lat="42.6995570" lon="-0.0929120">
        <ele>1804.0</ele>
        <time>2022-07-23T09:29:40Z</time>
      </trkpt>
      <trkpt lat="42.6995600" lon="-0.0929030">
        <ele>1806.6</ele>
        <time>2022-07-23T09:29:54Z</time>
      </trkpt>
      <trkpt lat="42.6995650" lon="-0.0928950">
        <ele>1806.8</ele>
        <time>2022-07-23T09:30:25Z</time>
      </trkpt>
      <trkpt lat="42.6995660" lon="-0.0929110">
        <ele>1806.8</ele>
        <time>2022-07-23T09:30:46Z</time>
      </trkpt>
      <trkpt lat="42.6995680" lon="-0.0929070">
        <ele>1806.8</ele>
        <time>2022-07-23T09:30:55Z</time>
      </trkpt>
      <trkpt lat="42.6995840" lon="-0.0928560">
        <ele>1807.0</ele>
        <time>2022-07-23T09:31:05Z</time>
      </trkpt>
      <trkpt lat="42.6995890" lon="-0.0928380">
        <ele>1807.4</ele>
        <time>2022-07-23T09:31:08Z</time>
      </trkpt>
      <trkpt lat="42.6995990" lon="-0.0927660">
        <ele>1808.6</ele>
        <time>2022-07-23T09:31:17Z</time>
      </trkpt>
      <trkpt lat="42.6995860" lon="-0.0927640">
        <ele>1809.0</ele>
        <time>2022-07-23T09:31:19Z</time>
      </trkpt>
      <trkpt lat="42.6995380" lon="-0.0927590">
        <ele>1809.8</ele>
        <time>2022-07-23T09:31:26Z</time>
      </trkpt>
      <trkpt lat="42.6995380" lon="-0.0927400">
        <ele>1810.8</ele>
        <time>2022-07-23T09:31:29Z</time>
      </trkpt>
      <trkpt lat="42.6995380" lon="-0.0927310">
        <ele>1810.8</ele>
        <time>2022-07-23T09:31:30Z</time>
      </trkpt>
      <trkpt lat="42.6995270" lon="-0.0926860">
        <ele>1812.4</ele>
        <time>2022-07-23T09:31:39Z</time>
      </trkpt>
      <trkpt lat="42.6995290" lon="-0.0926240">
        <ele>1813.8</ele>
        <time>2022-07-23T09:31:46Z</time>
      </trkpt>
      <trkpt lat="42.6995610" lon="-0.0925220">
        <ele>1815.0</ele>
        <time>2022-07-23T09:31:54Z</time>
      </trkpt>
      <trkpt lat="42.6995700" lon="-0.0924590">
        <ele>1815.8</ele>
        <time>2022-07-23T09:31:59Z</time>
      </trkpt>
      <trkpt lat="42.6995790" lon="-0.0924230">
        <ele>1816.2</ele>
        <time>2022-07-23T09:32:02Z</time>
      </trkpt>
      <trkpt lat="42.6996070" lon="-0.0922670">
        <ele>1818.2</ele>
        <time>2022-07-23T09:32:12Z</time>
      </trkpt>
      <trkpt lat="42.6996470" lon="-0.0921790">
        <ele>1818.4</ele>
        <time>2022-07-23T09:32:19Z</time>
      </trkpt>
      <trkpt lat="42.6996760" lon="-0.0921210">
        <ele>1818.6</ele>
        <time>2022-07-23T09:32:25Z</time>
      </trkpt>
      <trkpt lat="42.6996780" lon="-0.0921090">
        <ele>1818.6</ele>
        <time>2022-07-23T09:32:26Z</time>
      </trkpt>
      <trkpt lat="42.6996830" lon="-0.0920830">
        <ele>1818.4</ele>
        <time>2022-07-23T09:32:28Z</time>
      </trkpt>
      <trkpt lat="42.6997230" lon="-0.0920300">
        <ele>1818.8</ele>
        <time>2022-07-23T09:32:34Z</time>
      </trkpt>
      <trkpt lat="42.6997560" lon="-0.0920050">
        <ele>1819.6</ele>
        <time>2022-07-23T09:32:38Z</time>
      </trkpt>
      <trkpt lat="42.6997580" lon="-0.0919900">
        <ele>1819.6</ele>
        <time>2022-07-23T09:32:39Z</time>
      </trkpt>
      <trkpt lat="42.6997620" lon="-0.0919600">
        <ele>1819.8</ele>
        <time>2022-07-23T09:32:41Z</time>
      </trkpt>
      <trkpt lat="42.6997720" lon="-0.0919240">
        <ele>1820.4</ele>
        <time>2022-07-23T09:32:44Z</time>
      </trkpt>
      <trkpt lat="42.6998070" lon="-0.0918590">
        <ele>1821.6</ele>
        <time>2022-07-23T09:32:51Z</time>
      </trkpt>
      <trkpt lat="42.6998380" lon="-0.0918310">
        <ele>1822.4</ele>
        <time>2022-07-23T09:32:55Z</time>
      </trkpt>
      <trkpt lat="42.6998960" lon="-0.0918050">
        <ele>1823.6</ele>
        <time>2022-07-23T09:33:02Z</time>
      </trkpt>
      <trkpt lat="42.6999100" lon="-0.0917850">
        <ele>1824.6</ele>
        <time>2022-07-23T09:33:06Z</time>
      </trkpt>
      <trkpt lat="42.6999150" lon="-0.0917840">
        <ele>1824.8</ele>
        <time>2022-07-23T09:33:07Z</time>
      </trkpt>
      <trkpt lat="42.6999240" lon="-0.0917820">
        <ele>1825.4</ele>
        <time>2022-07-23T09:33:09Z</time>
      </trkpt>
      <trkpt lat="42.6999820" lon="-0.0917140">
        <ele>1827.0</ele>
        <time>2022-07-23T09:33:18Z</time>
      </trkpt>
      <trkpt lat="42.6999930" lon="-0.0916740">
        <ele>1828.6</ele>
        <time>2022-07-23T09:33:23Z</time>
      </trkpt>
      <trkpt lat="42.6999960" lon="-0.0916680">
        <ele>1828.6</ele>
        <time>2022-07-23T09:33:24Z</time>
      </trkpt>
      <trkpt lat="42.7000260" lon="-0.0915760">
        <ele>1830.4</ele>
        <time>2022-07-23T09:33:33Z</time>
      </trkpt>
      <trkpt lat="42.7000540" lon="-0.0915340">
        <ele>1831.8</ele>
        <time>2022-07-23T09:33:38Z</time>
      </trkpt>
      <trkpt lat="42.7000680" lon="-0.0915080">
        <ele>1832.2</ele>
        <time>2022-07-23T09:33:41Z</time>
      </trkpt>
      <trkpt lat="42.7000970" lon="-0.0914500">
        <ele>1833.4</ele>
        <time>2022-07-23T09:33:47Z</time>
      </trkpt>
      <trkpt lat="42.7001300" lon="-0.0913850">
        <ele>1835.0</ele>
        <time>2022-07-23T09:33:53Z</time>
      </trkpt>
      <trkpt lat="42.7001560" lon="-0.0913080">
        <ele>1835.8</ele>
        <time>2022-07-23T09:33:59Z</time>
      </trkpt>
      <trkpt lat="42.7001600" lon="-0.0912930">
        <ele>1836.2</ele>
        <time>2022-07-23T09:34:00Z</time>
      </trkpt>
      <trkpt lat="42.7001780" lon="-0.0912620">
        <ele>1836.8</ele>
        <time>2022-07-23T09:34:04Z</time>
      </trkpt>
      <trkpt lat="42.7001960" lon="-0.0912220">
        <ele>1837.6</ele>
        <time>2022-07-23T09:34:08Z</time>
      </trkpt>
      <trkpt lat="42.7002090" lon="-0.0911870">
        <ele>1838.6</ele>
        <time>2022-07-23T09:34:12Z</time>
      </trkpt>
      <trkpt lat="42.7002220" lon="-0.0911470">
        <ele>1839.0</ele>
        <time>2022-07-23T09:34:16Z</time>
      </trkpt>
      <trkpt lat="42.7002620" lon="-0.0911040">
        <ele>1840.8</ele>
        <time>2022-07-23T09:34:24Z</time>
      </trkpt>
      <trkpt lat="42.7002690" lon="-0.0910940">
        <ele>1841.2</ele>
        <time>2022-07-23T09:34:26Z</time>
      </trkpt>
      <trkpt lat="42.7002860" lon="-0.0910520">
        <ele>1841.8</ele>
        <time>2022-07-23T09:34:32Z</time>
      </trkpt>
      <trkpt lat="42.7002980" lon="-0.0910230">
        <ele>1842.8</ele>
        <time>2022-07-23T09:34:36Z</time>
      </trkpt>
      <trkpt lat="42.7003150" lon="-0.0909660">
        <ele>1843.6</ele>
        <time>2022-07-23T09:34:42Z</time>
      </trkpt>
      <trkpt lat="42.7003250" lon="-0.0909370">
        <ele>1844.2</ele>
        <time>2022-07-23T09:34:45Z</time>
      </trkpt>
      <trkpt lat="42.7003230" lon="-0.0908870">
        <ele>1845.2</ele>
        <time>2022-07-23T09:34:50Z</time>
      </trkpt>
      <trkpt lat="42.7003120" lon="-0.0908190">
        <ele>1846.2</ele>
        <time>2022-07-23T09:34:56Z</time>
      </trkpt>
      <trkpt lat="42.7003060" lon="-0.0907690">
        <ele>1847.2</ele>
        <time>2022-07-23T09:35:00Z</time>
      </trkpt>
      <trkpt lat="42.7003200" lon="-0.0906770">
        <ele>1848.8</ele>
        <time>2022-07-23T09:35:09Z</time>
      </trkpt>
      <trkpt lat="42.7003260" lon="-0.0906430">
        <ele>1850.0</ele>
        <time>2022-07-23T09:35:14Z</time>
      </trkpt>
      <trkpt lat="42.7003290" lon="-0.0906320">
        <ele>1850.0</ele>
        <time>2022-07-23T09:35:15Z</time>
      </trkpt>
      <trkpt lat="42.7003600" lon="-0.0905320">
        <ele>1851.6</ele>
        <time>2022-07-23T09:35:27Z</time>
      </trkpt>
      <trkpt lat="42.7004040" lon="-0.0904960">
        <ele>1852.2</ele>
        <time>2022-07-23T09:35:34Z</time>
      </trkpt>
      <trkpt lat="42.7004110" lon="-0.0904910">
        <ele>1852.2</ele>
        <time>2022-07-23T09:35:35Z</time>
      </trkpt>
      <trkpt lat="42.7004220" lon="-0.0904870">
        <ele>1852.2</ele>
        <time>2022-07-23T09:35:36Z</time>
      </trkpt>
      <trkpt lat="42.7004520" lon="-0.0904610">
        <ele>1852.4</ele>
        <time>2022-07-23T09:35:40Z</time>
      </trkpt>
      <trkpt lat="42.7004580" lon="-0.0904540">
        <ele>1852.6</ele>
        <time>2022-07-23T09:35:41Z</time>
      </trkpt>
      <trkpt lat="42.7004610" lon="-0.0904480">
        <ele>1852.4</ele>
        <time>2022-07-23T09:35:42Z</time>
      </trkpt>
      <trkpt lat="42.7004650" lon="-0.0904410">
        <ele>1852.6</ele>
        <time>2022-07-23T09:35:43Z</time>
      </trkpt>
      <trkpt lat="42.7004860" lon="-0.0904030">
        <ele>1853.8</ele>
        <time>2022-07-23T09:35:50Z</time>
      </trkpt>
      <trkpt lat="42.7004900" lon="-0.0903910">
        <ele>1853.8</ele>
        <time>2022-07-23T09:35:52Z</time>
      </trkpt>
      <trkpt lat="42.7004960" lon="-0.0903760">
        <ele>1854.0</ele>
        <time>2022-07-23T09:35:54Z</time>
      </trkpt>
      <trkpt lat="42.7004980" lon="-0.0903680">
        <ele>1854.2</ele>
        <time>2022-07-23T09:35:55Z</time>
      </trkpt>
      <trkpt lat="42.7004990" lon="-0.0903600">
        <ele>1854.2</ele>
        <time>2022-07-23T09:35:56Z</time>
      </trkpt>
      <trkpt lat="42.7005000" lon="-0.0903510">
        <ele>1854.2</ele>
        <time>2022-07-23T09:35:57Z</time>
      </trkpt>
      <trkpt lat="42.7005020" lon="-0.0903340">
        <ele>1854.4</ele>
        <time>2022-07-23T09:35:59Z</time>
      </trkpt>
      <trkpt lat="42.7005030" lon="-0.0903260">
        <ele>1854.6</ele>
        <time>2022-07-23T09:36:00Z</time>
      </trkpt>
      <trkpt lat="42.7005050" lon="-0.0903180">
        <ele>1854.8</ele>
        <time>2022-07-23T09:36:01Z</time>
      </trkpt>
      <trkpt lat="42.7005080" lon="-0.0903110">
        <ele>1854.8</ele>
        <time>2022-07-23T09:36:02Z</time>
      </trkpt>
      <trkpt lat="42.7005450" lon="-0.0902400">
        <ele>1856.6</ele>
        <time>2022-07-23T09:36:12Z</time>
      </trkpt>
      <trkpt lat="42.7005510" lon="-0.0902250">
        <ele>1856.8</ele>
        <time>2022-07-23T09:36:14Z</time>
      </trkpt>
      <trkpt lat="42.7005980" lon="-0.0901590">
        <ele>1858.0</ele>
        <time>2022-07-23T09:36:24Z</time>
      </trkpt>
      <trkpt lat="42.7006000" lon="-0.0901500">
        <ele>1858.2</ele>
        <time>2022-07-23T09:36:25Z</time>
      </trkpt>
      <trkpt lat="42.7006270" lon="-0.0900840">
        <ele>1859.0</ele>
        <time>2022-07-23T09:36:30Z</time>
      </trkpt>
      <trkpt lat="42.7006480" lon="-0.0900330">
        <ele>1860.0</ele>
        <time>2022-07-23T09:36:36Z</time>
      </trkpt>
      <trkpt lat="42.7006580" lon="-0.0900030">
        <ele>1861.2</ele>
        <time>2022-07-23T09:36:44Z</time>
      </trkpt>
      <trkpt lat="42.7006610" lon="-0.0899960">
        <ele>1861.4</ele>
        <time>2022-07-23T09:36:45Z</time>
      </trkpt>
      <trkpt lat="42.7006630" lon="-0.0899930">
        <ele>1861.6</ele>
        <time>2022-07-23T09:36:46Z</time>
      </trkpt>
      <trkpt lat="42.7006640" lon="-0.0899860">
        <ele>1861.8</ele>
        <time>2022-07-23T09:36:47Z</time>
      </trkpt>
      <trkpt lat="42.7006740" lon="-0.0899190">
        <ele>1863.2</ele>
        <time>2022-07-23T09:36:55Z</time>
      </trkpt>
      <trkpt lat="42.7006750" lon="-0.0899140">
        <ele>1863.4</ele>
        <time>2022-07-23T09:36:56Z</time>
      </trkpt>
      <trkpt lat="42.7006760" lon="-0.0899110">
        <ele>1863.8</ele>
        <time>2022-07-23T09:36:57Z</time>
      </trkpt>
      <trkpt lat="42.7006860" lon="-0.0898710">
        <ele>1864.4</ele>
        <time>2022-07-23T09:37:03Z</time>
      </trkpt>
      <trkpt lat="42.7006910" lon="-0.0898650">
        <ele>1864.6</ele>
        <time>2022-07-23T09:37:04Z</time>
      </trkpt>
      <trkpt lat="42.7007090" lon="-0.0898310">
        <ele>1865.8</ele>
        <time>2022-07-23T09:37:09Z</time>
      </trkpt>
      <trkpt lat="42.7007470" lon="-0.0897580">
        <ele>1867.8</ele>
        <time>2022-07-23T09:37:19Z</time>
      </trkpt>
      <trkpt lat="42.7007530" lon="-0.0897470">
        <ele>1868.0</ele>
        <time>2022-07-23T09:37:20Z</time>
      </trkpt>
      <trkpt lat="42.7007910" lon="-0.0896910">
        <ele>1868.4</ele>
        <time>2022-07-23T09:37:26Z</time>
      </trkpt>
      <trkpt lat="42.7007960" lon="-0.0896820">
        <ele>1868.6</ele>
        <time>2022-07-23T09:37:27Z</time>
      </trkpt>
      <trkpt lat="42.7008210" lon="-0.0896440">
        <ele>1868.8</ele>
        <time>2022-07-23T09:37:31Z</time>
      </trkpt>
      <trkpt lat="42.7008280" lon="-0.0896360">
        <ele>1869.2</ele>
        <time>2022-07-23T09:37:32Z</time>
      </trkpt>
      <trkpt lat="42.7008510" lon="-0.0895830">
        <ele>1870.2</ele>
        <time>2022-07-23T09:37:37Z</time>
      </trkpt>
      <trkpt lat="42.7008530" lon="-0.0895060">
        <ele>1870.8</ele>
        <time>2022-07-23T09:37:43Z</time>
      </trkpt>
      <trkpt lat="42.7008750" lon="-0.0894800">
        <ele>1871.6</ele>
        <time>2022-07-23T09:37:48Z</time>
      </trkpt>
      <trkpt lat="42.7008910" lon="-0.0894590">
        <ele>1872.0</ele>
        <time>2022-07-23T09:37:51Z</time>
      </trkpt>
      <trkpt lat="42.7009490" lon="-0.0893560">
        <ele>1874.2</ele>
        <time>2022-07-23T09:38:02Z</time>
      </trkpt>
      <trkpt lat="42.7009650" lon="-0.0893360">
        <ele>1874.4</ele>
        <time>2022-07-23T09:38:04Z</time>
      </trkpt>
      <trkpt lat="42.7010060" lon="-0.0893520">
        <ele>1875.0</ele>
        <time>2022-07-23T09:38:08Z</time>
      </trkpt>
      <trkpt lat="42.7010260" lon="-0.0893490">
        <ele>1875.2</ele>
        <time>2022-07-23T09:38:10Z</time>
      </trkpt>
      <trkpt lat="42.7010350" lon="-0.0893440">
        <ele>1875.4</ele>
        <time>2022-07-23T09:38:12Z</time>
      </trkpt>
      <trkpt lat="42.7010680" lon="-0.0893050">
        <ele>1876.4</ele>
        <time>2022-07-23T09:38:19Z</time>
      </trkpt>
      <trkpt lat="42.7010900" lon="-0.0892500">
        <ele>1877.6</ele>
        <time>2022-07-23T09:38:26Z</time>
      </trkpt>
      <trkpt lat="42.7011140" lon="-0.0891830">
        <ele>1879.2</ele>
        <time>2022-07-23T09:38:39Z</time>
      </trkpt>
      <trkpt lat="42.7011140" lon="-0.0891710">
        <ele>1879.2</ele>
        <time>2022-07-23T09:39:03Z</time>
      </trkpt>
      <trkpt lat="42.7011150" lon="-0.0891680">
        <ele>1879.4</ele>
        <time>2022-07-23T09:39:06Z</time>
      </trkpt>
      <trkpt lat="42.7011140" lon="-0.0891600">
        <ele>1879.8</ele>
        <time>2022-07-23T09:39:28Z</time>
      </trkpt>
      <trkpt lat="42.7011130" lon="-0.0891530">
        <ele>1880.0</ele>
        <time>2022-07-23T09:39:54Z</time>
      </trkpt>
      <trkpt lat="42.7011170" lon="-0.0891480">
        <ele>1879.0</ele>
        <time>2022-07-23T09:40:14Z</time>
      </trkpt>
      <trkpt lat="42.7011230" lon="-0.0891470">
        <ele>1879.2</ele>
        <time>2022-07-23T09:40:39Z</time>
      </trkpt>
      <trkpt lat="42.7011240" lon="-0.0891420">
        <ele>1879.4</ele>
        <time>2022-07-23T09:41:10Z</time>
      </trkpt>
      <trkpt lat="42.7011260" lon="-0.0891450">
        <ele>1879.4</ele>
        <time>2022-07-23T09:41:42Z</time>
      </trkpt>
      <trkpt lat="42.7011280" lon="-0.0891430">
        <ele>1879.0</ele>
        <time>2022-07-23T09:42:11Z</time>
      </trkpt>
      <trkpt lat="42.7011260" lon="-0.0891430">
        <ele>1879.2</ele>
        <time>2022-07-23T09:42:41Z</time>
      </trkpt>
      <trkpt lat="42.7011270" lon="-0.0891420">
        <ele>1879.2</ele>
        <time>2022-07-23T09:42:48Z</time>
      </trkpt>
      <trkpt lat="42.7011300" lon="-0.0891460">
        <ele>1879.2</ele>
        <time>2022-07-23T09:43:09Z</time>
      </trkpt>
      <trkpt lat="42.7011300" lon="-0.0891480">
        <ele>1879.0</ele>
        <time>2022-07-23T09:43:30Z</time>
      </trkpt>
      <trkpt lat="42.7011290" lon="-0.0891380">
        <ele>1879.2</ele>
        <time>2022-07-23T09:43:32Z</time>
      </trkpt>
      <trkpt lat="42.7011270" lon="-0.0890740">
        <ele>1880.0</ele>
        <time>2022-07-23T09:43:43Z</time>
      </trkpt>
      <trkpt lat="42.7011300" lon="-0.0890680">
        <ele>1880.2</ele>
        <time>2022-07-23T09:43:44Z</time>
      </trkpt>
      <trkpt lat="42.7011500" lon="-0.0890240">
        <ele>1881.0</ele>
        <time>2022-07-23T09:43:53Z</time>
      </trkpt>
      <trkpt lat="42.7011520" lon="-0.0890160">
        <ele>1881.4</ele>
        <time>2022-07-23T09:43:54Z</time>
      </trkpt>
      <trkpt lat="42.7011580" lon="-0.0889960">
        <ele>1882.0</ele>
        <time>2022-07-23T09:43:57Z</time>
      </trkpt>
      <trkpt lat="42.7011580" lon="-0.0889860">
        <ele>1882.0</ele>
        <time>2022-07-23T09:43:58Z</time>
      </trkpt>
      <trkpt lat="42.7011560" lon="-0.0889670">
        <ele>1882.2</ele>
        <time>2022-07-23T09:44:00Z</time>
      </trkpt>
      <trkpt lat="42.7011790" lon="-0.0889200">
        <ele>1884.0</ele>
        <time>2022-07-23T09:44:06Z</time>
      </trkpt>
      <trkpt lat="42.7012030" lon="-0.0888770">
        <ele>1885.2</ele>
        <time>2022-07-23T09:44:13Z</time>
      </trkpt>
      <trkpt lat="42.7012170" lon="-0.0888340">
        <ele>1886.2</ele>
        <time>2022-07-23T09:44:20Z</time>
      </trkpt>
      <trkpt lat="42.7011940" lon="-0.0887940">
        <ele>1887.6</ele>
        <time>2022-07-23T09:44:27Z</time>
      </trkpt>
      <trkpt lat="42.7011900" lon="-0.0887870">
        <ele>1887.8</ele>
        <time>2022-07-23T09:44:28Z</time>
      </trkpt>
      <trkpt lat="42.7011220" lon="-0.0887820">
        <ele>1889.0</ele>
        <time>2022-07-23T09:44:35Z</time>
      </trkpt>
      <trkpt lat="42.7011150" lon="-0.0887830">
        <ele>1889.4</ele>
        <time>2022-07-23T09:44:36Z</time>
      </trkpt>
      <trkpt lat="42.7011070" lon="-0.0887830">
        <ele>1889.6</ele>
        <time>2022-07-23T09:44:37Z</time>
      </trkpt>
      <trkpt lat="42.7010980" lon="-0.0887800">
        <ele>1889.6</ele>
        <time>2022-07-23T09:44:38Z</time>
      </trkpt>
      <trkpt lat="42.7010880" lon="-0.0887910">
        <ele>1889.8</ele>
        <time>2022-07-23T09:44:39Z</time>
      </trkpt>
      <trkpt lat="42.7010450" lon="-0.0888310">
        <ele>1891.2</ele>
        <time>2022-07-23T09:44:45Z</time>
      </trkpt>
      <trkpt lat="42.7010450" lon="-0.0888310">
        <ele>1891.2</ele>
        <time>2022-07-23T09:44:46Z</time>
      </trkpt>
      <trkpt lat="42.7010360" lon="-0.0888310">
        <ele>1891.2</ele>
        <time>2022-07-23T09:44:48Z</time>
      </trkpt>
      <trkpt lat="42.7010300" lon="-0.0888320">
        <ele>1891.4</ele>
        <time>2022-07-23T09:44:49Z</time>
      </trkpt>
      <trkpt lat="42.7010220" lon="-0.0888290">
        <ele>1891.6</ele>
        <time>2022-07-23T09:44:51Z</time>
      </trkpt>
      <trkpt lat="42.7010180" lon="-0.0888280">
        <ele>1891.8</ele>
        <time>2022-07-23T09:44:52Z</time>
      </trkpt>
      <trkpt lat="42.7010090" lon="-0.0888260">
        <ele>1892.0</ele>
        <time>2022-07-23T09:44:54Z</time>
      </trkpt>
      <trkpt lat="42.7010020" lon="-0.0888270">
        <ele>1892.0</ele>
        <time>2022-07-23T09:44:55Z</time>
      </trkpt>
      <trkpt lat="42.7009950" lon="-0.0888260">
        <ele>1892.2</ele>
        <time>2022-07-23T09:44:56Z</time>
      </trkpt>
      <trkpt lat="42.7009590" lon="-0.0888070">
        <ele>1893.6</ele>
        <time>2022-07-23T09:45:02Z</time>
      </trkpt>
      <trkpt lat="42.7009270" lon="-0.0888150">
        <ele>1894.2</ele>
        <time>2022-07-23T09:45:07Z</time>
      </trkpt>
      <trkpt lat="42.7009020" lon="-0.0888000">
        <ele>1894.8</ele>
        <time>2022-07-23T09:45:11Z</time>
      </trkpt>
      <trkpt lat="42.7008960" lon="-0.0887900">
        <ele>1894.6</ele>
        <time>2022-07-23T09:45:12Z</time>
      </trkpt>
      <trkpt lat="42.7008930" lon="-0.0887820">
        <ele>1894.8</ele>
        <time>2022-07-23T09:45:13Z</time>
      </trkpt>
      <trkpt lat="42.7008900" lon="-0.0887720">
        <ele>1895.0</ele>
        <time>2022-07-23T09:45:14Z</time>
      </trkpt>
      <trkpt lat="42.7008840" lon="-0.0887530">
        <ele>1895.2</ele>
        <time>2022-07-23T09:45:16Z</time>
      </trkpt>
      <trkpt lat="42.7009390" lon="-0.0886790">
        <ele>1896.2</ele>
        <time>2022-07-23T09:45:23Z</time>
      </trkpt>
      <trkpt lat="42.7009630" lon="-0.0886670">
        <ele>1897.2</ele>
        <time>2022-07-23T09:45:28Z</time>
      </trkpt>
      <trkpt lat="42.7010160" lon="-0.0886220">
        <ele>1898.0</ele>
        <time>2022-07-23T09:45:37Z</time>
      </trkpt>
      <trkpt lat="42.7010110" lon="-0.0885980">
        <ele>1898.4</ele>
        <time>2022-07-23T09:45:40Z</time>
      </trkpt>
      <trkpt lat="42.7010030" lon="-0.0885960">
        <ele>1898.8</ele>
        <time>2022-07-23T09:45:41Z</time>
      </trkpt>
      <trkpt lat="42.7009940" lon="-0.0885990">
        <ele>1899.0</ele>
        <time>2022-07-23T09:45:42Z</time>
      </trkpt>
      <trkpt lat="42.7009830" lon="-0.0886030">
        <ele>1899.0</ele>
        <time>2022-07-23T09:45:43Z</time>
      </trkpt>
      <trkpt lat="42.7009750" lon="-0.0886050">
        <ele>1899.2</ele>
        <time>2022-07-23T09:45:44Z</time>
      </trkpt>
      <trkpt lat="42.7009690" lon="-0.0886060">
        <ele>1899.0</ele>
        <time>2022-07-23T09:45:45Z</time>
      </trkpt>
      <trkpt lat="42.7009650" lon="-0.0886100">
        <ele>1899.2</ele>
        <time>2022-07-23T09:45:46Z</time>
      </trkpt>
      <trkpt lat="42.7009590" lon="-0.0886150">
        <ele>1899.4</ele>
        <time>2022-07-23T09:45:47Z</time>
      </trkpt>
      <trkpt lat="42.7009280" lon="-0.0886240">
        <ele>1900.0</ele>
        <time>2022-07-23T09:45:52Z</time>
      </trkpt>
      <trkpt lat="42.7008810" lon="-0.0885870">
        <ele>1902.0</ele>
        <time>2022-07-23T09:45:59Z</time>
      </trkpt>
      <trkpt lat="42.7008780" lon="-0.0885600">
        <ele>1902.0</ele>
        <time>2022-07-23T09:46:02Z</time>
      </trkpt>
      <trkpt lat="42.7008980" lon="-0.0885280">
        <ele>1902.4</ele>
        <time>2022-07-23T09:46:07Z</time>
      </trkpt>
      <trkpt lat="42.7009040" lon="-0.0885260">
        <ele>1902.6</ele>
        <time>2022-07-23T09:46:08Z</time>
      </trkpt>
      <trkpt lat="42.7009110" lon="-0.0885240">
        <ele>1902.6</ele>
        <time>2022-07-23T09:46:09Z</time>
      </trkpt>
      <trkpt lat="42.7009200" lon="-0.0885250">
        <ele>1902.8</ele>
        <time>2022-07-23T09:46:10Z</time>
      </trkpt>
      <trkpt lat="42.7010040" lon="-0.0884530">
        <ele>1904.8</ele>
        <time>2022-07-23T09:46:22Z</time>
      </trkpt>
      <trkpt lat="42.7010240" lon="-0.0884270">
        <ele>1905.2</ele>
        <time>2022-07-23T09:46:25Z</time>
      </trkpt>
      <trkpt lat="42.7010510" lon="-0.0884040">
        <ele>1905.2</ele>
        <time>2022-07-23T09:46:27Z</time>
      </trkpt>
      <trkpt lat="42.7011150" lon="-0.0883460">
        <ele>1905.8</ele>
        <time>2022-07-23T09:46:36Z</time>
      </trkpt>
      <trkpt lat="42.7011530" lon="-0.0883620">
        <ele>1906.4</ele>
        <time>2022-07-23T09:46:40Z</time>
      </trkpt>
      <trkpt lat="42.7011910" lon="-0.0883430">
        <ele>1907.0</ele>
        <time>2022-07-23T09:46:45Z</time>
      </trkpt>
      <trkpt lat="42.7012990" lon="-0.0882090">
        <ele>1908.2</ele>
        <time>2022-07-23T09:46:59Z</time>
      </trkpt>
      <trkpt lat="42.7014130" lon="-0.0880040">
        <ele>1909.0</ele>
        <time>2022-07-23T09:47:17Z</time>
      </trkpt>
      <trkpt lat="42.7014560" lon="-0.0878370">
        <ele>1909.2</ele>
        <time>2022-07-23T09:47:30Z</time>
      </trkpt>
      <trkpt lat="42.7015100" lon="-0.0877070">
        <ele>1909.6</ele>
        <time>2022-07-23T09:47:39Z</time>
      </trkpt>
      <trkpt lat="42.7015350" lon="-0.0876380">
        <ele>1909.6</ele>
        <time>2022-07-23T09:47:44Z</time>
      </trkpt>
      <trkpt lat="42.7015400" lon="-0.0875080">
        <ele>1910.0</ele>
        <time>2022-07-23T09:47:53Z</time>
      </trkpt>
      <trkpt lat="42.7015480" lon="-0.0874560">
        <ele>1910.2</ele>
        <time>2022-07-23T09:47:57Z</time>
      </trkpt>
      <trkpt lat="42.7015780" lon="-0.0873390">
        <ele>1911.0</ele>
        <time>2022-07-23T09:48:05Z</time>
      </trkpt>
      <trkpt lat="42.7015940" lon="-0.0872800">
        <ele>1911.4</ele>
        <time>2022-07-23T09:48:10Z</time>
      </trkpt>
      <trkpt lat="42.7015950" lon="-0.0872660">
        <ele>1911.4</ele>
        <time>2022-07-23T09:48:11Z</time>
      </trkpt>
      <trkpt lat="42.7016030" lon="-0.0872410">
        <ele>1911.6</ele>
        <time>2022-07-23T09:48:13Z</time>
      </trkpt>
      <trkpt lat="42.7016080" lon="-0.0872280">
        <ele>1911.6</ele>
        <time>2022-07-23T09:48:14Z</time>
      </trkpt>
      <trkpt lat="42.7016130" lon="-0.0872170">
        <ele>1911.8</ele>
        <time>2022-07-23T09:48:15Z</time>
      </trkpt>
      <trkpt lat="42.7016250" lon="-0.0871170">
        <ele>1912.6</ele>
        <time>2022-07-23T09:48:22Z</time>
      </trkpt>
      <trkpt lat="42.7016320" lon="-0.0870740">
        <ele>1913.4</ele>
        <time>2022-07-23T09:48:25Z</time>
      </trkpt>
      <trkpt lat="42.7016960" lon="-0.0870290">
        <ele>1914.6</ele>
        <time>2022-07-23T09:48:32Z</time>
      </trkpt>
      <trkpt lat="42.7017340" lon="-0.0869570">
        <ele>1915.4</ele>
        <time>2022-07-23T09:48:38Z</time>
      </trkpt>
      <trkpt lat="42.7017510" lon="-0.0868240">
        <ele>1915.8</ele>
        <time>2022-07-23T09:48:46Z</time>
      </trkpt>
      <trkpt lat="42.7017730" lon="-0.0867590">
        <ele>1916.4</ele>
        <time>2022-07-23T09:48:52Z</time>
      </trkpt>
      <trkpt lat="42.7017830" lon="-0.0866770">
        <ele>1916.6</ele>
        <time>2022-07-23T09:48:58Z</time>
      </trkpt>
      <trkpt lat="42.7017850" lon="-0.0866440">
        <ele>1917.0</ele>
        <time>2022-07-23T09:49:00Z</time>
      </trkpt>
      <trkpt lat="42.7017730" lon="-0.0864860">
        <ele>1918.6</ele>
        <time>2022-07-23T09:49:10Z</time>
      </trkpt>
      <trkpt lat="42.7017720" lon="-0.0864420">
        <ele>1918.6</ele>
        <time>2022-07-23T09:49:14Z</time>
      </trkpt>
      <trkpt lat="42.7017490" lon="-0.0863390">
        <ele>1919.6</ele>
        <time>2022-07-23T09:49:23Z</time>
      </trkpt>
      <trkpt lat="42.7017430" lon="-0.0863120">
        <ele>1919.8</ele>
        <time>2022-07-23T09:49:25Z</time>
      </trkpt>
      <trkpt lat="42.7017290" lon="-0.0862670">
        <ele>1920.4</ele>
        <time>2022-07-23T09:49:28Z</time>
      </trkpt>
      <trkpt lat="42.7017260" lon="-0.0862560">
        <ele>1920.8</ele>
        <time>2022-07-23T09:49:29Z</time>
      </trkpt>
      <trkpt lat="42.7017250" lon="-0.0862410">
        <ele>1920.8</ele>
        <time>2022-07-23T09:49:30Z</time>
      </trkpt>
      <trkpt lat="42.7017250" lon="-0.0862260">
        <ele>1920.8</ele>
        <time>2022-07-23T09:49:31Z</time>
      </trkpt>
      <trkpt lat="42.7016970" lon="-0.0860770">
        <ele>1922.2</ele>
        <time>2022-07-23T09:49:42Z</time>
      </trkpt>
      <trkpt lat="42.7016750" lon="-0.0859930">
        <ele>1922.8</ele>
        <time>2022-07-23T09:49:49Z</time>
      </trkpt>
      <trkpt lat="42.7016720" lon="-0.0859630">
        <ele>1923.0</ele>
        <time>2022-07-23T09:49:51Z</time>
      </trkpt>
      <trkpt lat="42.7016820" lon="-0.0858700">
        <ele>1924.2</ele>
        <time>2022-07-23T09:49:58Z</time>
      </trkpt>
      <trkpt lat="42.7016660" lon="-0.0857120">
        <ele>1925.4</ele>
        <time>2022-07-23T09:50:08Z</time>
      </trkpt>
      <trkpt lat="42.7016630" lon="-0.0856020">
        <ele>1926.2</ele>
        <time>2022-07-23T09:50:15Z</time>
      </trkpt>
      <trkpt lat="42.7016650" lon="-0.0855810">
        <ele>1926.8</ele>
        <time>2022-07-23T09:50:17Z</time>
      </trkpt>
      <trkpt lat="42.7016850" lon="-0.0855130">
        <ele>1927.6</ele>
        <time>2022-07-23T09:50:22Z</time>
      </trkpt>
      <trkpt lat="42.7016860" lon="-0.0854590">
        <ele>1928.2</ele>
        <time>2022-07-23T09:50:26Z</time>
      </trkpt>
      <trkpt lat="42.7016880" lon="-0.0854440">
        <ele>1928.2</ele>
        <time>2022-07-23T09:50:27Z</time>
      </trkpt>
      <trkpt lat="42.7016880" lon="-0.0852980">
        <ele>1928.6</ele>
        <time>2022-07-23T09:50:36Z</time>
      </trkpt>
      <trkpt lat="42.7016860" lon="-0.0852650">
        <ele>1928.6</ele>
        <time>2022-07-23T09:50:38Z</time>
      </trkpt>
      <trkpt lat="42.7017070" lon="-0.0851760">
        <ele>1929.0</ele>
        <time>2022-07-23T09:50:44Z</time>
      </trkpt>
      <trkpt lat="42.7017150" lon="-0.0851010">
        <ele>1929.4</ele>
        <time>2022-07-23T09:50:49Z</time>
      </trkpt>
      <trkpt lat="42.7017240" lon="-0.0850560">
        <ele>1929.6</ele>
        <time>2022-07-23T09:50:52Z</time>
      </trkpt>
      <trkpt lat="42.7017370" lon="-0.0849290">
        <ele>1930.0</ele>
        <time>2022-07-23T09:51:00Z</time>
      </trkpt>
      <trkpt lat="42.7017600" lon="-0.0848100">
        <ele>1930.6</ele>
        <time>2022-07-23T09:51:08Z</time>
      </trkpt>
      <trkpt lat="42.7017710" lon="-0.0847180">
        <ele>1931.0</ele>
        <time>2022-07-23T09:51:14Z</time>
      </trkpt>
      <trkpt lat="42.7017760" lon="-0.0846960">
        <ele>1931.2</ele>
        <time>2022-07-23T09:51:16Z</time>
      </trkpt>
      <trkpt lat="42.7017810" lon="-0.0846460">
        <ele>1931.4</ele>
        <time>2022-07-23T09:51:24Z</time>
      </trkpt>
      <trkpt lat="42.7017740" lon="-0.0846160">
        <ele>1931.6</ele>
        <time>2022-07-23T09:51:27Z</time>
      </trkpt>
      <trkpt lat="42.7017650" lon="-0.0845750">
        <ele>1931.8</ele>
        <time>2022-07-23T09:51:30Z</time>
      </trkpt>
      <trkpt lat="42.7017640" lon="-0.0845430">
        <ele>1931.8</ele>
        <time>2022-07-23T09:51:32Z</time>
      </trkpt>
      <trkpt lat="42.7017620" lon="-0.0845280">
        <ele>1932.0</ele>
        <time>2022-07-23T09:51:33Z</time>
      </trkpt>
      <trkpt lat="42.7017600" lon="-0.0845020">
        <ele>1932.0</ele>
        <time>2022-07-23T09:51:34Z</time>
      </trkpt>
      <trkpt lat="42.7017600" lon="-0.0845020">
        <ele>1932.0</ele>
        <time>2022-07-23T09:51:35Z</time>
      </trkpt>
      <trkpt lat="42.7017580" lon="-0.0844950">
        <ele>1931.8</ele>
        <time>2022-07-23T09:51:36Z</time>
      </trkpt>
      <trkpt lat="42.7017490" lon="-0.0844870">
        <ele>1932.0</ele>
        <time>2022-07-23T09:51:38Z</time>
      </trkpt>
      <trkpt lat="42.7017370" lon="-0.0844630">
        <ele>1932.0</ele>
        <time>2022-07-23T09:51:41Z</time>
      </trkpt>
      <trkpt lat="42.7017360" lon="-0.0844460">
        <ele>1932.2</ele>
        <time>2022-07-23T09:51:43Z</time>
      </trkpt>
      <trkpt lat="42.7017390" lon="-0.0844330">
        <ele>1932.2</ele>
        <time>2022-07-23T09:51:44Z</time>
      </trkpt>
      <trkpt lat="42.7017370" lon="-0.0844110">
        <ele>1932.6</ele>
        <time>2022-07-23T09:51:46Z</time>
      </trkpt>
      <trkpt lat="42.7017350" lon="-0.0844020">
        <ele>1932.8</ele>
        <time>2022-07-23T09:51:47Z</time>
      </trkpt>
      <trkpt lat="42.7017240" lon="-0.0843780">
        <ele>1933.0</ele>
        <time>2022-07-23T09:51:50Z</time>
      </trkpt>
      <trkpt lat="42.7016760" lon="-0.0842290">
        <ele>1933.0</ele>
        <time>2022-07-23T09:52:01Z</time>
      </trkpt>
      <trkpt lat="42.7016680" lon="-0.0841640">
        <ele>1933.0</ele>
        <time>2022-07-23T09:52:05Z</time>
      </trkpt>
      <trkpt lat="42.7016580" lon="-0.0841000">
        <ele>1933.2</ele>
        <time>2022-07-23T09:52:09Z</time>
      </trkpt>
      <trkpt lat="42.7016510" lon="-0.0840490">
        <ele>1933.2</ele>
        <time>2022-07-23T09:52:15Z</time>
      </trkpt>
      <trkpt lat="42.7016490" lon="-0.0840280">
        <ele>1933.2</ele>
        <time>2022-07-23T09:52:17Z</time>
      </trkpt>
      <trkpt lat="42.7016760" lon="-0.0839800">
        <ele>1933.2</ele>
        <time>2022-07-23T09:52:21Z</time>
      </trkpt>
      <trkpt lat="42.7017010" lon="-0.0838840">
        <ele>1933.6</ele>
        <time>2022-07-23T09:52:26Z</time>
      </trkpt>
      <trkpt lat="42.7017110" lon="-0.0838500">
        <ele>1933.6</ele>
        <time>2022-07-23T09:52:30Z</time>
      </trkpt>
      <trkpt lat="42.7017850" lon="-0.0837320">
        <ele>1934.0</ele>
        <time>2022-07-23T09:52:39Z</time>
      </trkpt>
      <trkpt lat="42.7017910" lon="-0.0837160">
        <ele>1934.4</ele>
        <time>2022-07-23T09:52:40Z</time>
      </trkpt>
      <trkpt lat="42.7017870" lon="-0.0836400">
        <ele>1934.8</ele>
        <time>2022-07-23T09:52:47Z</time>
      </trkpt>
      <trkpt lat="42.7017850" lon="-0.0836260">
        <ele>1934.8</ele>
        <time>2022-07-23T09:52:50Z</time>
      </trkpt>
      <trkpt lat="42.7017770" lon="-0.0836320">
        <ele>1935.0</ele>
        <time>2022-07-23T09:52:52Z</time>
      </trkpt>
      <trkpt lat="42.7017770" lon="-0.0836320">
        <ele>1934.8</ele>
        <time>2022-07-23T09:52:53Z</time>
      </trkpt>
      <trkpt lat="42.7017730" lon="-0.0836320">
        <ele>1934.8</ele>
        <time>2022-07-23T09:52:55Z</time>
      </trkpt>
      <trkpt lat="42.7017630" lon="-0.0836600">
        <ele>1934.6</ele>
        <time>2022-07-23T09:53:02Z</time>
      </trkpt>
      <trkpt lat="42.7017600" lon="-0.0836610">
        <ele>1934.6</ele>
        <time>2022-07-23T09:53:03Z</time>
      </trkpt>
      <trkpt lat="42.7017570" lon="-0.0836600">
        <ele>1934.6</ele>
        <time>2022-07-23T09:53:04Z</time>
      </trkpt>
      <trkpt lat="42.7017550" lon="-0.0836620">
        <ele>1934.6</ele>
        <time>2022-07-23T09:53:05Z</time>
      </trkpt>
      <trkpt lat="42.7017540" lon="-0.0836590">
        <ele>1934.6</ele>
        <time>2022-07-23T09:53:06Z</time>
      </trkpt>
      <trkpt lat="42.7017700" lon="-0.0836840">
        <ele>1936.2</ele>
        <time>2022-07-23T09:53:18Z</time>
      </trkpt>
      <trkpt lat="42.7017710" lon="-0.0836890">
        <ele>1934.6</ele>
        <time>2022-07-23T09:53:21Z</time>
      </trkpt>
      <trkpt lat="42.7017710" lon="-0.0836900">
        <ele>1934.8</ele>
        <time>2022-07-23T09:53:22Z</time>
      </trkpt>
      <trkpt lat="42.7017670" lon="-0.0836860">
        <ele>1935.6</ele>
        <time>2022-07-23T09:53:23Z</time>
      </trkpt>
      <trkpt lat="42.7017630" lon="-0.0836820">
        <ele>1935.0</ele>
        <time>2022-07-23T09:53:24Z</time>
      </trkpt>
      <trkpt lat="42.7017450" lon="-0.0836690">
        <ele>1934.4</ele>
        <time>2022-07-23T09:53:28Z</time>
      </trkpt>
      <trkpt lat="42.7017510" lon="-0.0836860">
        <ele>1934.6</ele>
        <time>2022-07-23T09:53:42Z</time>
      </trkpt>
      <trkpt lat="42.7017670" lon="-0.0837100">
        <ele>1935.2</ele>
        <time>2022-07-23T09:53:47Z</time>
      </trkpt>
      <trkpt lat="42.7017680" lon="-0.0837100">
        <ele>1934.6</ele>
        <time>2022-07-23T09:53:49Z</time>
      </trkpt>
      <trkpt lat="42.7017690" lon="-0.0837040">
        <ele>1934.4</ele>
        <time>2022-07-23T09:54:00Z</time>
      </trkpt>
      <trkpt lat="42.7017660" lon="-0.0837010">
        <ele>1934.6</ele>
        <time>2022-07-23T09:54:30Z</time>
      </trkpt>
      <trkpt lat="42.7017740" lon="-0.0837270">
        <ele>1934.8</ele>
        <time>2022-07-23T09:54:36Z</time>
      </trkpt>
      <trkpt lat="42.7017930" lon="-0.0837490">
        <ele>1935.0</ele>
        <time>2022-07-23T09:54:41Z</time>
      </trkpt>
      <trkpt lat="42.7017800" lon="-0.0837470">
        <ele>1935.2</ele>
        <time>2022-07-23T09:54:52Z</time>
      </trkpt>
      <trkpt lat="42.7017780" lon="-0.0837450">
        <ele>1935.4</ele>
        <time>2022-07-23T09:54:55Z</time>
      </trkpt>
      <trkpt lat="42.7017780" lon="-0.0837430">
        <ele>1935.2</ele>
        <time>2022-07-23T09:54:59Z</time>
      </trkpt>
      <trkpt lat="42.7017760" lon="-0.0837390">
        <ele>1935.4</ele>
        <time>2022-07-23T09:55:11Z</time>
      </trkpt>
      <trkpt lat="42.7017770" lon="-0.0837150">
        <ele>1935.2</ele>
        <time>2022-07-23T09:55:32Z</time>
      </trkpt>
      <trkpt lat="42.7017610" lon="-0.0836890">
        <ele>1935.2</ele>
        <time>2022-07-23T09:55:47Z</time>
      </trkpt>
      <trkpt lat="42.7017580" lon="-0.0836790">
        <ele>1935.4</ele>
        <time>2022-07-23T09:56:07Z</time>
      </trkpt>
      <trkpt lat="42.7017590" lon="-0.0836810">
        <ele>1935.2</ele>
        <time>2022-07-23T09:56:24Z</time>
      </trkpt>
      <trkpt lat="42.7017600" lon="-0.0836820">
        <ele>1935.2</ele>
        <time>2022-07-23T09:56:30Z</time>
      </trkpt>
      <trkpt lat="42.7017600" lon="-0.0836820">
        <ele>1935.0</ele>
        <time>2022-07-23T09:56:31Z</time>
      </trkpt>
      <trkpt lat="42.7017600" lon="-0.0836820">
        <ele>1935.0</ele>
        <time>2022-07-23T09:56:34Z</time>
      </trkpt>
      <trkpt lat="42.7017610" lon="-0.0836820">
        <ele>1935.0</ele>
        <time>2022-07-23T09:56:35Z</time>
      </trkpt>
      <trkpt lat="42.7017800" lon="-0.0837020">
        <ele>1935.4</ele>
        <time>2022-07-23T09:56:51Z</time>
      </trkpt>
      <trkpt lat="42.7017670" lon="-0.0836960">
        <ele>1935.4</ele>
        <time>2022-07-23T09:57:11Z</time>
      </trkpt>
      <trkpt lat="42.7017710" lon="-0.0837010">
        <ele>1935.4</ele>
        <time>2022-07-23T09:57:12Z</time>
      </trkpt>
      <trkpt lat="42.7017680" lon="-0.0837000">
        <ele>1935.4</ele>
        <time>2022-07-23T09:57:14Z</time>
      </trkpt>
      <trkpt lat="42.7017700" lon="-0.0837020">
        <ele>1935.4</ele>
        <time>2022-07-23T09:57:16Z</time>
      </trkpt>
      <trkpt lat="42.7017670" lon="-0.0837000">
        <ele>1935.4</ele>
        <time>2022-07-23T09:57:18Z</time>
      </trkpt>
      <trkpt lat="42.7017670" lon="-0.0837000">
        <ele>1935.6</ele>
        <time>2022-07-23T09:57:19Z</time>
      </trkpt>
      <trkpt lat="42.7017670" lon="-0.0837000">
        <ele>1935.6</ele>
        <time>2022-07-23T09:57:20Z</time>
      </trkpt>
      <trkpt lat="42.7017670" lon="-0.0836990">
        <ele>1935.4</ele>
        <time>2022-07-23T09:57:21Z</time>
      </trkpt>
      <trkpt lat="42.7017690" lon="-0.0836980">
        <ele>1935.4</ele>
        <time>2022-07-23T09:57:28Z</time>
      </trkpt>
      <trkpt lat="42.7017640" lon="-0.0836950">
        <ele>1935.4</ele>
        <time>2022-07-23T09:57:44Z</time>
      </trkpt>
      <trkpt lat="42.7017390" lon="-0.0836680">
        <ele>1935.4</ele>
        <time>2022-07-23T09:57:52Z</time>
      </trkpt>
      <trkpt lat="42.7017290" lon="-0.0836660">
        <ele>1935.4</ele>
        <time>2022-07-23T09:57:54Z</time>
      </trkpt>
      <trkpt lat="42.7017410" lon="-0.0836730">
        <ele>1935.4</ele>
        <time>2022-07-23T09:57:58Z</time>
      </trkpt>
      <trkpt lat="42.7017420" lon="-0.0836850">
        <ele>1935.2</ele>
        <time>2022-07-23T09:58:15Z</time>
      </trkpt>
      <trkpt lat="42.7017720" lon="-0.0837260">
        <ele>1935.2</ele>
        <time>2022-07-23T09:58:30Z</time>
      </trkpt>
      <trkpt lat="42.7018030" lon="-0.0837530">
        <ele>1935.2</ele>
        <time>2022-07-23T09:58:46Z</time>
      </trkpt>
      <trkpt lat="42.7017990" lon="-0.0837520">
        <ele>1935.2</ele>
        <time>2022-07-23T09:59:00Z</time>
      </trkpt>
      <trkpt lat="42.7017900" lon="-0.0837310">
        <ele>1935.0</ele>
        <time>2022-07-23T09:59:15Z</time>
      </trkpt>
      <trkpt lat="42.7017950" lon="-0.0837280">
        <ele>1935.2</ele>
        <time>2022-07-23T09:59:27Z</time>
      </trkpt>
      <trkpt lat="42.7017840" lon="-0.0837170">
        <ele>1935.0</ele>
        <time>2022-07-23T09:59:42Z</time>
      </trkpt>
      <trkpt lat="42.7017830" lon="-0.0837080">
        <ele>1935.0</ele>
        <time>2022-07-23T09:59:52Z</time>
      </trkpt>
      <trkpt lat="42.7017970" lon="-0.0837290">
        <ele>1935.2</ele>
        <time>2022-07-23T10:00:01Z</time>
      </trkpt>
      <trkpt lat="42.7018000" lon="-0.0837280">
        <ele>1935.2</ele>
        <time>2022-07-23T10:00:03Z</time>
      </trkpt>
      <trkpt lat="42.7018030" lon="-0.0837290">
        <ele>1935.2</ele>
        <time>2022-07-23T10:00:13Z</time>
      </trkpt>
      <trkpt lat="42.7017730" lon="-0.0837180">
        <ele>1935.0</ele>
        <time>2022-07-23T10:00:30Z</time>
      </trkpt>
      <trkpt lat="42.7017740" lon="-0.0837110">
        <ele>1935.2</ele>
        <time>2022-07-23T10:00:44Z</time>
      </trkpt>
      <trkpt lat="42.7017740" lon="-0.0837110">
        <ele>1935.0</ele>
        <time>2022-07-23T10:00:45Z</time>
      </trkpt>
      <trkpt lat="42.7017740" lon="-0.0837110">
        <ele>1935.2</ele>
        <time>2022-07-23T10:00:46Z</time>
      </trkpt>
      <trkpt lat="42.7017730" lon="-0.0837100">
        <ele>1935.0</ele>
        <time>2022-07-23T10:00:47Z</time>
      </trkpt>
      <trkpt lat="42.7017670" lon="-0.0837100">
        <ele>1935.0</ele>
        <time>2022-07-23T10:00:56Z</time>
      </trkpt>
      <trkpt lat="42.7017700" lon="-0.0837120">
        <ele>1935.0</ele>
        <time>2022-07-23T10:00:57Z</time>
      </trkpt>
      <trkpt lat="42.7017840" lon="-0.0837070">
        <ele>1935.2</ele>
        <time>2022-07-23T10:01:11Z</time>
      </trkpt>
      <trkpt lat="42.7018000" lon="-0.0837200">
        <ele>1935.6</ele>
        <time>2022-07-23T10:01:27Z</time>
      </trkpt>
      <trkpt lat="42.7017700" lon="-0.0837240">
        <ele>1935.2</ele>
        <time>2022-07-23T10:01:46Z</time>
      </trkpt>
      <trkpt lat="42.7017630" lon="-0.0837080">
        <ele>1935.4</ele>
        <time>2022-07-23T10:02:03Z</time>
      </trkpt>
      <trkpt lat="42.7017600" lon="-0.0837030">
        <ele>1935.4</ele>
        <time>2022-07-23T10:02:24Z</time>
      </trkpt>
      <trkpt lat="42.7017640" lon="-0.0836980">
        <ele>1934.8</ele>
        <time>2022-07-23T10:02:47Z</time>
      </trkpt>
      <trkpt lat="42.7017670" lon="-0.0836960">
        <ele>1935.0</ele>
        <time>2022-07-23T10:02:59Z</time>
      </trkpt>
      <trkpt lat="42.7017670" lon="-0.0836950">
        <ele>1935.0</ele>
        <time>2022-07-23T10:03:01Z</time>
      </trkpt>
      <trkpt lat="42.7017780" lon="-0.0836970">
        <ele>1934.8</ele>
        <time>2022-07-23T10:03:13Z</time>
      </trkpt>
      <trkpt lat="42.7017310" lon="-0.0836890">
        <ele>1934.8</ele>
        <time>2022-07-23T10:03:24Z</time>
      </trkpt>
      <trkpt lat="42.7018010" lon="-0.0837430">
        <ele>1935.0</ele>
        <time>2022-07-23T10:03:37Z</time>
      </trkpt>
      <trkpt lat="42.7018290" lon="-0.0837440">
        <ele>1934.8</ele>
        <time>2022-07-23T10:03:51Z</time>
      </trkpt>
      <trkpt lat="42.7018290" lon="-0.0837400">
        <ele>1934.8</ele>
        <time>2022-07-23T10:04:05Z</time>
      </trkpt>
      <trkpt lat="42.7018370" lon="-0.0837020">
        <ele>1934.8</ele>
        <time>2022-07-23T10:04:10Z</time>
      </trkpt>
      <trkpt lat="42.7018780" lon="-0.0837090">
        <ele>1935.0</ele>
        <time>2022-07-23T10:04:19Z</time>
      </trkpt>
      <trkpt lat="42.7018910" lon="-0.0836930">
        <ele>1935.2</ele>
        <time>2022-07-23T10:04:24Z</time>
      </trkpt>
      <trkpt lat="42.7019190" lon="-0.0836400">
        <ele>1935.8</ele>
        <time>2022-07-23T10:04:33Z</time>
      </trkpt>
      <trkpt lat="42.7019210" lon="-0.0836250">
        <ele>1936.0</ele>
        <time>2022-07-23T10:04:34Z</time>
      </trkpt>
      <trkpt lat="42.7019220" lon="-0.0834380">
        <ele>1937.0</ele>
        <time>2022-07-23T10:04:45Z</time>
      </trkpt>
      <trkpt lat="42.7019520" lon="-0.0833010">
        <ele>1938.2</ele>
        <time>2022-07-23T10:04:55Z</time>
      </trkpt>
      <trkpt lat="42.7019470" lon="-0.0832870">
        <ele>1938.2</ele>
        <time>2022-07-23T10:04:56Z</time>
      </trkpt>
      <trkpt lat="42.7019560" lon="-0.0832660">
        <ele>1938.6</ele>
        <time>2022-07-23T10:04:58Z</time>
      </trkpt>
      <trkpt lat="42.7019570" lon="-0.0832590">
        <ele>1938.6</ele>
        <time>2022-07-23T10:04:59Z</time>
      </trkpt>
      <trkpt lat="42.7019630" lon="-0.0832440">
        <ele>1938.6</ele>
        <time>2022-07-23T10:05:01Z</time>
      </trkpt>
      <trkpt lat="42.7019630" lon="-0.0832320">
        <ele>1938.8</ele>
        <time>2022-07-23T10:05:02Z</time>
      </trkpt>
      <trkpt lat="42.7019700" lon="-0.0832020">
        <ele>1938.8</ele>
        <time>2022-07-23T10:05:05Z</time>
      </trkpt>
      <trkpt lat="42.7019830" lon="-0.0831850">
        <ele>1939.0</ele>
        <time>2022-07-23T10:05:07Z</time>
      </trkpt>
      <trkpt lat="42.7020120" lon="-0.0831530">
        <ele>1939.2</ele>
        <time>2022-07-23T10:05:10Z</time>
      </trkpt>
      <trkpt lat="42.7020150" lon="-0.0831100">
        <ele>1939.4</ele>
        <time>2022-07-23T10:05:13Z</time>
      </trkpt>
      <trkpt lat="42.7020190" lon="-0.0830980">
        <ele>1939.4</ele>
        <time>2022-07-23T10:05:14Z</time>
      </trkpt>
      <trkpt lat="42.7020450" lon="-0.0829570">
        <ele>1940.8</ele>
        <time>2022-07-23T10:05:26Z</time>
      </trkpt>
      <trkpt lat="42.7020540" lon="-0.0829200">
        <ele>1941.2</ele>
        <time>2022-07-23T10:05:30Z</time>
      </trkpt>
      <trkpt lat="42.7020540" lon="-0.0828690">
        <ele>1941.8</ele>
        <time>2022-07-23T10:05:35Z</time>
      </trkpt>
      <trkpt lat="42.7020400" lon="-0.0828260">
        <ele>1942.0</ele>
        <time>2022-07-23T10:05:38Z</time>
      </trkpt>
      <trkpt lat="42.7020240" lon="-0.0828090">
        <ele>1942.0</ele>
        <time>2022-07-23T10:05:40Z</time>
      </trkpt>
      <trkpt lat="42.7020260" lon="-0.0828000">
        <ele>1942.2</ele>
        <time>2022-07-23T10:05:42Z</time>
      </trkpt>
      <trkpt lat="42.7020220" lon="-0.0827860">
        <ele>1942.4</ele>
        <time>2022-07-23T10:05:43Z</time>
      </trkpt>
      <trkpt lat="42.7020200" lon="-0.0827560">
        <ele>1943.6</ele>
        <time>2022-07-23T10:05:47Z</time>
      </trkpt>
      <trkpt lat="42.7020190" lon="-0.0827140">
        <ele>1944.2</ele>
        <time>2022-07-23T10:05:52Z</time>
      </trkpt>
      <trkpt lat="42.7020250" lon="-0.0827020">
        <ele>1944.4</ele>
        <time>2022-07-23T10:05:53Z</time>
      </trkpt>
      <trkpt lat="42.7020200" lon="-0.0826350">
        <ele>1945.2</ele>
        <time>2022-07-23T10:05:59Z</time>
      </trkpt>
      <trkpt lat="42.7020170" lon="-0.0826060">
        <ele>1945.4</ele>
        <time>2022-07-23T10:06:01Z</time>
      </trkpt>
      <trkpt lat="42.7020170" lon="-0.0826060">
        <ele>1945.6</ele>
        <time>2022-07-23T10:06:02Z</time>
      </trkpt>
      <trkpt lat="42.7020240" lon="-0.0825850">
        <ele>1946.0</ele>
        <time>2022-07-23T10:06:03Z</time>
      </trkpt>
      <trkpt lat="42.7020140" lon="-0.0824660">
        <ele>1947.2</ele>
        <time>2022-07-23T10:06:13Z</time>
      </trkpt>
      <trkpt lat="42.7019910" lon="-0.0824050">
        <ele>1947.8</ele>
        <time>2022-07-23T10:06:18Z</time>
      </trkpt>
      <trkpt lat="42.7019910" lon="-0.0824050">
        <ele>1947.8</ele>
        <time>2022-07-23T10:06:19Z</time>
      </trkpt>
      <trkpt lat="42.7019850" lon="-0.0823860">
        <ele>1947.8</ele>
        <time>2022-07-23T10:06:21Z</time>
      </trkpt>
      <trkpt lat="42.7019870" lon="-0.0823670">
        <ele>1948.2</ele>
        <time>2022-07-23T10:06:22Z</time>
      </trkpt>
      <trkpt lat="42.7019880" lon="-0.0823550">
        <ele>1948.2</ele>
        <time>2022-07-23T10:06:23Z</time>
      </trkpt>
      <trkpt lat="42.7019930" lon="-0.0823190">
        <ele>1948.4</ele>
        <time>2022-07-23T10:06:27Z</time>
      </trkpt>
      <trkpt lat="42.7019880" lon="-0.0822880">
        <ele>1948.6</ele>
        <time>2022-07-23T10:06:30Z</time>
      </trkpt>
      <trkpt lat="42.7020000" lon="-0.0822510">
        <ele>1948.6</ele>
        <time>2022-07-23T10:06:34Z</time>
      </trkpt>
      <trkpt lat="42.7020480" lon="-0.0820180">
        <ele>1948.2</ele>
        <time>2022-07-23T10:06:52Z</time>
      </trkpt>
      <trkpt lat="42.7020450" lon="-0.0819980">
        <ele>1948.4</ele>
        <time>2022-07-23T10:06:53Z</time>
      </trkpt>
      <trkpt lat="42.7020590" lon="-0.0819380">
        <ele>1948.0</ele>
        <time>2022-07-23T10:06:57Z</time>
      </trkpt>
      <trkpt lat="42.7020480" lon="-0.0818450">
        <ele>1948.0</ele>
        <time>2022-07-23T10:07:02Z</time>
      </trkpt>
      <trkpt lat="42.7020110" lon="-0.0816880">
        <ele>1948.0</ele>
        <time>2022-07-23T10:07:11Z</time>
      </trkpt>
      <trkpt lat="42.7019680" lon="-0.0815760">
        <ele>1948.2</ele>
        <time>2022-07-23T10:07:18Z</time>
      </trkpt>
      <trkpt lat="42.7019640" lon="-0.0814510">
        <ele>1948.2</ele>
        <time>2022-07-23T10:07:26Z</time>
      </trkpt>
      <trkpt lat="42.7019760" lon="-0.0813160">
        <ele>1948.6</ele>
        <time>2022-07-23T10:07:36Z</time>
      </trkpt>
      <trkpt lat="42.7020000" lon="-0.0812130">
        <ele>1948.8</ele>
        <time>2022-07-23T10:07:43Z</time>
      </trkpt>
      <trkpt lat="42.7019950" lon="-0.0811530">
        <ele>1948.8</ele>
        <time>2022-07-23T10:07:47Z</time>
      </trkpt>
      <trkpt lat="42.7020050" lon="-0.0809710">
        <ele>1949.4</ele>
        <time>2022-07-23T10:07:57Z</time>
      </trkpt>
      <trkpt lat="42.7020230" lon="-0.0807820">
        <ele>1949.6</ele>
        <time>2022-07-23T10:08:07Z</time>
      </trkpt>
      <trkpt lat="42.7020250" lon="-0.0807670">
        <ele>1950.0</ele>
        <time>2022-07-23T10:08:09Z</time>
      </trkpt>
      <trkpt lat="42.7020370" lon="-0.0806000">
        <ele>1950.2</ele>
        <time>2022-07-23T10:08:18Z</time>
      </trkpt>
      <trkpt lat="42.7020880" lon="-0.0804370">
        <ele>1950.6</ele>
        <time>2022-07-23T10:08:29Z</time>
      </trkpt>
      <trkpt lat="42.7021280" lon="-0.0803290">
        <ele>1950.8</ele>
        <time>2022-07-23T10:08:36Z</time>
      </trkpt>
      <trkpt lat="42.7021310" lon="-0.0803170">
        <ele>1950.8</ele>
        <time>2022-07-23T10:08:38Z</time>
      </trkpt>
      <trkpt lat="42.7021510" lon="-0.0801960">
        <ele>1951.2</ele>
        <time>2022-07-23T10:08:47Z</time>
      </trkpt>
      <trkpt lat="42.7021890" lon="-0.0800330">
        <ele>1951.8</ele>
        <time>2022-07-23T10:08:56Z</time>
      </trkpt>
      <trkpt lat="42.7021970" lon="-0.0800210">
        <ele>1951.8</ele>
        <time>2022-07-23T10:08:57Z</time>
      </trkpt>
      <trkpt lat="42.7022510" lon="-0.0799180">
        <ele>1952.6</ele>
        <time>2022-07-23T10:09:06Z</time>
      </trkpt>
      <trkpt lat="42.7022570" lon="-0.0799030">
        <ele>1952.4</ele>
        <time>2022-07-23T10:09:07Z</time>
      </trkpt>
      <trkpt lat="42.7023140" lon="-0.0797340">
        <ele>1953.4</ele>
        <time>2022-07-23T10:09:18Z</time>
      </trkpt>
      <trkpt lat="42.7023710" lon="-0.0795770">
        <ele>1954.0</ele>
        <time>2022-07-23T10:09:29Z</time>
      </trkpt>
      <trkpt lat="42.7023930" lon="-0.0795360">
        <ele>1954.2</ele>
        <time>2022-07-23T10:09:32Z</time>
      </trkpt>
      <trkpt lat="42.7024290" lon="-0.0794800">
        <ele>1954.4</ele>
        <time>2022-07-23T10:09:37Z</time>
      </trkpt>
      <trkpt lat="42.7024860" lon="-0.0794070">
        <ele>1955.0</ele>
        <time>2022-07-23T10:09:44Z</time>
      </trkpt>
      <trkpt lat="42.7024920" lon="-0.0793990">
        <ele>1955.2</ele>
        <time>2022-07-23T10:09:45Z</time>
      </trkpt>
      <trkpt lat="42.7025320" lon="-0.0792900">
        <ele>1955.6</ele>
        <time>2022-07-23T10:09:53Z</time>
      </trkpt>
      <trkpt lat="42.7025430" lon="-0.0792600">
        <ele>1955.8</ele>
        <time>2022-07-23T10:09:54Z</time>
      </trkpt>
      <trkpt lat="42.7025710" lon="-0.0792020">
        <ele>1956.6</ele>
        <time>2022-07-23T10:10:01Z</time>
      </trkpt>
      <trkpt lat="42.7025870" lon="-0.0792000">
        <ele>1956.8</ele>
        <time>2022-07-23T10:10:02Z</time>
      </trkpt>
      <trkpt lat="42.7025960" lon="-0.0791990">
        <ele>1956.8</ele>
        <time>2022-07-23T10:10:03Z</time>
      </trkpt>
      <trkpt lat="42.7026420" lon="-0.0791500">
        <ele>1958.0</ele>
        <time>2022-07-23T10:10:09Z</time>
      </trkpt>
      <trkpt lat="42.7026710" lon="-0.0791160">
        <ele>1958.4</ele>
        <time>2022-07-23T10:10:12Z</time>
      </trkpt>
      <trkpt lat="42.7026930" lon="-0.0790950">
        <ele>1958.4</ele>
        <time>2022-07-23T10:10:14Z</time>
      </trkpt>
      <trkpt lat="42.7027430" lon="-0.0789960">
        <ele>1959.4</ele>
        <time>2022-07-23T10:10:22Z</time>
      </trkpt>
      <trkpt lat="42.7027710" lon="-0.0789390">
        <ele>1959.8</ele>
        <time>2022-07-23T10:10:26Z</time>
      </trkpt>
      <trkpt lat="42.7027750" lon="-0.0789230">
        <ele>1960.0</ele>
        <time>2022-07-23T10:10:27Z</time>
      </trkpt>
      <trkpt lat="42.7028340" lon="-0.0788460">
        <ele>1961.4</ele>
        <time>2022-07-23T10:10:35Z</time>
      </trkpt>
      <trkpt lat="42.7028410" lon="-0.0788340">
        <ele>1961.8</ele>
        <time>2022-07-23T10:10:37Z</time>
      </trkpt>
      <trkpt lat="42.7028930" lon="-0.0787050">
        <ele>1962.2</ele>
        <time>2022-07-23T10:10:43Z</time>
      </trkpt>
      <trkpt lat="42.7029340" lon="-0.0785850">
        <ele>1963.4</ele>
        <time>2022-07-23T10:10:51Z</time>
      </trkpt>
      <trkpt lat="42.7029630" lon="-0.0784840">
        <ele>1963.8</ele>
        <time>2022-07-23T10:10:57Z</time>
      </trkpt>
      <trkpt lat="42.7029750" lon="-0.0784450">
        <ele>1964.0</ele>
        <time>2022-07-23T10:11:00Z</time>
      </trkpt>
      <trkpt lat="42.7030250" lon="-0.0783680">
        <ele>1964.6</ele>
        <time>2022-07-23T10:11:06Z</time>
      </trkpt>
      <trkpt lat="42.7030310" lon="-0.0783520">
        <ele>1964.8</ele>
        <time>2022-07-23T10:11:08Z</time>
      </trkpt>
      <trkpt lat="42.7030330" lon="-0.0783410">
        <ele>1964.8</ele>
        <time>2022-07-23T10:11:09Z</time>
      </trkpt>
      <trkpt lat="42.7030340" lon="-0.0783000">
        <ele>1965.0</ele>
        <time>2022-07-23T10:11:13Z</time>
      </trkpt>
      <trkpt lat="42.7030480" lon="-0.0782680">
        <ele>1965.6</ele>
        <time>2022-07-23T10:11:17Z</time>
      </trkpt>
      <trkpt lat="42.7030740" lon="-0.0782150">
        <ele>1966.4</ele>
        <time>2022-07-23T10:11:23Z</time>
      </trkpt>
      <trkpt lat="42.7030830" lon="-0.0782040">
        <ele>1966.6</ele>
        <time>2022-07-23T10:11:24Z</time>
      </trkpt>
      <trkpt lat="42.7031220" lon="-0.0781690">
        <ele>1967.2</ele>
        <time>2022-07-23T10:11:30Z</time>
      </trkpt>
      <trkpt lat="42.7031340" lon="-0.0781380">
        <ele>1967.4</ele>
        <time>2022-07-23T10:11:33Z</time>
      </trkpt>
      <trkpt lat="42.7031410" lon="-0.0781170">
        <ele>1967.4</ele>
        <time>2022-07-23T10:11:34Z</time>
      </trkpt>
      <trkpt lat="42.7031450" lon="-0.0780420">
        <ele>1967.6</ele>
        <time>2022-07-23T10:11:37Z</time>
      </trkpt>
      <trkpt lat="42.7031680" lon="-0.0779860">
        <ele>1967.6</ele>
        <time>2022-07-23T10:11:40Z</time>
      </trkpt>
      <trkpt lat="42.7031980" lon="-0.0778920">
        <ele>1968.0</ele>
        <time>2022-07-23T10:11:44Z</time>
      </trkpt>
      <trkpt lat="42.7032320" lon="-0.0777560">
        <ele>1969.0</ele>
        <time>2022-07-23T10:11:52Z</time>
      </trkpt>
      <trkpt lat="42.7032290" lon="-0.0777410">
        <ele>1969.0</ele>
        <time>2022-07-23T10:11:53Z</time>
      </trkpt>
      <trkpt lat="42.7032210" lon="-0.0776770">
        <ele>1969.6</ele>
        <time>2022-07-23T10:11:58Z</time>
      </trkpt>
      <trkpt lat="42.7032310" lon="-0.0776310">
        <ele>1969.8</ele>
        <time>2022-07-23T10:12:01Z</time>
      </trkpt>
      <trkpt lat="42.7032310" lon="-0.0775490">
        <ele>1970.8</ele>
        <time>2022-07-23T10:12:06Z</time>
      </trkpt>
      <trkpt lat="42.7032390" lon="-0.0775330">
        <ele>1971.4</ele>
        <time>2022-07-23T10:12:09Z</time>
      </trkpt>
      <trkpt lat="42.7032190" lon="-0.0775540">
        <ele>1971.6</ele>
        <time>2022-07-23T10:12:13Z</time>
      </trkpt>
      <trkpt lat="42.7032240" lon="-0.0775490">
        <ele>1971.8</ele>
        <time>2022-07-23T10:12:16Z</time>
      </trkpt>
      <trkpt lat="42.7032950" lon="-0.0774790">
        <ele>1972.6</ele>
        <time>2022-07-23T10:12:22Z</time>
      </trkpt>
      <trkpt lat="42.7033010" lon="-0.0774820">
        <ele>1972.8</ele>
        <time>2022-07-23T10:12:24Z</time>
      </trkpt>
      <trkpt lat="42.7033040" lon="-0.0774720">
        <ele>1973.2</ele>
        <time>2022-07-23T10:12:26Z</time>
      </trkpt>
      <trkpt lat="42.7032950" lon="-0.0774470">
        <ele>1973.4</ele>
        <time>2022-07-23T10:12:29Z</time>
      </trkpt>
      <trkpt lat="42.7033080" lon="-0.0774050">
        <ele>1973.8</ele>
        <time>2022-07-23T10:12:33Z</time>
      </trkpt>
      <trkpt lat="42.7032980" lon="-0.0773520">
        <ele>1974.0</ele>
        <time>2022-07-23T10:12:36Z</time>
      </trkpt>
      <trkpt lat="42.7032890" lon="-0.0773300">
        <ele>1974.0</ele>
        <time>2022-07-23T10:12:37Z</time>
      </trkpt>
      <trkpt lat="42.7032600" lon="-0.0772700">
        <ele>1974.2</ele>
        <time>2022-07-23T10:12:41Z</time>
      </trkpt>
      <trkpt lat="42.7032680" lon="-0.0772270">
        <ele>1974.4</ele>
        <time>2022-07-23T10:12:44Z</time>
      </trkpt>
      <trkpt lat="42.7032870" lon="-0.0772060">
        <ele>1974.4</ele>
        <time>2022-07-23T10:12:46Z</time>
      </trkpt>
      <trkpt lat="42.7033030" lon="-0.0771990">
        <ele>1974.4</ele>
        <time>2022-07-23T10:12:47Z</time>
      </trkpt>
      <trkpt lat="42.7033150" lon="-0.0771920">
        <ele>1974.6</ele>
        <time>2022-07-23T10:12:48Z</time>
      </trkpt>
      <trkpt lat="42.7033190" lon="-0.0771840">
        <ele>1974.6</ele>
        <time>2022-07-23T10:12:50Z</time>
      </trkpt>
      <trkpt lat="42.7033650" lon="-0.0771610">
        <ele>1975.2</ele>
        <time>2022-07-23T10:13:03Z</time>
      </trkpt>
      <trkpt lat="42.7034230" lon="-0.0771880">
        <ele>1975.4</ele>
        <time>2022-07-23T10:13:15Z</time>
      </trkpt>
      <trkpt lat="42.7034360" lon="-0.0771440">
        <ele>1975.4</ele>
        <time>2022-07-23T10:13:19Z</time>
      </trkpt>
      <trkpt lat="42.7034470" lon="-0.0770740">
        <ele>1975.4</ele>
        <time>2022-07-23T10:13:24Z</time>
      </trkpt>
      <trkpt lat="42.7034790" lon="-0.0768790">
        <ele>1975.6</ele>
        <time>2022-07-23T10:13:35Z</time>
      </trkpt>
      <trkpt lat="42.7035460" lon="-0.0767700">
        <ele>1976.0</ele>
        <time>2022-07-23T10:13:47Z</time>
      </trkpt>
      <trkpt lat="42.7035900" lon="-0.0767030">
        <ele>1976.4</ele>
        <time>2022-07-23T10:13:54Z</time>
      </trkpt>
      <trkpt lat="42.7036020" lon="-0.0766120">
        <ele>1977.4</ele>
        <time>2022-07-23T10:14:01Z</time>
      </trkpt>
      <trkpt lat="42.7036000" lon="-0.0765880">
        <ele>1978.0</ele>
        <time>2022-07-23T10:14:03Z</time>
      </trkpt>
      <trkpt lat="42.7035750" lon="-0.0765210">
        <ele>1978.8</ele>
        <time>2022-07-23T10:14:08Z</time>
      </trkpt>
      <trkpt lat="42.7035630" lon="-0.0764710">
        <ele>1979.6</ele>
        <time>2022-07-23T10:14:12Z</time>
      </trkpt>
      <trkpt lat="42.7035650" lon="-0.0764490">
        <ele>1980.2</ele>
        <time>2022-07-23T10:14:14Z</time>
      </trkpt>
      <trkpt lat="42.7035710" lon="-0.0763650">
        <ele>1980.8</ele>
        <time>2022-07-23T10:14:21Z</time>
      </trkpt>
      <trkpt lat="42.7035750" lon="-0.0763250">
        <ele>1981.8</ele>
        <time>2022-07-23T10:14:25Z</time>
      </trkpt>
      <trkpt lat="42.7035890" lon="-0.0762680">
        <ele>1982.8</ele>
        <time>2022-07-23T10:14:30Z</time>
      </trkpt>
      <trkpt lat="42.7035950" lon="-0.0762540">
        <ele>1983.0</ele>
        <time>2022-07-23T10:14:31Z</time>
      </trkpt>
      <trkpt lat="42.7036010" lon="-0.0762450">
        <ele>1983.2</ele>
        <time>2022-07-23T10:14:32Z</time>
      </trkpt>
      <trkpt lat="42.7036100" lon="-0.0762240">
        <ele>1983.4</ele>
        <time>2022-07-23T10:14:34Z</time>
      </trkpt>
      <trkpt lat="42.7036350" lon="-0.0761720">
        <ele>1984.0</ele>
        <time>2022-07-23T10:14:39Z</time>
      </trkpt>
      <trkpt lat="42.7036560" lon="-0.0761380">
        <ele>1985.4</ele>
        <time>2022-07-23T10:14:44Z</time>
      </trkpt>
      <trkpt lat="42.7036580" lon="-0.0761320">
        <ele>1985.6</ele>
        <time>2022-07-23T10:14:45Z</time>
      </trkpt>
      <trkpt lat="42.7036830" lon="-0.0760930">
        <ele>1986.6</ele>
        <time>2022-07-23T10:14:50Z</time>
      </trkpt>
      <trkpt lat="42.7037020" lon="-0.0760680">
        <ele>1986.8</ele>
        <time>2022-07-23T10:14:53Z</time>
      </trkpt>
      <trkpt lat="42.7037010" lon="-0.0760160">
        <ele>1988.0</ele>
        <time>2022-07-23T10:14:58Z</time>
      </trkpt>
      <trkpt lat="42.7036990" lon="-0.0759600">
        <ele>1988.6</ele>
        <time>2022-07-23T10:15:02Z</time>
      </trkpt>
      <trkpt lat="42.7036960" lon="-0.0759150">
        <ele>1989.4</ele>
        <time>2022-07-23T10:15:06Z</time>
      </trkpt>
      <trkpt lat="42.7036990" lon="-0.0758910">
        <ele>1989.4</ele>
        <time>2022-07-23T10:15:08Z</time>
      </trkpt>
      <trkpt lat="42.7037000" lon="-0.0758600">
        <ele>1990.0</ele>
        <time>2022-07-23T10:15:11Z</time>
      </trkpt>
      <trkpt lat="42.7036860" lon="-0.0757670">
        <ele>1991.6</ele>
        <time>2022-07-23T10:15:19Z</time>
      </trkpt>
      <trkpt lat="42.7036820" lon="-0.0757430">
        <ele>1991.8</ele>
        <time>2022-07-23T10:15:21Z</time>
      </trkpt>
      <trkpt lat="42.7036580" lon="-0.0756910">
        <ele>1992.0</ele>
        <time>2022-07-23T10:15:25Z</time>
      </trkpt>
      <trkpt lat="42.7036630" lon="-0.0756050">
        <ele>1992.6</ele>
        <time>2022-07-23T10:15:32Z</time>
      </trkpt>
      <trkpt lat="42.7036600" lon="-0.0755010">
        <ele>1993.6</ele>
        <time>2022-07-23T10:15:41Z</time>
      </trkpt>
      <trkpt lat="42.7036600" lon="-0.0754730">
        <ele>1993.8</ele>
        <time>2022-07-23T10:15:43Z</time>
      </trkpt>
      <trkpt lat="42.7036440" lon="-0.0754300">
        <ele>1994.6</ele>
        <time>2022-07-23T10:15:46Z</time>
      </trkpt>
      <trkpt lat="42.7036510" lon="-0.0753050">
        <ele>1996.0</ele>
        <time>2022-07-23T10:15:55Z</time>
      </trkpt>
      <trkpt lat="42.7036540" lon="-0.0752930">
        <ele>1996.2</ele>
        <time>2022-07-23T10:15:56Z</time>
      </trkpt>
      <trkpt lat="42.7037230" lon="-0.0752590">
        <ele>1997.6</ele>
        <time>2022-07-23T10:16:03Z</time>
      </trkpt>
      <trkpt lat="42.7037430" lon="-0.0752390">
        <ele>1998.0</ele>
        <time>2022-07-23T10:16:05Z</time>
      </trkpt>
      <trkpt lat="42.7037700" lon="-0.0751260">
        <ele>2000.0</ele>
        <time>2022-07-23T10:16:15Z</time>
      </trkpt>
      <trkpt lat="42.7037720" lon="-0.0751140">
        <ele>2000.0</ele>
        <time>2022-07-23T10:16:16Z</time>
      </trkpt>
      <trkpt lat="42.7037750" lon="-0.0750910">
        <ele>2000.2</ele>
        <time>2022-07-23T10:16:19Z</time>
      </trkpt>
      <trkpt lat="42.7037650" lon="-0.0750230">
        <ele>2001.2</ele>
        <time>2022-07-23T10:16:26Z</time>
      </trkpt>
      <trkpt lat="42.7037720" lon="-0.0750150">
        <ele>2001.2</ele>
        <time>2022-07-23T10:16:27Z</time>
      </trkpt>
      <trkpt lat="42.7037910" lon="-0.0749730">
        <ele>2002.8</ele>
        <time>2022-07-23T10:16:34Z</time>
      </trkpt>
      <trkpt lat="42.7037850" lon="-0.0749500">
        <ele>2003.2</ele>
        <time>2022-07-23T10:16:37Z</time>
      </trkpt>
      <trkpt lat="42.7037740" lon="-0.0749080">
        <ele>2004.0</ele>
        <time>2022-07-23T10:16:41Z</time>
      </trkpt>
      <trkpt lat="42.7037760" lon="-0.0748440">
        <ele>2005.6</ele>
        <time>2022-07-23T10:16:48Z</time>
      </trkpt>
      <trkpt lat="42.7037700" lon="-0.0748110">
        <ele>2006.4</ele>
        <time>2022-07-23T10:16:52Z</time>
      </trkpt>
      <trkpt lat="42.7037710" lon="-0.0748040">
        <ele>2006.6</ele>
        <time>2022-07-23T10:16:53Z</time>
      </trkpt>
      <trkpt lat="42.7037870" lon="-0.0747890">
        <ele>2007.0</ele>
        <time>2022-07-23T10:16:56Z</time>
      </trkpt>
      <trkpt lat="42.7037690" lon="-0.0747400">
        <ele>2007.6</ele>
        <time>2022-07-23T10:17:02Z</time>
      </trkpt>
      <trkpt lat="42.7037630" lon="-0.0747040">
        <ele>2008.8</ele>
        <time>2022-07-23T10:17:06Z</time>
      </trkpt>
      <trkpt lat="42.7037460" lon="-0.0746480">
        <ele>2009.6</ele>
        <time>2022-07-23T10:17:11Z</time>
      </trkpt>
      <trkpt lat="42.7037410" lon="-0.0746050">
        <ele>2010.4</ele>
        <time>2022-07-23T10:17:15Z</time>
      </trkpt>
      <trkpt lat="42.7037310" lon="-0.0745240">
        <ele>2011.8</ele>
        <time>2022-07-23T10:17:22Z</time>
      </trkpt>
      <trkpt lat="42.7037230" lon="-0.0744790">
        <ele>2012.6</ele>
        <time>2022-07-23T10:17:26Z</time>
      </trkpt>
      <trkpt lat="42.7037450" lon="-0.0744340">
        <ele>2013.8</ele>
        <time>2022-07-23T10:17:32Z</time>
      </trkpt>
      <trkpt lat="42.7037460" lon="-0.0743870">
        <ele>2015.2</ele>
        <time>2022-07-23T10:17:37Z</time>
      </trkpt>
      <trkpt lat="42.7037520" lon="-0.0743690">
        <ele>2015.2</ele>
        <time>2022-07-23T10:17:39Z</time>
      </trkpt>
      <trkpt lat="42.7037610" lon="-0.0742960">
        <ele>2016.8</ele>
        <time>2022-07-23T10:17:47Z</time>
      </trkpt>
      <trkpt lat="42.7037500" lon="-0.0742620">
        <ele>2017.4</ele>
        <time>2022-07-23T10:17:50Z</time>
      </trkpt>
      <trkpt lat="42.7037550" lon="-0.0742210">
        <ele>2018.0</ele>
        <time>2022-07-23T10:17:54Z</time>
      </trkpt>
      <trkpt lat="42.7037640" lon="-0.0741920">
        <ele>2018.8</ele>
        <time>2022-07-23T10:17:58Z</time>
      </trkpt>
      <trkpt lat="42.7037690" lon="-0.0741660">
        <ele>2019.2</ele>
        <time>2022-07-23T10:18:01Z</time>
      </trkpt>
      <trkpt lat="42.7037770" lon="-0.0741100">
        <ele>2020.2</ele>
        <time>2022-07-23T10:18:07Z</time>
      </trkpt>
      <trkpt lat="42.7037910" lon="-0.0740550">
        <ele>2021.6</ele>
        <time>2022-07-23T10:18:13Z</time>
      </trkpt>
      <trkpt lat="42.7037940" lon="-0.0740480">
        <ele>2021.6</ele>
        <time>2022-07-23T10:18:14Z</time>
      </trkpt>
      <trkpt lat="42.7037930" lon="-0.0740020">
        <ele>2022.4</ele>
        <time>2022-07-23T10:18:20Z</time>
      </trkpt>
      <trkpt lat="42.7037850" lon="-0.0739640">
        <ele>2023.6</ele>
        <time>2022-07-23T10:18:25Z</time>
      </trkpt>
      <trkpt lat="42.7037640" lon="-0.0739330">
        <ele>2024.0</ele>
        <time>2022-07-23T10:18:28Z</time>
      </trkpt>
      <trkpt lat="42.7037670" lon="-0.0738850">
        <ele>2025.4</ele>
        <time>2022-07-23T10:18:35Z</time>
      </trkpt>
      <trkpt lat="42.7037680" lon="-0.0738800">
        <ele>2025.8</ele>
        <time>2022-07-23T10:18:36Z</time>
      </trkpt>
      <trkpt lat="42.7037700" lon="-0.0738390">
        <ele>2026.8</ele>
        <time>2022-07-23T10:18:42Z</time>
      </trkpt>
      <trkpt lat="42.7037900" lon="-0.0737890">
        <ele>2028.0</ele>
        <time>2022-07-23T10:18:49Z</time>
      </trkpt>
      <trkpt lat="42.7037910" lon="-0.0737770">
        <ele>2028.4</ele>
        <time>2022-07-23T10:18:50Z</time>
      </trkpt>
      <trkpt lat="42.7038010" lon="-0.0737060">
        <ele>2029.8</ele>
        <time>2022-07-23T10:18:58Z</time>
      </trkpt>
      <trkpt lat="42.7037820" lon="-0.0736600">
        <ele>2031.2</ele>
        <time>2022-07-23T10:19:03Z</time>
      </trkpt>
      <trkpt lat="42.7037700" lon="-0.0736340">
        <ele>2031.6</ele>
        <time>2022-07-23T10:19:06Z</time>
      </trkpt>
      <trkpt lat="42.7037690" lon="-0.0736080">
        <ele>2032.0</ele>
        <time>2022-07-23T10:19:09Z</time>
      </trkpt>
      <trkpt lat="42.7037650" lon="-0.0735880">
        <ele>2032.2</ele>
        <time>2022-07-23T10:19:11Z</time>
      </trkpt>
      <trkpt lat="42.7037580" lon="-0.0735700">
        <ele>2032.6</ele>
        <time>2022-07-23T10:19:13Z</time>
      </trkpt>
      <trkpt lat="42.7037550" lon="-0.0735620">
        <ele>2032.8</ele>
        <time>2022-07-23T10:19:14Z</time>
      </trkpt>
      <trkpt lat="42.7037530" lon="-0.0735550">
        <ele>2033.0</ele>
        <time>2022-07-23T10:19:15Z</time>
      </trkpt>
      <trkpt lat="42.7037400" lon="-0.0735400">
        <ele>2033.8</ele>
        <time>2022-07-23T10:19:17Z</time>
      </trkpt>
      <trkpt lat="42.7037180" lon="-0.0734530">
        <ele>2035.4</ele>
        <time>2022-07-23T10:19:27Z</time>
      </trkpt>
      <trkpt lat="42.7037320" lon="-0.0734260">
        <ele>2036.4</ele>
        <time>2022-07-23T10:19:31Z</time>
      </trkpt>
      <trkpt lat="42.7036930" lon="-0.0733610">
        <ele>2037.6</ele>
        <time>2022-07-23T10:19:39Z</time>
      </trkpt>
      <trkpt lat="42.7036880" lon="-0.0733500">
        <ele>2038.0</ele>
        <time>2022-07-23T10:19:40Z</time>
      </trkpt>
      <trkpt lat="42.7036820" lon="-0.0733140">
        <ele>2038.4</ele>
        <time>2022-07-23T10:19:43Z</time>
      </trkpt>
      <trkpt lat="42.7036950" lon="-0.0732680">
        <ele>2039.6</ele>
        <time>2022-07-23T10:19:49Z</time>
      </trkpt>
      <trkpt lat="42.7036830" lon="-0.0732490">
        <ele>2039.8</ele>
        <time>2022-07-23T10:19:51Z</time>
      </trkpt>
      <trkpt lat="42.7036590" lon="-0.0732020">
        <ele>2041.4</ele>
        <time>2022-07-23T10:19:58Z</time>
      </trkpt>
      <trkpt lat="42.7036700" lon="-0.0731880">
        <ele>2042.2</ele>
        <time>2022-07-23T10:20:02Z</time>
      </trkpt>
      <trkpt lat="42.7036810" lon="-0.0731860">
        <ele>2042.2</ele>
        <time>2022-07-23T10:20:03Z</time>
      </trkpt>
      <trkpt lat="42.7036960" lon="-0.0731350">
        <ele>2043.6</ele>
        <time>2022-07-23T10:20:11Z</time>
      </trkpt>
      <trkpt lat="42.7036920" lon="-0.0731030">
        <ele>2045.0</ele>
        <time>2022-07-23T10:20:15Z</time>
      </trkpt>
      <trkpt lat="42.7036890" lon="-0.0730940">
        <ele>2045.4</ele>
        <time>2022-07-23T10:20:17Z</time>
      </trkpt>
      <trkpt lat="42.7036780" lon="-0.0730780">
        <ele>2045.8</ele>
        <time>2022-07-23T10:20:19Z</time>
      </trkpt>
      <trkpt lat="42.7036670" lon="-0.0730550">
        <ele>2046.0</ele>
        <time>2022-07-23T10:20:22Z</time>
      </trkpt>
      <trkpt lat="42.7036640" lon="-0.0730460">
        <ele>2046.0</ele>
        <time>2022-07-23T10:20:23Z</time>
      </trkpt>
      <trkpt lat="42.7036610" lon="-0.0730360">
        <ele>2046.4</ele>
        <time>2022-07-23T10:20:24Z</time>
      </trkpt>
      <trkpt lat="42.7036180" lon="-0.0729590">
        <ele>2048.0</ele>
        <time>2022-07-23T10:20:31Z</time>
      </trkpt>
      <trkpt lat="42.7036020" lon="-0.0729290">
        <ele>2048.8</ele>
        <time>2022-07-23T10:20:34Z</time>
      </trkpt>
      <trkpt lat="42.7036070" lon="-0.0729230">
        <ele>2048.6</ele>
        <time>2022-07-23T10:20:35Z</time>
      </trkpt>
      <trkpt lat="42.7036300" lon="-0.0729240">
        <ele>2050.2</ele>
        <time>2022-07-23T10:20:44Z</time>
      </trkpt>
      <trkpt lat="42.7036270" lon="-0.0728840">
        <ele>2050.6</ele>
        <time>2022-07-23T10:20:48Z</time>
      </trkpt>
      <trkpt lat="42.7036180" lon="-0.0728510">
        <ele>2051.2</ele>
        <time>2022-07-23T10:20:51Z</time>
      </trkpt>
      <trkpt lat="42.7036220" lon="-0.0728440">
        <ele>2051.4</ele>
        <time>2022-07-23T10:20:52Z</time>
      </trkpt>
      <trkpt lat="42.7036120" lon="-0.0728320">
        <ele>2051.4</ele>
        <time>2022-07-23T10:20:53Z</time>
      </trkpt>
      <trkpt lat="42.7035940" lon="-0.0728220">
        <ele>2051.4</ele>
        <time>2022-07-23T10:20:55Z</time>
      </trkpt>
      <trkpt lat="42.7035770" lon="-0.0728110">
        <ele>2051.6</ele>
        <time>2022-07-23T10:20:56Z</time>
      </trkpt>
      <trkpt lat="42.7035670" lon="-0.0728000">
        <ele>2052.6</ele>
        <time>2022-07-23T10:21:01Z</time>
      </trkpt>
      <trkpt lat="42.7035680" lon="-0.0727990">
        <ele>2052.8</ele>
        <time>2022-07-23T10:21:02Z</time>
      </trkpt>
      <trkpt lat="42.7035710" lon="-0.0727960">
        <ele>2053.2</ele>
        <time>2022-07-23T10:21:03Z</time>
      </trkpt>
      <trkpt lat="42.7035710" lon="-0.0727950">
        <ele>2053.4</ele>
        <time>2022-07-23T10:21:04Z</time>
      </trkpt>
      <trkpt lat="42.7035710" lon="-0.0727930">
        <ele>2053.6</ele>
        <time>2022-07-23T10:21:05Z</time>
      </trkpt>
      <trkpt lat="42.7035630" lon="-0.0727910">
        <ele>2053.8</ele>
        <time>2022-07-23T10:21:06Z</time>
      </trkpt>
      <trkpt lat="42.7035310" lon="-0.0727860">
        <ele>2055.2</ele>
        <time>2022-07-23T10:21:13Z</time>
      </trkpt>
      <trkpt lat="42.7035260" lon="-0.0727760">
        <ele>2056.6</ele>
        <time>2022-07-23T10:21:16Z</time>
      </trkpt>
      <trkpt lat="42.7035300" lon="-0.0727720">
        <ele>2056.8</ele>
        <time>2022-07-23T10:21:17Z</time>
      </trkpt>
      <trkpt lat="42.7035460" lon="-0.0727610">
        <ele>2057.0</ele>
        <time>2022-07-23T10:21:20Z</time>
      </trkpt>
      <trkpt lat="42.7035850" lon="-0.0727410">
        <ele>2058.2</ele>
        <time>2022-07-23T10:21:28Z</time>
      </trkpt>
      <trkpt lat="42.7035830" lon="-0.0727330">
        <ele>2058.4</ele>
        <time>2022-07-23T10:21:29Z</time>
      </trkpt>
      <trkpt lat="42.7035790" lon="-0.0726860">
        <ele>2059.8</ele>
        <time>2022-07-23T10:21:36Z</time>
      </trkpt>
      <trkpt lat="42.7035650" lon="-0.0726710">
        <ele>2060.0</ele>
        <time>2022-07-23T10:21:38Z</time>
      </trkpt>
      <trkpt lat="42.7035030" lon="-0.0726360">
        <ele>2061.4</ele>
        <time>2022-07-23T10:21:48Z</time>
      </trkpt>
      <trkpt lat="42.7034930" lon="-0.0726300">
        <ele>2061.4</ele>
        <time>2022-07-23T10:21:50Z</time>
      </trkpt>
      <trkpt lat="42.7034540" lon="-0.0725720">
        <ele>2062.6</ele>
        <time>2022-07-23T10:21:58Z</time>
      </trkpt>
      <trkpt lat="42.7034460" lon="-0.0725350">
        <ele>2063.2</ele>
        <time>2022-07-23T10:22:02Z</time>
      </trkpt>
      <trkpt lat="42.7034670" lon="-0.0725200">
        <ele>2063.4</ele>
        <time>2022-07-23T10:22:04Z</time>
      </trkpt>
      <trkpt lat="42.7034920" lon="-0.0724850">
        <ele>2064.4</ele>
        <time>2022-07-23T10:22:09Z</time>
      </trkpt>
      <trkpt lat="42.7034990" lon="-0.0724650">
        <ele>2065.0</ele>
        <time>2022-07-23T10:22:11Z</time>
      </trkpt>
      <trkpt lat="42.7034900" lon="-0.0724120">
        <ele>2065.6</ele>
        <time>2022-07-23T10:22:18Z</time>
      </trkpt>
      <trkpt lat="42.7034920" lon="-0.0723980">
        <ele>2066.4</ele>
        <time>2022-07-23T10:22:20Z</time>
      </trkpt>
      <trkpt lat="42.7034910" lon="-0.0723910">
        <ele>2066.6</ele>
        <time>2022-07-23T10:22:21Z</time>
      </trkpt>
      <trkpt lat="42.7034850" lon="-0.0723840">
        <ele>2066.8</ele>
        <time>2022-07-23T10:22:22Z</time>
      </trkpt>
      <trkpt lat="42.7034620" lon="-0.0723530">
        <ele>2067.2</ele>
        <time>2022-07-23T10:22:25Z</time>
      </trkpt>
      <trkpt lat="42.7034300" lon="-0.0722890">
        <ele>2068.6</ele>
        <time>2022-07-23T10:22:32Z</time>
      </trkpt>
      <trkpt lat="42.7034210" lon="-0.0722400">
        <ele>2069.2</ele>
        <time>2022-07-23T10:22:37Z</time>
      </trkpt>
      <trkpt lat="42.7034220" lon="-0.0721990">
        <ele>2069.4</ele>
        <time>2022-07-23T10:22:40Z</time>
      </trkpt>
      <trkpt lat="42.7034310" lon="-0.0721750">
        <ele>2069.8</ele>
        <time>2022-07-23T10:22:42Z</time>
      </trkpt>
      <trkpt lat="42.7034070" lon="-0.0720820">
        <ele>2070.0</ele>
        <time>2022-07-23T10:22:48Z</time>
      </trkpt>
      <trkpt lat="42.7033990" lon="-0.0720320">
        <ele>2070.4</ele>
        <time>2022-07-23T10:22:52Z</time>
      </trkpt>
      <trkpt lat="42.7034010" lon="-0.0720050">
        <ele>2070.6</ele>
        <time>2022-07-23T10:22:54Z</time>
      </trkpt>
      <trkpt lat="42.7034020" lon="-0.0718770">
        <ele>2070.8</ele>
        <time>2022-07-23T10:23:03Z</time>
      </trkpt>
      <trkpt lat="42.7033970" lon="-0.0718500">
        <ele>2071.2</ele>
        <time>2022-07-23T10:23:05Z</time>
      </trkpt>
      <trkpt lat="42.7034480" lon="-0.0717030">
        <ele>2072.2</ele>
        <time>2022-07-23T10:23:16Z</time>
      </trkpt>
      <trkpt lat="42.7034680" lon="-0.0716330">
        <ele>2073.0</ele>
        <time>2022-07-23T10:23:22Z</time>
      </trkpt>
      <trkpt lat="42.7034770" lon="-0.0715940">
        <ele>2074.0</ele>
        <time>2022-07-23T10:23:27Z</time>
      </trkpt>
      <trkpt lat="42.7035050" lon="-0.0715520">
        <ele>2074.8</ele>
        <time>2022-07-23T10:23:32Z</time>
      </trkpt>
      <trkpt lat="42.7035150" lon="-0.0715450">
        <ele>2074.8</ele>
        <time>2022-07-23T10:23:33Z</time>
      </trkpt>
      <trkpt lat="42.7035240" lon="-0.0715390">
        <ele>2074.8</ele>
        <time>2022-07-23T10:23:34Z</time>
      </trkpt>
      <trkpt lat="42.7035530" lon="-0.0715100">
        <ele>2075.6</ele>
        <time>2022-07-23T10:23:38Z</time>
      </trkpt>
      <trkpt lat="42.7035730" lon="-0.0714790">
        <ele>2075.8</ele>
        <time>2022-07-23T10:23:41Z</time>
      </trkpt>
      <trkpt lat="42.7035830" lon="-0.0714590">
        <ele>2076.0</ele>
        <time>2022-07-23T10:23:43Z</time>
      </trkpt>
      <trkpt lat="42.7036040" lon="-0.0714370">
        <ele>2076.6</ele>
        <time>2022-07-23T10:23:45Z</time>
      </trkpt>
      <trkpt lat="42.7036090" lon="-0.0714280">
        <ele>2076.8</ele>
        <time>2022-07-23T10:23:46Z</time>
      </trkpt>
      <trkpt lat="42.7036130" lon="-0.0714000">
        <ele>2077.0</ele>
        <time>2022-07-23T10:23:49Z</time>
      </trkpt>
      <trkpt lat="42.7036200" lon="-0.0713620">
        <ele>2078.0</ele>
        <time>2022-07-23T10:23:53Z</time>
      </trkpt>
      <trkpt lat="42.7036210" lon="-0.0713540">
        <ele>2078.0</ele>
        <time>2022-07-23T10:23:54Z</time>
      </trkpt>
      <trkpt lat="42.7036350" lon="-0.0713370">
        <ele>2078.6</ele>
        <time>2022-07-23T10:23:56Z</time>
      </trkpt>
      <trkpt lat="42.7036380" lon="-0.0713280">
        <ele>2078.8</ele>
        <time>2022-07-23T10:23:57Z</time>
      </trkpt>
      <trkpt lat="42.7036420" lon="-0.0713060">
        <ele>2079.4</ele>
        <time>2022-07-23T10:23:59Z</time>
      </trkpt>
      <trkpt lat="42.7036460" lon="-0.0713000">
        <ele>2079.4</ele>
        <time>2022-07-23T10:24:00Z</time>
      </trkpt>
      <trkpt lat="42.7036500" lon="-0.0712900">
        <ele>2079.8</ele>
        <time>2022-07-23T10:24:02Z</time>
      </trkpt>
      <trkpt lat="42.7036560" lon="-0.0712890">
        <ele>2079.8</ele>
        <time>2022-07-23T10:24:03Z</time>
      </trkpt>
      <trkpt lat="42.7036660" lon="-0.0712830">
        <ele>2080.0</ele>
        <time>2022-07-23T10:24:05Z</time>
      </trkpt>
      <trkpt lat="42.7036970" lon="-0.0712490">
        <ele>2081.0</ele>
        <time>2022-07-23T10:24:10Z</time>
      </trkpt>
      <trkpt lat="42.7037150" lon="-0.0712130">
        <ele>2082.0</ele>
        <time>2022-07-23T10:24:14Z</time>
      </trkpt>
      <trkpt lat="42.7037100" lon="-0.0711730">
        <ele>2082.6</ele>
        <time>2022-07-23T10:24:17Z</time>
      </trkpt>
      <trkpt lat="42.7037110" lon="-0.0711090">
        <ele>2083.2</ele>
        <time>2022-07-23T10:24:22Z</time>
      </trkpt>
      <trkpt lat="42.7037150" lon="-0.0710510">
        <ele>2083.8</ele>
        <time>2022-07-23T10:24:27Z</time>
      </trkpt>
      <trkpt lat="42.7036940" lon="-0.0709710">
        <ele>2084.6</ele>
        <time>2022-07-23T10:24:34Z</time>
      </trkpt>
      <trkpt lat="42.7036830" lon="-0.0709480">
        <ele>2084.6</ele>
        <time>2022-07-23T10:24:36Z</time>
      </trkpt>
      <trkpt lat="42.7036640" lon="-0.0708830">
        <ele>2086.6</ele>
        <time>2022-07-23T10:24:45Z</time>
      </trkpt>
      <trkpt lat="42.7036650" lon="-0.0708790">
        <ele>2086.8</ele>
        <time>2022-07-23T10:24:46Z</time>
      </trkpt>
      <trkpt lat="42.7036790" lon="-0.0708750">
        <ele>2087.0</ele>
        <time>2022-07-23T10:24:48Z</time>
      </trkpt>
      <trkpt lat="42.7036750" lon="-0.0708030">
        <ele>2087.6</ele>
        <time>2022-07-23T10:24:56Z</time>
      </trkpt>
      <trkpt lat="42.7036750" lon="-0.0707950">
        <ele>2088.0</ele>
        <time>2022-07-23T10:24:57Z</time>
      </trkpt>
      <trkpt lat="42.7036760" lon="-0.0707260">
        <ele>2089.6</ele>
        <time>2022-07-23T10:25:04Z</time>
      </trkpt>
      <trkpt lat="42.7037090" lon="-0.0706910">
        <ele>2090.2</ele>
        <time>2022-07-23T10:25:08Z</time>
      </trkpt>
      <trkpt lat="42.7037160" lon="-0.0706830">
        <ele>2090.2</ele>
        <time>2022-07-23T10:25:09Z</time>
      </trkpt>
      <trkpt lat="42.7037200" lon="-0.0706610">
        <ele>2090.4</ele>
        <time>2022-07-23T10:25:12Z</time>
      </trkpt>
      <trkpt lat="42.7036990" lon="-0.0705920">
        <ele>2091.8</ele>
        <time>2022-07-23T10:25:19Z</time>
      </trkpt>
      <trkpt lat="42.7036960" lon="-0.0705810">
        <ele>2092.0</ele>
        <time>2022-07-23T10:25:20Z</time>
      </trkpt>
      <trkpt lat="42.7036880" lon="-0.0705650">
        <ele>2092.4</ele>
        <time>2022-07-23T10:25:21Z</time>
      </trkpt>
      <trkpt lat="42.7036830" lon="-0.0704930">
        <ele>2093.2</ele>
        <time>2022-07-23T10:25:28Z</time>
      </trkpt>
      <trkpt lat="42.7036830" lon="-0.0704700">
        <ele>2093.8</ele>
        <time>2022-07-23T10:25:32Z</time>
      </trkpt>
      <trkpt lat="42.7036830" lon="-0.0704600">
        <ele>2094.0</ele>
        <time>2022-07-23T10:25:33Z</time>
      </trkpt>
      <trkpt lat="42.7036870" lon="-0.0704530">
        <ele>2094.2</ele>
        <time>2022-07-23T10:25:34Z</time>
      </trkpt>
      <trkpt lat="42.7036950" lon="-0.0704450">
        <ele>2094.2</ele>
        <time>2022-07-23T10:25:35Z</time>
      </trkpt>
      <trkpt lat="42.7037280" lon="-0.0703390">
        <ele>2096.2</ele>
        <time>2022-07-23T10:25:45Z</time>
      </trkpt>
      <trkpt lat="42.7037350" lon="-0.0703290">
        <ele>2096.4</ele>
        <time>2022-07-23T10:25:46Z</time>
      </trkpt>
      <trkpt lat="42.7037360" lon="-0.0703020">
        <ele>2096.6</ele>
        <time>2022-07-23T10:25:48Z</time>
      </trkpt>
      <trkpt lat="42.7037340" lon="-0.0702910">
        <ele>2096.6</ele>
        <time>2022-07-23T10:25:49Z</time>
      </trkpt>
      <trkpt lat="42.7037280" lon="-0.0702520">
        <ele>2097.2</ele>
        <time>2022-07-23T10:25:53Z</time>
      </trkpt>
      <trkpt lat="42.7036840" lon="-0.0701820">
        <ele>2098.0</ele>
        <time>2022-07-23T10:26:01Z</time>
      </trkpt>
      <trkpt lat="42.7036700" lon="-0.0701550">
        <ele>2098.8</ele>
        <time>2022-07-23T10:26:04Z</time>
      </trkpt>
      <trkpt lat="42.7036760" lon="-0.0701050">
        <ele>2100.4</ele>
        <time>2022-07-23T10:26:13Z</time>
      </trkpt>
      <trkpt lat="42.7036880" lon="-0.0701070">
        <ele>2100.6</ele>
        <time>2022-07-23T10:26:14Z</time>
      </trkpt>
      <trkpt lat="42.7037020" lon="-0.0700940">
        <ele>2101.2</ele>
        <time>2022-07-23T10:26:19Z</time>
      </trkpt>
      <trkpt lat="42.7037080" lon="-0.0701040">
        <ele>2101.2</ele>
        <time>2022-07-23T10:26:27Z</time>
      </trkpt>
      <trkpt lat="42.7037090" lon="-0.0700920">
        <ele>2101.4</ele>
        <time>2022-07-23T10:26:44Z</time>
      </trkpt>
      <trkpt lat="42.7037140" lon="-0.0701050">
        <ele>2101.4</ele>
        <time>2022-07-23T10:27:01Z</time>
      </trkpt>
      <trkpt lat="42.7037420" lon="-0.0700920">
        <ele>2101.6</ele>
        <time>2022-07-23T10:27:15Z</time>
      </trkpt>
      <trkpt lat="42.7037480" lon="-0.0700590">
        <ele>2101.6</ele>
        <time>2022-07-23T10:27:20Z</time>
      </trkpt>
      <trkpt lat="42.7037470" lon="-0.0700470">
        <ele>2101.8</ele>
        <time>2022-07-23T10:27:23Z</time>
      </trkpt>
      <trkpt lat="42.7037430" lon="-0.0700190">
        <ele>2101.8</ele>
        <time>2022-07-23T10:27:26Z</time>
      </trkpt>
      <trkpt lat="42.7037290" lon="-0.0699690">
        <ele>2103.0</ele>
        <time>2022-07-23T10:27:33Z</time>
      </trkpt>
      <trkpt lat="42.7037360" lon="-0.0699080">
        <ele>2104.2</ele>
        <time>2022-07-23T10:27:40Z</time>
      </trkpt>
      <trkpt lat="42.7037390" lon="-0.0699020">
        <ele>2104.4</ele>
        <time>2022-07-23T10:27:41Z</time>
      </trkpt>
      <trkpt lat="42.7037520" lon="-0.0698870">
        <ele>2105.0</ele>
        <time>2022-07-23T10:27:43Z</time>
      </trkpt>
      <trkpt lat="42.7037570" lon="-0.0698760">
        <ele>2105.2</ele>
        <time>2022-07-23T10:27:44Z</time>
      </trkpt>
      <trkpt lat="42.7037600" lon="-0.0698670">
        <ele>2105.2</ele>
        <time>2022-07-23T10:27:45Z</time>
      </trkpt>
      <trkpt lat="42.7037750" lon="-0.0698340">
        <ele>2105.4</ele>
        <time>2022-07-23T10:27:49Z</time>
      </trkpt>
      <trkpt lat="42.7037850" lon="-0.0698030">
        <ele>2105.8</ele>
        <time>2022-07-23T10:27:52Z</time>
      </trkpt>
      <trkpt lat="42.7037920" lon="-0.0697540">
        <ele>2106.8</ele>
        <time>2022-07-23T10:27:56Z</time>
      </trkpt>
      <trkpt lat="42.7038070" lon="-0.0696060">
        <ele>2108.0</ele>
        <time>2022-07-23T10:28:06Z</time>
      </trkpt>
      <trkpt lat="42.7038020" lon="-0.0695790">
        <ele>2108.0</ele>
        <time>2022-07-23T10:28:08Z</time>
      </trkpt>
      <trkpt lat="42.7037580" lon="-0.0694110">
        <ele>2109.2</ele>
        <time>2022-07-23T10:28:20Z</time>
      </trkpt>
      <trkpt lat="42.7037030" lon="-0.0692340">
        <ele>2110.2</ele>
        <time>2022-07-23T10:28:32Z</time>
      </trkpt>
      <trkpt lat="42.7036960" lon="-0.0692080">
        <ele>2110.6</ele>
        <time>2022-07-23T10:28:35Z</time>
      </trkpt>
      <trkpt lat="42.7036940" lon="-0.0691350">
        <ele>2111.0</ele>
        <time>2022-07-23T10:28:42Z</time>
      </trkpt>
      <trkpt lat="42.7036940" lon="-0.0691250">
        <ele>2111.0</ele>
        <time>2022-07-23T10:28:43Z</time>
      </trkpt>
      <trkpt lat="42.7036560" lon="-0.0690300">
        <ele>2112.4</ele>
        <time>2022-07-23T10:28:52Z</time>
      </trkpt>
      <trkpt lat="42.7036530" lon="-0.0690000">
        <ele>2113.2</ele>
        <time>2022-07-23T10:28:55Z</time>
      </trkpt>
      <trkpt lat="42.7036530" lon="-0.0689930">
        <ele>2113.4</ele>
        <time>2022-07-23T10:28:56Z</time>
      </trkpt>
      <trkpt lat="42.7036740" lon="-0.0689480">
        <ele>2113.8</ele>
        <time>2022-07-23T10:29:01Z</time>
      </trkpt>
      <trkpt lat="42.7036750" lon="-0.0689410">
        <ele>2114.2</ele>
        <time>2022-07-23T10:29:02Z</time>
      </trkpt>
      <trkpt lat="42.7036780" lon="-0.0688740">
        <ele>2115.6</ele>
        <time>2022-07-23T10:29:09Z</time>
      </trkpt>
      <trkpt lat="42.7036680" lon="-0.0688150">
        <ele>2116.8</ele>
        <time>2022-07-23T10:29:16Z</time>
      </trkpt>
      <trkpt lat="42.7036730" lon="-0.0687950">
        <ele>2117.2</ele>
        <time>2022-07-23T10:29:19Z</time>
      </trkpt>
      <trkpt lat="42.7036740" lon="-0.0687840">
        <ele>2117.2</ele>
        <time>2022-07-23T10:29:20Z</time>
      </trkpt>
      <trkpt lat="42.7036700" lon="-0.0687400">
        <ele>2118.0</ele>
        <time>2022-07-23T10:29:25Z</time>
      </trkpt>
      <trkpt lat="42.7036570" lon="-0.0687140">
        <ele>2118.6</ele>
        <time>2022-07-23T10:29:29Z</time>
      </trkpt>
      <trkpt lat="42.7036640" lon="-0.0687010">
        <ele>2118.8</ele>
        <time>2022-07-23T10:29:32Z</time>
      </trkpt>
      <trkpt lat="42.7036630" lon="-0.0686920">
        <ele>2119.0</ele>
        <time>2022-07-23T10:29:33Z</time>
      </trkpt>
      <trkpt lat="42.7036330" lon="-0.0686510">
        <ele>2119.6</ele>
        <time>2022-07-23T10:29:39Z</time>
      </trkpt>
      <trkpt lat="42.7036290" lon="-0.0686380">
        <ele>2119.8</ele>
        <time>2022-07-23T10:29:41Z</time>
      </trkpt>
      <trkpt lat="42.7036120" lon="-0.0685970">
        <ele>2120.2</ele>
        <time>2022-07-23T10:29:47Z</time>
      </trkpt>
      <trkpt lat="42.7036060" lon="-0.0685920">
        <ele>2120.6</ele>
        <time>2022-07-23T10:29:48Z</time>
      </trkpt>
      <trkpt lat="42.7035930" lon="-0.0685830">
        <ele>2120.8</ele>
        <time>2022-07-23T10:29:50Z</time>
      </trkpt>
      <trkpt lat="42.7035890" lon="-0.0685780">
        <ele>2121.2</ele>
        <time>2022-07-23T10:29:51Z</time>
      </trkpt>
      <trkpt lat="42.7035660" lon="-0.0685720">
        <ele>2121.4</ele>
        <time>2022-07-23T10:29:54Z</time>
      </trkpt>
      <trkpt lat="42.7035510" lon="-0.0685480">
        <ele>2122.0</ele>
        <time>2022-07-23T10:29:57Z</time>
      </trkpt>
      <trkpt lat="42.7035390" lon="-0.0685040">
        <ele>2122.6</ele>
        <time>2022-07-23T10:30:01Z</time>
      </trkpt>
      <trkpt lat="42.7035100" lon="-0.0684670">
        <ele>2123.2</ele>
        <time>2022-07-23T10:30:05Z</time>
      </trkpt>
      <trkpt lat="42.7034900" lon="-0.0684380">
        <ele>2123.8</ele>
        <time>2022-07-23T10:30:08Z</time>
      </trkpt>
      <trkpt lat="42.7034830" lon="-0.0684220">
        <ele>2123.8</ele>
        <time>2022-07-23T10:30:10Z</time>
      </trkpt>
      <trkpt lat="42.7034740" lon="-0.0684000">
        <ele>2124.8</ele>
        <time>2022-07-23T10:30:15Z</time>
      </trkpt>
      <trkpt lat="42.7034730" lon="-0.0683930">
        <ele>2125.2</ele>
        <time>2022-07-23T10:30:18Z</time>
      </trkpt>
      <trkpt lat="42.7034730" lon="-0.0683870">
        <ele>2125.6</ele>
        <time>2022-07-23T10:30:19Z</time>
      </trkpt>
      <trkpt lat="42.7034700" lon="-0.0683770">
        <ele>2126.0</ele>
        <time>2022-07-23T10:30:20Z</time>
      </trkpt>
      <trkpt lat="42.7034700" lon="-0.0683680">
        <ele>2126.2</ele>
        <time>2022-07-23T10:30:21Z</time>
      </trkpt>
      <trkpt lat="42.7034730" lon="-0.0683540">
        <ele>2126.4</ele>
        <time>2022-07-23T10:30:23Z</time>
      </trkpt>
      <trkpt lat="42.7034750" lon="-0.0683490">
        <ele>2126.6</ele>
        <time>2022-07-23T10:30:24Z</time>
      </trkpt>
      <trkpt lat="42.7034660" lon="-0.0682690">
        <ele>2128.4</ele>
        <time>2022-07-23T10:30:32Z</time>
      </trkpt>
      <trkpt lat="42.7034520" lon="-0.0682470">
        <ele>2129.0</ele>
        <time>2022-07-23T10:30:35Z</time>
      </trkpt>
      <trkpt lat="42.7034370" lon="-0.0682150">
        <ele>2129.4</ele>
        <time>2022-07-23T10:30:40Z</time>
      </trkpt>
      <trkpt lat="42.7034410" lon="-0.0681670">
        <ele>2130.8</ele>
        <time>2022-07-23T10:30:46Z</time>
      </trkpt>
      <trkpt lat="42.7034390" lon="-0.0681560">
        <ele>2131.0</ele>
        <time>2022-07-23T10:30:47Z</time>
      </trkpt>
      <trkpt lat="42.7034490" lon="-0.0681190">
        <ele>2132.0</ele>
        <time>2022-07-23T10:30:52Z</time>
      </trkpt>
      <trkpt lat="42.7034660" lon="-0.0680890">
        <ele>2132.8</ele>
        <time>2022-07-23T10:30:57Z</time>
      </trkpt>
      <trkpt lat="42.7034810" lon="-0.0680400">
        <ele>2134.2</ele>
        <time>2022-07-23T10:31:03Z</time>
      </trkpt>
      <trkpt lat="42.7034720" lon="-0.0680150">
        <ele>2135.0</ele>
        <time>2022-07-23T10:31:08Z</time>
      </trkpt>
      <trkpt lat="42.7034740" lon="-0.0679900">
        <ele>2135.4</ele>
        <time>2022-07-23T10:31:12Z</time>
      </trkpt>
      <trkpt lat="42.7034750" lon="-0.0679710">
        <ele>2135.4</ele>
        <time>2022-07-23T10:31:14Z</time>
      </trkpt>
      <trkpt lat="42.7034730" lon="-0.0679420">
        <ele>2136.0</ele>
        <time>2022-07-23T10:31:17Z</time>
      </trkpt>
      <trkpt lat="42.7034700" lon="-0.0679310">
        <ele>2136.0</ele>
        <time>2022-07-23T10:31:18Z</time>
      </trkpt>
      <trkpt lat="42.7034710" lon="-0.0678910">
        <ele>2136.4</ele>
        <time>2022-07-23T10:31:22Z</time>
      </trkpt>
      <trkpt lat="42.7034700" lon="-0.0678840">
        <ele>2136.6</ele>
        <time>2022-07-23T10:31:23Z</time>
      </trkpt>
      <trkpt lat="42.7034680" lon="-0.0678800">
        <ele>2136.6</ele>
        <time>2022-07-23T10:31:24Z</time>
      </trkpt>
      <trkpt lat="42.7034520" lon="-0.0678730">
        <ele>2137.0</ele>
        <time>2022-07-23T10:31:27Z</time>
      </trkpt>
      <trkpt lat="42.7034500" lon="-0.0678690">
        <ele>2137.4</ele>
        <time>2022-07-23T10:31:28Z</time>
      </trkpt>
      <trkpt lat="42.7034360" lon="-0.0678440">
        <ele>2138.2</ele>
        <time>2022-07-23T10:31:34Z</time>
      </trkpt>
      <trkpt lat="42.7034240" lon="-0.0678430">
        <ele>2138.8</ele>
        <time>2022-07-23T10:31:38Z</time>
      </trkpt>
      <trkpt lat="42.7034520" lon="-0.0678270">
        <ele>2139.8</ele>
        <time>2022-07-23T10:31:46Z</time>
      </trkpt>
      <trkpt lat="42.7034590" lon="-0.0678220">
        <ele>2139.8</ele>
        <time>2022-07-23T10:31:48Z</time>
      </trkpt>
      <trkpt lat="42.7034340" lon="-0.0677940">
        <ele>2141.4</ele>
        <time>2022-07-23T10:31:56Z</time>
      </trkpt>
      <trkpt lat="42.7034370" lon="-0.0677870">
        <ele>2141.6</ele>
        <time>2022-07-23T10:31:57Z</time>
      </trkpt>
      <trkpt lat="42.7034360" lon="-0.0677200">
        <ele>2143.0</ele>
        <time>2022-07-23T10:32:04Z</time>
      </trkpt>
      <trkpt lat="42.7034650" lon="-0.0676940">
        <ele>2143.8</ele>
        <time>2022-07-23T10:32:09Z</time>
      </trkpt>
      <trkpt lat="42.7034710" lon="-0.0676750">
        <ele>2144.0</ele>
        <time>2022-07-23T10:32:11Z</time>
      </trkpt>
      <trkpt lat="42.7034700" lon="-0.0676670">
        <ele>2144.2</ele>
        <time>2022-07-23T10:32:12Z</time>
      </trkpt>
      <trkpt lat="42.7034510" lon="-0.0676620">
        <ele>2144.6</ele>
        <time>2022-07-23T10:32:13Z</time>
      </trkpt>
      <trkpt lat="42.7035090" lon="-0.0676680">
        <ele>2146.6</ele>
        <time>2022-07-23T10:32:22Z</time>
      </trkpt>
      <trkpt lat="42.7034920" lon="-0.0676490">
        <ele>2147.4</ele>
        <time>2022-07-23T10:32:25Z</time>
      </trkpt>
      <trkpt lat="42.7034720" lon="-0.0676460">
        <ele>2147.4</ele>
        <time>2022-07-23T10:32:27Z</time>
      </trkpt>
      <trkpt lat="42.7034640" lon="-0.0676430">
        <ele>2147.4</ele>
        <time>2022-07-23T10:32:28Z</time>
      </trkpt>
      <trkpt lat="42.7034620" lon="-0.0676380">
        <ele>2147.6</ele>
        <time>2022-07-23T10:32:29Z</time>
      </trkpt>
      <trkpt lat="42.7034480" lon="-0.0676160">
        <ele>2148.0</ele>
        <time>2022-07-23T10:32:33Z</time>
      </trkpt>
      <trkpt lat="42.7034420" lon="-0.0675970">
        <ele>2148.4</ele>
        <time>2022-07-23T10:32:36Z</time>
      </trkpt>
      <trkpt lat="42.7034750" lon="-0.0675530">
        <ele>2150.2</ele>
        <time>2022-07-23T10:32:44Z</time>
      </trkpt>
      <trkpt lat="42.7034490" lon="-0.0674980">
        <ele>2152.0</ele>
        <time>2022-07-23T10:32:54Z</time>
      </trkpt>
      <trkpt lat="42.7034490" lon="-0.0674930">
        <ele>2152.2</ele>
        <time>2022-07-23T10:32:55Z</time>
      </trkpt>
      <trkpt lat="42.7034390" lon="-0.0674760">
        <ele>2152.4</ele>
        <time>2022-07-23T10:32:58Z</time>
      </trkpt>
      <trkpt lat="42.7034400" lon="-0.0674670">
        <ele>2152.6</ele>
        <time>2022-07-23T10:32:59Z</time>
      </trkpt>
      <trkpt lat="42.7034410" lon="-0.0674590">
        <ele>2152.6</ele>
        <time>2022-07-23T10:33:00Z</time>
      </trkpt>
      <trkpt lat="42.7034520" lon="-0.0674180">
        <ele>2153.4</ele>
        <time>2022-07-23T10:33:07Z</time>
      </trkpt>
      <trkpt lat="42.7034600" lon="-0.0674180">
        <ele>2153.8</ele>
        <time>2022-07-23T10:33:08Z</time>
      </trkpt>
      <trkpt lat="42.7034860" lon="-0.0673840">
        <ele>2154.6</ele>
        <time>2022-07-23T10:33:13Z</time>
      </trkpt>
      <trkpt lat="42.7034890" lon="-0.0673780">
        <ele>2155.2</ele>
        <time>2022-07-23T10:33:14Z</time>
      </trkpt>
      <trkpt lat="42.7034890" lon="-0.0673710">
        <ele>2155.6</ele>
        <time>2022-07-23T10:33:15Z</time>
      </trkpt>
      <trkpt lat="42.7034950" lon="-0.0673510">
        <ele>2156.0</ele>
        <time>2022-07-23T10:33:19Z</time>
      </trkpt>
      <trkpt lat="42.7034890" lon="-0.0673410">
        <ele>2156.2</ele>
        <time>2022-07-23T10:33:22Z</time>
      </trkpt>
      <trkpt lat="42.7034810" lon="-0.0673260">
        <ele>2157.2</ele>
        <time>2022-07-23T10:33:28Z</time>
      </trkpt>
      <trkpt lat="42.7034590" lon="-0.0673010">
        <ele>2159.2</ele>
        <time>2022-07-23T10:33:34Z</time>
      </trkpt>
      <trkpt lat="42.7034470" lon="-0.0672930">
        <ele>2159.6</ele>
        <time>2022-07-23T10:33:37Z</time>
      </trkpt>
      <trkpt lat="42.7034460" lon="-0.0672840">
        <ele>2160.0</ele>
        <time>2022-07-23T10:33:38Z</time>
      </trkpt>
      <trkpt lat="42.7034440" lon="-0.0672760">
        <ele>2160.4</ele>
        <time>2022-07-23T10:33:39Z</time>
      </trkpt>
      <trkpt lat="42.7034390" lon="-0.0672700">
        <ele>2160.4</ele>
        <time>2022-07-23T10:33:40Z</time>
      </trkpt>
      <trkpt lat="42.7034070" lon="-0.0672530">
        <ele>2160.8</ele>
        <time>2022-07-23T10:33:43Z</time>
      </trkpt>
      <trkpt lat="42.7033890" lon="-0.0672360">
        <ele>2161.2</ele>
        <time>2022-07-23T10:33:46Z</time>
      </trkpt>
      <trkpt lat="42.7033680" lon="-0.0671730">
        <ele>2162.8</ele>
        <time>2022-07-23T10:33:54Z</time>
      </trkpt>
      <trkpt lat="42.7033660" lon="-0.0671650">
        <ele>2163.0</ele>
        <time>2022-07-23T10:33:56Z</time>
      </trkpt>
      <trkpt lat="42.7033530" lon="-0.0671410">
        <ele>2163.4</ele>
        <time>2022-07-23T10:34:01Z</time>
      </trkpt>
      <trkpt lat="42.7033840" lon="-0.0671140">
        <ele>2164.6</ele>
        <time>2022-07-23T10:34:07Z</time>
      </trkpt>
      <trkpt lat="42.7033900" lon="-0.0671070">
        <ele>2164.6</ele>
        <time>2022-07-23T10:34:08Z</time>
      </trkpt>
      <trkpt lat="42.7034150" lon="-0.0670850">
        <ele>2166.4</ele>
        <time>2022-07-23T10:34:14Z</time>
      </trkpt>
      <trkpt lat="42.7034280" lon="-0.0670640">
        <ele>2167.4</ele>
        <time>2022-07-23T10:34:19Z</time>
      </trkpt>
      <trkpt lat="42.7034270" lon="-0.0670620">
        <ele>2167.8</ele>
        <time>2022-07-23T10:34:22Z</time>
      </trkpt>
      <trkpt lat="42.7034020" lon="-0.0670470">
        <ele>2168.4</ele>
        <time>2022-07-23T10:34:29Z</time>
      </trkpt>
      <trkpt lat="42.7033900" lon="-0.0670410">
        <ele>2168.6</ele>
        <time>2022-07-23T10:34:30Z</time>
      </trkpt>
      <trkpt lat="42.7033480" lon="-0.0670270">
        <ele>2169.8</ele>
        <time>2022-07-23T10:34:36Z</time>
      </trkpt>
      <trkpt lat="42.7033310" lon="-0.0670070">
        <ele>2170.0</ele>
        <time>2022-07-23T10:34:40Z</time>
      </trkpt>
      <trkpt lat="42.7033400" lon="-0.0669790">
        <ele>2171.0</ele>
        <time>2022-07-23T10:34:45Z</time>
      </trkpt>
      <trkpt lat="42.7033520" lon="-0.0669540">
        <ele>2172.4</ele>
        <time>2022-07-23T10:34:49Z</time>
      </trkpt>
      <trkpt lat="42.7033410" lon="-0.0669300">
        <ele>2173.4</ele>
        <time>2022-07-23T10:34:52Z</time>
      </trkpt>
      <trkpt lat="42.7033360" lon="-0.0669140">
        <ele>2173.8</ele>
        <time>2022-07-23T10:34:54Z</time>
      </trkpt>
      <trkpt lat="42.7033370" lon="-0.0669010">
        <ele>2174.2</ele>
        <time>2022-07-23T10:34:56Z</time>
      </trkpt>
      <trkpt lat="42.7033400" lon="-0.0668700">
        <ele>2175.0</ele>
        <time>2022-07-23T10:35:01Z</time>
      </trkpt>
      <trkpt lat="42.7033350" lon="-0.0668370">
        <ele>2176.4</ele>
        <time>2022-07-23T10:35:06Z</time>
      </trkpt>
      <trkpt lat="42.7033220" lon="-0.0667850">
        <ele>2177.2</ele>
        <time>2022-07-23T10:35:13Z</time>
      </trkpt>
      <trkpt lat="42.7033180" lon="-0.0667830">
        <ele>2177.4</ele>
        <time>2022-07-23T10:35:14Z</time>
      </trkpt>
      <trkpt lat="42.7033120" lon="-0.0667650">
        <ele>2178.0</ele>
        <time>2022-07-23T10:35:17Z</time>
      </trkpt>
      <trkpt lat="42.7033220" lon="-0.0666900">
        <ele>2179.2</ele>
        <time>2022-07-23T10:35:25Z</time>
      </trkpt>
      <trkpt lat="42.7033190" lon="-0.0666810">
        <ele>2179.6</ele>
        <time>2022-07-23T10:35:26Z</time>
      </trkpt>
      <trkpt lat="42.7033170" lon="-0.0666670">
        <ele>2179.6</ele>
        <time>2022-07-23T10:35:27Z</time>
      </trkpt>
      <trkpt lat="42.7033360" lon="-0.0666240">
        <ele>2180.2</ele>
        <time>2022-07-23T10:35:32Z</time>
      </trkpt>
      <trkpt lat="42.7033370" lon="-0.0666070">
        <ele>2180.8</ele>
        <time>2022-07-23T10:35:35Z</time>
      </trkpt>
      <trkpt lat="42.7033380" lon="-0.0666010">
        <ele>2181.0</ele>
        <time>2022-07-23T10:35:36Z</time>
      </trkpt>
      <trkpt lat="42.7033380" lon="-0.0665960">
        <ele>2181.2</ele>
        <time>2022-07-23T10:35:37Z</time>
      </trkpt>
      <trkpt lat="42.7033350" lon="-0.0665850">
        <ele>2181.4</ele>
        <time>2022-07-23T10:35:39Z</time>
      </trkpt>
      <trkpt lat="42.7033290" lon="-0.0665630">
        <ele>2182.2</ele>
        <time>2022-07-23T10:35:43Z</time>
      </trkpt>
      <trkpt lat="42.7033470" lon="-0.0665540">
        <ele>2183.0</ele>
        <time>2022-07-23T10:35:47Z</time>
      </trkpt>
      <trkpt lat="42.7033470" lon="-0.0665520">
        <ele>2183.4</ele>
        <time>2022-07-23T10:35:48Z</time>
      </trkpt>
      <trkpt lat="42.7033470" lon="-0.0665510">
        <ele>2183.6</ele>
        <time>2022-07-23T10:35:49Z</time>
      </trkpt>
      <trkpt lat="42.7033400" lon="-0.0665570">
        <ele>2184.8</ele>
        <time>2022-07-23T10:35:59Z</time>
      </trkpt>
      <trkpt lat="42.7033350" lon="-0.0665570">
        <ele>2185.0</ele>
        <time>2022-07-23T10:36:00Z</time>
      </trkpt>
      <trkpt lat="42.7033150" lon="-0.0665420">
        <ele>2184.8</ele>
        <time>2022-07-23T10:36:03Z</time>
      </trkpt>
      <trkpt lat="42.7033040" lon="-0.0665180">
        <ele>2185.0</ele>
        <time>2022-07-23T10:36:07Z</time>
      </trkpt>
      <trkpt lat="42.7033140" lon="-0.0664900">
        <ele>2185.2</ele>
        <time>2022-07-23T10:36:11Z</time>
      </trkpt>
      <trkpt lat="42.7033000" lon="-0.0664540">
        <ele>2186.0</ele>
        <time>2022-07-23T10:36:17Z</time>
      </trkpt>
      <trkpt lat="42.7033060" lon="-0.0664420">
        <ele>2186.4</ele>
        <time>2022-07-23T10:36:18Z</time>
      </trkpt>
      <trkpt lat="42.7032990" lon="-0.0663520">
        <ele>2188.2</ele>
        <time>2022-07-23T10:36:27Z</time>
      </trkpt>
      <trkpt lat="42.7032980" lon="-0.0663430">
        <ele>2188.2</ele>
        <time>2022-07-23T10:36:28Z</time>
      </trkpt>
      <trkpt lat="42.7032840" lon="-0.0662430">
        <ele>2189.4</ele>
        <time>2022-07-23T10:36:38Z</time>
      </trkpt>
      <trkpt lat="42.7032750" lon="-0.0662010">
        <ele>2189.8</ele>
        <time>2022-07-23T10:36:42Z</time>
      </trkpt>
      <trkpt lat="42.7032770" lon="-0.0661900">
        <ele>2190.0</ele>
        <time>2022-07-23T10:36:43Z</time>
      </trkpt>
      <trkpt lat="42.7032570" lon="-0.0661270">
        <ele>2192.2</ele>
        <time>2022-07-23T10:36:53Z</time>
      </trkpt>
      <trkpt lat="42.7032550" lon="-0.0661160">
        <ele>2192.2</ele>
        <time>2022-07-23T10:36:54Z</time>
      </trkpt>
      <trkpt lat="42.7032360" lon="-0.0660790">
        <ele>2193.2</ele>
        <time>2022-07-23T10:37:00Z</time>
      </trkpt>
      <trkpt lat="42.7032280" lon="-0.0660520">
        <ele>2194.4</ele>
        <time>2022-07-23T10:37:06Z</time>
      </trkpt>
      <trkpt lat="42.7032230" lon="-0.0660210">
        <ele>2195.2</ele>
        <time>2022-07-23T10:37:11Z</time>
      </trkpt>
      <trkpt lat="42.7032340" lon="-0.0659930">
        <ele>2196.2</ele>
        <time>2022-07-23T10:37:16Z</time>
      </trkpt>
      <trkpt lat="42.7032260" lon="-0.0659770">
        <ele>2196.4</ele>
        <time>2022-07-23T10:37:18Z</time>
      </trkpt>
      <trkpt lat="42.7032300" lon="-0.0659660">
        <ele>2196.6</ele>
        <time>2022-07-23T10:37:20Z</time>
      </trkpt>
      <trkpt lat="42.7032310" lon="-0.0659570">
        <ele>2196.6</ele>
        <time>2022-07-23T10:37:21Z</time>
      </trkpt>
      <trkpt lat="42.7032430" lon="-0.0659070">
        <ele>2198.6</ele>
        <time>2022-07-23T10:37:29Z</time>
      </trkpt>
      <trkpt lat="42.7032480" lon="-0.0658890">
        <ele>2199.2</ele>
        <time>2022-07-23T10:37:32Z</time>
      </trkpt>
      <trkpt lat="42.7032480" lon="-0.0658720">
        <ele>2199.4</ele>
        <time>2022-07-23T10:37:35Z</time>
      </trkpt>
      <trkpt lat="42.7032890" lon="-0.0658420">
        <ele>2201.0</ele>
        <time>2022-07-23T10:37:43Z</time>
      </trkpt>
      <trkpt lat="42.7032930" lon="-0.0658390">
        <ele>2201.0</ele>
        <time>2022-07-23T10:37:44Z</time>
      </trkpt>
      <trkpt lat="42.7033000" lon="-0.0658340">
        <ele>2201.2</ele>
        <time>2022-07-23T10:37:45Z</time>
      </trkpt>
      <trkpt lat="42.7033480" lon="-0.0657730">
        <ele>2201.4</ele>
        <time>2022-07-23T10:37:52Z</time>
      </trkpt>
      <trkpt lat="42.7033440" lon="-0.0657160">
        <ele>2201.8</ele>
        <time>2022-07-23T10:37:56Z</time>
      </trkpt>
      <trkpt lat="42.7033350" lon="-0.0656700">
        <ele>2202.2</ele>
        <time>2022-07-23T10:38:01Z</time>
      </trkpt>
      <trkpt lat="42.7032840" lon="-0.0656790">
        <ele>2203.6</ele>
        <time>2022-07-23T10:38:07Z</time>
      </trkpt>
      <trkpt lat="42.7032690" lon="-0.0656830">
        <ele>2204.0</ele>
        <time>2022-07-23T10:38:11Z</time>
      </trkpt>
      <trkpt lat="42.7032720" lon="-0.0656620">
        <ele>2204.4</ele>
        <time>2022-07-23T10:38:16Z</time>
      </trkpt>
      <trkpt lat="42.7032760" lon="-0.0656530">
        <ele>2204.6</ele>
        <time>2022-07-23T10:38:17Z</time>
      </trkpt>
      <trkpt lat="42.7032730" lon="-0.0656410">
        <ele>2205.0</ele>
        <time>2022-07-23T10:38:19Z</time>
      </trkpt>
      <trkpt lat="42.7032710" lon="-0.0655850">
        <ele>2206.6</ele>
        <time>2022-07-23T10:38:26Z</time>
      </trkpt>
      <trkpt lat="42.7032720" lon="-0.0655780">
        <ele>2206.8</ele>
        <time>2022-07-23T10:38:27Z</time>
      </trkpt>
      <trkpt lat="42.7032740" lon="-0.0655760">
        <ele>2207.2</ele>
        <time>2022-07-23T10:38:28Z</time>
      </trkpt>
      <trkpt lat="42.7032780" lon="-0.0655640">
        <ele>2207.6</ele>
        <time>2022-07-23T10:38:30Z</time>
      </trkpt>
      <trkpt lat="42.7032980" lon="-0.0655260">
        <ele>2208.2</ele>
        <time>2022-07-23T10:38:35Z</time>
      </trkpt>
      <trkpt lat="42.7033290" lon="-0.0655130">
        <ele>2209.4</ele>
        <time>2022-07-23T10:38:40Z</time>
      </trkpt>
      <trkpt lat="42.7033340" lon="-0.0655140">
        <ele>2209.6</ele>
        <time>2022-07-23T10:38:41Z</time>
      </trkpt>
      <trkpt lat="42.7033680" lon="-0.0654990">
        <ele>2210.4</ele>
        <time>2022-07-23T10:38:46Z</time>
      </trkpt>
      <trkpt lat="42.7033770" lon="-0.0654860">
        <ele>2210.8</ele>
        <time>2022-07-23T10:38:48Z</time>
      </trkpt>
      <trkpt lat="42.7033840" lon="-0.0654600">
        <ele>2211.6</ele>
        <time>2022-07-23T10:38:51Z</time>
      </trkpt>
      <trkpt lat="42.7033870" lon="-0.0654500">
        <ele>2211.6</ele>
        <time>2022-07-23T10:38:52Z</time>
      </trkpt>
      <trkpt lat="42.7033970" lon="-0.0654190">
        <ele>2212.0</ele>
        <time>2022-07-23T10:38:55Z</time>
      </trkpt>
      <trkpt lat="42.7034040" lon="-0.0653830">
        <ele>2213.2</ele>
        <time>2022-07-23T10:38:59Z</time>
      </trkpt>
      <trkpt lat="42.7034110" lon="-0.0653420">
        <ele>2213.8</ele>
        <time>2022-07-23T10:39:03Z</time>
      </trkpt>
      <trkpt lat="42.7034320" lon="-0.0653080">
        <ele>2214.2</ele>
        <time>2022-07-23T10:39:06Z</time>
      </trkpt>
      <trkpt lat="42.7034560" lon="-0.0652930">
        <ele>2215.0</ele>
        <time>2022-07-23T10:39:09Z</time>
      </trkpt>
      <trkpt lat="42.7034830" lon="-0.0652730">
        <ele>2215.6</ele>
        <time>2022-07-23T10:39:13Z</time>
      </trkpt>
      <trkpt lat="42.7035140" lon="-0.0652440">
        <ele>2216.4</ele>
        <time>2022-07-23T10:39:18Z</time>
      </trkpt>
      <trkpt lat="42.7035310" lon="-0.0652190">
        <ele>2217.4</ele>
        <time>2022-07-23T10:39:21Z</time>
      </trkpt>
      <trkpt lat="42.7035500" lon="-0.0651690">
        <ele>2218.8</ele>
        <time>2022-07-23T10:39:27Z</time>
      </trkpt>
      <trkpt lat="42.7035580" lon="-0.0651480">
        <ele>2219.6</ele>
        <time>2022-07-23T10:39:30Z</time>
      </trkpt>
      <trkpt lat="42.7035720" lon="-0.0651140">
        <ele>2220.6</ele>
        <time>2022-07-23T10:39:35Z</time>
      </trkpt>
      <trkpt lat="42.7035750" lon="-0.0650970">
        <ele>2220.8</ele>
        <time>2022-07-23T10:39:37Z</time>
      </trkpt>
      <trkpt lat="42.7035760" lon="-0.0650900">
        <ele>2221.0</ele>
        <time>2022-07-23T10:39:38Z</time>
      </trkpt>
      <trkpt lat="42.7035820" lon="-0.0650730">
        <ele>2221.2</ele>
        <time>2022-07-23T10:39:40Z</time>
      </trkpt>
      <trkpt lat="42.7035900" lon="-0.0650390">
        <ele>2222.0</ele>
        <time>2022-07-23T10:39:43Z</time>
      </trkpt>
      <trkpt lat="42.7036560" lon="-0.0649370">
        <ele>2223.6</ele>
        <time>2022-07-23T10:39:53Z</time>
      </trkpt>
      <trkpt lat="42.7037150" lon="-0.0648820">
        <ele>2224.2</ele>
        <time>2022-07-23T10:40:00Z</time>
      </trkpt>
      <trkpt lat="42.7037410" lon="-0.0648500">
        <ele>2224.4</ele>
        <time>2022-07-23T10:40:04Z</time>
      </trkpt>
      <trkpt lat="42.7037510" lon="-0.0648440">
        <ele>2225.0</ele>
        <time>2022-07-23T10:40:07Z</time>
      </trkpt>
      <trkpt lat="42.7037710" lon="-0.0648700">
        <ele>2225.8</ele>
        <time>2022-07-23T10:40:12Z</time>
      </trkpt>
      <trkpt lat="42.7037910" lon="-0.0648540">
        <ele>2227.0</ele>
        <time>2022-07-23T10:40:17Z</time>
      </trkpt>
      <trkpt lat="42.7037960" lon="-0.0648460">
        <ele>2227.4</ele>
        <time>2022-07-23T10:40:18Z</time>
      </trkpt>
      <trkpt lat="42.7038030" lon="-0.0648370">
        <ele>2227.6</ele>
        <time>2022-07-23T10:40:19Z</time>
      </trkpt>
      <trkpt lat="42.7038210" lon="-0.0648150">
        <ele>2228.6</ele>
        <time>2022-07-23T10:40:23Z</time>
      </trkpt>
      <trkpt lat="42.7038380" lon="-0.0647690">
        <ele>2229.8</ele>
        <time>2022-07-23T10:40:29Z</time>
      </trkpt>
      <trkpt lat="42.7038560" lon="-0.0647390">
        <ele>2230.4</ele>
        <time>2022-07-23T10:40:32Z</time>
      </trkpt>
      <trkpt lat="42.7038740" lon="-0.0646790">
        <ele>2231.4</ele>
        <time>2022-07-23T10:40:39Z</time>
      </trkpt>
      <trkpt lat="42.7038680" lon="-0.0646590">
        <ele>2231.6</ele>
        <time>2022-07-23T10:40:41Z</time>
      </trkpt>
      <trkpt lat="42.7038670" lon="-0.0646540">
        <ele>2231.8</ele>
        <time>2022-07-23T10:40:46Z</time>
      </trkpt>
      <trkpt lat="42.7038590" lon="-0.0646950">
        <ele>2232.2</ele>
        <time>2022-07-23T10:40:50Z</time>
      </trkpt>
      <trkpt lat="42.7038760" lon="-0.0646550">
        <ele>2232.6</ele>
        <time>2022-07-23T10:41:00Z</time>
      </trkpt>
      <trkpt lat="42.7038520" lon="-0.0645940">
        <ele>2232.6</ele>
        <time>2022-07-23T10:41:05Z</time>
      </trkpt>
      <trkpt lat="42.7038470" lon="-0.0645620">
        <ele>2232.6</ele>
        <time>2022-07-23T10:41:08Z</time>
      </trkpt>
      <trkpt lat="42.7038610" lon="-0.0645230">
        <ele>2232.6</ele>
        <time>2022-07-23T10:41:12Z</time>
      </trkpt>
      <trkpt lat="42.7038720" lon="-0.0644350">
        <ele>2233.4</ele>
        <time>2022-07-23T10:41:19Z</time>
      </trkpt>
      <trkpt lat="42.7038830" lon="-0.0643460">
        <ele>2234.2</ele>
        <time>2022-07-23T10:41:27Z</time>
      </trkpt>
      <trkpt lat="42.7039110" lon="-0.0642300">
        <ele>2234.8</ele>
        <time>2022-07-23T10:41:39Z</time>
      </trkpt>
      <trkpt lat="42.7039470" lon="-0.0642160">
        <ele>2233.6</ele>
        <time>2022-07-23T10:41:52Z</time>
      </trkpt>
      <trkpt lat="42.7039240" lon="-0.0642220">
        <ele>2233.6</ele>
        <time>2022-07-23T10:41:57Z</time>
      </trkpt>
      <trkpt lat="42.7039230" lon="-0.0642220">
        <ele>2233.6</ele>
        <time>2022-07-23T10:42:00Z</time>
      </trkpt>
      <trkpt lat="42.7039260" lon="-0.0642240">
        <ele>2233.6</ele>
        <time>2022-07-23T10:42:01Z</time>
      </trkpt>
      <trkpt lat="42.7039170" lon="-0.0642580">
        <ele>2233.6</ele>
        <time>2022-07-23T10:42:05Z</time>
      </trkpt>
      <trkpt lat="42.7039260" lon="-0.0642730">
        <ele>2233.6</ele>
        <time>2022-07-23T10:42:09Z</time>
      </trkpt>
      <trkpt lat="42.7039330" lon="-0.0642590">
        <ele>2233.6</ele>
        <time>2022-07-23T10:42:14Z</time>
      </trkpt>
      <trkpt lat="42.7039370" lon="-0.0642530">
        <ele>2234.2</ele>
        <time>2022-07-23T10:42:32Z</time>
      </trkpt>
      <trkpt lat="42.7039390" lon="-0.0642550">
        <ele>2233.8</ele>
        <time>2022-07-23T10:42:38Z</time>
      </trkpt>
      <trkpt lat="42.7039230" lon="-0.0642540">
        <ele>2233.2</ele>
        <time>2022-07-23T10:42:47Z</time>
      </trkpt>
      <trkpt lat="42.7039190" lon="-0.0642540">
        <ele>2233.2</ele>
        <time>2022-07-23T10:42:48Z</time>
      </trkpt>
      <trkpt lat="42.7039360" lon="-0.0642550">
        <ele>2233.0</ele>
        <time>2022-07-23T10:42:56Z</time>
      </trkpt>
      <trkpt lat="42.7039360" lon="-0.0642520">
        <ele>2232.8</ele>
        <time>2022-07-23T10:43:01Z</time>
      </trkpt>
      <trkpt lat="42.7039350" lon="-0.0642280">
        <ele>2233.6</ele>
        <time>2022-07-23T10:43:18Z</time>
      </trkpt>
      <trkpt lat="42.7039450" lon="-0.0642330">
        <ele>2233.6</ele>
        <time>2022-07-23T10:43:30Z</time>
      </trkpt>
      <trkpt lat="42.7039460" lon="-0.0642210">
        <ele>2233.8</ele>
        <time>2022-07-23T10:43:35Z</time>
      </trkpt>
      <trkpt lat="42.7039500" lon="-0.0642210">
        <ele>2233.6</ele>
        <time>2022-07-23T10:43:39Z</time>
      </trkpt>
      <trkpt lat="42.7039460" lon="-0.0642200">
        <ele>2233.2</ele>
        <time>2022-07-23T10:43:41Z</time>
      </trkpt>
      <trkpt lat="42.7039340" lon="-0.0642180">
        <ele>2233.0</ele>
        <time>2022-07-23T10:43:47Z</time>
      </trkpt>
      <trkpt lat="42.7039300" lon="-0.0642160">
        <ele>2233.2</ele>
        <time>2022-07-23T10:43:48Z</time>
      </trkpt>
      <trkpt lat="42.7039270" lon="-0.0642160">
        <ele>2233.4</ele>
        <time>2022-07-23T10:43:50Z</time>
      </trkpt>
      <trkpt lat="42.7039490" lon="-0.0642390">
        <ele>2234.4</ele>
        <time>2022-07-23T10:44:03Z</time>
      </trkpt>
      <trkpt lat="42.7039550" lon="-0.0642360">
        <ele>2234.6</ele>
        <time>2022-07-23T10:44:20Z</time>
      </trkpt>
      <trkpt lat="42.7039520" lon="-0.0642360">
        <ele>2234.4</ele>
        <time>2022-07-23T10:44:48Z</time>
      </trkpt>
      <trkpt lat="42.7039510" lon="-0.0642360">
        <ele>2234.6</ele>
        <time>2022-07-23T10:44:50Z</time>
      </trkpt>
      <trkpt lat="42.7039500" lon="-0.0642380">
        <ele>2234.4</ele>
        <time>2022-07-23T10:44:51Z</time>
      </trkpt>
      <trkpt lat="42.7039500" lon="-0.0642390">
        <ele>2234.4</ele>
        <time>2022-07-23T10:44:52Z</time>
      </trkpt>
      <trkpt lat="42.7039490" lon="-0.0642400">
        <ele>2234.6</ele>
        <time>2022-07-23T10:44:53Z</time>
      </trkpt>
      <trkpt lat="42.7039610" lon="-0.0642480">
        <ele>2234.2</ele>
        <time>2022-07-23T10:44:56Z</time>
      </trkpt>
      <trkpt lat="42.7039620" lon="-0.0642440">
        <ele>2234.2</ele>
        <time>2022-07-23T10:45:02Z</time>
      </trkpt>
      <trkpt lat="42.7039620" lon="-0.0642430">
        <ele>2234.2</ele>
        <time>2022-07-23T10:45:05Z</time>
      </trkpt>
      <trkpt lat="42.7039340" lon="-0.0642440">
        <ele>2234.4</ele>
        <time>2022-07-23T10:45:13Z</time>
      </trkpt>
      <trkpt lat="42.7039350" lon="-0.0642450">
        <ele>2234.2</ele>
        <time>2022-07-23T10:45:14Z</time>
      </trkpt>
      <trkpt lat="42.7039330" lon="-0.0642480">
        <ele>2234.2</ele>
        <time>2022-07-23T10:45:19Z</time>
      </trkpt>
      <trkpt lat="42.7039350" lon="-0.0642480">
        <ele>2234.4</ele>
        <time>2022-07-23T10:45:20Z</time>
      </trkpt>
      <trkpt lat="42.7039550" lon="-0.0642500">
        <ele>2233.6</ele>
        <time>2022-07-23T10:45:27Z</time>
      </trkpt>
      <trkpt lat="42.7039580" lon="-0.0642500">
        <ele>2233.6</ele>
        <time>2022-07-23T10:45:28Z</time>
      </trkpt>
      <trkpt lat="42.7039560" lon="-0.0642490">
        <ele>2233.0</ele>
        <time>2022-07-23T10:45:37Z</time>
      </trkpt>
      <trkpt lat="42.7039620" lon="-0.0642340">
        <ele>2233.4</ele>
        <time>2022-07-23T10:45:43Z</time>
      </trkpt>
      <trkpt lat="42.7039750" lon="-0.0641900">
        <ele>2234.2</ele>
        <time>2022-07-23T10:45:46Z</time>
      </trkpt>
      <trkpt lat="42.7039810" lon="-0.0641160">
        <ele>2234.0</ele>
        <time>2022-07-23T10:45:50Z</time>
      </trkpt>
      <trkpt lat="42.7039820" lon="-0.0640980">
        <ele>2234.2</ele>
        <time>2022-07-23T10:45:51Z</time>
      </trkpt>
      <trkpt lat="42.7040110" lon="-0.0638620">
        <ele>2232.8</ele>
        <time>2022-07-23T10:46:04Z</time>
      </trkpt>
      <trkpt lat="42.7040150" lon="-0.0638350">
        <ele>2232.6</ele>
        <time>2022-07-23T10:46:05Z</time>
      </trkpt>
      <trkpt lat="42.7040190" lon="-0.0637360">
        <ele>2232.4</ele>
        <time>2022-07-23T10:46:10Z</time>
      </trkpt>
      <trkpt lat="42.7040100" lon="-0.0637010">
        <ele>2232.0</ele>
        <time>2022-07-23T10:46:12Z</time>
      </trkpt>
      <trkpt lat="42.7040190" lon="-0.0636640">
        <ele>2231.2</ele>
        <time>2022-07-23T10:46:16Z</time>
      </trkpt>
      <trkpt lat="42.7040300" lon="-0.0636720">
        <ele>2231.2</ele>
        <time>2022-07-23T10:46:17Z</time>
      </trkpt>
      <trkpt lat="42.7040730" lon="-0.0637200">
        <ele>2230.2</ele>
        <time>2022-07-23T10:46:22Z</time>
      </trkpt>
      <trkpt lat="42.7040810" lon="-0.0637250">
        <ele>2230.2</ele>
        <time>2022-07-23T10:46:24Z</time>
      </trkpt>
      <trkpt lat="42.7040870" lon="-0.0637180">
        <ele>2230.2</ele>
        <time>2022-07-23T10:46:26Z</time>
      </trkpt>
      <trkpt lat="42.7040900" lon="-0.0637170">
        <ele>2230.0</ele>
        <time>2022-07-23T10:46:27Z</time>
      </trkpt>
      <trkpt lat="42.7040960" lon="-0.0637190">
        <ele>2230.0</ele>
        <time>2022-07-23T10:46:29Z</time>
      </trkpt>
      <trkpt lat="42.7041050" lon="-0.0637180">
        <ele>2230.2</ele>
        <time>2022-07-23T10:46:31Z</time>
      </trkpt>
      <trkpt lat="42.7041110" lon="-0.0637140">
        <ele>2230.0</ele>
        <time>2022-07-23T10:46:32Z</time>
      </trkpt>
      <trkpt lat="42.7041190" lon="-0.0637210">
        <ele>2230.2</ele>
        <time>2022-07-23T10:46:33Z</time>
      </trkpt>
      <trkpt lat="42.7041290" lon="-0.0637310">
        <ele>2230.6</ele>
        <time>2022-07-23T10:46:34Z</time>
      </trkpt>
      <trkpt lat="42.7041440" lon="-0.0637430">
        <ele>2231.0</ele>
        <time>2022-07-23T10:46:35Z</time>
      </trkpt>
      <trkpt lat="42.7041550" lon="-0.0637550">
        <ele>2231.4</ele>
        <time>2022-07-23T10:46:36Z</time>
      </trkpt>
      <trkpt lat="42.7041610" lon="-0.0637650">
        <ele>2231.8</ele>
        <time>2022-07-23T10:46:37Z</time>
      </trkpt>
      <trkpt lat="42.7041710" lon="-0.0637860">
        <ele>2232.4</ele>
        <time>2022-07-23T10:46:39Z</time>
      </trkpt>
      <trkpt lat="42.7041870" lon="-0.0638080">
        <ele>2233.2</ele>
        <time>2022-07-23T10:46:42Z</time>
      </trkpt>
      <trkpt lat="42.7042030" lon="-0.0638170">
        <ele>2234.0</ele>
        <time>2022-07-23T10:46:47Z</time>
      </trkpt>
      <trkpt lat="42.7042070" lon="-0.0638280">
        <ele>2234.4</ele>
        <time>2022-07-23T10:46:48Z</time>
      </trkpt>
      <trkpt lat="42.7042120" lon="-0.0638320">
        <ele>2234.4</ele>
        <time>2022-07-23T10:46:49Z</time>
      </trkpt>
      <trkpt lat="42.7042220" lon="-0.0638460">
        <ele>2234.8</ele>
        <time>2022-07-23T10:46:52Z</time>
      </trkpt>
      <trkpt lat="42.7042240" lon="-0.0638520">
        <ele>2235.0</ele>
        <time>2022-07-23T10:46:53Z</time>
      </trkpt>
      <trkpt lat="42.7042270" lon="-0.0638460">
        <ele>2235.2</ele>
        <time>2022-07-23T10:46:54Z</time>
      </trkpt>
      <trkpt lat="42.7042530" lon="-0.0638380">
        <ele>2237.2</ele>
        <time>2022-07-23T10:47:06Z</time>
      </trkpt>
      <trkpt lat="42.7042520" lon="-0.0638460">
        <ele>2237.2</ele>
        <time>2022-07-23T10:47:07Z</time>
      </trkpt>
      <trkpt lat="42.7042490" lon="-0.0638510">
        <ele>2237.2</ele>
        <time>2022-07-23T10:47:08Z</time>
      </trkpt>
      <trkpt lat="42.7042530" lon="-0.0638570">
        <ele>2237.2</ele>
        <time>2022-07-23T10:47:09Z</time>
      </trkpt>
      <trkpt lat="42.7042530" lon="-0.0638760">
        <ele>2239.2</ele>
        <time>2022-07-23T10:47:18Z</time>
      </trkpt>
      <trkpt lat="42.7042560" lon="-0.0638650">
        <ele>2239.8</ele>
        <time>2022-07-23T10:47:20Z</time>
      </trkpt>
      <trkpt lat="42.7042670" lon="-0.0638540">
        <ele>2239.8</ele>
        <time>2022-07-23T10:47:23Z</time>
      </trkpt>
      <trkpt lat="42.7042620" lon="-0.0638480">
        <ele>2240.0</ele>
        <time>2022-07-23T10:47:29Z</time>
      </trkpt>
      <trkpt lat="42.7042950" lon="-0.0638290">
        <ele>2239.0</ele>
        <time>2022-07-23T10:47:41Z</time>
      </trkpt>
      <trkpt lat="42.7043040" lon="-0.0638250">
        <ele>2239.0</ele>
        <time>2022-07-23T10:47:42Z</time>
      </trkpt>
      <trkpt lat="42.7043220" lon="-0.0638230">
        <ele>2238.8</ele>
        <time>2022-07-23T10:47:44Z</time>
      </trkpt>
      <trkpt lat="42.7043820" lon="-0.0637890">
        <ele>2238.0</ele>
        <time>2022-07-23T10:47:51Z</time>
      </trkpt>
      <trkpt lat="42.7043970" lon="-0.0637830">
        <ele>2237.4</ele>
        <time>2022-07-23T10:47:54Z</time>
      </trkpt>
      <trkpt lat="42.7044330" lon="-0.0637790">
        <ele>2236.4</ele>
        <time>2022-07-23T10:48:04Z</time>
      </trkpt>
      <trkpt lat="42.7044360" lon="-0.0637840">
        <ele>2236.6</ele>
        <time>2022-07-23T10:48:07Z</time>
      </trkpt>
      <trkpt lat="42.7044450" lon="-0.0637730">
        <ele>2236.6</ele>
        <time>2022-07-23T10:48:12Z</time>
      </trkpt>
      <trkpt lat="42.7044940" lon="-0.0637690">
        <ele>2236.6</ele>
        <time>2022-07-23T10:48:23Z</time>
      </trkpt>
      <trkpt lat="42.7045230" lon="-0.0637720">
        <ele>2236.6</ele>
        <time>2022-07-23T10:48:26Z</time>
      </trkpt>
      <trkpt lat="42.7046280" lon="-0.0637730">
        <ele>2237.2</ele>
        <time>2022-07-23T10:48:37Z</time>
      </trkpt>
      <trkpt lat="42.7046480" lon="-0.0637800">
        <ele>2237.2</ele>
        <time>2022-07-23T10:48:39Z</time>
      </trkpt>
      <trkpt lat="42.7046620" lon="-0.0637870">
        <ele>2237.4</ele>
        <time>2022-07-23T10:48:41Z</time>
      </trkpt>
      <trkpt lat="42.7046770" lon="-0.0637860">
        <ele>2237.4</ele>
        <time>2022-07-23T10:48:42Z</time>
      </trkpt>
      <trkpt lat="42.7046970" lon="-0.0637830">
        <ele>2237.4</ele>
        <time>2022-07-23T10:48:44Z</time>
      </trkpt>
      <trkpt lat="42.7047090" lon="-0.0637750">
        <ele>2238.8</ele>
        <time>2022-07-23T10:48:51Z</time>
      </trkpt>
      <trkpt lat="42.7047020" lon="-0.0637710">
        <ele>2238.8</ele>
        <time>2022-07-23T10:48:52Z</time>
      </trkpt>
      <trkpt lat="42.7047140" lon="-0.0637670">
        <ele>2239.2</ele>
        <time>2022-07-23T10:48:55Z</time>
      </trkpt>
      <trkpt lat="42.7047240" lon="-0.0637710">
        <ele>2239.4</ele>
        <time>2022-07-23T10:48:56Z</time>
      </trkpt>
      <trkpt lat="42.7047310" lon="-0.0637720">
        <ele>2239.4</ele>
        <time>2022-07-23T10:48:57Z</time>
      </trkpt>
      <trkpt lat="42.7047580" lon="-0.0637710">
        <ele>2239.8</ele>
        <time>2022-07-23T10:49:00Z</time>
      </trkpt>
      <trkpt lat="42.7047630" lon="-0.0637710">
        <ele>2239.8</ele>
        <time>2022-07-23T10:49:01Z</time>
      </trkpt>
      <trkpt lat="42.7047750" lon="-0.0637750">
        <ele>2240.2</ele>
        <time>2022-07-23T10:49:03Z</time>
      </trkpt>
      <trkpt lat="42.7047820" lon="-0.0637780">
        <ele>2240.2</ele>
        <time>2022-07-23T10:49:04Z</time>
      </trkpt>
      <trkpt lat="42.7047870" lon="-0.0637790">
        <ele>2240.2</ele>
        <time>2022-07-23T10:49:05Z</time>
      </trkpt>
      <trkpt lat="42.7048000" lon="-0.0637950">
        <ele>2241.6</ele>
        <time>2022-07-23T10:49:09Z</time>
      </trkpt>
      <trkpt lat="42.7048100" lon="-0.0637960">
        <ele>2242.0</ele>
        <time>2022-07-23T10:49:11Z</time>
      </trkpt>
      <trkpt lat="42.7048150" lon="-0.0637970">
        <ele>2242.2</ele>
        <time>2022-07-23T10:49:12Z</time>
      </trkpt>
      <trkpt lat="42.7048220" lon="-0.0638030">
        <ele>2242.4</ele>
        <time>2022-07-23T10:49:14Z</time>
      </trkpt>
      <trkpt lat="42.7048240" lon="-0.0638090">
        <ele>2242.4</ele>
        <time>2022-07-23T10:49:15Z</time>
      </trkpt>
      <trkpt lat="42.7048260" lon="-0.0638260">
        <ele>2242.8</ele>
        <time>2022-07-23T10:49:17Z</time>
      </trkpt>
      <trkpt lat="42.7048230" lon="-0.0638320">
        <ele>2243.2</ele>
        <time>2022-07-23T10:49:21Z</time>
      </trkpt>
      <trkpt lat="42.7048250" lon="-0.0638320">
        <ele>2243.6</ele>
        <time>2022-07-23T10:49:23Z</time>
      </trkpt>
      <trkpt lat="42.7048300" lon="-0.0638330">
        <ele>2243.8</ele>
        <time>2022-07-23T10:49:26Z</time>
      </trkpt>
      <trkpt lat="42.7048320" lon="-0.0638320">
        <ele>2244.0</ele>
        <time>2022-07-23T10:49:27Z</time>
      </trkpt>
      <trkpt lat="42.7048340" lon="-0.0638320">
        <ele>2244.2</ele>
        <time>2022-07-23T10:49:28Z</time>
      </trkpt>
      <trkpt lat="42.7048370" lon="-0.0638310">
        <ele>2244.4</ele>
        <time>2022-07-23T10:49:29Z</time>
      </trkpt>
      <trkpt lat="42.7048570" lon="-0.0638360">
        <ele>2244.6</ele>
        <time>2022-07-23T10:49:33Z</time>
      </trkpt>
      <trkpt lat="42.7048610" lon="-0.0638360">
        <ele>2244.6</ele>
        <time>2022-07-23T10:49:34Z</time>
      </trkpt>
      <trkpt lat="42.7048650" lon="-0.0638370">
        <ele>2244.8</ele>
        <time>2022-07-23T10:49:35Z</time>
      </trkpt>
      <trkpt lat="42.7048690" lon="-0.0638370">
        <ele>2244.6</ele>
        <time>2022-07-23T10:49:36Z</time>
      </trkpt>
      <trkpt lat="42.7048750" lon="-0.0638400">
        <ele>2244.8</ele>
        <time>2022-07-23T10:49:38Z</time>
      </trkpt>
      <trkpt lat="42.7048780" lon="-0.0638400">
        <ele>2244.8</ele>
        <time>2022-07-23T10:49:39Z</time>
      </trkpt>
      <trkpt lat="42.7048830" lon="-0.0638390">
        <ele>2244.8</ele>
        <time>2022-07-23T10:49:40Z</time>
      </trkpt>
      <trkpt lat="42.7048950" lon="-0.0638420">
        <ele>2245.2</ele>
        <time>2022-07-23T10:49:43Z</time>
      </trkpt>
      <trkpt lat="42.7048970" lon="-0.0638420">
        <ele>2245.6</ele>
        <time>2022-07-23T10:49:44Z</time>
      </trkpt>
      <trkpt lat="42.7049010" lon="-0.0638450">
        <ele>2246.2</ele>
        <time>2022-07-23T10:49:45Z</time>
      </trkpt>
      <trkpt lat="42.7049030" lon="-0.0638480">
        <ele>2246.4</ele>
        <time>2022-07-23T10:49:46Z</time>
      </trkpt>
      <trkpt lat="42.7049060" lon="-0.0638480">
        <ele>2246.8</ele>
        <time>2022-07-23T10:49:47Z</time>
      </trkpt>
      <trkpt lat="42.7049090" lon="-0.0638520">
        <ele>2246.8</ele>
        <time>2022-07-23T10:49:48Z</time>
      </trkpt>
      <trkpt lat="42.7049120" lon="-0.0638590">
        <ele>2247.8</ele>
        <time>2022-07-23T10:49:50Z</time>
      </trkpt>
      <trkpt lat="42.7049140" lon="-0.0638640">
        <ele>2248.2</ele>
        <time>2022-07-23T10:49:51Z</time>
      </trkpt>
      <trkpt lat="42.7049130" lon="-0.0638780">
        <ele>2248.6</ele>
        <time>2022-07-23T10:49:54Z</time>
      </trkpt>
      <trkpt lat="42.7049140" lon="-0.0638820">
        <ele>2249.0</ele>
        <time>2022-07-23T10:49:55Z</time>
      </trkpt>
      <trkpt lat="42.7049160" lon="-0.0638850">
        <ele>2249.2</ele>
        <time>2022-07-23T10:49:56Z</time>
      </trkpt>
      <trkpt lat="42.7049180" lon="-0.0638850">
        <ele>2249.4</ele>
        <time>2022-07-23T10:49:57Z</time>
      </trkpt>
      <trkpt lat="42.7049250" lon="-0.0638840">
        <ele>2249.6</ele>
        <time>2022-07-23T10:49:58Z</time>
      </trkpt>
      <trkpt lat="42.7049330" lon="-0.0638930">
        <ele>2249.8</ele>
        <time>2022-07-23T10:50:00Z</time>
      </trkpt>
      <trkpt lat="42.7049360" lon="-0.0639000">
        <ele>2250.0</ele>
        <time>2022-07-23T10:50:01Z</time>
      </trkpt>
      <trkpt lat="42.7049390" lon="-0.0639220">
        <ele>2250.4</ele>
        <time>2022-07-23T10:50:04Z</time>
      </trkpt>
      <trkpt lat="42.7049400" lon="-0.0639290">
        <ele>2251.2</ele>
        <time>2022-07-23T10:50:05Z</time>
      </trkpt>
      <trkpt lat="42.7049390" lon="-0.0639370">
        <ele>2251.6</ele>
        <time>2022-07-23T10:50:06Z</time>
      </trkpt>
      <trkpt lat="42.7049390" lon="-0.0639460">
        <ele>2251.8</ele>
        <time>2022-07-23T10:50:07Z</time>
      </trkpt>
      <trkpt lat="42.7049410" lon="-0.0639570">
        <ele>2252.0</ele>
        <time>2022-07-23T10:50:08Z</time>
      </trkpt>
      <trkpt lat="42.7049530" lon="-0.0639790">
        <ele>2252.2</ele>
        <time>2022-07-23T10:50:10Z</time>
      </trkpt>
      <trkpt lat="42.7049560" lon="-0.0639870">
        <ele>2252.2</ele>
        <time>2022-07-23T10:50:11Z</time>
      </trkpt>
      <trkpt lat="42.7049560" lon="-0.0639960">
        <ele>2252.2</ele>
        <time>2022-07-23T10:50:12Z</time>
      </trkpt>
      <trkpt lat="42.7049510" lon="-0.0640180">
        <ele>2252.4</ele>
        <time>2022-07-23T10:50:14Z</time>
      </trkpt>
      <trkpt lat="42.7049480" lon="-0.0640250">
        <ele>2252.8</ele>
        <time>2022-07-23T10:50:15Z</time>
      </trkpt>
      <trkpt lat="42.7049450" lon="-0.0640450">
        <ele>2253.0</ele>
        <time>2022-07-23T10:50:18Z</time>
      </trkpt>
      <trkpt lat="42.7049440" lon="-0.0640580">
        <ele>2253.8</ele>
        <time>2022-07-23T10:50:20Z</time>
      </trkpt>
      <trkpt lat="42.7049450" lon="-0.0640620">
        <ele>2254.0</ele>
        <time>2022-07-23T10:50:21Z</time>
      </trkpt>
      <trkpt lat="42.7049580" lon="-0.0640450">
        <ele>2255.4</ele>
        <time>2022-07-23T10:50:30Z</time>
      </trkpt>
      <trkpt lat="42.7049630" lon="-0.0640360">
        <ele>2256.0</ele>
        <time>2022-07-23T10:50:47Z</time>
      </trkpt>
      <trkpt lat="42.7049250" lon="-0.0640440">
        <ele>2256.2</ele>
        <time>2022-07-23T10:51:05Z</time>
      </trkpt>
      <trkpt lat="42.7049190" lon="-0.0640280">
        <ele>2256.4</ele>
        <time>2022-07-23T10:51:18Z</time>
      </trkpt>
      <trkpt lat="42.7049330" lon="-0.0640230">
        <ele>2256.4</ele>
        <time>2022-07-23T10:51:24Z</time>
      </trkpt>
      <trkpt lat="42.7049350" lon="-0.0640200">
        <ele>2256.6</ele>
        <time>2022-07-23T10:51:25Z</time>
      </trkpt>
      <trkpt lat="42.7049350" lon="-0.0640190">
        <ele>2256.6</ele>
        <time>2022-07-23T10:51:26Z</time>
      </trkpt>
      <trkpt lat="42.7049320" lon="-0.0640210">
        <ele>2256.4</ele>
        <time>2022-07-23T10:51:27Z</time>
      </trkpt>
      <trkpt lat="42.7049320" lon="-0.0640170">
        <ele>2256.4</ele>
        <time>2022-07-23T10:51:29Z</time>
      </trkpt>
      <trkpt lat="42.7049360" lon="-0.0640160">
        <ele>2256.4</ele>
        <time>2022-07-23T10:51:33Z</time>
      </trkpt>
      <trkpt lat="42.7049260" lon="-0.0640250">
        <ele>2256.6</ele>
        <time>2022-07-23T10:51:40Z</time>
      </trkpt>
      <trkpt lat="42.7048450" lon="-0.0640650">
        <ele>2256.6</ele>
        <time>2022-07-23T10:51:49Z</time>
      </trkpt>
      <trkpt lat="42.7048700" lon="-0.0640370">
        <ele>2256.2</ele>
        <time>2022-07-23T10:52:08Z</time>
      </trkpt>
      <trkpt lat="42.7048190" lon="-0.0640930">
        <ele>2256.0</ele>
        <time>2022-07-23T10:52:24Z</time>
      </trkpt>
      <trkpt lat="42.7048840" lon="-0.0640980">
        <ele>2256.0</ele>
        <time>2022-07-23T10:52:38Z</time>
      </trkpt>
      <trkpt lat="42.7048540" lon="-0.0641050">
        <ele>2256.2</ele>
        <time>2022-07-23T10:52:47Z</time>
      </trkpt>
      <trkpt lat="42.7048630" lon="-0.0641080">
        <ele>2256.4</ele>
        <time>2022-07-23T10:52:49Z</time>
      </trkpt>
      <trkpt lat="42.7048830" lon="-0.0641080">
        <ele>2256.6</ele>
        <time>2022-07-23T10:52:54Z</time>
      </trkpt>
      <trkpt lat="42.7048810" lon="-0.0641120">
        <ele>2256.8</ele>
        <time>2022-07-23T10:52:55Z</time>
      </trkpt>
      <trkpt lat="42.7048850" lon="-0.0640940">
        <ele>2256.2</ele>
        <time>2022-07-23T10:53:04Z</time>
      </trkpt>
      <trkpt lat="42.7048790" lon="-0.0640500">
        <ele>2256.0</ele>
        <time>2022-07-23T10:53:14Z</time>
      </trkpt>
      <trkpt lat="42.7049020" lon="-0.0640550">
        <ele>2255.8</ele>
        <time>2022-07-23T10:53:20Z</time>
      </trkpt>
      <trkpt lat="42.7049200" lon="-0.0640850">
        <ele>2255.4</ele>
        <time>2022-07-23T10:53:32Z</time>
      </trkpt>
      <trkpt lat="42.7049210" lon="-0.0640800">
        <ele>2255.2</ele>
        <time>2022-07-23T10:53:34Z</time>
      </trkpt>
      <trkpt lat="42.7049200" lon="-0.0640880">
        <ele>2255.2</ele>
        <time>2022-07-23T10:53:36Z</time>
      </trkpt>
      <trkpt lat="42.7049150" lon="-0.0640920">
        <ele>2255.0</ele>
        <time>2022-07-23T10:53:37Z</time>
      </trkpt>
      <trkpt lat="42.7049010" lon="-0.0641150">
        <ele>2255.2</ele>
        <time>2022-07-23T10:53:40Z</time>
      </trkpt>
      <trkpt lat="42.7048880" lon="-0.0641200">
        <ele>2255.4</ele>
        <time>2022-07-23T10:53:43Z</time>
      </trkpt>
      <trkpt lat="42.7048820" lon="-0.0641230">
        <ele>2255.6</ele>
        <time>2022-07-23T10:53:44Z</time>
      </trkpt>
      <trkpt lat="42.7048700" lon="-0.0641340">
        <ele>2256.2</ele>
        <time>2022-07-23T10:53:46Z</time>
      </trkpt>
      <trkpt lat="42.7048600" lon="-0.0641430">
        <ele>2256.6</ele>
        <time>2022-07-23T10:53:48Z</time>
      </trkpt>
      <trkpt lat="42.7048290" lon="-0.0641630">
        <ele>2258.2</ele>
        <time>2022-07-23T10:53:53Z</time>
      </trkpt>
      <trkpt lat="42.7048140" lon="-0.0641770">
        <ele>2258.4</ele>
        <time>2022-07-23T10:53:55Z</time>
      </trkpt>
      <trkpt lat="42.7047620" lon="-0.0642030">
        <ele>2259.2</ele>
        <time>2022-07-23T10:54:01Z</time>
      </trkpt>
      <trkpt lat="42.7047550" lon="-0.0642110">
        <ele>2259.4</ele>
        <time>2022-07-23T10:54:02Z</time>
      </trkpt>
      <trkpt lat="42.7047450" lon="-0.0642220">
        <ele>2259.4</ele>
        <time>2022-07-23T10:54:03Z</time>
      </trkpt>
      <trkpt lat="42.7047320" lon="-0.0642440">
        <ele>2259.4</ele>
        <time>2022-07-23T10:54:05Z</time>
      </trkpt>
      <trkpt lat="42.7046890" lon="-0.0642730">
        <ele>2260.0</ele>
        <time>2022-07-23T10:54:11Z</time>
      </trkpt>
      <trkpt lat="42.7046400" lon="-0.0642860">
        <ele>2260.8</ele>
        <time>2022-07-23T10:54:19Z</time>
      </trkpt>
      <trkpt lat="42.7046300" lon="-0.0642830">
        <ele>2260.8</ele>
        <time>2022-07-23T10:54:20Z</time>
      </trkpt>
      <trkpt lat="42.7046080" lon="-0.0642660">
        <ele>2260.8</ele>
        <time>2022-07-23T10:54:22Z</time>
      </trkpt>
      <trkpt lat="42.7046030" lon="-0.0642570">
        <ele>2260.8</ele>
        <time>2022-07-23T10:54:23Z</time>
      </trkpt>
      <trkpt lat="42.7045870" lon="-0.0642430">
        <ele>2260.8</ele>
        <time>2022-07-23T10:54:25Z</time>
      </trkpt>
      <trkpt lat="42.7045580" lon="-0.0642340">
        <ele>2260.6</ele>
        <time>2022-07-23T10:54:28Z</time>
      </trkpt>
      <trkpt lat="42.7045360" lon="-0.0642360">
        <ele>2260.0</ele>
        <time>2022-07-23T10:54:30Z</time>
      </trkpt>
      <trkpt lat="42.7045150" lon="-0.0642400">
        <ele>2258.8</ele>
        <time>2022-07-23T10:54:32Z</time>
      </trkpt>
      <trkpt lat="42.7044940" lon="-0.0642540">
        <ele>2257.2</ele>
        <time>2022-07-23T10:54:34Z</time>
      </trkpt>
      <trkpt lat="42.7044380" lon="-0.0642770">
        <ele>2255.6</ele>
        <time>2022-07-23T10:54:38Z</time>
      </trkpt>
      <trkpt lat="42.7044080" lon="-0.0642900">
        <ele>2254.6</ele>
        <time>2022-07-23T10:54:40Z</time>
      </trkpt>
      <trkpt lat="42.7043820" lon="-0.0643120">
        <ele>2253.4</ele>
        <time>2022-07-23T10:54:42Z</time>
      </trkpt>
      <trkpt lat="42.7043720" lon="-0.0643260">
        <ele>2253.0</ele>
        <time>2022-07-23T10:54:43Z</time>
      </trkpt>
      <trkpt lat="42.7043580" lon="-0.0643350">
        <ele>2252.2</ele>
        <time>2022-07-23T10:54:44Z</time>
      </trkpt>
      <trkpt lat="42.7043000" lon="-0.0643580">
        <ele>2250.6</ele>
        <time>2022-07-23T10:54:47Z</time>
      </trkpt>
      <trkpt lat="42.7042210" lon="-0.0643950">
        <ele>2249.0</ele>
        <time>2022-07-23T10:54:52Z</time>
      </trkpt>
      <trkpt lat="42.7041880" lon="-0.0644170">
        <ele>2247.2</ele>
        <time>2022-07-23T10:54:54Z</time>
      </trkpt>
      <trkpt lat="42.7041690" lon="-0.0644180">
        <ele>2246.4</ele>
        <time>2022-07-23T10:54:55Z</time>
      </trkpt>
      <trkpt lat="42.7041550" lon="-0.0644090">
        <ele>2246.0</ele>
        <time>2022-07-23T10:54:56Z</time>
      </trkpt>
      <trkpt lat="42.7041400" lon="-0.0643990">
        <ele>2245.0</ele>
        <time>2022-07-23T10:54:57Z</time>
      </trkpt>
      <trkpt lat="42.7041220" lon="-0.0643880">
        <ele>2244.6</ele>
        <time>2022-07-23T10:54:58Z</time>
      </trkpt>
      <trkpt lat="42.7040830" lon="-0.0643630">
        <ele>2243.8</ele>
        <time>2022-07-23T10:55:00Z</time>
      </trkpt>
      <trkpt lat="42.7040490" lon="-0.0643430">
        <ele>2243.2</ele>
        <time>2022-07-23T10:55:02Z</time>
      </trkpt>
      <trkpt lat="42.7040110" lon="-0.0643310">
        <ele>2239.6</ele>
        <time>2022-07-23T10:55:05Z</time>
      </trkpt>
      <trkpt lat="42.7038870" lon="-0.0642640">
        <ele>2234.8</ele>
        <time>2022-07-23T10:55:12Z</time>
      </trkpt>
      <trkpt lat="42.7038680" lon="-0.0642530">
        <ele>2234.2</ele>
        <time>2022-07-23T10:55:13Z</time>
      </trkpt>
      <trkpt lat="42.7038520" lon="-0.0642390">
        <ele>2233.0</ele>
        <time>2022-07-23T10:55:15Z</time>
      </trkpt>
      <trkpt lat="42.7038530" lon="-0.0642290">
        <ele>2232.4</ele>
        <time>2022-07-23T10:55:17Z</time>
      </trkpt>
      <trkpt lat="42.7038520" lon="-0.0642250">
        <ele>2232.0</ele>
        <time>2022-07-23T10:55:18Z</time>
      </trkpt>
      <trkpt lat="42.7038490" lon="-0.0642260">
        <ele>2231.8</ele>
        <time>2022-07-23T10:55:20Z</time>
      </trkpt>
      <trkpt lat="42.7038430" lon="-0.0642260">
        <ele>2231.8</ele>
        <time>2022-07-23T10:55:21Z</time>
      </trkpt>
      <trkpt lat="42.7038470" lon="-0.0642380">
        <ele>2231.8</ele>
        <time>2022-07-23T10:55:25Z</time>
      </trkpt>
      <trkpt lat="42.7038660" lon="-0.0642390">
        <ele>2231.6</ele>
        <time>2022-07-23T10:55:33Z</time>
      </trkpt>
      <trkpt lat="42.7038720" lon="-0.0642370">
        <ele>2231.8</ele>
        <time>2022-07-23T10:55:36Z</time>
      </trkpt>
      <trkpt lat="42.7038800" lon="-0.0642330">
        <ele>2232.0</ele>
        <time>2022-07-23T10:55:41Z</time>
      </trkpt>
      <trkpt lat="42.7038790" lon="-0.0642330">
        <ele>2232.2</ele>
        <time>2022-07-23T10:55:42Z</time>
      </trkpt>
      <trkpt lat="42.7039050" lon="-0.0642350">
        <ele>2233.8</ele>
        <time>2022-07-23T10:55:50Z</time>
      </trkpt>
      <trkpt lat="42.7039110" lon="-0.0642530">
        <ele>2234.8</ele>
        <time>2022-07-23T10:55:58Z</time>
      </trkpt>
      <trkpt lat="42.7039140" lon="-0.0642540">
        <ele>2234.6</ele>
        <time>2022-07-23T10:55:59Z</time>
      </trkpt>
      <trkpt lat="42.7039170" lon="-0.0642550">
        <ele>2234.8</ele>
        <time>2022-07-23T10:56:00Z</time>
      </trkpt>
      <trkpt lat="42.7039160" lon="-0.0642550">
        <ele>2234.8</ele>
        <time>2022-07-23T10:56:03Z</time>
      </trkpt>
      <trkpt lat="42.7039040" lon="-0.0642540">
        <ele>2235.0</ele>
        <time>2022-07-23T10:56:09Z</time>
      </trkpt>
      <trkpt lat="42.7038890" lon="-0.0642420">
        <ele>2235.0</ele>
        <time>2022-07-23T10:56:15Z</time>
      </trkpt>
      <trkpt lat="42.7038720" lon="-0.0642360">
        <ele>2235.2</ele>
        <time>2022-07-23T10:56:17Z</time>
      </trkpt>
      <trkpt lat="42.7038710" lon="-0.0642280">
        <ele>2235.2</ele>
        <time>2022-07-23T10:56:25Z</time>
      </trkpt>
      <trkpt lat="42.7038720" lon="-0.0642270">
        <ele>2235.2</ele>
        <time>2022-07-23T10:56:26Z</time>
      </trkpt>
      <trkpt lat="42.7038780" lon="-0.0642270">
        <ele>2235.2</ele>
        <time>2022-07-23T10:56:27Z</time>
      </trkpt>
      <trkpt lat="42.7039100" lon="-0.0642210">
        <ele>2234.0</ele>
        <time>2022-07-23T10:56:36Z</time>
      </trkpt>
      <trkpt lat="42.7039160" lon="-0.0642270">
        <ele>2232.6</ele>
        <time>2022-07-23T10:56:38Z</time>
      </trkpt>
      <trkpt lat="42.7039300" lon="-0.0642430">
        <ele>2232.0</ele>
        <time>2022-07-23T10:56:45Z</time>
      </trkpt>
      <trkpt lat="42.7039340" lon="-0.0642430">
        <ele>2231.8</ele>
        <time>2022-07-23T10:56:46Z</time>
      </trkpt>
      <trkpt lat="42.7039300" lon="-0.0642430">
        <ele>2231.8</ele>
        <time>2022-07-23T10:56:51Z</time>
      </trkpt>
      <trkpt lat="42.7039260" lon="-0.0642430">
        <ele>2231.8</ele>
        <time>2022-07-23T10:56:54Z</time>
      </trkpt>
      <trkpt lat="42.7039350" lon="-0.0642420">
        <ele>2232.0</ele>
        <time>2022-07-23T10:56:57Z</time>
      </trkpt>
      <trkpt lat="42.7039360" lon="-0.0642390">
        <ele>2231.8</ele>
        <time>2022-07-23T10:56:59Z</time>
      </trkpt>
      <trkpt lat="42.7039320" lon="-0.0642360">
        <ele>2231.8</ele>
        <time>2022-07-23T10:57:01Z</time>
      </trkpt>
      <trkpt lat="42.7039560" lon="-0.0642510">
        <ele>2232.6</ele>
        <time>2022-07-23T10:57:12Z</time>
      </trkpt>
      <trkpt lat="42.7039700" lon="-0.0642660">
        <ele>2232.6</ele>
        <time>2022-07-23T10:57:16Z</time>
      </trkpt>
      <trkpt lat="42.7039720" lon="-0.0642740">
        <ele>2232.0</ele>
        <time>2022-07-23T10:57:28Z</time>
      </trkpt>
      <trkpt lat="42.7039330" lon="-0.0642540">
        <ele>2231.6</ele>
        <time>2022-07-23T10:57:36Z</time>
      </trkpt>
      <trkpt lat="42.7039040" lon="-0.0642350">
        <ele>2231.4</ele>
        <time>2022-07-23T10:57:41Z</time>
      </trkpt>
      <trkpt lat="42.7039000" lon="-0.0642340">
        <ele>2231.4</ele>
        <time>2022-07-23T10:57:42Z</time>
      </trkpt>
      <trkpt lat="42.7038630" lon="-0.0642620">
        <ele>2231.4</ele>
        <time>2022-07-23T10:57:51Z</time>
      </trkpt>
      <trkpt lat="42.7038810" lon="-0.0642720">
        <ele>2231.6</ele>
        <time>2022-07-23T10:57:55Z</time>
      </trkpt>
      <trkpt lat="42.7038870" lon="-0.0642740">
        <ele>2231.6</ele>
        <time>2022-07-23T10:57:57Z</time>
      </trkpt>
      <trkpt lat="42.7038830" lon="-0.0642680">
        <ele>2231.2</ele>
        <time>2022-07-23T10:58:14Z</time>
      </trkpt>
      <trkpt lat="42.7039000" lon="-0.0642830">
        <ele>2231.2</ele>
        <time>2022-07-23T10:58:26Z</time>
      </trkpt>
      <trkpt lat="42.7039230" lon="-0.0642950">
        <ele>2231.4</ele>
        <time>2022-07-23T10:58:32Z</time>
      </trkpt>
      <trkpt lat="42.7039410" lon="-0.0642920">
        <ele>2231.6</ele>
        <time>2022-07-23T10:58:47Z</time>
      </trkpt>
      <trkpt lat="42.7039790" lon="-0.0642880">
        <ele>2231.6</ele>
        <time>2022-07-23T10:58:52Z</time>
      </trkpt>
      <trkpt lat="42.7039810" lon="-0.0642870">
        <ele>2232.0</ele>
        <time>2022-07-23T10:58:57Z</time>
      </trkpt>
      <trkpt lat="42.7039790" lon="-0.0642850">
        <ele>2231.6</ele>
        <time>2022-07-23T10:59:03Z</time>
      </trkpt>
      <trkpt lat="42.7039480" lon="-0.0642760">
        <ele>2231.4</ele>
        <time>2022-07-23T10:59:17Z</time>
      </trkpt>
      <trkpt lat="42.7039330" lon="-0.0642670">
        <ele>2231.4</ele>
        <time>2022-07-23T10:59:23Z</time>
      </trkpt>
      <trkpt lat="42.7039250" lon="-0.0642450">
        <ele>2231.4</ele>
        <time>2022-07-23T10:59:30Z</time>
      </trkpt>
      <trkpt lat="42.7039230" lon="-0.0642460">
        <ele>2231.2</ele>
        <time>2022-07-23T10:59:32Z</time>
      </trkpt>
      <trkpt lat="42.7039410" lon="-0.0642570">
        <ele>2230.6</ele>
        <time>2022-07-23T10:59:39Z</time>
      </trkpt>
      <trkpt lat="42.7039530" lon="-0.0642570">
        <ele>2230.4</ele>
        <time>2022-07-23T10:59:46Z</time>
      </trkpt>
      <trkpt lat="42.7039470" lon="-0.0642600">
        <ele>2230.4</ele>
        <time>2022-07-23T10:59:48Z</time>
      </trkpt>
      <trkpt lat="42.7039660" lon="-0.0642600">
        <ele>2230.6</ele>
        <time>2022-07-23T10:59:55Z</time>
      </trkpt>
      <trkpt lat="42.7039770" lon="-0.0642580">
        <ele>2230.6</ele>
        <time>2022-07-23T10:59:58Z</time>
      </trkpt>
      <trkpt lat="42.7039780" lon="-0.0642530">
        <ele>2230.6</ele>
        <time>2022-07-23T11:00:02Z</time>
      </trkpt>
      <trkpt lat="42.7039760" lon="-0.0642510">
        <ele>2230.8</ele>
        <time>2022-07-23T11:00:03Z</time>
      </trkpt>
      <trkpt lat="42.7039720" lon="-0.0642540">
        <ele>2230.6</ele>
        <time>2022-07-23T11:00:04Z</time>
      </trkpt>
      <trkpt lat="42.7039660" lon="-0.0642570">
        <ele>2231.0</ele>
        <time>2022-07-23T11:00:05Z</time>
      </trkpt>
      <trkpt lat="42.7039640" lon="-0.0642600">
        <ele>2231.0</ele>
        <time>2022-07-23T11:00:06Z</time>
      </trkpt>
      <trkpt lat="42.7039640" lon="-0.0642630">
        <ele>2231.6</ele>
        <time>2022-07-23T11:00:14Z</time>
      </trkpt>
      <trkpt lat="42.7039650" lon="-0.0642650">
        <ele>2231.6</ele>
        <time>2022-07-23T11:00:15Z</time>
      </trkpt>
      <trkpt lat="42.7039560" lon="-0.0642750">
        <ele>2231.8</ele>
        <time>2022-07-23T11:00:18Z</time>
      </trkpt>
      <trkpt lat="42.7039570" lon="-0.0642730">
        <ele>2232.0</ele>
        <time>2022-07-23T11:00:19Z</time>
      </trkpt>
      <trkpt lat="42.7039410" lon="-0.0642360">
        <ele>2232.2</ele>
        <time>2022-07-23T11:00:25Z</time>
      </trkpt>
      <trkpt lat="42.7039120" lon="-0.0642040">
        <ele>2232.2</ele>
        <time>2022-07-23T11:00:31Z</time>
      </trkpt>
      <trkpt lat="42.7038730" lon="-0.0641840">
        <ele>2233.2</ele>
        <time>2022-07-23T11:00:39Z</time>
      </trkpt>
      <trkpt lat="42.7038460" lon="-0.0641770">
        <ele>2233.2</ele>
        <time>2022-07-23T11:00:43Z</time>
      </trkpt>
      <trkpt lat="42.7037930" lon="-0.0641710">
        <ele>2233.2</ele>
        <time>2022-07-23T11:00:48Z</time>
      </trkpt>
      <trkpt lat="42.7037600" lon="-0.0641690">
        <ele>2233.2</ele>
        <time>2022-07-23T11:00:50Z</time>
      </trkpt>
      <trkpt lat="42.7037470" lon="-0.0641650">
        <ele>2233.2</ele>
        <time>2022-07-23T11:00:51Z</time>
      </trkpt>
      <trkpt lat="42.7037360" lon="-0.0641510">
        <ele>2233.2</ele>
        <time>2022-07-23T11:00:53Z</time>
      </trkpt>
      <trkpt lat="42.7037260" lon="-0.0641390">
        <ele>2233.2</ele>
        <time>2022-07-23T11:00:55Z</time>
      </trkpt>
      <trkpt lat="42.7037080" lon="-0.0641300">
        <ele>2233.2</ele>
        <time>2022-07-23T11:00:58Z</time>
      </trkpt>
      <trkpt lat="42.7037040" lon="-0.0641310">
        <ele>2233.0</ele>
        <time>2022-07-23T11:01:00Z</time>
      </trkpt>
      <trkpt lat="42.7037000" lon="-0.0641310">
        <ele>2233.2</ele>
        <time>2022-07-23T11:01:01Z</time>
      </trkpt>
      <trkpt lat="42.7036960" lon="-0.0641310">
        <ele>2233.2</ele>
        <time>2022-07-23T11:01:02Z</time>
      </trkpt>
      <trkpt lat="42.7036930" lon="-0.0641290">
        <ele>2233.2</ele>
        <time>2022-07-23T11:01:03Z</time>
      </trkpt>
      <trkpt lat="42.7036910" lon="-0.0641250">
        <ele>2233.2</ele>
        <time>2022-07-23T11:01:04Z</time>
      </trkpt>
      <trkpt lat="42.7036870" lon="-0.0641200">
        <ele>2233.4</ele>
        <time>2022-07-23T11:01:05Z</time>
      </trkpt>
      <trkpt lat="42.7036850" lon="-0.0641140">
        <ele>2233.4</ele>
        <time>2022-07-23T11:01:06Z</time>
      </trkpt>
      <trkpt lat="42.7036890" lon="-0.0641080">
        <ele>2234.0</ele>
        <time>2022-07-23T11:01:10Z</time>
      </trkpt>
      <trkpt lat="42.7036930" lon="-0.0641080">
        <ele>2235.2</ele>
        <time>2022-07-23T11:01:13Z</time>
      </trkpt>
      <trkpt lat="42.7036940" lon="-0.0640880">
        <ele>2236.2</ele>
        <time>2022-07-23T11:01:16Z</time>
      </trkpt>
      <trkpt lat="42.7036940" lon="-0.0640340">
        <ele>2237.2</ele>
        <time>2022-07-23T11:01:22Z</time>
      </trkpt>
      <trkpt lat="42.7036910" lon="-0.0640250">
        <ele>2237.4</ele>
        <time>2022-07-23T11:01:23Z</time>
      </trkpt>
      <trkpt lat="42.7036850" lon="-0.0640130">
        <ele>2237.4</ele>
        <time>2022-07-23T11:01:25Z</time>
      </trkpt>
      <trkpt lat="42.7036830" lon="-0.0640060">
        <ele>2237.6</ele>
        <time>2022-07-23T11:01:26Z</time>
      </trkpt>
      <trkpt lat="42.7036760" lon="-0.0639450">
        <ele>2238.2</ele>
        <time>2022-07-23T11:01:33Z</time>
      </trkpt>
      <trkpt lat="42.7036780" lon="-0.0638590">
        <ele>2239.2</ele>
        <time>2022-07-23T11:01:40Z</time>
      </trkpt>
      <trkpt lat="42.7036820" lon="-0.0637880">
        <ele>2239.8</ele>
        <time>2022-07-23T11:01:47Z</time>
      </trkpt>
      <trkpt lat="42.7036890" lon="-0.0636980">
        <ele>2240.8</ele>
        <time>2022-07-23T11:01:56Z</time>
      </trkpt>
      <trkpt lat="42.7036800" lon="-0.0636850">
        <ele>2240.8</ele>
        <time>2022-07-23T11:01:58Z</time>
      </trkpt>
      <trkpt lat="42.7036390" lon="-0.0636090">
        <ele>2241.4</ele>
        <time>2022-07-23T11:02:06Z</time>
      </trkpt>
      <trkpt lat="42.7036370" lon="-0.0635850">
        <ele>2241.6</ele>
        <time>2022-07-23T11:02:08Z</time>
      </trkpt>
      <trkpt lat="42.7036220" lon="-0.0635490">
        <ele>2242.0</ele>
        <time>2022-07-23T11:02:11Z</time>
      </trkpt>
      <trkpt lat="42.7036060" lon="-0.0635330">
        <ele>2242.4</ele>
        <time>2022-07-23T11:02:13Z</time>
      </trkpt>
      <trkpt lat="42.7035970" lon="-0.0635030">
        <ele>2243.0</ele>
        <time>2022-07-23T11:02:16Z</time>
      </trkpt>
      <trkpt lat="42.7035890" lon="-0.0634660">
        <ele>2243.2</ele>
        <time>2022-07-23T11:02:19Z</time>
      </trkpt>
      <trkpt lat="42.7035840" lon="-0.0634570">
        <ele>2243.4</ele>
        <time>2022-07-23T11:02:20Z</time>
      </trkpt>
      <trkpt lat="42.7035840" lon="-0.0634480">
        <ele>2243.4</ele>
        <time>2022-07-23T11:02:21Z</time>
      </trkpt>
      <trkpt lat="42.7035700" lon="-0.0634220">
        <ele>2243.8</ele>
        <time>2022-07-23T11:02:24Z</time>
      </trkpt>
      <trkpt lat="42.7035640" lon="-0.0634140">
        <ele>2244.0</ele>
        <time>2022-07-23T11:02:25Z</time>
      </trkpt>
      <trkpt lat="42.7035600" lon="-0.0634060">
        <ele>2244.0</ele>
        <time>2022-07-23T11:02:26Z</time>
      </trkpt>
      <trkpt lat="42.7035560" lon="-0.0633960">
        <ele>2244.0</ele>
        <time>2022-07-23T11:02:27Z</time>
      </trkpt>
      <trkpt lat="42.7035260" lon="-0.0633450">
        <ele>2244.6</ele>
        <time>2022-07-23T11:02:33Z</time>
      </trkpt>
      <trkpt lat="42.7035190" lon="-0.0633090">
        <ele>2245.2</ele>
        <time>2022-07-23T11:02:37Z</time>
      </trkpt>
      <trkpt lat="42.7035140" lon="-0.0632120">
        <ele>2246.6</ele>
        <time>2022-07-23T11:02:47Z</time>
      </trkpt>
      <trkpt lat="42.7035090" lon="-0.0631900">
        <ele>2247.2</ele>
        <time>2022-07-23T11:02:49Z</time>
      </trkpt>
      <trkpt lat="42.7035020" lon="-0.0631810">
        <ele>2247.2</ele>
        <time>2022-07-23T11:02:50Z</time>
      </trkpt>
      <trkpt lat="42.7034920" lon="-0.0631460">
        <ele>2247.8</ele>
        <time>2022-07-23T11:02:53Z</time>
      </trkpt>
      <trkpt lat="42.7034930" lon="-0.0630690">
        <ele>2249.0</ele>
        <time>2022-07-23T11:02:59Z</time>
      </trkpt>
      <trkpt lat="42.7034940" lon="-0.0630050">
        <ele>2249.6</ele>
        <time>2022-07-23T11:03:05Z</time>
      </trkpt>
      <trkpt lat="42.7034980" lon="-0.0629970">
        <ele>2250.2</ele>
        <time>2022-07-23T11:03:06Z</time>
      </trkpt>
      <trkpt lat="42.7035040" lon="-0.0629860">
        <ele>2250.2</ele>
        <time>2022-07-23T11:03:08Z</time>
      </trkpt>
      <trkpt lat="42.7035060" lon="-0.0629820">
        <ele>2250.4</ele>
        <time>2022-07-23T11:03:09Z</time>
      </trkpt>
      <trkpt lat="42.7035030" lon="-0.0629780">
        <ele>2250.4</ele>
        <time>2022-07-23T11:03:10Z</time>
      </trkpt>
      <trkpt lat="42.7035140" lon="-0.0629500">
        <ele>2250.8</ele>
        <time>2022-07-23T11:03:14Z</time>
      </trkpt>
      <trkpt lat="42.7035290" lon="-0.0628760">
        <ele>2252.4</ele>
        <time>2022-07-23T11:03:21Z</time>
      </trkpt>
      <trkpt lat="42.7035280" lon="-0.0628670">
        <ele>2252.6</ele>
        <time>2022-07-23T11:03:22Z</time>
      </trkpt>
      <trkpt lat="42.7035290" lon="-0.0628540">
        <ele>2252.6</ele>
        <time>2022-07-23T11:03:23Z</time>
      </trkpt>
      <trkpt lat="42.7035280" lon="-0.0628390">
        <ele>2252.8</ele>
        <time>2022-07-23T11:03:24Z</time>
      </trkpt>
      <trkpt lat="42.7035230" lon="-0.0628330">
        <ele>2253.0</ele>
        <time>2022-07-23T11:03:25Z</time>
      </trkpt>
      <trkpt lat="42.7035310" lon="-0.0627470">
        <ele>2253.8</ele>
        <time>2022-07-23T11:03:32Z</time>
      </trkpt>
      <trkpt lat="42.7035350" lon="-0.0627230">
        <ele>2254.4</ele>
        <time>2022-07-23T11:03:34Z</time>
      </trkpt>
      <trkpt lat="42.7035340" lon="-0.0627140">
        <ele>2254.8</ele>
        <time>2022-07-23T11:03:35Z</time>
      </trkpt>
      <trkpt lat="42.7035110" lon="-0.0626500">
        <ele>2256.4</ele>
        <time>2022-07-23T11:03:43Z</time>
      </trkpt>
      <trkpt lat="42.7035000" lon="-0.0625860">
        <ele>2258.4</ele>
        <time>2022-07-23T11:03:49Z</time>
      </trkpt>
      <trkpt lat="42.7035050" lon="-0.0625330">
        <ele>2258.8</ele>
        <time>2022-07-23T11:03:54Z</time>
      </trkpt>
      <trkpt lat="42.7034940" lon="-0.0624580">
        <ele>2260.2</ele>
        <time>2022-07-23T11:04:02Z</time>
      </trkpt>
      <trkpt lat="42.7034920" lon="-0.0624320">
        <ele>2260.6</ele>
        <time>2022-07-23T11:04:05Z</time>
      </trkpt>
      <trkpt lat="42.7034890" lon="-0.0623830">
        <ele>2261.0</ele>
        <time>2022-07-23T11:04:09Z</time>
      </trkpt>
      <trkpt lat="42.7034640" lon="-0.0622090">
        <ele>2263.4</ele>
        <time>2022-07-23T11:04:23Z</time>
      </trkpt>
      <trkpt lat="42.7034660" lon="-0.0621070">
        <ele>2264.0</ele>
        <time>2022-07-23T11:04:30Z</time>
      </trkpt>
      <trkpt lat="42.7034720" lon="-0.0619990">
        <ele>2264.2</ele>
        <time>2022-07-23T11:04:40Z</time>
      </trkpt>
      <trkpt lat="42.7034460" lon="-0.0619710">
        <ele>2264.6</ele>
        <time>2022-07-23T11:04:45Z</time>
      </trkpt>
      <trkpt lat="42.7034410" lon="-0.0619670">
        <ele>2264.8</ele>
        <time>2022-07-23T11:04:46Z</time>
      </trkpt>
      <trkpt lat="42.7034370" lon="-0.0619600">
        <ele>2264.8</ele>
        <time>2022-07-23T11:04:47Z</time>
      </trkpt>
      <trkpt lat="42.7034310" lon="-0.0619540">
        <ele>2265.0</ele>
        <time>2022-07-23T11:04:48Z</time>
      </trkpt>
      <trkpt lat="42.7034160" lon="-0.0619360">
        <ele>2265.0</ele>
        <time>2022-07-23T11:04:51Z</time>
      </trkpt>
      <trkpt lat="42.7034080" lon="-0.0619310">
        <ele>2265.0</ele>
        <time>2022-07-23T11:04:52Z</time>
      </trkpt>
      <trkpt lat="42.7033780" lon="-0.0618810">
        <ele>2266.2</ele>
        <time>2022-07-23T11:04:58Z</time>
      </trkpt>
      <trkpt lat="42.7033710" lon="-0.0618730">
        <ele>2266.0</ele>
        <time>2022-07-23T11:04:59Z</time>
      </trkpt>
      <trkpt lat="42.7033500" lon="-0.0617840">
        <ele>2267.0</ele>
        <time>2022-07-23T11:05:06Z</time>
      </trkpt>
      <trkpt lat="42.7033050" lon="-0.0617240">
        <ele>2267.6</ele>
        <time>2022-07-23T11:05:13Z</time>
      </trkpt>
      <trkpt lat="42.7033000" lon="-0.0617240">
        <ele>2268.2</ele>
        <time>2022-07-23T11:05:19Z</time>
      </trkpt>
      <trkpt lat="42.7033040" lon="-0.0617270">
        <ele>2269.8</ele>
        <time>2022-07-23T11:05:37Z</time>
      </trkpt>
      <trkpt lat="42.7033010" lon="-0.0617250">
        <ele>2269.6</ele>
        <time>2022-07-23T11:06:07Z</time>
      </trkpt>
      <trkpt lat="42.7033040" lon="-0.0617210">
        <ele>2269.8</ele>
        <time>2022-07-23T11:06:50Z</time>
      </trkpt>
      <trkpt lat="42.7033030" lon="-0.0617220">
        <ele>2269.8</ele>
        <time>2022-07-23T11:06:59Z</time>
      </trkpt>
      <trkpt lat="42.7033040" lon="-0.0617190">
        <ele>2270.0</ele>
        <time>2022-07-23T11:07:12Z</time>
      </trkpt>
      <trkpt lat="42.7033020" lon="-0.0617130">
        <ele>2270.0</ele>
        <time>2022-07-23T11:07:14Z</time>
      </trkpt>
      <trkpt lat="42.7032990" lon="-0.0616490">
        <ele>2270.0</ele>
        <time>2022-07-23T11:07:20Z</time>
      </trkpt>
      <trkpt lat="42.7032900" lon="-0.0615870">
        <ele>2269.8</ele>
        <time>2022-07-23T11:07:25Z</time>
      </trkpt>
      <trkpt lat="42.7032710" lon="-0.0615030">
        <ele>2270.0</ele>
        <time>2022-07-23T11:07:32Z</time>
      </trkpt>
      <trkpt lat="42.7032700" lon="-0.0614620">
        <ele>2270.4</ele>
        <time>2022-07-23T11:07:35Z</time>
      </trkpt>
      <trkpt lat="42.7032690" lon="-0.0614500">
        <ele>2270.6</ele>
        <time>2022-07-23T11:07:36Z</time>
      </trkpt>
      <trkpt lat="42.7032660" lon="-0.0614220">
        <ele>2271.0</ele>
        <time>2022-07-23T11:07:38Z</time>
      </trkpt>
      <trkpt lat="42.7032650" lon="-0.0614070">
        <ele>2271.2</ele>
        <time>2022-07-23T11:07:39Z</time>
      </trkpt>
      <trkpt lat="42.7032610" lon="-0.0613310">
        <ele>2272.2</ele>
        <time>2022-07-23T11:07:44Z</time>
      </trkpt>
      <trkpt lat="42.7032460" lon="-0.0612460">
        <ele>2273.8</ele>
        <time>2022-07-23T11:07:51Z</time>
      </trkpt>
      <trkpt lat="42.7032390" lon="-0.0611710">
        <ele>2274.4</ele>
        <time>2022-07-23T11:07:58Z</time>
      </trkpt>
      <trkpt lat="42.7032390" lon="-0.0611580">
        <ele>2274.8</ele>
        <time>2022-07-23T11:07:59Z</time>
      </trkpt>
      <trkpt lat="42.7032370" lon="-0.0611210">
        <ele>2274.8</ele>
        <time>2022-07-23T11:08:02Z</time>
      </trkpt>
      <trkpt lat="42.7032380" lon="-0.0610920">
        <ele>2275.0</ele>
        <time>2022-07-23T11:08:06Z</time>
      </trkpt>
      <trkpt lat="42.7032340" lon="-0.0610570">
        <ele>2275.2</ele>
        <time>2022-07-23T11:08:09Z</time>
      </trkpt>
      <trkpt lat="42.7032420" lon="-0.0610060">
        <ele>2275.6</ele>
        <time>2022-07-23T11:08:12Z</time>
      </trkpt>
      <trkpt lat="42.7032540" lon="-0.0609600">
        <ele>2275.8</ele>
        <time>2022-07-23T11:08:15Z</time>
      </trkpt>
      <trkpt lat="42.7032520" lon="-0.0609480">
        <ele>2275.8</ele>
        <time>2022-07-23T11:08:16Z</time>
      </trkpt>
      <trkpt lat="42.7032580" lon="-0.0609260">
        <ele>2276.0</ele>
        <time>2022-07-23T11:08:18Z</time>
      </trkpt>
      <trkpt lat="42.7032610" lon="-0.0608960">
        <ele>2276.0</ele>
        <time>2022-07-23T11:08:20Z</time>
      </trkpt>
      <trkpt lat="42.7032430" lon="-0.0607150">
        <ele>2277.2</ele>
        <time>2022-07-23T11:08:31Z</time>
      </trkpt>
      <trkpt lat="42.7032290" lon="-0.0605760">
        <ele>2277.2</ele>
        <time>2022-07-23T11:08:40Z</time>
      </trkpt>
      <trkpt lat="42.7032280" lon="-0.0605270">
        <ele>2277.2</ele>
        <time>2022-07-23T11:08:43Z</time>
      </trkpt>
      <trkpt lat="42.7032210" lon="-0.0604350">
        <ele>2277.4</ele>
        <time>2022-07-23T11:08:50Z</time>
      </trkpt>
      <trkpt lat="42.7031970" lon="-0.0603930">
        <ele>2277.6</ele>
        <time>2022-07-23T11:08:54Z</time>
      </trkpt>
      <trkpt lat="42.7031800" lon="-0.0603240">
        <ele>2278.6</ele>
        <time>2022-07-23T11:09:00Z</time>
      </trkpt>
      <trkpt lat="42.7031820" lon="-0.0603120">
        <ele>2278.4</ele>
        <time>2022-07-23T11:09:01Z</time>
      </trkpt>
      <trkpt lat="42.7031780" lon="-0.0602830">
        <ele>2278.6</ele>
        <time>2022-07-23T11:09:04Z</time>
      </trkpt>
      <trkpt lat="42.7031690" lon="-0.0602680">
        <ele>2278.8</ele>
        <time>2022-07-23T11:09:06Z</time>
      </trkpt>
      <trkpt lat="42.7031730" lon="-0.0602320">
        <ele>2279.4</ele>
        <time>2022-07-23T11:09:09Z</time>
      </trkpt>
      <trkpt lat="42.7031840" lon="-0.0601950">
        <ele>2279.6</ele>
        <time>2022-07-23T11:09:12Z</time>
      </trkpt>
      <trkpt lat="42.7031890" lon="-0.0601790">
        <ele>2279.8</ele>
        <time>2022-07-23T11:09:13Z</time>
      </trkpt>
      <trkpt lat="42.7032020" lon="-0.0600750">
        <ele>2281.6</ele>
        <time>2022-07-23T11:09:20Z</time>
      </trkpt>
      <trkpt lat="42.7031670" lon="-0.0599290">
        <ele>2282.2</ele>
        <time>2022-07-23T11:09:30Z</time>
      </trkpt>
      <trkpt lat="42.7031610" lon="-0.0598940">
        <ele>2282.2</ele>
        <time>2022-07-23T11:09:32Z</time>
      </trkpt>
      <trkpt lat="42.7031120" lon="-0.0597540">
        <ele>2281.2</ele>
        <time>2022-07-23T11:09:41Z</time>
      </trkpt>
      <trkpt lat="42.7030990" lon="-0.0596270">
        <ele>2281.0</ele>
        <time>2022-07-23T11:09:50Z</time>
      </trkpt>
      <trkpt lat="42.7031140" lon="-0.0595860">
        <ele>2281.0</ele>
        <time>2022-07-23T11:09:52Z</time>
      </trkpt>
      <trkpt lat="42.7031410" lon="-0.0594520">
        <ele>2280.8</ele>
        <time>2022-07-23T11:09:58Z</time>
      </trkpt>
      <trkpt lat="42.7031090" lon="-0.0592910">
        <ele>2280.2</ele>
        <time>2022-07-23T11:10:07Z</time>
      </trkpt>
      <trkpt lat="42.7030720" lon="-0.0592410">
        <ele>2280.0</ele>
        <time>2022-07-23T11:10:11Z</time>
      </trkpt>
      <trkpt lat="42.7030760" lon="-0.0591500">
        <ele>2279.6</ele>
        <time>2022-07-23T11:10:16Z</time>
      </trkpt>
      <trkpt lat="42.7030900" lon="-0.0590620">
        <ele>2279.2</ele>
        <time>2022-07-23T11:10:21Z</time>
      </trkpt>
      <trkpt lat="42.7030550" lon="-0.0590150">
        <ele>2279.2</ele>
        <time>2022-07-23T11:10:26Z</time>
      </trkpt>
      <trkpt lat="42.7030260" lon="-0.0589660">
        <ele>2279.0</ele>
        <time>2022-07-23T11:10:30Z</time>
      </trkpt>
      <trkpt lat="42.7030190" lon="-0.0588520">
        <ele>2278.8</ele>
        <time>2022-07-23T11:10:35Z</time>
      </trkpt>
      <trkpt lat="42.7029810" lon="-0.0587080">
        <ele>2277.8</ele>
        <time>2022-07-23T11:10:42Z</time>
      </trkpt>
      <trkpt lat="42.7029180" lon="-0.0585990">
        <ele>2277.0</ele>
        <time>2022-07-23T11:10:50Z</time>
      </trkpt>
      <trkpt lat="42.7029150" lon="-0.0584770">
        <ele>2277.0</ele>
        <time>2022-07-23T11:10:57Z</time>
      </trkpt>
      <trkpt lat="42.7028660" lon="-0.0583730">
        <ele>2277.0</ele>
        <time>2022-07-23T11:11:05Z</time>
      </trkpt>
      <trkpt lat="42.7028860" lon="-0.0582610">
        <ele>2277.0</ele>
        <time>2022-07-23T11:11:12Z</time>
      </trkpt>
      <trkpt lat="42.7028910" lon="-0.0582230">
        <ele>2277.0</ele>
        <time>2022-07-23T11:11:14Z</time>
      </trkpt>
      <trkpt lat="42.7028610" lon="-0.0581270">
        <ele>2276.8</ele>
        <time>2022-07-23T11:11:20Z</time>
      </trkpt>
      <trkpt lat="42.7028580" lon="-0.0579810">
        <ele>2276.2</ele>
        <time>2022-07-23T11:11:28Z</time>
      </trkpt>
      <trkpt lat="42.7028920" lon="-0.0578370">
        <ele>2276.2</ele>
        <time>2022-07-23T11:11:35Z</time>
      </trkpt>
      <trkpt lat="42.7029040" lon="-0.0578090">
        <ele>2276.2</ele>
        <time>2022-07-23T11:11:36Z</time>
      </trkpt>
      <trkpt lat="42.7029450" lon="-0.0577060">
        <ele>2275.8</ele>
        <time>2022-07-23T11:11:42Z</time>
      </trkpt>
      <trkpt lat="42.7029130" lon="-0.0576820">
        <ele>2275.2</ele>
        <time>2022-07-23T11:11:45Z</time>
      </trkpt>
      <trkpt lat="42.7028680" lon="-0.0575270">
        <ele>2274.0</ele>
        <time>2022-07-23T11:11:54Z</time>
      </trkpt>
      <trkpt lat="42.7028640" lon="-0.0574590">
        <ele>2273.6</ele>
        <time>2022-07-23T11:11:58Z</time>
      </trkpt>
      <trkpt lat="42.7028570" lon="-0.0574210">
        <ele>2273.4</ele>
        <time>2022-07-23T11:12:01Z</time>
      </trkpt>
      <trkpt lat="42.7028450" lon="-0.0574060">
        <ele>2273.2</ele>
        <time>2022-07-23T11:12:02Z</time>
      </trkpt>
      <trkpt lat="42.7028190" lon="-0.0573150">
        <ele>2272.8</ele>
        <time>2022-07-23T11:12:07Z</time>
      </trkpt>
      <trkpt lat="42.7028140" lon="-0.0572910">
        <ele>2272.8</ele>
        <time>2022-07-23T11:12:09Z</time>
      </trkpt>
      <trkpt lat="42.7028010" lon="-0.0572670">
        <ele>2272.8</ele>
        <time>2022-07-23T11:12:12Z</time>
      </trkpt>
      <trkpt lat="42.7027740" lon="-0.0571950">
        <ele>2272.6</ele>
        <time>2022-07-23T11:12:17Z</time>
      </trkpt>
      <trkpt lat="42.7027850" lon="-0.0571030">
        <ele>2272.8</ele>
        <time>2022-07-23T11:12:22Z</time>
      </trkpt>
      <trkpt lat="42.7027710" lon="-0.0570720">
        <ele>2273.0</ele>
        <time>2022-07-23T11:12:25Z</time>
      </trkpt>
      <trkpt lat="42.7027490" lon="-0.0570600">
        <ele>2273.0</ele>
        <time>2022-07-23T11:12:27Z</time>
      </trkpt>
      <trkpt lat="42.7027330" lon="-0.0570110">
        <ele>2273.0</ele>
        <time>2022-07-23T11:12:33Z</time>
      </trkpt>
      <trkpt lat="42.7027310" lon="-0.0569650">
        <ele>2273.2</ele>
        <time>2022-07-23T11:12:36Z</time>
      </trkpt>
      <trkpt lat="42.7027420" lon="-0.0568980">
        <ele>2273.4</ele>
        <time>2022-07-23T11:12:39Z</time>
      </trkpt>
      <trkpt lat="42.7027360" lon="-0.0568640">
        <ele>2273.6</ele>
        <time>2022-07-23T11:12:41Z</time>
      </trkpt>
      <trkpt lat="42.7026920" lon="-0.0568170">
        <ele>2273.4</ele>
        <time>2022-07-23T11:12:47Z</time>
      </trkpt>
      <trkpt lat="42.7026290" lon="-0.0567830">
        <ele>2273.2</ele>
        <time>2022-07-23T11:12:53Z</time>
      </trkpt>
      <trkpt lat="42.7026270" lon="-0.0567530">
        <ele>2273.4</ele>
        <time>2022-07-23T11:12:55Z</time>
      </trkpt>
      <trkpt lat="42.7026440" lon="-0.0566480">
        <ele>2273.0</ele>
        <time>2022-07-23T11:13:01Z</time>
      </trkpt>
      <trkpt lat="42.7026100" lon="-0.0565180">
        <ele>2272.0</ele>
        <time>2022-07-23T11:13:09Z</time>
      </trkpt>
      <trkpt lat="42.7025710" lon="-0.0564040">
        <ele>2271.8</ele>
        <time>2022-07-23T11:13:17Z</time>
      </trkpt>
      <trkpt lat="42.7025720" lon="-0.0562570">
        <ele>2271.8</ele>
        <time>2022-07-23T11:13:24Z</time>
      </trkpt>
      <trkpt lat="42.7025680" lon="-0.0562280">
        <ele>2271.6</ele>
        <time>2022-07-23T11:13:26Z</time>
      </trkpt>
      <trkpt lat="42.7025090" lon="-0.0561040">
        <ele>2270.8</ele>
        <time>2022-07-23T11:13:35Z</time>
      </trkpt>
      <trkpt lat="42.7024450" lon="-0.0559770">
        <ele>2270.4</ele>
        <time>2022-07-23T11:13:44Z</time>
      </trkpt>
      <trkpt lat="42.7023620" lon="-0.0558390">
        <ele>2270.2</ele>
        <time>2022-07-23T11:13:54Z</time>
      </trkpt>
      <trkpt lat="42.7023300" lon="-0.0557290">
        <ele>2270.2</ele>
        <time>2022-07-23T11:14:01Z</time>
      </trkpt>
      <trkpt lat="42.7022800" lon="-0.0555860">
        <ele>2270.0</ele>
        <time>2022-07-23T11:14:09Z</time>
      </trkpt>
      <trkpt lat="42.7022610" lon="-0.0554900">
        <ele>2270.0</ele>
        <time>2022-07-23T11:14:16Z</time>
      </trkpt>
      <trkpt lat="42.7022840" lon="-0.0553600">
        <ele>2270.0</ele>
        <time>2022-07-23T11:14:24Z</time>
      </trkpt>
      <trkpt lat="42.7022880" lon="-0.0553370">
        <ele>2269.8</ele>
        <time>2022-07-23T11:14:25Z</time>
      </trkpt>
      <trkpt lat="42.7022990" lon="-0.0551840">
        <ele>2269.2</ele>
        <time>2022-07-23T11:14:33Z</time>
      </trkpt>
      <trkpt lat="42.7023130" lon="-0.0550100">
        <ele>2268.6</ele>
        <time>2022-07-23T11:14:43Z</time>
      </trkpt>
      <trkpt lat="42.7023160" lon="-0.0549320">
        <ele>2268.4</ele>
        <time>2022-07-23T11:14:47Z</time>
      </trkpt>
      <trkpt lat="42.7023150" lon="-0.0549170">
        <ele>2268.4</ele>
        <time>2022-07-23T11:14:48Z</time>
      </trkpt>
      <trkpt lat="42.7023160" lon="-0.0548410">
        <ele>2268.4</ele>
        <time>2022-07-23T11:14:52Z</time>
      </trkpt>
      <trkpt lat="42.7023020" lon="-0.0547140">
        <ele>2268.6</ele>
        <time>2022-07-23T11:15:01Z</time>
      </trkpt>
      <trkpt lat="42.7022710" lon="-0.0545450">
        <ele>2269.2</ele>
        <time>2022-07-23T11:15:10Z</time>
      </trkpt>
      <trkpt lat="42.7022430" lon="-0.0544540">
        <ele>2269.0</ele>
        <time>2022-07-23T11:15:18Z</time>
      </trkpt>
      <trkpt lat="42.7023000" lon="-0.0543390">
        <ele>2268.6</ele>
        <time>2022-07-23T11:15:26Z</time>
      </trkpt>
      <trkpt lat="42.7023210" lon="-0.0542060">
        <ele>2268.8</ele>
        <time>2022-07-23T11:15:33Z</time>
      </trkpt>
      <trkpt lat="42.7023260" lon="-0.0541920">
        <ele>2268.6</ele>
        <time>2022-07-23T11:15:34Z</time>
      </trkpt>
      <trkpt lat="42.7023860" lon="-0.0540680">
        <ele>2269.0</ele>
        <time>2022-07-23T11:15:41Z</time>
      </trkpt>
      <trkpt lat="42.7024110" lon="-0.0539610">
        <ele>2269.4</ele>
        <time>2022-07-23T11:15:48Z</time>
      </trkpt>
      <trkpt lat="42.7023880" lon="-0.0538390">
        <ele>2270.0</ele>
        <time>2022-07-23T11:15:56Z</time>
      </trkpt>
      <trkpt lat="42.7023790" lon="-0.0538280">
        <ele>2270.2</ele>
        <time>2022-07-23T11:15:57Z</time>
      </trkpt>
      <trkpt lat="42.7023330" lon="-0.0537310">
        <ele>2271.2</ele>
        <time>2022-07-23T11:16:04Z</time>
      </trkpt>
      <trkpt lat="42.7023510" lon="-0.0535260">
        <ele>2272.2</ele>
        <time>2022-07-23T11:16:15Z</time>
      </trkpt>
      <trkpt lat="42.7023560" lon="-0.0533550">
        <ele>2272.4</ele>
        <time>2022-07-23T11:16:24Z</time>
      </trkpt>
      <trkpt lat="42.7023650" lon="-0.0532450">
        <ele>2272.4</ele>
        <time>2022-07-23T11:16:31Z</time>
      </trkpt>
      <trkpt lat="42.7023900" lon="-0.0531540">
        <ele>2271.6</ele>
        <time>2022-07-23T11:16:35Z</time>
      </trkpt>
      <trkpt lat="42.7023950" lon="-0.0531120">
        <ele>2271.2</ele>
        <time>2022-07-23T11:16:37Z</time>
      </trkpt>
      <trkpt lat="42.7024070" lon="-0.0529810">
        <ele>2270.4</ele>
        <time>2022-07-23T11:16:44Z</time>
      </trkpt>
      <trkpt lat="42.7023970" lon="-0.0528430">
        <ele>2269.6</ele>
        <time>2022-07-23T11:16:52Z</time>
      </trkpt>
      <trkpt lat="42.7024070" lon="-0.0528100">
        <ele>2269.6</ele>
        <time>2022-07-23T11:16:54Z</time>
      </trkpt>
      <trkpt lat="42.7024030" lon="-0.0526830">
        <ele>2268.6</ele>
        <time>2022-07-23T11:17:04Z</time>
      </trkpt>
      <trkpt lat="42.7024290" lon="-0.0525410">
        <ele>2268.2</ele>
        <time>2022-07-23T11:17:12Z</time>
      </trkpt>
      <trkpt lat="42.7024720" lon="-0.0523760">
        <ele>2268.2</ele>
        <time>2022-07-23T11:17:19Z</time>
      </trkpt>
      <trkpt lat="42.7024730" lon="-0.0523560">
        <ele>2268.2</ele>
        <time>2022-07-23T11:17:20Z</time>
      </trkpt>
      <trkpt lat="42.7024720" lon="-0.0523450">
        <ele>2268.0</ele>
        <time>2022-07-23T11:17:21Z</time>
      </trkpt>
      <trkpt lat="42.7024710" lon="-0.0523220">
        <ele>2268.0</ele>
        <time>2022-07-23T11:17:22Z</time>
      </trkpt>
      <trkpt lat="42.7024770" lon="-0.0522900">
        <ele>2268.2</ele>
        <time>2022-07-23T11:17:24Z</time>
      </trkpt>
      <trkpt lat="42.7024730" lon="-0.0522350">
        <ele>2268.0</ele>
        <time>2022-07-23T11:17:27Z</time>
      </trkpt>
      <trkpt lat="42.7024960" lon="-0.0520770">
        <ele>2268.6</ele>
        <time>2022-07-23T11:17:36Z</time>
      </trkpt>
      <trkpt lat="42.7025280" lon="-0.0519800">
        <ele>2268.6</ele>
        <time>2022-07-23T11:17:41Z</time>
      </trkpt>
      <trkpt lat="42.7025300" lon="-0.0519530">
        <ele>2268.6</ele>
        <time>2022-07-23T11:17:43Z</time>
      </trkpt>
      <trkpt lat="42.7025280" lon="-0.0517980">
        <ele>2269.8</ele>
        <time>2022-07-23T11:17:52Z</time>
      </trkpt>
      <trkpt lat="42.7025220" lon="-0.0516230">
        <ele>2270.4</ele>
        <time>2022-07-23T11:18:01Z</time>
      </trkpt>
      <trkpt lat="42.7024830" lon="-0.0515240">
        <ele>2270.8</ele>
        <time>2022-07-23T11:18:08Z</time>
      </trkpt>
      <trkpt lat="42.7024550" lon="-0.0514990">
        <ele>2270.8</ele>
        <time>2022-07-23T11:18:12Z</time>
      </trkpt>
      <trkpt lat="42.7024520" lon="-0.0514920">
        <ele>2271.2</ele>
        <time>2022-07-23T11:18:13Z</time>
      </trkpt>
      <trkpt lat="42.7024400" lon="-0.0514750">
        <ele>2271.2</ele>
        <time>2022-07-23T11:18:15Z</time>
      </trkpt>
      <trkpt lat="42.7023710" lon="-0.0514110">
        <ele>2272.6</ele>
        <time>2022-07-23T11:18:22Z</time>
      </trkpt>
      <trkpt lat="42.7023630" lon="-0.0514040">
        <ele>2272.6</ele>
        <time>2022-07-23T11:18:23Z</time>
      </trkpt>
      <trkpt lat="42.7023380" lon="-0.0513660">
        <ele>2273.0</ele>
        <time>2022-07-23T11:18:27Z</time>
      </trkpt>
      <trkpt lat="42.7023340" lon="-0.0513560">
        <ele>2273.2</ele>
        <time>2022-07-23T11:18:28Z</time>
      </trkpt>
      <trkpt lat="42.7023230" lon="-0.0513390">
        <ele>2273.6</ele>
        <time>2022-07-23T11:18:30Z</time>
      </trkpt>
      <trkpt lat="42.7023180" lon="-0.0513180">
        <ele>2273.6</ele>
        <time>2022-07-23T11:18:32Z</time>
      </trkpt>
      <trkpt lat="42.7023150" lon="-0.0513070">
        <ele>2273.8</ele>
        <time>2022-07-23T11:18:33Z</time>
      </trkpt>
      <trkpt lat="42.7023030" lon="-0.0512740">
        <ele>2274.2</ele>
        <time>2022-07-23T11:18:36Z</time>
      </trkpt>
      <trkpt lat="42.7022880" lon="-0.0512390">
        <ele>2274.4</ele>
        <time>2022-07-23T11:18:39Z</time>
      </trkpt>
      <trkpt lat="42.7022720" lon="-0.0511850">
        <ele>2275.0</ele>
        <time>2022-07-23T11:18:44Z</time>
      </trkpt>
      <trkpt lat="42.7022760" lon="-0.0511710">
        <ele>2275.2</ele>
        <time>2022-07-23T11:18:45Z</time>
      </trkpt>
      <trkpt lat="42.7022740" lon="-0.0511390">
        <ele>2275.6</ele>
        <time>2022-07-23T11:18:47Z</time>
      </trkpt>
      <trkpt lat="42.7022740" lon="-0.0510020">
        <ele>2276.6</ele>
        <time>2022-07-23T11:18:55Z</time>
      </trkpt>
      <trkpt lat="42.7022700" lon="-0.0509870">
        <ele>2276.6</ele>
        <time>2022-07-23T11:18:56Z</time>
      </trkpt>
      <trkpt lat="42.7022410" lon="-0.0508870">
        <ele>2277.0</ele>
        <time>2022-07-23T11:19:03Z</time>
      </trkpt>
      <trkpt lat="42.7023000" lon="-0.0507600">
        <ele>2277.2</ele>
        <time>2022-07-23T11:19:11Z</time>
      </trkpt>
      <trkpt lat="42.7023060" lon="-0.0507480">
        <ele>2277.4</ele>
        <time>2022-07-23T11:19:12Z</time>
      </trkpt>
      <trkpt lat="42.7023190" lon="-0.0507140">
        <ele>2277.4</ele>
        <time>2022-07-23T11:19:15Z</time>
      </trkpt>
      <trkpt lat="42.7023170" lon="-0.0506790">
        <ele>2277.4</ele>
        <time>2022-07-23T11:19:18Z</time>
      </trkpt>
      <trkpt lat="42.7023090" lon="-0.0506490">
        <ele>2277.6</ele>
        <time>2022-07-23T11:19:20Z</time>
      </trkpt>
      <trkpt lat="42.7023050" lon="-0.0505990">
        <ele>2277.6</ele>
        <time>2022-07-23T11:19:23Z</time>
      </trkpt>
      <trkpt lat="42.7022920" lon="-0.0505550">
        <ele>2277.6</ele>
        <time>2022-07-23T11:19:26Z</time>
      </trkpt>
      <trkpt lat="42.7022780" lon="-0.0505360">
        <ele>2277.8</ele>
        <time>2022-07-23T11:19:28Z</time>
      </trkpt>
      <trkpt lat="42.7022610" lon="-0.0504950">
        <ele>2278.0</ele>
        <time>2022-07-23T11:19:31Z</time>
      </trkpt>
      <trkpt lat="42.7022330" lon="-0.0504740">
        <ele>2278.4</ele>
        <time>2022-07-23T11:19:35Z</time>
      </trkpt>
      <trkpt lat="42.7022340" lon="-0.0504500">
        <ele>2278.6</ele>
        <time>2022-07-23T11:19:37Z</time>
      </trkpt>
      <trkpt lat="42.7022390" lon="-0.0504130">
        <ele>2278.8</ele>
        <time>2022-07-23T11:19:39Z</time>
      </trkpt>
      <trkpt lat="42.7022130" lon="-0.0503680">
        <ele>2279.2</ele>
        <time>2022-07-23T11:19:43Z</time>
      </trkpt>
      <trkpt lat="42.7022000" lon="-0.0503440">
        <ele>2279.6</ele>
        <time>2022-07-23T11:19:45Z</time>
      </trkpt>
      <trkpt lat="42.7021620" lon="-0.0502420">
        <ele>2281.0</ele>
        <time>2022-07-23T11:19:53Z</time>
      </trkpt>
      <trkpt lat="42.7021590" lon="-0.0502260">
        <ele>2281.4</ele>
        <time>2022-07-23T11:19:54Z</time>
      </trkpt>
      <trkpt lat="42.7021540" lon="-0.0501790">
        <ele>2281.6</ele>
        <time>2022-07-23T11:19:57Z</time>
      </trkpt>
      <trkpt lat="42.7021480" lon="-0.0501180">
        <ele>2281.8</ele>
        <time>2022-07-23T11:20:02Z</time>
      </trkpt>
      <trkpt lat="42.7021530" lon="-0.0501020">
        <ele>2281.6</ele>
        <time>2022-07-23T11:20:03Z</time>
      </trkpt>
      <trkpt lat="42.7021490" lon="-0.0500490">
        <ele>2282.2</ele>
        <time>2022-07-23T11:20:08Z</time>
      </trkpt>
      <trkpt lat="42.7021480" lon="-0.0500330">
        <ele>2282.0</ele>
        <time>2022-07-23T11:20:09Z</time>
      </trkpt>
      <trkpt lat="42.7021440" lon="-0.0500210">
        <ele>2282.2</ele>
        <time>2022-07-23T11:20:10Z</time>
      </trkpt>
      <trkpt lat="42.7021420" lon="-0.0499470">
        <ele>2282.8</ele>
        <time>2022-07-23T11:20:14Z</time>
      </trkpt>
      <trkpt lat="42.7021330" lon="-0.0498890">
        <ele>2283.6</ele>
        <time>2022-07-23T11:20:18Z</time>
      </trkpt>
      <trkpt lat="42.7021400" lon="-0.0498350">
        <ele>2284.0</ele>
        <time>2022-07-23T11:20:21Z</time>
      </trkpt>
      <trkpt lat="42.7021400" lon="-0.0497590">
        <ele>2284.8</ele>
        <time>2022-07-23T11:20:26Z</time>
      </trkpt>
      <trkpt lat="42.7021390" lon="-0.0497300">
        <ele>2285.0</ele>
        <time>2022-07-23T11:20:29Z</time>
      </trkpt>
      <trkpt lat="42.7021320" lon="-0.0497050">
        <ele>2286.4</ele>
        <time>2022-07-23T11:20:35Z</time>
      </trkpt>
      <trkpt lat="42.7021390" lon="-0.0496550">
        <ele>2287.6</ele>
        <time>2022-07-23T11:20:40Z</time>
      </trkpt>
      <trkpt lat="42.7021400" lon="-0.0496450">
        <ele>2287.8</ele>
        <time>2022-07-23T11:20:41Z</time>
      </trkpt>
      <trkpt lat="42.7021360" lon="-0.0496370">
        <ele>2287.8</ele>
        <time>2022-07-23T11:20:42Z</time>
      </trkpt>
      <trkpt lat="42.7021160" lon="-0.0495770">
        <ele>2289.0</ele>
        <time>2022-07-23T11:20:48Z</time>
      </trkpt>
      <trkpt lat="42.7021100" lon="-0.0495090">
        <ele>2290.0</ele>
        <time>2022-07-23T11:20:52Z</time>
      </trkpt>
      <trkpt lat="42.7021240" lon="-0.0494810">
        <ele>2290.6</ele>
        <time>2022-07-23T11:20:55Z</time>
      </trkpt>
      <trkpt lat="42.7021260" lon="-0.0494720">
        <ele>2290.8</ele>
        <time>2022-07-23T11:20:56Z</time>
      </trkpt>
      <trkpt lat="42.7021280" lon="-0.0494580">
        <ele>2290.8</ele>
        <time>2022-07-23T11:20:57Z</time>
      </trkpt>
      <trkpt lat="42.7021340" lon="-0.0494120">
        <ele>2291.6</ele>
        <time>2022-07-23T11:21:03Z</time>
      </trkpt>
      <trkpt lat="42.7021410" lon="-0.0493970">
        <ele>2291.8</ele>
        <time>2022-07-23T11:21:04Z</time>
      </trkpt>
      <trkpt lat="42.7021470" lon="-0.0493790">
        <ele>2292.2</ele>
        <time>2022-07-23T11:21:05Z</time>
      </trkpt>
      <trkpt lat="42.7021230" lon="-0.0493400">
        <ele>2293.2</ele>
        <time>2022-07-23T11:21:10Z</time>
      </trkpt>
      <trkpt lat="42.7021150" lon="-0.0493310">
        <ele>2293.6</ele>
        <time>2022-07-23T11:21:12Z</time>
      </trkpt>
      <trkpt lat="42.7021040" lon="-0.0492980">
        <ele>2293.6</ele>
        <time>2022-07-23T11:21:15Z</time>
      </trkpt>
      <trkpt lat="42.7020990" lon="-0.0492790">
        <ele>2293.8</ele>
        <time>2022-07-23T11:21:17Z</time>
      </trkpt>
      <trkpt lat="42.7020950" lon="-0.0492520">
        <ele>2294.0</ele>
        <time>2022-07-23T11:21:19Z</time>
      </trkpt>
      <trkpt lat="42.7020910" lon="-0.0492130">
        <ele>2294.8</ele>
        <time>2022-07-23T11:21:23Z</time>
      </trkpt>
      <trkpt lat="42.7020870" lon="-0.0492060">
        <ele>2295.0</ele>
        <time>2022-07-23T11:21:24Z</time>
      </trkpt>
      <trkpt lat="42.7020730" lon="-0.0491010">
        <ele>2296.6</ele>
        <time>2022-07-23T11:21:31Z</time>
      </trkpt>
      <trkpt lat="42.7020810" lon="-0.0490220">
        <ele>2297.2</ele>
        <time>2022-07-23T11:21:34Z</time>
      </trkpt>
      <trkpt lat="42.7020780" lon="-0.0489900">
        <ele>2297.6</ele>
        <time>2022-07-23T11:21:35Z</time>
      </trkpt>
      <trkpt lat="42.7020740" lon="-0.0489550">
        <ele>2298.0</ele>
        <time>2022-07-23T11:21:37Z</time>
      </trkpt>
      <trkpt lat="42.7020670" lon="-0.0488950">
        <ele>2299.0</ele>
        <time>2022-07-23T11:21:43Z</time>
      </trkpt>
      <trkpt lat="42.7020630" lon="-0.0488780">
        <ele>2299.6</ele>
        <time>2022-07-23T11:21:44Z</time>
      </trkpt>
      <trkpt lat="42.7020710" lon="-0.0487990">
        <ele>2300.6</ele>
        <time>2022-07-23T11:21:51Z</time>
      </trkpt>
      <trkpt lat="42.7020770" lon="-0.0487850">
        <ele>2300.8</ele>
        <time>2022-07-23T11:21:53Z</time>
      </trkpt>
      <trkpt lat="42.7020800" lon="-0.0487840">
        <ele>2300.8</ele>
        <time>2022-07-23T11:21:54Z</time>
      </trkpt>
      <trkpt lat="42.7020830" lon="-0.0487740">
        <ele>2300.8</ele>
        <time>2022-07-23T11:21:55Z</time>
      </trkpt>
      <trkpt lat="42.7020910" lon="-0.0487490">
        <ele>2301.0</ele>
        <time>2022-07-23T11:21:59Z</time>
      </trkpt>
      <trkpt lat="42.7021030" lon="-0.0487060">
        <ele>2301.2</ele>
        <time>2022-07-23T11:22:03Z</time>
      </trkpt>
      <trkpt lat="42.7021040" lon="-0.0486970">
        <ele>2301.2</ele>
        <time>2022-07-23T11:22:07Z</time>
      </trkpt>
      <trkpt lat="42.7021050" lon="-0.0486630">
        <ele>2301.8</ele>
        <time>2022-07-23T11:22:13Z</time>
      </trkpt>
      <trkpt lat="42.7021050" lon="-0.0486480">
        <ele>2302.0</ele>
        <time>2022-07-23T11:22:14Z</time>
      </trkpt>
      <trkpt lat="42.7020900" lon="-0.0486240">
        <ele>2303.0</ele>
        <time>2022-07-23T11:22:17Z</time>
      </trkpt>
      <trkpt lat="42.7020780" lon="-0.0485990">
        <ele>2303.6</ele>
        <time>2022-07-23T11:22:19Z</time>
      </trkpt>
      <trkpt lat="42.7020610" lon="-0.0485550">
        <ele>2304.0</ele>
        <time>2022-07-23T11:22:22Z</time>
      </trkpt>
      <trkpt lat="42.7020540" lon="-0.0485460">
        <ele>2304.4</ele>
        <time>2022-07-23T11:22:23Z</time>
      </trkpt>
      <trkpt lat="42.7020420" lon="-0.0485200">
        <ele>2304.4</ele>
        <time>2022-07-23T11:22:25Z</time>
      </trkpt>
      <trkpt lat="42.7020370" lon="-0.0485030">
        <ele>2304.4</ele>
        <time>2022-07-23T11:22:26Z</time>
      </trkpt>
      <trkpt lat="42.7020300" lon="-0.0484890">
        <ele>2304.4</ele>
        <time>2022-07-23T11:22:27Z</time>
      </trkpt>
      <trkpt lat="42.7020260" lon="-0.0484040">
        <ele>2304.6</ele>
        <time>2022-07-23T11:22:31Z</time>
      </trkpt>
      <trkpt lat="42.7020140" lon="-0.0483990">
        <ele>2304.8</ele>
        <time>2022-07-23T11:22:32Z</time>
      </trkpt>
      <trkpt lat="42.7020070" lon="-0.0483690">
        <ele>2304.8</ele>
        <time>2022-07-23T11:22:35Z</time>
      </trkpt>
      <trkpt lat="42.7020150" lon="-0.0483310">
        <ele>2304.6</ele>
        <time>2022-07-23T11:22:39Z</time>
      </trkpt>
      <trkpt lat="42.7020150" lon="-0.0483220">
        <ele>2304.4</ele>
        <time>2022-07-23T11:22:40Z</time>
      </trkpt>
      <trkpt lat="42.7020540" lon="-0.0482360">
        <ele>2304.4</ele>
        <time>2022-07-23T11:22:46Z</time>
      </trkpt>
      <trkpt lat="42.7020810" lon="-0.0481100">
        <ele>2304.6</ele>
        <time>2022-07-23T11:22:51Z</time>
      </trkpt>
      <trkpt lat="42.7020990" lon="-0.0480700">
        <ele>2304.4</ele>
        <time>2022-07-23T11:22:53Z</time>
      </trkpt>
      <trkpt lat="42.7021060" lon="-0.0480360">
        <ele>2304.6</ele>
        <time>2022-07-23T11:22:55Z</time>
      </trkpt>
      <trkpt lat="42.7021120" lon="-0.0479990">
        <ele>2304.8</ele>
        <time>2022-07-23T11:22:57Z</time>
      </trkpt>
      <trkpt lat="42.7021280" lon="-0.0479340">
        <ele>2304.8</ele>
        <time>2022-07-23T11:23:00Z</time>
      </trkpt>
      <trkpt lat="42.7021310" lon="-0.0478930">
        <ele>2305.0</ele>
        <time>2022-07-23T11:23:03Z</time>
      </trkpt>
      <trkpt lat="42.7021270" lon="-0.0478380">
        <ele>2305.0</ele>
        <time>2022-07-23T11:23:07Z</time>
      </trkpt>
      <trkpt lat="42.7021210" lon="-0.0478160">
        <ele>2305.0</ele>
        <time>2022-07-23T11:23:08Z</time>
      </trkpt>
      <trkpt lat="42.7021230" lon="-0.0477340">
        <ele>2305.4</ele>
        <time>2022-07-23T11:23:12Z</time>
      </trkpt>
      <trkpt lat="42.7021190" lon="-0.0477220">
        <ele>2305.4</ele>
        <time>2022-07-23T11:23:13Z</time>
      </trkpt>
      <trkpt lat="42.7021140" lon="-0.0477230">
        <ele>2305.8</ele>
        <time>2022-07-23T11:23:17Z</time>
      </trkpt>
      <trkpt lat="42.7021520" lon="-0.0476060">
        <ele>2306.8</ele>
        <time>2022-07-23T11:23:22Z</time>
      </trkpt>
      <trkpt lat="42.7021620" lon="-0.0475380">
        <ele>2307.8</ele>
        <time>2022-07-23T11:23:27Z</time>
      </trkpt>
      <trkpt lat="42.7021390" lon="-0.0475370">
        <ele>2308.0</ele>
        <time>2022-07-23T11:23:30Z</time>
      </trkpt>
      <trkpt lat="42.7021220" lon="-0.0475400">
        <ele>2308.2</ele>
        <time>2022-07-23T11:23:32Z</time>
      </trkpt>
      <trkpt lat="42.7021130" lon="-0.0475420">
        <ele>2308.2</ele>
        <time>2022-07-23T11:23:33Z</time>
      </trkpt>
      <trkpt lat="42.7020560" lon="-0.0475600">
        <ele>2308.6</ele>
        <time>2022-07-23T11:23:40Z</time>
      </trkpt>
      <trkpt lat="42.7020200" lon="-0.0475780">
        <ele>2308.8</ele>
        <time>2022-07-23T11:23:44Z</time>
      </trkpt>
      <trkpt lat="42.7020140" lon="-0.0475770">
        <ele>2308.8</ele>
        <time>2022-07-23T11:23:45Z</time>
      </trkpt>
      <trkpt lat="42.7019970" lon="-0.0475750">
        <ele>2309.0</ele>
        <time>2022-07-23T11:23:47Z</time>
      </trkpt>
      <trkpt lat="42.7019620" lon="-0.0475700">
        <ele>2309.8</ele>
        <time>2022-07-23T11:23:51Z</time>
      </trkpt>
      <trkpt lat="42.7019070" lon="-0.0475540">
        <ele>2310.0</ele>
        <time>2022-07-23T11:23:55Z</time>
      </trkpt>
      <trkpt lat="42.7018970" lon="-0.0475140">
        <ele>2310.2</ele>
        <time>2022-07-23T11:23:58Z</time>
      </trkpt>
      <trkpt lat="42.7018790" lon="-0.0474900">
        <ele>2310.6</ele>
        <time>2022-07-23T11:24:01Z</time>
      </trkpt>
      <trkpt lat="42.7018620" lon="-0.0474400">
        <ele>2311.0</ele>
        <time>2022-07-23T11:24:06Z</time>
      </trkpt>
      <trkpt lat="42.7018580" lon="-0.0474310">
        <ele>2311.2</ele>
        <time>2022-07-23T11:24:07Z</time>
      </trkpt>
      <trkpt lat="42.7018610" lon="-0.0474140">
        <ele>2311.2</ele>
        <time>2022-07-23T11:24:08Z</time>
      </trkpt>
      <trkpt lat="42.7018590" lon="-0.0474020">
        <ele>2311.2</ele>
        <time>2022-07-23T11:24:09Z</time>
      </trkpt>
      <trkpt lat="42.7017730" lon="-0.0472750">
        <ele>2312.8</ele>
        <time>2022-07-23T11:24:20Z</time>
      </trkpt>
      <trkpt lat="42.7017480" lon="-0.0472660">
        <ele>2313.0</ele>
        <time>2022-07-23T11:24:22Z</time>
      </trkpt>
      <trkpt lat="42.7017160" lon="-0.0472110">
        <ele>2313.0</ele>
        <time>2022-07-23T11:24:26Z</time>
      </trkpt>
      <trkpt lat="42.7016830" lon="-0.0471620">
        <ele>2313.4</ele>
        <time>2022-07-23T11:24:31Z</time>
      </trkpt>
      <trkpt lat="42.7016760" lon="-0.0471460">
        <ele>2313.4</ele>
        <time>2022-07-23T11:24:33Z</time>
      </trkpt>
      <trkpt lat="42.7016490" lon="-0.0471200">
        <ele>2314.4</ele>
        <time>2022-07-23T11:24:37Z</time>
      </trkpt>
      <trkpt lat="42.7016350" lon="-0.0471010">
        <ele>2314.8</ele>
        <time>2022-07-23T11:24:39Z</time>
      </trkpt>
      <trkpt lat="42.7016270" lon="-0.0470900">
        <ele>2314.8</ele>
        <time>2022-07-23T11:24:40Z</time>
      </trkpt>
      <trkpt lat="42.7015790" lon="-0.0470100">
        <ele>2316.4</ele>
        <time>2022-07-23T11:24:49Z</time>
      </trkpt>
      <trkpt lat="42.7015670" lon="-0.0468950">
        <ele>2316.8</ele>
        <time>2022-07-23T11:24:57Z</time>
      </trkpt>
      <trkpt lat="42.7015580" lon="-0.0468590">
        <ele>2317.0</ele>
        <time>2022-07-23T11:25:00Z</time>
      </trkpt>
      <trkpt lat="42.7015580" lon="-0.0468480">
        <ele>2316.8</ele>
        <time>2022-07-23T11:25:01Z</time>
      </trkpt>
      <trkpt lat="42.7015360" lon="-0.0468190">
        <ele>2317.0</ele>
        <time>2022-07-23T11:25:05Z</time>
      </trkpt>
      <trkpt lat="42.7015180" lon="-0.0467710">
        <ele>2317.2</ele>
        <time>2022-07-23T11:25:09Z</time>
      </trkpt>
      <trkpt lat="42.7015110" lon="-0.0467640">
        <ele>2317.4</ele>
        <time>2022-07-23T11:25:10Z</time>
      </trkpt>
      <trkpt lat="42.7014930" lon="-0.0467590">
        <ele>2317.4</ele>
        <time>2022-07-23T11:25:12Z</time>
      </trkpt>
      <trkpt lat="42.7014740" lon="-0.0467360">
        <ele>2318.0</ele>
        <time>2022-07-23T11:25:15Z</time>
      </trkpt>
      <trkpt lat="42.7014540" lon="-0.0466830">
        <ele>2318.8</ele>
        <time>2022-07-23T11:25:19Z</time>
      </trkpt>
      <trkpt lat="42.7014550" lon="-0.0466140">
        <ele>2319.2</ele>
        <time>2022-07-23T11:25:24Z</time>
      </trkpt>
      <trkpt lat="42.7014500" lon="-0.0465880">
        <ele>2319.4</ele>
        <time>2022-07-23T11:25:26Z</time>
      </trkpt>
      <trkpt lat="42.7014590" lon="-0.0465360">
        <ele>2319.8</ele>
        <time>2022-07-23T11:25:32Z</time>
      </trkpt>
      <trkpt lat="42.7014530" lon="-0.0465210">
        <ele>2320.0</ele>
        <time>2022-07-23T11:25:34Z</time>
      </trkpt>
      <trkpt lat="42.7014460" lon="-0.0465140">
        <ele>2320.0</ele>
        <time>2022-07-23T11:25:35Z</time>
      </trkpt>
      <trkpt lat="42.7014400" lon="-0.0465030">
        <ele>2320.2</ele>
        <time>2022-07-23T11:25:36Z</time>
      </trkpt>
      <trkpt lat="42.7014250" lon="-0.0464520">
        <ele>2321.0</ele>
        <time>2022-07-23T11:25:39Z</time>
      </trkpt>
      <trkpt lat="42.7014210" lon="-0.0464360">
        <ele>2321.2</ele>
        <time>2022-07-23T11:25:40Z</time>
      </trkpt>
      <trkpt lat="42.7014310" lon="-0.0464200">
        <ele>2321.4</ele>
        <time>2022-07-23T11:25:42Z</time>
      </trkpt>
      <trkpt lat="42.7014310" lon="-0.0464190">
        <ele>2321.4</ele>
        <time>2022-07-23T11:25:43Z</time>
      </trkpt>
      <trkpt lat="42.7014360" lon="-0.0464060">
        <ele>2322.2</ele>
        <time>2022-07-23T11:25:48Z</time>
      </trkpt>
      <trkpt lat="42.7014330" lon="-0.0464000">
        <ele>2322.6</ele>
        <time>2022-07-23T11:25:49Z</time>
      </trkpt>
      <trkpt lat="42.7014240" lon="-0.0463360">
        <ele>2323.8</ele>
        <time>2022-07-23T11:25:57Z</time>
      </trkpt>
      <trkpt lat="42.7014110" lon="-0.0462600">
        <ele>2323.8</ele>
        <time>2022-07-23T11:26:03Z</time>
      </trkpt>
      <trkpt lat="42.7014060" lon="-0.0462470">
        <ele>2324.0</ele>
        <time>2022-07-23T11:26:04Z</time>
      </trkpt>
      <trkpt lat="42.7014020" lon="-0.0461310">
        <ele>2324.6</ele>
        <time>2022-07-23T11:26:11Z</time>
      </trkpt>
      <trkpt lat="42.7014190" lon="-0.0460810">
        <ele>2324.8</ele>
        <time>2022-07-23T11:26:15Z</time>
      </trkpt>
      <trkpt lat="42.7014250" lon="-0.0460580">
        <ele>2325.0</ele>
        <time>2022-07-23T11:26:16Z</time>
      </trkpt>
      <trkpt lat="42.7014390" lon="-0.0460130">
        <ele>2325.0</ele>
        <time>2022-07-23T11:26:18Z</time>
      </trkpt>
      <trkpt lat="42.7014700" lon="-0.0458490">
        <ele>2325.4</ele>
        <time>2022-07-23T11:26:25Z</time>
      </trkpt>
      <trkpt lat="42.7014730" lon="-0.0458380">
        <ele>2325.4</ele>
        <time>2022-07-23T11:26:26Z</time>
      </trkpt>
      <trkpt lat="42.7014880" lon="-0.0457840">
        <ele>2325.6</ele>
        <time>2022-07-23T11:26:29Z</time>
      </trkpt>
      <trkpt lat="42.7015070" lon="-0.0457560">
        <ele>2325.8</ele>
        <time>2022-07-23T11:26:31Z</time>
      </trkpt>
      <trkpt lat="42.7015150" lon="-0.0457470">
        <ele>2325.8</ele>
        <time>2022-07-23T11:26:32Z</time>
      </trkpt>
      <trkpt lat="42.7015390" lon="-0.0456410">
        <ele>2326.4</ele>
        <time>2022-07-23T11:26:38Z</time>
      </trkpt>
      <trkpt lat="42.7015380" lon="-0.0455470">
        <ele>2326.6</ele>
        <time>2022-07-23T11:26:44Z</time>
      </trkpt>
      <trkpt lat="42.7015260" lon="-0.0455550">
        <ele>2326.8</ele>
        <time>2022-07-23T11:26:46Z</time>
      </trkpt>
      <trkpt lat="42.7015160" lon="-0.0455570">
        <ele>2326.8</ele>
        <time>2022-07-23T11:26:47Z</time>
      </trkpt>
      <trkpt lat="42.7014940" lon="-0.0455620">
        <ele>2326.8</ele>
        <time>2022-07-23T11:26:50Z</time>
      </trkpt>
      <trkpt lat="42.7014450" lon="-0.0455130">
        <ele>2327.4</ele>
        <time>2022-07-23T11:26:57Z</time>
      </trkpt>
      <trkpt lat="42.7014290" lon="-0.0455090">
        <ele>2327.2</ele>
        <time>2022-07-23T11:26:58Z</time>
      </trkpt>
      <trkpt lat="42.7014150" lon="-0.0455050">
        <ele>2327.6</ele>
        <time>2022-07-23T11:26:59Z</time>
      </trkpt>
      <trkpt lat="42.7013340" lon="-0.0455000">
        <ele>2327.8</ele>
        <time>2022-07-23T11:27:03Z</time>
      </trkpt>
      <trkpt lat="42.7012850" lon="-0.0454950">
        <ele>2327.8</ele>
        <time>2022-07-23T11:27:05Z</time>
      </trkpt>
      <trkpt lat="42.7012750" lon="-0.0454750">
        <ele>2328.0</ele>
        <time>2022-07-23T11:27:07Z</time>
      </trkpt>
      <trkpt lat="42.7012790" lon="-0.0454470">
        <ele>2327.8</ele>
        <time>2022-07-23T11:27:09Z</time>
      </trkpt>
      <trkpt lat="42.7012810" lon="-0.0454230">
        <ele>2327.8</ele>
        <time>2022-07-23T11:27:11Z</time>
      </trkpt>
      <trkpt lat="42.7012890" lon="-0.0453820">
        <ele>2328.0</ele>
        <time>2022-07-23T11:27:14Z</time>
      </trkpt>
      <trkpt lat="42.7012910" lon="-0.0453660">
        <ele>2328.2</ele>
        <time>2022-07-23T11:27:15Z</time>
      </trkpt>
      <trkpt lat="42.7012990" lon="-0.0453500">
        <ele>2328.2</ele>
        <time>2022-07-23T11:27:16Z</time>
      </trkpt>
      <trkpt lat="42.7013020" lon="-0.0453380">
        <ele>2328.4</ele>
        <time>2022-07-23T11:27:17Z</time>
      </trkpt>
      <trkpt lat="42.7013030" lon="-0.0453260">
        <ele>2328.4</ele>
        <time>2022-07-23T11:27:18Z</time>
      </trkpt>
      <trkpt lat="42.7013130" lon="-0.0451970">
        <ele>2328.6</ele>
        <time>2022-07-23T11:27:26Z</time>
      </trkpt>
      <trkpt lat="42.7013110" lon="-0.0451470">
        <ele>2329.8</ele>
        <time>2022-07-23T11:27:31Z</time>
      </trkpt>
      <trkpt lat="42.7013010" lon="-0.0451400">
        <ele>2329.8</ele>
        <time>2022-07-23T11:27:33Z</time>
      </trkpt>
      <trkpt lat="42.7012960" lon="-0.0451310">
        <ele>2329.8</ele>
        <time>2022-07-23T11:27:34Z</time>
      </trkpt>
      <trkpt lat="42.7012950" lon="-0.0451200">
        <ele>2329.8</ele>
        <time>2022-07-23T11:27:35Z</time>
      </trkpt>
      <trkpt lat="42.7012920" lon="-0.0450960">
        <ele>2329.8</ele>
        <time>2022-07-23T11:27:37Z</time>
      </trkpt>
      <trkpt lat="42.7012770" lon="-0.0450300">
        <ele>2330.4</ele>
        <time>2022-07-23T11:27:43Z</time>
      </trkpt>
      <trkpt lat="42.7012910" lon="-0.0449840">
        <ele>2330.6</ele>
        <time>2022-07-23T11:27:47Z</time>
      </trkpt>
      <trkpt lat="42.7013120" lon="-0.0449290">
        <ele>2331.0</ele>
        <time>2022-07-23T11:27:52Z</time>
      </trkpt>
      <trkpt lat="42.7012960" lon="-0.0448950">
        <ele>2331.6</ele>
        <time>2022-07-23T11:27:57Z</time>
      </trkpt>
      <trkpt lat="42.7013020" lon="-0.0448720">
        <ele>2332.0</ele>
        <time>2022-07-23T11:27:59Z</time>
      </trkpt>
      <trkpt lat="42.7013160" lon="-0.0447400">
        <ele>2332.6</ele>
        <time>2022-07-23T11:28:08Z</time>
      </trkpt>
      <trkpt lat="42.7013160" lon="-0.0446770">
        <ele>2332.8</ele>
        <time>2022-07-23T11:28:10Z</time>
      </trkpt>
      <trkpt lat="42.7013250" lon="-0.0445940">
        <ele>2333.0</ele>
        <time>2022-07-23T11:28:13Z</time>
      </trkpt>
      <trkpt lat="42.7013460" lon="-0.0445030">
        <ele>2333.6</ele>
        <time>2022-07-23T11:28:18Z</time>
      </trkpt>
      <trkpt lat="42.7013380" lon="-0.0444940">
        <ele>2333.6</ele>
        <time>2022-07-23T11:28:19Z</time>
      </trkpt>
      <trkpt lat="42.7013210" lon="-0.0444740">
        <ele>2333.8</ele>
        <time>2022-07-23T11:28:21Z</time>
      </trkpt>
      <trkpt lat="42.7013100" lon="-0.0444060">
        <ele>2334.2</ele>
        <time>2022-07-23T11:28:27Z</time>
      </trkpt>
      <trkpt lat="42.7012920" lon="-0.0442790">
        <ele>2335.4</ele>
        <time>2022-07-23T11:28:35Z</time>
      </trkpt>
      <trkpt lat="42.7012880" lon="-0.0441430">
        <ele>2335.4</ele>
        <time>2022-07-23T11:28:43Z</time>
      </trkpt>
      <trkpt lat="42.7012640" lon="-0.0440190">
        <ele>2335.2</ele>
        <time>2022-07-23T11:28:53Z</time>
      </trkpt>
      <trkpt lat="42.7012520" lon="-0.0438920">
        <ele>2335.2</ele>
        <time>2022-07-23T11:29:02Z</time>
      </trkpt>
      <trkpt lat="42.7012550" lon="-0.0438570">
        <ele>2335.4</ele>
        <time>2022-07-23T11:29:04Z</time>
      </trkpt>
      <trkpt lat="42.7012280" lon="-0.0437850">
        <ele>2335.6</ele>
        <time>2022-07-23T11:29:09Z</time>
      </trkpt>
      <trkpt lat="42.7012230" lon="-0.0436380">
        <ele>2336.4</ele>
        <time>2022-07-23T11:29:18Z</time>
      </trkpt>
      <trkpt lat="42.7011920" lon="-0.0435160">
        <ele>2336.6</ele>
        <time>2022-07-23T11:29:26Z</time>
      </trkpt>
      <trkpt lat="42.7011460" lon="-0.0434050">
        <ele>2336.2</ele>
        <time>2022-07-23T11:29:34Z</time>
      </trkpt>
      <trkpt lat="42.7010840" lon="-0.0433330">
        <ele>2336.2</ele>
        <time>2022-07-23T11:29:42Z</time>
      </trkpt>
      <trkpt lat="42.7010630" lon="-0.0432630">
        <ele>2336.0</ele>
        <time>2022-07-23T11:29:47Z</time>
      </trkpt>
      <trkpt lat="42.7010290" lon="-0.0432080">
        <ele>2335.6</ele>
        <time>2022-07-23T11:29:52Z</time>
      </trkpt>
      <trkpt lat="42.7010150" lon="-0.0431760">
        <ele>2335.6</ele>
        <time>2022-07-23T11:29:55Z</time>
      </trkpt>
      <trkpt lat="42.7010010" lon="-0.0431170">
        <ele>2335.6</ele>
        <time>2022-07-23T11:29:59Z</time>
      </trkpt>
      <trkpt lat="42.7009790" lon="-0.0430460">
        <ele>2335.6</ele>
        <time>2022-07-23T11:30:07Z</time>
      </trkpt>
      <trkpt lat="42.7009440" lon="-0.0429400">
        <ele>2335.6</ele>
        <time>2022-07-23T11:30:15Z</time>
      </trkpt>
      <trkpt lat="42.7009080" lon="-0.0428200">
        <ele>2335.6</ele>
        <time>2022-07-23T11:30:22Z</time>
      </trkpt>
      <trkpt lat="42.7009010" lon="-0.0428050">
        <ele>2335.6</ele>
        <time>2022-07-23T11:30:23Z</time>
      </trkpt>
      <trkpt lat="42.7008630" lon="-0.0427100">
        <ele>2335.2</ele>
        <time>2022-07-23T11:30:29Z</time>
      </trkpt>
      <trkpt lat="42.7008370" lon="-0.0426370">
        <ele>2334.6</ele>
        <time>2022-07-23T11:30:34Z</time>
      </trkpt>
      <trkpt lat="42.7008140" lon="-0.0426010">
        <ele>2334.4</ele>
        <time>2022-07-23T11:30:37Z</time>
      </trkpt>
      <trkpt lat="42.7007470" lon="-0.0424850">
        <ele>2333.6</ele>
        <time>2022-07-23T11:30:46Z</time>
      </trkpt>
      <trkpt lat="42.7007390" lon="-0.0424420">
        <ele>2333.4</ele>
        <time>2022-07-23T11:30:49Z</time>
      </trkpt>
      <trkpt lat="42.7007360" lon="-0.0424180">
        <ele>2333.4</ele>
        <time>2022-07-23T11:30:51Z</time>
      </trkpt>
      <trkpt lat="42.7007300" lon="-0.0423790">
        <ele>2333.4</ele>
        <time>2022-07-23T11:30:54Z</time>
      </trkpt>
      <trkpt lat="42.7006830" lon="-0.0422730">
        <ele>2332.8</ele>
        <time>2022-07-23T11:31:02Z</time>
      </trkpt>
      <trkpt lat="42.7006730" lon="-0.0421800">
        <ele>2332.8</ele>
        <time>2022-07-23T11:31:09Z</time>
      </trkpt>
      <trkpt lat="42.7006760" lon="-0.0421260">
        <ele>2332.8</ele>
        <time>2022-07-23T11:31:12Z</time>
      </trkpt>
      <trkpt lat="42.7006610" lon="-0.0420710">
        <ele>2333.0</ele>
        <time>2022-07-23T11:31:17Z</time>
      </trkpt>
      <trkpt lat="42.7006590" lon="-0.0420450">
        <ele>2333.2</ele>
        <time>2022-07-23T11:31:19Z</time>
      </trkpt>
      <trkpt lat="42.7006620" lon="-0.0420320">
        <ele>2333.2</ele>
        <time>2022-07-23T11:31:20Z</time>
      </trkpt>
      <trkpt lat="42.7006390" lon="-0.0419230">
        <ele>2333.4</ele>
        <time>2022-07-23T11:31:28Z</time>
      </trkpt>
      <trkpt lat="42.7006350" lon="-0.0419120">
        <ele>2333.4</ele>
        <time>2022-07-23T11:31:29Z</time>
      </trkpt>
      <trkpt lat="42.7006370" lon="-0.0419010">
        <ele>2333.4</ele>
        <time>2022-07-23T11:31:30Z</time>
      </trkpt>
      <trkpt lat="42.7005910" lon="-0.0417900">
        <ele>2333.4</ele>
        <time>2022-07-23T11:31:38Z</time>
      </trkpt>
      <trkpt lat="42.7005880" lon="-0.0417770">
        <ele>2333.2</ele>
        <time>2022-07-23T11:31:39Z</time>
      </trkpt>
      <trkpt lat="42.7005770" lon="-0.0416550">
        <ele>2333.2</ele>
        <time>2022-07-23T11:31:47Z</time>
      </trkpt>
      <trkpt lat="42.7005840" lon="-0.0416560">
        <ele>2333.0</ele>
        <time>2022-07-23T11:31:48Z</time>
      </trkpt>
      <trkpt lat="42.7006240" lon="-0.0416330">
        <ele>2333.0</ele>
        <time>2022-07-23T11:31:53Z</time>
      </trkpt>
      <trkpt lat="42.7006340" lon="-0.0416070">
        <ele>2333.0</ele>
        <time>2022-07-23T11:31:55Z</time>
      </trkpt>
      <trkpt lat="42.7006330" lon="-0.0415850">
        <ele>2332.8</ele>
        <time>2022-07-23T11:31:57Z</time>
      </trkpt>
      <trkpt lat="42.7006530" lon="-0.0415540">
        <ele>2333.0</ele>
        <time>2022-07-23T11:32:01Z</time>
      </trkpt>
      <trkpt lat="42.7006780" lon="-0.0414250">
        <ele>2333.2</ele>
        <time>2022-07-23T11:32:10Z</time>
      </trkpt>
      <trkpt lat="42.7006930" lon="-0.0413840">
        <ele>2333.2</ele>
        <time>2022-07-23T11:32:13Z</time>
      </trkpt>
      <trkpt lat="42.7007080" lon="-0.0413080">
        <ele>2333.2</ele>
        <time>2022-07-23T11:32:17Z</time>
      </trkpt>
      <trkpt lat="42.7007180" lon="-0.0412810">
        <ele>2333.2</ele>
        <time>2022-07-23T11:32:19Z</time>
      </trkpt>
      <trkpt lat="42.7007320" lon="-0.0412450">
        <ele>2333.2</ele>
        <time>2022-07-23T11:32:21Z</time>
      </trkpt>
      <trkpt lat="42.7007320" lon="-0.0411860">
        <ele>2333.4</ele>
        <time>2022-07-23T11:32:25Z</time>
      </trkpt>
      <trkpt lat="42.7007340" lon="-0.0411070">
        <ele>2333.6</ele>
        <time>2022-07-23T11:32:31Z</time>
      </trkpt>
      <trkpt lat="42.7007350" lon="-0.0410980">
        <ele>2333.4</ele>
        <time>2022-07-23T11:32:32Z</time>
      </trkpt>
      <trkpt lat="42.7007360" lon="-0.0410820">
        <ele>2333.6</ele>
        <time>2022-07-23T11:32:33Z</time>
      </trkpt>
      <trkpt lat="42.7007480" lon="-0.0409980">
        <ele>2333.6</ele>
        <time>2022-07-23T11:32:40Z</time>
      </trkpt>
      <trkpt lat="42.7007480" lon="-0.0409130">
        <ele>2333.4</ele>
        <time>2022-07-23T11:32:46Z</time>
      </trkpt>
      <trkpt lat="42.7007490" lon="-0.0409020">
        <ele>2333.4</ele>
        <time>2022-07-23T11:32:47Z</time>
      </trkpt>
      <trkpt lat="42.7007510" lon="-0.0408780">
        <ele>2333.4</ele>
        <time>2022-07-23T11:32:48Z</time>
      </trkpt>
      <trkpt lat="42.7007540" lon="-0.0408520">
        <ele>2333.2</ele>
        <time>2022-07-23T11:32:50Z</time>
      </trkpt>
      <trkpt lat="42.7007540" lon="-0.0407910">
        <ele>2333.2</ele>
        <time>2022-07-23T11:32:55Z</time>
      </trkpt>
      <trkpt lat="42.7007470" lon="-0.0407770">
        <ele>2333.4</ele>
        <time>2022-07-23T11:32:57Z</time>
      </trkpt>
      <trkpt lat="42.7007520" lon="-0.0406940">
        <ele>2333.6</ele>
        <time>2022-07-23T11:33:05Z</time>
      </trkpt>
      <trkpt lat="42.7007490" lon="-0.0406840">
        <ele>2333.6</ele>
        <time>2022-07-23T11:33:06Z</time>
      </trkpt>
      <trkpt lat="42.7007640" lon="-0.0406880">
        <ele>2333.6</ele>
        <time>2022-07-23T11:33:09Z</time>
      </trkpt>
      <trkpt lat="42.7007790" lon="-0.0406930">
        <ele>2333.8</ele>
        <time>2022-07-23T11:33:11Z</time>
      </trkpt>
      <trkpt lat="42.7007680" lon="-0.0406410">
        <ele>2333.8</ele>
        <time>2022-07-23T11:33:17Z</time>
      </trkpt>
      <trkpt lat="42.7007460" lon="-0.0405230">
        <ele>2333.6</ele>
        <time>2022-07-23T11:33:25Z</time>
      </trkpt>
      <trkpt lat="42.7007420" lon="-0.0404490">
        <ele>2333.6</ele>
        <time>2022-07-23T11:33:29Z</time>
      </trkpt>
      <trkpt lat="42.7007280" lon="-0.0404370">
        <ele>2333.4</ele>
        <time>2022-07-23T11:33:30Z</time>
      </trkpt>
      <trkpt lat="42.7007200" lon="-0.0404230">
        <ele>2333.4</ele>
        <time>2022-07-23T11:33:31Z</time>
      </trkpt>
      <trkpt lat="42.7007090" lon="-0.0404130">
        <ele>2333.6</ele>
        <time>2022-07-23T11:33:32Z</time>
      </trkpt>
      <trkpt lat="42.7006960" lon="-0.0404050">
        <ele>2333.4</ele>
        <time>2022-07-23T11:33:33Z</time>
      </trkpt>
      <trkpt lat="42.7006600" lon="-0.0403460">
        <ele>2333.8</ele>
        <time>2022-07-23T11:33:39Z</time>
      </trkpt>
      <trkpt lat="42.7006730" lon="-0.0402680">
        <ele>2334.6</ele>
        <time>2022-07-23T11:33:45Z</time>
      </trkpt>
      <trkpt lat="42.7006750" lon="-0.0402450">
        <ele>2334.8</ele>
        <time>2022-07-23T11:33:47Z</time>
      </trkpt>
      <trkpt lat="42.7006930" lon="-0.0401920">
        <ele>2335.2</ele>
        <time>2022-07-23T11:33:52Z</time>
      </trkpt>
      <trkpt lat="42.7007080" lon="-0.0401760">
        <ele>2335.2</ele>
        <time>2022-07-23T11:33:53Z</time>
      </trkpt>
      <trkpt lat="42.7007140" lon="-0.0401630">
        <ele>2335.4</ele>
        <time>2022-07-23T11:33:54Z</time>
      </trkpt>
      <trkpt lat="42.7007230" lon="-0.0401420">
        <ele>2335.4</ele>
        <time>2022-07-23T11:33:56Z</time>
      </trkpt>
      <trkpt lat="42.7007270" lon="-0.0401140">
        <ele>2335.4</ele>
        <time>2022-07-23T11:33:58Z</time>
      </trkpt>
      <trkpt lat="42.7007360" lon="-0.0400920">
        <ele>2335.6</ele>
        <time>2022-07-23T11:34:00Z</time>
      </trkpt>
      <trkpt lat="42.7007360" lon="-0.0400840">
        <ele>2335.6</ele>
        <time>2022-07-23T11:34:01Z</time>
      </trkpt>
      <trkpt lat="42.7007380" lon="-0.0400790">
        <ele>2335.8</ele>
        <time>2022-07-23T11:34:02Z</time>
      </trkpt>
      <trkpt lat="42.7007420" lon="-0.0400790">
        <ele>2336.0</ele>
        <time>2022-07-23T11:34:03Z</time>
      </trkpt>
      <trkpt lat="42.7007910" lon="-0.0400340">
        <ele>2336.2</ele>
        <time>2022-07-23T11:34:06Z</time>
      </trkpt>
      <trkpt lat="42.7007980" lon="-0.0399850">
        <ele>2336.6</ele>
        <time>2022-07-23T11:34:10Z</time>
      </trkpt>
      <trkpt lat="42.7008030" lon="-0.0399330">
        <ele>2336.8</ele>
        <time>2022-07-23T11:34:14Z</time>
      </trkpt>
      <trkpt lat="42.7008000" lon="-0.0399180">
        <ele>2336.8</ele>
        <time>2022-07-23T11:34:15Z</time>
      </trkpt>
      <trkpt lat="42.7007960" lon="-0.0399070">
        <ele>2336.8</ele>
        <time>2022-07-23T11:34:16Z</time>
      </trkpt>
      <trkpt lat="42.7007850" lon="-0.0399010">
        <ele>2336.6</ele>
        <time>2022-07-23T11:34:17Z</time>
      </trkpt>
      <trkpt lat="42.7007650" lon="-0.0398700">
        <ele>2336.6</ele>
        <time>2022-07-23T11:34:20Z</time>
      </trkpt>
      <trkpt lat="42.7007510" lon="-0.0398550">
        <ele>2336.6</ele>
        <time>2022-07-23T11:34:23Z</time>
      </trkpt>
      <trkpt lat="42.7007280" lon="-0.0397120">
        <ele>2337.0</ele>
        <time>2022-07-23T11:34:32Z</time>
      </trkpt>
      <trkpt lat="42.7006820" lon="-0.0396500">
        <ele>2337.0</ele>
        <time>2022-07-23T11:34:39Z</time>
      </trkpt>
      <trkpt lat="42.7006630" lon="-0.0396480">
        <ele>2337.2</ele>
        <time>2022-07-23T11:34:41Z</time>
      </trkpt>
      <trkpt lat="42.7006390" lon="-0.0396260">
        <ele>2337.0</ele>
        <time>2022-07-23T11:34:44Z</time>
      </trkpt>
      <trkpt lat="42.7006120" lon="-0.0396140">
        <ele>2337.2</ele>
        <time>2022-07-23T11:34:46Z</time>
      </trkpt>
      <trkpt lat="42.7006020" lon="-0.0396070">
        <ele>2337.2</ele>
        <time>2022-07-23T11:34:47Z</time>
      </trkpt>
      <trkpt lat="42.7005950" lon="-0.0395560">
        <ele>2337.0</ele>
        <time>2022-07-23T11:34:51Z</time>
      </trkpt>
      <trkpt lat="42.7005920" lon="-0.0395270">
        <ele>2337.2</ele>
        <time>2022-07-23T11:34:53Z</time>
      </trkpt>
      <trkpt lat="42.7005460" lon="-0.0394840">
        <ele>2337.2</ele>
        <time>2022-07-23T11:35:00Z</time>
      </trkpt>
      <trkpt lat="42.7005440" lon="-0.0394370">
        <ele>2337.2</ele>
        <time>2022-07-23T11:35:05Z</time>
      </trkpt>
      <trkpt lat="42.7005460" lon="-0.0394270">
        <ele>2337.2</ele>
        <time>2022-07-23T11:35:06Z</time>
      </trkpt>
      <trkpt lat="42.7005520" lon="-0.0394050">
        <ele>2337.2</ele>
        <time>2022-07-23T11:35:08Z</time>
      </trkpt>
      <trkpt lat="42.7005520" lon="-0.0393840">
        <ele>2337.2</ele>
        <time>2022-07-23T11:35:10Z</time>
      </trkpt>
      <trkpt lat="42.7005530" lon="-0.0393750">
        <ele>2337.2</ele>
        <time>2022-07-23T11:35:11Z</time>
      </trkpt>
      <trkpt lat="42.7005710" lon="-0.0393320">
        <ele>2337.4</ele>
        <time>2022-07-23T11:35:15Z</time>
      </trkpt>
      <trkpt lat="42.7006080" lon="-0.0392340">
        <ele>2338.4</ele>
        <time>2022-07-23T11:35:24Z</time>
      </trkpt>
      <trkpt lat="42.7006230" lon="-0.0391940">
        <ele>2338.6</ele>
        <time>2022-07-23T11:35:31Z</time>
      </trkpt>
      <trkpt lat="42.7006230" lon="-0.0391800">
        <ele>2338.6</ele>
        <time>2022-07-23T11:35:33Z</time>
      </trkpt>
      <trkpt lat="42.7006200" lon="-0.0391730">
        <ele>2338.8</ele>
        <time>2022-07-23T11:35:34Z</time>
      </trkpt>
      <trkpt lat="42.7006150" lon="-0.0391650">
        <ele>2338.6</ele>
        <time>2022-07-23T11:35:36Z</time>
      </trkpt>
      <trkpt lat="42.7006050" lon="-0.0391390">
        <ele>2338.2</ele>
        <time>2022-07-23T11:35:39Z</time>
      </trkpt>
      <trkpt lat="42.7005980" lon="-0.0391290">
        <ele>2338.0</ele>
        <time>2022-07-23T11:35:40Z</time>
      </trkpt>
      <trkpt lat="42.7005940" lon="-0.0391190">
        <ele>2338.2</ele>
        <time>2022-07-23T11:35:41Z</time>
      </trkpt>
      <trkpt lat="42.7005490" lon="-0.0390640">
        <ele>2337.8</ele>
        <time>2022-07-23T11:35:47Z</time>
      </trkpt>
      <trkpt lat="42.7005370" lon="-0.0390250">
        <ele>2337.8</ele>
        <time>2022-07-23T11:35:54Z</time>
      </trkpt>
      <trkpt lat="42.7005420" lon="-0.0390200">
        <ele>2337.8</ele>
        <time>2022-07-23T11:35:55Z</time>
      </trkpt>
      <trkpt lat="42.7005640" lon="-0.0389820">
        <ele>2338.4</ele>
        <time>2022-07-23T11:36:02Z</time>
      </trkpt>
      <trkpt lat="42.7005670" lon="-0.0389650">
        <ele>2338.6</ele>
        <time>2022-07-23T11:36:04Z</time>
      </trkpt>
      <trkpt lat="42.7005770" lon="-0.0389340">
        <ele>2339.2</ele>
        <time>2022-07-23T11:36:09Z</time>
      </trkpt>
      <trkpt lat="42.7005830" lon="-0.0389200">
        <ele>2339.6</ele>
        <time>2022-07-23T11:36:11Z</time>
      </trkpt>
      <trkpt lat="42.7005840" lon="-0.0389140">
        <ele>2339.6</ele>
        <time>2022-07-23T11:36:12Z</time>
      </trkpt>
      <trkpt lat="42.7005770" lon="-0.0388740">
        <ele>2340.4</ele>
        <time>2022-07-23T11:36:17Z</time>
      </trkpt>
      <trkpt lat="42.7005710" lon="-0.0388520">
        <ele>2341.6</ele>
        <time>2022-07-23T11:36:21Z</time>
      </trkpt>
      <trkpt lat="42.7005620" lon="-0.0388410">
        <ele>2342.6</ele>
        <time>2022-07-23T11:36:28Z</time>
      </trkpt>
      <trkpt lat="42.7005640" lon="-0.0388360">
        <ele>2343.0</ele>
        <time>2022-07-23T11:36:31Z</time>
      </trkpt>
      <trkpt lat="42.7005640" lon="-0.0388170">
        <ele>2343.2</ele>
        <time>2022-07-23T11:36:33Z</time>
      </trkpt>
      <trkpt lat="42.7005650" lon="-0.0387730">
        <ele>2344.0</ele>
        <time>2022-07-23T11:36:37Z</time>
      </trkpt>
      <trkpt lat="42.7005500" lon="-0.0386820">
        <ele>2346.8</ele>
        <time>2022-07-23T11:36:47Z</time>
      </trkpt>
      <trkpt lat="42.7005710" lon="-0.0385740">
        <ele>2348.0</ele>
        <time>2022-07-23T11:36:56Z</time>
      </trkpt>
      <trkpt lat="42.7005710" lon="-0.0385620">
        <ele>2348.2</ele>
        <time>2022-07-23T11:36:58Z</time>
      </trkpt>
      <trkpt lat="42.7005800" lon="-0.0385460">
        <ele>2348.4</ele>
        <time>2022-07-23T11:37:00Z</time>
      </trkpt>
      <trkpt lat="42.7005570" lon="-0.0384900">
        <ele>2350.0</ele>
        <time>2022-07-23T11:37:08Z</time>
      </trkpt>
      <trkpt lat="42.7005540" lon="-0.0384700">
        <ele>2350.4</ele>
        <time>2022-07-23T11:37:10Z</time>
      </trkpt>
      <trkpt lat="42.7005500" lon="-0.0384620">
        <ele>2350.8</ele>
        <time>2022-07-23T11:37:11Z</time>
      </trkpt>
      <trkpt lat="42.7005330" lon="-0.0384500">
        <ele>2351.0</ele>
        <time>2022-07-23T11:37:13Z</time>
      </trkpt>
      <trkpt lat="42.7005220" lon="-0.0384200">
        <ele>2351.6</ele>
        <time>2022-07-23T11:37:17Z</time>
      </trkpt>
      <trkpt lat="42.7005120" lon="-0.0383910">
        <ele>2352.6</ele>
        <time>2022-07-23T11:37:20Z</time>
      </trkpt>
      <trkpt lat="42.7004830" lon="-0.0383540">
        <ele>2353.6</ele>
        <time>2022-07-23T11:37:26Z</time>
      </trkpt>
      <trkpt lat="42.7004770" lon="-0.0383390">
        <ele>2354.4</ele>
        <time>2022-07-23T11:37:29Z</time>
      </trkpt>
      <trkpt lat="42.7004890" lon="-0.0383310">
        <ele>2354.8</ele>
        <time>2022-07-23T11:37:30Z</time>
      </trkpt>
      <trkpt lat="42.7004750" lon="-0.0382570">
        <ele>2356.6</ele>
        <time>2022-07-23T11:37:38Z</time>
      </trkpt>
      <trkpt lat="42.7004760" lon="-0.0382460">
        <ele>2356.8</ele>
        <time>2022-07-23T11:37:39Z</time>
      </trkpt>
      <trkpt lat="42.7004920" lon="-0.0382030">
        <ele>2357.6</ele>
        <time>2022-07-23T11:37:42Z</time>
      </trkpt>
      <trkpt lat="42.7004940" lon="-0.0381920">
        <ele>2357.8</ele>
        <time>2022-07-23T11:37:43Z</time>
      </trkpt>
      <trkpt lat="42.7004990" lon="-0.0381430">
        <ele>2359.4</ele>
        <time>2022-07-23T11:37:53Z</time>
      </trkpt>
      <trkpt lat="42.7004860" lon="-0.0381590">
        <ele>2359.6</ele>
        <time>2022-07-23T11:37:54Z</time>
      </trkpt>
      <trkpt lat="42.7004830" lon="-0.0381580">
        <ele>2360.4</ele>
        <time>2022-07-23T11:37:57Z</time>
      </trkpt>
      <trkpt lat="42.7004710" lon="-0.0381310">
        <ele>2360.8</ele>
        <time>2022-07-23T11:38:01Z</time>
      </trkpt>
      <trkpt lat="42.7004620" lon="-0.0380940">
        <ele>2361.8</ele>
        <time>2022-07-23T11:38:06Z</time>
      </trkpt>
      <trkpt lat="42.7004540" lon="-0.0381030">
        <ele>2361.8</ele>
        <time>2022-07-23T11:38:08Z</time>
      </trkpt>
      <trkpt lat="42.7004520" lon="-0.0381040">
        <ele>2362.0</ele>
        <time>2022-07-23T11:38:09Z</time>
      </trkpt>
      <trkpt lat="42.7004540" lon="-0.0381050">
        <ele>2362.0</ele>
        <time>2022-07-23T11:38:10Z</time>
      </trkpt>
      <trkpt lat="42.7004440" lon="-0.0381170">
        <ele>2362.2</ele>
        <time>2022-07-23T11:38:13Z</time>
      </trkpt>
      <trkpt lat="42.7004240" lon="-0.0381260">
        <ele>2362.6</ele>
        <time>2022-07-23T11:38:15Z</time>
      </trkpt>
      <trkpt lat="42.7004130" lon="-0.0381240">
        <ele>2362.8</ele>
        <time>2022-07-23T11:38:16Z</time>
      </trkpt>
      <trkpt lat="42.7004070" lon="-0.0381240">
        <ele>2363.0</ele>
        <time>2022-07-23T11:38:17Z</time>
      </trkpt>
      <trkpt lat="42.7003970" lon="-0.0381230">
        <ele>2363.2</ele>
        <time>2022-07-23T11:38:20Z</time>
      </trkpt>
      <trkpt lat="42.7003950" lon="-0.0381230">
        <ele>2363.4</ele>
        <time>2022-07-23T11:38:21Z</time>
      </trkpt>
      <trkpt lat="42.7004010" lon="-0.0381060">
        <ele>2364.0</ele>
        <time>2022-07-23T11:38:25Z</time>
      </trkpt>
      <trkpt lat="42.7004060" lon="-0.0381060">
        <ele>2364.0</ele>
        <time>2022-07-23T11:38:26Z</time>
      </trkpt>
      <trkpt lat="42.7004070" lon="-0.0381090">
        <ele>2364.4</ele>
        <time>2022-07-23T11:38:27Z</time>
      </trkpt>
      <trkpt lat="42.7004080" lon="-0.0381130">
        <ele>2364.4</ele>
        <time>2022-07-23T11:38:28Z</time>
      </trkpt>
      <trkpt lat="42.7003970" lon="-0.0381160">
        <ele>2364.8</ele>
        <time>2022-07-23T11:38:31Z</time>
      </trkpt>
      <trkpt lat="42.7003880" lon="-0.0381130">
        <ele>2364.8</ele>
        <time>2022-07-23T11:38:32Z</time>
      </trkpt>
      <trkpt lat="42.7003170" lon="-0.0380880">
        <ele>2366.6</ele>
        <time>2022-07-23T11:38:41Z</time>
      </trkpt>
      <trkpt lat="42.7002680" lon="-0.0380340">
        <ele>2367.6</ele>
        <time>2022-07-23T11:38:47Z</time>
      </trkpt>
      <trkpt lat="42.7002680" lon="-0.0380120">
        <ele>2368.0</ele>
        <time>2022-07-23T11:38:49Z</time>
      </trkpt>
      <trkpt lat="42.7002570" lon="-0.0379790">
        <ele>2368.4</ele>
        <time>2022-07-23T11:38:52Z</time>
      </trkpt>
      <trkpt lat="42.7002260" lon="-0.0379110">
        <ele>2369.4</ele>
        <time>2022-07-23T11:38:59Z</time>
      </trkpt>
      <trkpt lat="42.7002130" lon="-0.0378800">
        <ele>2369.6</ele>
        <time>2022-07-23T11:39:02Z</time>
      </trkpt>
      <trkpt lat="42.7001840" lon="-0.0378530">
        <ele>2369.8</ele>
        <time>2022-07-23T11:39:06Z</time>
      </trkpt>
      <trkpt lat="42.7001580" lon="-0.0378350">
        <ele>2370.6</ele>
        <time>2022-07-23T11:39:09Z</time>
      </trkpt>
      <trkpt lat="42.7001460" lon="-0.0378280">
        <ele>2370.4</ele>
        <time>2022-07-23T11:39:10Z</time>
      </trkpt>
      <trkpt lat="42.7000950" lon="-0.0378260">
        <ele>2371.2</ele>
        <time>2022-07-23T11:39:17Z</time>
      </trkpt>
      <trkpt lat="42.7000800" lon="-0.0378220">
        <ele>2371.8</ele>
        <time>2022-07-23T11:39:20Z</time>
      </trkpt>
      <trkpt lat="42.7001050" lon="-0.0377920">
        <ele>2373.2</ele>
        <time>2022-07-23T11:39:31Z</time>
      </trkpt>
      <trkpt lat="42.7000950" lon="-0.0377890">
        <ele>2373.2</ele>
        <time>2022-07-23T11:39:35Z</time>
      </trkpt>
      <trkpt lat="42.7000920" lon="-0.0377890">
        <ele>2373.4</ele>
        <time>2022-07-23T11:39:36Z</time>
      </trkpt>
      <trkpt lat="42.7000860" lon="-0.0377890">
        <ele>2373.4</ele>
        <time>2022-07-23T11:39:38Z</time>
      </trkpt>
      <trkpt lat="42.7000860" lon="-0.0377900">
        <ele>2373.4</ele>
        <time>2022-07-23T11:39:39Z</time>
      </trkpt>
      <trkpt lat="42.7000860" lon="-0.0377910">
        <ele>2373.4</ele>
        <time>2022-07-23T11:39:40Z</time>
      </trkpt>
      <trkpt lat="42.7000860" lon="-0.0377900">
        <ele>2373.4</ele>
        <time>2022-07-23T11:39:41Z</time>
      </trkpt>
      <trkpt lat="42.7000850" lon="-0.0377920">
        <ele>2373.4</ele>
        <time>2022-07-23T11:39:42Z</time>
      </trkpt>
      <trkpt lat="42.7000790" lon="-0.0377990">
        <ele>2373.4</ele>
        <time>2022-07-23T11:39:44Z</time>
      </trkpt>
      <trkpt lat="42.7000730" lon="-0.0378050">
        <ele>2373.6</ele>
        <time>2022-07-23T11:39:46Z</time>
      </trkpt>
      <trkpt lat="42.7000730" lon="-0.0378050">
        <ele>2373.4</ele>
        <time>2022-07-23T11:39:47Z</time>
      </trkpt>
      <trkpt lat="42.7000720" lon="-0.0378040">
        <ele>2373.4</ele>
        <time>2022-07-23T11:39:49Z</time>
      </trkpt>
      <trkpt lat="42.7000720" lon="-0.0378040">
        <ele>2373.6</ele>
        <time>2022-07-23T11:39:50Z</time>
      </trkpt>
      <trkpt lat="42.7000600" lon="-0.0378060">
        <ele>2373.6</ele>
        <time>2022-07-23T11:40:05Z</time>
      </trkpt>
      <trkpt lat="42.7000600" lon="-0.0378070">
        <ele>2373.6</ele>
        <time>2022-07-23T11:40:38Z</time>
      </trkpt>
      <trkpt lat="42.7000040" lon="-0.0378140">
        <ele>2373.6</ele>
        <time>2022-07-23T11:40:51Z</time>
      </trkpt>
      <trkpt lat="42.7000240" lon="-0.0378100">
        <ele>2373.6</ele>
        <time>2022-07-23T11:41:04Z</time>
      </trkpt>
      <trkpt lat="42.7000290" lon="-0.0378190">
        <ele>2374.0</ele>
        <time>2022-07-23T11:41:34Z</time>
      </trkpt>
      <trkpt lat="42.7000250" lon="-0.0378240">
        <ele>2374.0</ele>
        <time>2022-07-23T11:41:59Z</time>
      </trkpt>
      <trkpt lat="42.7000250" lon="-0.0378360">
        <ele>2373.8</ele>
        <time>2022-07-23T11:42:18Z</time>
      </trkpt>
      <trkpt lat="42.7000260" lon="-0.0378400">
        <ele>2373.8</ele>
        <time>2022-07-23T11:42:23Z</time>
      </trkpt>
      <trkpt lat="42.7000020" lon="-0.0378420">
        <ele>2374.0</ele>
        <time>2022-07-23T11:42:34Z</time>
      </trkpt>
      <trkpt lat="42.7000020" lon="-0.0378500">
        <ele>2374.0</ele>
        <time>2022-07-23T11:42:53Z</time>
      </trkpt>
      <trkpt lat="42.7000070" lon="-0.0378550">
        <ele>2373.6</ele>
        <time>2022-07-23T11:43:02Z</time>
      </trkpt>
      <trkpt lat="42.7000070" lon="-0.0378550">
        <ele>2373.6</ele>
        <time>2022-07-23T11:43:03Z</time>
      </trkpt>
      <trkpt lat="42.7000070" lon="-0.0378550">
        <ele>2373.8</ele>
        <time>2022-07-23T11:43:05Z</time>
      </trkpt>
      <trkpt lat="42.7000060" lon="-0.0378550">
        <ele>2373.6</ele>
        <time>2022-07-23T11:43:14Z</time>
      </trkpt>
      <trkpt lat="42.7000050" lon="-0.0378540">
        <ele>2373.6</ele>
        <time>2022-07-23T11:43:28Z</time>
      </trkpt>
      <trkpt lat="42.7000000" lon="-0.0378560">
        <ele>2373.8</ele>
        <time>2022-07-23T11:43:52Z</time>
      </trkpt>
      <trkpt lat="42.6999920" lon="-0.0378440">
        <ele>2373.8</ele>
        <time>2022-07-23T11:44:17Z</time>
      </trkpt>
      <trkpt lat="42.6999860" lon="-0.0378470">
        <ele>2374.2</ele>
        <time>2022-07-23T11:44:38Z</time>
      </trkpt>
      <trkpt lat="42.7000210" lon="-0.0378420">
        <ele>2374.0</ele>
        <time>2022-07-23T11:44:52Z</time>
      </trkpt>
      <trkpt lat="42.7000150" lon="-0.0378460">
        <ele>2374.2</ele>
        <time>2022-07-23T11:45:11Z</time>
      </trkpt>
      <trkpt lat="42.7000150" lon="-0.0378470">
        <ele>2374.4</ele>
        <time>2022-07-23T11:45:16Z</time>
      </trkpt>
      <trkpt lat="42.7000160" lon="-0.0378580">
        <ele>2374.8</ele>
        <time>2022-07-23T11:45:41Z</time>
      </trkpt>
      <trkpt lat="42.7000140" lon="-0.0378580">
        <ele>2374.6</ele>
        <time>2022-07-23T11:46:07Z</time>
      </trkpt>
      <trkpt lat="42.7000140" lon="-0.0378580">
        <ele>2374.8</ele>
        <time>2022-07-23T11:46:08Z</time>
      </trkpt>
      <trkpt lat="42.7000120" lon="-0.0378540">
        <ele>2374.4</ele>
        <time>2022-07-23T11:46:29Z</time>
      </trkpt>
      <trkpt lat="42.7000090" lon="-0.0378520">
        <ele>2374.2</ele>
        <time>2022-07-23T11:46:39Z</time>
      </trkpt>
      <trkpt lat="42.7000090" lon="-0.0378520">
        <ele>2374.0</ele>
        <time>2022-07-23T11:46:46Z</time>
      </trkpt>
      <trkpt lat="42.7000090" lon="-0.0378520">
        <ele>2374.0</ele>
        <time>2022-07-23T11:46:50Z</time>
      </trkpt>
      <trkpt lat="42.7000080" lon="-0.0378520">
        <ele>2374.2</ele>
        <time>2022-07-23T11:46:54Z</time>
      </trkpt>
      <trkpt lat="42.7000070" lon="-0.0378490">
        <ele>2374.4</ele>
        <time>2022-07-23T11:47:16Z</time>
      </trkpt>
      <trkpt lat="42.7000070" lon="-0.0378560">
        <ele>2374.2</ele>
        <time>2022-07-23T11:47:35Z</time>
      </trkpt>
      <trkpt lat="42.7000090" lon="-0.0378640">
        <ele>2374.4</ele>
        <time>2022-07-23T11:47:49Z</time>
      </trkpt>
      <trkpt lat="42.7000100" lon="-0.0378650">
        <ele>2374.4</ele>
        <time>2022-07-23T11:47:50Z</time>
      </trkpt>
      <trkpt lat="42.7000110" lon="-0.0378710">
        <ele>2374.8</ele>
        <time>2022-07-23T11:48:01Z</time>
      </trkpt>
      <trkpt lat="42.7000010" lon="-0.0378760">
        <ele>2374.2</ele>
        <time>2022-07-23T11:48:20Z</time>
      </trkpt>
      <trkpt lat="42.7000010" lon="-0.0378770">
        <ele>2374.4</ele>
        <time>2022-07-23T11:48:21Z</time>
      </trkpt>
      <trkpt lat="42.6999930" lon="-0.0378780">
        <ele>2374.8</ele>
        <time>2022-07-23T11:48:28Z</time>
      </trkpt>
      <trkpt lat="42.6999860" lon="-0.0378800">
        <ele>2374.4</ele>
        <time>2022-07-23T11:48:39Z</time>
      </trkpt>
      <trkpt lat="42.6999860" lon="-0.0378810">
        <ele>2374.4</ele>
        <time>2022-07-23T11:48:43Z</time>
      </trkpt>
      <trkpt lat="42.6999870" lon="-0.0378840">
        <ele>2374.4</ele>
        <time>2022-07-23T11:48:49Z</time>
      </trkpt>
      <trkpt lat="42.6999860" lon="-0.0378830">
        <ele>2374.4</ele>
        <time>2022-07-23T11:48:52Z</time>
      </trkpt>
      <trkpt lat="42.6999810" lon="-0.0378730">
        <ele>2374.8</ele>
        <time>2022-07-23T11:48:58Z</time>
      </trkpt>
      <trkpt lat="42.6999760" lon="-0.0378750">
        <ele>2375.2</ele>
        <time>2022-07-23T11:49:20Z</time>
      </trkpt>
      <trkpt lat="42.6999740" lon="-0.0378740">
        <ele>2375.0</ele>
        <time>2022-07-23T11:49:22Z</time>
      </trkpt>
      <trkpt lat="42.6999730" lon="-0.0378740">
        <ele>2375.0</ele>
        <time>2022-07-23T11:49:23Z</time>
      </trkpt>
      <trkpt lat="42.6999710" lon="-0.0378750">
        <ele>2375.0</ele>
        <time>2022-07-23T11:49:24Z</time>
      </trkpt>
      <trkpt lat="42.6999680" lon="-0.0378790">
        <ele>2375.0</ele>
        <time>2022-07-23T11:49:25Z</time>
      </trkpt>
      <trkpt lat="42.6999780" lon="-0.0378860">
        <ele>2375.0</ele>
        <time>2022-07-23T11:49:29Z</time>
      </trkpt>
      <trkpt lat="42.6999780" lon="-0.0378830">
        <ele>2375.0</ele>
        <time>2022-07-23T11:49:38Z</time>
      </trkpt>
      <trkpt lat="42.6999650" lon="-0.0378610">
        <ele>2375.0</ele>
        <time>2022-07-23T11:49:49Z</time>
      </trkpt>
      <trkpt lat="42.6999550" lon="-0.0378470">
        <ele>2375.2</ele>
        <time>2022-07-23T11:49:51Z</time>
      </trkpt>
      <trkpt lat="42.6999280" lon="-0.0378480">
        <ele>2375.2</ele>
        <time>2022-07-23T11:49:55Z</time>
      </trkpt>
      <trkpt lat="42.6998980" lon="-0.0378550">
        <ele>2375.8</ele>
        <time>2022-07-23T11:50:02Z</time>
      </trkpt>
      <trkpt lat="42.6998720" lon="-0.0378360">
        <ele>2377.6</ele>
        <time>2022-07-23T11:50:11Z</time>
      </trkpt>
      <trkpt lat="42.6998320" lon="-0.0378200">
        <ele>2378.2</ele>
        <time>2022-07-23T11:50:19Z</time>
      </trkpt>
      <trkpt lat="42.6998260" lon="-0.0378080">
        <ele>2378.8</ele>
        <time>2022-07-23T11:50:22Z</time>
      </trkpt>
      <trkpt lat="42.6998380" lon="-0.0377700">
        <ele>2379.6</ele>
        <time>2022-07-23T11:50:31Z</time>
      </trkpt>
      <trkpt lat="42.6998000" lon="-0.0377680">
        <ele>2380.8</ele>
        <time>2022-07-23T11:50:48Z</time>
      </trkpt>
      <trkpt lat="42.6998000" lon="-0.0377510">
        <ele>2381.0</ele>
        <time>2022-07-23T11:50:53Z</time>
      </trkpt>
      <trkpt lat="42.6997980" lon="-0.0377480">
        <ele>2381.0</ele>
        <time>2022-07-23T11:50:55Z</time>
      </trkpt>
      <trkpt lat="42.6997960" lon="-0.0377440">
        <ele>2381.4</ele>
        <time>2022-07-23T11:50:56Z</time>
      </trkpt>
      <trkpt lat="42.6997900" lon="-0.0377370">
        <ele>2381.6</ele>
        <time>2022-07-23T11:50:58Z</time>
      </trkpt>
      <trkpt lat="42.6997500" lon="-0.0377200">
        <ele>2381.8</ele>
        <time>2022-07-23T11:51:03Z</time>
      </trkpt>
      <trkpt lat="42.6997280" lon="-0.0377120">
        <ele>2382.6</ele>
        <time>2022-07-23T11:51:06Z</time>
      </trkpt>
      <trkpt lat="42.6996720" lon="-0.0377310">
        <ele>2385.0</ele>
        <time>2022-07-23T11:51:16Z</time>
      </trkpt>
      <trkpt lat="42.6996570" lon="-0.0377340">
        <ele>2385.2</ele>
        <time>2022-07-23T11:51:18Z</time>
      </trkpt>
      <trkpt lat="42.6996370" lon="-0.0377240">
        <ele>2385.8</ele>
        <time>2022-07-23T11:51:23Z</time>
      </trkpt>
      <trkpt lat="42.6995980" lon="-0.0377120">
        <ele>2386.8</ele>
        <time>2022-07-23T11:51:29Z</time>
      </trkpt>
      <trkpt lat="42.6995650" lon="-0.0376930">
        <ele>2387.8</ele>
        <time>2022-07-23T11:51:34Z</time>
      </trkpt>
      <trkpt lat="42.6995620" lon="-0.0376410">
        <ele>2388.8</ele>
        <time>2022-07-23T11:51:42Z</time>
      </trkpt>
      <trkpt lat="42.6995700" lon="-0.0376070">
        <ele>2389.4</ele>
        <time>2022-07-23T11:51:48Z</time>
      </trkpt>
      <trkpt lat="42.6995390" lon="-0.0376030">
        <ele>2389.8</ele>
        <time>2022-07-23T11:51:52Z</time>
      </trkpt>
      <trkpt lat="42.6995110" lon="-0.0376110">
        <ele>2390.4</ele>
        <time>2022-07-23T11:51:56Z</time>
      </trkpt>
      <trkpt lat="42.6994660" lon="-0.0376210">
        <ele>2391.8</ele>
        <time>2022-07-23T11:52:05Z</time>
      </trkpt>
      <trkpt lat="42.6994510" lon="-0.0376220">
        <ele>2392.0</ele>
        <time>2022-07-23T11:52:07Z</time>
      </trkpt>
      <trkpt lat="42.6994290" lon="-0.0376140">
        <ele>2392.6</ele>
        <time>2022-07-23T11:52:10Z</time>
      </trkpt>
      <trkpt lat="42.6994070" lon="-0.0375810">
        <ele>2393.8</ele>
        <time>2022-07-23T11:52:16Z</time>
      </trkpt>
      <trkpt lat="42.6993900" lon="-0.0375240">
        <ele>2395.0</ele>
        <time>2022-07-23T11:52:21Z</time>
      </trkpt>
      <trkpt lat="42.6993750" lon="-0.0374950">
        <ele>2395.2</ele>
        <time>2022-07-23T11:52:24Z</time>
      </trkpt>
      <trkpt lat="42.6993290" lon="-0.0374500">
        <ele>2397.0</ele>
        <time>2022-07-23T11:52:34Z</time>
      </trkpt>
      <trkpt lat="42.6993210" lon="-0.0374520">
        <ele>2397.0</ele>
        <time>2022-07-23T11:52:36Z</time>
      </trkpt>
      <trkpt lat="42.6993160" lon="-0.0374500">
        <ele>2397.2</ele>
        <time>2022-07-23T11:52:37Z</time>
      </trkpt>
      <trkpt lat="42.6993160" lon="-0.0374520">
        <ele>2397.0</ele>
        <time>2022-07-23T11:52:39Z</time>
      </trkpt>
      <trkpt lat="42.6993240" lon="-0.0374520">
        <ele>2397.2</ele>
        <time>2022-07-23T11:52:41Z</time>
      </trkpt>
      <trkpt lat="42.6993310" lon="-0.0374480">
        <ele>2397.6</ele>
        <time>2022-07-23T11:52:43Z</time>
      </trkpt>
      <trkpt lat="42.6993400" lon="-0.0374350">
        <ele>2397.6</ele>
        <time>2022-07-23T11:52:45Z</time>
      </trkpt>
      <trkpt lat="42.6993390" lon="-0.0374300">
        <ele>2398.0</ele>
        <time>2022-07-23T11:52:46Z</time>
      </trkpt>
      <trkpt lat="42.6993350" lon="-0.0374240">
        <ele>2398.6</ele>
        <time>2022-07-23T11:52:48Z</time>
      </trkpt>
      <trkpt lat="42.6993260" lon="-0.0374110">
        <ele>2399.2</ele>
        <time>2022-07-23T11:52:52Z</time>
      </trkpt>
      <trkpt lat="42.6993140" lon="-0.0373970">
        <ele>2399.4</ele>
        <time>2022-07-23T11:52:54Z</time>
      </trkpt>
      <trkpt lat="42.6993280" lon="-0.0373440">
        <ele>2401.0</ele>
        <time>2022-07-23T11:53:02Z</time>
      </trkpt>
      <trkpt lat="42.6993340" lon="-0.0373340">
        <ele>2401.4</ele>
        <time>2022-07-23T11:53:05Z</time>
      </trkpt>
      <trkpt lat="42.6993330" lon="-0.0373240">
        <ele>2401.6</ele>
        <time>2022-07-23T11:53:07Z</time>
      </trkpt>
      <trkpt lat="42.6993080" lon="-0.0372900">
        <ele>2403.0</ele>
        <time>2022-07-23T11:53:15Z</time>
      </trkpt>
      <trkpt lat="42.6993040" lon="-0.0372800">
        <ele>2403.4</ele>
        <time>2022-07-23T11:53:17Z</time>
      </trkpt>
      <trkpt lat="42.6992980" lon="-0.0372690">
        <ele>2404.0</ele>
        <time>2022-07-23T11:53:20Z</time>
      </trkpt>
      <trkpt lat="42.6992930" lon="-0.0372660">
        <ele>2404.0</ele>
        <time>2022-07-23T11:53:21Z</time>
      </trkpt>
      <trkpt lat="42.6992870" lon="-0.0372620">
        <ele>2404.2</ele>
        <time>2022-07-23T11:53:22Z</time>
      </trkpt>
      <trkpt lat="42.6992820" lon="-0.0372570">
        <ele>2404.0</ele>
        <time>2022-07-23T11:53:23Z</time>
      </trkpt>
      <trkpt lat="42.6992720" lon="-0.0372690">
        <ele>2405.8</ele>
        <time>2022-07-23T11:53:32Z</time>
      </trkpt>
      <trkpt lat="42.6992730" lon="-0.0372710">
        <ele>2406.0</ele>
        <time>2022-07-23T11:53:33Z</time>
      </trkpt>
      <trkpt lat="42.6992770" lon="-0.0372700">
        <ele>2406.0</ele>
        <time>2022-07-23T11:53:34Z</time>
      </trkpt>
      <trkpt lat="42.6992790" lon="-0.0372680">
        <ele>2406.0</ele>
        <time>2022-07-23T11:53:35Z</time>
      </trkpt>
      <trkpt lat="42.6992790" lon="-0.0372660">
        <ele>2406.2</ele>
        <time>2022-07-23T11:53:36Z</time>
      </trkpt>
      <trkpt lat="42.6992790" lon="-0.0372650">
        <ele>2406.2</ele>
        <time>2022-07-23T11:53:38Z</time>
      </trkpt>
      <trkpt lat="42.6992760" lon="-0.0372410">
        <ele>2406.4</ele>
        <time>2022-07-23T11:53:42Z</time>
      </trkpt>
      <trkpt lat="42.6993010" lon="-0.0372120">
        <ele>2406.4</ele>
        <time>2022-07-23T11:53:46Z</time>
      </trkpt>
      <trkpt lat="42.6993040" lon="-0.0371950">
        <ele>2406.6</ele>
        <time>2022-07-23T11:53:48Z</time>
      </trkpt>
      <trkpt lat="42.6993080" lon="-0.0371880">
        <ele>2406.4</ele>
        <time>2022-07-23T11:53:49Z</time>
      </trkpt>
      <trkpt lat="42.6993030" lon="-0.0371510">
        <ele>2406.8</ele>
        <time>2022-07-23T11:53:54Z</time>
      </trkpt>
      <trkpt lat="42.6992960" lon="-0.0371580">
        <ele>2406.6</ele>
        <time>2022-07-23T11:53:59Z</time>
      </trkpt>
      <trkpt lat="42.6992870" lon="-0.0371630">
        <ele>2407.6</ele>
        <time>2022-07-23T11:54:18Z</time>
      </trkpt>
      <trkpt lat="42.6992830" lon="-0.0371410">
        <ele>2407.4</ele>
        <time>2022-07-23T11:54:29Z</time>
      </trkpt>
      <trkpt lat="42.6992840" lon="-0.0371300">
        <ele>2407.4</ele>
        <time>2022-07-23T11:54:30Z</time>
      </trkpt>
      <trkpt lat="42.6992860" lon="-0.0371180">
        <ele>2407.6</ele>
        <time>2022-07-23T11:54:31Z</time>
      </trkpt>
      <trkpt lat="42.6992870" lon="-0.0371100">
        <ele>2407.4</ele>
        <time>2022-07-23T11:54:32Z</time>
      </trkpt>
      <trkpt lat="42.6992760" lon="-0.0370520">
        <ele>2407.4</ele>
        <time>2022-07-23T11:54:40Z</time>
      </trkpt>
      <trkpt lat="42.6992750" lon="-0.0370440">
        <ele>2407.4</ele>
        <time>2022-07-23T11:54:41Z</time>
      </trkpt>
      <trkpt lat="42.6992700" lon="-0.0370230">
        <ele>2407.2</ele>
        <time>2022-07-23T11:54:43Z</time>
      </trkpt>
      <trkpt lat="42.6992810" lon="-0.0369960">
        <ele>2407.4</ele>
        <time>2022-07-23T11:54:47Z</time>
      </trkpt>
      <trkpt lat="42.6993010" lon="-0.0369230">
        <ele>2408.2</ele>
        <time>2022-07-23T11:54:54Z</time>
      </trkpt>
      <trkpt lat="42.6993080" lon="-0.0368810">
        <ele>2408.8</ele>
        <time>2022-07-23T11:54:58Z</time>
      </trkpt>
      <trkpt lat="42.6993070" lon="-0.0368680">
        <ele>2408.8</ele>
        <time>2022-07-23T11:54:59Z</time>
      </trkpt>
      <trkpt lat="42.6993150" lon="-0.0367950">
        <ele>2408.8</ele>
        <time>2022-07-23T11:55:06Z</time>
      </trkpt>
      <trkpt lat="42.6993130" lon="-0.0367300">
        <ele>2409.0</ele>
        <time>2022-07-23T11:55:12Z</time>
      </trkpt>
      <trkpt lat="42.6993090" lon="-0.0366970">
        <ele>2409.2</ele>
        <time>2022-07-23T11:55:16Z</time>
      </trkpt>
      <trkpt lat="42.6993210" lon="-0.0366680">
        <ele>2409.8</ele>
        <time>2022-07-23T11:55:19Z</time>
      </trkpt>
      <trkpt lat="42.6993360" lon="-0.0366260">
        <ele>2410.8</ele>
        <time>2022-07-23T11:55:26Z</time>
      </trkpt>
      <trkpt lat="42.6993360" lon="-0.0366240">
        <ele>2411.2</ele>
        <time>2022-07-23T11:55:27Z</time>
      </trkpt>
      <trkpt lat="42.6993350" lon="-0.0366230">
        <ele>2411.2</ele>
        <time>2022-07-23T11:55:28Z</time>
      </trkpt>
      <trkpt lat="42.6993210" lon="-0.0366080">
        <ele>2411.4</ele>
        <time>2022-07-23T11:55:32Z</time>
      </trkpt>
      <trkpt lat="42.6993150" lon="-0.0366040">
        <ele>2411.4</ele>
        <time>2022-07-23T11:55:33Z</time>
      </trkpt>
      <trkpt lat="42.6992880" lon="-0.0366210">
        <ele>2413.8</ele>
        <time>2022-07-23T11:55:44Z</time>
      </trkpt>
      <trkpt lat="42.6992940" lon="-0.0366130">
        <ele>2414.2</ele>
        <time>2022-07-23T11:55:47Z</time>
      </trkpt>
      <trkpt lat="42.6992940" lon="-0.0366120">
        <ele>2414.2</ele>
        <time>2022-07-23T11:55:48Z</time>
      </trkpt>
      <trkpt lat="42.6992930" lon="-0.0366070">
        <ele>2414.2</ele>
        <time>2022-07-23T11:55:50Z</time>
      </trkpt>
      <trkpt lat="42.6992920" lon="-0.0366040">
        <ele>2414.6</ele>
        <time>2022-07-23T11:55:51Z</time>
      </trkpt>
      <trkpt lat="42.6992870" lon="-0.0366100">
        <ele>2414.4</ele>
        <time>2022-07-23T11:55:54Z</time>
      </trkpt>
      <trkpt lat="42.6992840" lon="-0.0366110">
        <ele>2414.6</ele>
        <time>2022-07-23T11:55:55Z</time>
      </trkpt>
      <trkpt lat="42.6992420" lon="-0.0366270">
        <ele>2417.0</ele>
        <time>2022-07-23T11:56:09Z</time>
      </trkpt>
      <trkpt lat="42.6992380" lon="-0.0366400">
        <ele>2417.2</ele>
        <time>2022-07-23T11:56:12Z</time>
      </trkpt>
      <trkpt lat="42.6992430" lon="-0.0366430">
        <ele>2417.0</ele>
        <time>2022-07-23T11:56:14Z</time>
      </trkpt>
      <trkpt lat="42.6992440" lon="-0.0366470">
        <ele>2417.2</ele>
        <time>2022-07-23T11:56:17Z</time>
      </trkpt>
      <trkpt lat="42.6992310" lon="-0.0366450">
        <ele>2417.6</ele>
        <time>2022-07-23T11:56:22Z</time>
      </trkpt>
      <trkpt lat="42.6992280" lon="-0.0366470">
        <ele>2417.6</ele>
        <time>2022-07-23T11:56:23Z</time>
      </trkpt>
      <trkpt lat="42.6992310" lon="-0.0366850">
        <ele>2418.2</ele>
        <time>2022-07-23T11:56:29Z</time>
      </trkpt>
      <trkpt lat="42.6992350" lon="-0.0366930">
        <ele>2418.4</ele>
        <time>2022-07-23T11:56:30Z</time>
      </trkpt>
      <trkpt lat="42.6992460" lon="-0.0366790">
        <ele>2418.6</ele>
        <time>2022-07-23T11:56:32Z</time>
      </trkpt>
      <trkpt lat="42.6992590" lon="-0.0366550">
        <ele>2418.8</ele>
        <time>2022-07-23T11:56:35Z</time>
      </trkpt>
      <trkpt lat="42.6992620" lon="-0.0365800">
        <ele>2419.8</ele>
        <time>2022-07-23T11:56:44Z</time>
      </trkpt>
      <trkpt lat="42.6992560" lon="-0.0365630">
        <ele>2420.2</ele>
        <time>2022-07-23T11:56:46Z</time>
      </trkpt>
      <trkpt lat="42.6992550" lon="-0.0365530">
        <ele>2420.4</ele>
        <time>2022-07-23T11:56:47Z</time>
      </trkpt>
      <trkpt lat="42.6991930" lon="-0.0365500">
        <ele>2421.4</ele>
        <time>2022-07-23T11:56:58Z</time>
      </trkpt>
      <trkpt lat="42.6991560" lon="-0.0365580">
        <ele>2422.4</ele>
        <time>2022-07-23T11:57:06Z</time>
      </trkpt>
      <trkpt lat="42.6991280" lon="-0.0365230">
        <ele>2424.2</ele>
        <time>2022-07-23T11:57:15Z</time>
      </trkpt>
      <trkpt lat="42.6991220" lon="-0.0364890">
        <ele>2424.6</ele>
        <time>2022-07-23T11:57:18Z</time>
      </trkpt>
      <trkpt lat="42.6991410" lon="-0.0364480">
        <ele>2425.4</ele>
        <time>2022-07-23T11:57:25Z</time>
      </trkpt>
      <trkpt lat="42.6991450" lon="-0.0364440">
        <ele>2425.4</ele>
        <time>2022-07-23T11:57:26Z</time>
      </trkpt>
      <trkpt lat="42.6991450" lon="-0.0364390">
        <ele>2425.6</ele>
        <time>2022-07-23T11:57:27Z</time>
      </trkpt>
      <trkpt lat="42.6991420" lon="-0.0364340">
        <ele>2425.6</ele>
        <time>2022-07-23T11:57:28Z</time>
      </trkpt>
      <trkpt lat="42.6991290" lon="-0.0364170">
        <ele>2426.4</ele>
        <time>2022-07-23T11:57:33Z</time>
      </trkpt>
      <trkpt lat="42.6991210" lon="-0.0364120">
        <ele>2427.0</ele>
        <time>2022-07-23T11:57:36Z</time>
      </trkpt>
      <trkpt lat="42.6991100" lon="-0.0363710">
        <ele>2428.0</ele>
        <time>2022-07-23T11:57:42Z</time>
      </trkpt>
      <trkpt lat="42.6990960" lon="-0.0363280">
        <ele>2429.8</ele>
        <time>2022-07-23T11:57:52Z</time>
      </trkpt>
      <trkpt lat="42.6990910" lon="-0.0363220">
        <ele>2430.2</ele>
        <time>2022-07-23T11:57:54Z</time>
      </trkpt>
      <trkpt lat="42.6990860" lon="-0.0363170">
        <ele>2430.2</ele>
        <time>2022-07-23T11:57:56Z</time>
      </trkpt>
      <trkpt lat="42.6990830" lon="-0.0363150">
        <ele>2430.4</ele>
        <time>2022-07-23T11:57:57Z</time>
      </trkpt>
      <trkpt lat="42.6990560" lon="-0.0363060">
        <ele>2431.0</ele>
        <time>2022-07-23T11:58:03Z</time>
      </trkpt>
      <trkpt lat="42.6990300" lon="-0.0363270">
        <ele>2432.0</ele>
        <time>2022-07-23T11:58:10Z</time>
      </trkpt>
      <trkpt lat="42.6990200" lon="-0.0363220">
        <ele>2432.6</ele>
        <time>2022-07-23T11:58:13Z</time>
      </trkpt>
      <trkpt lat="42.6989950" lon="-0.0363240">
        <ele>2433.8</ele>
        <time>2022-07-23T11:58:21Z</time>
      </trkpt>
      <trkpt lat="42.6989950" lon="-0.0363300">
        <ele>2433.8</ele>
        <time>2022-07-23T11:58:22Z</time>
      </trkpt>
      <trkpt lat="42.6990160" lon="-0.0363540">
        <ele>2434.6</ele>
        <time>2022-07-23T11:58:28Z</time>
      </trkpt>
      <trkpt lat="42.6990070" lon="-0.0363490">
        <ele>2435.6</ele>
        <time>2022-07-23T11:58:33Z</time>
      </trkpt>
      <trkpt lat="42.6990060" lon="-0.0363350">
        <ele>2436.2</ele>
        <time>2022-07-23T11:58:35Z</time>
      </trkpt>
      <trkpt lat="42.6990070" lon="-0.0363200">
        <ele>2436.6</ele>
        <time>2022-07-23T11:58:38Z</time>
      </trkpt>
      <trkpt lat="42.6989820" lon="-0.0362570">
        <ele>2438.8</ele>
        <time>2022-07-23T11:58:50Z</time>
      </trkpt>
      <trkpt lat="42.6989790" lon="-0.0362580">
        <ele>2439.0</ele>
        <time>2022-07-23T11:58:51Z</time>
      </trkpt>
      <trkpt lat="42.6989700" lon="-0.0362510">
        <ele>2439.2</ele>
        <time>2022-07-23T11:58:54Z</time>
      </trkpt>
      <trkpt lat="42.6989330" lon="-0.0362180">
        <ele>2441.4</ele>
        <time>2022-07-23T11:59:06Z</time>
      </trkpt>
      <trkpt lat="42.6989320" lon="-0.0362170">
        <ele>2442.0</ele>
        <time>2022-07-23T11:59:09Z</time>
      </trkpt>
      <trkpt lat="42.6989300" lon="-0.0362180">
        <ele>2442.2</ele>
        <time>2022-07-23T11:59:10Z</time>
      </trkpt>
      <trkpt lat="42.6989290" lon="-0.0362170">
        <ele>2442.4</ele>
        <time>2022-07-23T11:59:12Z</time>
      </trkpt>
      <trkpt lat="42.6989250" lon="-0.0362150">
        <ele>2443.8</ele>
        <time>2022-07-23T11:59:24Z</time>
      </trkpt>
      <trkpt lat="42.6989200" lon="-0.0362180">
        <ele>2443.8</ele>
        <time>2022-07-23T11:59:54Z</time>
      </trkpt>
      <trkpt lat="42.6989170" lon="-0.0362240">
        <ele>2443.4</ele>
        <time>2022-07-23T12:00:17Z</time>
      </trkpt>
      <trkpt lat="42.6989130" lon="-0.0362270">
        <ele>2443.6</ele>
        <time>2022-07-23T12:00:26Z</time>
      </trkpt>
      <trkpt lat="42.6989120" lon="-0.0362270">
        <ele>2443.8</ele>
        <time>2022-07-23T12:00:31Z</time>
      </trkpt>
      <trkpt lat="42.6989110" lon="-0.0362310">
        <ele>2443.4</ele>
        <time>2022-07-23T12:00:39Z</time>
      </trkpt>
      <trkpt lat="42.6989120" lon="-0.0362330">
        <ele>2443.4</ele>
        <time>2022-07-23T12:00:40Z</time>
      </trkpt>
      <trkpt lat="42.6989130" lon="-0.0362340">
        <ele>2443.4</ele>
        <time>2022-07-23T12:00:41Z</time>
      </trkpt>
      <trkpt lat="42.6989150" lon="-0.0362340">
        <ele>2443.6</ele>
        <time>2022-07-23T12:00:49Z</time>
      </trkpt>
      <trkpt lat="42.6989150" lon="-0.0362340">
        <ele>2443.6</ele>
        <time>2022-07-23T12:00:51Z</time>
      </trkpt>
      <trkpt lat="42.6989140" lon="-0.0362340">
        <ele>2444.0</ele>
        <time>2022-07-23T12:00:54Z</time>
      </trkpt>
      <trkpt lat="42.6989140" lon="-0.0362340">
        <ele>2444.0</ele>
        <time>2022-07-23T12:00:55Z</time>
      </trkpt>
      <trkpt lat="42.6989180" lon="-0.0362250">
        <ele>2444.0</ele>
        <time>2022-07-23T12:01:11Z</time>
      </trkpt>
      <trkpt lat="42.6989220" lon="-0.0362530">
        <ele>2444.2</ele>
        <time>2022-07-23T12:01:28Z</time>
      </trkpt>
      <trkpt lat="42.6989180" lon="-0.0362310">
        <ele>2443.8</ele>
        <time>2022-07-23T12:01:38Z</time>
      </trkpt>
      <trkpt lat="42.6989260" lon="-0.0362090">
        <ele>2443.8</ele>
        <time>2022-07-23T12:01:42Z</time>
      </trkpt>
      <trkpt lat="42.6989190" lon="-0.0361860">
        <ele>2443.8</ele>
        <time>2022-07-23T12:01:44Z</time>
      </trkpt>
      <trkpt lat="42.6989120" lon="-0.0361770">
        <ele>2443.8</ele>
        <time>2022-07-23T12:01:46Z</time>
      </trkpt>
      <trkpt lat="42.6989110" lon="-0.0361760">
        <ele>2444.0</ele>
        <time>2022-07-23T12:01:47Z</time>
      </trkpt>
      <trkpt lat="42.6989130" lon="-0.0361860">
        <ele>2444.0</ele>
        <time>2022-07-23T12:01:49Z</time>
      </trkpt>
      <trkpt lat="42.6989080" lon="-0.0361990">
        <ele>2444.4</ele>
        <time>2022-07-23T12:01:51Z</time>
      </trkpt>
      <trkpt lat="42.6988890" lon="-0.0361990">
        <ele>2446.2</ele>
        <time>2022-07-23T12:01:59Z</time>
      </trkpt>
      <trkpt lat="42.6988970" lon="-0.0361780">
        <ele>2446.2</ele>
        <time>2022-07-23T12:02:01Z</time>
      </trkpt>
      <trkpt lat="42.6988740" lon="-0.0361520">
        <ele>2447.4</ele>
        <time>2022-07-23T12:02:08Z</time>
      </trkpt>
      <trkpt lat="42.6988720" lon="-0.0361260">
        <ele>2447.6</ele>
        <time>2022-07-23T12:02:12Z</time>
      </trkpt>
      <trkpt lat="42.6988750" lon="-0.0361240">
        <ele>2447.6</ele>
        <time>2022-07-23T12:02:13Z</time>
      </trkpt>
      <trkpt lat="42.6988760" lon="-0.0361180">
        <ele>2448.0</ele>
        <time>2022-07-23T12:02:14Z</time>
      </trkpt>
      <trkpt lat="42.6988820" lon="-0.0361040">
        <ele>2448.4</ele>
        <time>2022-07-23T12:02:18Z</time>
      </trkpt>
      <trkpt lat="42.6988830" lon="-0.0360980">
        <ele>2448.6</ele>
        <time>2022-07-23T12:02:19Z</time>
      </trkpt>
      <trkpt lat="42.6988830" lon="-0.0360950">
        <ele>2449.0</ele>
        <time>2022-07-23T12:02:20Z</time>
      </trkpt>
      <trkpt lat="42.6988810" lon="-0.0360900">
        <ele>2449.0</ele>
        <time>2022-07-23T12:02:21Z</time>
      </trkpt>
      <trkpt lat="42.6988800" lon="-0.0360850">
        <ele>2449.2</ele>
        <time>2022-07-23T12:02:22Z</time>
      </trkpt>
      <trkpt lat="42.6988790" lon="-0.0360810">
        <ele>2449.4</ele>
        <time>2022-07-23T12:02:23Z</time>
      </trkpt>
      <trkpt lat="42.6988800" lon="-0.0360740">
        <ele>2449.6</ele>
        <time>2022-07-23T12:02:25Z</time>
      </trkpt>
      <trkpt lat="42.6988810" lon="-0.0360700">
        <ele>2449.8</ele>
        <time>2022-07-23T12:02:28Z</time>
      </trkpt>
      <trkpt lat="42.6988600" lon="-0.0360840">
        <ele>2451.0</ele>
        <time>2022-07-23T12:02:37Z</time>
      </trkpt>
      <trkpt lat="42.6988430" lon="-0.0360960">
        <ele>2451.4</ele>
        <time>2022-07-23T12:02:42Z</time>
      </trkpt>
      <trkpt lat="42.6988360" lon="-0.0360960">
        <ele>2451.4</ele>
        <time>2022-07-23T12:02:44Z</time>
      </trkpt>
      <trkpt lat="42.6988320" lon="-0.0360380">
        <ele>2453.2</ele>
        <time>2022-07-23T12:02:54Z</time>
      </trkpt>
      <trkpt lat="42.6988320" lon="-0.0360330">
        <ele>2453.2</ele>
        <time>2022-07-23T12:02:55Z</time>
      </trkpt>
      <trkpt lat="42.6988220" lon="-0.0360290">
        <ele>2453.4</ele>
        <time>2022-07-23T12:02:58Z</time>
      </trkpt>
      <trkpt lat="42.6988190" lon="-0.0360290">
        <ele>2453.6</ele>
        <time>2022-07-23T12:02:59Z</time>
      </trkpt>
      <trkpt lat="42.6988150" lon="-0.0360290">
        <ele>2453.8</ele>
        <time>2022-07-23T12:03:00Z</time>
      </trkpt>
      <trkpt lat="42.6988040" lon="-0.0360240">
        <ele>2453.8</ele>
        <time>2022-07-23T12:03:03Z</time>
      </trkpt>
      <trkpt lat="42.6987820" lon="-0.0360340">
        <ele>2455.4</ele>
        <time>2022-07-23T12:03:09Z</time>
      </trkpt>
      <trkpt lat="42.6987710" lon="-0.0360350">
        <ele>2456.0</ele>
        <time>2022-07-23T12:03:11Z</time>
      </trkpt>
      <trkpt lat="42.6987530" lon="-0.0360740">
        <ele>2457.2</ele>
        <time>2022-07-23T12:03:19Z</time>
      </trkpt>
      <trkpt lat="42.6987510" lon="-0.0360730">
        <ele>2457.4</ele>
        <time>2022-07-23T12:03:20Z</time>
      </trkpt>
      <trkpt lat="42.6987530" lon="-0.0360650">
        <ele>2457.8</ele>
        <time>2022-07-23T12:03:21Z</time>
      </trkpt>
      <trkpt lat="42.6987620" lon="-0.0360410">
        <ele>2458.0</ele>
        <time>2022-07-23T12:03:23Z</time>
      </trkpt>
      <trkpt lat="42.6987680" lon="-0.0360090">
        <ele>2458.6</ele>
        <time>2022-07-23T12:03:26Z</time>
      </trkpt>
      <trkpt lat="42.6987670" lon="-0.0359970">
        <ele>2458.6</ele>
        <time>2022-07-23T12:03:28Z</time>
      </trkpt>
      <trkpt lat="42.6987650" lon="-0.0359910">
        <ele>2459.0</ele>
        <time>2022-07-23T12:03:29Z</time>
      </trkpt>
      <trkpt lat="42.6987570" lon="-0.0359870">
        <ele>2459.2</ele>
        <time>2022-07-23T12:03:30Z</time>
      </trkpt>
      <trkpt lat="42.6987240" lon="-0.0359680">
        <ele>2460.8</ele>
        <time>2022-07-23T12:03:40Z</time>
      </trkpt>
      <trkpt lat="42.6987190" lon="-0.0359660">
        <ele>2461.0</ele>
        <time>2022-07-23T12:03:41Z</time>
      </trkpt>
      <trkpt lat="42.6987100" lon="-0.0359590">
        <ele>2461.4</ele>
        <time>2022-07-23T12:03:47Z</time>
      </trkpt>
      <trkpt lat="42.6986960" lon="-0.0359450">
        <ele>2461.6</ele>
        <time>2022-07-23T12:03:52Z</time>
      </trkpt>
      <trkpt lat="42.6986860" lon="-0.0359370">
        <ele>2462.2</ele>
        <time>2022-07-23T12:03:56Z</time>
      </trkpt>
      <trkpt lat="42.6986550" lon="-0.0359280">
        <ele>2462.2</ele>
        <time>2022-07-23T12:04:02Z</time>
      </trkpt>
      <trkpt lat="42.6986400" lon="-0.0359260">
        <ele>2462.2</ele>
        <time>2022-07-23T12:04:04Z</time>
      </trkpt>
      <trkpt lat="42.6986340" lon="-0.0359230">
        <ele>2462.4</ele>
        <time>2022-07-23T12:04:05Z</time>
      </trkpt>
      <trkpt lat="42.6986280" lon="-0.0359230">
        <ele>2462.8</ele>
        <time>2022-07-23T12:04:09Z</time>
      </trkpt>
      <trkpt lat="42.6986180" lon="-0.0359280">
        <ele>2463.6</ele>
        <time>2022-07-23T12:04:11Z</time>
      </trkpt>
      <trkpt lat="42.6985850" lon="-0.0359570">
        <ele>2464.4</ele>
        <time>2022-07-23T12:04:16Z</time>
      </trkpt>
      <trkpt lat="42.6985760" lon="-0.0359660">
        <ele>2465.2</ele>
        <time>2022-07-23T12:04:20Z</time>
      </trkpt>
      <trkpt lat="42.6985700" lon="-0.0359880">
        <ele>2466.2</ele>
        <time>2022-07-23T12:04:25Z</time>
      </trkpt>
      <trkpt lat="42.6985660" lon="-0.0359910">
        <ele>2466.4</ele>
        <time>2022-07-23T12:04:26Z</time>
      </trkpt>
      <trkpt lat="42.6984970" lon="-0.0360050">
        <ele>2468.4</ele>
        <time>2022-07-23T12:04:36Z</time>
      </trkpt>
      <trkpt lat="42.6984920" lon="-0.0360140">
        <ele>2468.6</ele>
        <time>2022-07-23T12:04:37Z</time>
      </trkpt>
      <trkpt lat="42.6984580" lon="-0.0360340">
        <ele>2469.6</ele>
        <time>2022-07-23T12:04:45Z</time>
      </trkpt>
      <trkpt lat="42.6984550" lon="-0.0360030">
        <ele>2470.0</ele>
        <time>2022-07-23T12:04:48Z</time>
      </trkpt>
      <trkpt lat="42.6984510" lon="-0.0359790">
        <ele>2470.2</ele>
        <time>2022-07-23T12:04:50Z</time>
      </trkpt>
      <trkpt lat="42.6984420" lon="-0.0359590">
        <ele>2470.2</ele>
        <time>2022-07-23T12:04:52Z</time>
      </trkpt>
      <trkpt lat="42.6984380" lon="-0.0359510">
        <ele>2470.4</ele>
        <time>2022-07-23T12:04:53Z</time>
      </trkpt>
      <trkpt lat="42.6983960" lon="-0.0359240">
        <ele>2471.6</ele>
        <time>2022-07-23T12:04:59Z</time>
      </trkpt>
      <trkpt lat="42.6983820" lon="-0.0359350">
        <ele>2472.0</ele>
        <time>2022-07-23T12:05:01Z</time>
      </trkpt>
      <trkpt lat="42.6983620" lon="-0.0359490">
        <ele>2472.2</ele>
        <time>2022-07-23T12:05:03Z</time>
      </trkpt>
      <trkpt lat="42.6983360" lon="-0.0359590">
        <ele>2473.6</ele>
        <time>2022-07-23T12:05:13Z</time>
      </trkpt>
      <trkpt lat="42.6983200" lon="-0.0359480">
        <ele>2475.2</ele>
        <time>2022-07-23T12:05:26Z</time>
      </trkpt>
      <trkpt lat="42.6982990" lon="-0.0359760">
        <ele>2475.6</ele>
        <time>2022-07-23T12:05:35Z</time>
      </trkpt>
      <trkpt lat="42.6982980" lon="-0.0359770">
        <ele>2475.6</ele>
        <time>2022-07-23T12:05:36Z</time>
      </trkpt>
      <trkpt lat="42.6982710" lon="-0.0359710">
        <ele>2475.6</ele>
        <time>2022-07-23T12:05:43Z</time>
      </trkpt>
      <trkpt lat="42.6982670" lon="-0.0359720">
        <ele>2475.6</ele>
        <time>2022-07-23T12:05:44Z</time>
      </trkpt>
      <trkpt lat="42.6982660" lon="-0.0359730">
        <ele>2475.6</ele>
        <time>2022-07-23T12:05:45Z</time>
      </trkpt>
      <trkpt lat="42.6982630" lon="-0.0359760">
        <ele>2475.8</ele>
        <time>2022-07-23T12:05:46Z</time>
      </trkpt>
      <trkpt lat="42.6982510" lon="-0.0359890">
        <ele>2477.8</ele>
        <time>2022-07-23T12:05:57Z</time>
      </trkpt>
      <trkpt lat="42.6982020" lon="-0.0359400">
        <ele>2478.2</ele>
        <time>2022-07-23T12:06:08Z</time>
      </trkpt>
      <trkpt lat="42.6982010" lon="-0.0359380">
        <ele>2478.2</ele>
        <time>2022-07-23T12:06:09Z</time>
      </trkpt>
      <trkpt lat="42.6981880" lon="-0.0359300">
        <ele>2478.4</ele>
        <time>2022-07-23T12:06:12Z</time>
      </trkpt>
      <trkpt lat="42.6981840" lon="-0.0359280">
        <ele>2478.6</ele>
        <time>2022-07-23T12:06:14Z</time>
      </trkpt>
      <trkpt lat="42.6981630" lon="-0.0359080">
        <ele>2479.2</ele>
        <time>2022-07-23T12:06:19Z</time>
      </trkpt>
      <trkpt lat="42.6981320" lon="-0.0359120">
        <ele>2479.8</ele>
        <time>2022-07-23T12:06:24Z</time>
      </trkpt>
      <trkpt lat="42.6980910" lon="-0.0358440">
        <ele>2481.6</ele>
        <time>2022-07-23T12:06:34Z</time>
      </trkpt>
      <trkpt lat="42.6980700" lon="-0.0358170">
        <ele>2481.6</ele>
        <time>2022-07-23T12:06:37Z</time>
      </trkpt>
      <trkpt lat="42.6979880" lon="-0.0358370">
        <ele>2482.6</ele>
        <time>2022-07-23T12:06:47Z</time>
      </trkpt>
      <trkpt lat="42.6979760" lon="-0.0358400">
        <ele>2482.8</ele>
        <time>2022-07-23T12:06:49Z</time>
      </trkpt>
      <trkpt lat="42.6979580" lon="-0.0358390">
        <ele>2483.4</ele>
        <time>2022-07-23T12:06:54Z</time>
      </trkpt>
      <trkpt lat="42.6979440" lon="-0.0358390">
        <ele>2484.0</ele>
        <time>2022-07-23T12:06:57Z</time>
      </trkpt>
      <trkpt lat="42.6979190" lon="-0.0358620">
        <ele>2484.4</ele>
        <time>2022-07-23T12:07:00Z</time>
      </trkpt>
      <trkpt lat="42.6979110" lon="-0.0358680">
        <ele>2484.8</ele>
        <time>2022-07-23T12:07:02Z</time>
      </trkpt>
      <trkpt lat="42.6978990" lon="-0.0358350">
        <ele>2485.0</ele>
        <time>2022-07-23T12:07:07Z</time>
      </trkpt>
      <trkpt lat="42.6978810" lon="-0.0358020">
        <ele>2485.8</ele>
        <time>2022-07-23T12:07:11Z</time>
      </trkpt>
      <trkpt lat="42.6978770" lon="-0.0357760">
        <ele>2486.8</ele>
        <time>2022-07-23T12:07:14Z</time>
      </trkpt>
      <trkpt lat="42.6978750" lon="-0.0357410">
        <ele>2487.2</ele>
        <time>2022-07-23T12:07:17Z</time>
      </trkpt>
      <trkpt lat="42.6978710" lon="-0.0357330">
        <ele>2487.2</ele>
        <time>2022-07-23T12:07:18Z</time>
      </trkpt>
      <trkpt lat="42.6978520" lon="-0.0357090">
        <ele>2488.0</ele>
        <time>2022-07-23T12:07:23Z</time>
      </trkpt>
      <trkpt lat="42.6978250" lon="-0.0357270">
        <ele>2489.0</ele>
        <time>2022-07-23T12:07:27Z</time>
      </trkpt>
      <trkpt lat="42.6977850" lon="-0.0357560">
        <ele>2489.4</ele>
        <time>2022-07-23T12:07:31Z</time>
      </trkpt>
      <trkpt lat="42.6977810" lon="-0.0357590">
        <ele>2489.6</ele>
        <time>2022-07-23T12:07:33Z</time>
      </trkpt>
      <trkpt lat="42.6977730" lon="-0.0357680">
        <ele>2491.0</ele>
        <time>2022-07-23T12:07:38Z</time>
      </trkpt>
      <trkpt lat="42.6977680" lon="-0.0357470">
        <ele>2492.0</ele>
        <time>2022-07-23T12:07:44Z</time>
      </trkpt>
      <trkpt lat="42.6977560" lon="-0.0356880">
        <ele>2492.6</ele>
        <time>2022-07-23T12:07:49Z</time>
      </trkpt>
      <trkpt lat="42.6977410" lon="-0.0356360">
        <ele>2493.2</ele>
        <time>2022-07-23T12:07:52Z</time>
      </trkpt>
      <trkpt lat="42.6977250" lon="-0.0355910">
        <ele>2493.4</ele>
        <time>2022-07-23T12:07:56Z</time>
      </trkpt>
      <trkpt lat="42.6977080" lon="-0.0355370">
        <ele>2494.0</ele>
        <time>2022-07-23T12:08:01Z</time>
      </trkpt>
      <trkpt lat="42.6976730" lon="-0.0355250">
        <ele>2495.0</ele>
        <time>2022-07-23T12:08:06Z</time>
      </trkpt>
      <trkpt lat="42.6976500" lon="-0.0355400">
        <ele>2495.8</ele>
        <time>2022-07-23T12:08:09Z</time>
      </trkpt>
      <trkpt lat="42.6976080" lon="-0.0355480">
        <ele>2496.8</ele>
        <time>2022-07-23T12:08:16Z</time>
      </trkpt>
      <trkpt lat="42.6975830" lon="-0.0355420">
        <ele>2498.0</ele>
        <time>2022-07-23T12:08:20Z</time>
      </trkpt>
      <trkpt lat="42.6975580" lon="-0.0355380">
        <ele>2498.6</ele>
        <time>2022-07-23T12:08:25Z</time>
      </trkpt>
      <trkpt lat="42.6975410" lon="-0.0355290">
        <ele>2499.2</ele>
        <time>2022-07-23T12:08:28Z</time>
      </trkpt>
      <trkpt lat="42.6975140" lon="-0.0355110">
        <ele>2500.2</ele>
        <time>2022-07-23T12:08:32Z</time>
      </trkpt>
      <trkpt lat="42.6974620" lon="-0.0354560">
        <ele>2502.8</ele>
        <time>2022-07-23T12:08:43Z</time>
      </trkpt>
      <trkpt lat="42.6974590" lon="-0.0354530">
        <ele>2503.0</ele>
        <time>2022-07-23T12:08:44Z</time>
      </trkpt>
      <trkpt lat="42.6974620" lon="-0.0354290">
        <ele>2504.4</ele>
        <time>2022-07-23T12:08:53Z</time>
      </trkpt>
      <trkpt lat="42.6974720" lon="-0.0354260">
        <ele>2504.8</ele>
        <time>2022-07-23T12:08:55Z</time>
      </trkpt>
      <trkpt lat="42.6974720" lon="-0.0353890">
        <ele>2505.8</ele>
        <time>2022-07-23T12:09:01Z</time>
      </trkpt>
      <trkpt lat="42.6974550" lon="-0.0353610">
        <ele>2507.4</ele>
        <time>2022-07-23T12:09:07Z</time>
      </trkpt>
      <trkpt lat="42.6974570" lon="-0.0353470">
        <ele>2507.6</ele>
        <time>2022-07-23T12:09:09Z</time>
      </trkpt>
      <trkpt lat="42.6974540" lon="-0.0353250">
        <ele>2508.8</ele>
        <time>2022-07-23T12:09:19Z</time>
      </trkpt>
      <trkpt lat="42.6974660" lon="-0.0353060">
        <ele>2509.8</ele>
        <time>2022-07-23T12:09:22Z</time>
      </trkpt>
      <trkpt lat="42.6974630" lon="-0.0352750">
        <ele>2510.8</ele>
        <time>2022-07-23T12:09:30Z</time>
      </trkpt>
      <trkpt lat="42.6974790" lon="-0.0352290">
        <ele>2511.8</ele>
        <time>2022-07-23T12:09:35Z</time>
      </trkpt>
      <trkpt lat="42.6974810" lon="-0.0352010">
        <ele>2512.8</ele>
        <time>2022-07-23T12:09:39Z</time>
      </trkpt>
      <trkpt lat="42.6974800" lon="-0.0351320">
        <ele>2514.6</ele>
        <time>2022-07-23T12:09:49Z</time>
      </trkpt>
      <trkpt lat="42.6974550" lon="-0.0351040">
        <ele>2515.2</ele>
        <time>2022-07-23T12:09:55Z</time>
      </trkpt>
      <trkpt lat="42.6974500" lon="-0.0350650">
        <ele>2515.8</ele>
        <time>2022-07-23T12:10:00Z</time>
      </trkpt>
      <trkpt lat="42.6974410" lon="-0.0350390">
        <ele>2516.2</ele>
        <time>2022-07-23T12:10:04Z</time>
      </trkpt>
      <trkpt lat="42.6974290" lon="-0.0350120">
        <ele>2517.0</ele>
        <time>2022-07-23T12:10:09Z</time>
      </trkpt>
      <trkpt lat="42.6974260" lon="-0.0350040">
        <ele>2517.2</ele>
        <time>2022-07-23T12:10:10Z</time>
      </trkpt>
      <trkpt lat="42.6974230" lon="-0.0350040">
        <ele>2517.4</ele>
        <time>2022-07-23T12:10:11Z</time>
      </trkpt>
      <trkpt lat="42.6974150" lon="-0.0349850">
        <ele>2518.4</ele>
        <time>2022-07-23T12:10:16Z</time>
      </trkpt>
      <trkpt lat="42.6974220" lon="-0.0349470">
        <ele>2519.4</ele>
        <time>2022-07-23T12:10:21Z</time>
      </trkpt>
      <trkpt lat="42.6974050" lon="-0.0348960">
        <ele>2520.4</ele>
        <time>2022-07-23T12:10:26Z</time>
      </trkpt>
      <trkpt lat="42.6974020" lon="-0.0348760">
        <ele>2521.0</ele>
        <time>2022-07-23T12:10:28Z</time>
      </trkpt>
      <trkpt lat="42.6973980" lon="-0.0348720">
        <ele>2521.0</ele>
        <time>2022-07-23T12:10:29Z</time>
      </trkpt>
      <trkpt lat="42.6973990" lon="-0.0348280">
        <ele>2523.4</ele>
        <time>2022-07-23T12:10:39Z</time>
      </trkpt>
      <trkpt lat="42.6973720" lon="-0.0348020">
        <ele>2524.4</ele>
        <time>2022-07-23T12:10:46Z</time>
      </trkpt>
      <trkpt lat="42.6973590" lon="-0.0347960">
        <ele>2525.0</ele>
        <time>2022-07-23T12:10:50Z</time>
      </trkpt>
      <trkpt lat="42.6973440" lon="-0.0348060">
        <ele>2525.8</ele>
        <time>2022-07-23T12:10:54Z</time>
      </trkpt>
      <trkpt lat="42.6973390" lon="-0.0348120">
        <ele>2526.6</ele>
        <time>2022-07-23T12:10:56Z</time>
      </trkpt>
      <trkpt lat="42.6973360" lon="-0.0348060">
        <ele>2527.2</ele>
        <time>2022-07-23T12:10:58Z</time>
      </trkpt>
      <trkpt lat="42.6973320" lon="-0.0348040">
        <ele>2527.4</ele>
        <time>2022-07-23T12:10:59Z</time>
      </trkpt>
      <trkpt lat="42.6973250" lon="-0.0348000">
        <ele>2528.4</ele>
        <time>2022-07-23T12:11:05Z</time>
      </trkpt>
      <trkpt lat="42.6973260" lon="-0.0347970">
        <ele>2528.6</ele>
        <time>2022-07-23T12:11:06Z</time>
      </trkpt>
      <trkpt lat="42.6973280" lon="-0.0347930">
        <ele>2529.0</ele>
        <time>2022-07-23T12:11:08Z</time>
      </trkpt>
      <trkpt lat="42.6973290" lon="-0.0347900">
        <ele>2529.6</ele>
        <time>2022-07-23T12:11:09Z</time>
      </trkpt>
      <trkpt lat="42.6973210" lon="-0.0347910">
        <ele>2530.6</ele>
        <time>2022-07-23T12:11:25Z</time>
      </trkpt>
      <trkpt lat="42.6973230" lon="-0.0347910">
        <ele>2530.4</ele>
        <time>2022-07-23T12:11:50Z</time>
      </trkpt>
      <trkpt lat="42.6973240" lon="-0.0347990">
        <ele>2530.4</ele>
        <time>2022-07-23T12:12:27Z</time>
      </trkpt>
      <trkpt lat="42.6973220" lon="-0.0348010">
        <ele>2530.2</ele>
        <time>2022-07-23T12:12:37Z</time>
      </trkpt>
      <trkpt lat="42.6973210" lon="-0.0348060">
        <ele>2530.2</ele>
        <time>2022-07-23T12:12:39Z</time>
      </trkpt>
      <trkpt lat="42.6973170" lon="-0.0348150">
        <ele>2530.2</ele>
        <time>2022-07-23T12:12:51Z</time>
      </trkpt>
      <trkpt lat="42.6973150" lon="-0.0348210">
        <ele>2530.2</ele>
        <time>2022-07-23T12:13:02Z</time>
      </trkpt>
      <trkpt lat="42.6973150" lon="-0.0348220">
        <ele>2530.2</ele>
        <time>2022-07-23T12:13:05Z</time>
      </trkpt>
      <trkpt lat="42.6973160" lon="-0.0348220">
        <ele>2530.4</ele>
        <time>2022-07-23T12:13:07Z</time>
      </trkpt>
      <trkpt lat="42.6973160" lon="-0.0348220">
        <ele>2530.4</ele>
        <time>2022-07-23T12:13:14Z</time>
      </trkpt>
      <trkpt lat="42.6973090" lon="-0.0348270">
        <ele>2530.4</ele>
        <time>2022-07-23T12:13:44Z</time>
      </trkpt>
      <trkpt lat="42.6972880" lon="-0.0348290">
        <ele>2530.6</ele>
        <time>2022-07-23T12:14:00Z</time>
      </trkpt>
      <trkpt lat="42.6972830" lon="-0.0348340">
        <ele>2530.4</ele>
        <time>2022-07-23T12:14:06Z</time>
      </trkpt>
      <trkpt lat="42.6972800" lon="-0.0348340">
        <ele>2530.4</ele>
        <time>2022-07-23T12:14:07Z</time>
      </trkpt>
      <trkpt lat="42.6972380" lon="-0.0348310">
        <ele>2530.4</ele>
        <time>2022-07-23T12:14:14Z</time>
      </trkpt>
      <trkpt lat="42.6971910" lon="-0.0348250">
        <ele>2530.4</ele>
        <time>2022-07-23T12:14:19Z</time>
      </trkpt>
      <trkpt lat="42.6971550" lon="-0.0348130">
        <ele>2530.6</ele>
        <time>2022-07-23T12:14:22Z</time>
      </trkpt>
      <trkpt lat="42.6971420" lon="-0.0348130">
        <ele>2530.6</ele>
        <time>2022-07-23T12:14:23Z</time>
      </trkpt>
      <trkpt lat="42.6971050" lon="-0.0348010">
        <ele>2530.8</ele>
        <time>2022-07-23T12:14:26Z</time>
      </trkpt>
      <trkpt lat="42.6970680" lon="-0.0347390">
        <ele>2531.0</ele>
        <time>2022-07-23T12:14:32Z</time>
      </trkpt>
      <trkpt lat="42.6970500" lon="-0.0347270">
        <ele>2531.2</ele>
        <time>2022-07-23T12:14:34Z</time>
      </trkpt>
      <trkpt lat="42.6970180" lon="-0.0347310">
        <ele>2531.2</ele>
        <time>2022-07-23T12:14:37Z</time>
      </trkpt>
      <trkpt lat="42.6969700" lon="-0.0347310">
        <ele>2531.2</ele>
        <time>2022-07-23T12:14:42Z</time>
      </trkpt>
      <trkpt lat="42.6969220" lon="-0.0347070">
        <ele>2531.6</ele>
        <time>2022-07-23T12:14:48Z</time>
      </trkpt>
      <trkpt lat="42.6969190" lon="-0.0347030">
        <ele>2531.6</ele>
        <time>2022-07-23T12:14:49Z</time>
      </trkpt>
      <trkpt lat="42.6968700" lon="-0.0346100">
        <ele>2531.4</ele>
        <time>2022-07-23T12:14:58Z</time>
      </trkpt>
      <trkpt lat="42.6968490" lon="-0.0345780">
        <ele>2531.0</ele>
        <time>2022-07-23T12:15:01Z</time>
      </trkpt>
      <trkpt lat="42.6968250" lon="-0.0344220">
        <ele>2530.0</ele>
        <time>2022-07-23T12:15:13Z</time>
      </trkpt>
      <trkpt lat="42.6968230" lon="-0.0344140">
        <ele>2529.8</ele>
        <time>2022-07-23T12:15:14Z</time>
      </trkpt>
      <trkpt lat="42.6968080" lon="-0.0343650">
        <ele>2529.4</ele>
        <time>2022-07-23T12:15:20Z</time>
      </trkpt>
      <trkpt lat="42.6968010" lon="-0.0343500">
        <ele>2529.2</ele>
        <time>2022-07-23T12:15:22Z</time>
      </trkpt>
      <trkpt lat="42.6967540" lon="-0.0342930">
        <ele>2527.8</ele>
        <time>2022-07-23T12:15:29Z</time>
      </trkpt>
      <trkpt lat="42.6967260" lon="-0.0342670">
        <ele>2526.6</ele>
        <time>2022-07-23T12:15:33Z</time>
      </trkpt>
      <trkpt lat="42.6967090" lon="-0.0342460">
        <ele>2526.4</ele>
        <time>2022-07-23T12:15:35Z</time>
      </trkpt>
      <trkpt lat="42.6966930" lon="-0.0342300">
        <ele>2526.2</ele>
        <time>2022-07-23T12:15:37Z</time>
      </trkpt>
      <trkpt lat="42.6966660" lon="-0.0341920">
        <ele>2525.4</ele>
        <time>2022-07-23T12:15:42Z</time>
      </trkpt>
      <trkpt lat="42.6966670" lon="-0.0341850">
        <ele>2525.2</ele>
        <time>2022-07-23T12:15:43Z</time>
      </trkpt>
      <trkpt lat="42.6966610" lon="-0.0341550">
        <ele>2523.8</ele>
        <time>2022-07-23T12:15:47Z</time>
      </trkpt>
      <trkpt lat="42.6966700" lon="-0.0340830">
        <ele>2522.4</ele>
        <time>2022-07-23T12:15:53Z</time>
      </trkpt>
      <trkpt lat="42.6966680" lon="-0.0340660">
        <ele>2522.2</ele>
        <time>2022-07-23T12:15:54Z</time>
      </trkpt>
      <trkpt lat="42.6966670" lon="-0.0340340">
        <ele>2521.6</ele>
        <time>2022-07-23T12:15:56Z</time>
      </trkpt>
      <trkpt lat="42.6966310" lon="-0.0339260">
        <ele>2520.2</ele>
        <time>2022-07-23T12:16:02Z</time>
      </trkpt>
      <trkpt lat="42.6966100" lon="-0.0339040">
        <ele>2519.6</ele>
        <time>2022-07-23T12:16:04Z</time>
      </trkpt>
      <trkpt lat="42.6965880" lon="-0.0338820">
        <ele>2519.0</ele>
        <time>2022-07-23T12:16:06Z</time>
      </trkpt>
      <trkpt lat="42.6965510" lon="-0.0338520">
        <ele>2518.6</ele>
        <time>2022-07-23T12:16:10Z</time>
      </trkpt>
      <trkpt lat="42.6965280" lon="-0.0338440">
        <ele>2518.6</ele>
        <time>2022-07-23T12:16:12Z</time>
      </trkpt>
      <trkpt lat="42.6964240" lon="-0.0338080">
        <ele>2518.6</ele>
        <time>2022-07-23T12:16:19Z</time>
      </trkpt>
      <trkpt lat="42.6963790" lon="-0.0337670">
        <ele>2519.0</ele>
        <time>2022-07-23T12:16:25Z</time>
      </trkpt>
      <trkpt lat="42.6963630" lon="-0.0337580">
        <ele>2519.2</ele>
        <time>2022-07-23T12:16:28Z</time>
      </trkpt>
      <trkpt lat="42.6963140" lon="-0.0336920">
        <ele>2519.8</ele>
        <time>2022-07-23T12:16:35Z</time>
      </trkpt>
      <trkpt lat="42.6962600" lon="-0.0336530">
        <ele>2520.8</ele>
        <time>2022-07-23T12:16:41Z</time>
      </trkpt>
      <trkpt lat="42.6962510" lon="-0.0336560">
        <ele>2520.8</ele>
        <time>2022-07-23T12:16:42Z</time>
      </trkpt>
      <trkpt lat="42.6962210" lon="-0.0336430">
        <ele>2521.0</ele>
        <time>2022-07-23T12:16:46Z</time>
      </trkpt>
      <trkpt lat="42.6961930" lon="-0.0336260">
        <ele>2521.6</ele>
        <time>2022-07-23T12:16:50Z</time>
      </trkpt>
      <trkpt lat="42.6961590" lon="-0.0336030">
        <ele>2522.2</ele>
        <time>2022-07-23T12:16:54Z</time>
      </trkpt>
      <trkpt lat="42.6961240" lon="-0.0335770">
        <ele>2522.6</ele>
        <time>2022-07-23T12:16:57Z</time>
      </trkpt>
      <trkpt lat="42.6961020" lon="-0.0335670">
        <ele>2522.6</ele>
        <time>2022-07-23T12:16:59Z</time>
      </trkpt>
      <trkpt lat="42.6960980" lon="-0.0335620">
        <ele>2522.6</ele>
        <time>2022-07-23T12:17:00Z</time>
      </trkpt>
      <trkpt lat="42.6960870" lon="-0.0335490">
        <ele>2522.8</ele>
        <time>2022-07-23T12:17:02Z</time>
      </trkpt>
      <trkpt lat="42.6960590" lon="-0.0335420">
        <ele>2522.6</ele>
        <time>2022-07-23T12:17:06Z</time>
      </trkpt>
      <trkpt lat="42.6960280" lon="-0.0335340">
        <ele>2523.0</ele>
        <time>2022-07-23T12:17:11Z</time>
      </trkpt>
      <trkpt lat="42.6960210" lon="-0.0335210">
        <ele>2523.0</ele>
        <time>2022-07-23T12:17:14Z</time>
      </trkpt>
      <trkpt lat="42.6960230" lon="-0.0335190">
        <ele>2523.2</ele>
        <time>2022-07-23T12:17:15Z</time>
      </trkpt>
      <trkpt lat="42.6960140" lon="-0.0335070">
        <ele>2523.2</ele>
        <time>2022-07-23T12:17:18Z</time>
      </trkpt>
      <trkpt lat="42.6959870" lon="-0.0334770">
        <ele>2523.4</ele>
        <time>2022-07-23T12:17:22Z</time>
      </trkpt>
      <trkpt lat="42.6959710" lon="-0.0334850">
        <ele>2523.8</ele>
        <time>2022-07-23T12:17:25Z</time>
      </trkpt>
      <trkpt lat="42.6959560" lon="-0.0335040">
        <ele>2524.6</ele>
        <time>2022-07-23T12:17:28Z</time>
      </trkpt>
      <trkpt lat="42.6959550" lon="-0.0335090">
        <ele>2524.6</ele>
        <time>2022-07-23T12:17:29Z</time>
      </trkpt>
      <trkpt lat="42.6959690" lon="-0.0334730">
        <ele>2526.2</ele>
        <time>2022-07-23T12:17:38Z</time>
      </trkpt>
      <trkpt lat="42.6959710" lon="-0.0333100">
        <ele>2528.0</ele>
        <time>2022-07-23T12:17:51Z</time>
      </trkpt>
      <trkpt lat="42.6959610" lon="-0.0332330">
        <ele>2528.0</ele>
        <time>2022-07-23T12:18:02Z</time>
      </trkpt>
      <trkpt lat="42.6959570" lon="-0.0332270">
        <ele>2528.0</ele>
        <time>2022-07-23T12:18:03Z</time>
      </trkpt>
      <trkpt lat="42.6958900" lon="-0.0332020">
        <ele>2527.2</ele>
        <time>2022-07-23T12:18:14Z</time>
      </trkpt>
      <trkpt lat="42.6958970" lon="-0.0331750">
        <ele>2527.4</ele>
        <time>2022-07-23T12:18:20Z</time>
      </trkpt>
      <trkpt lat="42.6959050" lon="-0.0331590">
        <ele>2527.2</ele>
        <time>2022-07-23T12:18:21Z</time>
      </trkpt>
      <trkpt lat="42.6959190" lon="-0.0331450">
        <ele>2527.4</ele>
        <time>2022-07-23T12:18:25Z</time>
      </trkpt>
      <trkpt lat="42.6959280" lon="-0.0331370">
        <ele>2527.4</ele>
        <time>2022-07-23T12:18:28Z</time>
      </trkpt>
      <trkpt lat="42.6959150" lon="-0.0331220">
        <ele>2527.2</ele>
        <time>2022-07-23T12:18:38Z</time>
      </trkpt>
      <trkpt lat="42.6959150" lon="-0.0331900">
        <ele>2527.4</ele>
        <time>2022-07-23T12:18:42Z</time>
      </trkpt>
      <trkpt lat="42.6959040" lon="-0.0331900">
        <ele>2527.4</ele>
        <time>2022-07-23T12:18:45Z</time>
      </trkpt>
      <trkpt lat="42.6959360" lon="-0.0331820">
        <ele>2527.8</ele>
        <time>2022-07-23T12:18:55Z</time>
      </trkpt>
      <trkpt lat="42.6959360" lon="-0.0331810">
        <ele>2527.6</ele>
        <time>2022-07-23T12:18:56Z</time>
      </trkpt>
      <trkpt lat="42.6959110" lon="-0.0331380">
        <ele>2527.4</ele>
        <time>2022-07-23T12:19:06Z</time>
      </trkpt>
      <trkpt lat="42.6958980" lon="-0.0331040">
        <ele>2527.0</ele>
        <time>2022-07-23T12:19:20Z</time>
      </trkpt>
      <trkpt lat="42.6959140" lon="-0.0330370">
        <ele>2526.8</ele>
        <time>2022-07-23T12:19:31Z</time>
      </trkpt>
      <trkpt lat="42.6958990" lon="-0.0330640">
        <ele>2527.0</ele>
        <time>2022-07-23T12:20:01Z</time>
      </trkpt>
      <trkpt lat="42.6958980" lon="-0.0330650">
        <ele>2527.0</ele>
        <time>2022-07-23T12:20:02Z</time>
      </trkpt>
      <trkpt lat="42.6958970" lon="-0.0330320">
        <ele>2527.8</ele>
        <time>2022-07-23T12:20:16Z</time>
      </trkpt>
      <trkpt lat="42.6959010" lon="-0.0330160">
        <ele>2527.6</ele>
        <time>2022-07-23T12:20:32Z</time>
      </trkpt>
      <trkpt lat="42.6958830" lon="-0.0330170">
        <ele>2527.6</ele>
        <time>2022-07-23T12:20:33Z</time>
      </trkpt>
      <trkpt lat="42.6958550" lon="-0.0330060">
        <ele>2527.6</ele>
        <time>2022-07-23T12:20:40Z</time>
      </trkpt>
      <trkpt lat="42.6959130" lon="-0.0330430">
        <ele>2528.8</ele>
        <time>2022-07-23T13:12:38Z</time>
      </trkpt>
      <trkpt lat="42.6958930" lon="-0.0331410">
        <ele>2528.8</ele>
        <time>2022-07-23T13:12:44Z</time>
      </trkpt>
      <trkpt lat="42.6958740" lon="-0.0333050">
        <ele>2528.8</ele>
        <time>2022-07-23T13:12:53Z</time>
      </trkpt>
      <trkpt lat="42.6958790" lon="-0.0333260">
        <ele>2528.8</ele>
        <time>2022-07-23T13:12:56Z</time>
      </trkpt>
      <trkpt lat="42.6958800" lon="-0.0334040">
        <ele>2528.8</ele>
        <time>2022-07-23T13:13:06Z</time>
      </trkpt>
      <trkpt lat="42.6958790" lon="-0.0334410">
        <ele>2528.6</ele>
        <time>2022-07-23T13:13:10Z</time>
      </trkpt>
      <trkpt lat="42.6958690" lon="-0.0334570">
        <ele>2528.6</ele>
        <time>2022-07-23T13:13:11Z</time>
      </trkpt>
      <trkpt lat="42.6958440" lon="-0.0334670">
        <ele>2528.0</ele>
        <time>2022-07-23T13:13:16Z</time>
      </trkpt>
      <trkpt lat="42.6958410" lon="-0.0334680">
        <ele>2527.8</ele>
        <time>2022-07-23T13:13:17Z</time>
      </trkpt>
      <trkpt lat="42.6958360" lon="-0.0334770">
        <ele>2527.8</ele>
        <time>2022-07-23T13:13:18Z</time>
      </trkpt>
      <trkpt lat="42.6957530" lon="-0.0335610">
        <ele>2528.0</ele>
        <time>2022-07-23T13:13:28Z</time>
      </trkpt>
      <trkpt lat="42.6957360" lon="-0.0335560">
        <ele>2528.4</ele>
        <time>2022-07-23T13:13:31Z</time>
      </trkpt>
      <trkpt lat="42.6956880" lon="-0.0335520">
        <ele>2528.6</ele>
        <time>2022-07-23T13:13:36Z</time>
      </trkpt>
      <trkpt lat="42.6956770" lon="-0.0335470">
        <ele>2528.6</ele>
        <time>2022-07-23T13:13:37Z</time>
      </trkpt>
      <trkpt lat="42.6956630" lon="-0.0335410">
        <ele>2528.6</ele>
        <time>2022-07-23T13:13:38Z</time>
      </trkpt>
      <trkpt lat="42.6956470" lon="-0.0335320">
        <ele>2528.4</ele>
        <time>2022-07-23T13:13:39Z</time>
      </trkpt>
      <trkpt lat="42.6956120" lon="-0.0335080">
        <ele>2528.8</ele>
        <time>2022-07-23T13:13:43Z</time>
      </trkpt>
      <trkpt lat="42.6956060" lon="-0.0335070">
        <ele>2528.8</ele>
        <time>2022-07-23T13:13:45Z</time>
      </trkpt>
      <trkpt lat="42.6955960" lon="-0.0335030">
        <ele>2528.8</ele>
        <time>2022-07-23T13:13:46Z</time>
      </trkpt>
      <trkpt lat="42.6955850" lon="-0.0335040">
        <ele>2528.8</ele>
        <time>2022-07-23T13:13:48Z</time>
      </trkpt>
      <trkpt lat="42.6955830" lon="-0.0335210">
        <ele>2528.8</ele>
        <time>2022-07-23T13:13:49Z</time>
      </trkpt>
      <trkpt lat="42.6955900" lon="-0.0335290">
        <ele>2528.8</ele>
        <time>2022-07-23T13:13:50Z</time>
      </trkpt>
      <trkpt lat="42.6955920" lon="-0.0335360">
        <ele>2528.6</ele>
        <time>2022-07-23T13:13:51Z</time>
      </trkpt>
      <trkpt lat="42.6955800" lon="-0.0335740">
        <ele>2529.2</ele>
        <time>2022-07-23T13:13:57Z</time>
      </trkpt>
      <trkpt lat="42.6955570" lon="-0.0335850">
        <ele>2530.2</ele>
        <time>2022-07-23T13:14:03Z</time>
      </trkpt>
      <trkpt lat="42.6955450" lon="-0.0335750">
        <ele>2530.8</ele>
        <time>2022-07-23T13:14:06Z</time>
      </trkpt>
      <trkpt lat="42.6955290" lon="-0.0335780">
        <ele>2531.4</ele>
        <time>2022-07-23T13:14:09Z</time>
      </trkpt>
      <trkpt lat="42.6955210" lon="-0.0335800">
        <ele>2531.6</ele>
        <time>2022-07-23T13:14:10Z</time>
      </trkpt>
      <trkpt lat="42.6954780" lon="-0.0336110">
        <ele>2532.4</ele>
        <time>2022-07-23T13:14:17Z</time>
      </trkpt>
      <trkpt lat="42.6954720" lon="-0.0336130">
        <ele>2532.8</ele>
        <time>2022-07-23T13:14:18Z</time>
      </trkpt>
      <trkpt lat="42.6954620" lon="-0.0336180">
        <ele>2532.8</ele>
        <time>2022-07-23T13:14:20Z</time>
      </trkpt>
      <trkpt lat="42.6954430" lon="-0.0336210">
        <ele>2533.0</ele>
        <time>2022-07-23T13:14:22Z</time>
      </trkpt>
      <trkpt lat="42.6954370" lon="-0.0336250">
        <ele>2533.2</ele>
        <time>2022-07-23T13:14:23Z</time>
      </trkpt>
      <trkpt lat="42.6953790" lon="-0.0335810">
        <ele>2533.6</ele>
        <time>2022-07-23T13:14:30Z</time>
      </trkpt>
      <trkpt lat="42.6953510" lon="-0.0335460">
        <ele>2534.8</ele>
        <time>2022-07-23T13:14:34Z</time>
      </trkpt>
      <trkpt lat="42.6953400" lon="-0.0335450">
        <ele>2534.8</ele>
        <time>2022-07-23T13:14:35Z</time>
      </trkpt>
      <trkpt lat="42.6953290" lon="-0.0335410">
        <ele>2534.8</ele>
        <time>2022-07-23T13:14:36Z</time>
      </trkpt>
      <trkpt lat="42.6952900" lon="-0.0335250">
        <ele>2535.6</ele>
        <time>2022-07-23T13:14:41Z</time>
      </trkpt>
      <trkpt lat="42.6952710" lon="-0.0335250">
        <ele>2536.0</ele>
        <time>2022-07-23T13:14:43Z</time>
      </trkpt>
      <trkpt lat="42.6952540" lon="-0.0335090">
        <ele>2536.4</ele>
        <time>2022-07-23T13:14:48Z</time>
      </trkpt>
      <trkpt lat="42.6952500" lon="-0.0335030">
        <ele>2536.6</ele>
        <time>2022-07-23T13:14:49Z</time>
      </trkpt>
      <trkpt lat="42.6952130" lon="-0.0334690">
        <ele>2537.2</ele>
        <time>2022-07-23T13:14:56Z</time>
      </trkpt>
      <trkpt lat="42.6951710" lon="-0.0334590">
        <ele>2538.2</ele>
        <time>2022-07-23T13:15:03Z</time>
      </trkpt>
      <trkpt lat="42.6951570" lon="-0.0334570">
        <ele>2538.8</ele>
        <time>2022-07-23T13:15:06Z</time>
      </trkpt>
      <trkpt lat="42.6951510" lon="-0.0334600">
        <ele>2539.0</ele>
        <time>2022-07-23T13:15:07Z</time>
      </trkpt>
      <trkpt lat="42.6951570" lon="-0.0334660">
        <ele>2539.0</ele>
        <time>2022-07-23T13:15:10Z</time>
      </trkpt>
      <trkpt lat="42.6951560" lon="-0.0334700">
        <ele>2539.2</ele>
        <time>2022-07-23T13:15:11Z</time>
      </trkpt>
      <trkpt lat="42.6951570" lon="-0.0334730">
        <ele>2539.0</ele>
        <time>2022-07-23T13:15:12Z</time>
      </trkpt>
      <trkpt lat="42.6951570" lon="-0.0334770">
        <ele>2539.2</ele>
        <time>2022-07-23T13:15:13Z</time>
      </trkpt>
      <trkpt lat="42.6951660" lon="-0.0334780">
        <ele>2539.6</ele>
        <time>2022-07-23T13:15:15Z</time>
      </trkpt>
      <trkpt lat="42.6951620" lon="-0.0334760">
        <ele>2539.6</ele>
        <time>2022-07-23T13:15:17Z</time>
      </trkpt>
      <trkpt lat="42.6951590" lon="-0.0334740">
        <ele>2540.0</ele>
        <time>2022-07-23T13:15:19Z</time>
      </trkpt>
      <trkpt lat="42.6951450" lon="-0.0334760">
        <ele>2540.2</ele>
        <time>2022-07-23T13:15:21Z</time>
      </trkpt>
      <trkpt lat="42.6950510" lon="-0.0335040">
        <ele>2542.0</ele>
        <time>2022-07-23T13:15:30Z</time>
      </trkpt>
      <trkpt lat="42.6949890" lon="-0.0335180">
        <ele>2542.8</ele>
        <time>2022-07-23T13:15:37Z</time>
      </trkpt>
      <trkpt lat="42.6949910" lon="-0.0335170">
        <ele>2543.4</ele>
        <time>2022-07-23T13:15:39Z</time>
      </trkpt>
      <trkpt lat="42.6949920" lon="-0.0335190">
        <ele>2544.0</ele>
        <time>2022-07-23T13:15:42Z</time>
      </trkpt>
      <trkpt lat="42.6949870" lon="-0.0335220">
        <ele>2544.0</ele>
        <time>2022-07-23T13:15:43Z</time>
      </trkpt>
      <trkpt lat="42.6949800" lon="-0.0335220">
        <ele>2544.2</ele>
        <time>2022-07-23T13:15:45Z</time>
      </trkpt>
      <trkpt lat="42.6949720" lon="-0.0335230">
        <ele>2544.4</ele>
        <time>2022-07-23T13:15:46Z</time>
      </trkpt>
      <trkpt lat="42.6949600" lon="-0.0335240">
        <ele>2544.6</ele>
        <time>2022-07-23T13:15:49Z</time>
      </trkpt>
      <trkpt lat="42.6949630" lon="-0.0335260">
        <ele>2544.6</ele>
        <time>2022-07-23T13:15:50Z</time>
      </trkpt>
      <trkpt lat="42.6949620" lon="-0.0335280">
        <ele>2544.6</ele>
        <time>2022-07-23T13:15:51Z</time>
      </trkpt>
      <trkpt lat="42.6949630" lon="-0.0335430">
        <ele>2546.8</ele>
        <time>2022-07-23T13:16:00Z</time>
      </trkpt>
      <trkpt lat="42.6949110" lon="-0.0335490">
        <ele>2547.6</ele>
        <time>2022-07-23T13:16:08Z</time>
      </trkpt>
      <trkpt lat="42.6948610" lon="-0.0335690">
        <ele>2550.0</ele>
        <time>2022-07-23T13:16:25Z</time>
      </trkpt>
      <trkpt lat="42.6948690" lon="-0.0335880">
        <ele>2550.0</ele>
        <time>2022-07-23T13:16:29Z</time>
      </trkpt>
      <trkpt lat="42.6949270" lon="-0.0336150">
        <ele>2550.2</ele>
        <time>2022-07-23T13:16:38Z</time>
      </trkpt>
      <trkpt lat="42.6948610" lon="-0.0336150">
        <ele>2550.6</ele>
        <time>2022-07-23T13:16:48Z</time>
      </trkpt>
      <trkpt lat="42.6948550" lon="-0.0336150">
        <ele>2550.6</ele>
        <time>2022-07-23T13:16:49Z</time>
      </trkpt>
      <trkpt lat="42.6948430" lon="-0.0336160">
        <ele>2550.6</ele>
        <time>2022-07-23T13:16:50Z</time>
      </trkpt>
      <trkpt lat="42.6947920" lon="-0.0336230">
        <ele>2550.6</ele>
        <time>2022-07-23T13:16:54Z</time>
      </trkpt>
      <trkpt lat="42.6947860" lon="-0.0336220">
        <ele>2550.6</ele>
        <time>2022-07-23T13:16:55Z</time>
      </trkpt>
      <trkpt lat="42.6947860" lon="-0.0336330">
        <ele>2551.2</ele>
        <time>2022-07-23T13:17:02Z</time>
      </trkpt>
      <trkpt lat="42.6947910" lon="-0.0336400">
        <ele>2551.2</ele>
        <time>2022-07-23T13:17:04Z</time>
      </trkpt>
      <trkpt lat="42.6947910" lon="-0.0336480">
        <ele>2551.4</ele>
        <time>2022-07-23T13:17:05Z</time>
      </trkpt>
      <trkpt lat="42.6948020" lon="-0.0336550">
        <ele>2552.4</ele>
        <time>2022-07-23T13:17:13Z</time>
      </trkpt>
      <trkpt lat="42.6947960" lon="-0.0336540">
        <ele>2552.4</ele>
        <time>2022-07-23T13:17:14Z</time>
      </trkpt>
      <trkpt lat="42.6947760" lon="-0.0336480">
        <ele>2553.6</ele>
        <time>2022-07-23T13:17:21Z</time>
      </trkpt>
      <trkpt lat="42.6947740" lon="-0.0336570">
        <ele>2554.2</ele>
        <time>2022-07-23T13:17:25Z</time>
      </trkpt>
      <trkpt lat="42.6947540" lon="-0.0336860">
        <ele>2554.8</ele>
        <time>2022-07-23T13:17:30Z</time>
      </trkpt>
      <trkpt lat="42.6947500" lon="-0.0336910">
        <ele>2555.4</ele>
        <time>2022-07-23T13:17:33Z</time>
      </trkpt>
      <trkpt lat="42.6947340" lon="-0.0336920">
        <ele>2556.2</ele>
        <time>2022-07-23T13:17:38Z</time>
      </trkpt>
      <trkpt lat="42.6947160" lon="-0.0337060">
        <ele>2557.6</ele>
        <time>2022-07-23T13:17:42Z</time>
      </trkpt>
      <trkpt lat="42.6947070" lon="-0.0336990">
        <ele>2559.0</ele>
        <time>2022-07-23T13:17:51Z</time>
      </trkpt>
      <trkpt lat="42.6947130" lon="-0.0336970">
        <ele>2559.2</ele>
        <time>2022-07-23T13:17:52Z</time>
      </trkpt>
      <trkpt lat="42.6947220" lon="-0.0336950">
        <ele>2559.6</ele>
        <time>2022-07-23T13:17:53Z</time>
      </trkpt>
      <trkpt lat="42.6947490" lon="-0.0337260">
        <ele>2560.6</ele>
        <time>2022-07-23T13:18:01Z</time>
      </trkpt>
      <trkpt lat="42.6947500" lon="-0.0337380">
        <ele>2561.2</ele>
        <time>2022-07-23T13:18:05Z</time>
      </trkpt>
      <trkpt lat="42.6947340" lon="-0.0337260">
        <ele>2561.8</ele>
        <time>2022-07-23T13:18:08Z</time>
      </trkpt>
      <trkpt lat="42.6946870" lon="-0.0337290">
        <ele>2562.6</ele>
        <time>2022-07-23T13:18:14Z</time>
      </trkpt>
      <trkpt lat="42.6946730" lon="-0.0337430">
        <ele>2562.8</ele>
        <time>2022-07-23T13:18:16Z</time>
      </trkpt>
      <trkpt lat="42.6946650" lon="-0.0337500">
        <ele>2562.8</ele>
        <time>2022-07-23T13:18:17Z</time>
      </trkpt>
      <trkpt lat="42.6946420" lon="-0.0337700">
        <ele>2564.0</ele>
        <time>2022-07-23T13:18:21Z</time>
      </trkpt>
      <trkpt lat="42.6945990" lon="-0.0337600">
        <ele>2565.8</ele>
        <time>2022-07-23T13:18:32Z</time>
      </trkpt>
      <trkpt lat="42.6945940" lon="-0.0337920">
        <ele>2566.8</ele>
        <time>2022-07-23T13:18:39Z</time>
      </trkpt>
      <trkpt lat="42.6945870" lon="-0.0338130">
        <ele>2567.4</ele>
        <time>2022-07-23T13:18:43Z</time>
      </trkpt>
      <trkpt lat="42.6945690" lon="-0.0338270">
        <ele>2567.8</ele>
        <time>2022-07-23T13:18:46Z</time>
      </trkpt>
      <trkpt lat="42.6945360" lon="-0.0338450">
        <ele>2569.4</ele>
        <time>2022-07-23T13:18:55Z</time>
      </trkpt>
      <trkpt lat="42.6945260" lon="-0.0338560">
        <ele>2569.8</ele>
        <time>2022-07-23T13:18:57Z</time>
      </trkpt>
      <trkpt lat="42.6944910" lon="-0.0338760">
        <ele>2571.2</ele>
        <time>2022-07-23T13:19:06Z</time>
      </trkpt>
      <trkpt lat="42.6944750" lon="-0.0338820">
        <ele>2572.0</ele>
        <time>2022-07-23T13:19:11Z</time>
      </trkpt>
      <trkpt lat="42.6944550" lon="-0.0338790">
        <ele>2572.4</ele>
        <time>2022-07-23T13:19:15Z</time>
      </trkpt>
      <trkpt lat="42.6944180" lon="-0.0338900">
        <ele>2573.4</ele>
        <time>2022-07-23T13:19:21Z</time>
      </trkpt>
      <trkpt lat="42.6944100" lon="-0.0338920">
        <ele>2573.4</ele>
        <time>2022-07-23T13:19:22Z</time>
      </trkpt>
      <trkpt lat="42.6943610" lon="-0.0339150">
        <ele>2574.8</ele>
        <time>2022-07-23T13:19:30Z</time>
      </trkpt>
      <trkpt lat="42.6943500" lon="-0.0339170">
        <ele>2575.0</ele>
        <time>2022-07-23T13:19:33Z</time>
      </trkpt>
      <trkpt lat="42.6943370" lon="-0.0339240">
        <ele>2576.2</ele>
        <time>2022-07-23T13:19:41Z</time>
      </trkpt>
      <trkpt lat="42.6943080" lon="-0.0339330">
        <ele>2576.6</ele>
        <time>2022-07-23T13:19:46Z</time>
      </trkpt>
      <trkpt lat="42.6942990" lon="-0.0339390">
        <ele>2577.2</ele>
        <time>2022-07-23T13:19:50Z</time>
      </trkpt>
      <trkpt lat="42.6942970" lon="-0.0339420">
        <ele>2577.8</ele>
        <time>2022-07-23T13:19:53Z</time>
      </trkpt>
      <trkpt lat="42.6942990" lon="-0.0339310">
        <ele>2578.6</ele>
        <time>2022-07-23T13:19:56Z</time>
      </trkpt>
      <trkpt lat="42.6942930" lon="-0.0339350">
        <ele>2578.8</ele>
        <time>2022-07-23T13:19:57Z</time>
      </trkpt>
      <trkpt lat="42.6942990" lon="-0.0339430">
        <ele>2578.8</ele>
        <time>2022-07-23T13:19:58Z</time>
      </trkpt>
      <trkpt lat="42.6942670" lon="-0.0339970">
        <ele>2579.4</ele>
        <time>2022-07-23T13:20:04Z</time>
      </trkpt>
      <trkpt lat="42.6942670" lon="-0.0340070">
        <ele>2579.6</ele>
        <time>2022-07-23T13:20:05Z</time>
      </trkpt>
      <trkpt lat="42.6942770" lon="-0.0340490">
        <ele>2581.0</ele>
        <time>2022-07-23T13:20:11Z</time>
      </trkpt>
      <trkpt lat="42.6942610" lon="-0.0340350">
        <ele>2582.8</ele>
        <time>2022-07-23T13:20:20Z</time>
      </trkpt>
      <trkpt lat="42.6942650" lon="-0.0340280">
        <ele>2582.8</ele>
        <time>2022-07-23T13:20:21Z</time>
      </trkpt>
      <trkpt lat="42.6942600" lon="-0.0340220">
        <ele>2583.2</ele>
        <time>2022-07-23T13:20:23Z</time>
      </trkpt>
      <trkpt lat="42.6942590" lon="-0.0340160">
        <ele>2583.2</ele>
        <time>2022-07-23T13:20:24Z</time>
      </trkpt>
      <trkpt lat="42.6942550" lon="-0.0340120">
        <ele>2583.4</ele>
        <time>2022-07-23T13:20:25Z</time>
      </trkpt>
      <trkpt lat="42.6942520" lon="-0.0340100">
        <ele>2583.6</ele>
        <time>2022-07-23T13:20:26Z</time>
      </trkpt>
      <trkpt lat="42.6942490" lon="-0.0340100">
        <ele>2584.0</ele>
        <time>2022-07-23T13:20:27Z</time>
      </trkpt>
      <trkpt lat="42.6942270" lon="-0.0340390">
        <ele>2585.2</ele>
        <time>2022-07-23T13:20:35Z</time>
      </trkpt>
      <trkpt lat="42.6942210" lon="-0.0340440">
        <ele>2585.6</ele>
        <time>2022-07-23T13:20:38Z</time>
      </trkpt>
      <trkpt lat="42.6942180" lon="-0.0340420">
        <ele>2585.8</ele>
        <time>2022-07-23T13:20:41Z</time>
      </trkpt>
      <trkpt lat="42.6942110" lon="-0.0340450">
        <ele>2586.0</ele>
        <time>2022-07-23T13:20:43Z</time>
      </trkpt>
      <trkpt lat="42.6941500" lon="-0.0340880">
        <ele>2587.8</ele>
        <time>2022-07-23T13:20:54Z</time>
      </trkpt>
      <trkpt lat="42.6941420" lon="-0.0341040">
        <ele>2588.0</ele>
        <time>2022-07-23T13:20:56Z</time>
      </trkpt>
      <trkpt lat="42.6941270" lon="-0.0341390">
        <ele>2588.6</ele>
        <time>2022-07-23T13:21:01Z</time>
      </trkpt>
      <trkpt lat="42.6941270" lon="-0.0341430">
        <ele>2588.6</ele>
        <time>2022-07-23T13:21:02Z</time>
      </trkpt>
      <trkpt lat="42.6941170" lon="-0.0341530">
        <ele>2588.8</ele>
        <time>2022-07-23T13:21:04Z</time>
      </trkpt>
      <trkpt lat="42.6941100" lon="-0.0341660">
        <ele>2589.2</ele>
        <time>2022-07-23T13:21:07Z</time>
      </trkpt>
      <trkpt lat="42.6940950" lon="-0.0341830">
        <ele>2590.6</ele>
        <time>2022-07-23T13:21:13Z</time>
      </trkpt>
      <trkpt lat="42.6940800" lon="-0.0342080">
        <ele>2591.6</ele>
        <time>2022-07-23T13:21:17Z</time>
      </trkpt>
      <trkpt lat="42.6940810" lon="-0.0342350">
        <ele>2592.4</ele>
        <time>2022-07-23T13:21:22Z</time>
      </trkpt>
      <trkpt lat="42.6940820" lon="-0.0342380">
        <ele>2592.4</ele>
        <time>2022-07-23T13:21:23Z</time>
      </trkpt>
      <trkpt lat="42.6940850" lon="-0.0342390">
        <ele>2592.8</ele>
        <time>2022-07-23T13:21:24Z</time>
      </trkpt>
      <trkpt lat="42.6940720" lon="-0.0342550">
        <ele>2594.4</ele>
        <time>2022-07-23T13:21:32Z</time>
      </trkpt>
      <trkpt lat="42.6940730" lon="-0.0342570">
        <ele>2594.6</ele>
        <time>2022-07-23T13:21:33Z</time>
      </trkpt>
      <trkpt lat="42.6940460" lon="-0.0342840">
        <ele>2595.8</ele>
        <time>2022-07-23T13:21:42Z</time>
      </trkpt>
      <trkpt lat="42.6940460" lon="-0.0342870">
        <ele>2595.8</ele>
        <time>2022-07-23T13:21:43Z</time>
      </trkpt>
      <trkpt lat="42.6940450" lon="-0.0342880">
        <ele>2596.0</ele>
        <time>2022-07-23T13:21:44Z</time>
      </trkpt>
      <trkpt lat="42.6940460" lon="-0.0342920">
        <ele>2596.2</ele>
        <time>2022-07-23T13:21:46Z</time>
      </trkpt>
      <trkpt lat="42.6940430" lon="-0.0342910">
        <ele>2596.4</ele>
        <time>2022-07-23T13:21:47Z</time>
      </trkpt>
      <trkpt lat="42.6940440" lon="-0.0342950">
        <ele>2596.8</ele>
        <time>2022-07-23T13:21:49Z</time>
      </trkpt>
      <trkpt lat="42.6940420" lon="-0.0342990">
        <ele>2596.8</ele>
        <time>2022-07-23T13:21:50Z</time>
      </trkpt>
      <trkpt lat="42.6940560" lon="-0.0343080">
        <ele>2597.6</ele>
        <time>2022-07-23T13:21:54Z</time>
      </trkpt>
      <trkpt lat="42.6940540" lon="-0.0343360">
        <ele>2598.6</ele>
        <time>2022-07-23T13:22:01Z</time>
      </trkpt>
      <trkpt lat="42.6940230" lon="-0.0343740">
        <ele>2599.4</ele>
        <time>2022-07-23T13:22:09Z</time>
      </trkpt>
      <trkpt lat="42.6940160" lon="-0.0343870">
        <ele>2600.0</ele>
        <time>2022-07-23T13:22:11Z</time>
      </trkpt>
      <trkpt lat="42.6939920" lon="-0.0344310">
        <ele>2600.6</ele>
        <time>2022-07-23T13:22:18Z</time>
      </trkpt>
      <trkpt lat="42.6939820" lon="-0.0344690">
        <ele>2602.2</ele>
        <time>2022-07-23T13:22:26Z</time>
      </trkpt>
      <trkpt lat="42.6939810" lon="-0.0344750">
        <ele>2602.4</ele>
        <time>2022-07-23T13:22:27Z</time>
      </trkpt>
      <trkpt lat="42.6939690" lon="-0.0345040">
        <ele>2603.6</ele>
        <time>2022-07-23T13:22:33Z</time>
      </trkpt>
      <trkpt lat="42.6939490" lon="-0.0345450">
        <ele>2604.8</ele>
        <time>2022-07-23T13:22:40Z</time>
      </trkpt>
      <trkpt lat="42.6939060" lon="-0.0345890">
        <ele>2606.2</ele>
        <time>2022-07-23T13:22:48Z</time>
      </trkpt>
      <trkpt lat="42.6938950" lon="-0.0346050">
        <ele>2606.4</ele>
        <time>2022-07-23T13:22:50Z</time>
      </trkpt>
      <trkpt lat="42.6938700" lon="-0.0346330">
        <ele>2607.4</ele>
        <time>2022-07-23T13:22:56Z</time>
      </trkpt>
      <trkpt lat="42.6938670" lon="-0.0346380">
        <ele>2607.4</ele>
        <time>2022-07-23T13:22:57Z</time>
      </trkpt>
      <trkpt lat="42.6938650" lon="-0.0346390">
        <ele>2607.6</ele>
        <time>2022-07-23T13:22:58Z</time>
      </trkpt>
      <trkpt lat="42.6938520" lon="-0.0346610">
        <ele>2608.4</ele>
        <time>2022-07-23T13:23:03Z</time>
      </trkpt>
      <trkpt lat="42.6938150" lon="-0.0346990">
        <ele>2609.4</ele>
        <time>2022-07-23T13:23:10Z</time>
      </trkpt>
      <trkpt lat="42.6938140" lon="-0.0347040">
        <ele>2609.6</ele>
        <time>2022-07-23T13:23:11Z</time>
      </trkpt>
      <trkpt lat="42.6938030" lon="-0.0347320">
        <ele>2611.0</ele>
        <time>2022-07-23T13:23:18Z</time>
      </trkpt>
      <trkpt lat="42.6938160" lon="-0.0347680">
        <ele>2612.2</ele>
        <time>2022-07-23T13:23:26Z</time>
      </trkpt>
      <trkpt lat="42.6938160" lon="-0.0347730">
        <ele>2612.2</ele>
        <time>2022-07-23T13:23:27Z</time>
      </trkpt>
      <trkpt lat="42.6938120" lon="-0.0348170">
        <ele>2613.6</ele>
        <time>2022-07-23T13:23:35Z</time>
      </trkpt>
      <trkpt lat="42.6938090" lon="-0.0348240">
        <ele>2613.6</ele>
        <time>2022-07-23T13:23:37Z</time>
      </trkpt>
      <trkpt lat="42.6938060" lon="-0.0348270">
        <ele>2613.8</ele>
        <time>2022-07-23T13:23:38Z</time>
      </trkpt>
      <trkpt lat="42.6938000" lon="-0.0348410">
        <ele>2614.0</ele>
        <time>2022-07-23T13:23:41Z</time>
      </trkpt>
      <trkpt lat="42.6937980" lon="-0.0348400">
        <ele>2614.2</ele>
        <time>2022-07-23T13:23:42Z</time>
      </trkpt>
      <trkpt lat="42.6937810" lon="-0.0348490">
        <ele>2615.4</ele>
        <time>2022-07-23T13:23:47Z</time>
      </trkpt>
      <trkpt lat="42.6937800" lon="-0.0348560">
        <ele>2615.8</ele>
        <time>2022-07-23T13:23:49Z</time>
      </trkpt>
      <trkpt lat="42.6937650" lon="-0.0348820">
        <ele>2616.8</ele>
        <time>2022-07-23T13:23:54Z</time>
      </trkpt>
      <trkpt lat="42.6937590" lon="-0.0349310">
        <ele>2617.8</ele>
        <time>2022-07-23T13:24:03Z</time>
      </trkpt>
      <trkpt lat="42.6937560" lon="-0.0349310">
        <ele>2618.4</ele>
        <time>2022-07-23T13:24:05Z</time>
      </trkpt>
      <trkpt lat="42.6937360" lon="-0.0349200">
        <ele>2619.2</ele>
        <time>2022-07-23T13:24:09Z</time>
      </trkpt>
      <trkpt lat="42.6937220" lon="-0.0348880">
        <ele>2620.4</ele>
        <time>2022-07-23T13:24:16Z</time>
      </trkpt>
      <trkpt lat="42.6937080" lon="-0.0348780">
        <ele>2620.8</ele>
        <time>2022-07-23T13:24:18Z</time>
      </trkpt>
      <trkpt lat="42.6937050" lon="-0.0348590">
        <ele>2621.4</ele>
        <time>2022-07-23T13:24:21Z</time>
      </trkpt>
      <trkpt lat="42.6937030" lon="-0.0348510">
        <ele>2621.8</ele>
        <time>2022-07-23T13:24:23Z</time>
      </trkpt>
      <trkpt lat="42.6937010" lon="-0.0348480">
        <ele>2621.8</ele>
        <time>2022-07-23T13:24:24Z</time>
      </trkpt>
      <trkpt lat="42.6936960" lon="-0.0348370">
        <ele>2622.0</ele>
        <time>2022-07-23T13:24:27Z</time>
      </trkpt>
      <trkpt lat="42.6936840" lon="-0.0348130">
        <ele>2623.0</ele>
        <time>2022-07-23T13:24:31Z</time>
      </trkpt>
      <trkpt lat="42.6936530" lon="-0.0347940">
        <ele>2624.0</ele>
        <time>2022-07-23T13:24:36Z</time>
      </trkpt>
      <trkpt lat="42.6936420" lon="-0.0347950">
        <ele>2624.0</ele>
        <time>2022-07-23T13:24:37Z</time>
      </trkpt>
      <trkpt lat="42.6936360" lon="-0.0347930">
        <ele>2624.4</ele>
        <time>2022-07-23T13:24:38Z</time>
      </trkpt>
      <trkpt lat="42.6936300" lon="-0.0347900">
        <ele>2624.4</ele>
        <time>2022-07-23T13:24:39Z</time>
      </trkpt>
      <trkpt lat="42.6936210" lon="-0.0347920">
        <ele>2624.8</ele>
        <time>2022-07-23T13:24:41Z</time>
      </trkpt>
      <trkpt lat="42.6936170" lon="-0.0347910">
        <ele>2624.8</ele>
        <time>2022-07-23T13:24:42Z</time>
      </trkpt>
      <trkpt lat="42.6935930" lon="-0.0347510">
        <ele>2627.0</ele>
        <time>2022-07-23T13:24:52Z</time>
      </trkpt>
      <trkpt lat="42.6935900" lon="-0.0347360">
        <ele>2627.4</ele>
        <time>2022-07-23T13:24:55Z</time>
      </trkpt>
      <trkpt lat="42.6935990" lon="-0.0347050">
        <ele>2627.8</ele>
        <time>2022-07-23T13:25:00Z</time>
      </trkpt>
      <trkpt lat="42.6936040" lon="-0.0346940">
        <ele>2628.0</ele>
        <time>2022-07-23T13:25:02Z</time>
      </trkpt>
      <trkpt lat="42.6936010" lon="-0.0346860">
        <ele>2628.6</ele>
        <time>2022-07-23T13:25:04Z</time>
      </trkpt>
      <trkpt lat="42.6935870" lon="-0.0346630">
        <ele>2629.6</ele>
        <time>2022-07-23T13:25:10Z</time>
      </trkpt>
      <trkpt lat="42.6935810" lon="-0.0346260">
        <ele>2630.6</ele>
        <time>2022-07-23T13:25:15Z</time>
      </trkpt>
      <trkpt lat="42.6935800" lon="-0.0346230">
        <ele>2630.8</ele>
        <time>2022-07-23T13:25:16Z</time>
      </trkpt>
      <trkpt lat="42.6935610" lon="-0.0346090">
        <ele>2631.4</ele>
        <time>2022-07-23T13:25:20Z</time>
      </trkpt>
      <trkpt lat="42.6935570" lon="-0.0346060">
        <ele>2632.0</ele>
        <time>2022-07-23T13:25:21Z</time>
      </trkpt>
      <trkpt lat="42.6935500" lon="-0.0346010">
        <ele>2632.0</ele>
        <time>2022-07-23T13:25:22Z</time>
      </trkpt>
      <trkpt lat="42.6935310" lon="-0.0345900">
        <ele>2632.4</ele>
        <time>2022-07-23T13:25:24Z</time>
      </trkpt>
      <trkpt lat="42.6934950" lon="-0.0345770">
        <ele>2634.4</ele>
        <time>2022-07-23T13:25:31Z</time>
      </trkpt>
      <trkpt lat="42.6934890" lon="-0.0345750">
        <ele>2634.6</ele>
        <time>2022-07-23T13:25:32Z</time>
      </trkpt>
      <trkpt lat="42.6934780" lon="-0.0345690">
        <ele>2635.0</ele>
        <time>2022-07-23T13:25:34Z</time>
      </trkpt>
      <trkpt lat="42.6934350" lon="-0.0345410">
        <ele>2635.8</ele>
        <time>2022-07-23T13:25:39Z</time>
      </trkpt>
      <trkpt lat="42.6933890" lon="-0.0345310">
        <ele>2637.2</ele>
        <time>2022-07-23T13:25:45Z</time>
      </trkpt>
      <trkpt lat="42.6933570" lon="-0.0345170">
        <ele>2637.8</ele>
        <time>2022-07-23T13:25:50Z</time>
      </trkpt>
      <trkpt lat="42.6933410" lon="-0.0345180">
        <ele>2638.6</ele>
        <time>2022-07-23T13:25:55Z</time>
      </trkpt>
      <trkpt lat="42.6933390" lon="-0.0345160">
        <ele>2639.0</ele>
        <time>2022-07-23T13:25:57Z</time>
      </trkpt>
      <trkpt lat="42.6933000" lon="-0.0344910">
        <ele>2640.0</ele>
        <time>2022-07-23T13:26:03Z</time>
      </trkpt>
      <trkpt lat="42.6932830" lon="-0.0344710">
        <ele>2640.8</ele>
        <time>2022-07-23T13:26:07Z</time>
      </trkpt>
      <trkpt lat="42.6932840" lon="-0.0344630">
        <ele>2641.0</ele>
        <time>2022-07-23T13:26:08Z</time>
      </trkpt>
      <trkpt lat="42.6932750" lon="-0.0344290">
        <ele>2642.6</ele>
        <time>2022-07-23T13:26:16Z</time>
      </trkpt>
      <trkpt lat="42.6932700" lon="-0.0344180">
        <ele>2642.8</ele>
        <time>2022-07-23T13:26:18Z</time>
      </trkpt>
      <trkpt lat="42.6932520" lon="-0.0343740">
        <ele>2644.2</ele>
        <time>2022-07-23T13:26:26Z</time>
      </trkpt>
      <trkpt lat="42.6932440" lon="-0.0343680">
        <ele>2644.4</ele>
        <time>2022-07-23T13:26:28Z</time>
      </trkpt>
      <trkpt lat="42.6932340" lon="-0.0343560">
        <ele>2644.8</ele>
        <time>2022-07-23T13:26:31Z</time>
      </trkpt>
      <trkpt lat="42.6931980" lon="-0.0343150">
        <ele>2646.0</ele>
        <time>2022-07-23T13:26:39Z</time>
      </trkpt>
      <trkpt lat="42.6931890" lon="-0.0343080">
        <ele>2646.6</ele>
        <time>2022-07-23T13:26:41Z</time>
      </trkpt>
      <trkpt lat="42.6932010" lon="-0.0342770">
        <ele>2647.6</ele>
        <time>2022-07-23T13:26:47Z</time>
      </trkpt>
      <trkpt lat="42.6932020" lon="-0.0342360">
        <ele>2648.4</ele>
        <time>2022-07-23T13:26:53Z</time>
      </trkpt>
      <trkpt lat="42.6932050" lon="-0.0342300">
        <ele>2649.0</ele>
        <time>2022-07-23T13:26:54Z</time>
      </trkpt>
      <trkpt lat="42.6931410" lon="-0.0342090">
        <ele>2650.0</ele>
        <time>2022-07-23T13:27:00Z</time>
      </trkpt>
      <trkpt lat="42.6931120" lon="-0.0342070">
        <ele>2650.6</ele>
        <time>2022-07-23T13:27:03Z</time>
      </trkpt>
      <trkpt lat="42.6931020" lon="-0.0341920">
        <ele>2651.2</ele>
        <time>2022-07-23T13:27:06Z</time>
      </trkpt>
      <trkpt lat="42.6930820" lon="-0.0341660">
        <ele>2652.2</ele>
        <time>2022-07-23T13:27:13Z</time>
      </trkpt>
      <trkpt lat="42.6930760" lon="-0.0341640">
        <ele>2652.8</ele>
        <time>2022-07-23T13:27:17Z</time>
      </trkpt>
      <trkpt lat="42.6930690" lon="-0.0341710">
        <ele>2653.0</ele>
        <time>2022-07-23T13:27:18Z</time>
      </trkpt>
      <trkpt lat="42.6930670" lon="-0.0341720">
        <ele>2653.0</ele>
        <time>2022-07-23T13:27:19Z</time>
      </trkpt>
      <trkpt lat="42.6930540" lon="-0.0341860">
        <ele>2654.0</ele>
        <time>2022-07-23T13:27:24Z</time>
      </trkpt>
      <trkpt lat="42.6930570" lon="-0.0341870">
        <ele>2654.2</ele>
        <time>2022-07-23T13:27:25Z</time>
      </trkpt>
      <trkpt lat="42.6930480" lon="-0.0342080">
        <ele>2655.2</ele>
        <time>2022-07-23T13:27:31Z</time>
      </trkpt>
      <trkpt lat="42.6930470" lon="-0.0342150">
        <ele>2655.6</ele>
        <time>2022-07-23T13:27:32Z</time>
      </trkpt>
      <trkpt lat="42.6930510" lon="-0.0342220">
        <ele>2655.8</ele>
        <time>2022-07-23T13:27:33Z</time>
      </trkpt>
      <trkpt lat="42.6930510" lon="-0.0342530">
        <ele>2656.2</ele>
        <time>2022-07-23T13:27:38Z</time>
      </trkpt>
      <trkpt lat="42.6930470" lon="-0.0342620">
        <ele>2656.6</ele>
        <time>2022-07-23T13:27:40Z</time>
      </trkpt>
      <trkpt lat="42.6930390" lon="-0.0342610">
        <ele>2657.0</ele>
        <time>2022-07-23T13:27:43Z</time>
      </trkpt>
      <trkpt lat="42.6930370" lon="-0.0342550">
        <ele>2657.2</ele>
        <time>2022-07-23T13:27:44Z</time>
      </trkpt>
      <trkpt lat="42.6930320" lon="-0.0342510">
        <ele>2657.4</ele>
        <time>2022-07-23T13:27:45Z</time>
      </trkpt>
      <trkpt lat="42.6930180" lon="-0.0342440">
        <ele>2657.8</ele>
        <time>2022-07-23T13:27:47Z</time>
      </trkpt>
      <trkpt lat="42.6930090" lon="-0.0342460">
        <ele>2658.0</ele>
        <time>2022-07-23T13:27:48Z</time>
      </trkpt>
      <trkpt lat="42.6930040" lon="-0.0342470">
        <ele>2658.2</ele>
        <time>2022-07-23T13:27:49Z</time>
      </trkpt>
      <trkpt lat="42.6930020" lon="-0.0342450">
        <ele>2658.4</ele>
        <time>2022-07-23T13:27:50Z</time>
      </trkpt>
      <trkpt lat="42.6929360" lon="-0.0342640">
        <ele>2661.0</ele>
        <time>2022-07-23T13:28:02Z</time>
      </trkpt>
      <trkpt lat="42.6929210" lon="-0.0342830">
        <ele>2661.0</ele>
        <time>2022-07-23T13:28:21Z</time>
      </trkpt>
      <trkpt lat="42.6929210" lon="-0.0342820">
        <ele>2661.2</ele>
        <time>2022-07-23T13:28:24Z</time>
      </trkpt>
      <trkpt lat="42.6929200" lon="-0.0342810">
        <ele>2661.2</ele>
        <time>2022-07-23T13:28:29Z</time>
      </trkpt>
      <trkpt lat="42.6929190" lon="-0.0342830">
        <ele>2661.2</ele>
        <time>2022-07-23T13:28:32Z</time>
      </trkpt>
      <trkpt lat="42.6929200" lon="-0.0342860">
        <ele>2661.2</ele>
        <time>2022-07-23T13:28:33Z</time>
      </trkpt>
      <trkpt lat="42.6929320" lon="-0.0343110">
        <ele>2661.2</ele>
        <time>2022-07-23T13:28:39Z</time>
      </trkpt>
      <trkpt lat="42.6929450" lon="-0.0343160">
        <ele>2661.4</ele>
        <time>2022-07-23T13:28:48Z</time>
      </trkpt>
      <trkpt lat="42.6929490" lon="-0.0343060">
        <ele>2661.4</ele>
        <time>2022-07-23T13:28:50Z</time>
      </trkpt>
      <trkpt lat="42.6929500" lon="-0.0343050">
        <ele>2661.6</ele>
        <time>2022-07-23T13:28:51Z</time>
      </trkpt>
      <trkpt lat="42.6929530" lon="-0.0343030">
        <ele>2661.6</ele>
        <time>2022-07-23T13:28:53Z</time>
      </trkpt>
      <trkpt lat="42.6929530" lon="-0.0343000">
        <ele>2661.6</ele>
        <time>2022-07-23T13:28:56Z</time>
      </trkpt>
      <trkpt lat="42.6929610" lon="-0.0343110">
        <ele>2662.2</ele>
        <time>2022-07-23T13:29:09Z</time>
      </trkpt>
      <trkpt lat="42.6929790" lon="-0.0343130">
        <ele>2662.0</ele>
        <time>2022-07-23T13:29:25Z</time>
      </trkpt>
      <trkpt lat="42.6929830" lon="-0.0343320">
        <ele>2662.0</ele>
        <time>2022-07-23T13:29:41Z</time>
      </trkpt>
      <trkpt lat="42.6929910" lon="-0.0343640">
        <ele>2661.6</ele>
        <time>2022-07-23T13:30:00Z</time>
      </trkpt>
      <trkpt lat="42.6929940" lon="-0.0343640">
        <ele>2661.6</ele>
        <time>2022-07-23T13:30:17Z</time>
      </trkpt>
      <trkpt lat="42.6929930" lon="-0.0343640">
        <ele>2661.6</ele>
        <time>2022-07-23T13:30:28Z</time>
      </trkpt>
      <trkpt lat="42.6930000" lon="-0.0343600">
        <ele>2661.8</ele>
        <time>2022-07-23T13:30:57Z</time>
      </trkpt>
      <trkpt lat="42.6930000" lon="-0.0343590">
        <ele>2661.8</ele>
        <time>2022-07-23T13:31:05Z</time>
      </trkpt>
      <trkpt lat="42.6929940" lon="-0.0343560">
        <ele>2662.2</ele>
        <time>2022-07-23T13:31:32Z</time>
      </trkpt>
      <trkpt lat="42.6930000" lon="-0.0343460">
        <ele>2661.8</ele>
        <time>2022-07-23T13:31:59Z</time>
      </trkpt>
      <trkpt lat="42.6930000" lon="-0.0343480">
        <ele>2661.6</ele>
        <time>2022-07-23T13:32:17Z</time>
      </trkpt>
      <trkpt lat="42.6930000" lon="-0.0343480">
        <ele>2661.6</ele>
        <time>2022-07-23T13:32:18Z</time>
      </trkpt>
      <trkpt lat="42.6930010" lon="-0.0343490">
        <ele>2661.6</ele>
        <time>2022-07-23T13:32:20Z</time>
      </trkpt>
      <trkpt lat="42.6930010" lon="-0.0343520">
        <ele>2661.6</ele>
        <time>2022-07-23T13:32:22Z</time>
      </trkpt>
      <trkpt lat="42.6930010" lon="-0.0343580">
        <ele>2661.8</ele>
        <time>2022-07-23T13:32:29Z</time>
      </trkpt>
      <trkpt lat="42.6929990" lon="-0.0343600">
        <ele>2662.0</ele>
        <time>2022-07-23T13:32:43Z</time>
      </trkpt>
      <trkpt lat="42.6930030" lon="-0.0343580">
        <ele>2661.8</ele>
        <time>2022-07-23T13:32:55Z</time>
      </trkpt>
      <trkpt lat="42.6930040" lon="-0.0343610">
        <ele>2661.8</ele>
        <time>2022-07-23T13:33:31Z</time>
      </trkpt>
      <trkpt lat="42.6930030" lon="-0.0343580">
        <ele>2661.4</ele>
        <time>2022-07-23T13:34:00Z</time>
      </trkpt>
      <trkpt lat="42.6930060" lon="-0.0343580">
        <ele>2661.6</ele>
        <time>2022-07-23T13:34:26Z</time>
      </trkpt>
      <trkpt lat="42.6930070" lon="-0.0343620">
        <ele>2661.8</ele>
        <time>2022-07-23T13:34:41Z</time>
      </trkpt>
      <trkpt lat="42.6930070" lon="-0.0343620">
        <ele>2662.0</ele>
        <time>2022-07-23T13:34:44Z</time>
      </trkpt>
      <trkpt lat="42.6930070" lon="-0.0343640">
        <ele>2662.4</ele>
        <time>2022-07-23T13:34:57Z</time>
      </trkpt>
      <trkpt lat="42.6930080" lon="-0.0343670">
        <ele>2662.6</ele>
        <time>2022-07-23T13:35:30Z</time>
      </trkpt>
      <trkpt lat="42.6929660" lon="-0.0343830">
        <ele>2662.4</ele>
        <time>2022-07-23T13:35:48Z</time>
      </trkpt>
      <trkpt lat="42.6928810" lon="-0.0344240">
        <ele>2662.2</ele>
        <time>2022-07-23T13:36:05Z</time>
      </trkpt>
      <trkpt lat="42.6928770" lon="-0.0344090">
        <ele>2662.2</ele>
        <time>2022-07-23T13:36:08Z</time>
      </trkpt>
      <trkpt lat="42.6928730" lon="-0.0344030">
        <ele>2662.2</ele>
        <time>2022-07-23T13:36:09Z</time>
      </trkpt>
      <trkpt lat="42.6928650" lon="-0.0343990">
        <ele>2662.2</ele>
        <time>2022-07-23T13:36:10Z</time>
      </trkpt>
      <trkpt lat="42.6928430" lon="-0.0344060">
        <ele>2662.4</ele>
        <time>2022-07-23T13:36:13Z</time>
      </trkpt>
      <trkpt lat="42.6928290" lon="-0.0344200">
        <ele>2662.8</ele>
        <time>2022-07-23T13:36:15Z</time>
      </trkpt>
      <trkpt lat="42.6928180" lon="-0.0344380">
        <ele>2663.0</ele>
        <time>2022-07-23T13:36:17Z</time>
      </trkpt>
      <trkpt lat="42.6928070" lon="-0.0344530">
        <ele>2663.6</ele>
        <time>2022-07-23T13:36:19Z</time>
      </trkpt>
      <trkpt lat="42.6927990" lon="-0.0344610">
        <ele>2663.6</ele>
        <time>2022-07-23T13:36:20Z</time>
      </trkpt>
      <trkpt lat="42.6927730" lon="-0.0344810">
        <ele>2664.2</ele>
        <time>2022-07-23T13:36:23Z</time>
      </trkpt>
      <trkpt lat="42.6927340" lon="-0.0345220">
        <ele>2665.0</ele>
        <time>2022-07-23T13:36:27Z</time>
      </trkpt>
      <trkpt lat="42.6927200" lon="-0.0345410">
        <ele>2665.4</ele>
        <time>2022-07-23T13:36:29Z</time>
      </trkpt>
      <trkpt lat="42.6927110" lon="-0.0345480">
        <ele>2665.4</ele>
        <time>2022-07-23T13:36:30Z</time>
      </trkpt>
      <trkpt lat="42.6926920" lon="-0.0345640">
        <ele>2665.6</ele>
        <time>2022-07-23T13:36:33Z</time>
      </trkpt>
      <trkpt lat="42.6926810" lon="-0.0346310">
        <ele>2666.0</ele>
        <time>2022-07-23T13:36:41Z</time>
      </trkpt>
      <trkpt lat="42.6926800" lon="-0.0346420">
        <ele>2666.0</ele>
        <time>2022-07-23T13:36:43Z</time>
      </trkpt>
      <trkpt lat="42.6926910" lon="-0.0346660">
        <ele>2666.0</ele>
        <time>2022-07-23T13:36:47Z</time>
      </trkpt>
      <trkpt lat="42.6926660" lon="-0.0347360">
        <ele>2664.6</ele>
        <time>2022-07-23T13:36:54Z</time>
      </trkpt>
      <trkpt lat="42.6926460" lon="-0.0347810">
        <ele>2664.4</ele>
        <time>2022-07-23T13:36:59Z</time>
      </trkpt>
      <trkpt lat="42.6926280" lon="-0.0348290">
        <ele>2663.8</ele>
        <time>2022-07-23T13:37:03Z</time>
      </trkpt>
      <trkpt lat="42.6925750" lon="-0.0348900">
        <ele>2663.2</ele>
        <time>2022-07-23T13:37:08Z</time>
      </trkpt>
      <trkpt lat="42.6925660" lon="-0.0349000">
        <ele>2663.2</ele>
        <time>2022-07-23T13:37:09Z</time>
      </trkpt>
      <trkpt lat="42.6924050" lon="-0.0350640">
        <ele>2662.2</ele>
        <time>2022-07-23T13:37:25Z</time>
      </trkpt>
      <trkpt lat="42.6923890" lon="-0.0350720">
        <ele>2662.4</ele>
        <time>2022-07-23T13:37:27Z</time>
      </trkpt>
      <trkpt lat="42.6923660" lon="-0.0350970">
        <ele>2663.2</ele>
        <time>2022-07-23T13:37:37Z</time>
      </trkpt>
      <trkpt lat="42.6923640" lon="-0.0351000">
        <ele>2663.6</ele>
        <time>2022-07-23T13:37:38Z</time>
      </trkpt>
      <trkpt lat="42.6923590" lon="-0.0351040">
        <ele>2663.6</ele>
        <time>2022-07-23T13:37:39Z</time>
      </trkpt>
      <trkpt lat="42.6923450" lon="-0.0351100">
        <ele>2664.0</ele>
        <time>2022-07-23T13:37:42Z</time>
      </trkpt>
      <trkpt lat="42.6922820" lon="-0.0351290">
        <ele>2665.2</ele>
        <time>2022-07-23T13:37:50Z</time>
      </trkpt>
      <trkpt lat="42.6922820" lon="-0.0351370">
        <ele>2665.2</ele>
        <time>2022-07-23T13:37:51Z</time>
      </trkpt>
      <trkpt lat="42.6922690" lon="-0.0351530">
        <ele>2665.8</ele>
        <time>2022-07-23T13:37:55Z</time>
      </trkpt>
      <trkpt lat="42.6922650" lon="-0.0351550">
        <ele>2666.2</ele>
        <time>2022-07-23T13:37:57Z</time>
      </trkpt>
      <trkpt lat="42.6922610" lon="-0.0351560">
        <ele>2666.2</ele>
        <time>2022-07-23T13:37:58Z</time>
      </trkpt>
      <trkpt lat="42.6922500" lon="-0.0351520">
        <ele>2666.6</ele>
        <time>2022-07-23T13:38:01Z</time>
      </trkpt>
      <trkpt lat="42.6922470" lon="-0.0351520">
        <ele>2666.8</ele>
        <time>2022-07-23T13:38:02Z</time>
      </trkpt>
      <trkpt lat="42.6922390" lon="-0.0351480">
        <ele>2667.2</ele>
        <time>2022-07-23T13:38:04Z</time>
      </trkpt>
      <trkpt lat="42.6922010" lon="-0.0351310">
        <ele>2668.0</ele>
        <time>2022-07-23T13:38:10Z</time>
      </trkpt>
      <trkpt lat="42.6921840" lon="-0.0351480">
        <ele>2668.8</ele>
        <time>2022-07-23T13:38:15Z</time>
      </trkpt>
      <trkpt lat="42.6921640" lon="-0.0351790">
        <ele>2669.8</ele>
        <time>2022-07-23T13:38:20Z</time>
      </trkpt>
      <trkpt lat="42.6921600" lon="-0.0351850">
        <ele>2670.2</ele>
        <time>2022-07-23T13:38:21Z</time>
      </trkpt>
      <trkpt lat="42.6921580" lon="-0.0351880">
        <ele>2670.4</ele>
        <time>2022-07-23T13:38:22Z</time>
      </trkpt>
      <trkpt lat="42.6921600" lon="-0.0351910">
        <ele>2670.4</ele>
        <time>2022-07-23T13:38:23Z</time>
      </trkpt>
      <trkpt lat="42.6921670" lon="-0.0351910">
        <ele>2670.4</ele>
        <time>2022-07-23T13:38:25Z</time>
      </trkpt>
      <trkpt lat="42.6921700" lon="-0.0351810">
        <ele>2670.8</ele>
        <time>2022-07-23T13:38:29Z</time>
      </trkpt>
      <trkpt lat="42.6921690" lon="-0.0351800">
        <ele>2671.2</ele>
        <time>2022-07-23T13:38:30Z</time>
      </trkpt>
      <trkpt lat="42.6921560" lon="-0.0351670">
        <ele>2672.0</ele>
        <time>2022-07-23T13:38:34Z</time>
      </trkpt>
      <trkpt lat="42.6921480" lon="-0.0351520">
        <ele>2672.0</ele>
        <time>2022-07-23T13:38:37Z</time>
      </trkpt>
      <trkpt lat="42.6921110" lon="-0.0350870">
        <ele>2671.8</ele>
        <time>2022-07-23T13:38:49Z</time>
      </trkpt>
      <trkpt lat="42.6921080" lon="-0.0350790">
        <ele>2671.8</ele>
        <time>2022-07-23T13:38:50Z</time>
      </trkpt>
      <trkpt lat="42.6920740" lon="-0.0350410">
        <ele>2671.6</ele>
        <time>2022-07-23T13:38:55Z</time>
      </trkpt>
      <trkpt lat="42.6920730" lon="-0.0350300">
        <ele>2671.6</ele>
        <time>2022-07-23T13:38:57Z</time>
      </trkpt>
      <trkpt lat="42.6920310" lon="-0.0350160">
        <ele>2671.8</ele>
        <time>2022-07-23T13:39:02Z</time>
      </trkpt>
      <trkpt lat="42.6920200" lon="-0.0350040">
        <ele>2672.0</ele>
        <time>2022-07-23T13:39:04Z</time>
      </trkpt>
      <trkpt lat="42.6919260" lon="-0.0349390">
        <ele>2673.4</ele>
        <time>2022-07-23T13:39:17Z</time>
      </trkpt>
      <trkpt lat="42.6918730" lon="-0.0349350">
        <ele>2673.8</ele>
        <time>2022-07-23T13:39:24Z</time>
      </trkpt>
      <trkpt lat="42.6918570" lon="-0.0349190">
        <ele>2674.0</ele>
        <time>2022-07-23T13:39:26Z</time>
      </trkpt>
      <trkpt lat="42.6918510" lon="-0.0349120">
        <ele>2674.0</ele>
        <time>2022-07-23T13:39:27Z</time>
      </trkpt>
      <trkpt lat="42.6918360" lon="-0.0349020">
        <ele>2674.2</ele>
        <time>2022-07-23T13:39:29Z</time>
      </trkpt>
      <trkpt lat="42.6918360" lon="-0.0348930">
        <ele>2674.4</ele>
        <time>2022-07-23T13:39:30Z</time>
      </trkpt>
      <trkpt lat="42.6918260" lon="-0.0348610">
        <ele>2674.6</ele>
        <time>2022-07-23T13:39:38Z</time>
      </trkpt>
      <trkpt lat="42.6918220" lon="-0.0348490">
        <ele>2675.2</ele>
        <time>2022-07-23T13:39:42Z</time>
      </trkpt>
      <trkpt lat="42.6917900" lon="-0.0348290">
        <ele>2675.6</ele>
        <time>2022-07-23T13:39:47Z</time>
      </trkpt>
      <trkpt lat="42.6917580" lon="-0.0348070">
        <ele>2676.4</ele>
        <time>2022-07-23T13:39:52Z</time>
      </trkpt>
      <trkpt lat="42.6917590" lon="-0.0347810">
        <ele>2677.4</ele>
        <time>2022-07-23T13:39:58Z</time>
      </trkpt>
      <trkpt lat="42.6917540" lon="-0.0347790">
        <ele>2677.6</ele>
        <time>2022-07-23T13:40:00Z</time>
      </trkpt>
      <trkpt lat="42.6917460" lon="-0.0347660">
        <ele>2678.8</ele>
        <time>2022-07-23T13:40:05Z</time>
      </trkpt>
      <trkpt lat="42.6917440" lon="-0.0347610">
        <ele>2678.8</ele>
        <time>2022-07-23T13:40:06Z</time>
      </trkpt>
      <trkpt lat="42.6917410" lon="-0.0347570">
        <ele>2679.2</ele>
        <time>2022-07-23T13:40:07Z</time>
      </trkpt>
      <trkpt lat="42.6917410" lon="-0.0347500">
        <ele>2679.4</ele>
        <time>2022-07-23T13:40:09Z</time>
      </trkpt>
      <trkpt lat="42.6917460" lon="-0.0347470">
        <ele>2679.6</ele>
        <time>2022-07-23T13:40:11Z</time>
      </trkpt>
      <trkpt lat="42.6917450" lon="-0.0347480">
        <ele>2680.2</ele>
        <time>2022-07-23T13:40:12Z</time>
      </trkpt>
      <trkpt lat="42.6917540" lon="-0.0347450">
        <ele>2680.4</ele>
        <time>2022-07-23T13:40:14Z</time>
      </trkpt>
      <trkpt lat="42.6917700" lon="-0.0347390">
        <ele>2680.6</ele>
        <time>2022-07-23T13:40:16Z</time>
      </trkpt>
      <trkpt lat="42.6917700" lon="-0.0347350">
        <ele>2680.8</ele>
        <time>2022-07-23T13:40:17Z</time>
      </trkpt>
      <trkpt lat="42.6917610" lon="-0.0347350">
        <ele>2681.6</ele>
        <time>2022-07-23T13:40:21Z</time>
      </trkpt>
      <trkpt lat="42.6917480" lon="-0.0347170">
        <ele>2682.6</ele>
        <time>2022-07-23T13:40:29Z</time>
      </trkpt>
      <trkpt lat="42.6917280" lon="-0.0347210">
        <ele>2682.8</ele>
        <time>2022-07-23T13:40:32Z</time>
      </trkpt>
      <trkpt lat="42.6916940" lon="-0.0347170">
        <ele>2683.8</ele>
        <time>2022-07-23T13:40:38Z</time>
      </trkpt>
      <trkpt lat="42.6916840" lon="-0.0347140">
        <ele>2684.2</ele>
        <time>2022-07-23T13:40:40Z</time>
      </trkpt>
      <trkpt lat="42.6916800" lon="-0.0347120">
        <ele>2684.4</ele>
        <time>2022-07-23T13:40:41Z</time>
      </trkpt>
      <trkpt lat="42.6916170" lon="-0.0346980">
        <ele>2685.4</ele>
        <time>2022-07-23T13:40:50Z</time>
      </trkpt>
      <trkpt lat="42.6915990" lon="-0.0346870">
        <ele>2686.2</ele>
        <time>2022-07-23T13:40:53Z</time>
      </trkpt>
      <trkpt lat="42.6915470" lon="-0.0346810">
        <ele>2687.0</ele>
        <time>2022-07-23T13:40:58Z</time>
      </trkpt>
      <trkpt lat="42.6915410" lon="-0.0346770">
        <ele>2687.2</ele>
        <time>2022-07-23T13:40:59Z</time>
      </trkpt>
      <trkpt lat="42.6915280" lon="-0.0346680">
        <ele>2687.2</ele>
        <time>2022-07-23T13:41:01Z</time>
      </trkpt>
      <trkpt lat="42.6914910" lon="-0.0346350">
        <ele>2688.2</ele>
        <time>2022-07-23T13:41:07Z</time>
      </trkpt>
      <trkpt lat="42.6915100" lon="-0.0345960">
        <ele>2689.2</ele>
        <time>2022-07-23T13:41:11Z</time>
      </trkpt>
      <trkpt lat="42.6915650" lon="-0.0345660">
        <ele>2690.4</ele>
        <time>2022-07-23T13:41:17Z</time>
      </trkpt>
      <trkpt lat="42.6915730" lon="-0.0345550">
        <ele>2690.6</ele>
        <time>2022-07-23T13:41:19Z</time>
      </trkpt>
      <trkpt lat="42.6915730" lon="-0.0345540">
        <ele>2690.8</ele>
        <time>2022-07-23T13:41:20Z</time>
      </trkpt>
      <trkpt lat="42.6915730" lon="-0.0345530">
        <ele>2690.6</ele>
        <time>2022-07-23T13:41:21Z</time>
      </trkpt>
      <trkpt lat="42.6915700" lon="-0.0345450">
        <ele>2691.6</ele>
        <time>2022-07-23T13:41:24Z</time>
      </trkpt>
      <trkpt lat="42.6915690" lon="-0.0345400">
        <ele>2691.6</ele>
        <time>2022-07-23T13:41:25Z</time>
      </trkpt>
      <trkpt lat="42.6915670" lon="-0.0345350">
        <ele>2691.8</ele>
        <time>2022-07-23T13:41:26Z</time>
      </trkpt>
      <trkpt lat="42.6915640" lon="-0.0345310">
        <ele>2692.0</ele>
        <time>2022-07-23T13:41:27Z</time>
      </trkpt>
      <trkpt lat="42.6915480" lon="-0.0345120">
        <ele>2692.6</ele>
        <time>2022-07-23T13:41:31Z</time>
      </trkpt>
      <trkpt lat="42.6915480" lon="-0.0344740">
        <ele>2693.6</ele>
        <time>2022-07-23T13:41:37Z</time>
      </trkpt>
      <trkpt lat="42.6915490" lon="-0.0344600">
        <ele>2694.0</ele>
        <time>2022-07-23T13:41:39Z</time>
      </trkpt>
      <trkpt lat="42.6915530" lon="-0.0344380">
        <ele>2695.0</ele>
        <time>2022-07-23T13:41:43Z</time>
      </trkpt>
      <trkpt lat="42.6915520" lon="-0.0344330">
        <ele>2695.2</ele>
        <time>2022-07-23T13:41:44Z</time>
      </trkpt>
      <trkpt lat="42.6915490" lon="-0.0344280">
        <ele>2695.2</ele>
        <time>2022-07-23T13:41:45Z</time>
      </trkpt>
      <trkpt lat="42.6915450" lon="-0.0344220">
        <ele>2695.6</ele>
        <time>2022-07-23T13:41:46Z</time>
      </trkpt>
      <trkpt lat="42.6915300" lon="-0.0343740">
        <ele>2696.2</ele>
        <time>2022-07-23T13:41:52Z</time>
      </trkpt>
      <trkpt lat="42.6915230" lon="-0.0343340">
        <ele>2697.2</ele>
        <time>2022-07-23T13:41:58Z</time>
      </trkpt>
      <trkpt lat="42.6915230" lon="-0.0343250">
        <ele>2697.4</ele>
        <time>2022-07-23T13:41:59Z</time>
      </trkpt>
      <trkpt lat="42.6915210" lon="-0.0343190">
        <ele>2697.6</ele>
        <time>2022-07-23T13:42:00Z</time>
      </trkpt>
      <trkpt lat="42.6914400" lon="-0.0342860">
        <ele>2699.4</ele>
        <time>2022-07-23T13:42:10Z</time>
      </trkpt>
      <trkpt lat="42.6914190" lon="-0.0342750">
        <ele>2700.0</ele>
        <time>2022-07-23T13:42:13Z</time>
      </trkpt>
      <trkpt lat="42.6914150" lon="-0.0342690">
        <ele>2700.6</ele>
        <time>2022-07-23T13:42:15Z</time>
      </trkpt>
      <trkpt lat="42.6913840" lon="-0.0342240">
        <ele>2701.8</ele>
        <time>2022-07-23T13:42:25Z</time>
      </trkpt>
      <trkpt lat="42.6913800" lon="-0.0342050">
        <ele>2702.4</ele>
        <time>2022-07-23T13:42:30Z</time>
      </trkpt>
      <trkpt lat="42.6913820" lon="-0.0341890">
        <ele>2702.6</ele>
        <time>2022-07-23T13:42:32Z</time>
      </trkpt>
      <trkpt lat="42.6913780" lon="-0.0341880">
        <ele>2702.8</ele>
        <time>2022-07-23T13:42:33Z</time>
      </trkpt>
      <trkpt lat="42.6913720" lon="-0.0341920">
        <ele>2703.4</ele>
        <time>2022-07-23T13:42:36Z</time>
      </trkpt>
      <trkpt lat="42.6913740" lon="-0.0341900">
        <ele>2703.6</ele>
        <time>2022-07-23T13:42:38Z</time>
      </trkpt>
      <trkpt lat="42.6913750" lon="-0.0341880">
        <ele>2703.8</ele>
        <time>2022-07-23T13:42:40Z</time>
      </trkpt>
      <trkpt lat="42.6913860" lon="-0.0341840">
        <ele>2704.4</ele>
        <time>2022-07-23T13:42:42Z</time>
      </trkpt>
      <trkpt lat="42.6913850" lon="-0.0341770">
        <ele>2704.6</ele>
        <time>2022-07-23T13:42:43Z</time>
      </trkpt>
      <trkpt lat="42.6913860" lon="-0.0341690">
        <ele>2704.8</ele>
        <time>2022-07-23T13:42:44Z</time>
      </trkpt>
      <trkpt lat="42.6913670" lon="-0.0341850">
        <ele>2705.2</ele>
        <time>2022-07-23T13:42:47Z</time>
      </trkpt>
      <trkpt lat="42.6913600" lon="-0.0341900">
        <ele>2705.4</ele>
        <time>2022-07-23T13:42:48Z</time>
      </trkpt>
      <trkpt lat="42.6913470" lon="-0.0342060">
        <ele>2705.8</ele>
        <time>2022-07-23T13:42:53Z</time>
      </trkpt>
      <trkpt lat="42.6913490" lon="-0.0342030">
        <ele>2706.2</ele>
        <time>2022-07-23T13:42:55Z</time>
      </trkpt>
      <trkpt lat="42.6913130" lon="-0.0341870">
        <ele>2707.6</ele>
        <time>2022-07-23T13:43:03Z</time>
      </trkpt>
      <trkpt lat="42.6912860" lon="-0.0341690">
        <ele>2708.2</ele>
        <time>2022-07-23T13:43:08Z</time>
      </trkpt>
      <trkpt lat="42.6912670" lon="-0.0341740">
        <ele>2708.6</ele>
        <time>2022-07-23T13:43:11Z</time>
      </trkpt>
      <trkpt lat="42.6912470" lon="-0.0341650">
        <ele>2709.2</ele>
        <time>2022-07-23T13:43:17Z</time>
      </trkpt>
      <trkpt lat="42.6912300" lon="-0.0341440">
        <ele>2709.8</ele>
        <time>2022-07-23T13:43:22Z</time>
      </trkpt>
      <trkpt lat="42.6912140" lon="-0.0341370">
        <ele>2710.2</ele>
        <time>2022-07-23T13:43:25Z</time>
      </trkpt>
      <trkpt lat="42.6912030" lon="-0.0341210">
        <ele>2712.0</ele>
        <time>2022-07-23T13:43:34Z</time>
      </trkpt>
      <trkpt lat="42.6911940" lon="-0.0341190">
        <ele>2712.6</ele>
        <time>2022-07-23T13:43:37Z</time>
      </trkpt>
      <trkpt lat="42.6911800" lon="-0.0341080">
        <ele>2713.0</ele>
        <time>2022-07-23T13:43:42Z</time>
      </trkpt>
      <trkpt lat="42.6911770" lon="-0.0341040">
        <ele>2713.0</ele>
        <time>2022-07-23T13:43:43Z</time>
      </trkpt>
      <trkpt lat="42.6911770" lon="-0.0340970">
        <ele>2713.0</ele>
        <time>2022-07-23T13:43:44Z</time>
      </trkpt>
      <trkpt lat="42.6911780" lon="-0.0340910">
        <ele>2713.4</ele>
        <time>2022-07-23T13:43:46Z</time>
      </trkpt>
      <trkpt lat="42.6911810" lon="-0.0340860">
        <ele>2713.6</ele>
        <time>2022-07-23T13:43:47Z</time>
      </trkpt>
      <trkpt lat="42.6911860" lon="-0.0340790">
        <ele>2713.4</ele>
        <time>2022-07-23T13:43:48Z</time>
      </trkpt>
      <trkpt lat="42.6911990" lon="-0.0340730">
        <ele>2713.6</ele>
        <time>2022-07-23T13:43:50Z</time>
      </trkpt>
      <trkpt lat="42.6912050" lon="-0.0340690">
        <ele>2713.6</ele>
        <time>2022-07-23T13:43:51Z</time>
      </trkpt>
      <trkpt lat="42.6912080" lon="-0.0340660">
        <ele>2713.6</ele>
        <time>2022-07-23T13:43:52Z</time>
      </trkpt>
      <trkpt lat="42.6912110" lon="-0.0340630">
        <ele>2713.6</ele>
        <time>2022-07-23T13:43:53Z</time>
      </trkpt>
      <trkpt lat="42.6912140" lon="-0.0340590">
        <ele>2713.8</ele>
        <time>2022-07-23T13:43:54Z</time>
      </trkpt>
      <trkpt lat="42.6912240" lon="-0.0340560">
        <ele>2713.8</ele>
        <time>2022-07-23T13:43:55Z</time>
      </trkpt>
      <trkpt lat="42.6912280" lon="-0.0340510">
        <ele>2714.4</ele>
        <time>2022-07-23T13:43:56Z</time>
      </trkpt>
      <trkpt lat="42.6912310" lon="-0.0340500">
        <ele>2714.6</ele>
        <time>2022-07-23T13:43:57Z</time>
      </trkpt>
      <trkpt lat="42.6912360" lon="-0.0340480">
        <ele>2715.0</ele>
        <time>2022-07-23T13:43:58Z</time>
      </trkpt>
      <trkpt lat="42.6912470" lon="-0.0340530">
        <ele>2715.0</ele>
        <time>2022-07-23T13:43:59Z</time>
      </trkpt>
      <trkpt lat="42.6912560" lon="-0.0340510">
        <ele>2715.4</ele>
        <time>2022-07-23T13:44:01Z</time>
      </trkpt>
      <trkpt lat="42.6912600" lon="-0.0340450">
        <ele>2715.6</ele>
        <time>2022-07-23T13:44:03Z</time>
      </trkpt>
      <trkpt lat="42.6912610" lon="-0.0340430">
        <ele>2715.6</ele>
        <time>2022-07-23T13:44:04Z</time>
      </trkpt>
      <trkpt lat="42.6912610" lon="-0.0340430">
        <ele>2716.0</ele>
        <time>2022-07-23T13:44:05Z</time>
      </trkpt>
      <trkpt lat="42.6911990" lon="-0.0340510">
        <ele>2716.4</ele>
        <time>2022-07-23T13:44:07Z</time>
      </trkpt>
      <trkpt lat="42.6911890" lon="-0.0340480">
        <ele>2716.6</ele>
        <time>2022-07-23T13:44:08Z</time>
      </trkpt>
      <trkpt lat="42.6911880" lon="-0.0340440">
        <ele>2716.6</ele>
        <time>2022-07-23T13:44:09Z</time>
      </trkpt>
      <trkpt lat="42.6911930" lon="-0.0340380">
        <ele>2716.8</ele>
        <time>2022-07-23T13:44:10Z</time>
      </trkpt>
      <trkpt lat="42.6911950" lon="-0.0340300">
        <ele>2716.8</ele>
        <time>2022-07-23T13:44:11Z</time>
      </trkpt>
      <trkpt lat="42.6911940" lon="-0.0340280">
        <ele>2717.2</ele>
        <time>2022-07-23T13:44:13Z</time>
      </trkpt>
      <trkpt lat="42.6911900" lon="-0.0340280">
        <ele>2717.4</ele>
        <time>2022-07-23T13:44:15Z</time>
      </trkpt>
      <trkpt lat="42.6911880" lon="-0.0340270">
        <ele>2717.8</ele>
        <time>2022-07-23T13:44:17Z</time>
      </trkpt>
      <trkpt lat="42.6911890" lon="-0.0340250">
        <ele>2718.2</ele>
        <time>2022-07-23T13:44:18Z</time>
      </trkpt>
      <trkpt lat="42.6911870" lon="-0.0340250">
        <ele>2718.4</ele>
        <time>2022-07-23T13:44:20Z</time>
      </trkpt>
      <trkpt lat="42.6911780" lon="-0.0340300">
        <ele>2718.8</ele>
        <time>2022-07-23T13:44:25Z</time>
      </trkpt>
      <trkpt lat="42.6911720" lon="-0.0340310">
        <ele>2719.0</ele>
        <time>2022-07-23T13:44:27Z</time>
      </trkpt>
      <trkpt lat="42.6911710" lon="-0.0340310">
        <ele>2719.0</ele>
        <time>2022-07-23T13:44:28Z</time>
      </trkpt>
      <trkpt lat="42.6911690" lon="-0.0340350">
        <ele>2719.4</ele>
        <time>2022-07-23T13:44:32Z</time>
      </trkpt>
      <trkpt lat="42.6911680" lon="-0.0340360">
        <ele>2719.4</ele>
        <time>2022-07-23T13:44:33Z</time>
      </trkpt>
      <trkpt lat="42.6911670" lon="-0.0340360">
        <ele>2719.6</ele>
        <time>2022-07-23T13:44:34Z</time>
      </trkpt>
      <trkpt lat="42.6911660" lon="-0.0340360">
        <ele>2719.6</ele>
        <time>2022-07-23T13:44:35Z</time>
      </trkpt>
      <trkpt lat="42.6911650" lon="-0.0340360">
        <ele>2719.8</ele>
        <time>2022-07-23T13:44:36Z</time>
      </trkpt>
      <trkpt lat="42.6911650" lon="-0.0340370">
        <ele>2719.8</ele>
        <time>2022-07-23T13:44:38Z</time>
      </trkpt>
      <trkpt lat="42.6911630" lon="-0.0340410">
        <ele>2719.8</ele>
        <time>2022-07-23T13:44:40Z</time>
      </trkpt>
      <trkpt lat="42.6911620" lon="-0.0340490">
        <ele>2720.2</ele>
        <time>2022-07-23T13:44:42Z</time>
      </trkpt>
      <trkpt lat="42.6911590" lon="-0.0340660">
        <ele>2720.4</ele>
        <time>2022-07-23T13:44:45Z</time>
      </trkpt>
      <trkpt lat="42.6911530" lon="-0.0340780">
        <ele>2721.6</ele>
        <time>2022-07-23T13:44:51Z</time>
      </trkpt>
      <trkpt lat="42.6911510" lon="-0.0340690">
        <ele>2721.8</ele>
        <time>2022-07-23T13:44:52Z</time>
      </trkpt>
      <trkpt lat="42.6911500" lon="-0.0340610">
        <ele>2722.0</ele>
        <time>2022-07-23T13:44:53Z</time>
      </trkpt>
      <trkpt lat="42.6911370" lon="-0.0340430">
        <ele>2722.2</ele>
        <time>2022-07-23T13:44:58Z</time>
      </trkpt>
      <trkpt lat="42.6911310" lon="-0.0340340">
        <ele>2723.0</ele>
        <time>2022-07-23T13:45:00Z</time>
      </trkpt>
      <trkpt lat="42.6911300" lon="-0.0340270">
        <ele>2723.2</ele>
        <time>2022-07-23T13:45:01Z</time>
      </trkpt>
      <trkpt lat="42.6911250" lon="-0.0340200">
        <ele>2723.2</ele>
        <time>2022-07-23T13:45:02Z</time>
      </trkpt>
      <trkpt lat="42.6911220" lon="-0.0340250">
        <ele>2723.2</ele>
        <time>2022-07-23T13:45:03Z</time>
      </trkpt>
      <trkpt lat="42.6911180" lon="-0.0340290">
        <ele>2723.4</ele>
        <time>2022-07-23T13:45:04Z</time>
      </trkpt>
      <trkpt lat="42.6911010" lon="-0.0340390">
        <ele>2724.0</ele>
        <time>2022-07-23T13:45:09Z</time>
      </trkpt>
      <trkpt lat="42.6911060" lon="-0.0340490">
        <ele>2724.2</ele>
        <time>2022-07-23T13:45:10Z</time>
      </trkpt>
      <trkpt lat="42.6911000" lon="-0.0340390">
        <ele>2725.0</ele>
        <time>2022-07-23T13:45:14Z</time>
      </trkpt>
      <trkpt lat="42.6910930" lon="-0.0340300">
        <ele>2725.2</ele>
        <time>2022-07-23T13:45:16Z</time>
      </trkpt>
      <trkpt lat="42.6910930" lon="-0.0340290">
        <ele>2725.4</ele>
        <time>2022-07-23T13:45:17Z</time>
      </trkpt>
      <trkpt lat="42.6910920" lon="-0.0340230">
        <ele>2725.6</ele>
        <time>2022-07-23T13:45:18Z</time>
      </trkpt>
      <trkpt lat="42.6910730" lon="-0.0339980">
        <ele>2726.2</ele>
        <time>2022-07-23T13:45:24Z</time>
      </trkpt>
      <trkpt lat="42.6910660" lon="-0.0339840">
        <ele>2727.2</ele>
        <time>2022-07-23T13:45:26Z</time>
      </trkpt>
      <trkpt lat="42.6910630" lon="-0.0339730">
        <ele>2727.6</ele>
        <time>2022-07-23T13:45:28Z</time>
      </trkpt>
      <trkpt lat="42.6910610" lon="-0.0339680">
        <ele>2727.6</ele>
        <time>2022-07-23T13:45:30Z</time>
      </trkpt>
      <trkpt lat="42.6910500" lon="-0.0339430">
        <ele>2728.4</ele>
        <time>2022-07-23T13:45:35Z</time>
      </trkpt>
      <trkpt lat="42.6910590" lon="-0.0339190">
        <ele>2729.2</ele>
        <time>2022-07-23T13:45:39Z</time>
      </trkpt>
      <trkpt lat="42.6910510" lon="-0.0339080">
        <ele>2730.0</ele>
        <time>2022-07-23T13:45:43Z</time>
      </trkpt>
      <trkpt lat="42.6910430" lon="-0.0339150">
        <ele>2730.2</ele>
        <time>2022-07-23T13:45:45Z</time>
      </trkpt>
      <trkpt lat="42.6910370" lon="-0.0339190">
        <ele>2730.4</ele>
        <time>2022-07-23T13:45:47Z</time>
      </trkpt>
      <trkpt lat="42.6910310" lon="-0.0339210">
        <ele>2730.6</ele>
        <time>2022-07-23T13:45:49Z</time>
      </trkpt>
      <trkpt lat="42.6910290" lon="-0.0339210">
        <ele>2732.8</ele>
        <time>2022-07-23T13:46:05Z</time>
      </trkpt>
      <trkpt lat="42.6910350" lon="-0.0339190">
        <ele>2732.8</ele>
        <time>2022-07-23T13:46:07Z</time>
      </trkpt>
      <trkpt lat="42.6910660" lon="-0.0338990">
        <ele>2732.6</ele>
        <time>2022-07-23T13:46:12Z</time>
      </trkpt>
      <trkpt lat="42.6911080" lon="-0.0338940">
        <ele>2731.2</ele>
        <time>2022-07-23T13:46:21Z</time>
      </trkpt>
      <trkpt lat="42.6911090" lon="-0.0339030">
        <ele>2730.8</ele>
        <time>2022-07-23T13:46:29Z</time>
      </trkpt>
      <trkpt lat="42.6911090" lon="-0.0339030">
        <ele>2731.0</ele>
        <time>2022-07-23T13:46:31Z</time>
      </trkpt>
      <trkpt lat="42.6911100" lon="-0.0339030">
        <ele>2730.8</ele>
        <time>2022-07-23T13:46:38Z</time>
      </trkpt>
      <trkpt lat="42.6911100" lon="-0.0339030">
        <ele>2731.0</ele>
        <time>2022-07-23T13:46:39Z</time>
      </trkpt>
      <trkpt lat="42.6911100" lon="-0.0339030">
        <ele>2730.6</ele>
        <time>2022-07-23T13:46:40Z</time>
      </trkpt>
      <trkpt lat="42.6911100" lon="-0.0339030">
        <ele>2730.8</ele>
        <time>2022-07-23T13:46:41Z</time>
      </trkpt>
      <trkpt lat="42.6911100" lon="-0.0339030">
        <ele>2730.6</ele>
        <time>2022-07-23T13:46:42Z</time>
      </trkpt>
      <trkpt lat="42.6911070" lon="-0.0339070">
        <ele>2730.8</ele>
        <time>2022-07-23T13:46:48Z</time>
      </trkpt>
      <trkpt lat="42.6910930" lon="-0.0339430">
        <ele>2730.6</ele>
        <time>2022-07-23T13:46:58Z</time>
      </trkpt>
      <trkpt lat="42.6910950" lon="-0.0339540">
        <ele>2730.6</ele>
        <time>2022-07-23T13:47:00Z</time>
      </trkpt>
      <trkpt lat="42.6910950" lon="-0.0339630">
        <ele>2730.8</ele>
        <time>2022-07-23T13:47:01Z</time>
      </trkpt>
      <trkpt lat="42.6910780" lon="-0.0339870">
        <ele>2730.6</ele>
        <time>2022-07-23T13:47:07Z</time>
      </trkpt>
      <trkpt lat="42.6910840" lon="-0.0339970">
        <ele>2730.6</ele>
        <time>2022-07-23T13:47:10Z</time>
      </trkpt>
      <trkpt lat="42.6910870" lon="-0.0340040">
        <ele>2730.4</ele>
        <time>2022-07-23T13:47:12Z</time>
      </trkpt>
      <trkpt lat="42.6910880" lon="-0.0340090">
        <ele>2730.6</ele>
        <time>2022-07-23T13:47:13Z</time>
      </trkpt>
      <trkpt lat="42.6910890" lon="-0.0340160">
        <ele>2730.6</ele>
        <time>2022-07-23T13:47:14Z</time>
      </trkpt>
      <trkpt lat="42.6910910" lon="-0.0340270">
        <ele>2730.6</ele>
        <time>2022-07-23T13:47:16Z</time>
      </trkpt>
      <trkpt lat="42.6910960" lon="-0.0340340">
        <ele>2730.4</ele>
        <time>2022-07-23T13:47:18Z</time>
      </trkpt>
      <trkpt lat="42.6910920" lon="-0.0340480">
        <ele>2730.6</ele>
        <time>2022-07-23T13:47:20Z</time>
      </trkpt>
      <trkpt lat="42.6910890" lon="-0.0341110">
        <ele>2730.6</ele>
        <time>2022-07-23T13:47:27Z</time>
      </trkpt>
      <trkpt lat="42.6910910" lon="-0.0341200">
        <ele>2730.4</ele>
        <time>2022-07-23T13:47:28Z</time>
      </trkpt>
      <trkpt lat="42.6910870" lon="-0.0341570">
        <ele>2730.8</ele>
        <time>2022-07-23T13:47:32Z</time>
      </trkpt>
      <trkpt lat="42.6910860" lon="-0.0341650">
        <ele>2730.8</ele>
        <time>2022-07-23T13:47:33Z</time>
      </trkpt>
      <trkpt lat="42.6910970" lon="-0.0342010">
        <ele>2730.6</ele>
        <time>2022-07-23T13:47:38Z</time>
      </trkpt>
      <trkpt lat="42.6911170" lon="-0.0342980">
        <ele>2732.0</ele>
        <time>2022-07-23T13:47:47Z</time>
      </trkpt>
      <trkpt lat="42.6911300" lon="-0.0343460">
        <ele>2732.4</ele>
        <time>2022-07-23T13:47:51Z</time>
      </trkpt>
      <trkpt lat="42.6911400" lon="-0.0344490">
        <ele>2732.4</ele>
        <time>2022-07-23T13:48:00Z</time>
      </trkpt>
      <trkpt lat="42.6911560" lon="-0.0344620">
        <ele>2732.4</ele>
        <time>2022-07-23T13:48:03Z</time>
      </trkpt>
      <trkpt lat="42.6911580" lon="-0.0344670">
        <ele>2732.4</ele>
        <time>2022-07-23T13:48:04Z</time>
      </trkpt>
      <trkpt lat="42.6911310" lon="-0.0345380">
        <ele>2732.6</ele>
        <time>2022-07-23T13:48:13Z</time>
      </trkpt>
      <trkpt lat="42.6911260" lon="-0.0345430">
        <ele>2732.6</ele>
        <time>2022-07-23T13:48:14Z</time>
      </trkpt>
      <trkpt lat="42.6911230" lon="-0.0345480">
        <ele>2732.6</ele>
        <time>2022-07-23T13:48:15Z</time>
      </trkpt>
      <trkpt lat="42.6911170" lon="-0.0345550">
        <ele>2732.6</ele>
        <time>2022-07-23T13:48:17Z</time>
      </trkpt>
      <trkpt lat="42.6911070" lon="-0.0345510">
        <ele>2732.8</ele>
        <time>2022-07-23T13:48:19Z</time>
      </trkpt>
      <trkpt lat="42.6911030" lon="-0.0345500">
        <ele>2732.8</ele>
        <time>2022-07-23T13:48:20Z</time>
      </trkpt>
      <trkpt lat="42.6910980" lon="-0.0345490">
        <ele>2733.0</ele>
        <time>2022-07-23T13:48:21Z</time>
      </trkpt>
      <trkpt lat="42.6910820" lon="-0.0345740">
        <ele>2733.8</ele>
        <time>2022-07-23T13:48:25Z</time>
      </trkpt>
      <trkpt lat="42.6910830" lon="-0.0345600">
        <ele>2736.0</ele>
        <time>2022-07-23T13:48:36Z</time>
      </trkpt>
      <trkpt lat="42.6910820" lon="-0.0345610">
        <ele>2735.8</ele>
        <time>2022-07-23T13:48:37Z</time>
      </trkpt>
      <trkpt lat="42.6910800" lon="-0.0345620">
        <ele>2736.0</ele>
        <time>2022-07-23T13:48:39Z</time>
      </trkpt>
      <trkpt lat="42.6910810" lon="-0.0345630">
        <ele>2736.0</ele>
        <time>2022-07-23T13:48:41Z</time>
      </trkpt>
      <trkpt lat="42.6910890" lon="-0.0345810">
        <ele>2736.2</ele>
        <time>2022-07-23T13:48:55Z</time>
      </trkpt>
      <trkpt lat="42.6910880" lon="-0.0345820">
        <ele>2736.2</ele>
        <time>2022-07-23T13:48:57Z</time>
      </trkpt>
      <trkpt lat="42.6910880" lon="-0.0345820">
        <ele>2736.2</ele>
        <time>2022-07-23T13:48:58Z</time>
      </trkpt>
      <trkpt lat="42.6910880" lon="-0.0345820">
        <ele>2736.2</ele>
        <time>2022-07-23T13:48:59Z</time>
      </trkpt>
      <trkpt lat="42.6910890" lon="-0.0345910">
        <ele>2736.8</ele>
        <time>2022-07-23T13:49:15Z</time>
      </trkpt>
      <trkpt lat="42.6910900" lon="-0.0345750">
        <ele>2736.8</ele>
        <time>2022-07-23T13:49:25Z</time>
      </trkpt>
      <trkpt lat="42.6911140" lon="-0.0345710">
        <ele>2736.6</ele>
        <time>2022-07-23T13:49:31Z</time>
      </trkpt>
      <trkpt lat="42.6911320" lon="-0.0345630">
        <ele>2736.2</ele>
        <time>2022-07-23T13:49:46Z</time>
      </trkpt>
      <trkpt lat="42.6911320" lon="-0.0345620">
        <ele>2735.6</ele>
        <time>2022-07-23T13:49:54Z</time>
      </trkpt>
      <trkpt lat="42.6911410" lon="-0.0345580">
        <ele>2735.6</ele>
        <time>2022-07-23T13:50:10Z</time>
      </trkpt>
      <trkpt lat="42.6911500" lon="-0.0345490">
        <ele>2735.4</ele>
        <time>2022-07-23T13:50:22Z</time>
      </trkpt>
      <trkpt lat="42.6911510" lon="-0.0345490">
        <ele>2735.4</ele>
        <time>2022-07-23T13:50:23Z</time>
      </trkpt>
      <trkpt lat="42.6911510" lon="-0.0345490">
        <ele>2735.4</ele>
        <time>2022-07-23T13:50:25Z</time>
      </trkpt>
      <trkpt lat="42.6911510" lon="-0.0345490">
        <ele>2735.4</ele>
        <time>2022-07-23T13:50:26Z</time>
      </trkpt>
      <trkpt lat="42.6911520" lon="-0.0345480">
        <ele>2735.4</ele>
        <time>2022-07-23T13:50:27Z</time>
      </trkpt>
      <trkpt lat="42.6911520" lon="-0.0345470">
        <ele>2735.4</ele>
        <time>2022-07-23T13:50:28Z</time>
      </trkpt>
      <trkpt lat="42.6911530" lon="-0.0345460">
        <ele>2735.4</ele>
        <time>2022-07-23T13:50:29Z</time>
      </trkpt>
      <trkpt lat="42.6911530" lon="-0.0345440">
        <ele>2735.4</ele>
        <time>2022-07-23T13:50:30Z</time>
      </trkpt>
      <trkpt lat="42.6911520" lon="-0.0345300">
        <ele>2735.2</ele>
        <time>2022-07-23T13:50:33Z</time>
      </trkpt>
      <trkpt lat="42.6911500" lon="-0.0344980">
        <ele>2733.8</ele>
        <time>2022-07-23T13:50:39Z</time>
      </trkpt>
      <trkpt lat="42.6911470" lon="-0.0344800">
        <ele>2733.6</ele>
        <time>2022-07-23T13:50:41Z</time>
      </trkpt>
      <trkpt lat="42.6911380" lon="-0.0344620">
        <ele>2733.2</ele>
        <time>2022-07-23T13:50:43Z</time>
      </trkpt>
      <trkpt lat="42.6911200" lon="-0.0343670">
        <ele>2732.6</ele>
        <time>2022-07-23T13:50:50Z</time>
      </trkpt>
      <trkpt lat="42.6911160" lon="-0.0343530">
        <ele>2732.6</ele>
        <time>2022-07-23T13:50:51Z</time>
      </trkpt>
      <trkpt lat="42.6911110" lon="-0.0343380">
        <ele>2732.6</ele>
        <time>2022-07-23T13:50:52Z</time>
      </trkpt>
      <trkpt lat="42.6911040" lon="-0.0343240">
        <ele>2732.4</ele>
        <time>2022-07-23T13:50:53Z</time>
      </trkpt>
      <trkpt lat="42.6910990" lon="-0.0343120">
        <ele>2732.6</ele>
        <time>2022-07-23T13:50:54Z</time>
      </trkpt>
      <trkpt lat="42.6910930" lon="-0.0342940">
        <ele>2732.4</ele>
        <time>2022-07-23T13:50:56Z</time>
      </trkpt>
      <trkpt lat="42.6910930" lon="-0.0342830">
        <ele>2732.4</ele>
        <time>2022-07-23T13:50:57Z</time>
      </trkpt>
      <trkpt lat="42.6911190" lon="-0.0342120">
        <ele>2732.2</ele>
        <time>2022-07-23T13:51:09Z</time>
      </trkpt>
      <trkpt lat="42.6911050" lon="-0.0342140">
        <ele>2732.0</ele>
        <time>2022-07-23T13:51:24Z</time>
      </trkpt>
      <trkpt lat="42.6911030" lon="-0.0342120">
        <ele>2732.0</ele>
        <time>2022-07-23T13:51:25Z</time>
      </trkpt>
      <trkpt lat="42.6910950" lon="-0.0342140">
        <ele>2732.2</ele>
        <time>2022-07-23T13:51:34Z</time>
      </trkpt>
      <trkpt lat="42.6910910" lon="-0.0342070">
        <ele>2732.4</ele>
        <time>2022-07-23T13:51:39Z</time>
      </trkpt>
      <trkpt lat="42.6910880" lon="-0.0342060">
        <ele>2732.4</ele>
        <time>2022-07-23T13:51:40Z</time>
      </trkpt>
      <trkpt lat="42.6910860" lon="-0.0342050">
        <ele>2732.4</ele>
        <time>2022-07-23T13:51:41Z</time>
      </trkpt>
      <trkpt lat="42.6910840" lon="-0.0342030">
        <ele>2732.4</ele>
        <time>2022-07-23T13:51:42Z</time>
      </trkpt>
      <trkpt lat="42.6910820" lon="-0.0341990">
        <ele>2732.6</ele>
        <time>2022-07-23T13:51:43Z</time>
      </trkpt>
      <trkpt lat="42.6910720" lon="-0.0341920">
        <ele>2732.4</ele>
        <time>2022-07-23T13:51:45Z</time>
      </trkpt>
      <trkpt lat="42.6910560" lon="-0.0341560">
        <ele>2733.0</ele>
        <time>2022-07-23T13:51:52Z</time>
      </trkpt>
      <trkpt lat="42.6910460" lon="-0.0341530">
        <ele>2733.4</ele>
        <time>2022-07-23T13:51:54Z</time>
      </trkpt>
      <trkpt lat="42.6910420" lon="-0.0341520">
        <ele>2733.2</ele>
        <time>2022-07-23T13:51:55Z</time>
      </trkpt>
      <trkpt lat="42.6910340" lon="-0.0341470">
        <ele>2733.8</ele>
        <time>2022-07-23T13:51:59Z</time>
      </trkpt>
      <trkpt lat="42.6910350" lon="-0.0341490">
        <ele>2733.8</ele>
        <time>2022-07-23T13:52:00Z</time>
      </trkpt>
      <trkpt lat="42.6910470" lon="-0.0341790">
        <ele>2734.2</ele>
        <time>2022-07-23T13:52:07Z</time>
      </trkpt>
      <trkpt lat="42.6910430" lon="-0.0341700">
        <ele>2734.2</ele>
        <time>2022-07-23T13:52:09Z</time>
      </trkpt>
      <trkpt lat="42.6910400" lon="-0.0341500">
        <ele>2734.6</ele>
        <time>2022-07-23T13:52:12Z</time>
      </trkpt>
      <trkpt lat="42.6910380" lon="-0.0341460">
        <ele>2734.6</ele>
        <time>2022-07-23T13:52:13Z</time>
      </trkpt>
      <trkpt lat="42.6910360" lon="-0.0341410">
        <ele>2734.6</ele>
        <time>2022-07-23T13:52:14Z</time>
      </trkpt>
      <trkpt lat="42.6910260" lon="-0.0341010">
        <ele>2734.2</ele>
        <time>2022-07-23T13:52:22Z</time>
      </trkpt>
      <trkpt lat="42.6910210" lon="-0.0340890">
        <ele>2734.0</ele>
        <time>2022-07-23T13:52:24Z</time>
      </trkpt>
      <trkpt lat="42.6910210" lon="-0.0340840">
        <ele>2733.8</ele>
        <time>2022-07-23T13:52:25Z</time>
      </trkpt>
      <trkpt lat="42.6910200" lon="-0.0340870">
        <ele>2733.8</ele>
        <time>2022-07-23T13:52:30Z</time>
      </trkpt>
      <trkpt lat="42.6910200" lon="-0.0340870">
        <ele>2733.8</ele>
        <time>2022-07-23T13:52:31Z</time>
      </trkpt>
      <trkpt lat="42.6910240" lon="-0.0341070">
        <ele>2734.4</ele>
        <time>2022-07-23T13:52:45Z</time>
      </trkpt>
      <trkpt lat="42.6910220" lon="-0.0341140">
        <ele>2734.6</ele>
        <time>2022-07-23T13:52:46Z</time>
      </trkpt>
      <trkpt lat="42.6910220" lon="-0.0341190">
        <ele>2734.6</ele>
        <time>2022-07-23T13:52:47Z</time>
      </trkpt>
      <trkpt lat="42.6910240" lon="-0.0341240">
        <ele>2734.8</ele>
        <time>2022-07-23T13:52:49Z</time>
      </trkpt>
      <trkpt lat="42.6910320" lon="-0.0341450">
        <ele>2734.8</ele>
        <time>2022-07-23T13:52:54Z</time>
      </trkpt>
      <trkpt lat="42.6910400" lon="-0.0341650">
        <ele>2735.2</ele>
        <time>2022-07-23T13:52:57Z</time>
      </trkpt>
      <trkpt lat="42.6910480" lon="-0.0341770">
        <ele>2735.2</ele>
        <time>2022-07-23T13:53:00Z</time>
      </trkpt>
      <trkpt lat="42.6910510" lon="-0.0342030">
        <ele>2735.6</ele>
        <time>2022-07-23T13:53:04Z</time>
      </trkpt>
      <trkpt lat="42.6910490" lon="-0.0342180">
        <ele>2735.8</ele>
        <time>2022-07-23T13:53:06Z</time>
      </trkpt>
      <trkpt lat="42.6910460" lon="-0.0342270">
        <ele>2735.8</ele>
        <time>2022-07-23T13:53:07Z</time>
      </trkpt>
      <trkpt lat="42.6910440" lon="-0.0342520">
        <ele>2736.0</ele>
        <time>2022-07-23T13:53:10Z</time>
      </trkpt>
      <trkpt lat="42.6910440" lon="-0.0342600">
        <ele>2736.0</ele>
        <time>2022-07-23T13:53:11Z</time>
      </trkpt>
      <trkpt lat="42.6910440" lon="-0.0342680">
        <ele>2736.2</ele>
        <time>2022-07-23T13:53:12Z</time>
      </trkpt>
      <trkpt lat="42.6910430" lon="-0.0342740">
        <ele>2736.2</ele>
        <time>2022-07-23T13:53:13Z</time>
      </trkpt>
      <trkpt lat="42.6910460" lon="-0.0343050">
        <ele>2736.2</ele>
        <time>2022-07-23T13:53:17Z</time>
      </trkpt>
      <trkpt lat="42.6910490" lon="-0.0343080">
        <ele>2736.2</ele>
        <time>2022-07-23T13:53:18Z</time>
      </trkpt>
      <trkpt lat="42.6910490" lon="-0.0343110">
        <ele>2736.6</ele>
        <time>2022-07-23T13:53:19Z</time>
      </trkpt>
      <trkpt lat="42.6910540" lon="-0.0342930">
        <ele>2736.6</ele>
        <time>2022-07-23T13:53:20Z</time>
      </trkpt>
      <trkpt lat="42.6910610" lon="-0.0342840">
        <ele>2736.8</ele>
        <time>2022-07-23T13:53:22Z</time>
      </trkpt>
      <trkpt lat="42.6910640" lon="-0.0342750">
        <ele>2737.2</ele>
        <time>2022-07-23T13:53:23Z</time>
      </trkpt>
      <trkpt lat="42.6910690" lon="-0.0342830">
        <ele>2737.2</ele>
        <time>2022-07-23T13:53:24Z</time>
      </trkpt>
      <trkpt lat="42.6910710" lon="-0.0343100">
        <ele>2737.2</ele>
        <time>2022-07-23T13:53:27Z</time>
      </trkpt>
      <trkpt lat="42.6910700" lon="-0.0343190">
        <ele>2737.4</ele>
        <time>2022-07-23T13:53:28Z</time>
      </trkpt>
      <trkpt lat="42.6910700" lon="-0.0343290">
        <ele>2737.4</ele>
        <time>2022-07-23T13:53:29Z</time>
      </trkpt>
      <trkpt lat="42.6910650" lon="-0.0343590">
        <ele>2737.4</ele>
        <time>2022-07-23T13:53:31Z</time>
      </trkpt>
      <trkpt lat="42.6910540" lon="-0.0343970">
        <ele>2737.0</ele>
        <time>2022-07-23T13:53:34Z</time>
      </trkpt>
      <trkpt lat="42.6910390" lon="-0.0344310">
        <ele>2736.4</ele>
        <time>2022-07-23T13:53:39Z</time>
      </trkpt>
      <trkpt lat="42.6910360" lon="-0.0344700">
        <ele>2736.2</ele>
        <time>2022-07-23T13:53:41Z</time>
      </trkpt>
      <trkpt lat="42.6910200" lon="-0.0345070">
        <ele>2735.6</ele>
        <time>2022-07-23T13:53:44Z</time>
      </trkpt>
      <trkpt lat="42.6909990" lon="-0.0345380">
        <ele>2735.4</ele>
        <time>2022-07-23T13:53:47Z</time>
      </trkpt>
      <trkpt lat="42.6909970" lon="-0.0345410">
        <ele>2735.2</ele>
        <time>2022-07-23T13:53:48Z</time>
      </trkpt>
      <trkpt lat="42.6909930" lon="-0.0345500">
        <ele>2734.4</ele>
        <time>2022-07-23T13:53:51Z</time>
      </trkpt>
      <trkpt lat="42.6909930" lon="-0.0345940">
        <ele>2733.8</ele>
        <time>2022-07-23T13:53:55Z</time>
      </trkpt>
      <trkpt lat="42.6909760" lon="-0.0346650">
        <ele>2733.2</ele>
        <time>2022-07-23T13:54:02Z</time>
      </trkpt>
      <trkpt lat="42.6909850" lon="-0.0346790">
        <ele>2733.0</ele>
        <time>2022-07-23T13:54:03Z</time>
      </trkpt>
      <trkpt lat="42.6909870" lon="-0.0346980">
        <ele>2732.8</ele>
        <time>2022-07-23T13:54:05Z</time>
      </trkpt>
      <trkpt lat="42.6909820" lon="-0.0347060">
        <ele>2732.8</ele>
        <time>2022-07-23T13:54:06Z</time>
      </trkpt>
      <trkpt lat="42.6909820" lon="-0.0347150">
        <ele>2732.6</ele>
        <time>2022-07-23T13:54:07Z</time>
      </trkpt>
      <trkpt lat="42.6909820" lon="-0.0347350">
        <ele>2732.6</ele>
        <time>2022-07-23T13:54:09Z</time>
      </trkpt>
      <trkpt lat="42.6909780" lon="-0.0347450">
        <ele>2732.6</ele>
        <time>2022-07-23T13:54:10Z</time>
      </trkpt>
      <trkpt lat="42.6909620" lon="-0.0347550">
        <ele>2732.8</ele>
        <time>2022-07-23T13:54:12Z</time>
      </trkpt>
      <trkpt lat="42.6909560" lon="-0.0348030">
        <ele>2732.2</ele>
        <time>2022-07-23T13:54:17Z</time>
      </trkpt>
      <trkpt lat="42.6909230" lon="-0.0349180">
        <ele>2731.6</ele>
        <time>2022-07-23T13:54:28Z</time>
      </trkpt>
      <trkpt lat="42.6909160" lon="-0.0350350">
        <ele>2730.8</ele>
        <time>2022-07-23T13:54:40Z</time>
      </trkpt>
      <trkpt lat="42.6909140" lon="-0.0350430">
        <ele>2730.8</ele>
        <time>2022-07-23T13:54:41Z</time>
      </trkpt>
      <trkpt lat="42.6909030" lon="-0.0351160">
        <ele>2731.2</ele>
        <time>2022-07-23T13:54:49Z</time>
      </trkpt>
      <trkpt lat="42.6909050" lon="-0.0351280">
        <ele>2732.0</ele>
        <time>2022-07-23T13:54:51Z</time>
      </trkpt>
      <trkpt lat="42.6909080" lon="-0.0351360">
        <ele>2732.0</ele>
        <time>2022-07-23T13:54:52Z</time>
      </trkpt>
      <trkpt lat="42.6909290" lon="-0.0351570">
        <ele>2732.4</ele>
        <time>2022-07-23T13:54:55Z</time>
      </trkpt>
      <trkpt lat="42.6909270" lon="-0.0351730">
        <ele>2732.8</ele>
        <time>2022-07-23T13:54:57Z</time>
      </trkpt>
      <trkpt lat="42.6909410" lon="-0.0351880">
        <ele>2733.8</ele>
        <time>2022-07-23T13:55:00Z</time>
      </trkpt>
      <trkpt lat="42.6909440" lon="-0.0352030">
        <ele>2734.0</ele>
        <time>2022-07-23T13:55:02Z</time>
      </trkpt>
      <trkpt lat="42.6909480" lon="-0.0352440">
        <ele>2734.8</ele>
        <time>2022-07-23T13:55:06Z</time>
      </trkpt>
      <trkpt lat="42.6909550" lon="-0.0352640">
        <ele>2735.0</ele>
        <time>2022-07-23T13:55:08Z</time>
      </trkpt>
      <trkpt lat="42.6909590" lon="-0.0352730">
        <ele>2735.0</ele>
        <time>2022-07-23T13:55:09Z</time>
      </trkpt>
      <trkpt lat="42.6909730" lon="-0.0353210">
        <ele>2735.4</ele>
        <time>2022-07-23T13:55:14Z</time>
      </trkpt>
      <trkpt lat="42.6909700" lon="-0.0353420">
        <ele>2736.0</ele>
        <time>2022-07-23T13:55:16Z</time>
      </trkpt>
      <trkpt lat="42.6909620" lon="-0.0353630">
        <ele>2736.4</ele>
        <time>2022-07-23T13:55:18Z</time>
      </trkpt>
      <trkpt lat="42.6909530" lon="-0.0354070">
        <ele>2736.8</ele>
        <time>2022-07-23T13:55:21Z</time>
      </trkpt>
      <trkpt lat="42.6909470" lon="-0.0354270">
        <ele>2736.8</ele>
        <time>2022-07-23T13:55:23Z</time>
      </trkpt>
      <trkpt lat="42.6909450" lon="-0.0354380">
        <ele>2737.0</ele>
        <time>2022-07-23T13:55:24Z</time>
      </trkpt>
      <trkpt lat="42.6909380" lon="-0.0354500">
        <ele>2737.0</ele>
        <time>2022-07-23T13:55:25Z</time>
      </trkpt>
      <trkpt lat="42.6909220" lon="-0.0354560">
        <ele>2737.0</ele>
        <time>2022-07-23T13:55:26Z</time>
      </trkpt>
      <trkpt lat="42.6908960" lon="-0.0354770">
        <ele>2737.6</ele>
        <time>2022-07-23T13:55:30Z</time>
      </trkpt>
      <trkpt lat="42.6908960" lon="-0.0354830">
        <ele>2738.0</ele>
        <time>2022-07-23T13:55:31Z</time>
      </trkpt>
      <trkpt lat="42.6909050" lon="-0.0354960">
        <ele>2738.0</ele>
        <time>2022-07-23T13:55:33Z</time>
      </trkpt>
      <trkpt lat="42.6909170" lon="-0.0355090">
        <ele>2738.0</ele>
        <time>2022-07-23T13:55:34Z</time>
      </trkpt>
      <trkpt lat="42.6909120" lon="-0.0355380">
        <ele>2738.4</ele>
        <time>2022-07-23T13:55:40Z</time>
      </trkpt>
      <trkpt lat="42.6909040" lon="-0.0355430">
        <ele>2738.6</ele>
        <time>2022-07-23T13:55:41Z</time>
      </trkpt>
      <trkpt lat="42.6908920" lon="-0.0355590">
        <ele>2738.6</ele>
        <time>2022-07-23T13:55:44Z</time>
      </trkpt>
      <trkpt lat="42.6908840" lon="-0.0355640">
        <ele>2738.8</ele>
        <time>2022-07-23T13:55:45Z</time>
      </trkpt>
      <trkpt lat="42.6908670" lon="-0.0356000">
        <ele>2738.8</ele>
        <time>2022-07-23T13:55:49Z</time>
      </trkpt>
      <trkpt lat="42.6908350" lon="-0.0356640">
        <ele>2738.8</ele>
        <time>2022-07-23T13:55:54Z</time>
      </trkpt>
      <trkpt lat="42.6908130" lon="-0.0357060">
        <ele>2738.4</ele>
        <time>2022-07-23T13:55:57Z</time>
      </trkpt>
      <trkpt lat="42.6908010" lon="-0.0357210">
        <ele>2738.2</ele>
        <time>2022-07-23T13:55:58Z</time>
      </trkpt>
      <trkpt lat="42.6907850" lon="-0.0357460">
        <ele>2738.2</ele>
        <time>2022-07-23T13:56:00Z</time>
      </trkpt>
      <trkpt lat="42.6907380" lon="-0.0358330">
        <ele>2737.4</ele>
        <time>2022-07-23T13:56:06Z</time>
      </trkpt>
      <trkpt lat="42.6907260" lon="-0.0359260">
        <ele>2736.8</ele>
        <time>2022-07-23T13:56:12Z</time>
      </trkpt>
      <trkpt lat="42.6907490" lon="-0.0361190">
        <ele>2736.2</ele>
        <time>2022-07-23T13:56:24Z</time>
      </trkpt>
      <trkpt lat="42.6907650" lon="-0.0363030">
        <ele>2736.0</ele>
        <time>2022-07-23T13:56:37Z</time>
      </trkpt>
      <trkpt lat="42.6907620" lon="-0.0363320">
        <ele>2736.0</ele>
        <time>2022-07-23T13:56:39Z</time>
      </trkpt>
      <trkpt lat="42.6907610" lon="-0.0363840">
        <ele>2735.8</ele>
        <time>2022-07-23T13:56:42Z</time>
      </trkpt>
      <trkpt lat="42.6907480" lon="-0.0364340">
        <ele>2735.8</ele>
        <time>2022-07-23T13:56:46Z</time>
      </trkpt>
      <trkpt lat="42.6907150" lon="-0.0364320">
        <ele>2735.2</ele>
        <time>2022-07-23T13:56:50Z</time>
      </trkpt>
      <trkpt lat="42.6906660" lon="-0.0364090">
        <ele>2734.8</ele>
        <time>2022-07-23T13:56:56Z</time>
      </trkpt>
      <trkpt lat="42.6906670" lon="-0.0363940">
        <ele>2734.6</ele>
        <time>2022-07-23T13:57:03Z</time>
      </trkpt>
      <trkpt lat="42.6906370" lon="-0.0363900">
        <ele>2734.8</ele>
        <time>2022-07-23T13:57:20Z</time>
      </trkpt>
      <trkpt lat="42.6906320" lon="-0.0364410">
        <ele>2734.8</ele>
        <time>2022-07-23T13:57:26Z</time>
      </trkpt>
      <trkpt lat="42.6906330" lon="-0.0364890">
        <ele>2735.0</ele>
        <time>2022-07-23T13:57:29Z</time>
      </trkpt>
      <trkpt lat="42.6906280" lon="-0.0365040">
        <ele>2735.0</ele>
        <time>2022-07-23T13:57:30Z</time>
      </trkpt>
      <trkpt lat="42.6906270" lon="-0.0365170">
        <ele>2734.8</ele>
        <time>2022-07-23T13:57:31Z</time>
      </trkpt>
      <trkpt lat="42.6906280" lon="-0.0365520">
        <ele>2735.0</ele>
        <time>2022-07-23T13:57:34Z</time>
      </trkpt>
      <trkpt lat="42.6906250" lon="-0.0365780">
        <ele>2735.0</ele>
        <time>2022-07-23T13:57:36Z</time>
      </trkpt>
      <trkpt lat="42.6906240" lon="-0.0366410">
        <ele>2735.2</ele>
        <time>2022-07-23T13:57:41Z</time>
      </trkpt>
      <trkpt lat="42.6906200" lon="-0.0366880">
        <ele>2735.4</ele>
        <time>2022-07-23T13:57:45Z</time>
      </trkpt>
      <trkpt lat="42.6906120" lon="-0.0367170">
        <ele>2735.4</ele>
        <time>2022-07-23T13:57:47Z</time>
      </trkpt>
      <trkpt lat="42.6905900" lon="-0.0367540">
        <ele>2735.2</ele>
        <time>2022-07-23T13:57:50Z</time>
      </trkpt>
      <trkpt lat="42.6906090" lon="-0.0367710">
        <ele>2735.2</ele>
        <time>2022-07-23T13:57:54Z</time>
      </trkpt>
      <trkpt lat="42.6906100" lon="-0.0367760">
        <ele>2735.0</ele>
        <time>2022-07-23T13:57:55Z</time>
      </trkpt>
      <trkpt lat="42.6906040" lon="-0.0367720">
        <ele>2735.0</ele>
        <time>2022-07-23T13:57:56Z</time>
      </trkpt>
      <trkpt lat="42.6906040" lon="-0.0367400">
        <ele>2734.2</ele>
        <time>2022-07-23T13:58:05Z</time>
      </trkpt>
      <trkpt lat="42.6905980" lon="-0.0367520">
        <ele>2734.0</ele>
        <time>2022-07-23T13:58:19Z</time>
      </trkpt>
      <trkpt lat="42.6905920" lon="-0.0367800">
        <ele>2734.2</ele>
        <time>2022-07-23T13:58:23Z</time>
      </trkpt>
      <trkpt lat="42.6906060" lon="-0.0368270">
        <ele>2734.4</ele>
        <time>2022-07-23T13:58:30Z</time>
      </trkpt>
      <trkpt lat="42.6906170" lon="-0.0368620">
        <ele>2735.0</ele>
        <time>2022-07-23T13:58:35Z</time>
      </trkpt>
      <trkpt lat="42.6906350" lon="-0.0369000">
        <ele>2735.6</ele>
        <time>2022-07-23T13:58:40Z</time>
      </trkpt>
      <trkpt lat="42.6906380" lon="-0.0369450">
        <ele>2737.2</ele>
        <time>2022-07-23T13:58:47Z</time>
      </trkpt>
      <trkpt lat="42.6906660" lon="-0.0369880">
        <ele>2739.4</ele>
        <time>2022-07-23T13:58:56Z</time>
      </trkpt>
      <trkpt lat="42.6906660" lon="-0.0369880">
        <ele>2739.4</ele>
        <time>2022-07-23T13:58:57Z</time>
      </trkpt>
      <trkpt lat="42.6906560" lon="-0.0369920">
        <ele>2739.8</ele>
        <time>2022-07-23T13:59:00Z</time>
      </trkpt>
      <trkpt lat="42.6906540" lon="-0.0369900">
        <ele>2740.0</ele>
        <time>2022-07-23T13:59:02Z</time>
      </trkpt>
      <trkpt lat="42.6906600" lon="-0.0369920">
        <ele>2740.6</ele>
        <time>2022-07-23T13:59:06Z</time>
      </trkpt>
      <trkpt lat="42.6906600" lon="-0.0369970">
        <ele>2740.8</ele>
        <time>2022-07-23T13:59:07Z</time>
      </trkpt>
      <trkpt lat="42.6906690" lon="-0.0370090">
        <ele>2741.2</ele>
        <time>2022-07-23T13:59:09Z</time>
      </trkpt>
      <trkpt lat="42.6906690" lon="-0.0370130">
        <ele>2741.2</ele>
        <time>2022-07-23T13:59:10Z</time>
      </trkpt>
      <trkpt lat="42.6906830" lon="-0.0370310">
        <ele>2741.4</ele>
        <time>2022-07-23T13:59:14Z</time>
      </trkpt>
      <trkpt lat="42.6907000" lon="-0.0370820">
        <ele>2742.4</ele>
        <time>2022-07-23T13:59:20Z</time>
      </trkpt>
      <trkpt lat="42.6907150" lon="-0.0371040">
        <ele>2742.6</ele>
        <time>2022-07-23T13:59:22Z</time>
      </trkpt>
      <trkpt lat="42.6907220" lon="-0.0371240">
        <ele>2742.8</ele>
        <time>2022-07-23T13:59:24Z</time>
      </trkpt>
      <trkpt lat="42.6907270" lon="-0.0371380">
        <ele>2742.8</ele>
        <time>2022-07-23T13:59:26Z</time>
      </trkpt>
      <trkpt lat="42.6907300" lon="-0.0371530">
        <ele>2743.2</ele>
        <time>2022-07-23T13:59:28Z</time>
      </trkpt>
      <trkpt lat="42.6907390" lon="-0.0372070">
        <ele>2744.4</ele>
        <time>2022-07-23T13:59:37Z</time>
      </trkpt>
      <trkpt lat="42.6907320" lon="-0.0372020">
        <ele>2744.6</ele>
        <time>2022-07-23T13:59:38Z</time>
      </trkpt>
      <trkpt lat="42.6907270" lon="-0.0371990">
        <ele>2744.8</ele>
        <time>2022-07-23T13:59:39Z</time>
      </trkpt>
      <trkpt lat="42.6907200" lon="-0.0371910">
        <ele>2745.2</ele>
        <time>2022-07-23T13:59:43Z</time>
      </trkpt>
      <trkpt lat="42.6907230" lon="-0.0371950">
        <ele>2745.2</ele>
        <time>2022-07-23T13:59:44Z</time>
      </trkpt>
      <trkpt lat="42.6907260" lon="-0.0372030">
        <ele>2745.4</ele>
        <time>2022-07-23T13:59:46Z</time>
      </trkpt>
      <trkpt lat="42.6907360" lon="-0.0372030">
        <ele>2745.8</ele>
        <time>2022-07-23T13:59:48Z</time>
      </trkpt>
      <trkpt lat="42.6907430" lon="-0.0372060">
        <ele>2746.0</ele>
        <time>2022-07-23T13:59:50Z</time>
      </trkpt>
      <trkpt lat="42.6907440" lon="-0.0372060">
        <ele>2746.0</ele>
        <time>2022-07-23T13:59:51Z</time>
      </trkpt>
      <trkpt lat="42.6907440" lon="-0.0372090">
        <ele>2746.2</ele>
        <time>2022-07-23T13:59:53Z</time>
      </trkpt>
      <trkpt lat="42.6907470" lon="-0.0372130">
        <ele>2746.6</ele>
        <time>2022-07-23T13:59:54Z</time>
      </trkpt>
      <trkpt lat="42.6907490" lon="-0.0372440">
        <ele>2748.0</ele>
        <time>2022-07-23T14:00:03Z</time>
      </trkpt>
      <trkpt lat="42.6907350" lon="-0.0372510">
        <ele>2748.4</ele>
        <time>2022-07-23T14:00:05Z</time>
      </trkpt>
      <trkpt lat="42.6907260" lon="-0.0372520">
        <ele>2748.4</ele>
        <time>2022-07-23T14:00:06Z</time>
      </trkpt>
      <trkpt lat="42.6907240" lon="-0.0372590">
        <ele>2748.4</ele>
        <time>2022-07-23T14:00:07Z</time>
      </trkpt>
      <trkpt lat="42.6907220" lon="-0.0372750">
        <ele>2748.8</ele>
        <time>2022-07-23T14:00:09Z</time>
      </trkpt>
      <trkpt lat="42.6906860" lon="-0.0373280">
        <ele>2749.2</ele>
        <time>2022-07-23T14:00:18Z</time>
      </trkpt>
      <trkpt lat="42.6906860" lon="-0.0373330">
        <ele>2749.4</ele>
        <time>2022-07-23T14:00:19Z</time>
      </trkpt>
      <trkpt lat="42.6906830" lon="-0.0373380">
        <ele>2749.4</ele>
        <time>2022-07-23T14:00:20Z</time>
      </trkpt>
      <trkpt lat="42.6906820" lon="-0.0373560">
        <ele>2749.4</ele>
        <time>2022-07-23T14:00:23Z</time>
      </trkpt>
      <trkpt lat="42.6906790" lon="-0.0373620">
        <ele>2749.4</ele>
        <time>2022-07-23T14:00:24Z</time>
      </trkpt>
      <trkpt lat="42.6906990" lon="-0.0374000">
        <ele>2749.6</ele>
        <time>2022-07-23T14:00:31Z</time>
      </trkpt>
      <trkpt lat="42.6907020" lon="-0.0374110">
        <ele>2750.0</ele>
        <time>2022-07-23T14:00:33Z</time>
      </trkpt>
      <trkpt lat="42.6907010" lon="-0.0374220">
        <ele>2750.0</ele>
        <time>2022-07-23T14:00:34Z</time>
      </trkpt>
      <trkpt lat="42.6907030" lon="-0.0374310">
        <ele>2750.4</ele>
        <time>2022-07-23T14:00:35Z</time>
      </trkpt>
      <trkpt lat="42.6907060" lon="-0.0374410">
        <ele>2750.8</ele>
        <time>2022-07-23T14:00:36Z</time>
      </trkpt>
      <trkpt lat="42.6907110" lon="-0.0374520">
        <ele>2750.8</ele>
        <time>2022-07-23T14:00:37Z</time>
      </trkpt>
      <trkpt lat="42.6907130" lon="-0.0374810">
        <ele>2751.4</ele>
        <time>2022-07-23T14:00:39Z</time>
      </trkpt>
      <trkpt lat="42.6907360" lon="-0.0375240">
        <ele>2751.6</ele>
        <time>2022-07-23T14:00:42Z</time>
      </trkpt>
      <trkpt lat="42.6907410" lon="-0.0375340">
        <ele>2751.8</ele>
        <time>2022-07-23T14:00:43Z</time>
      </trkpt>
      <trkpt lat="42.6907460" lon="-0.0375430">
        <ele>2752.0</ele>
        <time>2022-07-23T14:00:44Z</time>
      </trkpt>
      <trkpt lat="42.6907500" lon="-0.0375500">
        <ele>2752.2</ele>
        <time>2022-07-23T14:00:45Z</time>
      </trkpt>
      <trkpt lat="42.6907550" lon="-0.0375580">
        <ele>2752.2</ele>
        <time>2022-07-23T14:00:46Z</time>
      </trkpt>
      <trkpt lat="42.6907580" lon="-0.0375680">
        <ele>2752.4</ele>
        <time>2022-07-23T14:00:48Z</time>
      </trkpt>
      <trkpt lat="42.6907550" lon="-0.0375800">
        <ele>2752.4</ele>
        <time>2022-07-23T14:00:49Z</time>
      </trkpt>
      <trkpt lat="42.6907560" lon="-0.0375900">
        <ele>2752.6</ele>
        <time>2022-07-23T14:00:50Z</time>
      </trkpt>
      <trkpt lat="42.6907610" lon="-0.0376020">
        <ele>2752.8</ele>
        <time>2022-07-23T14:00:51Z</time>
      </trkpt>
      <trkpt lat="42.6907720" lon="-0.0376600">
        <ele>2753.8</ele>
        <time>2022-07-23T14:00:57Z</time>
      </trkpt>
      <trkpt lat="42.6907660" lon="-0.0376950">
        <ele>2754.6</ele>
        <time>2022-07-23T14:01:00Z</time>
      </trkpt>
      <trkpt lat="42.6907810" lon="-0.0377430">
        <ele>2755.0</ele>
        <time>2022-07-23T14:01:04Z</time>
      </trkpt>
      <trkpt lat="42.6907810" lon="-0.0377570">
        <ele>2755.0</ele>
        <time>2022-07-23T14:01:05Z</time>
      </trkpt>
      <trkpt lat="42.6907780" lon="-0.0377730">
        <ele>2755.0</ele>
        <time>2022-07-23T14:01:06Z</time>
      </trkpt>
      <trkpt lat="42.6907730" lon="-0.0378010">
        <ele>2755.0</ele>
        <time>2022-07-23T14:01:08Z</time>
      </trkpt>
      <trkpt lat="42.6907700" lon="-0.0378120">
        <ele>2754.8</ele>
        <time>2022-07-23T14:01:09Z</time>
      </trkpt>
      <trkpt lat="42.6907640" lon="-0.0378350">
        <ele>2755.0</ele>
        <time>2022-07-23T14:01:11Z</time>
      </trkpt>
      <trkpt lat="42.6907610" lon="-0.0378460">
        <ele>2755.0</ele>
        <time>2022-07-23T14:01:12Z</time>
      </trkpt>
      <trkpt lat="42.6907510" lon="-0.0378650">
        <ele>2755.0</ele>
        <time>2022-07-23T14:01:14Z</time>
      </trkpt>
      <trkpt lat="42.6907520" lon="-0.0378810">
        <ele>2755.4</ele>
        <time>2022-07-23T14:01:16Z</time>
      </trkpt>
      <trkpt lat="42.6907450" lon="-0.0378920">
        <ele>2755.4</ele>
        <time>2022-07-23T14:01:17Z</time>
      </trkpt>
      <trkpt lat="42.6907420" lon="-0.0378990">
        <ele>2755.4</ele>
        <time>2022-07-23T14:01:18Z</time>
      </trkpt>
      <trkpt lat="42.6907380" lon="-0.0379050">
        <ele>2755.4</ele>
        <time>2022-07-23T14:01:19Z</time>
      </trkpt>
      <trkpt lat="42.6907460" lon="-0.0379150">
        <ele>2755.4</ele>
        <time>2022-07-23T14:01:21Z</time>
      </trkpt>
      <trkpt lat="42.6907480" lon="-0.0379290">
        <ele>2755.6</ele>
        <time>2022-07-23T14:01:23Z</time>
      </trkpt>
      <trkpt lat="42.6907470" lon="-0.0379350">
        <ele>2755.6</ele>
        <time>2022-07-23T14:01:24Z</time>
      </trkpt>
      <trkpt lat="42.6907460" lon="-0.0379430">
        <ele>2755.8</ele>
        <time>2022-07-23T14:01:25Z</time>
      </trkpt>
      <trkpt lat="42.6907450" lon="-0.0379450">
        <ele>2756.0</ele>
        <time>2022-07-23T14:01:26Z</time>
      </trkpt>
      <trkpt lat="42.6907470" lon="-0.0379620">
        <ele>2756.6</ele>
        <time>2022-07-23T14:01:30Z</time>
      </trkpt>
      <trkpt lat="42.6907370" lon="-0.0379780">
        <ele>2756.8</ele>
        <time>2022-07-23T14:01:33Z</time>
      </trkpt>
      <trkpt lat="42.6907370" lon="-0.0379750">
        <ele>2756.8</ele>
        <time>2022-07-23T14:01:34Z</time>
      </trkpt>
      <trkpt lat="42.6907390" lon="-0.0379770">
        <ele>2757.0</ele>
        <time>2022-07-23T14:01:37Z</time>
      </trkpt>
      <trkpt lat="42.6907430" lon="-0.0379780">
        <ele>2757.0</ele>
        <time>2022-07-23T14:01:38Z</time>
      </trkpt>
      <trkpt lat="42.6907550" lon="-0.0379900">
        <ele>2757.6</ele>
        <time>2022-07-23T14:01:40Z</time>
      </trkpt>
      <trkpt lat="42.6907620" lon="-0.0380050">
        <ele>2758.0</ele>
        <time>2022-07-23T14:01:43Z</time>
      </trkpt>
      <trkpt lat="42.6907670" lon="-0.0380050">
        <ele>2758.2</ele>
        <time>2022-07-23T14:01:44Z</time>
      </trkpt>
      <trkpt lat="42.6907670" lon="-0.0380040">
        <ele>2758.0</ele>
        <time>2022-07-23T14:01:45Z</time>
      </trkpt>
      <trkpt lat="42.6907620" lon="-0.0380090">
        <ele>2758.2</ele>
        <time>2022-07-23T14:01:46Z</time>
      </trkpt>
      <trkpt lat="42.6907590" lon="-0.0380160">
        <ele>2758.2</ele>
        <time>2022-07-23T14:01:47Z</time>
      </trkpt>
      <trkpt lat="42.6907480" lon="-0.0380480">
        <ele>2758.2</ele>
        <time>2022-07-23T14:01:51Z</time>
      </trkpt>
      <trkpt lat="42.6907450" lon="-0.0380600">
        <ele>2758.0</ele>
        <time>2022-07-23T14:01:52Z</time>
      </trkpt>
      <trkpt lat="42.6907000" lon="-0.0382410">
        <ele>2755.4</ele>
        <time>2022-07-23T14:02:02Z</time>
      </trkpt>
      <trkpt lat="42.6906820" lon="-0.0382790">
        <ele>2755.2</ele>
        <time>2022-07-23T14:02:04Z</time>
      </trkpt>
      <trkpt lat="42.6906750" lon="-0.0382960">
        <ele>2755.2</ele>
        <time>2022-07-23T14:02:05Z</time>
      </trkpt>
      <trkpt lat="42.6906410" lon="-0.0383480">
        <ele>2754.6</ele>
        <time>2022-07-23T14:02:09Z</time>
      </trkpt>
      <trkpt lat="42.6905980" lon="-0.0384850">
        <ele>2753.8</ele>
        <time>2022-07-23T14:02:18Z</time>
      </trkpt>
      <trkpt lat="42.6905860" lon="-0.0385710">
        <ele>2753.6</ele>
        <time>2022-07-23T14:02:25Z</time>
      </trkpt>
      <trkpt lat="42.6905920" lon="-0.0386260">
        <ele>2754.0</ele>
        <time>2022-07-23T14:02:30Z</time>
      </trkpt>
      <trkpt lat="42.6905950" lon="-0.0386370">
        <ele>2754.2</ele>
        <time>2022-07-23T14:02:31Z</time>
      </trkpt>
      <trkpt lat="42.6906060" lon="-0.0386880">
        <ele>2755.0</ele>
        <time>2022-07-23T14:02:37Z</time>
      </trkpt>
      <trkpt lat="42.6906090" lon="-0.0386960">
        <ele>2755.2</ele>
        <time>2022-07-23T14:02:38Z</time>
      </trkpt>
      <trkpt lat="42.6906130" lon="-0.0387110">
        <ele>2755.4</ele>
        <time>2022-07-23T14:02:40Z</time>
      </trkpt>
      <trkpt lat="42.6906170" lon="-0.0387200">
        <ele>2755.6</ele>
        <time>2022-07-23T14:02:41Z</time>
      </trkpt>
      <trkpt lat="42.6906190" lon="-0.0387380">
        <ele>2755.8</ele>
        <time>2022-07-23T14:02:42Z</time>
      </trkpt>
      <trkpt lat="42.6906140" lon="-0.0387940">
        <ele>2756.6</ele>
        <time>2022-07-23T14:02:47Z</time>
      </trkpt>
      <trkpt lat="42.6906180" lon="-0.0388290">
        <ele>2757.6</ele>
        <time>2022-07-23T14:02:50Z</time>
      </trkpt>
      <trkpt lat="42.6906220" lon="-0.0388580">
        <ele>2758.2</ele>
        <time>2022-07-23T14:02:53Z</time>
      </trkpt>
      <trkpt lat="42.6906290" lon="-0.0389540">
        <ele>2759.6</ele>
        <time>2022-07-23T14:02:59Z</time>
      </trkpt>
      <trkpt lat="42.6906540" lon="-0.0390330">
        <ele>2760.8</ele>
        <time>2022-07-23T14:03:05Z</time>
      </trkpt>
      <trkpt lat="42.6906610" lon="-0.0390530">
        <ele>2761.0</ele>
        <time>2022-07-23T14:03:06Z</time>
      </trkpt>
      <trkpt lat="42.6907300" lon="-0.0391560">
        <ele>2761.4</ele>
        <time>2022-07-23T14:03:12Z</time>
      </trkpt>
      <trkpt lat="42.6907680" lon="-0.0392190">
        <ele>2762.6</ele>
        <time>2022-07-23T14:03:16Z</time>
      </trkpt>
      <trkpt lat="42.6907840" lon="-0.0392580">
        <ele>2762.8</ele>
        <time>2022-07-23T14:03:18Z</time>
      </trkpt>
      <trkpt lat="42.6908120" lon="-0.0393050">
        <ele>2763.2</ele>
        <time>2022-07-23T14:03:21Z</time>
      </trkpt>
      <trkpt lat="42.6908230" lon="-0.0393200">
        <ele>2763.2</ele>
        <time>2022-07-23T14:03:22Z</time>
      </trkpt>
      <trkpt lat="42.6908470" lon="-0.0393630">
        <ele>2763.8</ele>
        <time>2022-07-23T14:03:25Z</time>
      </trkpt>
      <trkpt lat="42.6908500" lon="-0.0393790">
        <ele>2764.2</ele>
        <time>2022-07-23T14:03:27Z</time>
      </trkpt>
      <trkpt lat="42.6908470" lon="-0.0393850">
        <ele>2764.2</ele>
        <time>2022-07-23T14:03:28Z</time>
      </trkpt>
      <trkpt lat="42.6908460" lon="-0.0393900">
        <ele>2764.6</ele>
        <time>2022-07-23T14:03:29Z</time>
      </trkpt>
      <trkpt lat="42.6908090" lon="-0.0394160">
        <ele>2765.8</ele>
        <time>2022-07-23T14:03:36Z</time>
      </trkpt>
      <trkpt lat="42.6908110" lon="-0.0394450">
        <ele>2765.8</ele>
        <time>2022-07-23T14:03:37Z</time>
      </trkpt>
      <trkpt lat="42.6906890" lon="-0.0394280">
        <ele>2766.6</ele>
        <time>2022-07-23T14:03:44Z</time>
      </trkpt>
      <trkpt lat="42.6906810" lon="-0.0394170">
        <ele>2767.2</ele>
        <time>2022-07-23T14:03:48Z</time>
      </trkpt>
      <trkpt lat="42.6906690" lon="-0.0394080">
        <ele>2767.2</ele>
        <time>2022-07-23T14:03:49Z</time>
      </trkpt>
      <trkpt lat="42.6906470" lon="-0.0394110">
        <ele>2767.6</ele>
        <time>2022-07-23T14:03:53Z</time>
      </trkpt>
      <trkpt lat="42.6906530" lon="-0.0394220">
        <ele>2767.8</ele>
        <time>2022-07-23T14:03:55Z</time>
      </trkpt>
      <trkpt lat="42.6906850" lon="-0.0394770">
        <ele>2768.4</ele>
        <time>2022-07-23T14:04:02Z</time>
      </trkpt>
      <trkpt lat="42.6906850" lon="-0.0394840">
        <ele>2768.4</ele>
        <time>2022-07-23T14:04:03Z</time>
      </trkpt>
      <trkpt lat="42.6906820" lon="-0.0394890">
        <ele>2768.6</ele>
        <time>2022-07-23T14:04:04Z</time>
      </trkpt>
      <trkpt lat="42.6906930" lon="-0.0395260">
        <ele>2769.6</ele>
        <time>2022-07-23T14:04:08Z</time>
      </trkpt>
      <trkpt lat="42.6906930" lon="-0.0395330">
        <ele>2769.6</ele>
        <time>2022-07-23T14:04:09Z</time>
      </trkpt>
      <trkpt lat="42.6906910" lon="-0.0395490">
        <ele>2770.2</ele>
        <time>2022-07-23T14:04:11Z</time>
      </trkpt>
      <trkpt lat="42.6906900" lon="-0.0395580">
        <ele>2770.2</ele>
        <time>2022-07-23T14:04:12Z</time>
      </trkpt>
      <trkpt lat="42.6906850" lon="-0.0396010">
        <ele>2771.8</ele>
        <time>2022-07-23T14:04:16Z</time>
      </trkpt>
      <trkpt lat="42.6906810" lon="-0.0396290">
        <ele>2772.4</ele>
        <time>2022-07-23T14:04:19Z</time>
      </trkpt>
      <trkpt lat="42.6906930" lon="-0.0396650">
        <ele>2774.0</ele>
        <time>2022-07-23T14:04:26Z</time>
      </trkpt>
      <trkpt lat="42.6906990" lon="-0.0396830">
        <ele>2774.2</ele>
        <time>2022-07-23T14:04:29Z</time>
      </trkpt>
      <trkpt lat="42.6907050" lon="-0.0397000">
        <ele>2774.8</ele>
        <time>2022-07-23T14:04:32Z</time>
      </trkpt>
      <trkpt lat="42.6907150" lon="-0.0397060">
        <ele>2775.2</ele>
        <time>2022-07-23T14:04:34Z</time>
      </trkpt>
      <trkpt lat="42.6907260" lon="-0.0397080">
        <ele>2775.4</ele>
        <time>2022-07-23T14:04:36Z</time>
      </trkpt>
      <trkpt lat="42.6907320" lon="-0.0397180">
        <ele>2775.8</ele>
        <time>2022-07-23T14:04:38Z</time>
      </trkpt>
      <trkpt lat="42.6907340" lon="-0.0397230">
        <ele>2775.8</ele>
        <time>2022-07-23T14:04:39Z</time>
      </trkpt>
      <trkpt lat="42.6907380" lon="-0.0397360">
        <ele>2776.0</ele>
        <time>2022-07-23T14:04:41Z</time>
      </trkpt>
      <trkpt lat="42.6907400" lon="-0.0397430">
        <ele>2776.2</ele>
        <time>2022-07-23T14:04:42Z</time>
      </trkpt>
      <trkpt lat="42.6907390" lon="-0.0397470">
        <ele>2776.0</ele>
        <time>2022-07-23T14:04:43Z</time>
      </trkpt>
      <trkpt lat="42.6907400" lon="-0.0397500">
        <ele>2776.6</ele>
        <time>2022-07-23T14:04:44Z</time>
      </trkpt>
      <trkpt lat="42.6907390" lon="-0.0397580">
        <ele>2776.8</ele>
        <time>2022-07-23T14:04:46Z</time>
      </trkpt>
      <trkpt lat="42.6907420" lon="-0.0397960">
        <ele>2778.6</ele>
        <time>2022-07-23T14:04:52Z</time>
      </trkpt>
      <trkpt lat="42.6907500" lon="-0.0398160">
        <ele>2779.0</ele>
        <time>2022-07-23T14:04:55Z</time>
      </trkpt>
      <trkpt lat="42.6907690" lon="-0.0398420">
        <ele>2779.8</ele>
        <time>2022-07-23T14:05:00Z</time>
      </trkpt>
      <trkpt lat="42.6907790" lon="-0.0398430">
        <ele>2780.0</ele>
        <time>2022-07-23T14:05:02Z</time>
      </trkpt>
      <trkpt lat="42.6907840" lon="-0.0398420">
        <ele>2780.0</ele>
        <time>2022-07-23T14:05:03Z</time>
      </trkpt>
      <trkpt lat="42.6907950" lon="-0.0398520">
        <ele>2780.8</ele>
        <time>2022-07-23T14:05:08Z</time>
      </trkpt>
      <trkpt lat="42.6907980" lon="-0.0398550">
        <ele>2781.0</ele>
        <time>2022-07-23T14:05:09Z</time>
      </trkpt>
      <trkpt lat="42.6907980" lon="-0.0399000">
        <ele>2782.2</ele>
        <time>2022-07-23T14:05:15Z</time>
      </trkpt>
      <trkpt lat="42.6907940" lon="-0.0399090">
        <ele>2782.4</ele>
        <time>2022-07-23T14:05:17Z</time>
      </trkpt>
      <trkpt lat="42.6907950" lon="-0.0399130">
        <ele>2782.6</ele>
        <time>2022-07-23T14:05:18Z</time>
      </trkpt>
      <trkpt lat="42.6908020" lon="-0.0399310">
        <ele>2783.0</ele>
        <time>2022-07-23T14:05:22Z</time>
      </trkpt>
      <trkpt lat="42.6908080" lon="-0.0399440">
        <ele>2783.4</ele>
        <time>2022-07-23T14:05:24Z</time>
      </trkpt>
      <trkpt lat="42.6907940" lon="-0.0400290">
        <ele>2785.6</ele>
        <time>2022-07-23T14:05:34Z</time>
      </trkpt>
      <trkpt lat="42.6907950" lon="-0.0400560">
        <ele>2786.6</ele>
        <time>2022-07-23T14:05:38Z</time>
      </trkpt>
      <trkpt lat="42.6907990" lon="-0.0400750">
        <ele>2787.4</ele>
        <time>2022-07-23T14:05:42Z</time>
      </trkpt>
      <trkpt lat="42.6908450" lon="-0.0400970">
        <ele>2788.4</ele>
        <time>2022-07-23T14:05:50Z</time>
      </trkpt>
      <trkpt lat="42.6908470" lon="-0.0401000">
        <ele>2788.4</ele>
        <time>2022-07-23T14:05:51Z</time>
      </trkpt>
      <trkpt lat="42.6908500" lon="-0.0401040">
        <ele>2788.6</ele>
        <time>2022-07-23T14:05:52Z</time>
      </trkpt>
      <trkpt lat="42.6908540" lon="-0.0401040">
        <ele>2788.8</ele>
        <time>2022-07-23T14:05:53Z</time>
      </trkpt>
      <trkpt lat="42.6908540" lon="-0.0401050">
        <ele>2789.0</ele>
        <time>2022-07-23T14:05:54Z</time>
      </trkpt>
      <trkpt lat="42.6908710" lon="-0.0401150">
        <ele>2789.4</ele>
        <time>2022-07-23T14:05:59Z</time>
      </trkpt>
      <trkpt lat="42.6908800" lon="-0.0401170">
        <ele>2790.0</ele>
        <time>2022-07-23T14:06:01Z</time>
      </trkpt>
      <trkpt lat="42.6908800" lon="-0.0401230">
        <ele>2790.0</ele>
        <time>2022-07-23T14:06:02Z</time>
      </trkpt>
      <trkpt lat="42.6908820" lon="-0.0401260">
        <ele>2790.4</ele>
        <time>2022-07-23T14:06:03Z</time>
      </trkpt>
      <trkpt lat="42.6908870" lon="-0.0401360">
        <ele>2790.4</ele>
        <time>2022-07-23T14:06:05Z</time>
      </trkpt>
      <trkpt lat="42.6908920" lon="-0.0401400">
        <ele>2790.4</ele>
        <time>2022-07-23T14:06:06Z</time>
      </trkpt>
      <trkpt lat="42.6908970" lon="-0.0401510">
        <ele>2790.8</ele>
        <time>2022-07-23T14:06:08Z</time>
      </trkpt>
      <trkpt lat="42.6908920" lon="-0.0401480">
        <ele>2790.8</ele>
        <time>2022-07-23T14:06:09Z</time>
      </trkpt>
      <trkpt lat="42.6908970" lon="-0.0401470">
        <ele>2791.0</ele>
        <time>2022-07-23T14:06:10Z</time>
      </trkpt>
      <trkpt lat="42.6909100" lon="-0.0401630">
        <ele>2791.0</ele>
        <time>2022-07-23T14:06:14Z</time>
      </trkpt>
      <trkpt lat="42.6909150" lon="-0.0401670">
        <ele>2791.2</ele>
        <time>2022-07-23T14:06:15Z</time>
      </trkpt>
      <trkpt lat="42.6909120" lon="-0.0401660">
        <ele>2791.4</ele>
        <time>2022-07-23T14:06:16Z</time>
      </trkpt>
      <trkpt lat="42.6909160" lon="-0.0401720">
        <ele>2791.8</ele>
        <time>2022-07-23T14:06:17Z</time>
      </trkpt>
      <trkpt lat="42.6909200" lon="-0.0401840">
        <ele>2792.6</ele>
        <time>2022-07-23T14:06:20Z</time>
      </trkpt>
      <trkpt lat="42.6909210" lon="-0.0401880">
        <ele>2792.6</ele>
        <time>2022-07-23T14:06:21Z</time>
      </trkpt>
      <trkpt lat="42.6909230" lon="-0.0401930">
        <ele>2792.8</ele>
        <time>2022-07-23T14:06:22Z</time>
      </trkpt>
      <trkpt lat="42.6909400" lon="-0.0402190">
        <ele>2793.2</ele>
        <time>2022-07-23T14:06:26Z</time>
      </trkpt>
      <trkpt lat="42.6909400" lon="-0.0402490">
        <ele>2793.0</ele>
        <time>2022-07-23T14:06:28Z</time>
      </trkpt>
      <trkpt lat="42.6909470" lon="-0.0402870">
        <ele>2793.2</ele>
        <time>2022-07-23T14:06:31Z</time>
      </trkpt>
      <trkpt lat="42.6909550" lon="-0.0403560">
        <ele>2793.8</ele>
        <time>2022-07-23T14:06:40Z</time>
      </trkpt>
      <trkpt lat="42.6909630" lon="-0.0403590">
        <ele>2794.0</ele>
        <time>2022-07-23T14:06:43Z</time>
      </trkpt>
      <trkpt lat="42.6910000" lon="-0.0404380">
        <ele>2795.0</ele>
        <time>2022-07-23T14:06:50Z</time>
      </trkpt>
      <trkpt lat="42.6910460" lon="-0.0405030">
        <ele>2795.8</ele>
        <time>2022-07-23T14:07:00Z</time>
      </trkpt>
      <trkpt lat="42.6910300" lon="-0.0404510">
        <ele>2796.0</ele>
        <time>2022-07-23T14:07:12Z</time>
      </trkpt>
      <trkpt lat="42.6910160" lon="-0.0404490">
        <ele>2796.2</ele>
        <time>2022-07-23T14:07:21Z</time>
      </trkpt>
      <trkpt lat="42.6910190" lon="-0.0404650">
        <ele>2796.0</ele>
        <time>2022-07-23T14:07:25Z</time>
      </trkpt>
      <trkpt lat="42.6910240" lon="-0.0404760">
        <ele>2796.2</ele>
        <time>2022-07-23T14:07:26Z</time>
      </trkpt>
      <trkpt lat="42.6910260" lon="-0.0404850">
        <ele>2796.0</ele>
        <time>2022-07-23T14:07:27Z</time>
      </trkpt>
      <trkpt lat="42.6910260" lon="-0.0404900">
        <ele>2796.0</ele>
        <time>2022-07-23T14:07:28Z</time>
      </trkpt>
      <trkpt lat="42.6910290" lon="-0.0404970">
        <ele>2796.0</ele>
        <time>2022-07-23T14:07:30Z</time>
      </trkpt>
      <trkpt lat="42.6910290" lon="-0.0405020">
        <ele>2796.2</ele>
        <time>2022-07-23T14:07:31Z</time>
      </trkpt>
      <trkpt lat="42.6910300" lon="-0.0405070">
        <ele>2796.2</ele>
        <time>2022-07-23T14:07:32Z</time>
      </trkpt>
      <trkpt lat="42.6910900" lon="-0.0405360">
        <ele>2798.0</ele>
        <time>2022-07-23T14:07:41Z</time>
      </trkpt>
      <trkpt lat="42.6911060" lon="-0.0405440">
        <ele>2798.4</ele>
        <time>2022-07-23T14:07:44Z</time>
      </trkpt>
      <trkpt lat="42.6911480" lon="-0.0405810">
        <ele>2799.2</ele>
        <time>2022-07-23T14:07:51Z</time>
      </trkpt>
      <trkpt lat="42.6911690" lon="-0.0406000">
        <ele>2799.4</ele>
        <time>2022-07-23T14:07:55Z</time>
      </trkpt>
      <trkpt lat="42.6911710" lon="-0.0406010">
        <ele>2799.6</ele>
        <time>2022-07-23T14:07:56Z</time>
      </trkpt>
      <trkpt lat="42.6911790" lon="-0.0406070">
        <ele>2800.0</ele>
        <time>2022-07-23T14:07:58Z</time>
      </trkpt>
      <trkpt lat="42.6911930" lon="-0.0406240">
        <ele>2800.8</ele>
        <time>2022-07-23T14:08:03Z</time>
      </trkpt>
      <trkpt lat="42.6912240" lon="-0.0406910">
        <ele>2801.6</ele>
        <time>2022-07-23T14:08:10Z</time>
      </trkpt>
      <trkpt lat="42.6912260" lon="-0.0406980">
        <ele>2802.0</ele>
        <time>2022-07-23T14:08:11Z</time>
      </trkpt>
      <trkpt lat="42.6912430" lon="-0.0407490">
        <ele>2803.6</ele>
        <time>2022-07-23T14:08:19Z</time>
      </trkpt>
      <trkpt lat="42.6912540" lon="-0.0407710">
        <ele>2804.0</ele>
        <time>2022-07-23T14:08:21Z</time>
      </trkpt>
      <trkpt lat="42.6912590" lon="-0.0407790">
        <ele>2804.4</ele>
        <time>2022-07-23T14:08:23Z</time>
      </trkpt>
      <trkpt lat="42.6912780" lon="-0.0408050">
        <ele>2806.0</ele>
        <time>2022-07-23T14:08:31Z</time>
      </trkpt>
      <trkpt lat="42.6912790" lon="-0.0408080">
        <ele>2806.2</ele>
        <time>2022-07-23T14:08:32Z</time>
      </trkpt>
      <trkpt lat="42.6912880" lon="-0.0408140">
        <ele>2806.4</ele>
        <time>2022-07-23T14:08:34Z</time>
      </trkpt>
      <trkpt lat="42.6913170" lon="-0.0408360">
        <ele>2807.0</ele>
        <time>2022-07-23T14:08:39Z</time>
      </trkpt>
      <trkpt lat="42.6913610" lon="-0.0408910">
        <ele>2808.2</ele>
        <time>2022-07-23T14:08:46Z</time>
      </trkpt>
      <trkpt lat="42.6913720" lon="-0.0409180">
        <ele>2808.6</ele>
        <time>2022-07-23T14:08:50Z</time>
      </trkpt>
      <trkpt lat="42.6913780" lon="-0.0409700">
        <ele>2809.2</ele>
        <time>2022-07-23T14:08:56Z</time>
      </trkpt>
      <trkpt lat="42.6913890" lon="-0.0410010">
        <ele>2809.4</ele>
        <time>2022-07-23T14:08:59Z</time>
      </trkpt>
      <trkpt lat="42.6913910" lon="-0.0410110">
        <ele>2809.6</ele>
        <time>2022-07-23T14:09:00Z</time>
      </trkpt>
      <trkpt lat="42.6913940" lon="-0.0410410">
        <ele>2810.2</ele>
        <time>2022-07-23T14:09:04Z</time>
      </trkpt>
      <trkpt lat="42.6914030" lon="-0.0410960">
        <ele>2811.4</ele>
        <time>2022-07-23T14:09:10Z</time>
      </trkpt>
      <trkpt lat="42.6914020" lon="-0.0411060">
        <ele>2811.8</ele>
        <time>2022-07-23T14:09:11Z</time>
      </trkpt>
      <trkpt lat="42.6914290" lon="-0.0411560">
        <ele>2814.2</ele>
        <time>2022-07-23T14:09:18Z</time>
      </trkpt>
      <trkpt lat="42.6914100" lon="-0.0411670">
        <ele>2814.4</ele>
        <time>2022-07-23T14:09:20Z</time>
      </trkpt>
      <trkpt lat="42.6914030" lon="-0.0411790">
        <ele>2814.6</ele>
        <time>2022-07-23T14:09:22Z</time>
      </trkpt>
      <trkpt lat="42.6913980" lon="-0.0411880">
        <ele>2815.0</ele>
        <time>2022-07-23T14:09:23Z</time>
      </trkpt>
      <trkpt lat="42.6913910" lon="-0.0411890">
        <ele>2815.2</ele>
        <time>2022-07-23T14:09:24Z</time>
      </trkpt>
      <trkpt lat="42.6913770" lon="-0.0412090">
        <ele>2815.4</ele>
        <time>2022-07-23T14:09:25Z</time>
      </trkpt>
      <trkpt lat="42.6913910" lon="-0.0412340">
        <ele>2815.8</ele>
        <time>2022-07-23T14:09:27Z</time>
      </trkpt>
      <trkpt lat="42.6913960" lon="-0.0412470">
        <ele>2816.0</ele>
        <time>2022-07-23T14:09:28Z</time>
      </trkpt>
      <trkpt lat="42.6913800" lon="-0.0412910">
        <ele>2816.0</ele>
        <time>2022-07-23T14:09:30Z</time>
      </trkpt>
      <trkpt lat="42.6913800" lon="-0.0413050">
        <ele>2817.0</ele>
        <time>2022-07-23T14:09:32Z</time>
      </trkpt>
      <trkpt lat="42.6913850" lon="-0.0413090">
        <ele>2817.6</ele>
        <time>2022-07-23T14:09:33Z</time>
      </trkpt>
      <trkpt lat="42.6913820" lon="-0.0413460">
        <ele>2818.2</ele>
        <time>2022-07-23T14:09:35Z</time>
      </trkpt>
      <trkpt lat="42.6913750" lon="-0.0413640">
        <ele>2818.2</ele>
        <time>2022-07-23T14:09:36Z</time>
      </trkpt>
      <trkpt lat="42.6913910" lon="-0.0413750">
        <ele>2818.4</ele>
        <time>2022-07-23T14:09:38Z</time>
      </trkpt>
      <trkpt lat="42.6913880" lon="-0.0413840">
        <ele>2818.8</ele>
        <time>2022-07-23T14:09:39Z</time>
      </trkpt>
      <trkpt lat="42.6914250" lon="-0.0413850">
        <ele>2819.8</ele>
        <time>2022-07-23T14:09:43Z</time>
      </trkpt>
      <trkpt lat="42.6914420" lon="-0.0413820">
        <ele>2820.4</ele>
        <time>2022-07-23T14:09:46Z</time>
      </trkpt>
      <trkpt lat="42.6914490" lon="-0.0413860">
        <ele>2820.6</ele>
        <time>2022-07-23T14:09:48Z</time>
      </trkpt>
      <trkpt lat="42.6914660" lon="-0.0414000">
        <ele>2821.4</ele>
        <time>2022-07-23T14:09:55Z</time>
      </trkpt>
      <trkpt lat="42.6914880" lon="-0.0414380">
        <ele>2823.0</ele>
        <time>2022-07-23T14:10:03Z</time>
      </trkpt>
      <trkpt lat="42.6914910" lon="-0.0414620">
        <ele>2824.0</ele>
        <time>2022-07-23T14:10:06Z</time>
      </trkpt>
      <trkpt lat="42.6914810" lon="-0.0414820">
        <ele>2824.2</ele>
        <time>2022-07-23T14:10:07Z</time>
      </trkpt>
      <trkpt lat="42.6914660" lon="-0.0415100">
        <ele>2824.6</ele>
        <time>2022-07-23T14:10:09Z</time>
      </trkpt>
      <trkpt lat="42.6914710" lon="-0.0415130">
        <ele>2824.4</ele>
        <time>2022-07-23T14:10:10Z</time>
      </trkpt>
      <trkpt lat="42.6915010" lon="-0.0415160">
        <ele>2825.0</ele>
        <time>2022-07-23T14:10:14Z</time>
      </trkpt>
      <trkpt lat="42.6915080" lon="-0.0415210">
        <ele>2825.6</ele>
        <time>2022-07-23T14:10:15Z</time>
      </trkpt>
      <trkpt lat="42.6915180" lon="-0.0415330">
        <ele>2826.0</ele>
        <time>2022-07-23T14:10:17Z</time>
      </trkpt>
      <trkpt lat="42.6915280" lon="-0.0415320">
        <ele>2826.6</ele>
        <time>2022-07-23T14:10:19Z</time>
      </trkpt>
      <trkpt lat="42.6915340" lon="-0.0415230">
        <ele>2827.8</ele>
        <time>2022-07-23T14:10:21Z</time>
      </trkpt>
      <trkpt lat="42.6915380" lon="-0.0415220">
        <ele>2828.4</ele>
        <time>2022-07-23T14:10:23Z</time>
      </trkpt>
      <trkpt lat="42.6915350" lon="-0.0415330">
        <ele>2828.4</ele>
        <time>2022-07-23T14:10:24Z</time>
      </trkpt>
      <trkpt lat="42.6915360" lon="-0.0415410">
        <ele>2829.0</ele>
        <time>2022-07-23T14:10:28Z</time>
      </trkpt>
      <trkpt lat="42.6915340" lon="-0.0415390">
        <ele>2829.2</ele>
        <time>2022-07-23T14:10:31Z</time>
      </trkpt>
      <trkpt lat="42.6915450" lon="-0.0415290">
        <ele>2829.6</ele>
        <time>2022-07-23T14:10:34Z</time>
      </trkpt>
      <trkpt lat="42.6915480" lon="-0.0415220">
        <ele>2829.8</ele>
        <time>2022-07-23T14:10:35Z</time>
      </trkpt>
      <trkpt lat="42.6915510" lon="-0.0415130">
        <ele>2829.6</ele>
        <time>2022-07-23T14:10:36Z</time>
      </trkpt>
      <trkpt lat="42.6915540" lon="-0.0415030">
        <ele>2829.4</ele>
        <time>2022-07-23T14:10:37Z</time>
      </trkpt>
      <trkpt lat="42.6915540" lon="-0.0414960">
        <ele>2829.4</ele>
        <time>2022-07-23T14:10:38Z</time>
      </trkpt>
      <trkpt lat="42.6915570" lon="-0.0414670">
        <ele>2829.2</ele>
        <time>2022-07-23T14:10:42Z</time>
      </trkpt>
      <trkpt lat="42.6915570" lon="-0.0414620">
        <ele>2829.2</ele>
        <time>2022-07-23T14:10:43Z</time>
      </trkpt>
      <trkpt lat="42.6915550" lon="-0.0414650">
        <ele>2829.2</ele>
        <time>2022-07-23T14:10:45Z</time>
      </trkpt>
      <trkpt lat="42.6915340" lon="-0.0414750">
        <ele>2829.2</ele>
        <time>2022-07-23T14:10:51Z</time>
      </trkpt>
      <trkpt lat="42.6915250" lon="-0.0414830">
        <ele>2831.2</ele>
        <time>2022-07-23T14:10:54Z</time>
      </trkpt>
      <trkpt lat="42.6915250" lon="-0.0415000">
        <ele>2831.6</ele>
        <time>2022-07-23T14:11:09Z</time>
      </trkpt>
      <trkpt lat="42.6915330" lon="-0.0415460">
        <ele>2831.4</ele>
        <time>2022-07-23T14:11:16Z</time>
      </trkpt>
      <trkpt lat="42.6915340" lon="-0.0415590">
        <ele>2831.4</ele>
        <time>2022-07-23T14:11:19Z</time>
      </trkpt>
      <trkpt lat="42.6915350" lon="-0.0415640">
        <ele>2831.0</ele>
        <time>2022-07-23T14:11:27Z</time>
      </trkpt>
      <trkpt lat="42.6915350" lon="-0.0415640">
        <ele>2831.0</ele>
        <time>2022-07-23T14:11:28Z</time>
      </trkpt>
      <trkpt lat="42.6915350" lon="-0.0415650">
        <ele>2830.8</ele>
        <time>2022-07-23T14:11:31Z</time>
      </trkpt>
      <trkpt lat="42.6915340" lon="-0.0415680">
        <ele>2830.8</ele>
        <time>2022-07-23T14:11:37Z</time>
      </trkpt>
      <trkpt lat="42.6915340" lon="-0.0415700">
        <ele>2830.8</ele>
        <time>2022-07-23T14:11:40Z</time>
      </trkpt>
      <trkpt lat="42.6915330" lon="-0.0415720">
        <ele>2830.6</ele>
        <time>2022-07-23T14:11:44Z</time>
      </trkpt>
      <trkpt lat="42.6915320" lon="-0.0415730">
        <ele>2830.4</ele>
        <time>2022-07-23T14:11:48Z</time>
      </trkpt>
      <trkpt lat="42.6915320" lon="-0.0415730">
        <ele>2830.4</ele>
        <time>2022-07-23T14:11:50Z</time>
      </trkpt>
      <trkpt lat="42.6915320" lon="-0.0415780">
        <ele>2830.6</ele>
        <time>2022-07-23T14:12:07Z</time>
      </trkpt>
      <trkpt lat="42.6915300" lon="-0.0415750">
        <ele>2831.0</ele>
        <time>2022-07-23T14:12:26Z</time>
      </trkpt>
      <trkpt lat="42.6915260" lon="-0.0415700">
        <ele>2831.6</ele>
        <time>2022-07-23T14:12:54Z</time>
      </trkpt>
      <trkpt lat="42.6915260" lon="-0.0415750">
        <ele>2831.6</ele>
        <time>2022-07-23T14:12:55Z</time>
      </trkpt>
      <trkpt lat="42.6915250" lon="-0.0415890">
        <ele>2831.4</ele>
        <time>2022-07-23T14:12:58Z</time>
      </trkpt>
      <trkpt lat="42.6915250" lon="-0.0415910">
        <ele>2831.4</ele>
        <time>2022-07-23T14:12:59Z</time>
      </trkpt>
      <trkpt lat="42.6915320" lon="-0.0415920">
        <ele>2831.4</ele>
        <time>2022-07-23T14:13:02Z</time>
      </trkpt>
      <trkpt lat="42.6915420" lon="-0.0415870">
        <ele>2830.4</ele>
        <time>2022-07-23T14:13:06Z</time>
      </trkpt>
      <trkpt lat="42.6915420" lon="-0.0415870">
        <ele>2830.2</ele>
        <time>2022-07-23T14:13:07Z</time>
      </trkpt>
      <trkpt lat="42.6915430" lon="-0.0415880">
        <ele>2830.0</ele>
        <time>2022-07-23T14:13:10Z</time>
      </trkpt>
      <trkpt lat="42.6915430" lon="-0.0415880">
        <ele>2829.8</ele>
        <time>2022-07-23T14:13:11Z</time>
      </trkpt>
      <trkpt lat="42.6915440" lon="-0.0415880">
        <ele>2829.2</ele>
        <time>2022-07-23T14:13:17Z</time>
      </trkpt>
      <trkpt lat="42.6915520" lon="-0.0415890">
        <ele>2830.0</ele>
        <time>2022-07-23T14:13:31Z</time>
      </trkpt>
      <trkpt lat="42.6915520" lon="-0.0415890">
        <ele>2830.0</ele>
        <time>2022-07-23T14:13:32Z</time>
      </trkpt>
      <trkpt lat="42.6915520" lon="-0.0415900">
        <ele>2830.0</ele>
        <time>2022-07-23T14:13:37Z</time>
      </trkpt>
      <trkpt lat="42.6915520" lon="-0.0415910">
        <ele>2830.0</ele>
        <time>2022-07-23T14:13:38Z</time>
      </trkpt>
      <trkpt lat="42.6915510" lon="-0.0415930">
        <ele>2830.4</ele>
        <time>2022-07-23T14:13:45Z</time>
      </trkpt>
      <trkpt lat="42.6915510" lon="-0.0415950">
        <ele>2830.2</ele>
        <time>2022-07-23T14:13:47Z</time>
      </trkpt>
      <trkpt lat="42.6915500" lon="-0.0415970">
        <ele>2830.8</ele>
        <time>2022-07-23T14:13:50Z</time>
      </trkpt>
      <trkpt lat="42.6915490" lon="-0.0415990">
        <ele>2830.8</ele>
        <time>2022-07-23T14:13:51Z</time>
      </trkpt>
      <trkpt lat="42.6915480" lon="-0.0416010">
        <ele>2830.8</ele>
        <time>2022-07-23T14:13:52Z</time>
      </trkpt>
      <trkpt lat="42.6915460" lon="-0.0416020">
        <ele>2830.8</ele>
        <time>2022-07-23T14:13:53Z</time>
      </trkpt>
      <trkpt lat="42.6915430" lon="-0.0416070">
        <ele>2830.6</ele>
        <time>2022-07-23T14:13:56Z</time>
      </trkpt>
      <trkpt lat="42.6915360" lon="-0.0416150">
        <ele>2830.8</ele>
        <time>2022-07-23T14:13:59Z</time>
      </trkpt>
      <trkpt lat="42.6915350" lon="-0.0416170">
        <ele>2830.6</ele>
        <time>2022-07-23T14:14:00Z</time>
      </trkpt>
      <trkpt lat="42.6915290" lon="-0.0416170">
        <ele>2830.2</ele>
        <time>2022-07-23T14:14:03Z</time>
      </trkpt>
      <trkpt lat="42.6915270" lon="-0.0416170">
        <ele>2830.4</ele>
        <time>2022-07-23T14:14:04Z</time>
      </trkpt>
      <trkpt lat="42.6915230" lon="-0.0416170">
        <ele>2830.6</ele>
        <time>2022-07-23T14:14:06Z</time>
      </trkpt>
      <trkpt lat="42.6915210" lon="-0.0416200">
        <ele>2830.6</ele>
        <time>2022-07-23T14:14:09Z</time>
      </trkpt>
      <trkpt lat="42.6915220" lon="-0.0416200">
        <ele>2830.6</ele>
        <time>2022-07-23T14:14:10Z</time>
      </trkpt>
      <trkpt lat="42.6915210" lon="-0.0416210">
        <ele>2830.6</ele>
        <time>2022-07-23T14:14:11Z</time>
      </trkpt>
      <trkpt lat="42.6915210" lon="-0.0416210">
        <ele>2830.4</ele>
        <time>2022-07-23T14:14:12Z</time>
      </trkpt>
      <trkpt lat="42.6915200" lon="-0.0416210">
        <ele>2830.6</ele>
        <time>2022-07-23T14:14:18Z</time>
      </trkpt>
      <trkpt lat="42.6915200" lon="-0.0416210">
        <ele>2830.6</ele>
        <time>2022-07-23T14:14:19Z</time>
      </trkpt>
      <trkpt lat="42.6915200" lon="-0.0416210">
        <ele>2830.6</ele>
        <time>2022-07-23T14:14:20Z</time>
      </trkpt>
      <trkpt lat="42.6915200" lon="-0.0416210">
        <ele>2830.8</ele>
        <time>2022-07-23T14:14:21Z</time>
      </trkpt>
      <trkpt lat="42.6915190" lon="-0.0416210">
        <ele>2830.8</ele>
        <time>2022-07-23T14:14:23Z</time>
      </trkpt>
      <trkpt lat="42.6915190" lon="-0.0416210">
        <ele>2830.8</ele>
        <time>2022-07-23T14:14:25Z</time>
      </trkpt>
      <trkpt lat="42.6915180" lon="-0.0416210">
        <ele>2831.2</ele>
        <time>2022-07-23T14:14:34Z</time>
      </trkpt>
      <trkpt lat="42.6915180" lon="-0.0416210">
        <ele>2831.4</ele>
        <time>2022-07-23T14:14:38Z</time>
      </trkpt>
      <trkpt lat="42.6915130" lon="-0.0416180">
        <ele>2830.8</ele>
        <time>2022-07-23T14:14:57Z</time>
      </trkpt>
      <trkpt lat="42.6915130" lon="-0.0416180">
        <ele>2830.6</ele>
        <time>2022-07-23T14:15:05Z</time>
      </trkpt>
      <trkpt lat="42.6915140" lon="-0.0416180">
        <ele>2830.6</ele>
        <time>2022-07-23T14:15:07Z</time>
      </trkpt>
      <trkpt lat="42.6915150" lon="-0.0416170">
        <ele>2830.6</ele>
        <time>2022-07-23T14:15:11Z</time>
      </trkpt>
      <trkpt lat="42.6915140" lon="-0.0416140">
        <ele>2830.6</ele>
        <time>2022-07-23T14:15:13Z</time>
      </trkpt>
      <trkpt lat="42.6915150" lon="-0.0416100">
        <ele>2830.4</ele>
        <time>2022-07-23T14:15:14Z</time>
      </trkpt>
      <trkpt lat="42.6915170" lon="-0.0416060">
        <ele>2830.4</ele>
        <time>2022-07-23T14:15:15Z</time>
      </trkpt>
      <trkpt lat="42.6915210" lon="-0.0415990">
        <ele>2830.4</ele>
        <time>2022-07-23T14:15:17Z</time>
      </trkpt>
      <trkpt lat="42.6915230" lon="-0.0415960">
        <ele>2830.4</ele>
        <time>2022-07-23T14:15:18Z</time>
      </trkpt>
      <trkpt lat="42.6915260" lon="-0.0415890">
        <ele>2830.4</ele>
        <time>2022-07-23T14:15:21Z</time>
      </trkpt>
      <trkpt lat="42.6915270" lon="-0.0415860">
        <ele>2830.6</ele>
        <time>2022-07-23T14:15:22Z</time>
      </trkpt>
      <trkpt lat="42.6915270" lon="-0.0415860">
        <ele>2830.6</ele>
        <time>2022-07-23T14:15:23Z</time>
      </trkpt>
      <trkpt lat="42.6915270" lon="-0.0415860">
        <ele>2830.6</ele>
        <time>2022-07-23T14:15:24Z</time>
      </trkpt>
      <trkpt lat="42.6915270" lon="-0.0415850">
        <ele>2830.6</ele>
        <time>2022-07-23T14:15:26Z</time>
      </trkpt>
      <trkpt lat="42.6915270" lon="-0.0415820">
        <ele>2830.2</ele>
        <time>2022-07-23T14:15:37Z</time>
      </trkpt>
      <trkpt lat="42.6915280" lon="-0.0415820">
        <ele>2830.2</ele>
        <time>2022-07-23T14:15:42Z</time>
      </trkpt>
      <trkpt lat="42.6915280" lon="-0.0415820">
        <ele>2830.2</ele>
        <time>2022-07-23T14:15:43Z</time>
      </trkpt>
      <trkpt lat="42.6915280" lon="-0.0415820">
        <ele>2830.4</ele>
        <time>2022-07-23T14:15:44Z</time>
      </trkpt>
      <trkpt lat="42.6915280" lon="-0.0415830">
        <ele>2830.2</ele>
        <time>2022-07-23T14:15:47Z</time>
      </trkpt>
      <trkpt lat="42.6915220" lon="-0.0415910">
        <ele>2830.2</ele>
        <time>2022-07-23T14:16:02Z</time>
      </trkpt>
      <trkpt lat="42.6915160" lon="-0.0415970">
        <ele>2830.4</ele>
        <time>2022-07-23T14:16:09Z</time>
      </trkpt>
      <trkpt lat="42.6915200" lon="-0.0415940">
        <ele>2829.8</ele>
        <time>2022-07-23T14:16:23Z</time>
      </trkpt>
      <trkpt lat="42.6915270" lon="-0.0415840">
        <ele>2829.4</ele>
        <time>2022-07-23T14:16:52Z</time>
      </trkpt>
      <trkpt lat="42.6915290" lon="-0.0415820">
        <ele>2829.0</ele>
        <time>2022-07-23T14:16:59Z</time>
      </trkpt>
      <trkpt lat="42.6915300" lon="-0.0415810">
        <ele>2829.2</ele>
        <time>2022-07-23T14:17:04Z</time>
      </trkpt>
      <trkpt lat="42.6915300" lon="-0.0415800">
        <ele>2829.0</ele>
        <time>2022-07-23T14:17:05Z</time>
      </trkpt>
      <trkpt lat="42.6915340" lon="-0.0415740">
        <ele>2829.2</ele>
        <time>2022-07-23T14:17:28Z</time>
      </trkpt>
      <trkpt lat="42.6915430" lon="-0.0415640">
        <ele>2829.2</ele>
        <time>2022-07-23T14:18:06Z</time>
      </trkpt>
      <trkpt lat="42.6915480" lon="-0.0415580">
        <ele>2829.4</ele>
        <time>2022-07-23T14:18:41Z</time>
      </trkpt>
      <trkpt lat="42.6915490" lon="-0.0415540">
        <ele>2829.6</ele>
        <time>2022-07-23T14:19:13Z</time>
      </trkpt>
      <trkpt lat="42.6915490" lon="-0.0415530">
        <ele>2829.6</ele>
        <time>2022-07-23T14:19:16Z</time>
      </trkpt>
      <trkpt lat="42.6915510" lon="-0.0415520">
        <ele>2828.6</ele>
        <time>2022-07-23T14:19:36Z</time>
      </trkpt>
      <trkpt lat="42.6915480" lon="-0.0415500">
        <ele>2829.2</ele>
        <time>2022-07-23T14:19:52Z</time>
      </trkpt>
      <trkpt lat="42.6915440" lon="-0.0415420">
        <ele>2829.2</ele>
        <time>2022-07-23T14:20:11Z</time>
      </trkpt>
      <trkpt lat="42.6915440" lon="-0.0415410">
        <ele>2829.4</ele>
        <time>2022-07-23T14:20:13Z</time>
      </trkpt>
      <trkpt lat="42.6915430" lon="-0.0415400">
        <ele>2829.4</ele>
        <time>2022-07-23T14:20:16Z</time>
      </trkpt>
      <trkpt lat="42.6915420" lon="-0.0415400">
        <ele>2829.6</ele>
        <time>2022-07-23T14:20:19Z</time>
      </trkpt>
      <trkpt lat="42.6915410" lon="-0.0415420">
        <ele>2831.0</ele>
        <time>2022-07-23T14:20:27Z</time>
      </trkpt>
      <trkpt lat="42.6915410" lon="-0.0415430">
        <ele>2831.2</ele>
        <time>2022-07-23T14:20:28Z</time>
      </trkpt>
      <trkpt lat="42.6915400" lon="-0.0415530">
        <ele>2831.2</ele>
        <time>2022-07-23T14:20:31Z</time>
      </trkpt>
      <trkpt lat="42.6915360" lon="-0.0415800">
        <ele>2831.4</ele>
        <time>2022-07-23T14:20:36Z</time>
      </trkpt>
      <trkpt lat="42.6915350" lon="-0.0415880">
        <ele>2831.6</ele>
        <time>2022-07-23T14:20:37Z</time>
      </trkpt>
      <trkpt lat="42.6915210" lon="-0.0416430">
        <ele>2833.8</ele>
        <time>2022-07-23T14:20:48Z</time>
      </trkpt>
      <trkpt lat="42.6915190" lon="-0.0416480">
        <ele>2834.2</ele>
        <time>2022-07-23T14:20:50Z</time>
      </trkpt>
      <trkpt lat="42.6915190" lon="-0.0416980">
        <ele>2834.8</ele>
        <time>2022-07-23T14:20:57Z</time>
      </trkpt>
      <trkpt lat="42.6915350" lon="-0.0417310">
        <ele>2835.4</ele>
        <time>2022-07-23T14:21:01Z</time>
      </trkpt>
      <trkpt lat="42.6915420" lon="-0.0417340">
        <ele>2835.6</ele>
        <time>2022-07-23T14:21:02Z</time>
      </trkpt>
      <trkpt lat="42.6915560" lon="-0.0417800">
        <ele>2837.0</ele>
        <time>2022-07-23T14:21:10Z</time>
      </trkpt>
      <trkpt lat="42.6915580" lon="-0.0418070">
        <ele>2837.6</ele>
        <time>2022-07-23T14:21:13Z</time>
      </trkpt>
      <trkpt lat="42.6915590" lon="-0.0418240">
        <ele>2838.2</ele>
        <time>2022-07-23T14:21:16Z</time>
      </trkpt>
      <trkpt lat="42.6915500" lon="-0.0418460">
        <ele>2840.2</ele>
        <time>2022-07-23T14:21:27Z</time>
      </trkpt>
      <trkpt lat="42.6915530" lon="-0.0418480">
        <ele>2840.2</ele>
        <time>2022-07-23T14:21:28Z</time>
      </trkpt>
      <trkpt lat="42.6915580" lon="-0.0418490">
        <ele>2840.2</ele>
        <time>2022-07-23T14:21:31Z</time>
      </trkpt>
      <trkpt lat="42.6915660" lon="-0.0418520">
        <ele>2840.4</ele>
        <time>2022-07-23T14:21:34Z</time>
      </trkpt>
      <trkpt lat="42.6915710" lon="-0.0418680">
        <ele>2840.4</ele>
        <time>2022-07-23T14:21:36Z</time>
      </trkpt>
      <trkpt lat="42.6915890" lon="-0.0418990">
        <ele>2839.8</ele>
        <time>2022-07-23T14:21:42Z</time>
      </trkpt>
      <trkpt lat="42.6915930" lon="-0.0419010">
        <ele>2839.8</ele>
        <time>2022-07-23T14:21:43Z</time>
      </trkpt>
      <trkpt lat="42.6916100" lon="-0.0419220">
        <ele>2840.0</ele>
        <time>2022-07-23T14:21:47Z</time>
      </trkpt>
      <trkpt lat="42.6916300" lon="-0.0419260">
        <ele>2840.0</ele>
        <time>2022-07-23T14:21:49Z</time>
      </trkpt>
      <trkpt lat="42.6916340" lon="-0.0419180">
        <ele>2840.2</ele>
        <time>2022-07-23T14:21:51Z</time>
      </trkpt>
      <trkpt lat="42.6916240" lon="-0.0419270">
        <ele>2840.0</ele>
        <time>2022-07-23T14:21:53Z</time>
      </trkpt>
      <trkpt lat="42.6916230" lon="-0.0419360">
        <ele>2840.0</ele>
        <time>2022-07-23T14:21:54Z</time>
      </trkpt>
      <trkpt lat="42.6916220" lon="-0.0419450">
        <ele>2840.0</ele>
        <time>2022-07-23T14:21:55Z</time>
      </trkpt>
      <trkpt lat="42.6916210" lon="-0.0419590">
        <ele>2840.6</ele>
        <time>2022-07-23T14:21:57Z</time>
      </trkpt>
      <trkpt lat="42.6916110" lon="-0.0419930">
        <ele>2842.0</ele>
        <time>2022-07-23T14:22:02Z</time>
      </trkpt>
      <trkpt lat="42.6916080" lon="-0.0419980">
        <ele>2842.2</ele>
        <time>2022-07-23T14:22:03Z</time>
      </trkpt>
      <trkpt lat="42.6916060" lon="-0.0420060">
        <ele>2842.4</ele>
        <time>2022-07-23T14:22:04Z</time>
      </trkpt>
      <trkpt lat="42.6916030" lon="-0.0420130">
        <ele>2842.4</ele>
        <time>2022-07-23T14:22:05Z</time>
      </trkpt>
      <trkpt lat="42.6916010" lon="-0.0420190">
        <ele>2842.6</ele>
        <time>2022-07-23T14:22:06Z</time>
      </trkpt>
      <trkpt lat="42.6916000" lon="-0.0420330">
        <ele>2842.8</ele>
        <time>2022-07-23T14:22:08Z</time>
      </trkpt>
      <trkpt lat="42.6916030" lon="-0.0420400">
        <ele>2843.0</ele>
        <time>2022-07-23T14:22:09Z</time>
      </trkpt>
      <trkpt lat="42.6916080" lon="-0.0420580">
        <ele>2843.2</ele>
        <time>2022-07-23T14:22:12Z</time>
      </trkpt>
      <trkpt lat="42.6916090" lon="-0.0420620">
        <ele>2843.2</ele>
        <time>2022-07-23T14:22:14Z</time>
      </trkpt>
      <trkpt lat="42.6916080" lon="-0.0420650">
        <ele>2843.4</ele>
        <time>2022-07-23T14:22:15Z</time>
      </trkpt>
      <trkpt lat="42.6916020" lon="-0.0420680">
        <ele>2843.4</ele>
        <time>2022-07-23T14:22:16Z</time>
      </trkpt>
      <trkpt lat="42.6915990" lon="-0.0420740">
        <ele>2843.4</ele>
        <time>2022-07-23T14:22:17Z</time>
      </trkpt>
      <trkpt lat="42.6915950" lon="-0.0420790">
        <ele>2843.4</ele>
        <time>2022-07-23T14:22:18Z</time>
      </trkpt>
      <trkpt lat="42.6915900" lon="-0.0421030">
        <ele>2843.8</ele>
        <time>2022-07-23T14:22:24Z</time>
      </trkpt>
      <trkpt lat="42.6915880" lon="-0.0421120">
        <ele>2844.4</ele>
        <time>2022-07-23T14:22:26Z</time>
      </trkpt>
      <trkpt lat="42.6915810" lon="-0.0421310">
        <ele>2844.4</ele>
        <time>2022-07-23T14:22:29Z</time>
      </trkpt>
      <trkpt lat="42.6915800" lon="-0.0421400">
        <ele>2844.6</ele>
        <time>2022-07-23T14:22:30Z</time>
      </trkpt>
      <trkpt lat="42.6915890" lon="-0.0422030">
        <ele>2845.2</ele>
        <time>2022-07-23T14:22:37Z</time>
      </trkpt>
      <trkpt lat="42.6915930" lon="-0.0422260">
        <ele>2845.8</ele>
        <time>2022-07-23T14:22:40Z</time>
      </trkpt>
      <trkpt lat="42.6915630" lon="-0.0423060">
        <ele>2847.2</ele>
        <time>2022-07-23T14:22:51Z</time>
      </trkpt>
      <trkpt lat="42.6915530" lon="-0.0423220">
        <ele>2847.8</ele>
        <time>2022-07-23T14:22:54Z</time>
      </trkpt>
      <trkpt lat="42.6915380" lon="-0.0423360">
        <ele>2848.2</ele>
        <time>2022-07-23T14:23:00Z</time>
      </trkpt>
      <trkpt lat="42.6915340" lon="-0.0423450">
        <ele>2848.8</ele>
        <time>2022-07-23T14:23:03Z</time>
      </trkpt>
      <trkpt lat="42.6915260" lon="-0.0423600">
        <ele>2849.4</ele>
        <time>2022-07-23T14:23:08Z</time>
      </trkpt>
      <trkpt lat="42.6915210" lon="-0.0423690">
        <ele>2849.8</ele>
        <time>2022-07-23T14:23:10Z</time>
      </trkpt>
      <trkpt lat="42.6915130" lon="-0.0423820">
        <ele>2850.0</ele>
        <time>2022-07-23T14:23:11Z</time>
      </trkpt>
      <trkpt lat="42.6915050" lon="-0.0423970">
        <ele>2850.0</ele>
        <time>2022-07-23T14:23:12Z</time>
      </trkpt>
      <trkpt lat="42.6914910" lon="-0.0424060">
        <ele>2850.2</ele>
        <time>2022-07-23T14:23:13Z</time>
      </trkpt>
      <trkpt lat="42.6915040" lon="-0.0424240">
        <ele>2850.4</ele>
        <time>2022-07-23T14:23:15Z</time>
      </trkpt>
      <trkpt lat="42.6915150" lon="-0.0424350">
        <ele>2850.6</ele>
        <time>2022-07-23T14:23:17Z</time>
      </trkpt>
      <trkpt lat="42.6915200" lon="-0.0424230">
        <ele>2852.2</ele>
        <time>2022-07-23T14:23:28Z</time>
      </trkpt>
      <trkpt lat="42.6915240" lon="-0.0424190">
        <ele>2852.2</ele>
        <time>2022-07-23T14:23:29Z</time>
      </trkpt>
      <trkpt lat="42.6915230" lon="-0.0424100">
        <ele>2852.4</ele>
        <time>2022-07-23T14:23:31Z</time>
      </trkpt>
      <trkpt lat="42.6915210" lon="-0.0424010">
        <ele>2852.4</ele>
        <time>2022-07-23T14:23:34Z</time>
      </trkpt>
      <trkpt lat="42.6915210" lon="-0.0424020">
        <ele>2852.4</ele>
        <time>2022-07-23T14:23:36Z</time>
      </trkpt>
      <trkpt lat="42.6915220" lon="-0.0424050">
        <ele>2852.6</ele>
        <time>2022-07-23T14:23:37Z</time>
      </trkpt>
      <trkpt lat="42.6914950" lon="-0.0424190">
        <ele>2852.6</ele>
        <time>2022-07-23T14:23:40Z</time>
      </trkpt>
      <trkpt lat="42.6914720" lon="-0.0424260">
        <ele>2852.6</ele>
        <time>2022-07-23T14:23:42Z</time>
      </trkpt>
      <trkpt lat="42.6914490" lon="-0.0424330">
        <ele>2852.4</ele>
        <time>2022-07-23T14:23:44Z</time>
      </trkpt>
      <trkpt lat="42.6914550" lon="-0.0425160">
        <ele>2851.8</ele>
        <time>2022-07-23T14:23:51Z</time>
      </trkpt>
      <trkpt lat="42.6914500" lon="-0.0425260">
        <ele>2851.6</ele>
        <time>2022-07-23T14:23:52Z</time>
      </trkpt>
      <trkpt lat="42.6914570" lon="-0.0425390">
        <ele>2851.6</ele>
        <time>2022-07-23T14:23:53Z</time>
      </trkpt>
      <trkpt lat="42.6914860" lon="-0.0426330">
        <ele>2851.6</ele>
        <time>2022-07-23T14:24:01Z</time>
      </trkpt>
      <trkpt lat="42.6914940" lon="-0.0426410">
        <ele>2851.6</ele>
        <time>2022-07-23T14:24:02Z</time>
      </trkpt>
      <trkpt lat="42.6915400" lon="-0.0426770">
        <ele>2852.0</ele>
        <time>2022-07-23T14:24:10Z</time>
      </trkpt>
      <trkpt lat="42.6915590" lon="-0.0427010">
        <ele>2852.6</ele>
        <time>2022-07-23T14:24:14Z</time>
      </trkpt>
      <trkpt lat="42.6915890" lon="-0.0427740">
        <ele>2852.8</ele>
        <time>2022-07-23T14:24:25Z</time>
      </trkpt>
      <trkpt lat="42.6915930" lon="-0.0427780">
        <ele>2853.0</ele>
        <time>2022-07-23T14:24:26Z</time>
      </trkpt>
      <trkpt lat="42.6915940" lon="-0.0428110">
        <ele>2853.0</ele>
        <time>2022-07-23T14:24:30Z</time>
      </trkpt>
      <trkpt lat="42.6915930" lon="-0.0428170">
        <ele>2853.0</ele>
        <time>2022-07-23T14:24:31Z</time>
      </trkpt>
      <trkpt lat="42.6915940" lon="-0.0428410">
        <ele>2853.4</ele>
        <time>2022-07-23T14:24:34Z</time>
      </trkpt>
      <trkpt lat="42.6915960" lon="-0.0428570">
        <ele>2853.8</ele>
        <time>2022-07-23T14:24:36Z</time>
      </trkpt>
      <trkpt lat="42.6915980" lon="-0.0428640">
        <ele>2854.0</ele>
        <time>2022-07-23T14:24:37Z</time>
      </trkpt>
      <trkpt lat="42.6915990" lon="-0.0428730">
        <ele>2854.2</ele>
        <time>2022-07-23T14:24:38Z</time>
      </trkpt>
      <trkpt lat="42.6916100" lon="-0.0429300">
        <ele>2856.8</ele>
        <time>2022-07-23T14:24:44Z</time>
      </trkpt>
      <trkpt lat="42.6916130" lon="-0.0429390">
        <ele>2857.2</ele>
        <time>2022-07-23T14:24:45Z</time>
      </trkpt>
      <trkpt lat="42.6916170" lon="-0.0429480">
        <ele>2857.2</ele>
        <time>2022-07-23T14:24:46Z</time>
      </trkpt>
      <trkpt lat="42.6916240" lon="-0.0429690">
        <ele>2857.8</ele>
        <time>2022-07-23T14:24:48Z</time>
      </trkpt>
      <trkpt lat="42.6916100" lon="-0.0431620">
        <ele>2858.6</ele>
        <time>2022-07-23T14:25:02Z</time>
      </trkpt>
      <trkpt lat="42.6916280" lon="-0.0432800">
        <ele>2858.8</ele>
        <time>2022-07-23T14:25:10Z</time>
      </trkpt>
      <trkpt lat="42.6916460" lon="-0.0433460">
        <ele>2858.6</ele>
        <time>2022-07-23T14:25:16Z</time>
      </trkpt>
      <trkpt lat="42.6916470" lon="-0.0433510">
        <ele>2858.4</ele>
        <time>2022-07-23T14:25:17Z</time>
      </trkpt>
      <trkpt lat="42.6916530" lon="-0.0433610">
        <ele>2858.4</ele>
        <time>2022-07-23T14:25:19Z</time>
      </trkpt>
      <trkpt lat="42.6916560" lon="-0.0433710">
        <ele>2858.6</ele>
        <time>2022-07-23T14:25:21Z</time>
      </trkpt>
      <trkpt lat="42.6916590" lon="-0.0433740">
        <ele>2858.6</ele>
        <time>2022-07-23T14:25:22Z</time>
      </trkpt>
      <trkpt lat="42.6916690" lon="-0.0433910">
        <ele>2858.6</ele>
        <time>2022-07-23T14:25:25Z</time>
      </trkpt>
      <trkpt lat="42.6916700" lon="-0.0434310">
        <ele>2859.0</ele>
        <time>2022-07-23T14:25:28Z</time>
      </trkpt>
      <trkpt lat="42.6916840" lon="-0.0434870">
        <ele>2859.4</ele>
        <time>2022-07-23T14:25:33Z</time>
      </trkpt>
      <trkpt lat="42.6917480" lon="-0.0435820">
        <ele>2860.6</ele>
        <time>2022-07-23T14:25:44Z</time>
      </trkpt>
      <trkpt lat="42.6917570" lon="-0.0435870">
        <ele>2860.8</ele>
        <time>2022-07-23T14:25:45Z</time>
      </trkpt>
      <trkpt lat="42.6917660" lon="-0.0435920">
        <ele>2860.8</ele>
        <time>2022-07-23T14:25:46Z</time>
      </trkpt>
      <trkpt lat="42.6917940" lon="-0.0436040">
        <ele>2861.2</ele>
        <time>2022-07-23T14:25:49Z</time>
      </trkpt>
      <trkpt lat="42.6918520" lon="-0.0436340">
        <ele>2862.4</ele>
        <time>2022-07-23T14:25:57Z</time>
      </trkpt>
      <trkpt lat="42.6918630" lon="-0.0436340">
        <ele>2863.2</ele>
        <time>2022-07-23T14:25:59Z</time>
      </trkpt>
      <trkpt lat="42.6918690" lon="-0.0436400">
        <ele>2864.0</ele>
        <time>2022-07-23T14:26:02Z</time>
      </trkpt>
      <trkpt lat="42.6918680" lon="-0.0436810">
        <ele>2865.0</ele>
        <time>2022-07-23T14:26:12Z</time>
      </trkpt>
      <trkpt lat="42.6918660" lon="-0.0436810">
        <ele>2864.8</ele>
        <time>2022-07-23T14:26:13Z</time>
      </trkpt>
      <trkpt lat="42.6918640" lon="-0.0436860">
        <ele>2864.8</ele>
        <time>2022-07-23T14:26:14Z</time>
      </trkpt>
      <trkpt lat="42.6918620" lon="-0.0436900">
        <ele>2864.8</ele>
        <time>2022-07-23T14:26:15Z</time>
      </trkpt>
      <trkpt lat="42.6918740" lon="-0.0437170">
        <ele>2864.4</ele>
        <time>2022-07-23T14:26:21Z</time>
      </trkpt>
      <trkpt lat="42.6918950" lon="-0.0437600">
        <ele>2863.4</ele>
        <time>2022-07-23T14:26:26Z</time>
      </trkpt>
      <trkpt lat="42.6918980" lon="-0.0437730">
        <ele>2863.2</ele>
        <time>2022-07-23T14:26:27Z</time>
      </trkpt>
      <trkpt lat="42.6919080" lon="-0.0437960">
        <ele>2863.0</ele>
        <time>2022-07-23T14:26:29Z</time>
      </trkpt>
      <trkpt lat="42.6919160" lon="-0.0438170">
        <ele>2862.8</ele>
        <time>2022-07-23T14:26:31Z</time>
      </trkpt>
      <trkpt lat="42.6919290" lon="-0.0438420">
        <ele>2862.8</ele>
        <time>2022-07-23T14:26:36Z</time>
      </trkpt>
      <trkpt lat="42.6919380" lon="-0.0438480">
        <ele>2863.4</ele>
        <time>2022-07-23T14:26:38Z</time>
      </trkpt>
      <trkpt lat="42.6919490" lon="-0.0438580">
        <ele>2863.4</ele>
        <time>2022-07-23T14:26:40Z</time>
      </trkpt>
      <trkpt lat="42.6920150" lon="-0.0439760">
        <ele>2865.0</ele>
        <time>2022-07-23T14:26:57Z</time>
      </trkpt>
      <trkpt lat="42.6920280" lon="-0.0440290">
        <ele>2865.6</ele>
        <time>2022-07-23T14:27:04Z</time>
      </trkpt>
      <trkpt lat="42.6920410" lon="-0.0440780">
        <ele>2866.4</ele>
        <time>2022-07-23T14:27:09Z</time>
      </trkpt>
      <trkpt lat="42.6920670" lon="-0.0441260">
        <ele>2867.8</ele>
        <time>2022-07-23T14:27:15Z</time>
      </trkpt>
      <trkpt lat="42.6920770" lon="-0.0441410">
        <ele>2868.2</ele>
        <time>2022-07-23T14:27:17Z</time>
      </trkpt>
      <trkpt lat="42.6921120" lon="-0.0442370">
        <ele>2869.0</ele>
        <time>2022-07-23T14:27:27Z</time>
      </trkpt>
      <trkpt lat="42.6921200" lon="-0.0442430">
        <ele>2869.2</ele>
        <time>2022-07-23T14:27:30Z</time>
      </trkpt>
      <trkpt lat="42.6921320" lon="-0.0442230">
        <ele>2869.2</ele>
        <time>2022-07-23T14:27:44Z</time>
      </trkpt>
      <trkpt lat="42.6921340" lon="-0.0442340">
        <ele>2869.0</ele>
        <time>2022-07-23T14:27:46Z</time>
      </trkpt>
      <trkpt lat="42.6921480" lon="-0.0443070">
        <ele>2869.4</ele>
        <time>2022-07-23T14:27:53Z</time>
      </trkpt>
      <trkpt lat="42.6921600" lon="-0.0443360">
        <ele>2869.8</ele>
        <time>2022-07-23T14:27:55Z</time>
      </trkpt>
      <trkpt lat="42.6922120" lon="-0.0444560">
        <ele>2872.4</ele>
        <time>2022-07-23T14:28:09Z</time>
      </trkpt>
      <trkpt lat="42.6922380" lon="-0.0445470">
        <ele>2873.2</ele>
        <time>2022-07-23T14:28:18Z</time>
      </trkpt>
      <trkpt lat="42.6922550" lon="-0.0445910">
        <ele>2873.8</ele>
        <time>2022-07-23T14:28:24Z</time>
      </trkpt>
      <trkpt lat="42.6922600" lon="-0.0446140">
        <ele>2873.8</ele>
        <time>2022-07-23T14:28:27Z</time>
      </trkpt>
      <trkpt lat="42.6922680" lon="-0.0446580">
        <ele>2875.0</ele>
        <time>2022-07-23T14:28:33Z</time>
      </trkpt>
      <trkpt lat="42.6922680" lon="-0.0446670">
        <ele>2875.0</ele>
        <time>2022-07-23T14:28:34Z</time>
      </trkpt>
      <trkpt lat="42.6922680" lon="-0.0446990">
        <ele>2875.8</ele>
        <time>2022-07-23T14:28:38Z</time>
      </trkpt>
      <trkpt lat="42.6922660" lon="-0.0447080">
        <ele>2876.2</ele>
        <time>2022-07-23T14:28:39Z</time>
      </trkpt>
      <trkpt lat="42.6922660" lon="-0.0447170">
        <ele>2876.2</ele>
        <time>2022-07-23T14:28:40Z</time>
      </trkpt>
      <trkpt lat="42.6922670" lon="-0.0447240">
        <ele>2876.4</ele>
        <time>2022-07-23T14:28:41Z</time>
      </trkpt>
      <trkpt lat="42.6922680" lon="-0.0447340">
        <ele>2876.6</ele>
        <time>2022-07-23T14:28:42Z</time>
      </trkpt>
      <trkpt lat="42.6923220" lon="-0.0447790">
        <ele>2877.8</ele>
        <time>2022-07-23T14:28:52Z</time>
      </trkpt>
      <trkpt lat="42.6923260" lon="-0.0447840">
        <ele>2878.2</ele>
        <time>2022-07-23T14:28:53Z</time>
      </trkpt>
      <trkpt lat="42.6923390" lon="-0.0448030">
        <ele>2878.8</ele>
        <time>2022-07-23T14:28:58Z</time>
      </trkpt>
      <trkpt lat="42.6923390" lon="-0.0448170">
        <ele>2879.2</ele>
        <time>2022-07-23T14:29:01Z</time>
      </trkpt>
      <trkpt lat="42.6923400" lon="-0.0448250">
        <ele>2879.0</ele>
        <time>2022-07-23T14:29:02Z</time>
      </trkpt>
      <trkpt lat="42.6923710" lon="-0.0448640">
        <ele>2880.2</ele>
        <time>2022-07-23T14:29:07Z</time>
      </trkpt>
      <trkpt lat="42.6923790" lon="-0.0448810">
        <ele>2880.6</ele>
        <time>2022-07-23T14:29:09Z</time>
      </trkpt>
      <trkpt lat="42.6923910" lon="-0.0449060">
        <ele>2881.4</ele>
        <time>2022-07-23T14:29:12Z</time>
      </trkpt>
      <trkpt lat="42.6923940" lon="-0.0449140">
        <ele>2881.6</ele>
        <time>2022-07-23T14:29:13Z</time>
      </trkpt>
      <trkpt lat="42.6924280" lon="-0.0449970">
        <ele>2883.0</ele>
        <time>2022-07-23T14:29:21Z</time>
      </trkpt>
      <trkpt lat="42.6924500" lon="-0.0450390">
        <ele>2883.6</ele>
        <time>2022-07-23T14:29:26Z</time>
      </trkpt>
      <trkpt lat="42.6924500" lon="-0.0451360">
        <ele>2884.0</ele>
        <time>2022-07-23T14:29:35Z</time>
      </trkpt>
      <trkpt lat="42.6924500" lon="-0.0451460">
        <ele>2884.2</ele>
        <time>2022-07-23T14:29:36Z</time>
      </trkpt>
      <trkpt lat="42.6924540" lon="-0.0451680">
        <ele>2884.4</ele>
        <time>2022-07-23T14:29:38Z</time>
      </trkpt>
      <trkpt lat="42.6924820" lon="-0.0452530">
        <ele>2886.0</ele>
        <time>2022-07-23T14:29:45Z</time>
      </trkpt>
      <trkpt lat="42.6924980" lon="-0.0453000">
        <ele>2886.6</ele>
        <time>2022-07-23T14:29:48Z</time>
      </trkpt>
      <trkpt lat="42.6925580" lon="-0.0453690">
        <ele>2888.4</ele>
        <time>2022-07-23T14:29:59Z</time>
      </trkpt>
      <trkpt lat="42.6925640" lon="-0.0453770">
        <ele>2888.4</ele>
        <time>2022-07-23T14:30:00Z</time>
      </trkpt>
      <trkpt lat="42.6926180" lon="-0.0454140">
        <ele>2889.2</ele>
        <time>2022-07-23T14:30:07Z</time>
      </trkpt>
      <trkpt lat="42.6926930" lon="-0.0454280">
        <ele>2890.4</ele>
        <time>2022-07-23T14:30:14Z</time>
      </trkpt>
      <trkpt lat="42.6927010" lon="-0.0454300">
        <ele>2890.6</ele>
        <time>2022-07-23T14:30:15Z</time>
      </trkpt>
      <trkpt lat="42.6927200" lon="-0.0454350">
        <ele>2890.8</ele>
        <time>2022-07-23T14:30:21Z</time>
      </trkpt>
      <trkpt lat="42.6927200" lon="-0.0454370">
        <ele>2890.8</ele>
        <time>2022-07-23T14:30:25Z</time>
      </trkpt>
      <trkpt lat="42.6927190" lon="-0.0454390">
        <ele>2891.0</ele>
        <time>2022-07-23T14:30:26Z</time>
      </trkpt>
      <trkpt lat="42.6927190" lon="-0.0454390">
        <ele>2890.8</ele>
        <time>2022-07-23T14:30:28Z</time>
      </trkpt>
      <trkpt lat="42.6927320" lon="-0.0454450">
        <ele>2891.0</ele>
        <time>2022-07-23T14:30:33Z</time>
      </trkpt>
      <trkpt lat="42.6927660" lon="-0.0454860">
        <ele>2890.8</ele>
        <time>2022-07-23T14:30:39Z</time>
      </trkpt>
      <trkpt lat="42.6927910" lon="-0.0455260">
        <ele>2891.4</ele>
        <time>2022-07-23T14:30:45Z</time>
      </trkpt>
      <trkpt lat="42.6927970" lon="-0.0456050">
        <ele>2893.4</ele>
        <time>2022-07-23T14:30:54Z</time>
      </trkpt>
      <trkpt lat="42.6927580" lon="-0.0456440">
        <ele>2894.6</ele>
        <time>2022-07-23T14:31:01Z</time>
      </trkpt>
      <trkpt lat="42.6927560" lon="-0.0456500">
        <ele>2894.6</ele>
        <time>2022-07-23T14:31:02Z</time>
      </trkpt>
      <trkpt lat="42.6927610" lon="-0.0456710">
        <ele>2895.0</ele>
        <time>2022-07-23T14:31:05Z</time>
      </trkpt>
      <trkpt lat="42.6927640" lon="-0.0456780">
        <ele>2895.2</ele>
        <time>2022-07-23T14:31:06Z</time>
      </trkpt>
      <trkpt lat="42.6927710" lon="-0.0456940">
        <ele>2895.4</ele>
        <time>2022-07-23T14:31:08Z</time>
      </trkpt>
      <trkpt lat="42.6927720" lon="-0.0457150">
        <ele>2895.8</ele>
        <time>2022-07-23T14:31:10Z</time>
      </trkpt>
      <trkpt lat="42.6927780" lon="-0.0457550">
        <ele>2897.0</ele>
        <time>2022-07-23T14:31:14Z</time>
      </trkpt>
      <trkpt lat="42.6927800" lon="-0.0457660">
        <ele>2896.8</ele>
        <time>2022-07-23T14:31:15Z</time>
      </trkpt>
      <trkpt lat="42.6927810" lon="-0.0457910">
        <ele>2897.4</ele>
        <time>2022-07-23T14:31:17Z</time>
      </trkpt>
      <trkpt lat="42.6927850" lon="-0.0458190">
        <ele>2898.0</ele>
        <time>2022-07-23T14:31:19Z</time>
      </trkpt>
      <trkpt lat="42.6928170" lon="-0.0458590">
        <ele>2898.8</ele>
        <time>2022-07-23T14:31:23Z</time>
      </trkpt>
      <trkpt lat="42.6928490" lon="-0.0458760">
        <ele>2899.6</ele>
        <time>2022-07-23T14:31:27Z</time>
      </trkpt>
      <trkpt lat="42.6928720" lon="-0.0458670">
        <ele>2899.6</ele>
        <time>2022-07-23T14:31:30Z</time>
      </trkpt>
      <trkpt lat="42.6928810" lon="-0.0458540">
        <ele>2900.0</ele>
        <time>2022-07-23T14:31:34Z</time>
      </trkpt>
      <trkpt lat="42.6928840" lon="-0.0458410">
        <ele>2900.2</ele>
        <time>2022-07-23T14:31:39Z</time>
      </trkpt>
      <trkpt lat="42.6928850" lon="-0.0458390">
        <ele>2900.4</ele>
        <time>2022-07-23T14:31:42Z</time>
      </trkpt>
      <trkpt lat="42.6928850" lon="-0.0458380">
        <ele>2900.6</ele>
        <time>2022-07-23T14:31:43Z</time>
      </trkpt>
      <trkpt lat="42.6928870" lon="-0.0458370">
        <ele>2902.4</ele>
        <time>2022-07-23T14:31:59Z</time>
      </trkpt>
      <trkpt lat="42.6928900" lon="-0.0458370">
        <ele>2902.2</ele>
        <time>2022-07-23T14:32:09Z</time>
      </trkpt>
      <trkpt lat="42.6928940" lon="-0.0458400">
        <ele>2902.0</ele>
        <time>2022-07-23T14:32:24Z</time>
      </trkpt>
      <trkpt lat="42.6928940" lon="-0.0458410">
        <ele>2902.0</ele>
        <time>2022-07-23T14:32:27Z</time>
      </trkpt>
      <trkpt lat="42.6928970" lon="-0.0458460">
        <ele>2902.8</ele>
        <time>2022-07-23T14:32:46Z</time>
      </trkpt>
      <trkpt lat="42.6929030" lon="-0.0458470">
        <ele>2902.8</ele>
        <time>2022-07-23T14:32:50Z</time>
      </trkpt>
      <trkpt lat="42.6929100" lon="-0.0458660">
        <ele>2902.8</ele>
        <time>2022-07-23T14:32:54Z</time>
      </trkpt>
      <trkpt lat="42.6929040" lon="-0.0459000">
        <ele>2902.8</ele>
        <time>2022-07-23T14:32:59Z</time>
      </trkpt>
      <trkpt lat="42.6929050" lon="-0.0459060">
        <ele>2902.8</ele>
        <time>2022-07-23T14:33:00Z</time>
      </trkpt>
      <trkpt lat="42.6929070" lon="-0.0459190">
        <ele>2902.8</ele>
        <time>2022-07-23T14:33:04Z</time>
      </trkpt>
      <trkpt lat="42.6929100" lon="-0.0459220">
        <ele>2903.4</ele>
        <time>2022-07-23T14:33:05Z</time>
      </trkpt>
      <trkpt lat="42.6929170" lon="-0.0459300">
        <ele>2903.6</ele>
        <time>2022-07-23T14:33:07Z</time>
      </trkpt>
      <trkpt lat="42.6929350" lon="-0.0459530">
        <ele>2904.0</ele>
        <time>2022-07-23T14:33:10Z</time>
      </trkpt>
      <trkpt lat="42.6929650" lon="-0.0459940">
        <ele>2904.8</ele>
        <time>2022-07-23T14:33:16Z</time>
      </trkpt>
      <trkpt lat="42.6929790" lon="-0.0460090">
        <ele>2905.2</ele>
        <time>2022-07-23T14:33:20Z</time>
      </trkpt>
      <trkpt lat="42.6929870" lon="-0.0460220">
        <ele>2905.8</ele>
        <time>2022-07-23T14:33:23Z</time>
      </trkpt>
      <trkpt lat="42.6930090" lon="-0.0460370">
        <ele>2906.2</ele>
        <time>2022-07-23T14:33:26Z</time>
      </trkpt>
      <trkpt lat="42.6930120" lon="-0.0460750">
        <ele>2907.8</ele>
        <time>2022-07-23T14:33:34Z</time>
      </trkpt>
      <trkpt lat="42.6930100" lon="-0.0460720">
        <ele>2907.8</ele>
        <time>2022-07-23T14:33:36Z</time>
      </trkpt>
      <trkpt lat="42.6930180" lon="-0.0460940">
        <ele>2909.0</ele>
        <time>2022-07-23T14:33:42Z</time>
      </trkpt>
      <trkpt lat="42.6930160" lon="-0.0461100">
        <ele>2909.2</ele>
        <time>2022-07-23T14:33:47Z</time>
      </trkpt>
      <trkpt lat="42.6930180" lon="-0.0461180">
        <ele>2909.4</ele>
        <time>2022-07-23T14:33:48Z</time>
      </trkpt>
      <trkpt lat="42.6930230" lon="-0.0461310">
        <ele>2909.6</ele>
        <time>2022-07-23T14:33:50Z</time>
      </trkpt>
      <trkpt lat="42.6930270" lon="-0.0461350">
        <ele>2909.8</ele>
        <time>2022-07-23T14:33:51Z</time>
      </trkpt>
      <trkpt lat="42.6930320" lon="-0.0461300">
        <ele>2910.2</ele>
        <time>2022-07-23T14:33:52Z</time>
      </trkpt>
      <trkpt lat="42.6930490" lon="-0.0461330">
        <ele>2910.6</ele>
        <time>2022-07-23T14:33:57Z</time>
      </trkpt>
      <trkpt lat="42.6930540" lon="-0.0461380">
        <ele>2910.8</ele>
        <time>2022-07-23T14:34:02Z</time>
      </trkpt>
      <trkpt lat="42.6930570" lon="-0.0461470">
        <ele>2910.6</ele>
        <time>2022-07-23T14:34:05Z</time>
      </trkpt>
      <trkpt lat="42.6930570" lon="-0.0461510">
        <ele>2910.6</ele>
        <time>2022-07-23T14:34:06Z</time>
      </trkpt>
      <trkpt lat="42.6930550" lon="-0.0461550">
        <ele>2910.8</ele>
        <time>2022-07-23T14:34:07Z</time>
      </trkpt>
      <trkpt lat="42.6930550" lon="-0.0461590">
        <ele>2910.6</ele>
        <time>2022-07-23T14:34:08Z</time>
      </trkpt>
      <trkpt lat="42.6930550" lon="-0.0461640">
        <ele>2910.6</ele>
        <time>2022-07-23T14:34:09Z</time>
      </trkpt>
      <trkpt lat="42.6930560" lon="-0.0461950">
        <ele>2910.6</ele>
        <time>2022-07-23T14:34:14Z</time>
      </trkpt>
      <trkpt lat="42.6930690" lon="-0.0462160">
        <ele>2912.2</ele>
        <time>2022-07-23T14:34:18Z</time>
      </trkpt>
      <trkpt lat="42.6930720" lon="-0.0462210">
        <ele>2912.6</ele>
        <time>2022-07-23T14:34:20Z</time>
      </trkpt>
      <trkpt lat="42.6930760" lon="-0.0462250">
        <ele>2912.8</ele>
        <time>2022-07-23T14:34:22Z</time>
      </trkpt>
      <trkpt lat="42.6930780" lon="-0.0462300">
        <ele>2913.2</ele>
        <time>2022-07-23T14:34:23Z</time>
      </trkpt>
      <trkpt lat="42.6931000" lon="-0.0462400">
        <ele>2914.2</ele>
        <time>2022-07-23T14:34:28Z</time>
      </trkpt>
      <trkpt lat="42.6930930" lon="-0.0462410">
        <ele>2915.2</ele>
        <time>2022-07-23T14:34:32Z</time>
      </trkpt>
      <trkpt lat="42.6930890" lon="-0.0462510">
        <ele>2915.8</ele>
        <time>2022-07-23T14:34:34Z</time>
      </trkpt>
      <trkpt lat="42.6930910" lon="-0.0462570">
        <ele>2916.0</ele>
        <time>2022-07-23T14:34:35Z</time>
      </trkpt>
      <trkpt lat="42.6930920" lon="-0.0462650">
        <ele>2916.6</ele>
        <time>2022-07-23T14:34:36Z</time>
      </trkpt>
      <trkpt lat="42.6930910" lon="-0.0462900">
        <ele>2917.0</ele>
        <time>2022-07-23T14:34:39Z</time>
      </trkpt>
      <trkpt lat="42.6931120" lon="-0.0463660">
        <ele>2918.2</ele>
        <time>2022-07-23T14:34:50Z</time>
      </trkpt>
      <trkpt lat="42.6931080" lon="-0.0463770">
        <ele>2918.2</ele>
        <time>2022-07-23T14:34:52Z</time>
      </trkpt>
      <trkpt lat="42.6931420" lon="-0.0464040">
        <ele>2918.6</ele>
        <time>2022-07-23T14:34:58Z</time>
      </trkpt>
      <trkpt lat="42.6931690" lon="-0.0464250">
        <ele>2920.2</ele>
        <time>2022-07-23T14:35:05Z</time>
      </trkpt>
      <trkpt lat="42.6931720" lon="-0.0464300">
        <ele>2920.2</ele>
        <time>2022-07-23T14:35:06Z</time>
      </trkpt>
      <trkpt lat="42.6931780" lon="-0.0464290">
        <ele>2921.0</ele>
        <time>2022-07-23T14:35:11Z</time>
      </trkpt>
      <trkpt lat="42.6931760" lon="-0.0464310">
        <ele>2921.4</ele>
        <time>2022-07-23T14:35:12Z</time>
      </trkpt>
      <trkpt lat="42.6931630" lon="-0.0464520">
        <ele>2922.6</ele>
        <time>2022-07-23T14:35:18Z</time>
      </trkpt>
      <trkpt lat="42.6931700" lon="-0.0464630">
        <ele>2922.6</ele>
        <time>2022-07-23T14:35:20Z</time>
      </trkpt>
      <trkpt lat="42.6932190" lon="-0.0465180">
        <ele>2924.4</ele>
        <time>2022-07-23T14:35:29Z</time>
      </trkpt>
      <trkpt lat="42.6932290" lon="-0.0465380">
        <ele>2924.8</ele>
        <time>2022-07-23T14:35:32Z</time>
      </trkpt>
      <trkpt lat="42.6932310" lon="-0.0465790">
        <ele>2925.2</ele>
        <time>2022-07-23T14:35:38Z</time>
      </trkpt>
      <trkpt lat="42.6932260" lon="-0.0466040">
        <ele>2926.4</ele>
        <time>2022-07-23T14:35:43Z</time>
      </trkpt>
      <trkpt lat="42.6932290" lon="-0.0466180">
        <ele>2927.4</ele>
        <time>2022-07-23T14:35:48Z</time>
      </trkpt>
      <trkpt lat="42.6932330" lon="-0.0466340">
        <ele>2928.2</ele>
        <time>2022-07-23T14:35:53Z</time>
      </trkpt>
      <trkpt lat="42.6932420" lon="-0.0466490">
        <ele>2928.6</ele>
        <time>2022-07-23T14:35:56Z</time>
      </trkpt>
      <trkpt lat="42.6932450" lon="-0.0466540">
        <ele>2928.8</ele>
        <time>2022-07-23T14:35:57Z</time>
      </trkpt>
      <trkpt lat="42.6932490" lon="-0.0466580">
        <ele>2929.2</ele>
        <time>2022-07-23T14:35:58Z</time>
      </trkpt>
      <trkpt lat="42.6932520" lon="-0.0466700">
        <ele>2929.8</ele>
        <time>2022-07-23T14:36:00Z</time>
      </trkpt>
      <trkpt lat="42.6932530" lon="-0.0466830">
        <ele>2930.4</ele>
        <time>2022-07-23T14:36:02Z</time>
      </trkpt>
      <trkpt lat="42.6932490" lon="-0.0466870">
        <ele>2931.0</ele>
        <time>2022-07-23T14:36:04Z</time>
      </trkpt>
      <trkpt lat="42.6932360" lon="-0.0467130">
        <ele>2931.4</ele>
        <time>2022-07-23T14:36:09Z</time>
      </trkpt>
      <trkpt lat="42.6932380" lon="-0.0467170">
        <ele>2931.4</ele>
        <time>2022-07-23T14:36:10Z</time>
      </trkpt>
      <trkpt lat="42.6932390" lon="-0.0467220">
        <ele>2931.6</ele>
        <time>2022-07-23T14:36:11Z</time>
      </trkpt>
      <trkpt lat="42.6932480" lon="-0.0467400">
        <ele>2932.0</ele>
        <time>2022-07-23T14:36:13Z</time>
      </trkpt>
      <trkpt lat="42.6932520" lon="-0.0467470">
        <ele>2932.2</ele>
        <time>2022-07-23T14:36:14Z</time>
      </trkpt>
      <trkpt lat="42.6932630" lon="-0.0467970">
        <ele>2932.8</ele>
        <time>2022-07-23T14:36:19Z</time>
      </trkpt>
      <trkpt lat="42.6932680" lon="-0.0468060">
        <ele>2933.0</ele>
        <time>2022-07-23T14:36:20Z</time>
      </trkpt>
      <trkpt lat="42.6933100" lon="-0.0468770">
        <ele>2934.4</ele>
        <time>2022-07-23T14:36:29Z</time>
      </trkpt>
      <trkpt lat="42.6933420" lon="-0.0469410">
        <ele>2935.2</ele>
        <time>2022-07-23T14:36:40Z</time>
      </trkpt>
      <trkpt lat="42.6933450" lon="-0.0469480">
        <ele>2935.4</ele>
        <time>2022-07-23T14:36:41Z</time>
      </trkpt>
      <trkpt lat="42.6933490" lon="-0.0469530">
        <ele>2935.4</ele>
        <time>2022-07-23T14:36:42Z</time>
      </trkpt>
      <trkpt lat="42.6933640" lon="-0.0469700">
        <ele>2936.2</ele>
        <time>2022-07-23T14:36:47Z</time>
      </trkpt>
      <trkpt lat="42.6933630" lon="-0.0469850">
        <ele>2936.6</ele>
        <time>2022-07-23T14:36:51Z</time>
      </trkpt>
      <trkpt lat="42.6933620" lon="-0.0469920">
        <ele>2936.8</ele>
        <time>2022-07-23T14:36:52Z</time>
      </trkpt>
      <trkpt lat="42.6933550" lon="-0.0470380">
        <ele>2938.4</ele>
        <time>2022-07-23T14:37:00Z</time>
      </trkpt>
      <trkpt lat="42.6933720" lon="-0.0470650">
        <ele>2939.6</ele>
        <time>2022-07-23T14:37:05Z</time>
      </trkpt>
      <trkpt lat="42.6933740" lon="-0.0471090">
        <ele>2940.6</ele>
        <time>2022-07-23T14:37:13Z</time>
      </trkpt>
      <trkpt lat="42.6934000" lon="-0.0471320">
        <ele>2941.2</ele>
        <time>2022-07-23T14:37:18Z</time>
      </trkpt>
      <trkpt lat="42.6934250" lon="-0.0471410">
        <ele>2942.0</ele>
        <time>2022-07-23T14:37:24Z</time>
      </trkpt>
      <trkpt lat="42.6934340" lon="-0.0471480">
        <ele>2942.2</ele>
        <time>2022-07-23T14:37:27Z</time>
      </trkpt>
      <trkpt lat="42.6934560" lon="-0.0471770">
        <ele>2943.4</ele>
        <time>2022-07-23T14:37:33Z</time>
      </trkpt>
      <trkpt lat="42.6934580" lon="-0.0471800">
        <ele>2943.4</ele>
        <time>2022-07-23T14:37:34Z</time>
      </trkpt>
      <trkpt lat="42.6934590" lon="-0.0471830">
        <ele>2943.4</ele>
        <time>2022-07-23T14:37:36Z</time>
      </trkpt>
      <trkpt lat="42.6934570" lon="-0.0471770">
        <ele>2943.8</ele>
        <time>2022-07-23T14:37:37Z</time>
      </trkpt>
      <trkpt lat="42.6934140" lon="-0.0471600">
        <ele>2944.4</ele>
        <time>2022-07-23T14:37:42Z</time>
      </trkpt>
      <trkpt lat="42.6934020" lon="-0.0471630">
        <ele>2944.4</ele>
        <time>2022-07-23T14:37:43Z</time>
      </trkpt>
      <trkpt lat="42.6934200" lon="-0.0472110">
        <ele>2946.2</ele>
        <time>2022-07-23T14:37:51Z</time>
      </trkpt>
      <trkpt lat="42.6934770" lon="-0.0472450">
        <ele>2947.4</ele>
        <time>2022-07-23T14:38:00Z</time>
      </trkpt>
      <trkpt lat="42.6934940" lon="-0.0472440">
        <ele>2947.8</ele>
        <time>2022-07-23T14:38:05Z</time>
      </trkpt>
      <trkpt lat="42.6935150" lon="-0.0472710">
        <ele>2948.8</ele>
        <time>2022-07-23T14:38:15Z</time>
      </trkpt>
      <trkpt lat="42.6935330" lon="-0.0472900">
        <ele>2949.2</ele>
        <time>2022-07-23T14:38:19Z</time>
      </trkpt>
      <trkpt lat="42.6935380" lon="-0.0472920">
        <ele>2949.4</ele>
        <time>2022-07-23T14:38:20Z</time>
      </trkpt>
      <trkpt lat="42.6935470" lon="-0.0472980">
        <ele>2949.8</ele>
        <time>2022-07-23T14:38:22Z</time>
      </trkpt>
      <trkpt lat="42.6935510" lon="-0.0473050">
        <ele>2949.8</ele>
        <time>2022-07-23T14:38:23Z</time>
      </trkpt>
      <trkpt lat="42.6935480" lon="-0.0473260">
        <ele>2950.8</ele>
        <time>2022-07-23T14:38:27Z</time>
      </trkpt>
      <trkpt lat="42.6935250" lon="-0.0473420">
        <ele>2951.8</ele>
        <time>2022-07-23T14:38:31Z</time>
      </trkpt>
      <trkpt lat="42.6935220" lon="-0.0473510">
        <ele>2952.6</ele>
        <time>2022-07-23T14:38:33Z</time>
      </trkpt>
      <trkpt lat="42.6935520" lon="-0.0473810">
        <ele>2954.8</ele>
        <time>2022-07-23T14:38:41Z</time>
      </trkpt>
      <trkpt lat="42.6935610" lon="-0.0473920">
        <ele>2955.2</ele>
        <time>2022-07-23T14:38:43Z</time>
      </trkpt>
      <trkpt lat="42.6935640" lon="-0.0473970">
        <ele>2955.4</ele>
        <time>2022-07-23T14:38:44Z</time>
      </trkpt>
      <trkpt lat="42.6935670" lon="-0.0474050">
        <ele>2955.4</ele>
        <time>2022-07-23T14:38:45Z</time>
      </trkpt>
      <trkpt lat="42.6935630" lon="-0.0474270">
        <ele>2956.0</ele>
        <time>2022-07-23T14:38:50Z</time>
      </trkpt>
      <trkpt lat="42.6935550" lon="-0.0474320">
        <ele>2956.4</ele>
        <time>2022-07-23T14:38:52Z</time>
      </trkpt>
      <trkpt lat="42.6935490" lon="-0.0474500">
        <ele>2956.6</ele>
        <time>2022-07-23T14:38:55Z</time>
      </trkpt>
      <trkpt lat="42.6935480" lon="-0.0474570">
        <ele>2957.0</ele>
        <time>2022-07-23T14:38:56Z</time>
      </trkpt>
      <trkpt lat="42.6935670" lon="-0.0475030">
        <ele>2958.8</ele>
        <time>2022-07-23T14:39:04Z</time>
      </trkpt>
      <trkpt lat="42.6935750" lon="-0.0475400">
        <ele>2959.4</ele>
        <time>2022-07-23T14:39:10Z</time>
      </trkpt>
      <trkpt lat="42.6935760" lon="-0.0475470">
        <ele>2959.8</ele>
        <time>2022-07-23T14:39:11Z</time>
      </trkpt>
      <trkpt lat="42.6935760" lon="-0.0475520">
        <ele>2959.8</ele>
        <time>2022-07-23T14:39:12Z</time>
      </trkpt>
      <trkpt lat="42.6935850" lon="-0.0475820">
        <ele>2961.4</ele>
        <time>2022-07-23T14:39:17Z</time>
      </trkpt>
      <trkpt lat="42.6936270" lon="-0.0476340">
        <ele>2962.8</ele>
        <time>2022-07-23T14:39:27Z</time>
      </trkpt>
      <trkpt lat="42.6936260" lon="-0.0476460">
        <ele>2963.2</ele>
        <time>2022-07-23T14:39:29Z</time>
      </trkpt>
      <trkpt lat="42.6936110" lon="-0.0476780">
        <ele>2963.8</ele>
        <time>2022-07-23T14:39:36Z</time>
      </trkpt>
      <trkpt lat="42.6935960" lon="-0.0476940">
        <ele>2964.4</ele>
        <time>2022-07-23T14:39:40Z</time>
      </trkpt>
      <trkpt lat="42.6935920" lon="-0.0477000">
        <ele>2964.8</ele>
        <time>2022-07-23T14:39:41Z</time>
      </trkpt>
      <trkpt lat="42.6935900" lon="-0.0477040">
        <ele>2965.0</ele>
        <time>2022-07-23T14:39:42Z</time>
      </trkpt>
      <trkpt lat="42.6935850" lon="-0.0477190">
        <ele>2966.4</ele>
        <time>2022-07-23T14:39:45Z</time>
      </trkpt>
      <trkpt lat="42.6935940" lon="-0.0477390">
        <ele>2967.0</ele>
        <time>2022-07-23T14:39:49Z</time>
      </trkpt>
      <trkpt lat="42.6936240" lon="-0.0477740">
        <ele>2968.2</ele>
        <time>2022-07-23T14:39:57Z</time>
      </trkpt>
      <trkpt lat="42.6936380" lon="-0.0477910">
        <ele>2968.6</ele>
        <time>2022-07-23T14:40:01Z</time>
      </trkpt>
      <trkpt lat="42.6936480" lon="-0.0477950">
        <ele>2968.6</ele>
        <time>2022-07-23T14:40:03Z</time>
      </trkpt>
      <trkpt lat="42.6936580" lon="-0.0477880">
        <ele>2968.6</ele>
        <time>2022-07-23T14:40:06Z</time>
      </trkpt>
      <trkpt lat="42.6936860" lon="-0.0478080">
        <ele>2969.8</ele>
        <time>2022-07-23T14:40:15Z</time>
      </trkpt>
      <trkpt lat="42.6937190" lon="-0.0478460">
        <ele>2970.4</ele>
        <time>2022-07-23T14:40:21Z</time>
      </trkpt>
      <trkpt lat="42.6937420" lon="-0.0478550">
        <ele>2971.0</ele>
        <time>2022-07-23T14:40:25Z</time>
      </trkpt>
      <trkpt lat="42.6937480" lon="-0.0478540">
        <ele>2971.2</ele>
        <time>2022-07-23T14:40:26Z</time>
      </trkpt>
      <trkpt lat="42.6937550" lon="-0.0478550">
        <ele>2971.2</ele>
        <time>2022-07-23T14:40:27Z</time>
      </trkpt>
      <trkpt lat="42.6937730" lon="-0.0478470">
        <ele>2971.4</ele>
        <time>2022-07-23T14:40:30Z</time>
      </trkpt>
      <trkpt lat="42.6937940" lon="-0.0478330">
        <ele>2972.0</ele>
        <time>2022-07-23T14:40:33Z</time>
      </trkpt>
      <trkpt lat="42.6938300" lon="-0.0478670">
        <ele>2974.0</ele>
        <time>2022-07-23T14:40:42Z</time>
      </trkpt>
      <trkpt lat="42.6938250" lon="-0.0478880">
        <ele>2974.8</ele>
        <time>2022-07-23T14:40:46Z</time>
      </trkpt>
      <trkpt lat="42.6938210" lon="-0.0478880">
        <ele>2974.8</ele>
        <time>2022-07-23T14:40:47Z</time>
      </trkpt>
      <trkpt lat="42.6937890" lon="-0.0479190">
        <ele>2976.2</ele>
        <time>2022-07-23T14:40:54Z</time>
      </trkpt>
      <trkpt lat="42.6937810" lon="-0.0479470">
        <ele>2977.2</ele>
        <time>2022-07-23T14:41:00Z</time>
      </trkpt>
      <trkpt lat="42.6937950" lon="-0.0479510">
        <ele>2977.6</ele>
        <time>2022-07-23T14:41:03Z</time>
      </trkpt>
      <trkpt lat="42.6938320" lon="-0.0479400">
        <ele>2978.6</ele>
        <time>2022-07-23T14:41:08Z</time>
      </trkpt>
      <trkpt lat="42.6938520" lon="-0.0479470">
        <ele>2978.8</ele>
        <time>2022-07-23T14:41:10Z</time>
      </trkpt>
      <trkpt lat="42.6938660" lon="-0.0479720">
        <ele>2979.6</ele>
        <time>2022-07-23T14:41:14Z</time>
      </trkpt>
      <trkpt lat="42.6938600" lon="-0.0479990">
        <ele>2981.0</ele>
        <time>2022-07-23T14:41:19Z</time>
      </trkpt>
      <trkpt lat="42.6938440" lon="-0.0480460">
        <ele>2982.4</ele>
        <time>2022-07-23T14:41:27Z</time>
      </trkpt>
      <trkpt lat="42.6938120" lon="-0.0481050">
        <ele>2983.2</ele>
        <time>2022-07-23T14:41:35Z</time>
      </trkpt>
      <trkpt lat="42.6938110" lon="-0.0481140">
        <ele>2983.6</ele>
        <time>2022-07-23T14:41:36Z</time>
      </trkpt>
      <trkpt lat="42.6938050" lon="-0.0481390">
        <ele>2984.0</ele>
        <time>2022-07-23T14:41:40Z</time>
      </trkpt>
      <trkpt lat="42.6938030" lon="-0.0481430">
        <ele>2984.2</ele>
        <time>2022-07-23T14:41:41Z</time>
      </trkpt>
      <trkpt lat="42.6938010" lon="-0.0481580">
        <ele>2984.6</ele>
        <time>2022-07-23T14:41:44Z</time>
      </trkpt>
      <trkpt lat="42.6938030" lon="-0.0482170">
        <ele>2988.0</ele>
        <time>2022-07-23T14:41:53Z</time>
      </trkpt>
      <trkpt lat="42.6938050" lon="-0.0482240">
        <ele>2988.2</ele>
        <time>2022-07-23T14:41:54Z</time>
      </trkpt>
      <trkpt lat="42.6938030" lon="-0.0482380">
        <ele>2988.6</ele>
        <time>2022-07-23T14:41:56Z</time>
      </trkpt>
      <trkpt lat="42.6938050" lon="-0.0482620">
        <ele>2989.0</ele>
        <time>2022-07-23T14:41:59Z</time>
      </trkpt>
      <trkpt lat="42.6938050" lon="-0.0482830">
        <ele>2989.2</ele>
        <time>2022-07-23T14:42:01Z</time>
      </trkpt>
      <trkpt lat="42.6938010" lon="-0.0483280">
        <ele>2989.6</ele>
        <time>2022-07-23T14:42:05Z</time>
      </trkpt>
      <trkpt lat="42.6938040" lon="-0.0483410">
        <ele>2989.6</ele>
        <time>2022-07-23T14:42:06Z</time>
      </trkpt>
      <trkpt lat="42.6938070" lon="-0.0483500">
        <ele>2989.6</ele>
        <time>2022-07-23T14:42:07Z</time>
      </trkpt>
      <trkpt lat="42.6938190" lon="-0.0483640">
        <ele>2990.0</ele>
        <time>2022-07-23T14:42:09Z</time>
      </trkpt>
      <trkpt lat="42.6938230" lon="-0.0483660">
        <ele>2990.0</ele>
        <time>2022-07-23T14:42:10Z</time>
      </trkpt>
      <trkpt lat="42.6938280" lon="-0.0483840">
        <ele>2990.6</ele>
        <time>2022-07-23T14:42:14Z</time>
      </trkpt>
      <trkpt lat="42.6938170" lon="-0.0484730">
        <ele>2991.8</ele>
        <time>2022-07-23T14:42:26Z</time>
      </trkpt>
      <trkpt lat="42.6938150" lon="-0.0485060">
        <ele>2992.0</ele>
        <time>2022-07-23T14:42:30Z</time>
      </trkpt>
      <trkpt lat="42.6938180" lon="-0.0486260">
        <ele>2992.8</ele>
        <time>2022-07-23T14:42:43Z</time>
      </trkpt>
      <trkpt lat="42.6938160" lon="-0.0486380">
        <ele>2993.0</ele>
        <time>2022-07-23T14:42:44Z</time>
      </trkpt>
      <trkpt lat="42.6938280" lon="-0.0487430">
        <ele>2994.2</ele>
        <time>2022-07-23T14:42:54Z</time>
      </trkpt>
      <trkpt lat="42.6938270" lon="-0.0487830">
        <ele>2994.8</ele>
        <time>2022-07-23T14:42:59Z</time>
      </trkpt>
      <trkpt lat="42.6938250" lon="-0.0487950">
        <ele>2994.8</ele>
        <time>2022-07-23T14:43:01Z</time>
      </trkpt>
      <trkpt lat="42.6938230" lon="-0.0488080">
        <ele>2995.6</ele>
        <time>2022-07-23T14:43:04Z</time>
      </trkpt>
      <trkpt lat="42.6938230" lon="-0.0488160">
        <ele>2996.0</ele>
        <time>2022-07-23T14:43:06Z</time>
      </trkpt>
      <trkpt lat="42.6938250" lon="-0.0488300">
        <ele>2996.6</ele>
        <time>2022-07-23T14:43:09Z</time>
      </trkpt>
      <trkpt lat="42.6938370" lon="-0.0488960">
        <ele>2997.4</ele>
        <time>2022-07-23T14:43:16Z</time>
      </trkpt>
      <trkpt lat="42.6938390" lon="-0.0489020">
        <ele>2997.4</ele>
        <time>2022-07-23T14:43:17Z</time>
      </trkpt>
      <trkpt lat="42.6938410" lon="-0.0489090">
        <ele>2997.6</ele>
        <time>2022-07-23T14:43:18Z</time>
      </trkpt>
      <trkpt lat="42.6938400" lon="-0.0489160">
        <ele>2998.0</ele>
        <time>2022-07-23T14:43:19Z</time>
      </trkpt>
      <trkpt lat="42.6938400" lon="-0.0489560">
        <ele>2998.6</ele>
        <time>2022-07-23T14:43:23Z</time>
      </trkpt>
      <trkpt lat="42.6938570" lon="-0.0490190">
        <ele>3000.0</ele>
        <time>2022-07-23T14:43:30Z</time>
      </trkpt>
      <trkpt lat="42.6938420" lon="-0.0490840">
        <ele>3002.0</ele>
        <time>2022-07-23T14:43:38Z</time>
      </trkpt>
      <trkpt lat="42.6938410" lon="-0.0490940">
        <ele>3002.2</ele>
        <time>2022-07-23T14:43:39Z</time>
      </trkpt>
      <trkpt lat="42.6938480" lon="-0.0491480">
        <ele>3002.6</ele>
        <time>2022-07-23T14:43:46Z</time>
      </trkpt>
      <trkpt lat="42.6938520" lon="-0.0491860">
        <ele>3003.4</ele>
        <time>2022-07-23T14:43:51Z</time>
      </trkpt>
      <trkpt lat="42.6938540" lon="-0.0491920">
        <ele>3003.4</ele>
        <time>2022-07-23T14:43:52Z</time>
      </trkpt>
      <trkpt lat="42.6938560" lon="-0.0492040">
        <ele>3003.8</ele>
        <time>2022-07-23T14:43:54Z</time>
      </trkpt>
      <trkpt lat="42.6938470" lon="-0.0492520">
        <ele>3005.2</ele>
        <time>2022-07-23T14:44:01Z</time>
      </trkpt>
      <trkpt lat="42.6938530" lon="-0.0493170">
        <ele>3006.6</ele>
        <time>2022-07-23T14:44:09Z</time>
      </trkpt>
      <trkpt lat="42.6938520" lon="-0.0493220">
        <ele>3006.6</ele>
        <time>2022-07-23T14:44:10Z</time>
      </trkpt>
      <trkpt lat="42.6938460" lon="-0.0493960">
        <ele>3007.8</ele>
        <time>2022-07-23T14:44:20Z</time>
      </trkpt>
      <trkpt lat="42.6938460" lon="-0.0494150">
        <ele>3008.2</ele>
        <time>2022-07-23T14:44:23Z</time>
      </trkpt>
      <trkpt lat="42.6938370" lon="-0.0494550">
        <ele>3009.2</ele>
        <time>2022-07-23T14:44:28Z</time>
      </trkpt>
      <trkpt lat="42.6938350" lon="-0.0494640">
        <ele>3009.6</ele>
        <time>2022-07-23T14:44:29Z</time>
      </trkpt>
      <trkpt lat="42.6938340" lon="-0.0494800">
        <ele>3009.8</ele>
        <time>2022-07-23T14:44:31Z</time>
      </trkpt>
      <trkpt lat="42.6938350" lon="-0.0495150">
        <ele>3010.4</ele>
        <time>2022-07-23T14:44:35Z</time>
      </trkpt>
      <trkpt lat="42.6938340" lon="-0.0495260">
        <ele>3010.6</ele>
        <time>2022-07-23T14:44:36Z</time>
      </trkpt>
      <trkpt lat="42.6938440" lon="-0.0495700">
        <ele>3011.4</ele>
        <time>2022-07-23T14:44:42Z</time>
      </trkpt>
      <trkpt lat="42.6938430" lon="-0.0495840">
        <ele>3011.8</ele>
        <time>2022-07-23T14:44:44Z</time>
      </trkpt>
      <trkpt lat="42.6938270" lon="-0.0496220">
        <ele>3012.6</ele>
        <time>2022-07-23T14:44:51Z</time>
      </trkpt>
      <trkpt lat="42.6938270" lon="-0.0496350">
        <ele>3013.0</ele>
        <time>2022-07-23T14:44:53Z</time>
      </trkpt>
      <trkpt lat="42.6938310" lon="-0.0496490">
        <ele>3013.4</ele>
        <time>2022-07-23T14:44:55Z</time>
      </trkpt>
      <trkpt lat="42.6938410" lon="-0.0497060">
        <ele>3014.6</ele>
        <time>2022-07-23T14:45:02Z</time>
      </trkpt>
      <trkpt lat="42.6938470" lon="-0.0497610">
        <ele>3015.8</ele>
        <time>2022-07-23T14:45:09Z</time>
      </trkpt>
      <trkpt lat="42.6938460" lon="-0.0497720">
        <ele>3016.2</ele>
        <time>2022-07-23T14:45:12Z</time>
      </trkpt>
      <trkpt lat="42.6938400" lon="-0.0497880">
        <ele>3016.2</ele>
        <time>2022-07-23T14:45:15Z</time>
      </trkpt>
      <trkpt lat="42.6938280" lon="-0.0498470">
        <ele>3017.6</ele>
        <time>2022-07-23T14:45:22Z</time>
      </trkpt>
      <trkpt lat="42.6938040" lon="-0.0499020">
        <ele>3018.6</ele>
        <time>2022-07-23T14:45:27Z</time>
      </trkpt>
      <trkpt lat="42.6938020" lon="-0.0499390">
        <ele>3019.0</ele>
        <time>2022-07-23T14:45:31Z</time>
      </trkpt>
      <trkpt lat="42.6938050" lon="-0.0499940">
        <ele>3019.8</ele>
        <time>2022-07-23T14:45:39Z</time>
      </trkpt>
      <trkpt lat="42.6937830" lon="-0.0500400">
        <ele>3021.0</ele>
        <time>2022-07-23T14:45:44Z</time>
      </trkpt>
      <trkpt lat="42.6937810" lon="-0.0500470">
        <ele>3021.4</ele>
        <time>2022-07-23T14:45:45Z</time>
      </trkpt>
      <trkpt lat="42.6937820" lon="-0.0500820">
        <ele>3022.2</ele>
        <time>2022-07-23T14:45:49Z</time>
      </trkpt>
      <trkpt lat="42.6937770" lon="-0.0501740">
        <ele>3024.0</ele>
        <time>2022-07-23T14:46:00Z</time>
      </trkpt>
      <trkpt lat="42.6937680" lon="-0.0501870">
        <ele>3024.2</ele>
        <time>2022-07-23T14:46:02Z</time>
      </trkpt>
      <trkpt lat="42.6937600" lon="-0.0502410">
        <ele>3025.0</ele>
        <time>2022-07-23T14:46:09Z</time>
      </trkpt>
      <trkpt lat="42.6937400" lon="-0.0502880">
        <ele>3026.2</ele>
        <time>2022-07-23T14:46:16Z</time>
      </trkpt>
      <trkpt lat="42.6937360" lon="-0.0503010">
        <ele>3027.2</ele>
        <time>2022-07-23T14:46:19Z</time>
      </trkpt>
      <trkpt lat="42.6937360" lon="-0.0503060">
        <ele>3027.6</ele>
        <time>2022-07-23T14:46:21Z</time>
      </trkpt>
      <trkpt lat="42.6937470" lon="-0.0503400">
        <ele>3028.8</ele>
        <time>2022-07-23T14:46:28Z</time>
      </trkpt>
      <trkpt lat="42.6937420" lon="-0.0503860">
        <ele>3030.2</ele>
        <time>2022-07-23T14:46:36Z</time>
      </trkpt>
      <trkpt lat="42.6937330" lon="-0.0504050">
        <ele>3030.8</ele>
        <time>2022-07-23T14:46:39Z</time>
      </trkpt>
      <trkpt lat="42.6937300" lon="-0.0504310">
        <ele>3031.8</ele>
        <time>2022-07-23T14:46:43Z</time>
      </trkpt>
      <trkpt lat="42.6937290" lon="-0.0504360">
        <ele>3031.8</ele>
        <time>2022-07-23T14:46:44Z</time>
      </trkpt>
      <trkpt lat="42.6937320" lon="-0.0504470">
        <ele>3032.6</ele>
        <time>2022-07-23T14:46:46Z</time>
      </trkpt>
      <trkpt lat="42.6937360" lon="-0.0504750">
        <ele>3033.2</ele>
        <time>2022-07-23T14:46:50Z</time>
      </trkpt>
      <trkpt lat="42.6937370" lon="-0.0505310">
        <ele>3034.4</ele>
        <time>2022-07-23T14:46:57Z</time>
      </trkpt>
      <trkpt lat="42.6937210" lon="-0.0505550">
        <ele>3035.2</ele>
        <time>2022-07-23T14:47:00Z</time>
      </trkpt>
      <trkpt lat="42.6937040" lon="-0.0505730">
        <ele>3035.6</ele>
        <time>2022-07-23T14:47:03Z</time>
      </trkpt>
      <trkpt lat="42.6937060" lon="-0.0505810">
        <ele>3035.8</ele>
        <time>2022-07-23T14:47:04Z</time>
      </trkpt>
      <trkpt lat="42.6937070" lon="-0.0505950">
        <ele>3036.2</ele>
        <time>2022-07-23T14:47:06Z</time>
      </trkpt>
      <trkpt lat="42.6937030" lon="-0.0506060">
        <ele>3036.4</ele>
        <time>2022-07-23T14:47:08Z</time>
      </trkpt>
      <trkpt lat="42.6936960" lon="-0.0506420">
        <ele>3037.2</ele>
        <time>2022-07-23T14:47:12Z</time>
      </trkpt>
      <trkpt lat="42.6936930" lon="-0.0506610">
        <ele>3037.6</ele>
        <time>2022-07-23T14:47:14Z</time>
      </trkpt>
      <trkpt lat="42.6936950" lon="-0.0506680">
        <ele>3037.6</ele>
        <time>2022-07-23T14:47:15Z</time>
      </trkpt>
      <trkpt lat="42.6937030" lon="-0.0507110">
        <ele>3038.6</ele>
        <time>2022-07-23T14:47:20Z</time>
      </trkpt>
      <trkpt lat="42.6937040" lon="-0.0507400">
        <ele>3039.0</ele>
        <time>2022-07-23T14:47:23Z</time>
      </trkpt>
      <trkpt lat="42.6937040" lon="-0.0507480">
        <ele>3039.2</ele>
        <time>2022-07-23T14:47:24Z</time>
      </trkpt>
      <trkpt lat="42.6936980" lon="-0.0507530">
        <ele>3039.8</ele>
        <time>2022-07-23T14:47:28Z</time>
      </trkpt>
      <trkpt lat="42.6936960" lon="-0.0507710">
        <ele>3040.2</ele>
        <time>2022-07-23T14:47:30Z</time>
      </trkpt>
      <trkpt lat="42.6936920" lon="-0.0507820">
        <ele>3040.6</ele>
        <time>2022-07-23T14:47:32Z</time>
      </trkpt>
      <trkpt lat="42.6936840" lon="-0.0507910">
        <ele>3042.0</ele>
        <time>2022-07-23T14:47:37Z</time>
      </trkpt>
      <trkpt lat="42.6936780" lon="-0.0507980">
        <ele>3042.4</ele>
        <time>2022-07-23T14:47:39Z</time>
      </trkpt>
      <trkpt lat="42.6936630" lon="-0.0507950">
        <ele>3043.0</ele>
        <time>2022-07-23T14:47:42Z</time>
      </trkpt>
      <trkpt lat="42.6936440" lon="-0.0508670">
        <ele>3044.6</ele>
        <time>2022-07-23T14:47:49Z</time>
      </trkpt>
      <trkpt lat="42.6936400" lon="-0.0509060">
        <ele>3045.6</ele>
        <time>2022-07-23T14:47:52Z</time>
      </trkpt>
      <trkpt lat="42.6936400" lon="-0.0509180">
        <ele>3045.6</ele>
        <time>2022-07-23T14:47:53Z</time>
      </trkpt>
      <trkpt lat="42.6936420" lon="-0.0509290">
        <ele>3045.8</ele>
        <time>2022-07-23T14:47:54Z</time>
      </trkpt>
      <trkpt lat="42.6936540" lon="-0.0509690">
        <ele>3046.4</ele>
        <time>2022-07-23T14:47:57Z</time>
      </trkpt>
      <trkpt lat="42.6936540" lon="-0.0510190">
        <ele>3047.2</ele>
        <time>2022-07-23T14:48:01Z</time>
      </trkpt>
      <trkpt lat="42.6936440" lon="-0.0510760">
        <ele>3049.2</ele>
        <time>2022-07-23T14:48:07Z</time>
      </trkpt>
      <trkpt lat="42.6936420" lon="-0.0511100">
        <ele>3050.2</ele>
        <time>2022-07-23T14:48:11Z</time>
      </trkpt>
      <trkpt lat="42.6936440" lon="-0.0511240">
        <ele>3050.6</ele>
        <time>2022-07-23T14:48:13Z</time>
      </trkpt>
      <trkpt lat="42.6936510" lon="-0.0511890">
        <ele>3051.8</ele>
        <time>2022-07-23T14:48:20Z</time>
      </trkpt>
      <trkpt lat="42.6936510" lon="-0.0512100">
        <ele>3052.4</ele>
        <time>2022-07-23T14:48:22Z</time>
      </trkpt>
      <trkpt lat="42.6936500" lon="-0.0512190">
        <ele>3052.6</ele>
        <time>2022-07-23T14:48:23Z</time>
      </trkpt>
      <trkpt lat="42.6936490" lon="-0.0512300">
        <ele>3052.8</ele>
        <time>2022-07-23T14:48:24Z</time>
      </trkpt>
      <trkpt lat="42.6936500" lon="-0.0512400">
        <ele>3052.8</ele>
        <time>2022-07-23T14:48:25Z</time>
      </trkpt>
      <trkpt lat="42.6936620" lon="-0.0512770">
        <ele>3053.6</ele>
        <time>2022-07-23T14:48:29Z</time>
      </trkpt>
      <trkpt lat="42.6937160" lon="-0.0513660">
        <ele>3056.4</ele>
        <time>2022-07-23T14:48:41Z</time>
      </trkpt>
      <trkpt lat="42.6937470" lon="-0.0513370">
        <ele>3056.6</ele>
        <time>2022-07-23T14:48:52Z</time>
      </trkpt>
      <trkpt lat="42.6937380" lon="-0.0513400">
        <ele>3056.6</ele>
        <time>2022-07-23T14:48:55Z</time>
      </trkpt>
      <trkpt lat="42.6937380" lon="-0.0513430">
        <ele>3057.4</ele>
        <time>2022-07-23T14:49:07Z</time>
      </trkpt>
      <trkpt lat="42.6937460" lon="-0.0513460">
        <ele>3058.0</ele>
        <time>2022-07-23T14:49:33Z</time>
      </trkpt>
      <trkpt lat="42.6937520" lon="-0.0513270">
        <ele>3057.8</ele>
        <time>2022-07-23T14:49:38Z</time>
      </trkpt>
      <trkpt lat="42.6937720" lon="-0.0512540">
        <ele>3056.4</ele>
        <time>2022-07-23T14:49:44Z</time>
      </trkpt>
      <trkpt lat="42.6937980" lon="-0.0511790">
        <ele>3055.0</ele>
        <time>2022-07-23T14:49:49Z</time>
      </trkpt>
      <trkpt lat="42.6938310" lon="-0.0510830">
        <ele>3054.4</ele>
        <time>2022-07-23T14:49:56Z</time>
      </trkpt>
      <trkpt lat="42.6938540" lon="-0.0510150">
        <ele>3054.2</ele>
        <time>2022-07-23T14:50:00Z</time>
      </trkpt>
      <trkpt lat="42.6939030" lon="-0.0508950">
        <ele>3053.8</ele>
        <time>2022-07-23T14:50:08Z</time>
      </trkpt>
      <trkpt lat="42.6939110" lon="-0.0508460">
        <ele>3053.6</ele>
        <time>2022-07-23T14:50:11Z</time>
      </trkpt>
      <trkpt lat="42.6939190" lon="-0.0507790">
        <ele>3053.2</ele>
        <time>2022-07-23T14:50:15Z</time>
      </trkpt>
      <trkpt lat="42.6939200" lon="-0.0507640">
        <ele>3053.2</ele>
        <time>2022-07-23T14:50:16Z</time>
      </trkpt>
      <trkpt lat="42.6939260" lon="-0.0507300">
        <ele>3052.8</ele>
        <time>2022-07-23T14:50:19Z</time>
      </trkpt>
      <trkpt lat="42.6939310" lon="-0.0507180">
        <ele>3051.8</ele>
        <time>2022-07-23T14:50:21Z</time>
      </trkpt>
      <trkpt lat="42.6939440" lon="-0.0506710">
        <ele>3050.8</ele>
        <time>2022-07-23T14:50:25Z</time>
      </trkpt>
      <trkpt lat="42.6939510" lon="-0.0506560">
        <ele>3050.6</ele>
        <time>2022-07-23T14:50:26Z</time>
      </trkpt>
      <trkpt lat="42.6940010" lon="-0.0505740">
        <ele>3048.8</ele>
        <time>2022-07-23T14:50:32Z</time>
      </trkpt>
      <trkpt lat="42.6940200" lon="-0.0505220">
        <ele>3048.6</ele>
        <time>2022-07-23T14:50:35Z</time>
      </trkpt>
      <trkpt lat="42.6940350" lon="-0.0504800">
        <ele>3048.4</ele>
        <time>2022-07-23T14:50:37Z</time>
      </trkpt>
      <trkpt lat="42.6940610" lon="-0.0503940">
        <ele>3048.0</ele>
        <time>2022-07-23T14:50:43Z</time>
      </trkpt>
      <trkpt lat="42.6940730" lon="-0.0503580">
        <ele>3047.8</ele>
        <time>2022-07-23T14:50:48Z</time>
      </trkpt>
      <trkpt lat="42.6940830" lon="-0.0503250">
        <ele>3048.2</ele>
        <time>2022-07-23T14:50:52Z</time>
      </trkpt>
      <trkpt lat="42.6940790" lon="-0.0503090">
        <ele>3048.4</ele>
        <time>2022-07-23T14:50:58Z</time>
      </trkpt>
      <trkpt lat="42.6940810" lon="-0.0503070">
        <ele>3048.6</ele>
        <time>2022-07-23T14:51:00Z</time>
      </trkpt>
      <trkpt lat="42.6940790" lon="-0.0503050">
        <ele>3048.6</ele>
        <time>2022-07-23T14:51:02Z</time>
      </trkpt>
      <trkpt lat="42.6940880" lon="-0.0502820">
        <ele>3048.4</ele>
        <time>2022-07-23T14:51:06Z</time>
      </trkpt>
      <trkpt lat="42.6941010" lon="-0.0502580">
        <ele>3048.2</ele>
        <time>2022-07-23T14:51:09Z</time>
      </trkpt>
      <trkpt lat="42.6941030" lon="-0.0502400">
        <ele>3048.4</ele>
        <time>2022-07-23T14:51:11Z</time>
      </trkpt>
      <trkpt lat="42.6941050" lon="-0.0502310">
        <ele>3048.4</ele>
        <time>2022-07-23T14:51:12Z</time>
      </trkpt>
      <trkpt lat="42.6941070" lon="-0.0502220">
        <ele>3048.4</ele>
        <time>2022-07-23T14:51:13Z</time>
      </trkpt>
      <trkpt lat="42.6941110" lon="-0.0502120">
        <ele>3048.4</ele>
        <time>2022-07-23T14:51:14Z</time>
      </trkpt>
      <trkpt lat="42.6941450" lon="-0.0501600">
        <ele>3048.4</ele>
        <time>2022-07-23T14:51:19Z</time>
      </trkpt>
      <trkpt lat="42.6941690" lon="-0.0500740">
        <ele>3048.4</ele>
        <time>2022-07-23T14:51:24Z</time>
      </trkpt>
      <trkpt lat="42.6941750" lon="-0.0500160">
        <ele>3048.2</ele>
        <time>2022-07-23T14:51:27Z</time>
      </trkpt>
      <trkpt lat="42.6941860" lon="-0.0499530">
        <ele>3047.6</ele>
        <time>2022-07-23T14:51:32Z</time>
      </trkpt>
      <trkpt lat="42.6941880" lon="-0.0499400">
        <ele>3047.6</ele>
        <time>2022-07-23T14:51:33Z</time>
      </trkpt>
      <trkpt lat="42.6942000" lon="-0.0498980">
        <ele>3047.2</ele>
        <time>2022-07-23T14:51:36Z</time>
      </trkpt>
      <trkpt lat="42.6942060" lon="-0.0498760">
        <ele>3046.8</ele>
        <time>2022-07-23T14:51:39Z</time>
      </trkpt>
      <trkpt lat="42.6942120" lon="-0.0498710">
        <ele>3046.6</ele>
        <time>2022-07-23T14:51:41Z</time>
      </trkpt>
      <trkpt lat="42.6942080" lon="-0.0498750">
        <ele>3046.6</ele>
        <time>2022-07-23T14:51:43Z</time>
      </trkpt>
      <trkpt lat="42.6942080" lon="-0.0498730">
        <ele>3046.4</ele>
        <time>2022-07-23T14:51:44Z</time>
      </trkpt>
      <trkpt lat="42.6942040" lon="-0.0498620">
        <ele>3046.0</ele>
        <time>2022-07-23T14:51:47Z</time>
      </trkpt>
      <trkpt lat="42.6941990" lon="-0.0498490">
        <ele>3046.2</ele>
        <time>2022-07-23T14:51:51Z</time>
      </trkpt>
      <trkpt lat="42.6942000" lon="-0.0498410">
        <ele>3046.0</ele>
        <time>2022-07-23T14:51:53Z</time>
      </trkpt>
      <trkpt lat="42.6942010" lon="-0.0498390">
        <ele>3045.6</ele>
        <time>2022-07-23T14:51:56Z</time>
      </trkpt>
      <trkpt lat="42.6942010" lon="-0.0498390">
        <ele>3045.8</ele>
        <time>2022-07-23T14:51:57Z</time>
      </trkpt>
      <trkpt lat="42.6942050" lon="-0.0498420">
        <ele>3046.6</ele>
        <time>2022-07-23T14:52:05Z</time>
      </trkpt>
      <trkpt lat="42.6942090" lon="-0.0498400">
        <ele>3046.4</ele>
        <time>2022-07-23T14:52:07Z</time>
      </trkpt>
      <trkpt lat="42.6942120" lon="-0.0498390">
        <ele>3046.2</ele>
        <time>2022-07-23T14:52:11Z</time>
      </trkpt>
      <trkpt lat="42.6942150" lon="-0.0498100">
        <ele>3044.8</ele>
        <time>2022-07-23T14:52:15Z</time>
      </trkpt>
      <trkpt lat="42.6942210" lon="-0.0497780">
        <ele>3044.4</ele>
        <time>2022-07-23T14:52:18Z</time>
      </trkpt>
      <trkpt lat="42.6942280" lon="-0.0497510">
        <ele>3044.0</ele>
        <time>2022-07-23T14:52:21Z</time>
      </trkpt>
      <trkpt lat="42.6942290" lon="-0.0497330">
        <ele>3043.8</ele>
        <time>2022-07-23T14:52:23Z</time>
      </trkpt>
      <trkpt lat="42.6942470" lon="-0.0496850">
        <ele>3043.4</ele>
        <time>2022-07-23T14:52:29Z</time>
      </trkpt>
      <trkpt lat="42.6942610" lon="-0.0496510">
        <ele>3042.8</ele>
        <time>2022-07-23T14:52:34Z</time>
      </trkpt>
      <trkpt lat="42.6942770" lon="-0.0496060">
        <ele>3041.8</ele>
        <time>2022-07-23T14:52:40Z</time>
      </trkpt>
      <trkpt lat="42.6942840" lon="-0.0495940">
        <ele>3041.6</ele>
        <time>2022-07-23T14:52:42Z</time>
      </trkpt>
      <trkpt lat="42.6942920" lon="-0.0495670">
        <ele>3040.4</ele>
        <time>2022-07-23T14:52:46Z</time>
      </trkpt>
      <trkpt lat="42.6942960" lon="-0.0495620">
        <ele>3040.2</ele>
        <time>2022-07-23T14:52:47Z</time>
      </trkpt>
      <trkpt lat="42.6943200" lon="-0.0495090">
        <ele>3039.6</ele>
        <time>2022-07-23T14:52:53Z</time>
      </trkpt>
      <trkpt lat="42.6943540" lon="-0.0494290">
        <ele>3039.2</ele>
        <time>2022-07-23T14:53:00Z</time>
      </trkpt>
      <trkpt lat="42.6943760" lon="-0.0493870">
        <ele>3039.2</ele>
        <time>2022-07-23T14:53:04Z</time>
      </trkpt>
      <trkpt lat="42.6943650" lon="-0.0493520">
        <ele>3039.0</ele>
        <time>2022-07-23T14:53:12Z</time>
      </trkpt>
      <trkpt lat="42.6943470" lon="-0.0493370">
        <ele>3039.2</ele>
        <time>2022-07-23T14:53:18Z</time>
      </trkpt>
      <trkpt lat="42.6943480" lon="-0.0493310">
        <ele>3039.2</ele>
        <time>2022-07-23T14:53:19Z</time>
      </trkpt>
      <trkpt lat="42.6943510" lon="-0.0493310">
        <ele>3039.2</ele>
        <time>2022-07-23T14:53:20Z</time>
      </trkpt>
      <trkpt lat="42.6943560" lon="-0.0493280">
        <ele>3039.2</ele>
        <time>2022-07-23T14:53:22Z</time>
      </trkpt>
      <trkpt lat="42.6943570" lon="-0.0493170">
        <ele>3039.4</ele>
        <time>2022-07-23T14:53:24Z</time>
      </trkpt>
      <trkpt lat="42.6943600" lon="-0.0493110">
        <ele>3039.4</ele>
        <time>2022-07-23T14:53:25Z</time>
      </trkpt>
      <trkpt lat="42.6943670" lon="-0.0492950">
        <ele>3039.4</ele>
        <time>2022-07-23T14:53:27Z</time>
      </trkpt>
      <trkpt lat="42.6943710" lon="-0.0492780">
        <ele>3039.2</ele>
        <time>2022-07-23T14:53:29Z</time>
      </trkpt>
      <trkpt lat="42.6943790" lon="-0.0492330">
        <ele>3039.4</ele>
        <time>2022-07-23T14:53:33Z</time>
      </trkpt>
      <trkpt lat="42.6943810" lon="-0.0492090">
        <ele>3038.8</ele>
        <time>2022-07-23T14:53:37Z</time>
      </trkpt>
      <trkpt lat="42.6943820" lon="-0.0492020">
        <ele>3039.2</ele>
        <time>2022-07-23T14:53:40Z</time>
      </trkpt>
      <trkpt lat="42.6943870" lon="-0.0491980">
        <ele>3038.8</ele>
        <time>2022-07-23T14:53:43Z</time>
      </trkpt>
      <trkpt lat="42.6944090" lon="-0.0491830">
        <ele>3038.6</ele>
        <time>2022-07-23T14:53:48Z</time>
      </trkpt>
      <trkpt lat="42.6944090" lon="-0.0491800">
        <ele>3038.4</ele>
        <time>2022-07-23T14:53:50Z</time>
      </trkpt>
      <trkpt lat="42.6943910" lon="-0.0491200">
        <ele>3038.0</ele>
        <time>2022-07-23T14:53:55Z</time>
      </trkpt>
      <trkpt lat="42.6943620" lon="-0.0491400">
        <ele>3037.8</ele>
        <time>2022-07-23T14:53:58Z</time>
      </trkpt>
      <trkpt lat="42.6943420" lon="-0.0491660">
        <ele>3037.8</ele>
        <time>2022-07-23T14:54:01Z</time>
      </trkpt>
      <trkpt lat="42.6943350" lon="-0.0491790">
        <ele>3037.8</ele>
        <time>2022-07-23T14:54:02Z</time>
      </trkpt>
      <trkpt lat="42.6943290" lon="-0.0491890">
        <ele>3037.8</ele>
        <time>2022-07-23T14:54:03Z</time>
      </trkpt>
      <trkpt lat="42.6943210" lon="-0.0491960">
        <ele>3037.8</ele>
        <time>2022-07-23T14:54:04Z</time>
      </trkpt>
      <trkpt lat="42.6943050" lon="-0.0492110">
        <ele>3037.8</ele>
        <time>2022-07-23T14:54:06Z</time>
      </trkpt>
      <trkpt lat="42.6942870" lon="-0.0492520">
        <ele>3038.0</ele>
        <time>2022-07-23T14:54:09Z</time>
      </trkpt>
      <trkpt lat="42.6942870" lon="-0.0493720">
        <ele>3039.2</ele>
        <time>2022-07-23T14:54:18Z</time>
      </trkpt>
      <trkpt lat="42.6942860" lon="-0.0494010">
        <ele>3039.2</ele>
        <time>2022-07-23T14:54:20Z</time>
      </trkpt>
      <trkpt lat="42.6942790" lon="-0.0494220">
        <ele>3039.2</ele>
        <time>2022-07-23T14:54:22Z</time>
      </trkpt>
      <trkpt lat="42.6942800" lon="-0.0494330">
        <ele>3039.2</ele>
        <time>2022-07-23T14:54:23Z</time>
      </trkpt>
      <trkpt lat="42.6942610" lon="-0.0494750">
        <ele>3039.2</ele>
        <time>2022-07-23T14:54:26Z</time>
      </trkpt>
      <trkpt lat="42.6942480" lon="-0.0495060">
        <ele>3039.4</ele>
        <time>2022-07-23T14:54:28Z</time>
      </trkpt>
      <trkpt lat="42.6942440" lon="-0.0495290">
        <ele>3039.4</ele>
        <time>2022-07-23T14:54:30Z</time>
      </trkpt>
      <trkpt lat="42.6942410" lon="-0.0495420">
        <ele>3039.4</ele>
        <time>2022-07-23T14:54:31Z</time>
      </trkpt>
      <trkpt lat="42.6942360" lon="-0.0495490">
        <ele>3039.4</ele>
        <time>2022-07-23T14:54:32Z</time>
      </trkpt>
      <trkpt lat="42.6942390" lon="-0.0495740">
        <ele>3039.4</ele>
        <time>2022-07-23T14:54:34Z</time>
      </trkpt>
      <trkpt lat="42.6942400" lon="-0.0496100">
        <ele>3039.4</ele>
        <time>2022-07-23T14:54:36Z</time>
      </trkpt>
      <trkpt lat="42.6942420" lon="-0.0496500">
        <ele>3039.2</ele>
        <time>2022-07-23T14:54:38Z</time>
      </trkpt>
      <trkpt lat="42.6942380" lon="-0.0496800">
        <ele>3039.2</ele>
        <time>2022-07-23T14:54:41Z</time>
      </trkpt>
      <trkpt lat="42.6942250" lon="-0.0496920">
        <ele>3039.2</ele>
        <time>2022-07-23T14:54:43Z</time>
      </trkpt>
      <trkpt lat="42.6942160" lon="-0.0497060">
        <ele>3039.2</ele>
        <time>2022-07-23T14:54:45Z</time>
      </trkpt>
      <trkpt lat="42.6942100" lon="-0.0497200">
        <ele>3039.6</ele>
        <time>2022-07-23T14:54:47Z</time>
      </trkpt>
      <trkpt lat="42.6941980" lon="-0.0497430">
        <ele>3039.6</ele>
        <time>2022-07-23T14:54:50Z</time>
      </trkpt>
      <trkpt lat="42.6941960" lon="-0.0497590">
        <ele>3040.2</ele>
        <time>2022-07-23T14:54:52Z</time>
      </trkpt>
      <trkpt lat="42.6941950" lon="-0.0497660">
        <ele>3040.2</ele>
        <time>2022-07-23T14:54:53Z</time>
      </trkpt>
      <trkpt lat="42.6941860" lon="-0.0497750">
        <ele>3041.4</ele>
        <time>2022-07-23T14:55:00Z</time>
      </trkpt>
      <trkpt lat="42.6941910" lon="-0.0497710">
        <ele>3042.0</ele>
        <time>2022-07-23T14:55:03Z</time>
      </trkpt>
      <trkpt lat="42.6941910" lon="-0.0497720">
        <ele>3042.2</ele>
        <time>2022-07-23T14:55:04Z</time>
      </trkpt>
      <trkpt lat="42.6941920" lon="-0.0497740">
        <ele>3042.2</ele>
        <time>2022-07-23T14:55:06Z</time>
      </trkpt>
      <trkpt lat="42.6941920" lon="-0.0497790">
        <ele>3042.2</ele>
        <time>2022-07-23T14:55:08Z</time>
      </trkpt>
      <trkpt lat="42.6941570" lon="-0.0498640">
        <ele>3042.8</ele>
        <time>2022-07-23T14:55:17Z</time>
      </trkpt>
      <trkpt lat="42.6941570" lon="-0.0498640">
        <ele>3044.0</ele>
        <time>2022-07-23T14:55:28Z</time>
      </trkpt>
      <trkpt lat="42.6941590" lon="-0.0498720">
        <ele>3044.2</ele>
        <time>2022-07-23T14:55:32Z</time>
      </trkpt>
      <trkpt lat="42.6941590" lon="-0.0498900">
        <ele>3044.2</ele>
        <time>2022-07-23T14:55:35Z</time>
      </trkpt>
      <trkpt lat="42.6941550" lon="-0.0499180">
        <ele>3044.4</ele>
        <time>2022-07-23T14:55:39Z</time>
      </trkpt>
      <trkpt lat="42.6941540" lon="-0.0499230">
        <ele>3044.2</ele>
        <time>2022-07-23T14:55:40Z</time>
      </trkpt>
      <trkpt lat="42.6941520" lon="-0.0499370">
        <ele>3044.4</ele>
        <time>2022-07-23T14:55:42Z</time>
      </trkpt>
      <trkpt lat="42.6941320" lon="-0.0500680">
        <ele>3046.4</ele>
        <time>2022-07-23T14:55:54Z</time>
      </trkpt>
      <trkpt lat="42.6941270" lon="-0.0500920">
        <ele>3046.6</ele>
        <time>2022-07-23T14:55:56Z</time>
      </trkpt>
      <trkpt lat="42.6941180" lon="-0.0501140">
        <ele>3046.8</ele>
        <time>2022-07-23T14:55:58Z</time>
      </trkpt>
      <trkpt lat="42.6940980" lon="-0.0501820">
        <ele>3047.0</ele>
        <time>2022-07-23T14:56:03Z</time>
      </trkpt>
      <trkpt lat="42.6940940" lon="-0.0501970">
        <ele>3047.0</ele>
        <time>2022-07-23T14:56:04Z</time>
      </trkpt>
      <trkpt lat="42.6940660" lon="-0.0502660">
        <ele>3047.4</ele>
        <time>2022-07-23T14:56:09Z</time>
      </trkpt>
      <trkpt lat="42.6940580" lon="-0.0502770">
        <ele>3047.6</ele>
        <time>2022-07-23T14:56:11Z</time>
      </trkpt>
      <trkpt lat="42.6940580" lon="-0.0502860">
        <ele>3047.6</ele>
        <time>2022-07-23T14:56:12Z</time>
      </trkpt>
      <trkpt lat="42.6940570" lon="-0.0502940">
        <ele>3047.6</ele>
        <time>2022-07-23T14:56:13Z</time>
      </trkpt>
      <trkpt lat="42.6940580" lon="-0.0503050">
        <ele>3047.6</ele>
        <time>2022-07-23T14:56:14Z</time>
      </trkpt>
      <trkpt lat="42.6940580" lon="-0.0503060">
        <ele>3047.6</ele>
        <time>2022-07-23T14:56:15Z</time>
      </trkpt>
      <trkpt lat="42.6940600" lon="-0.0503250">
        <ele>3047.8</ele>
        <time>2022-07-23T14:56:18Z</time>
      </trkpt>
      <trkpt lat="42.6940590" lon="-0.0503330">
        <ele>3047.8</ele>
        <time>2022-07-23T14:56:19Z</time>
      </trkpt>
      <trkpt lat="42.6940490" lon="-0.0503540">
        <ele>3047.6</ele>
        <time>2022-07-23T14:56:22Z</time>
      </trkpt>
      <trkpt lat="42.6940460" lon="-0.0503580">
        <ele>3047.6</ele>
        <time>2022-07-23T14:56:23Z</time>
      </trkpt>
      <trkpt lat="42.6940380" lon="-0.0503670">
        <ele>3047.6</ele>
        <time>2022-07-23T14:56:25Z</time>
      </trkpt>
      <trkpt lat="42.6940080" lon="-0.0504040">
        <ele>3048.6</ele>
        <time>2022-07-23T14:56:31Z</time>
      </trkpt>
      <trkpt lat="42.6939950" lon="-0.0504450">
        <ele>3049.4</ele>
        <time>2022-07-23T14:56:35Z</time>
      </trkpt>
      <trkpt lat="42.6939890" lon="-0.0505170">
        <ele>3049.6</ele>
        <time>2022-07-23T14:56:39Z</time>
      </trkpt>
      <trkpt lat="42.6939860" lon="-0.0505650">
        <ele>3049.8</ele>
        <time>2022-07-23T14:56:42Z</time>
      </trkpt>
      <trkpt lat="42.6939540" lon="-0.0506300">
        <ele>3049.4</ele>
        <time>2022-07-23T14:56:47Z</time>
      </trkpt>
      <trkpt lat="42.6939230" lon="-0.0506770">
        <ele>3049.2</ele>
        <time>2022-07-23T14:56:51Z</time>
      </trkpt>
      <trkpt lat="42.6939110" lon="-0.0507090">
        <ele>3049.2</ele>
        <time>2022-07-23T14:56:54Z</time>
      </trkpt>
      <trkpt lat="42.6939010" lon="-0.0507830">
        <ele>3049.6</ele>
        <time>2022-07-23T14:56:59Z</time>
      </trkpt>
      <trkpt lat="42.6938800" lon="-0.0508780">
        <ele>3051.0</ele>
        <time>2022-07-23T14:57:06Z</time>
      </trkpt>
      <trkpt lat="42.6938730" lon="-0.0509000">
        <ele>3051.8</ele>
        <time>2022-07-23T14:57:08Z</time>
      </trkpt>
      <trkpt lat="42.6938270" lon="-0.0510560">
        <ele>3053.4</ele>
        <time>2022-07-23T14:57:20Z</time>
      </trkpt>
      <trkpt lat="42.6938150" lon="-0.0510980">
        <ele>3053.6</ele>
        <time>2022-07-23T14:57:23Z</time>
      </trkpt>
      <trkpt lat="42.6937940" lon="-0.0511290">
        <ele>3054.0</ele>
        <time>2022-07-23T14:57:26Z</time>
      </trkpt>
      <trkpt lat="42.6937730" lon="-0.0511810">
        <ele>3054.2</ele>
        <time>2022-07-23T14:57:31Z</time>
      </trkpt>
      <trkpt lat="42.6937270" lon="-0.0512740">
        <ele>3056.4</ele>
        <time>2022-07-23T14:57:39Z</time>
      </trkpt>
      <trkpt lat="42.6937130" lon="-0.0513140">
        <ele>3056.6</ele>
        <time>2022-07-23T14:57:42Z</time>
      </trkpt>
      <trkpt lat="42.6937090" lon="-0.0513500">
        <ele>3056.6</ele>
        <time>2022-07-23T14:57:47Z</time>
      </trkpt>
      <trkpt lat="42.6937100" lon="-0.0513540">
        <ele>3056.6</ele>
        <time>2022-07-23T14:57:48Z</time>
      </trkpt>
      <trkpt lat="42.6937160" lon="-0.0513580">
        <ele>3056.6</ele>
        <time>2022-07-23T14:57:50Z</time>
      </trkpt>
      <trkpt lat="42.6937250" lon="-0.0513620">
        <ele>3056.8</ele>
        <time>2022-07-23T14:57:52Z</time>
      </trkpt>
      <trkpt lat="42.6937190" lon="-0.0513750">
        <ele>3056.6</ele>
        <time>2022-07-23T14:57:59Z</time>
      </trkpt>
      <trkpt lat="42.6936810" lon="-0.0514230">
        <ele>3056.4</ele>
        <time>2022-07-23T14:58:05Z</time>
      </trkpt>
      <trkpt lat="42.6936550" lon="-0.0514430">
        <ele>3056.2</ele>
        <time>2022-07-23T14:58:09Z</time>
      </trkpt>
      <trkpt lat="42.6936550" lon="-0.0514440">
        <ele>3056.0</ele>
        <time>2022-07-23T14:58:10Z</time>
      </trkpt>
      <trkpt lat="42.6936570" lon="-0.0514090">
        <ele>3055.4</ele>
        <time>2022-07-23T14:58:17Z</time>
      </trkpt>
      <trkpt lat="42.6936570" lon="-0.0514060">
        <ele>3055.0</ele>
        <time>2022-07-23T14:58:18Z</time>
      </trkpt>
      <trkpt lat="42.6936590" lon="-0.0514010">
        <ele>3054.6</ele>
        <time>2022-07-23T14:58:20Z</time>
      </trkpt>
      <trkpt lat="42.6937080" lon="-0.0514010">
        <ele>3054.6</ele>
        <time>2022-07-23T14:58:28Z</time>
      </trkpt>
      <trkpt lat="42.6937260" lon="-0.0514020">
        <ele>3055.2</ele>
        <time>2022-07-23T14:58:32Z</time>
      </trkpt>
      <trkpt lat="42.6937470" lon="-0.0514060">
        <ele>3055.6</ele>
        <time>2022-07-23T14:58:46Z</time>
      </trkpt>
      <trkpt lat="42.6937470" lon="-0.0514080">
        <ele>3055.4</ele>
        <time>2022-07-23T14:58:52Z</time>
      </trkpt>
      <trkpt lat="42.6937460" lon="-0.0514080">
        <ele>3055.4</ele>
        <time>2022-07-23T14:58:55Z</time>
      </trkpt>
      <trkpt lat="42.6937460" lon="-0.0514080">
        <ele>3055.4</ele>
        <time>2022-07-23T14:58:58Z</time>
      </trkpt>
      <trkpt lat="42.6937510" lon="-0.0514130">
        <ele>3055.4</ele>
        <time>2022-07-23T14:59:05Z</time>
      </trkpt>
      <trkpt lat="42.6937440" lon="-0.0514170">
        <ele>3055.2</ele>
        <time>2022-07-23T14:59:09Z</time>
      </trkpt>
      <trkpt lat="42.6937400" lon="-0.0514210">
        <ele>3055.6</ele>
        <time>2022-07-23T14:59:10Z</time>
      </trkpt>
      <trkpt lat="42.6937370" lon="-0.0514260">
        <ele>3055.8</ele>
        <time>2022-07-23T14:59:12Z</time>
      </trkpt>
      <trkpt lat="42.6937090" lon="-0.0514010">
        <ele>3055.8</ele>
        <time>2022-07-23T14:59:15Z</time>
      </trkpt>
      <trkpt lat="42.6936870" lon="-0.0513910">
        <ele>3055.4</ele>
        <time>2022-07-23T14:59:18Z</time>
      </trkpt>
      <trkpt lat="42.6936420" lon="-0.0514490">
        <ele>3054.8</ele>
        <time>2022-07-23T14:59:25Z</time>
      </trkpt>
      <trkpt lat="42.6936420" lon="-0.0514460">
        <ele>3054.4</ele>
        <time>2022-07-23T14:59:36Z</time>
      </trkpt>
      <trkpt lat="42.6936440" lon="-0.0514470">
        <ele>3054.4</ele>
        <time>2022-07-23T14:59:39Z</time>
      </trkpt>
      <trkpt lat="42.6936440" lon="-0.0514470">
        <ele>3054.4</ele>
        <time>2022-07-23T14:59:40Z</time>
      </trkpt>
      <trkpt lat="42.6936460" lon="-0.0514490">
        <ele>3054.2</ele>
        <time>2022-07-23T14:59:41Z</time>
      </trkpt>
      <trkpt lat="42.6936480" lon="-0.0514510">
        <ele>3054.4</ele>
        <time>2022-07-23T14:59:42Z</time>
      </trkpt>
      <trkpt lat="42.6936480" lon="-0.0514510">
        <ele>3054.2</ele>
        <time>2022-07-23T14:59:43Z</time>
      </trkpt>
      <trkpt lat="42.6936540" lon="-0.0514580">
        <ele>3054.8</ele>
        <time>2022-07-23T14:59:48Z</time>
      </trkpt>
      <trkpt lat="42.6936520" lon="-0.0514530">
        <ele>3054.6</ele>
        <time>2022-07-23T14:59:50Z</time>
      </trkpt>
      <trkpt lat="42.6936570" lon="-0.0514520">
        <ele>3054.8</ele>
        <time>2022-07-23T14:59:55Z</time>
      </trkpt>
      <trkpt lat="42.6936620" lon="-0.0514580">
        <ele>3055.2</ele>
        <time>2022-07-23T15:00:06Z</time>
      </trkpt>
      <trkpt lat="42.6936640" lon="-0.0514580">
        <ele>3055.0</ele>
        <time>2022-07-23T15:00:08Z</time>
      </trkpt>
      <trkpt lat="42.6936650" lon="-0.0514550">
        <ele>3055.0</ele>
        <time>2022-07-23T15:00:09Z</time>
      </trkpt>
      <trkpt lat="42.6936590" lon="-0.0514480">
        <ele>3055.0</ele>
        <time>2022-07-23T15:00:12Z</time>
      </trkpt>
      <trkpt lat="42.6936560" lon="-0.0514500">
        <ele>3055.0</ele>
        <time>2022-07-23T15:00:13Z</time>
      </trkpt>
      <trkpt lat="42.6936580" lon="-0.0514500">
        <ele>3054.8</ele>
        <time>2022-07-23T15:00:14Z</time>
      </trkpt>
      <trkpt lat="42.6936630" lon="-0.0514460">
        <ele>3054.4</ele>
        <time>2022-07-23T15:00:19Z</time>
      </trkpt>
      <trkpt lat="42.6936680" lon="-0.0514460">
        <ele>3052.2</ele>
        <time>2022-07-23T15:00:33Z</time>
      </trkpt>
      <trkpt lat="42.6936700" lon="-0.0514470">
        <ele>3052.4</ele>
        <time>2022-07-23T15:00:40Z</time>
      </trkpt>
      <trkpt lat="42.6936700" lon="-0.0514480">
        <ele>3052.4</ele>
        <time>2022-07-23T15:00:41Z</time>
      </trkpt>
      <trkpt lat="42.6936710" lon="-0.0514510">
        <ele>3052.4</ele>
        <time>2022-07-23T15:00:43Z</time>
      </trkpt>
      <trkpt lat="42.6936710" lon="-0.0514520">
        <ele>3052.8</ele>
        <time>2022-07-23T15:00:44Z</time>
      </trkpt>
      <trkpt lat="42.6936710" lon="-0.0514530">
        <ele>3053.0</ele>
        <time>2022-07-23T15:00:45Z</time>
      </trkpt>
      <trkpt lat="42.6936680" lon="-0.0514650">
        <ele>3053.8</ele>
        <time>2022-07-23T15:00:51Z</time>
      </trkpt>
      <trkpt lat="42.6936670" lon="-0.0514640">
        <ele>3053.8</ele>
        <time>2022-07-23T15:00:52Z</time>
      </trkpt>
      <trkpt lat="42.6936630" lon="-0.0514600">
        <ele>3054.6</ele>
        <time>2022-07-23T15:00:56Z</time>
      </trkpt>
      <trkpt lat="42.6936640" lon="-0.0514540">
        <ele>3054.6</ele>
        <time>2022-07-23T15:00:59Z</time>
      </trkpt>
      <trkpt lat="42.6936620" lon="-0.0514320">
        <ele>3054.6</ele>
        <time>2022-07-23T15:01:04Z</time>
      </trkpt>
      <trkpt lat="42.6936590" lon="-0.0514340">
        <ele>3054.6</ele>
        <time>2022-07-23T15:01:07Z</time>
      </trkpt>
      <trkpt lat="42.6936550" lon="-0.0514370">
        <ele>3054.6</ele>
        <time>2022-07-23T15:01:09Z</time>
      </trkpt>
      <trkpt lat="42.6936540" lon="-0.0514370">
        <ele>3054.6</ele>
        <time>2022-07-23T15:01:13Z</time>
      </trkpt>
      <trkpt lat="42.6936550" lon="-0.0514380">
        <ele>3054.6</ele>
        <time>2022-07-23T15:01:14Z</time>
      </trkpt>
      <trkpt lat="42.6936550" lon="-0.0514390">
        <ele>3054.6</ele>
        <time>2022-07-23T15:01:19Z</time>
      </trkpt>
      <trkpt lat="42.6936560" lon="-0.0514400">
        <ele>3054.6</ele>
        <time>2022-07-23T15:01:21Z</time>
      </trkpt>
      <trkpt lat="42.6936700" lon="-0.0514410">
        <ele>3054.6</ele>
        <time>2022-07-23T15:01:30Z</time>
      </trkpt>
      <trkpt lat="42.6936710" lon="-0.0514380">
        <ele>3055.0</ele>
        <time>2022-07-23T15:01:32Z</time>
      </trkpt>
      <trkpt lat="42.6936660" lon="-0.0514320">
        <ele>3055.0</ele>
        <time>2022-07-23T15:01:41Z</time>
      </trkpt>
      <trkpt lat="42.6936670" lon="-0.0514330">
        <ele>3054.8</ele>
        <time>2022-07-23T15:01:47Z</time>
      </trkpt>
      <trkpt lat="42.6936680" lon="-0.0514350">
        <ele>3055.2</ele>
        <time>2022-07-23T15:01:48Z</time>
      </trkpt>
      <trkpt lat="42.6936700" lon="-0.0514370">
        <ele>3055.0</ele>
        <time>2022-07-23T15:01:49Z</time>
      </trkpt>
      <trkpt lat="42.6936720" lon="-0.0514420">
        <ele>3055.0</ele>
        <time>2022-07-23T15:01:51Z</time>
      </trkpt>
      <trkpt lat="42.6936720" lon="-0.0514440">
        <ele>3055.2</ele>
        <time>2022-07-23T15:01:52Z</time>
      </trkpt>
      <trkpt lat="42.6936720" lon="-0.0514450">
        <ele>3055.2</ele>
        <time>2022-07-23T15:01:53Z</time>
      </trkpt>
      <trkpt lat="42.6936730" lon="-0.0514450">
        <ele>3055.4</ele>
        <time>2022-07-23T15:01:55Z</time>
      </trkpt>
      <trkpt lat="42.6936730" lon="-0.0514450">
        <ele>3055.0</ele>
        <time>2022-07-23T15:01:56Z</time>
      </trkpt>
      <trkpt lat="42.6936730" lon="-0.0514450">
        <ele>3054.6</ele>
        <time>2022-07-23T15:01:57Z</time>
      </trkpt>
      <trkpt lat="42.6936730" lon="-0.0514460">
        <ele>3054.4</ele>
        <time>2022-07-23T15:01:59Z</time>
      </trkpt>
      <trkpt lat="42.6936730" lon="-0.0514460">
        <ele>3054.2</ele>
        <time>2022-07-23T15:02:00Z</time>
      </trkpt>
      <trkpt lat="42.6936730" lon="-0.0514470">
        <ele>3054.2</ele>
        <time>2022-07-23T15:02:01Z</time>
      </trkpt>
      <trkpt lat="42.6936730" lon="-0.0514470">
        <ele>3054.2</ele>
        <time>2022-07-23T15:02:02Z</time>
      </trkpt>
      <trkpt lat="42.6936730" lon="-0.0514470">
        <ele>3054.4</ele>
        <time>2022-07-23T15:02:04Z</time>
      </trkpt>
      <trkpt lat="42.6936730" lon="-0.0514490">
        <ele>3055.0</ele>
        <time>2022-07-23T15:02:06Z</time>
      </trkpt>
      <trkpt lat="42.6936720" lon="-0.0514500">
        <ele>3055.2</ele>
        <time>2022-07-23T15:02:07Z</time>
      </trkpt>
      <trkpt lat="42.6936730" lon="-0.0514510">
        <ele>3055.0</ele>
        <time>2022-07-23T15:02:11Z</time>
      </trkpt>
      <trkpt lat="42.6936730" lon="-0.0514510">
        <ele>3055.0</ele>
        <time>2022-07-23T15:02:12Z</time>
      </trkpt>
      <trkpt lat="42.6936720" lon="-0.0514510">
        <ele>3055.2</ele>
        <time>2022-07-23T15:02:13Z</time>
      </trkpt>
      <trkpt lat="42.6936710" lon="-0.0514520">
        <ele>3055.2</ele>
        <time>2022-07-23T15:02:15Z</time>
      </trkpt>
      <trkpt lat="42.6936700" lon="-0.0514520">
        <ele>3055.0</ele>
        <time>2022-07-23T15:02:16Z</time>
      </trkpt>
      <trkpt lat="42.6936680" lon="-0.0514520">
        <ele>3055.2</ele>
        <time>2022-07-23T15:02:17Z</time>
      </trkpt>
      <trkpt lat="42.6936670" lon="-0.0514500">
        <ele>3055.0</ele>
        <time>2022-07-23T15:02:20Z</time>
      </trkpt>
      <trkpt lat="42.6936660" lon="-0.0514490">
        <ele>3054.4</ele>
        <time>2022-07-23T15:02:28Z</time>
      </trkpt>
      <trkpt lat="42.6936710" lon="-0.0514670">
        <ele>3053.8</ele>
        <time>2022-07-23T15:02:41Z</time>
      </trkpt>
      <trkpt lat="42.6936790" lon="-0.0515010">
        <ele>3053.6</ele>
        <time>2022-07-23T15:02:55Z</time>
      </trkpt>
      <trkpt lat="42.6936580" lon="-0.0515080">
        <ele>3053.6</ele>
        <time>2022-07-23T15:03:03Z</time>
      </trkpt>
      <trkpt lat="42.6936570" lon="-0.0515040">
        <ele>3053.6</ele>
        <time>2022-07-23T15:03:04Z</time>
      </trkpt>
      <trkpt lat="42.6936580" lon="-0.0515000">
        <ele>3053.6</ele>
        <time>2022-07-23T15:03:05Z</time>
      </trkpt>
      <trkpt lat="42.6936590" lon="-0.0514960">
        <ele>3053.6</ele>
        <time>2022-07-23T15:03:06Z</time>
      </trkpt>
      <trkpt lat="42.6936620" lon="-0.0514910">
        <ele>3053.6</ele>
        <time>2022-07-23T15:03:07Z</time>
      </trkpt>
      <trkpt lat="42.6936640" lon="-0.0514890">
        <ele>3053.8</ele>
        <time>2022-07-23T15:03:08Z</time>
      </trkpt>
      <trkpt lat="42.6936550" lon="-0.0514530">
        <ele>3053.8</ele>
        <time>2022-07-23T15:03:21Z</time>
      </trkpt>
      <trkpt lat="42.6936650" lon="-0.0514360">
        <ele>3053.6</ele>
        <time>2022-07-23T15:03:28Z</time>
      </trkpt>
      <trkpt lat="42.6936620" lon="-0.0514390">
        <ele>3053.6</ele>
        <time>2022-07-23T15:03:32Z</time>
      </trkpt>
      <trkpt lat="42.6936550" lon="-0.0514320">
        <ele>3053.8</ele>
        <time>2022-07-23T15:03:35Z</time>
      </trkpt>
      <trkpt lat="42.6936560" lon="-0.0514320">
        <ele>3053.6</ele>
        <time>2022-07-23T15:03:36Z</time>
      </trkpt>
      <trkpt lat="42.6936580" lon="-0.0514330">
        <ele>3053.8</ele>
        <time>2022-07-23T15:03:37Z</time>
      </trkpt>
      <trkpt lat="42.6936620" lon="-0.0514340">
        <ele>3053.6</ele>
        <time>2022-07-23T15:03:38Z</time>
      </trkpt>
      <trkpt lat="42.6936640" lon="-0.0514350">
        <ele>3053.6</ele>
        <time>2022-07-23T15:03:39Z</time>
      </trkpt>
      <trkpt lat="42.6936680" lon="-0.0514420">
        <ele>3053.6</ele>
        <time>2022-07-23T15:03:41Z</time>
      </trkpt>
      <trkpt lat="42.6936700" lon="-0.0514450">
        <ele>3053.8</ele>
        <time>2022-07-23T15:03:42Z</time>
      </trkpt>
      <trkpt lat="42.6936700" lon="-0.0514460">
        <ele>3053.8</ele>
        <time>2022-07-23T15:03:43Z</time>
      </trkpt>
      <trkpt lat="42.6936690" lon="-0.0514440">
        <ele>3054.0</ele>
        <time>2022-07-23T15:03:44Z</time>
      </trkpt>
      <trkpt lat="42.6936670" lon="-0.0514390">
        <ele>3054.4</ele>
        <time>2022-07-23T15:03:46Z</time>
      </trkpt>
      <trkpt lat="42.6936660" lon="-0.0514360">
        <ele>3054.4</ele>
        <time>2022-07-23T15:03:48Z</time>
      </trkpt>
      <trkpt lat="42.6936680" lon="-0.0514330">
        <ele>3054.6</ele>
        <time>2022-07-23T15:03:50Z</time>
      </trkpt>
      <trkpt lat="42.6936740" lon="-0.0514280">
        <ele>3055.2</ele>
        <time>2022-07-23T15:03:52Z</time>
      </trkpt>
      <trkpt lat="42.6937180" lon="-0.0513830">
        <ele>3055.6</ele>
        <time>2022-07-23T15:03:59Z</time>
      </trkpt>
      <trkpt lat="42.6937340" lon="-0.0513720">
        <ele>3055.6</ele>
        <time>2022-07-23T15:04:01Z</time>
      </trkpt>
      <trkpt lat="42.6937510" lon="-0.0513570">
        <ele>3055.6</ele>
        <time>2022-07-23T15:04:03Z</time>
      </trkpt>
      <trkpt lat="42.6937580" lon="-0.0513430">
        <ele>3055.6</ele>
        <time>2022-07-23T15:04:04Z</time>
      </trkpt>
      <trkpt lat="42.6937900" lon="-0.0512240">
        <ele>3055.4</ele>
        <time>2022-07-23T15:04:10Z</time>
      </trkpt>
      <trkpt lat="42.6938340" lon="-0.0510320">
        <ele>3054.4</ele>
        <time>2022-07-23T15:04:17Z</time>
      </trkpt>
      <trkpt lat="42.6938410" lon="-0.0510070">
        <ele>3054.2</ele>
        <time>2022-07-23T15:04:18Z</time>
      </trkpt>
      <trkpt lat="42.6938490" lon="-0.0509890">
        <ele>3054.0</ele>
        <time>2022-07-23T15:04:19Z</time>
      </trkpt>
      <trkpt lat="42.6939070" lon="-0.0508560">
        <ele>3053.4</ele>
        <time>2022-07-23T15:04:26Z</time>
      </trkpt>
      <trkpt lat="42.6939070" lon="-0.0508260">
        <ele>3053.0</ele>
        <time>2022-07-23T15:04:28Z</time>
      </trkpt>
      <trkpt lat="42.6938910" lon="-0.0508220">
        <ele>3053.0</ele>
        <time>2022-07-23T15:04:31Z</time>
      </trkpt>
      <trkpt lat="42.6938640" lon="-0.0508510">
        <ele>3053.4</ele>
        <time>2022-07-23T15:04:48Z</time>
      </trkpt>
      <trkpt lat="42.6938620" lon="-0.0508520">
        <ele>3053.2</ele>
        <time>2022-07-23T15:04:49Z</time>
      </trkpt>
      <trkpt lat="42.6938590" lon="-0.0508530">
        <ele>3053.2</ele>
        <time>2022-07-23T15:04:51Z</time>
      </trkpt>
      <trkpt lat="42.6938580" lon="-0.0508550">
        <ele>3053.2</ele>
        <time>2022-07-23T15:04:54Z</time>
      </trkpt>
      <trkpt lat="42.6938580" lon="-0.0508550">
        <ele>3053.4</ele>
        <time>2022-07-23T15:04:55Z</time>
      </trkpt>
      <trkpt lat="42.6938580" lon="-0.0508550">
        <ele>3053.4</ele>
        <time>2022-07-23T15:04:56Z</time>
      </trkpt>
      <trkpt lat="42.6938580" lon="-0.0508560">
        <ele>3053.6</ele>
        <time>2022-07-23T15:05:00Z</time>
      </trkpt>
      <trkpt lat="42.6938580" lon="-0.0508550">
        <ele>3053.6</ele>
        <time>2022-07-23T15:05:01Z</time>
      </trkpt>
      <trkpt lat="42.6938580" lon="-0.0508550">
        <ele>3053.8</ele>
        <time>2022-07-23T15:05:02Z</time>
      </trkpt>
      <trkpt lat="42.6938570" lon="-0.0508540">
        <ele>3054.0</ele>
        <time>2022-07-23T15:05:05Z</time>
      </trkpt>
      <trkpt lat="42.6938560" lon="-0.0508550">
        <ele>3054.2</ele>
        <time>2022-07-23T15:05:09Z</time>
      </trkpt>
      <trkpt lat="42.6938570" lon="-0.0508570">
        <ele>3054.0</ele>
        <time>2022-07-23T15:05:18Z</time>
      </trkpt>
      <trkpt lat="42.6938570" lon="-0.0508560">
        <ele>3053.4</ele>
        <time>2022-07-23T15:05:33Z</time>
      </trkpt>
      <trkpt lat="42.6938580" lon="-0.0508560">
        <ele>3053.2</ele>
        <time>2022-07-23T15:05:34Z</time>
      </trkpt>
      <trkpt lat="42.6938580" lon="-0.0508560">
        <ele>3053.2</ele>
        <time>2022-07-23T15:05:35Z</time>
      </trkpt>
      <trkpt lat="42.6938580" lon="-0.0508550">
        <ele>3053.4</ele>
        <time>2022-07-23T15:05:37Z</time>
      </trkpt>
      <trkpt lat="42.6938580" lon="-0.0508540">
        <ele>3053.4</ele>
        <time>2022-07-23T15:05:38Z</time>
      </trkpt>
      <trkpt lat="42.6938640" lon="-0.0508490">
        <ele>3053.2</ele>
        <time>2022-07-23T15:05:46Z</time>
      </trkpt>
      <trkpt lat="42.6938640" lon="-0.0508500">
        <ele>3053.0</ele>
        <time>2022-07-23T15:05:47Z</time>
      </trkpt>
      <trkpt lat="42.6938640" lon="-0.0508530">
        <ele>3053.2</ele>
        <time>2022-07-23T15:05:49Z</time>
      </trkpt>
      <trkpt lat="42.6938770" lon="-0.0508600">
        <ele>3052.8</ele>
        <time>2022-07-23T15:05:55Z</time>
      </trkpt>
      <trkpt lat="42.6938750" lon="-0.0508650">
        <ele>3052.6</ele>
        <time>2022-07-23T15:06:15Z</time>
      </trkpt>
      <trkpt lat="42.6938750" lon="-0.0508660">
        <ele>3052.4</ele>
        <time>2022-07-23T15:06:23Z</time>
      </trkpt>
      <trkpt lat="42.6938710" lon="-0.0508550">
        <ele>3052.4</ele>
        <time>2022-07-23T15:06:30Z</time>
      </trkpt>
      <trkpt lat="42.6938700" lon="-0.0508550">
        <ele>3052.4</ele>
        <time>2022-07-23T15:06:32Z</time>
      </trkpt>
      <trkpt lat="42.6938690" lon="-0.0508560">
        <ele>3052.4</ele>
        <time>2022-07-23T15:06:45Z</time>
      </trkpt>
      <trkpt lat="42.6938670" lon="-0.0508560">
        <ele>3052.4</ele>
        <time>2022-07-23T15:06:48Z</time>
      </trkpt>
      <trkpt lat="42.6938670" lon="-0.0508560">
        <ele>3052.4</ele>
        <time>2022-07-23T15:06:49Z</time>
      </trkpt>
      <trkpt lat="42.6938660" lon="-0.0508560">
        <ele>3052.6</ele>
        <time>2022-07-23T15:06:53Z</time>
      </trkpt>
      <trkpt lat="42.6938660" lon="-0.0508560">
        <ele>3052.6</ele>
        <time>2022-07-23T15:06:54Z</time>
      </trkpt>
      <trkpt lat="42.6938660" lon="-0.0508560">
        <ele>3052.8</ele>
        <time>2022-07-23T15:06:55Z</time>
      </trkpt>
      <trkpt lat="42.6938650" lon="-0.0508570">
        <ele>3053.0</ele>
        <time>2022-07-23T15:06:59Z</time>
      </trkpt>
      <trkpt lat="42.6938640" lon="-0.0508580">
        <ele>3053.0</ele>
        <time>2022-07-23T15:07:01Z</time>
      </trkpt>
      <trkpt lat="42.6938630" lon="-0.0508580">
        <ele>3053.4</ele>
        <time>2022-07-23T15:07:04Z</time>
      </trkpt>
      <trkpt lat="42.6938610" lon="-0.0508580">
        <ele>3053.4</ele>
        <time>2022-07-23T15:07:09Z</time>
      </trkpt>
      <trkpt lat="42.6938590" lon="-0.0508590">
        <ele>3053.4</ele>
        <time>2022-07-23T15:07:14Z</time>
      </trkpt>
      <trkpt lat="42.6938580" lon="-0.0508640">
        <ele>3053.2</ele>
        <time>2022-07-23T15:07:24Z</time>
      </trkpt>
      <trkpt lat="42.6938560" lon="-0.0508690">
        <ele>3052.6</ele>
        <time>2022-07-23T15:07:46Z</time>
      </trkpt>
      <trkpt lat="42.6938560" lon="-0.0508700">
        <ele>3052.6</ele>
        <time>2022-07-23T15:07:47Z</time>
      </trkpt>
      <trkpt lat="42.6938550" lon="-0.0508710">
        <ele>3052.8</ele>
        <time>2022-07-23T15:07:50Z</time>
      </trkpt>
      <trkpt lat="42.6938580" lon="-0.0508680">
        <ele>3052.6</ele>
        <time>2022-07-23T15:07:53Z</time>
      </trkpt>
      <trkpt lat="42.6938610" lon="-0.0508660">
        <ele>3052.8</ele>
        <time>2022-07-23T15:07:54Z</time>
      </trkpt>
      <trkpt lat="42.6938660" lon="-0.0508610">
        <ele>3053.4</ele>
        <time>2022-07-23T15:08:16Z</time>
      </trkpt>
      <trkpt lat="42.6938660" lon="-0.0508620">
        <ele>3053.2</ele>
        <time>2022-07-23T15:08:19Z</time>
      </trkpt>
      <trkpt lat="42.6938670" lon="-0.0508630">
        <ele>3053.4</ele>
        <time>2022-07-23T15:08:20Z</time>
      </trkpt>
      <trkpt lat="42.6938640" lon="-0.0508610">
        <ele>3053.2</ele>
        <time>2022-07-23T15:08:23Z</time>
      </trkpt>
      <trkpt lat="42.6938650" lon="-0.0508610">
        <ele>3053.2</ele>
        <time>2022-07-23T15:08:24Z</time>
      </trkpt>
      <trkpt lat="42.6938650" lon="-0.0508610">
        <ele>3053.0</ele>
        <time>2022-07-23T15:08:25Z</time>
      </trkpt>
      <trkpt lat="42.6938640" lon="-0.0508620">
        <ele>3053.0</ele>
        <time>2022-07-23T15:08:26Z</time>
      </trkpt>
      <trkpt lat="42.6938630" lon="-0.0508640">
        <ele>3053.0</ele>
        <time>2022-07-23T15:08:27Z</time>
      </trkpt>
      <trkpt lat="42.6938620" lon="-0.0508670">
        <ele>3053.0</ele>
        <time>2022-07-23T15:08:28Z</time>
      </trkpt>
      <trkpt lat="42.6938610" lon="-0.0508680">
        <ele>3052.8</ele>
        <time>2022-07-23T15:08:30Z</time>
      </trkpt>
      <trkpt lat="42.6938610" lon="-0.0508680">
        <ele>3052.6</ele>
        <time>2022-07-23T15:08:35Z</time>
      </trkpt>
      <trkpt lat="42.6938590" lon="-0.0508770">
        <ele>3052.2</ele>
        <time>2022-07-23T15:08:50Z</time>
      </trkpt>
      <trkpt lat="42.6938590" lon="-0.0508800">
        <ele>3052.2</ele>
        <time>2022-07-23T15:08:51Z</time>
      </trkpt>
      <trkpt lat="42.6938590" lon="-0.0508800">
        <ele>3052.4</ele>
        <time>2022-07-23T15:08:53Z</time>
      </trkpt>
      <trkpt lat="42.6938570" lon="-0.0508810">
        <ele>3052.4</ele>
        <time>2022-07-23T15:09:11Z</time>
      </trkpt>
      <trkpt lat="42.6938570" lon="-0.0508810">
        <ele>3052.4</ele>
        <time>2022-07-23T15:09:12Z</time>
      </trkpt>
      <trkpt lat="42.6938580" lon="-0.0508800">
        <ele>3052.4</ele>
        <time>2022-07-23T15:09:13Z</time>
      </trkpt>
      <trkpt lat="42.6938610" lon="-0.0508800">
        <ele>3052.4</ele>
        <time>2022-07-23T15:09:15Z</time>
      </trkpt>
      <trkpt lat="42.6938630" lon="-0.0508800">
        <ele>3052.4</ele>
        <time>2022-07-23T15:09:16Z</time>
      </trkpt>
      <trkpt lat="42.6938660" lon="-0.0508810">
        <ele>3052.2</ele>
        <time>2022-07-23T15:09:17Z</time>
      </trkpt>
      <trkpt lat="42.6938680" lon="-0.0508820">
        <ele>3052.4</ele>
        <time>2022-07-23T15:09:18Z</time>
      </trkpt>
      <trkpt lat="42.6938800" lon="-0.0508870">
        <ele>3052.2</ele>
        <time>2022-07-23T15:09:33Z</time>
      </trkpt>
      <trkpt lat="42.6938740" lon="-0.0508900">
        <ele>3052.2</ele>
        <time>2022-07-23T15:09:43Z</time>
      </trkpt>
      <trkpt lat="42.6938760" lon="-0.0508910">
        <ele>3052.2</ele>
        <time>2022-07-23T15:09:44Z</time>
      </trkpt>
      <trkpt lat="42.6938780" lon="-0.0508920">
        <ele>3052.2</ele>
        <time>2022-07-23T15:09:45Z</time>
      </trkpt>
      <trkpt lat="42.6938790" lon="-0.0508920">
        <ele>3052.2</ele>
        <time>2022-07-23T15:09:46Z</time>
      </trkpt>
      <trkpt lat="42.6938780" lon="-0.0508930">
        <ele>3052.0</ele>
        <time>2022-07-23T15:09:48Z</time>
      </trkpt>
      <trkpt lat="42.6938790" lon="-0.0508930">
        <ele>3052.0</ele>
        <time>2022-07-23T15:09:50Z</time>
      </trkpt>
      <trkpt lat="42.6938800" lon="-0.0508940">
        <ele>3052.4</ele>
        <time>2022-07-23T15:09:56Z</time>
      </trkpt>
      <trkpt lat="42.6938790" lon="-0.0508940">
        <ele>3052.6</ele>
        <time>2022-07-23T15:10:01Z</time>
      </trkpt>
      <trkpt lat="42.6938790" lon="-0.0508940">
        <ele>3052.4</ele>
        <time>2022-07-23T15:10:04Z</time>
      </trkpt>
      <trkpt lat="42.6938790" lon="-0.0508940">
        <ele>3052.4</ele>
        <time>2022-07-23T15:10:05Z</time>
      </trkpt>
      <trkpt lat="42.6938780" lon="-0.0508930">
        <ele>3052.4</ele>
        <time>2022-07-23T15:10:15Z</time>
      </trkpt>
      <trkpt lat="42.6938780" lon="-0.0508940">
        <ele>3052.2</ele>
        <time>2022-07-23T15:10:17Z</time>
      </trkpt>
      <trkpt lat="42.6938780" lon="-0.0508930">
        <ele>3052.2</ele>
        <time>2022-07-23T15:10:18Z</time>
      </trkpt>
      <trkpt lat="42.6938780" lon="-0.0508930">
        <ele>3052.2</ele>
        <time>2022-07-23T15:10:19Z</time>
      </trkpt>
      <trkpt lat="42.6938780" lon="-0.0508930">
        <ele>3052.2</ele>
        <time>2022-07-23T15:10:20Z</time>
      </trkpt>
      <trkpt lat="42.6938780" lon="-0.0508920">
        <ele>3052.2</ele>
        <time>2022-07-23T15:10:21Z</time>
      </trkpt>
      <trkpt lat="42.6938810" lon="-0.0508890">
        <ele>3052.0</ele>
        <time>2022-07-23T15:10:36Z</time>
      </trkpt>
      <trkpt lat="42.6938810" lon="-0.0508880">
        <ele>3052.2</ele>
        <time>2022-07-23T15:10:37Z</time>
      </trkpt>
      <trkpt lat="42.6938810" lon="-0.0508880">
        <ele>3052.0</ele>
        <time>2022-07-23T15:10:40Z</time>
      </trkpt>
      <trkpt lat="42.6938810" lon="-0.0508880">
        <ele>3052.0</ele>
        <time>2022-07-23T15:10:42Z</time>
      </trkpt>
      <trkpt lat="42.6938810" lon="-0.0508880">
        <ele>3052.2</ele>
        <time>2022-07-23T15:10:43Z</time>
      </trkpt>
      <trkpt lat="42.6938810" lon="-0.0508880">
        <ele>3052.2</ele>
        <time>2022-07-23T15:10:44Z</time>
      </trkpt>
      <trkpt lat="42.6938810" lon="-0.0508910">
        <ele>3052.4</ele>
        <time>2022-07-23T15:10:47Z</time>
      </trkpt>
      <trkpt lat="42.6938820" lon="-0.0508900">
        <ele>3052.4</ele>
        <time>2022-07-23T15:11:00Z</time>
      </trkpt>
      <trkpt lat="42.6938800" lon="-0.0508870">
        <ele>3052.2</ele>
        <time>2022-07-23T15:11:09Z</time>
      </trkpt>
      <trkpt lat="42.6938800" lon="-0.0508870">
        <ele>3052.2</ele>
        <time>2022-07-23T15:11:10Z</time>
      </trkpt>
      <trkpt lat="42.6938810" lon="-0.0508870">
        <ele>3052.0</ele>
        <time>2022-07-23T15:11:17Z</time>
      </trkpt>
      <trkpt lat="42.6938820" lon="-0.0508880">
        <ele>3052.2</ele>
        <time>2022-07-23T15:11:20Z</time>
      </trkpt>
      <trkpt lat="42.6938830" lon="-0.0508900">
        <ele>3052.2</ele>
        <time>2022-07-23T15:11:26Z</time>
      </trkpt>
      <trkpt lat="42.6938850" lon="-0.0508950">
        <ele>3052.0</ele>
        <time>2022-07-23T15:11:34Z</time>
      </trkpt>
      <trkpt lat="42.6938850" lon="-0.0508960">
        <ele>3052.0</ele>
        <time>2022-07-23T15:11:35Z</time>
      </trkpt>
      <trkpt lat="42.6938850" lon="-0.0508970">
        <ele>3052.0</ele>
        <time>2022-07-23T15:11:37Z</time>
      </trkpt>
      <trkpt lat="42.6938850" lon="-0.0509000">
        <ele>3052.2</ele>
        <time>2022-07-23T15:11:39Z</time>
      </trkpt>
      <trkpt lat="42.6938850" lon="-0.0509030">
        <ele>3052.0</ele>
        <time>2022-07-23T15:11:40Z</time>
      </trkpt>
      <trkpt lat="42.6938860" lon="-0.0509050">
        <ele>3052.2</ele>
        <time>2022-07-23T15:11:41Z</time>
      </trkpt>
      <trkpt lat="42.6938870" lon="-0.0509080">
        <ele>3052.0</ele>
        <time>2022-07-23T15:11:43Z</time>
      </trkpt>
      <trkpt lat="42.6938870" lon="-0.0509090">
        <ele>3052.0</ele>
        <time>2022-07-23T15:11:44Z</time>
      </trkpt>
      <trkpt lat="42.6938890" lon="-0.0509110">
        <ele>3052.0</ele>
        <time>2022-07-23T15:11:46Z</time>
      </trkpt>
      <trkpt lat="42.6938920" lon="-0.0509100">
        <ele>3052.0</ele>
        <time>2022-07-23T15:11:49Z</time>
      </trkpt>
      <trkpt lat="42.6939030" lon="-0.0508980">
        <ele>3051.4</ele>
        <time>2022-07-23T15:12:01Z</time>
      </trkpt>
      <trkpt lat="42.6938960" lon="-0.0508900">
        <ele>3051.4</ele>
        <time>2022-07-23T15:12:12Z</time>
      </trkpt>
      <trkpt lat="42.6938960" lon="-0.0508900">
        <ele>3051.4</ele>
        <time>2022-07-23T15:12:13Z</time>
      </trkpt>
      <trkpt lat="42.6938970" lon="-0.0508900">
        <ele>3051.6</ele>
        <time>2022-07-23T15:12:15Z</time>
      </trkpt>
      <trkpt lat="42.6938970" lon="-0.0508890">
        <ele>3051.6</ele>
        <time>2022-07-23T15:12:19Z</time>
      </trkpt>
      <trkpt lat="42.6938960" lon="-0.0508880">
        <ele>3052.2</ele>
        <time>2022-07-23T15:12:34Z</time>
      </trkpt>
      <trkpt lat="42.6938960" lon="-0.0508880">
        <ele>3052.2</ele>
        <time>2022-07-23T15:12:35Z</time>
      </trkpt>
      <trkpt lat="42.6938980" lon="-0.0508890">
        <ele>3052.4</ele>
        <time>2022-07-23T15:12:54Z</time>
      </trkpt>
      <trkpt lat="42.6939260" lon="-0.0509240">
        <ele>3052.4</ele>
        <time>2022-07-23T15:13:14Z</time>
      </trkpt>
      <trkpt lat="42.6939190" lon="-0.0508490">
        <ele>3052.8</ele>
        <time>2022-07-23T15:13:25Z</time>
      </trkpt>
      <trkpt lat="42.6939160" lon="-0.0508170">
        <ele>3053.4</ele>
        <time>2022-07-23T15:13:35Z</time>
      </trkpt>
      <trkpt lat="42.6939160" lon="-0.0508180">
        <ele>3053.4</ele>
        <time>2022-07-23T15:13:36Z</time>
      </trkpt>
      <trkpt lat="42.6939160" lon="-0.0508190">
        <ele>3053.4</ele>
        <time>2022-07-23T15:13:40Z</time>
      </trkpt>
      <trkpt lat="42.6939150" lon="-0.0508200">
        <ele>3053.4</ele>
        <time>2022-07-23T15:13:41Z</time>
      </trkpt>
      <trkpt lat="42.6939150" lon="-0.0508210">
        <ele>3053.6</ele>
        <time>2022-07-23T15:13:45Z</time>
      </trkpt>
      <trkpt lat="42.6939130" lon="-0.0508220">
        <ele>3053.6</ele>
        <time>2022-07-23T15:13:52Z</time>
      </trkpt>
      <trkpt lat="42.6939120" lon="-0.0508230">
        <ele>3053.6</ele>
        <time>2022-07-23T15:13:54Z</time>
      </trkpt>
      <trkpt lat="42.6939120" lon="-0.0508230">
        <ele>3053.4</ele>
        <time>2022-07-23T15:13:56Z</time>
      </trkpt>
      <trkpt lat="42.6939090" lon="-0.0508290">
        <ele>3053.6</ele>
        <time>2022-07-23T15:14:08Z</time>
      </trkpt>
      <trkpt lat="42.6939090" lon="-0.0508340">
        <ele>3053.8</ele>
        <time>2022-07-23T15:14:28Z</time>
      </trkpt>
      <trkpt lat="42.6939090" lon="-0.0508350">
        <ele>3053.8</ele>
        <time>2022-07-23T15:14:29Z</time>
      </trkpt>
      <trkpt lat="42.6939090" lon="-0.0508350">
        <ele>3053.2</ele>
        <time>2022-07-23T15:14:33Z</time>
      </trkpt>
      <trkpt lat="42.6939080" lon="-0.0508360">
        <ele>3053.2</ele>
        <time>2022-07-23T15:14:35Z</time>
      </trkpt>
      <trkpt lat="42.6938900" lon="-0.0508540">
        <ele>3053.4</ele>
        <time>2022-07-23T15:14:52Z</time>
      </trkpt>
      <trkpt lat="42.6938880" lon="-0.0508540">
        <ele>3053.6</ele>
        <time>2022-07-23T15:14:53Z</time>
      </trkpt>
      <trkpt lat="42.6938850" lon="-0.0508560">
        <ele>3053.8</ele>
        <time>2022-07-23T15:14:54Z</time>
      </trkpt>
      <trkpt lat="42.6938830" lon="-0.0508570">
        <ele>3053.8</ele>
        <time>2022-07-23T15:14:55Z</time>
      </trkpt>
      <trkpt lat="42.6939010" lon="-0.0508580">
        <ele>3053.6</ele>
        <time>2022-07-23T15:15:01Z</time>
      </trkpt>
      <trkpt lat="42.6939260" lon="-0.0508790">
        <ele>3053.0</ele>
        <time>2022-07-23T15:15:16Z</time>
      </trkpt>
      <trkpt lat="42.6939230" lon="-0.0508920">
        <ele>3052.8</ele>
        <time>2022-07-23T15:15:22Z</time>
      </trkpt>
      <trkpt lat="42.6939050" lon="-0.0508950">
        <ele>3052.8</ele>
        <time>2022-07-23T15:15:30Z</time>
      </trkpt>
      <trkpt lat="42.6939070" lon="-0.0509300">
        <ele>3052.8</ele>
        <time>2022-07-23T15:15:47Z</time>
      </trkpt>
      <trkpt lat="42.6939140" lon="-0.0508950">
        <ele>3052.6</ele>
        <time>2022-07-23T15:16:01Z</time>
      </trkpt>
      <trkpt lat="42.6939150" lon="-0.0508950">
        <ele>3052.6</ele>
        <time>2022-07-23T15:16:02Z</time>
      </trkpt>
      <trkpt lat="42.6939150" lon="-0.0508950">
        <ele>3052.6</ele>
        <time>2022-07-23T15:16:03Z</time>
      </trkpt>
      <trkpt lat="42.6939160" lon="-0.0508950">
        <ele>3052.6</ele>
        <time>2022-07-23T15:16:04Z</time>
      </trkpt>
      <trkpt lat="42.6939160" lon="-0.0508950">
        <ele>3052.6</ele>
        <time>2022-07-23T15:16:05Z</time>
      </trkpt>
      <trkpt lat="42.6939160" lon="-0.0508950">
        <ele>3052.6</ele>
        <time>2022-07-23T15:16:06Z</time>
      </trkpt>
      <trkpt lat="42.6939160" lon="-0.0508950">
        <ele>3052.6</ele>
        <time>2022-07-23T15:16:07Z</time>
      </trkpt>
      <trkpt lat="42.6939160" lon="-0.0508950">
        <ele>3052.6</ele>
        <time>2022-07-23T15:16:08Z</time>
      </trkpt>
      <trkpt lat="42.6939050" lon="-0.0509010">
        <ele>3052.6</ele>
        <time>2022-07-23T15:16:23Z</time>
      </trkpt>
      <trkpt lat="42.6938810" lon="-0.0508890">
        <ele>3052.2</ele>
        <time>2022-07-23T15:16:35Z</time>
      </trkpt>
      <trkpt lat="42.6938730" lon="-0.0508950">
        <ele>3052.2</ele>
        <time>2022-07-23T15:16:49Z</time>
      </trkpt>
      <trkpt lat="42.6938730" lon="-0.0508950">
        <ele>3052.2</ele>
        <time>2022-07-23T15:16:50Z</time>
      </trkpt>
      <trkpt lat="42.6938740" lon="-0.0508950">
        <ele>3052.2</ele>
        <time>2022-07-23T15:16:52Z</time>
      </trkpt>
      <trkpt lat="42.6938740" lon="-0.0508950">
        <ele>3052.2</ele>
        <time>2022-07-23T15:16:53Z</time>
      </trkpt>
      <trkpt lat="42.6938720" lon="-0.0508960">
        <ele>3052.2</ele>
        <time>2022-07-23T15:17:01Z</time>
      </trkpt>
      <trkpt lat="42.6938720" lon="-0.0508980">
        <ele>3052.2</ele>
        <time>2022-07-23T15:17:02Z</time>
      </trkpt>
      <trkpt lat="42.6938710" lon="-0.0509000">
        <ele>3052.2</ele>
        <time>2022-07-23T15:17:03Z</time>
      </trkpt>
      <trkpt lat="42.6938750" lon="-0.0509050">
        <ele>3052.4</ele>
        <time>2022-07-23T15:17:11Z</time>
      </trkpt>
      <trkpt lat="42.6938780" lon="-0.0509040">
        <ele>3052.4</ele>
        <time>2022-07-23T15:17:13Z</time>
      </trkpt>
      <trkpt lat="42.6937620" lon="-0.0510720">
        <ele>3130.0</ele>
        <time>2022-07-23T15:44:45Z</time>
      </trkpt>
      <trkpt lat="42.6937550" lon="-0.0510820">
        <ele>3139.6</ele>
        <time>2022-07-23T15:44:46Z</time>
      </trkpt>
      <trkpt lat="42.6937180" lon="-0.0511450">
        <ele>3140.2</ele>
        <time>2022-07-23T15:44:53Z</time>
      </trkpt>
      <trkpt lat="42.6936890" lon="-0.0512170">
        <ele>3140.8</ele>
        <time>2022-07-23T15:44:57Z</time>
      </trkpt>
      <trkpt lat="42.6936750" lon="-0.0512850">
        <ele>3141.0</ele>
        <time>2022-07-23T15:45:00Z</time>
      </trkpt>
      <trkpt lat="42.6936670" lon="-0.0513140">
        <ele>3142.0</ele>
        <time>2022-07-23T15:45:02Z</time>
      </trkpt>
      <trkpt lat="42.6936390" lon="-0.0513660">
        <ele>3140.8</ele>
        <time>2022-07-23T15:45:06Z</time>
      </trkpt>
      <trkpt lat="42.6936410" lon="-0.0514000">
        <ele>3141.0</ele>
        <time>2022-07-23T15:45:09Z</time>
      </trkpt>
      <trkpt lat="42.6936290" lon="-0.0514410">
        <ele>3141.2</ele>
        <time>2022-07-23T15:45:12Z</time>
      </trkpt>
      <trkpt lat="42.6936200" lon="-0.0514500">
        <ele>3141.4</ele>
        <time>2022-07-23T15:45:13Z</time>
      </trkpt>
      <trkpt lat="42.6936090" lon="-0.0514600">
        <ele>3141.4</ele>
        <time>2022-07-23T15:45:14Z</time>
      </trkpt>
      <trkpt lat="42.6935840" lon="-0.0514910">
        <ele>3141.2</ele>
        <time>2022-07-23T15:45:18Z</time>
      </trkpt>
      <trkpt lat="42.6935790" lon="-0.0514990">
        <ele>3141.0</ele>
        <time>2022-07-23T15:45:19Z</time>
      </trkpt>
      <trkpt lat="42.6935690" lon="-0.0515120">
        <ele>3140.6</ele>
        <time>2022-07-23T15:45:21Z</time>
      </trkpt>
      <trkpt lat="42.6935560" lon="-0.0515270">
        <ele>3139.8</ele>
        <time>2022-07-23T15:45:23Z</time>
      </trkpt>
      <trkpt lat="42.6935370" lon="-0.0515670">
        <ele>3138.6</ele>
        <time>2022-07-23T15:45:28Z</time>
      </trkpt>
      <trkpt lat="42.6935340" lon="-0.0515790">
        <ele>3138.4</ele>
        <time>2022-07-23T15:45:29Z</time>
      </trkpt>
      <trkpt lat="42.6935030" lon="-0.0516080">
        <ele>3138.0</ele>
        <time>2022-07-23T15:45:32Z</time>
      </trkpt>
      <trkpt lat="42.6934890" lon="-0.0516170">
        <ele>3137.8</ele>
        <time>2022-07-23T15:45:33Z</time>
      </trkpt>
      <trkpt lat="42.6934680" lon="-0.0516410">
        <ele>3137.4</ele>
        <time>2022-07-23T15:45:35Z</time>
      </trkpt>
      <trkpt lat="42.6934520" lon="-0.0516590">
        <ele>3137.2</ele>
        <time>2022-07-23T15:45:37Z</time>
      </trkpt>
      <trkpt lat="42.6934430" lon="-0.0516650">
        <ele>3136.8</ele>
        <time>2022-07-23T15:45:38Z</time>
      </trkpt>
      <trkpt lat="42.6934160" lon="-0.0516790">
        <ele>3136.0</ele>
        <time>2022-07-23T15:45:40Z</time>
      </trkpt>
      <trkpt lat="42.6934060" lon="-0.0516860">
        <ele>3135.6</ele>
        <time>2022-07-23T15:45:41Z</time>
      </trkpt>
      <trkpt lat="42.6933880" lon="-0.0516970">
        <ele>3134.8</ele>
        <time>2022-07-23T15:45:43Z</time>
      </trkpt>
      <trkpt lat="42.6933790" lon="-0.0516990">
        <ele>3134.4</ele>
        <time>2022-07-23T15:45:46Z</time>
      </trkpt>
      <trkpt lat="42.6933800" lon="-0.0517020">
        <ele>3134.0</ele>
        <time>2022-07-23T15:45:47Z</time>
      </trkpt>
      <trkpt lat="42.6933770" lon="-0.0517190">
        <ele>3133.2</ele>
        <time>2022-07-23T15:45:50Z</time>
      </trkpt>
      <trkpt lat="42.6933480" lon="-0.0518090">
        <ele>3129.2</ele>
        <time>2022-07-23T15:45:57Z</time>
      </trkpt>
      <trkpt lat="42.6933360" lon="-0.0518300">
        <ele>3128.8</ele>
        <time>2022-07-23T15:45:58Z</time>
      </trkpt>
      <trkpt lat="42.6932820" lon="-0.0519110">
        <ele>3127.6</ele>
        <time>2022-07-23T15:46:02Z</time>
      </trkpt>
      <trkpt lat="42.6932570" lon="-0.0519600">
        <ele>3127.0</ele>
        <time>2022-07-23T15:46:06Z</time>
      </trkpt>
      <trkpt lat="42.6932440" lon="-0.0520090">
        <ele>3125.6</ele>
        <time>2022-07-23T15:46:10Z</time>
      </trkpt>
      <trkpt lat="42.6932410" lon="-0.0520270">
        <ele>3125.0</ele>
        <time>2022-07-23T15:46:11Z</time>
      </trkpt>
      <trkpt lat="42.6932310" lon="-0.0520820">
        <ele>3124.0</ele>
        <time>2022-07-23T15:46:14Z</time>
      </trkpt>
      <trkpt lat="42.6932200" lon="-0.0521040">
        <ele>3123.2</ele>
        <time>2022-07-23T15:46:15Z</time>
      </trkpt>
      <trkpt lat="42.6932070" lon="-0.0521320">
        <ele>3122.6</ele>
        <time>2022-07-23T15:46:16Z</time>
      </trkpt>
      <trkpt lat="42.6931840" lon="-0.0521890">
        <ele>3122.4</ele>
        <time>2022-07-23T15:46:18Z</time>
      </trkpt>
      <trkpt lat="42.6931630" lon="-0.0522610">
        <ele>3121.4</ele>
        <time>2022-07-23T15:46:22Z</time>
      </trkpt>
      <trkpt lat="42.6931300" lon="-0.0523670">
        <ele>3119.0</ele>
        <time>2022-07-23T15:46:27Z</time>
      </trkpt>
      <trkpt lat="42.6931170" lon="-0.0524210">
        <ele>3118.0</ele>
        <time>2022-07-23T15:46:30Z</time>
      </trkpt>
      <trkpt lat="42.6930980" lon="-0.0524690">
        <ele>3116.6</ele>
        <time>2022-07-23T15:46:36Z</time>
      </trkpt>
      <trkpt lat="42.6930990" lon="-0.0524800">
        <ele>3116.4</ele>
        <time>2022-07-23T15:46:37Z</time>
      </trkpt>
      <trkpt lat="42.6931020" lon="-0.0524910">
        <ele>3116.0</ele>
        <time>2022-07-23T15:46:38Z</time>
      </trkpt>
      <trkpt lat="42.6931070" lon="-0.0525710">
        <ele>3114.6</ele>
        <time>2022-07-23T15:46:43Z</time>
      </trkpt>
      <trkpt lat="42.6931000" lon="-0.0526440">
        <ele>3113.6</ele>
        <time>2022-07-23T15:46:47Z</time>
      </trkpt>
      <trkpt lat="42.6930780" lon="-0.0527190">
        <ele>3113.0</ele>
        <time>2022-07-23T15:46:52Z</time>
      </trkpt>
      <trkpt lat="42.6930810" lon="-0.0528080">
        <ele>3113.0</ele>
        <time>2022-07-23T15:46:58Z</time>
      </trkpt>
      <trkpt lat="42.6930700" lon="-0.0528980">
        <ele>3113.2</ele>
        <time>2022-07-23T15:47:03Z</time>
      </trkpt>
      <trkpt lat="42.6930800" lon="-0.0529170">
        <ele>3113.6</ele>
        <time>2022-07-23T15:47:07Z</time>
      </trkpt>
      <trkpt lat="42.6930810" lon="-0.0529250">
        <ele>3114.0</ele>
        <time>2022-07-23T15:47:08Z</time>
      </trkpt>
      <trkpt lat="42.6930540" lon="-0.0529210">
        <ele>3115.2</ele>
        <time>2022-07-23T15:47:17Z</time>
      </trkpt>
      <trkpt lat="42.6930520" lon="-0.0529250">
        <ele>3114.8</ele>
        <time>2022-07-23T15:47:35Z</time>
      </trkpt>
      <trkpt lat="42.6930520" lon="-0.0529250">
        <ele>3114.8</ele>
        <time>2022-07-23T15:47:36Z</time>
      </trkpt>
      <trkpt lat="42.6930540" lon="-0.0529240">
        <ele>3114.6</ele>
        <time>2022-07-23T15:48:00Z</time>
      </trkpt>
      <trkpt lat="42.6930490" lon="-0.0529270">
        <ele>3114.0</ele>
        <time>2022-07-23T15:48:22Z</time>
      </trkpt>
      <trkpt lat="42.6930500" lon="-0.0529270">
        <ele>3113.8</ele>
        <time>2022-07-23T15:48:27Z</time>
      </trkpt>
      <trkpt lat="42.6930500" lon="-0.0529270">
        <ele>3113.8</ele>
        <time>2022-07-23T15:48:32Z</time>
      </trkpt>
      <trkpt lat="42.6930500" lon="-0.0529260">
        <ele>3113.8</ele>
        <time>2022-07-23T15:48:45Z</time>
      </trkpt>
      <trkpt lat="42.6930500" lon="-0.0529260">
        <ele>3113.6</ele>
        <time>2022-07-23T15:48:47Z</time>
      </trkpt>
      <trkpt lat="42.6930500" lon="-0.0529260">
        <ele>3113.8</ele>
        <time>2022-07-23T15:48:48Z</time>
      </trkpt>
      <trkpt lat="42.6930500" lon="-0.0529260">
        <ele>3113.8</ele>
        <time>2022-07-23T15:48:49Z</time>
      </trkpt>
      <trkpt lat="42.6930530" lon="-0.0529260">
        <ele>3114.0</ele>
        <time>2022-07-23T15:48:59Z</time>
      </trkpt>
      <trkpt lat="42.6930530" lon="-0.0529260">
        <ele>3114.2</ele>
        <time>2022-07-23T15:49:00Z</time>
      </trkpt>
      <trkpt lat="42.6930470" lon="-0.0529320">
        <ele>3114.0</ele>
        <time>2022-07-23T15:49:14Z</time>
      </trkpt>
      <trkpt lat="42.6930420" lon="-0.0529280">
        <ele>3114.0</ele>
        <time>2022-07-23T15:49:29Z</time>
      </trkpt>
      <trkpt lat="42.6930420" lon="-0.0529230">
        <ele>3114.2</ele>
        <time>2022-07-23T15:49:32Z</time>
      </trkpt>
      <trkpt lat="42.6930410" lon="-0.0529200">
        <ele>3114.2</ele>
        <time>2022-07-23T15:49:36Z</time>
      </trkpt>
      <trkpt lat="42.6930410" lon="-0.0529170">
        <ele>3114.2</ele>
        <time>2022-07-23T15:49:38Z</time>
      </trkpt>
      <trkpt lat="42.6930400" lon="-0.0529170">
        <ele>3114.2</ele>
        <time>2022-07-23T15:49:41Z</time>
      </trkpt>
      <trkpt lat="42.6930410" lon="-0.0529180">
        <ele>3114.6</ele>
        <time>2022-07-23T15:49:52Z</time>
      </trkpt>
      <trkpt lat="42.6930420" lon="-0.0529190">
        <ele>3114.6</ele>
        <time>2022-07-23T15:49:55Z</time>
      </trkpt>
      <trkpt lat="42.6930420" lon="-0.0529200">
        <ele>3114.6</ele>
        <time>2022-07-23T15:49:57Z</time>
      </trkpt>
      <trkpt lat="42.6930430" lon="-0.0529200">
        <ele>3114.6</ele>
        <time>2022-07-23T15:50:04Z</time>
      </trkpt>
      <trkpt lat="42.6930440" lon="-0.0529200">
        <ele>3114.6</ele>
        <time>2022-07-23T15:50:06Z</time>
      </trkpt>
      <trkpt lat="42.6930430" lon="-0.0529200">
        <ele>3114.4</ele>
        <time>2022-07-23T15:50:18Z</time>
      </trkpt>
      <trkpt lat="42.6930440" lon="-0.0529200">
        <ele>3114.4</ele>
        <time>2022-07-23T15:50:20Z</time>
      </trkpt>
      <trkpt lat="42.6930480" lon="-0.0529190">
        <ele>3114.4</ele>
        <time>2022-07-23T15:50:23Z</time>
      </trkpt>
      <trkpt lat="42.6930490" lon="-0.0529190">
        <ele>3114.6</ele>
        <time>2022-07-23T15:50:24Z</time>
      </trkpt>
      <trkpt lat="42.6930490" lon="-0.0529200">
        <ele>3114.4</ele>
        <time>2022-07-23T15:50:25Z</time>
      </trkpt>
      <trkpt lat="42.6930510" lon="-0.0529250">
        <ele>3114.4</ele>
        <time>2022-07-23T15:50:27Z</time>
      </trkpt>
      <trkpt lat="42.6930490" lon="-0.0529290">
        <ele>3114.4</ele>
        <time>2022-07-23T15:50:29Z</time>
      </trkpt>
      <trkpt lat="42.6930490" lon="-0.0529300">
        <ele>3114.4</ele>
        <time>2022-07-23T15:50:32Z</time>
      </trkpt>
      <trkpt lat="42.6930490" lon="-0.0529300">
        <ele>3114.2</ele>
        <time>2022-07-23T15:50:33Z</time>
      </trkpt>
      <trkpt lat="42.6930490" lon="-0.0529310">
        <ele>3114.2</ele>
        <time>2022-07-23T15:50:36Z</time>
      </trkpt>
      <trkpt lat="42.6930480" lon="-0.0529310">
        <ele>3113.8</ele>
        <time>2022-07-23T15:50:37Z</time>
      </trkpt>
      <trkpt lat="42.6930430" lon="-0.0529300">
        <ele>3113.8</ele>
        <time>2022-07-23T15:50:39Z</time>
      </trkpt>
      <trkpt lat="42.6930390" lon="-0.0529290">
        <ele>3113.6</ele>
        <time>2022-07-23T15:50:40Z</time>
      </trkpt>
      <trkpt lat="42.6930300" lon="-0.0529340">
        <ele>3113.4</ele>
        <time>2022-07-23T15:50:42Z</time>
      </trkpt>
      <trkpt lat="42.6930180" lon="-0.0529530">
        <ele>3112.4</ele>
        <time>2022-07-23T15:50:45Z</time>
      </trkpt>
      <trkpt lat="42.6929830" lon="-0.0529520">
        <ele>3111.6</ele>
        <time>2022-07-23T15:50:51Z</time>
      </trkpt>
      <trkpt lat="42.6929740" lon="-0.0529510">
        <ele>3111.4</ele>
        <time>2022-07-23T15:50:52Z</time>
      </trkpt>
      <trkpt lat="42.6929690" lon="-0.0529530">
        <ele>3111.2</ele>
        <time>2022-07-23T15:50:53Z</time>
      </trkpt>
      <trkpt lat="42.6929650" lon="-0.0529540">
        <ele>3111.0</ele>
        <time>2022-07-23T15:50:54Z</time>
      </trkpt>
      <trkpt lat="42.6929360" lon="-0.0529600">
        <ele>3110.4</ele>
        <time>2022-07-23T15:50:58Z</time>
      </trkpt>
      <trkpt lat="42.6929110" lon="-0.0530060">
        <ele>3109.4</ele>
        <time>2022-07-23T15:51:02Z</time>
      </trkpt>
      <trkpt lat="42.6928900" lon="-0.0530430">
        <ele>3107.8</ele>
        <time>2022-07-23T15:51:05Z</time>
      </trkpt>
      <trkpt lat="42.6928690" lon="-0.0530790">
        <ele>3106.8</ele>
        <time>2022-07-23T15:51:10Z</time>
      </trkpt>
      <trkpt lat="42.6928660" lon="-0.0530820">
        <ele>3107.0</ele>
        <time>2022-07-23T15:51:11Z</time>
      </trkpt>
      <trkpt lat="42.6928610" lon="-0.0531090">
        <ele>3106.8</ele>
        <time>2022-07-23T15:51:14Z</time>
      </trkpt>
      <trkpt lat="42.6928560" lon="-0.0531150">
        <ele>3106.6</ele>
        <time>2022-07-23T15:51:15Z</time>
      </trkpt>
      <trkpt lat="42.6928480" lon="-0.0531170">
        <ele>3106.6</ele>
        <time>2022-07-23T15:51:16Z</time>
      </trkpt>
      <trkpt lat="42.6928460" lon="-0.0531200">
        <ele>3106.2</ele>
        <time>2022-07-23T15:51:17Z</time>
      </trkpt>
      <trkpt lat="42.6928230" lon="-0.0531270">
        <ele>3106.0</ele>
        <time>2022-07-23T15:51:22Z</time>
      </trkpt>
      <trkpt lat="42.6928040" lon="-0.0531310">
        <ele>3104.8</ele>
        <time>2022-07-23T15:51:25Z</time>
      </trkpt>
      <trkpt lat="42.6927510" lon="-0.0531600">
        <ele>3102.0</ele>
        <time>2022-07-23T15:51:30Z</time>
      </trkpt>
      <trkpt lat="42.6927400" lon="-0.0531700">
        <ele>3101.4</ele>
        <time>2022-07-23T15:51:31Z</time>
      </trkpt>
      <trkpt lat="42.6927100" lon="-0.0532230">
        <ele>3099.8</ele>
        <time>2022-07-23T15:51:37Z</time>
      </trkpt>
      <trkpt lat="42.6927080" lon="-0.0532300">
        <ele>3099.8</ele>
        <time>2022-07-23T15:51:38Z</time>
      </trkpt>
      <trkpt lat="42.6926830" lon="-0.0532890">
        <ele>3099.0</ele>
        <time>2022-07-23T15:51:43Z</time>
      </trkpt>
      <trkpt lat="42.6926390" lon="-0.0534690">
        <ele>3096.2</ele>
        <time>2022-07-23T15:51:55Z</time>
      </trkpt>
      <trkpt lat="42.6926400" lon="-0.0534860">
        <ele>3096.2</ele>
        <time>2022-07-23T15:51:56Z</time>
      </trkpt>
      <trkpt lat="42.6926110" lon="-0.0535740">
        <ele>3096.6</ele>
        <time>2022-07-23T15:52:03Z</time>
      </trkpt>
      <trkpt lat="42.6925790" lon="-0.0536170">
        <ele>3097.4</ele>
        <time>2022-07-23T15:52:08Z</time>
      </trkpt>
      <trkpt lat="42.6925410" lon="-0.0536700">
        <ele>3098.0</ele>
        <time>2022-07-23T15:52:14Z</time>
      </trkpt>
      <trkpt lat="42.6925110" lon="-0.0536930">
        <ele>3098.0</ele>
        <time>2022-07-23T15:52:18Z</time>
      </trkpt>
      <trkpt lat="42.6924670" lon="-0.0537000">
        <ele>3098.0</ele>
        <time>2022-07-23T15:52:23Z</time>
      </trkpt>
      <trkpt lat="42.6924350" lon="-0.0537030">
        <ele>3097.8</ele>
        <time>2022-07-23T15:52:26Z</time>
      </trkpt>
      <trkpt lat="42.6923390" lon="-0.0537880">
        <ele>3096.4</ele>
        <time>2022-07-23T15:52:36Z</time>
      </trkpt>
      <trkpt lat="42.6923280" lon="-0.0538470">
        <ele>3096.2</ele>
        <time>2022-07-23T15:52:41Z</time>
      </trkpt>
      <trkpt lat="42.6923300" lon="-0.0538650">
        <ele>3096.2</ele>
        <time>2022-07-23T15:52:45Z</time>
      </trkpt>
      <trkpt lat="42.6923210" lon="-0.0538750">
        <ele>3097.2</ele>
        <time>2022-07-23T15:53:01Z</time>
      </trkpt>
      <trkpt lat="42.6923000" lon="-0.0538970">
        <ele>3097.0</ele>
        <time>2022-07-23T15:53:09Z</time>
      </trkpt>
      <trkpt lat="42.6922770" lon="-0.0539450">
        <ele>3097.0</ele>
        <time>2022-07-23T15:53:13Z</time>
      </trkpt>
      <trkpt lat="42.6922690" lon="-0.0539580">
        <ele>3096.8</ele>
        <time>2022-07-23T15:53:14Z</time>
      </trkpt>
      <trkpt lat="42.6922340" lon="-0.0540160">
        <ele>3096.2</ele>
        <time>2022-07-23T15:53:19Z</time>
      </trkpt>
      <trkpt lat="42.6922160" lon="-0.0540490">
        <ele>3095.8</ele>
        <time>2022-07-23T15:53:23Z</time>
      </trkpt>
      <trkpt lat="42.6922110" lon="-0.0540600">
        <ele>3095.0</ele>
        <time>2022-07-23T15:53:26Z</time>
      </trkpt>
      <trkpt lat="42.6922110" lon="-0.0540580">
        <ele>3095.2</ele>
        <time>2022-07-23T15:53:27Z</time>
      </trkpt>
      <trkpt lat="42.6922120" lon="-0.0540540">
        <ele>3095.0</ele>
        <time>2022-07-23T15:53:30Z</time>
      </trkpt>
      <trkpt lat="42.6922150" lon="-0.0540510">
        <ele>3094.6</ele>
        <time>2022-07-23T15:53:39Z</time>
      </trkpt>
      <trkpt lat="42.6922120" lon="-0.0540620">
        <ele>3094.6</ele>
        <time>2022-07-23T15:53:51Z</time>
      </trkpt>
      <trkpt lat="42.6922120" lon="-0.0540630">
        <ele>3094.6</ele>
        <time>2022-07-23T15:53:52Z</time>
      </trkpt>
      <trkpt lat="42.6922130" lon="-0.0540640">
        <ele>3094.8</ele>
        <time>2022-07-23T15:53:53Z</time>
      </trkpt>
      <trkpt lat="42.6922130" lon="-0.0540650">
        <ele>3094.6</ele>
        <time>2022-07-23T15:53:56Z</time>
      </trkpt>
      <trkpt lat="42.6922130" lon="-0.0540650">
        <ele>3094.4</ele>
        <time>2022-07-23T15:53:58Z</time>
      </trkpt>
      <trkpt lat="42.6922130" lon="-0.0540650">
        <ele>3094.6</ele>
        <time>2022-07-23T15:53:59Z</time>
      </trkpt>
      <trkpt lat="42.6922130" lon="-0.0540660">
        <ele>3094.2</ele>
        <time>2022-07-23T15:54:03Z</time>
      </trkpt>
      <trkpt lat="42.6922140" lon="-0.0540670">
        <ele>3094.0</ele>
        <time>2022-07-23T15:54:08Z</time>
      </trkpt>
      <trkpt lat="42.6922140" lon="-0.0540640">
        <ele>3094.2</ele>
        <time>2022-07-23T15:54:13Z</time>
      </trkpt>
      <trkpt lat="42.6922050" lon="-0.0540620">
        <ele>3094.4</ele>
        <time>2022-07-23T15:54:15Z</time>
      </trkpt>
      <trkpt lat="42.6921880" lon="-0.0540610">
        <ele>3094.0</ele>
        <time>2022-07-23T15:54:17Z</time>
      </trkpt>
      <trkpt lat="42.6921550" lon="-0.0540610">
        <ele>3093.8</ele>
        <time>2022-07-23T15:54:19Z</time>
      </trkpt>
      <trkpt lat="42.6920980" lon="-0.0540610">
        <ele>3093.8</ele>
        <time>2022-07-23T15:54:22Z</time>
      </trkpt>
      <trkpt lat="42.6920440" lon="-0.0540560">
        <ele>3091.6</ele>
        <time>2022-07-23T15:54:26Z</time>
      </trkpt>
      <trkpt lat="42.6920360" lon="-0.0540500">
        <ele>3091.0</ele>
        <time>2022-07-23T15:54:28Z</time>
      </trkpt>
      <trkpt lat="42.6919870" lon="-0.0540440">
        <ele>3089.4</ele>
        <time>2022-07-23T15:54:33Z</time>
      </trkpt>
      <trkpt lat="42.6919690" lon="-0.0540490">
        <ele>3088.8</ele>
        <time>2022-07-23T15:54:35Z</time>
      </trkpt>
      <trkpt lat="42.6919390" lon="-0.0540240">
        <ele>3088.2</ele>
        <time>2022-07-23T15:54:38Z</time>
      </trkpt>
      <trkpt lat="42.6919290" lon="-0.0540110">
        <ele>3087.8</ele>
        <time>2022-07-23T15:54:39Z</time>
      </trkpt>
      <trkpt lat="42.6919260" lon="-0.0539980">
        <ele>3087.6</ele>
        <time>2022-07-23T15:54:40Z</time>
      </trkpt>
      <trkpt lat="42.6919340" lon="-0.0538950">
        <ele>3086.2</ele>
        <time>2022-07-23T15:54:46Z</time>
      </trkpt>
      <trkpt lat="42.6919100" lon="-0.0538860">
        <ele>3083.8</ele>
        <time>2022-07-23T15:54:52Z</time>
      </trkpt>
      <trkpt lat="42.6919070" lon="-0.0538870">
        <ele>3083.4</ele>
        <time>2022-07-23T15:54:53Z</time>
      </trkpt>
      <trkpt lat="42.6918940" lon="-0.0538830">
        <ele>3083.4</ele>
        <time>2022-07-23T15:54:54Z</time>
      </trkpt>
      <trkpt lat="42.6918570" lon="-0.0538760">
        <ele>3082.8</ele>
        <time>2022-07-23T15:54:59Z</time>
      </trkpt>
      <trkpt lat="42.6918620" lon="-0.0538740">
        <ele>3082.2</ele>
        <time>2022-07-23T15:55:04Z</time>
      </trkpt>
      <trkpt lat="42.6918640" lon="-0.0538700">
        <ele>3082.0</ele>
        <time>2022-07-23T15:55:07Z</time>
      </trkpt>
      <trkpt lat="42.6918790" lon="-0.0538480">
        <ele>3081.8</ele>
        <time>2022-07-23T15:55:10Z</time>
      </trkpt>
      <trkpt lat="42.6918890" lon="-0.0538090">
        <ele>3081.4</ele>
        <time>2022-07-23T15:55:13Z</time>
      </trkpt>
      <trkpt lat="42.6918870" lon="-0.0537930">
        <ele>3081.4</ele>
        <time>2022-07-23T15:55:14Z</time>
      </trkpt>
      <trkpt lat="42.6918860" lon="-0.0537350">
        <ele>3081.2</ele>
        <time>2022-07-23T15:55:17Z</time>
      </trkpt>
      <trkpt lat="42.6918840" lon="-0.0536730">
        <ele>3080.2</ele>
        <time>2022-07-23T15:55:20Z</time>
      </trkpt>
      <trkpt lat="42.6918770" lon="-0.0536490">
        <ele>3079.2</ele>
        <time>2022-07-23T15:55:22Z</time>
      </trkpt>
      <trkpt lat="42.6918650" lon="-0.0536460">
        <ele>3078.6</ele>
        <time>2022-07-23T15:55:24Z</time>
      </trkpt>
      <trkpt lat="42.6918610" lon="-0.0536640">
        <ele>3077.8</ele>
        <time>2022-07-23T15:55:26Z</time>
      </trkpt>
      <trkpt lat="42.6918480" lon="-0.0536760">
        <ele>3076.8</ele>
        <time>2022-07-23T15:55:28Z</time>
      </trkpt>
      <trkpt lat="42.6918260" lon="-0.0537020">
        <ele>3075.2</ele>
        <time>2022-07-23T15:55:32Z</time>
      </trkpt>
      <trkpt lat="42.6918210" lon="-0.0537050">
        <ele>3074.4</ele>
        <time>2022-07-23T15:55:33Z</time>
      </trkpt>
      <trkpt lat="42.6917990" lon="-0.0536990">
        <ele>3072.6</ele>
        <time>2022-07-23T15:55:36Z</time>
      </trkpt>
      <trkpt lat="42.6917810" lon="-0.0537060">
        <ele>3071.4</ele>
        <time>2022-07-23T15:55:38Z</time>
      </trkpt>
      <trkpt lat="42.6917470" lon="-0.0537040">
        <ele>3070.4</ele>
        <time>2022-07-23T15:55:41Z</time>
      </trkpt>
      <trkpt lat="42.6917340" lon="-0.0537020">
        <ele>3069.8</ele>
        <time>2022-07-23T15:55:42Z</time>
      </trkpt>
      <trkpt lat="42.6917250" lon="-0.0537080">
        <ele>3069.4</ele>
        <time>2022-07-23T15:55:43Z</time>
      </trkpt>
      <trkpt lat="42.6917140" lon="-0.0537180">
        <ele>3069.2</ele>
        <time>2022-07-23T15:55:44Z</time>
      </trkpt>
      <trkpt lat="42.6916640" lon="-0.0537480">
        <ele>3067.0</ele>
        <time>2022-07-23T15:55:49Z</time>
      </trkpt>
      <trkpt lat="42.6916510" lon="-0.0537570">
        <ele>3065.4</ele>
        <time>2022-07-23T15:55:52Z</time>
      </trkpt>
      <trkpt lat="42.6916500" lon="-0.0537630">
        <ele>3065.0</ele>
        <time>2022-07-23T15:55:53Z</time>
      </trkpt>
      <trkpt lat="42.6916480" lon="-0.0537680">
        <ele>3064.2</ele>
        <time>2022-07-23T15:55:54Z</time>
      </trkpt>
      <trkpt lat="42.6916440" lon="-0.0537720">
        <ele>3063.6</ele>
        <time>2022-07-23T15:55:56Z</time>
      </trkpt>
      <trkpt lat="42.6916300" lon="-0.0538170">
        <ele>3061.8</ele>
        <time>2022-07-23T15:56:00Z</time>
      </trkpt>
      <trkpt lat="42.6916260" lon="-0.0538760">
        <ele>3061.2</ele>
        <time>2022-07-23T15:56:03Z</time>
      </trkpt>
      <trkpt lat="42.6916230" lon="-0.0538920">
        <ele>3060.4</ele>
        <time>2022-07-23T15:56:04Z</time>
      </trkpt>
      <trkpt lat="42.6915790" lon="-0.0539650">
        <ele>3059.6</ele>
        <time>2022-07-23T15:56:11Z</time>
      </trkpt>
      <trkpt lat="42.6915740" lon="-0.0539760">
        <ele>3059.4</ele>
        <time>2022-07-23T15:56:12Z</time>
      </trkpt>
      <trkpt lat="42.6915600" lon="-0.0540160">
        <ele>3059.4</ele>
        <time>2022-07-23T15:56:16Z</time>
      </trkpt>
      <trkpt lat="42.6915510" lon="-0.0540230">
        <ele>3059.4</ele>
        <time>2022-07-23T15:56:17Z</time>
      </trkpt>
      <trkpt lat="42.6915130" lon="-0.0540300">
        <ele>3059.4</ele>
        <time>2022-07-23T15:56:19Z</time>
      </trkpt>
      <trkpt lat="42.6914250" lon="-0.0540830">
        <ele>3058.4</ele>
        <time>2022-07-23T15:56:24Z</time>
      </trkpt>
      <trkpt lat="42.6913950" lon="-0.0541000">
        <ele>3058.0</ele>
        <time>2022-07-23T15:56:26Z</time>
      </trkpt>
      <trkpt lat="42.6913180" lon="-0.0542020">
        <ele>3056.0</ele>
        <time>2022-07-23T15:56:32Z</time>
      </trkpt>
      <trkpt lat="42.6913060" lon="-0.0542390">
        <ele>3055.8</ele>
        <time>2022-07-23T15:56:36Z</time>
      </trkpt>
      <trkpt lat="42.6913100" lon="-0.0542420">
        <ele>3056.0</ele>
        <time>2022-07-23T15:56:38Z</time>
      </trkpt>
      <trkpt lat="42.6913050" lon="-0.0542390">
        <ele>3056.0</ele>
        <time>2022-07-23T15:56:39Z</time>
      </trkpt>
      <trkpt lat="42.6912940" lon="-0.0542340">
        <ele>3055.8</ele>
        <time>2022-07-23T15:56:40Z</time>
      </trkpt>
      <trkpt lat="42.6912820" lon="-0.0542380">
        <ele>3056.0</ele>
        <time>2022-07-23T15:56:41Z</time>
      </trkpt>
      <trkpt lat="42.6912520" lon="-0.0542610">
        <ele>3055.8</ele>
        <time>2022-07-23T15:56:43Z</time>
      </trkpt>
      <trkpt lat="42.6912040" lon="-0.0543180">
        <ele>3055.6</ele>
        <time>2022-07-23T15:56:48Z</time>
      </trkpt>
      <trkpt lat="42.6911910" lon="-0.0543220">
        <ele>3055.0</ele>
        <time>2022-07-23T15:56:50Z</time>
      </trkpt>
      <trkpt lat="42.6911640" lon="-0.0543190">
        <ele>3054.2</ele>
        <time>2022-07-23T15:56:55Z</time>
      </trkpt>
      <trkpt lat="42.6911390" lon="-0.0543160">
        <ele>3053.6</ele>
        <time>2022-07-23T15:56:59Z</time>
      </trkpt>
      <trkpt lat="42.6911100" lon="-0.0543100">
        <ele>3053.2</ele>
        <time>2022-07-23T15:57:02Z</time>
      </trkpt>
      <trkpt lat="42.6910890" lon="-0.0543200">
        <ele>3052.6</ele>
        <time>2022-07-23T15:57:04Z</time>
      </trkpt>
      <trkpt lat="42.6910610" lon="-0.0543400">
        <ele>3052.4</ele>
        <time>2022-07-23T15:57:07Z</time>
      </trkpt>
      <trkpt lat="42.6909690" lon="-0.0543440">
        <ele>3051.8</ele>
        <time>2022-07-23T15:57:17Z</time>
      </trkpt>
      <trkpt lat="42.6909640" lon="-0.0543400">
        <ele>3052.0</ele>
        <time>2022-07-23T15:57:18Z</time>
      </trkpt>
      <trkpt lat="42.6909470" lon="-0.0543360">
        <ele>3051.8</ele>
        <time>2022-07-23T15:57:20Z</time>
      </trkpt>
      <trkpt lat="42.6908300" lon="-0.0543950">
        <ele>3050.2</ele>
        <time>2022-07-23T15:57:29Z</time>
      </trkpt>
      <trkpt lat="42.6907320" lon="-0.0544770">
        <ele>3049.4</ele>
        <time>2022-07-23T15:57:37Z</time>
      </trkpt>
      <trkpt lat="42.6906970" lon="-0.0545270">
        <ele>3049.2</ele>
        <time>2022-07-23T15:57:40Z</time>
      </trkpt>
      <trkpt lat="42.6906730" lon="-0.0545660">
        <ele>3049.6</ele>
        <time>2022-07-23T15:57:44Z</time>
      </trkpt>
      <trkpt lat="42.6906810" lon="-0.0545730">
        <ele>3050.0</ele>
        <time>2022-07-23T15:57:53Z</time>
      </trkpt>
      <trkpt lat="42.6906810" lon="-0.0545590">
        <ele>3049.8</ele>
        <time>2022-07-23T15:58:03Z</time>
      </trkpt>
      <trkpt lat="42.6906810" lon="-0.0545580">
        <ele>3049.6</ele>
        <time>2022-07-23T15:58:07Z</time>
      </trkpt>
      <trkpt lat="42.6906500" lon="-0.0545400">
        <ele>3049.4</ele>
        <time>2022-07-23T15:58:18Z</time>
      </trkpt>
      <trkpt lat="42.6905840" lon="-0.0545230">
        <ele>3048.8</ele>
        <time>2022-07-23T15:58:25Z</time>
      </trkpt>
      <trkpt lat="42.6905520" lon="-0.0545140">
        <ele>3048.6</ele>
        <time>2022-07-23T15:58:28Z</time>
      </trkpt>
      <trkpt lat="42.6905290" lon="-0.0545040">
        <ele>3048.2</ele>
        <time>2022-07-23T15:58:30Z</time>
      </trkpt>
      <trkpt lat="42.6905040" lon="-0.0544820">
        <ele>3048.0</ele>
        <time>2022-07-23T15:58:33Z</time>
      </trkpt>
      <trkpt lat="42.6904870" lon="-0.0544510">
        <ele>3047.8</ele>
        <time>2022-07-23T15:58:36Z</time>
      </trkpt>
      <trkpt lat="42.6904820" lon="-0.0544010">
        <ele>3047.4</ele>
        <time>2022-07-23T15:58:39Z</time>
      </trkpt>
      <trkpt lat="42.6904720" lon="-0.0543690">
        <ele>3046.8</ele>
        <time>2022-07-23T15:58:41Z</time>
      </trkpt>
      <trkpt lat="42.6904460" lon="-0.0543350">
        <ele>3046.6</ele>
        <time>2022-07-23T15:58:43Z</time>
      </trkpt>
      <trkpt lat="42.6903720" lon="-0.0542800">
        <ele>3045.0</ele>
        <time>2022-07-23T15:58:47Z</time>
      </trkpt>
      <trkpt lat="42.6903270" lon="-0.0542760">
        <ele>3043.8</ele>
        <time>2022-07-23T15:58:51Z</time>
      </trkpt>
      <trkpt lat="42.6903210" lon="-0.0542710">
        <ele>3043.6</ele>
        <time>2022-07-23T15:58:52Z</time>
      </trkpt>
      <trkpt lat="42.6902420" lon="-0.0542020">
        <ele>3044.0</ele>
        <time>2022-07-23T15:59:06Z</time>
      </trkpt>
      <trkpt lat="42.6902140" lon="-0.0541630">
        <ele>3044.0</ele>
        <time>2022-07-23T15:59:10Z</time>
      </trkpt>
      <trkpt lat="42.6902090" lon="-0.0541540">
        <ele>3044.0</ele>
        <time>2022-07-23T15:59:11Z</time>
      </trkpt>
      <trkpt lat="42.6901580" lon="-0.0541310">
        <ele>3043.4</ele>
        <time>2022-07-23T15:59:19Z</time>
      </trkpt>
      <trkpt lat="42.6901480" lon="-0.0541320">
        <ele>3043.4</ele>
        <time>2022-07-23T15:59:21Z</time>
      </trkpt>
      <trkpt lat="42.6901330" lon="-0.0541290">
        <ele>3043.0</ele>
        <time>2022-07-23T15:59:23Z</time>
      </trkpt>
      <trkpt lat="42.6900830" lon="-0.0541040">
        <ele>3042.2</ele>
        <time>2022-07-23T15:59:28Z</time>
      </trkpt>
      <trkpt lat="42.6900430" lon="-0.0540840">
        <ele>3041.2</ele>
        <time>2022-07-23T15:59:32Z</time>
      </trkpt>
      <trkpt lat="42.6900060" lon="-0.0540680">
        <ele>3039.8</ele>
        <time>2022-07-23T15:59:35Z</time>
      </trkpt>
      <trkpt lat="42.6899870" lon="-0.0540560">
        <ele>3039.8</ele>
        <time>2022-07-23T15:59:37Z</time>
      </trkpt>
      <trkpt lat="42.6899540" lon="-0.0540260">
        <ele>3039.6</ele>
        <time>2022-07-23T15:59:41Z</time>
      </trkpt>
      <trkpt lat="42.6899410" lon="-0.0540020">
        <ele>3039.6</ele>
        <time>2022-07-23T15:59:43Z</time>
      </trkpt>
      <trkpt lat="42.6899020" lon="-0.0539430">
        <ele>3039.8</ele>
        <time>2022-07-23T15:59:48Z</time>
      </trkpt>
      <trkpt lat="42.6898590" lon="-0.0538660">
        <ele>3039.4</ele>
        <time>2022-07-23T15:59:55Z</time>
      </trkpt>
      <trkpt lat="42.6898280" lon="-0.0538200">
        <ele>3038.6</ele>
        <time>2022-07-23T16:00:00Z</time>
      </trkpt>
      <trkpt lat="42.6897980" lon="-0.0537760">
        <ele>3038.6</ele>
        <time>2022-07-23T16:00:04Z</time>
      </trkpt>
      <trkpt lat="42.6897650" lon="-0.0537430">
        <ele>3038.2</ele>
        <time>2022-07-23T16:00:08Z</time>
      </trkpt>
      <trkpt lat="42.6897570" lon="-0.0537390">
        <ele>3037.8</ele>
        <time>2022-07-23T16:00:10Z</time>
      </trkpt>
      <trkpt lat="42.6897500" lon="-0.0537310">
        <ele>3036.8</ele>
        <time>2022-07-23T16:00:17Z</time>
      </trkpt>
      <trkpt lat="42.6897730" lon="-0.0537560">
        <ele>3036.6</ele>
        <time>2022-07-23T16:00:29Z</time>
      </trkpt>
      <trkpt lat="42.6897790" lon="-0.0537640">
        <ele>3036.6</ele>
        <time>2022-07-23T16:00:31Z</time>
      </trkpt>
      <trkpt lat="42.6897810" lon="-0.0537670">
        <ele>3036.6</ele>
        <time>2022-07-23T16:00:32Z</time>
      </trkpt>
      <trkpt lat="42.6897840" lon="-0.0537700">
        <ele>3036.4</ele>
        <time>2022-07-23T16:00:33Z</time>
      </trkpt>
      <trkpt lat="42.6897880" lon="-0.0537730">
        <ele>3036.6</ele>
        <time>2022-07-23T16:00:35Z</time>
      </trkpt>
      <trkpt lat="42.6897900" lon="-0.0537740">
        <ele>3036.6</ele>
        <time>2022-07-23T16:00:36Z</time>
      </trkpt>
      <trkpt lat="42.6897980" lon="-0.0537910">
        <ele>3037.0</ele>
        <time>2022-07-23T16:00:39Z</time>
      </trkpt>
      <trkpt lat="42.6898360" lon="-0.0538370">
        <ele>3037.8</ele>
        <time>2022-07-23T16:00:45Z</time>
      </trkpt>
      <trkpt lat="42.6898820" lon="-0.0538710">
        <ele>3037.8</ele>
        <time>2022-07-23T16:00:51Z</time>
      </trkpt>
      <trkpt lat="42.6899130" lon="-0.0539090">
        <ele>3037.8</ele>
        <time>2022-07-23T16:00:55Z</time>
      </trkpt>
      <trkpt lat="42.6899330" lon="-0.0539420">
        <ele>3037.8</ele>
        <time>2022-07-23T16:00:58Z</time>
      </trkpt>
      <trkpt lat="42.6899440" lon="-0.0539710">
        <ele>3038.0</ele>
        <time>2022-07-23T16:01:02Z</time>
      </trkpt>
      <trkpt lat="42.6899550" lon="-0.0540070">
        <ele>3038.0</ele>
        <time>2022-07-23T16:01:05Z</time>
      </trkpt>
      <trkpt lat="42.6900070" lon="-0.0540630">
        <ele>3038.6</ele>
        <time>2022-07-23T16:01:10Z</time>
      </trkpt>
      <trkpt lat="42.6900660" lon="-0.0540970">
        <ele>3039.0</ele>
        <time>2022-07-23T16:01:15Z</time>
      </trkpt>
      <trkpt lat="42.6900860" lon="-0.0541020">
        <ele>3039.0</ele>
        <time>2022-07-23T16:01:17Z</time>
      </trkpt>
      <trkpt lat="42.6900960" lon="-0.0541060">
        <ele>3039.2</ele>
        <time>2022-07-23T16:01:18Z</time>
      </trkpt>
      <trkpt lat="42.6901030" lon="-0.0541100">
        <ele>3039.2</ele>
        <time>2022-07-23T16:01:19Z</time>
      </trkpt>
      <trkpt lat="42.6901180" lon="-0.0541150">
        <ele>3039.2</ele>
        <time>2022-07-23T16:01:21Z</time>
      </trkpt>
      <trkpt lat="42.6901260" lon="-0.0541160">
        <ele>3039.2</ele>
        <time>2022-07-23T16:01:22Z</time>
      </trkpt>
      <trkpt lat="42.6901360" lon="-0.0541140">
        <ele>3039.4</ele>
        <time>2022-07-23T16:01:23Z</time>
      </trkpt>
      <trkpt lat="42.6901440" lon="-0.0541120">
        <ele>3039.4</ele>
        <time>2022-07-23T16:01:24Z</time>
      </trkpt>
      <trkpt lat="42.6901550" lon="-0.0541090">
        <ele>3039.4</ele>
        <time>2022-07-23T16:01:25Z</time>
      </trkpt>
      <trkpt lat="42.6901640" lon="-0.0541070">
        <ele>3039.4</ele>
        <time>2022-07-23T16:01:26Z</time>
      </trkpt>
      <trkpt lat="42.6901740" lon="-0.0541060">
        <ele>3039.4</ele>
        <time>2022-07-23T16:01:27Z</time>
      </trkpt>
      <trkpt lat="42.6901840" lon="-0.0541030">
        <ele>3039.4</ele>
        <time>2022-07-23T16:01:28Z</time>
      </trkpt>
      <trkpt lat="42.6901920" lon="-0.0541020">
        <ele>3039.4</ele>
        <time>2022-07-23T16:01:29Z</time>
      </trkpt>
      <trkpt lat="42.6902120" lon="-0.0541060">
        <ele>3039.4</ele>
        <time>2022-07-23T16:01:32Z</time>
      </trkpt>
      <trkpt lat="42.6902200" lon="-0.0541070">
        <ele>3039.4</ele>
        <time>2022-07-23T16:01:33Z</time>
      </trkpt>
      <trkpt lat="42.6902250" lon="-0.0541110">
        <ele>3039.4</ele>
        <time>2022-07-23T16:01:34Z</time>
      </trkpt>
      <trkpt lat="42.6902320" lon="-0.0541150">
        <ele>3039.8</ele>
        <time>2022-07-23T16:01:35Z</time>
      </trkpt>
      <trkpt lat="42.6902520" lon="-0.0541390">
        <ele>3040.0</ele>
        <time>2022-07-23T16:01:38Z</time>
      </trkpt>
      <trkpt lat="42.6902720" lon="-0.0541530">
        <ele>3040.2</ele>
        <time>2022-07-23T16:01:41Z</time>
      </trkpt>
      <trkpt lat="42.6902820" lon="-0.0541680">
        <ele>3040.4</ele>
        <time>2022-07-23T16:01:43Z</time>
      </trkpt>
      <trkpt lat="42.6902950" lon="-0.0541880">
        <ele>3040.8</ele>
        <time>2022-07-23T16:01:46Z</time>
      </trkpt>
      <trkpt lat="42.6903000" lon="-0.0541970">
        <ele>3040.8</ele>
        <time>2022-07-23T16:01:47Z</time>
      </trkpt>
      <trkpt lat="42.6903290" lon="-0.0542340">
        <ele>3041.0</ele>
        <time>2022-07-23T16:01:52Z</time>
      </trkpt>
      <trkpt lat="42.6903490" lon="-0.0542570">
        <ele>3042.0</ele>
        <time>2022-07-23T16:01:55Z</time>
      </trkpt>
      <trkpt lat="42.6903660" lon="-0.0542710">
        <ele>3042.0</ele>
        <time>2022-07-23T16:01:58Z</time>
      </trkpt>
      <trkpt lat="42.6904060" lon="-0.0543080">
        <ele>3043.0</ele>
        <time>2022-07-23T16:02:06Z</time>
      </trkpt>
      <trkpt lat="42.6904300" lon="-0.0542990">
        <ele>3043.2</ele>
        <time>2022-07-23T16:02:16Z</time>
      </trkpt>
      <trkpt lat="42.6904350" lon="-0.0542990">
        <ele>3043.2</ele>
        <time>2022-07-23T16:02:17Z</time>
      </trkpt>
      <trkpt lat="42.6904460" lon="-0.0542910">
        <ele>3043.2</ele>
        <time>2022-07-23T16:02:19Z</time>
      </trkpt>
      <trkpt lat="42.6904900" lon="-0.0542880">
        <ele>3042.6</ele>
        <time>2022-07-23T16:02:24Z</time>
      </trkpt>
      <trkpt lat="42.6905110" lon="-0.0543020">
        <ele>3042.4</ele>
        <time>2022-07-23T16:02:27Z</time>
      </trkpt>
      <trkpt lat="42.6905270" lon="-0.0543210">
        <ele>3042.2</ele>
        <time>2022-07-23T16:02:32Z</time>
      </trkpt>
      <trkpt lat="42.6905390" lon="-0.0543420">
        <ele>3042.6</ele>
        <time>2022-07-23T16:02:35Z</time>
      </trkpt>
      <trkpt lat="42.6905470" lon="-0.0543660">
        <ele>3043.0</ele>
        <time>2022-07-23T16:02:37Z</time>
      </trkpt>
      <trkpt lat="42.6905550" lon="-0.0544220">
        <ele>3043.6</ele>
        <time>2022-07-23T16:02:41Z</time>
      </trkpt>
      <trkpt lat="42.6905550" lon="-0.0544400">
        <ele>3044.0</ele>
        <time>2022-07-23T16:02:42Z</time>
      </trkpt>
      <trkpt lat="42.6905710" lon="-0.0544830">
        <ele>3045.4</ele>
        <time>2022-07-23T16:02:46Z</time>
      </trkpt>
      <trkpt lat="42.6905930" lon="-0.0545030">
        <ele>3046.0</ele>
        <time>2022-07-23T16:02:49Z</time>
      </trkpt>
      <trkpt lat="42.6906020" lon="-0.0545190">
        <ele>3046.8</ele>
        <time>2022-07-23T16:02:51Z</time>
      </trkpt>
      <trkpt lat="42.6906310" lon="-0.0545710">
        <ele>3048.0</ele>
        <time>2022-07-23T16:02:58Z</time>
      </trkpt>
      <trkpt lat="42.6906500" lon="-0.0545730">
        <ele>3048.4</ele>
        <time>2022-07-23T16:03:00Z</time>
      </trkpt>
      <trkpt lat="42.6907030" lon="-0.0545560">
        <ele>3050.0</ele>
        <time>2022-07-23T16:03:10Z</time>
      </trkpt>
      <trkpt lat="42.6907120" lon="-0.0545180">
        <ele>3050.2</ele>
        <time>2022-07-23T16:03:21Z</time>
      </trkpt>
      <trkpt lat="42.6907090" lon="-0.0544730">
        <ele>3050.4</ele>
        <time>2022-07-23T16:03:32Z</time>
      </trkpt>
      <trkpt lat="42.6907530" lon="-0.0544230">
        <ele>3050.0</ele>
        <time>2022-07-23T16:03:42Z</time>
      </trkpt>
      <trkpt lat="42.6907580" lon="-0.0544170">
        <ele>3050.0</ele>
        <time>2022-07-23T16:03:43Z</time>
      </trkpt>
      <trkpt lat="42.6908110" lon="-0.0543760">
        <ele>3049.0</ele>
        <time>2022-07-23T16:03:54Z</time>
      </trkpt>
      <trkpt lat="42.6908410" lon="-0.0543480">
        <ele>3048.8</ele>
        <time>2022-07-23T16:03:58Z</time>
      </trkpt>
      <trkpt lat="42.6908720" lon="-0.0543210">
        <ele>3048.6</ele>
        <time>2022-07-23T16:04:01Z</time>
      </trkpt>
      <trkpt lat="42.6909040" lon="-0.0543120">
        <ele>3048.6</ele>
        <time>2022-07-23T16:04:07Z</time>
      </trkpt>
      <trkpt lat="42.6909240" lon="-0.0543110">
        <ele>3048.6</ele>
        <time>2022-07-23T16:04:11Z</time>
      </trkpt>
      <trkpt lat="42.6909290" lon="-0.0543170">
        <ele>3048.8</ele>
        <time>2022-07-23T16:04:15Z</time>
      </trkpt>
      <trkpt lat="42.6909550" lon="-0.0543390">
        <ele>3049.4</ele>
        <time>2022-07-23T16:04:21Z</time>
      </trkpt>
      <trkpt lat="42.6909530" lon="-0.0543380">
        <ele>3049.8</ele>
        <time>2022-07-23T16:04:22Z</time>
      </trkpt>
      <trkpt lat="42.6909560" lon="-0.0543390">
        <ele>3050.2</ele>
        <time>2022-07-23T16:04:23Z</time>
      </trkpt>
      <trkpt lat="42.6909620" lon="-0.0543360">
        <ele>3050.8</ele>
        <time>2022-07-23T16:04:25Z</time>
      </trkpt>
      <trkpt lat="42.6909970" lon="-0.0543240">
        <ele>3051.8</ele>
        <time>2022-07-23T16:04:30Z</time>
      </trkpt>
      <trkpt lat="42.6910290" lon="-0.0542690">
        <ele>3052.2</ele>
        <time>2022-07-23T16:04:39Z</time>
      </trkpt>
      <trkpt lat="42.6910700" lon="-0.0542320">
        <ele>3051.8</ele>
        <time>2022-07-23T16:04:49Z</time>
      </trkpt>
      <trkpt lat="42.6910980" lon="-0.0542360">
        <ele>3052.0</ele>
        <time>2022-07-23T16:04:54Z</time>
      </trkpt>
      <trkpt lat="42.6911100" lon="-0.0542230">
        <ele>3052.0</ele>
        <time>2022-07-23T16:04:57Z</time>
      </trkpt>
      <trkpt lat="42.6911430" lon="-0.0542030">
        <ele>3053.0</ele>
        <time>2022-07-23T16:05:04Z</time>
      </trkpt>
      <trkpt lat="42.6911680" lon="-0.0542360">
        <ele>3053.2</ele>
        <time>2022-07-23T16:05:07Z</time>
      </trkpt>
      <trkpt lat="42.6912430" lon="-0.0542700">
        <ele>3054.2</ele>
        <time>2022-07-23T16:05:16Z</time>
      </trkpt>
      <trkpt lat="42.6912510" lon="-0.0542640">
        <ele>3054.4</ele>
        <time>2022-07-23T16:05:17Z</time>
      </trkpt>
      <trkpt lat="42.6912770" lon="-0.0542590">
        <ele>3054.8</ele>
        <time>2022-07-23T16:05:22Z</time>
      </trkpt>
      <trkpt lat="42.6912960" lon="-0.0542450">
        <ele>3055.4</ele>
        <time>2022-07-23T16:05:26Z</time>
      </trkpt>
      <trkpt lat="42.6913230" lon="-0.0542300">
        <ele>3056.4</ele>
        <time>2022-07-23T16:05:30Z</time>
      </trkpt>
      <trkpt lat="42.6913610" lon="-0.0542080">
        <ele>3057.6</ele>
        <time>2022-07-23T16:05:35Z</time>
      </trkpt>
      <trkpt lat="42.6913710" lon="-0.0541980">
        <ele>3057.6</ele>
        <time>2022-07-23T16:05:37Z</time>
      </trkpt>
      <trkpt lat="42.6913900" lon="-0.0541700">
        <ele>3057.8</ele>
        <time>2022-07-23T16:05:41Z</time>
      </trkpt>
      <trkpt lat="42.6914330" lon="-0.0541670">
        <ele>3059.2</ele>
        <time>2022-07-23T16:05:47Z</time>
      </trkpt>
      <trkpt lat="42.6914430" lon="-0.0541820">
        <ele>3059.6</ele>
        <time>2022-07-23T16:05:49Z</time>
      </trkpt>
      <trkpt lat="42.6914770" lon="-0.0541660">
        <ele>3061.2</ele>
        <time>2022-07-23T16:05:57Z</time>
      </trkpt>
      <trkpt lat="42.6915040" lon="-0.0541310">
        <ele>3061.6</ele>
        <time>2022-07-23T16:06:02Z</time>
      </trkpt>
      <trkpt lat="42.6915140" lon="-0.0541300">
        <ele>3061.8</ele>
        <time>2022-07-23T16:06:06Z</time>
      </trkpt>
      <trkpt lat="42.6915160" lon="-0.0541260">
        <ele>3061.8</ele>
        <time>2022-07-23T16:06:08Z</time>
      </trkpt>
      <trkpt lat="42.6915160" lon="-0.0541170">
        <ele>3062.4</ele>
        <time>2022-07-23T16:06:13Z</time>
      </trkpt>
      <trkpt lat="42.6915150" lon="-0.0540930">
        <ele>3064.6</ele>
        <time>2022-07-23T16:06:22Z</time>
      </trkpt>
      <trkpt lat="42.6915860" lon="-0.0540620">
        <ele>3064.6</ele>
        <time>2022-07-23T16:06:30Z</time>
      </trkpt>
      <trkpt lat="42.6915930" lon="-0.0540600">
        <ele>3064.6</ele>
        <time>2022-07-23T16:06:31Z</time>
      </trkpt>
      <trkpt lat="42.6916470" lon="-0.0540720">
        <ele>3064.6</ele>
        <time>2022-07-23T16:06:35Z</time>
      </trkpt>
      <trkpt lat="42.6917260" lon="-0.0541130">
        <ele>3065.8</ele>
        <time>2022-07-23T16:06:41Z</time>
      </trkpt>
      <trkpt lat="42.6917440" lon="-0.0541230">
        <ele>3066.4</ele>
        <time>2022-07-23T16:06:43Z</time>
      </trkpt>
      <trkpt lat="42.6917390" lon="-0.0541400">
        <ele>3067.2</ele>
        <time>2022-07-23T16:06:47Z</time>
      </trkpt>
      <trkpt lat="42.6917270" lon="-0.0541510">
        <ele>3067.4</ele>
        <time>2022-07-23T16:06:49Z</time>
      </trkpt>
      <trkpt lat="42.6916930" lon="-0.0541530">
        <ele>3070.0</ele>
        <time>2022-07-23T16:07:00Z</time>
      </trkpt>
      <trkpt lat="42.6917210" lon="-0.0541270">
        <ele>3070.4</ele>
        <time>2022-07-23T16:07:14Z</time>
      </trkpt>
      <trkpt lat="42.6917470" lon="-0.0541060">
        <ele>3070.2</ele>
        <time>2022-07-23T16:07:17Z</time>
      </trkpt>
      <trkpt lat="42.6917750" lon="-0.0540910">
        <ele>3071.2</ele>
        <time>2022-07-23T16:07:22Z</time>
      </trkpt>
      <trkpt lat="42.6918240" lon="-0.0540460">
        <ele>3073.4</ele>
        <time>2022-07-23T16:07:31Z</time>
      </trkpt>
      <trkpt lat="42.6918330" lon="-0.0539860">
        <ele>3073.6</ele>
        <time>2022-07-23T16:07:37Z</time>
      </trkpt>
      <trkpt lat="42.6918400" lon="-0.0539760">
        <ele>3073.8</ele>
        <time>2022-07-23T16:07:41Z</time>
      </trkpt>
      <trkpt lat="42.6918600" lon="-0.0539940">
        <ele>3074.2</ele>
        <time>2022-07-23T16:07:46Z</time>
      </trkpt>
      <trkpt lat="42.6918940" lon="-0.0540200">
        <ele>3075.2</ele>
        <time>2022-07-23T16:07:53Z</time>
      </trkpt>
      <trkpt lat="42.6919750" lon="-0.0540870">
        <ele>3076.4</ele>
        <time>2022-07-23T16:08:08Z</time>
      </trkpt>
      <trkpt lat="42.6919960" lon="-0.0540910">
        <ele>3076.6</ele>
        <time>2022-07-23T16:08:12Z</time>
      </trkpt>
      <trkpt lat="42.6920050" lon="-0.0540940">
        <ele>3076.6</ele>
        <time>2022-07-23T16:08:14Z</time>
      </trkpt>
      <trkpt lat="42.6920400" lon="-0.0541100">
        <ele>3077.2</ele>
        <time>2022-07-23T16:08:19Z</time>
      </trkpt>
      <trkpt lat="42.6920670" lon="-0.0541430">
        <ele>3079.0</ele>
        <time>2022-07-23T16:08:27Z</time>
      </trkpt>
      <trkpt lat="42.6920830" lon="-0.0541530">
        <ele>3080.0</ele>
        <time>2022-07-23T16:08:31Z</time>
      </trkpt>
      <trkpt lat="42.6920990" lon="-0.0541870">
        <ele>3080.4</ele>
        <time>2022-07-23T16:08:36Z</time>
      </trkpt>
      <trkpt lat="42.6921070" lon="-0.0542260">
        <ele>3081.8</ele>
        <time>2022-07-23T16:08:45Z</time>
      </trkpt>
      <trkpt lat="42.6921240" lon="-0.0545170">
        <ele>3082.2</ele>
        <time>2022-07-23T16:08:53Z</time>
      </trkpt>
      <trkpt lat="42.6921350" lon="-0.0545380">
        <ele>3082.4</ele>
        <time>2022-07-23T16:08:56Z</time>
      </trkpt>
      <trkpt lat="42.6921450" lon="-0.0545240">
        <ele>3082.0</ele>
        <time>2022-07-23T16:09:05Z</time>
      </trkpt>
      <trkpt lat="42.6921490" lon="-0.0545080">
        <ele>3081.8</ele>
        <time>2022-07-23T16:09:06Z</time>
      </trkpt>
      <trkpt lat="42.6921180" lon="-0.0544120">
        <ele>3082.2</ele>
        <time>2022-07-23T16:09:15Z</time>
      </trkpt>
      <trkpt lat="42.6921180" lon="-0.0544030">
        <ele>3082.4</ele>
        <time>2022-07-23T16:09:17Z</time>
      </trkpt>
      <trkpt lat="42.6920930" lon="-0.0543690">
        <ele>3083.4</ele>
        <time>2022-07-23T16:09:28Z</time>
      </trkpt>
      <trkpt lat="42.6920920" lon="-0.0543670">
        <ele>3083.4</ele>
        <time>2022-07-23T16:09:29Z</time>
      </trkpt>
      <trkpt lat="42.6920920" lon="-0.0543640">
        <ele>3083.6</ele>
        <time>2022-07-23T16:09:31Z</time>
      </trkpt>
      <trkpt lat="42.6920980" lon="-0.0543850">
        <ele>3083.6</ele>
        <time>2022-07-23T16:09:38Z</time>
      </trkpt>
      <trkpt lat="42.6920960" lon="-0.0543900">
        <ele>3083.6</ele>
        <time>2022-07-23T16:09:41Z</time>
      </trkpt>
      <trkpt lat="42.6920950" lon="-0.0543990">
        <ele>3083.0</ele>
        <time>2022-07-23T16:09:44Z</time>
      </trkpt>
      <trkpt lat="42.6921020" lon="-0.0543910">
        <ele>3082.2</ele>
        <time>2022-07-23T16:09:49Z</time>
      </trkpt>
      <trkpt lat="42.6921210" lon="-0.0543180">
        <ele>3079.4</ele>
        <time>2022-07-23T16:09:58Z</time>
      </trkpt>
      <trkpt lat="42.6921200" lon="-0.0543140">
        <ele>3079.2</ele>
        <time>2022-07-23T16:10:00Z</time>
      </trkpt>
      <trkpt lat="42.6921000" lon="-0.0542860">
        <ele>3079.0</ele>
        <time>2022-07-23T16:10:04Z</time>
      </trkpt>
      <trkpt lat="42.6920840" lon="-0.0542420">
        <ele>3079.2</ele>
        <time>2022-07-23T16:10:08Z</time>
      </trkpt>
      <trkpt lat="42.6920690" lon="-0.0541960">
        <ele>3079.2</ele>
        <time>2022-07-23T16:10:13Z</time>
      </trkpt>
      <trkpt lat="42.6920760" lon="-0.0541090">
        <ele>3081.8</ele>
        <time>2022-07-23T16:10:23Z</time>
      </trkpt>
      <trkpt lat="42.6920750" lon="-0.0540950">
        <ele>3082.2</ele>
        <time>2022-07-23T16:10:25Z</time>
      </trkpt>
      <trkpt lat="42.6920750" lon="-0.0540870">
        <ele>3082.4</ele>
        <time>2022-07-23T16:10:27Z</time>
      </trkpt>
      <trkpt lat="42.6920780" lon="-0.0540790">
        <ele>3082.4</ele>
        <time>2022-07-23T16:10:28Z</time>
      </trkpt>
      <trkpt lat="42.6920790" lon="-0.0540730">
        <ele>3082.4</ele>
        <time>2022-07-23T16:10:29Z</time>
      </trkpt>
      <trkpt lat="42.6920870" lon="-0.0540720">
        <ele>3082.8</ele>
        <time>2022-07-23T16:10:32Z</time>
      </trkpt>
      <trkpt lat="42.6920900" lon="-0.0540680">
        <ele>3082.8</ele>
        <time>2022-07-23T16:10:33Z</time>
      </trkpt>
      <trkpt lat="42.6920980" lon="-0.0540670">
        <ele>3083.4</ele>
        <time>2022-07-23T16:10:35Z</time>
      </trkpt>
      <trkpt lat="42.6921010" lon="-0.0540770">
        <ele>3083.2</ele>
        <time>2022-07-23T16:10:36Z</time>
      </trkpt>
      <trkpt lat="42.6921030" lon="-0.0540950">
        <ele>3083.6</ele>
        <time>2022-07-23T16:10:37Z</time>
      </trkpt>
      <trkpt lat="42.6921050" lon="-0.0541100">
        <ele>3083.6</ele>
        <time>2022-07-23T16:10:38Z</time>
      </trkpt>
      <trkpt lat="42.6921060" lon="-0.0541150">
        <ele>3083.6</ele>
        <time>2022-07-23T16:10:40Z</time>
      </trkpt>
      <trkpt lat="42.6921060" lon="-0.0541200">
        <ele>3083.6</ele>
        <time>2022-07-23T16:10:41Z</time>
      </trkpt>
      <trkpt lat="42.6921080" lon="-0.0541230">
        <ele>3083.8</ele>
        <time>2022-07-23T16:10:42Z</time>
      </trkpt>
      <trkpt lat="42.6921120" lon="-0.0541220">
        <ele>3084.0</ele>
        <time>2022-07-23T16:10:43Z</time>
      </trkpt>
      <trkpt lat="42.6921120" lon="-0.0541200">
        <ele>3084.0</ele>
        <time>2022-07-23T16:10:44Z</time>
      </trkpt>
      <trkpt lat="42.6921120" lon="-0.0541170">
        <ele>3084.0</ele>
        <time>2022-07-23T16:10:45Z</time>
      </trkpt>
      <trkpt lat="42.6921120" lon="-0.0541110">
        <ele>3084.2</ele>
        <time>2022-07-23T16:10:46Z</time>
      </trkpt>
      <trkpt lat="42.6921140" lon="-0.0541030">
        <ele>3084.2</ele>
        <time>2022-07-23T16:10:47Z</time>
      </trkpt>
      <trkpt lat="42.6921180" lon="-0.0540900">
        <ele>3084.2</ele>
        <time>2022-07-23T16:10:48Z</time>
      </trkpt>
      <trkpt lat="42.6921210" lon="-0.0540790">
        <ele>3084.2</ele>
        <time>2022-07-23T16:10:49Z</time>
      </trkpt>
      <trkpt lat="42.6921340" lon="-0.0540760">
        <ele>3085.6</ele>
        <time>2022-07-23T16:10:53Z</time>
      </trkpt>
      <trkpt lat="42.6921360" lon="-0.0540790">
        <ele>3086.0</ele>
        <time>2022-07-23T16:10:54Z</time>
      </trkpt>
      <trkpt lat="42.6921390" lon="-0.0540840">
        <ele>3085.8</ele>
        <time>2022-07-23T16:10:55Z</time>
      </trkpt>
      <trkpt lat="42.6921440" lon="-0.0540870">
        <ele>3086.2</ele>
        <time>2022-07-23T16:10:57Z</time>
      </trkpt>
      <trkpt lat="42.6921460" lon="-0.0540880">
        <ele>3086.4</ele>
        <time>2022-07-23T16:10:58Z</time>
      </trkpt>
      <trkpt lat="42.6921500" lon="-0.0540870">
        <ele>3086.6</ele>
        <time>2022-07-23T16:10:59Z</time>
      </trkpt>
      <trkpt lat="42.6921510" lon="-0.0540860">
        <ele>3086.6</ele>
        <time>2022-07-23T16:11:00Z</time>
      </trkpt>
      <trkpt lat="42.6921510" lon="-0.0540900">
        <ele>3086.8</ele>
        <time>2022-07-23T16:11:01Z</time>
      </trkpt>
      <trkpt lat="42.6921520" lon="-0.0540900">
        <ele>3086.6</ele>
        <time>2022-07-23T16:11:02Z</time>
      </trkpt>
      <trkpt lat="42.6921510" lon="-0.0540900">
        <ele>3086.8</ele>
        <time>2022-07-23T16:11:03Z</time>
      </trkpt>
      <trkpt lat="42.6921530" lon="-0.0540860">
        <ele>3087.2</ele>
        <time>2022-07-23T16:11:09Z</time>
      </trkpt>
      <trkpt lat="42.6921530" lon="-0.0540820">
        <ele>3088.0</ele>
        <time>2022-07-23T16:11:15Z</time>
      </trkpt>
      <trkpt lat="42.6921520" lon="-0.0540810">
        <ele>3088.2</ele>
        <time>2022-07-23T16:11:17Z</time>
      </trkpt>
      <trkpt lat="42.6921520" lon="-0.0540810">
        <ele>3088.6</ele>
        <time>2022-07-23T16:11:20Z</time>
      </trkpt>
      <trkpt lat="42.6921380" lon="-0.0540750">
        <ele>3089.6</ele>
        <time>2022-07-23T16:11:31Z</time>
      </trkpt>
      <trkpt lat="42.6921280" lon="-0.0540700">
        <ele>3089.8</ele>
        <time>2022-07-23T16:11:33Z</time>
      </trkpt>
      <trkpt lat="42.6921260" lon="-0.0540670">
        <ele>3089.8</ele>
        <time>2022-07-23T16:11:34Z</time>
      </trkpt>
      <trkpt lat="42.6921230" lon="-0.0540610">
        <ele>3090.0</ele>
        <time>2022-07-23T16:11:36Z</time>
      </trkpt>
      <trkpt lat="42.6921250" lon="-0.0540550">
        <ele>3090.2</ele>
        <time>2022-07-23T16:11:38Z</time>
      </trkpt>
      <trkpt lat="42.6921570" lon="-0.0540640">
        <ele>3090.2</ele>
        <time>2022-07-23T16:11:45Z</time>
      </trkpt>
      <trkpt lat="42.6921630" lon="-0.0540680">
        <ele>3090.4</ele>
        <time>2022-07-23T16:11:46Z</time>
      </trkpt>
      <trkpt lat="42.6921820" lon="-0.0540720">
        <ele>3091.2</ele>
        <time>2022-07-23T16:11:49Z</time>
      </trkpt>
      <trkpt lat="42.6922250" lon="-0.0540880">
        <ele>3092.2</ele>
        <time>2022-07-23T16:11:55Z</time>
      </trkpt>
      <trkpt lat="42.6922310" lon="-0.0540940">
        <ele>3092.4</ele>
        <time>2022-07-23T16:11:56Z</time>
      </trkpt>
      <trkpt lat="42.6922430" lon="-0.0541080">
        <ele>3092.8</ele>
        <time>2022-07-23T16:11:58Z</time>
      </trkpt>
      <trkpt lat="42.6922500" lon="-0.0541070">
        <ele>3092.8</ele>
        <time>2022-07-23T16:12:01Z</time>
      </trkpt>
      <trkpt lat="42.6922550" lon="-0.0541060">
        <ele>3093.0</ele>
        <time>2022-07-23T16:12:03Z</time>
      </trkpt>
      <trkpt lat="42.6922590" lon="-0.0541040">
        <ele>3093.0</ele>
        <time>2022-07-23T16:12:04Z</time>
      </trkpt>
      <trkpt lat="42.6922790" lon="-0.0540820">
        <ele>3093.2</ele>
        <time>2022-07-23T16:12:09Z</time>
      </trkpt>
      <trkpt lat="42.6922820" lon="-0.0540760">
        <ele>3093.0</ele>
        <time>2022-07-23T16:12:10Z</time>
      </trkpt>
      <trkpt lat="42.6922780" lon="-0.0540670">
        <ele>3093.0</ele>
        <time>2022-07-23T16:12:11Z</time>
      </trkpt>
      <trkpt lat="42.6922720" lon="-0.0540460">
        <ele>3093.0</ele>
        <time>2022-07-23T16:12:13Z</time>
      </trkpt>
      <trkpt lat="42.6922690" lon="-0.0540360">
        <ele>3093.2</ele>
        <time>2022-07-23T16:12:14Z</time>
      </trkpt>
      <trkpt lat="42.6922640" lon="-0.0540130">
        <ele>3093.0</ele>
        <time>2022-07-23T16:12:16Z</time>
      </trkpt>
      <trkpt lat="42.6922620" lon="-0.0540030">
        <ele>3093.2</ele>
        <time>2022-07-23T16:12:17Z</time>
      </trkpt>
      <trkpt lat="42.6922600" lon="-0.0539890">
        <ele>3093.2</ele>
        <time>2022-07-23T16:12:19Z</time>
      </trkpt>
      <trkpt lat="42.6922980" lon="-0.0539140">
        <ele>3094.2</ele>
        <time>2022-07-23T16:12:27Z</time>
      </trkpt>
      <trkpt lat="42.6923250" lon="-0.0538910">
        <ele>3094.4</ele>
        <time>2022-07-23T16:12:30Z</time>
      </trkpt>
      <trkpt lat="42.6923500" lon="-0.0538870">
        <ele>3094.8</ele>
        <time>2022-07-23T16:12:35Z</time>
      </trkpt>
      <trkpt lat="42.6923520" lon="-0.0538840">
        <ele>3094.8</ele>
        <time>2022-07-23T16:12:38Z</time>
      </trkpt>
      <trkpt lat="42.6923880" lon="-0.0537970">
        <ele>3095.2</ele>
        <time>2022-07-23T16:12:49Z</time>
      </trkpt>
      <trkpt lat="42.6923960" lon="-0.0537770">
        <ele>3095.2</ele>
        <time>2022-07-23T16:12:51Z</time>
      </trkpt>
      <trkpt lat="42.6924180" lon="-0.0537360">
        <ele>3094.8</ele>
        <time>2022-07-23T16:12:55Z</time>
      </trkpt>
      <trkpt lat="42.6924210" lon="-0.0537160">
        <ele>3094.4</ele>
        <time>2022-07-23T16:12:58Z</time>
      </trkpt>
      <trkpt lat="42.6924200" lon="-0.0537120">
        <ele>3094.4</ele>
        <time>2022-07-23T16:12:59Z</time>
      </trkpt>
      <trkpt lat="42.6924170" lon="-0.0537090">
        <ele>3094.2</ele>
        <time>2022-07-23T16:13:01Z</time>
      </trkpt>
      <trkpt lat="42.6924190" lon="-0.0537080">
        <ele>3094.2</ele>
        <time>2022-07-23T16:13:02Z</time>
      </trkpt>
      <trkpt lat="42.6924310" lon="-0.0537030">
        <ele>3094.0</ele>
        <time>2022-07-23T16:13:06Z</time>
      </trkpt>
      <trkpt lat="42.6924470" lon="-0.0536910">
        <ele>3094.0</ele>
        <time>2022-07-23T16:13:08Z</time>
      </trkpt>
      <trkpt lat="42.6924540" lon="-0.0536860">
        <ele>3094.0</ele>
        <time>2022-07-23T16:13:09Z</time>
      </trkpt>
      <trkpt lat="42.6924900" lon="-0.0536610">
        <ele>3094.2</ele>
        <time>2022-07-23T16:13:13Z</time>
      </trkpt>
      <trkpt lat="42.6925000" lon="-0.0536560">
        <ele>3094.4</ele>
        <time>2022-07-23T16:13:14Z</time>
      </trkpt>
      <trkpt lat="42.6925080" lon="-0.0536500">
        <ele>3094.4</ele>
        <time>2022-07-23T16:13:15Z</time>
      </trkpt>
      <trkpt lat="42.6925160" lon="-0.0536450">
        <ele>3094.4</ele>
        <time>2022-07-23T16:13:16Z</time>
      </trkpt>
      <trkpt lat="42.6925470" lon="-0.0536360">
        <ele>3095.0</ele>
        <time>2022-07-23T16:13:21Z</time>
      </trkpt>
      <trkpt lat="42.6925540" lon="-0.0536350">
        <ele>3095.2</ele>
        <time>2022-07-23T16:13:23Z</time>
      </trkpt>
      <trkpt lat="42.6925650" lon="-0.0536300">
        <ele>3096.4</ele>
        <time>2022-07-23T16:13:27Z</time>
      </trkpt>
      <trkpt lat="42.6925730" lon="-0.0536140">
        <ele>3096.6</ele>
        <time>2022-07-23T16:13:29Z</time>
      </trkpt>
      <trkpt lat="42.6925780" lon="-0.0536030">
        <ele>3097.0</ele>
        <time>2022-07-23T16:13:30Z</time>
      </trkpt>
      <trkpt lat="42.6925920" lon="-0.0535840">
        <ele>3097.2</ele>
        <time>2022-07-23T16:13:32Z</time>
      </trkpt>
      <trkpt lat="42.6925980" lon="-0.0535760">
        <ele>3097.4</ele>
        <time>2022-07-23T16:13:33Z</time>
      </trkpt>
      <trkpt lat="42.6926240" lon="-0.0535450">
        <ele>3097.4</ele>
        <time>2022-07-23T16:13:37Z</time>
      </trkpt>
      <trkpt lat="42.6926340" lon="-0.0535280">
        <ele>3097.4</ele>
        <time>2022-07-23T16:13:39Z</time>
      </trkpt>
      <trkpt lat="42.6926610" lon="-0.0534540">
        <ele>3096.8</ele>
        <time>2022-07-23T16:13:46Z</time>
      </trkpt>
      <trkpt lat="42.6926780" lon="-0.0534080">
        <ele>3096.6</ele>
        <time>2022-07-23T16:13:50Z</time>
      </trkpt>
      <trkpt lat="42.6926940" lon="-0.0533650">
        <ele>3096.2</ele>
        <time>2022-07-23T16:13:53Z</time>
      </trkpt>
      <trkpt lat="42.6927620" lon="-0.0532410">
        <ele>3094.8</ele>
        <time>2022-07-23T16:14:03Z</time>
      </trkpt>
      <trkpt lat="42.6927700" lon="-0.0532300">
        <ele>3094.8</ele>
        <time>2022-07-23T16:14:04Z</time>
      </trkpt>
      <trkpt lat="42.6927770" lon="-0.0532170">
        <ele>3094.8</ele>
        <time>2022-07-23T16:14:05Z</time>
      </trkpt>
      <trkpt lat="42.6927840" lon="-0.0532080">
        <ele>3094.8</ele>
        <time>2022-07-23T16:14:06Z</time>
      </trkpt>
      <trkpt lat="42.6927890" lon="-0.0531980">
        <ele>3094.8</ele>
        <time>2022-07-23T16:14:07Z</time>
      </trkpt>
      <trkpt lat="42.6927930" lon="-0.0531880">
        <ele>3094.8</ele>
        <time>2022-07-23T16:14:08Z</time>
      </trkpt>
      <trkpt lat="42.6928360" lon="-0.0531490">
        <ele>3095.6</ele>
        <time>2022-07-23T16:14:14Z</time>
      </trkpt>
      <trkpt lat="42.6928610" lon="-0.0531120">
        <ele>3096.8</ele>
        <time>2022-07-23T16:14:20Z</time>
      </trkpt>
      <trkpt lat="42.6928690" lon="-0.0530990">
        <ele>3097.2</ele>
        <time>2022-07-23T16:14:23Z</time>
      </trkpt>
      <trkpt lat="42.6928700" lon="-0.0530920">
        <ele>3097.6</ele>
        <time>2022-07-23T16:14:24Z</time>
      </trkpt>
      <trkpt lat="42.6928720" lon="-0.0530860">
        <ele>3098.0</ele>
        <time>2022-07-23T16:14:25Z</time>
      </trkpt>
      <trkpt lat="42.6928740" lon="-0.0530780">
        <ele>3098.2</ele>
        <time>2022-07-23T16:14:26Z</time>
      </trkpt>
      <trkpt lat="42.6928790" lon="-0.0530530">
        <ele>3098.8</ele>
        <time>2022-07-23T16:14:30Z</time>
      </trkpt>
      <trkpt lat="42.6928820" lon="-0.0530500">
        <ele>3098.8</ele>
        <time>2022-07-23T16:14:31Z</time>
      </trkpt>
      <trkpt lat="42.6928860" lon="-0.0530480">
        <ele>3099.2</ele>
        <time>2022-07-23T16:14:32Z</time>
      </trkpt>
      <trkpt lat="42.6928880" lon="-0.0530450">
        <ele>3099.4</ele>
        <time>2022-07-23T16:14:33Z</time>
      </trkpt>
      <trkpt lat="42.6928920" lon="-0.0530420">
        <ele>3099.4</ele>
        <time>2022-07-23T16:14:34Z</time>
      </trkpt>
      <trkpt lat="42.6928990" lon="-0.0530380">
        <ele>3099.6</ele>
        <time>2022-07-23T16:14:35Z</time>
      </trkpt>
      <trkpt lat="42.6929110" lon="-0.0530320">
        <ele>3099.8</ele>
        <time>2022-07-23T16:14:37Z</time>
      </trkpt>
      <trkpt lat="42.6929180" lon="-0.0530290">
        <ele>3099.8</ele>
        <time>2022-07-23T16:14:38Z</time>
      </trkpt>
      <trkpt lat="42.6929260" lon="-0.0530260">
        <ele>3100.0</ele>
        <time>2022-07-23T16:14:39Z</time>
      </trkpt>
      <trkpt lat="42.6929400" lon="-0.0530220">
        <ele>3101.2</ele>
        <time>2022-07-23T16:14:42Z</time>
      </trkpt>
      <trkpt lat="42.6929300" lon="-0.0530300">
        <ele>3100.0</ele>
        <time>2022-07-23T16:14:46Z</time>
      </trkpt>
      <trkpt lat="42.6929340" lon="-0.0530400">
        <ele>3103.2</ele>
        <time>2022-07-23T16:14:48Z</time>
      </trkpt>
      <trkpt lat="42.6929370" lon="-0.0530420">
        <ele>3103.4</ele>
        <time>2022-07-23T16:14:49Z</time>
      </trkpt>
      <trkpt lat="42.6929380" lon="-0.0530430">
        <ele>3103.4</ele>
        <time>2022-07-23T16:14:50Z</time>
      </trkpt>
      <trkpt lat="42.6929390" lon="-0.0530420">
        <ele>3103.6</ele>
        <time>2022-07-23T16:14:51Z</time>
      </trkpt>
      <trkpt lat="42.6929430" lon="-0.0530410">
        <ele>3103.6</ele>
        <time>2022-07-23T16:14:52Z</time>
      </trkpt>
      <trkpt lat="42.6929510" lon="-0.0530370">
        <ele>3104.0</ele>
        <time>2022-07-23T16:14:54Z</time>
      </trkpt>
      <trkpt lat="42.6929540" lon="-0.0530330">
        <ele>3104.0</ele>
        <time>2022-07-23T16:14:55Z</time>
      </trkpt>
      <trkpt lat="42.6929570" lon="-0.0530300">
        <ele>3104.2</ele>
        <time>2022-07-23T16:14:56Z</time>
      </trkpt>
      <trkpt lat="42.6929590" lon="-0.0530280">
        <ele>3104.6</ele>
        <time>2022-07-23T16:14:57Z</time>
      </trkpt>
      <trkpt lat="42.6929640" lon="-0.0530230">
        <ele>3104.8</ele>
        <time>2022-07-23T16:15:00Z</time>
      </trkpt>
      <trkpt lat="42.6929660" lon="-0.0530200">
        <ele>3105.2</ele>
        <time>2022-07-23T16:15:01Z</time>
      </trkpt>
      <trkpt lat="42.6929680" lon="-0.0530190">
        <ele>3105.2</ele>
        <time>2022-07-23T16:15:02Z</time>
      </trkpt>
      <trkpt lat="42.6929710" lon="-0.0530170">
        <ele>3105.2</ele>
        <time>2022-07-23T16:15:03Z</time>
      </trkpt>
      <trkpt lat="42.6929710" lon="-0.0530150">
        <ele>3105.4</ele>
        <time>2022-07-23T16:15:04Z</time>
      </trkpt>
      <trkpt lat="42.6929730" lon="-0.0530130">
        <ele>3105.8</ele>
        <time>2022-07-23T16:15:05Z</time>
      </trkpt>
      <trkpt lat="42.6929780" lon="-0.0530100">
        <ele>3106.2</ele>
        <time>2022-07-23T16:15:06Z</time>
      </trkpt>
      <trkpt lat="42.6929870" lon="-0.0530080">
        <ele>3106.6</ele>
        <time>2022-07-23T16:15:07Z</time>
      </trkpt>
      <trkpt lat="42.6930060" lon="-0.0530050">
        <ele>3107.2</ele>
        <time>2022-07-23T16:15:09Z</time>
      </trkpt>
      <trkpt lat="42.6930210" lon="-0.0530010">
        <ele>3107.6</ele>
        <time>2022-07-23T16:15:11Z</time>
      </trkpt>
      <trkpt lat="42.6930460" lon="-0.0529860">
        <ele>3108.8</ele>
        <time>2022-07-23T16:15:15Z</time>
      </trkpt>
      <trkpt lat="42.6930520" lon="-0.0529820">
        <ele>3109.4</ele>
        <time>2022-07-23T16:15:16Z</time>
      </trkpt>
      <trkpt lat="42.6930700" lon="-0.0529790">
        <ele>3110.2</ele>
        <time>2022-07-23T16:15:18Z</time>
      </trkpt>
      <trkpt lat="42.6930880" lon="-0.0529740">
        <ele>3110.8</ele>
        <time>2022-07-23T16:15:21Z</time>
      </trkpt>
      <trkpt lat="42.6930960" lon="-0.0529730">
        <ele>3110.8</ele>
        <time>2022-07-23T16:15:22Z</time>
      </trkpt>
      <trkpt lat="42.6931100" lon="-0.0529600">
        <ele>3111.0</ele>
        <time>2022-07-23T16:15:25Z</time>
      </trkpt>
      <trkpt lat="42.6931200" lon="-0.0529440">
        <ele>3111.2</ele>
        <time>2022-07-23T16:15:27Z</time>
      </trkpt>
      <trkpt lat="42.6931240" lon="-0.0529360">
        <ele>3111.6</ele>
        <time>2022-07-23T16:15:28Z</time>
      </trkpt>
      <trkpt lat="42.6931260" lon="-0.0529170">
        <ele>3112.0</ele>
        <time>2022-07-23T16:15:30Z</time>
      </trkpt>
      <trkpt lat="42.6931150" lon="-0.0528820">
        <ele>3112.6</ele>
        <time>2022-07-23T16:15:35Z</time>
      </trkpt>
      <trkpt lat="42.6931130" lon="-0.0528800">
        <ele>3112.6</ele>
        <time>2022-07-23T16:15:36Z</time>
      </trkpt>
      <trkpt lat="42.6930950" lon="-0.0528760">
        <ele>3112.8</ele>
        <time>2022-07-23T16:15:39Z</time>
      </trkpt>
      <trkpt lat="42.6930940" lon="-0.0528750">
        <ele>3113.0</ele>
        <time>2022-07-23T16:15:42Z</time>
      </trkpt>
      <trkpt lat="42.6930930" lon="-0.0528710">
        <ele>3113.0</ele>
        <time>2022-07-23T16:15:43Z</time>
      </trkpt>
      <trkpt lat="42.6930900" lon="-0.0528600">
        <ele>3112.8</ele>
        <time>2022-07-23T16:15:45Z</time>
      </trkpt>
      <trkpt lat="42.6930780" lon="-0.0527770">
        <ele>3111.4</ele>
        <time>2022-07-23T16:15:54Z</time>
      </trkpt>
      <trkpt lat="42.6930750" lon="-0.0527230">
        <ele>3110.6</ele>
        <time>2022-07-23T16:15:58Z</time>
      </trkpt>
      <trkpt lat="42.6930770" lon="-0.0527020">
        <ele>3110.4</ele>
        <time>2022-07-23T16:15:59Z</time>
      </trkpt>
      <trkpt lat="42.6930830" lon="-0.0526630">
        <ele>3110.2</ele>
        <time>2022-07-23T16:16:01Z</time>
      </trkpt>
      <trkpt lat="42.6930930" lon="-0.0526200">
        <ele>3109.6</ele>
        <time>2022-07-23T16:16:04Z</time>
      </trkpt>
      <trkpt lat="42.6931220" lon="-0.0525750">
        <ele>3109.2</ele>
        <time>2022-07-23T16:16:08Z</time>
      </trkpt>
      <trkpt lat="42.6931630" lon="-0.0524680">
        <ele>3109.2</ele>
        <time>2022-07-23T16:16:14Z</time>
      </trkpt>
      <trkpt lat="42.6931630" lon="-0.0524520">
        <ele>3109.2</ele>
        <time>2022-07-23T16:16:15Z</time>
      </trkpt>
      <trkpt lat="42.6931790" lon="-0.0524210">
        <ele>3109.6</ele>
        <time>2022-07-23T16:16:18Z</time>
      </trkpt>
      <trkpt lat="42.6931790" lon="-0.0524140">
        <ele>3109.8</ele>
        <time>2022-07-23T16:16:19Z</time>
      </trkpt>
      <trkpt lat="42.6931800" lon="-0.0524040">
        <ele>3110.0</ele>
        <time>2022-07-23T16:16:20Z</time>
      </trkpt>
      <trkpt lat="42.6931840" lon="-0.0523980">
        <ele>3110.0</ele>
        <time>2022-07-23T16:16:21Z</time>
      </trkpt>
      <trkpt lat="42.6931880" lon="-0.0523970">
        <ele>3110.2</ele>
        <time>2022-07-23T16:16:22Z</time>
      </trkpt>
      <trkpt lat="42.6931910" lon="-0.0523970">
        <ele>3110.4</ele>
        <time>2022-07-23T16:16:25Z</time>
      </trkpt>
      <trkpt lat="42.6931870" lon="-0.0523950">
        <ele>3110.6</ele>
        <time>2022-07-23T16:16:26Z</time>
      </trkpt>
      <trkpt lat="42.6931950" lon="-0.0523680">
        <ele>3111.8</ele>
        <time>2022-07-23T16:16:31Z</time>
      </trkpt>
      <trkpt lat="42.6931990" lon="-0.0523040">
        <ele>3113.0</ele>
        <time>2022-07-23T16:16:36Z</time>
      </trkpt>
      <trkpt lat="42.6932000" lon="-0.0522730">
        <ele>3113.8</ele>
        <time>2022-07-23T16:16:39Z</time>
      </trkpt>
      <trkpt lat="42.6931990" lon="-0.0522640">
        <ele>3113.8</ele>
        <time>2022-07-23T16:16:40Z</time>
      </trkpt>
      <trkpt lat="42.6931990" lon="-0.0522580">
        <ele>3114.0</ele>
        <time>2022-07-23T16:16:41Z</time>
      </trkpt>
      <trkpt lat="42.6932020" lon="-0.0522520">
        <ele>3114.2</ele>
        <time>2022-07-23T16:16:42Z</time>
      </trkpt>
      <trkpt lat="42.6932240" lon="-0.0521910">
        <ele>3115.0</ele>
        <time>2022-07-23T16:16:48Z</time>
      </trkpt>
      <trkpt lat="42.6932310" lon="-0.0521520">
        <ele>3115.6</ele>
        <time>2022-07-23T16:16:52Z</time>
      </trkpt>
      <trkpt lat="42.6932280" lon="-0.0520910">
        <ele>3116.8</ele>
        <time>2022-07-23T16:16:58Z</time>
      </trkpt>
      <trkpt lat="42.6932350" lon="-0.0520530">
        <ele>3117.0</ele>
        <time>2022-07-23T16:17:02Z</time>
      </trkpt>
      <trkpt lat="42.6932470" lon="-0.0520310">
        <ele>3117.2</ele>
        <time>2022-07-23T16:17:04Z</time>
      </trkpt>
      <trkpt lat="42.6932520" lon="-0.0520200">
        <ele>3117.2</ele>
        <time>2022-07-23T16:17:05Z</time>
      </trkpt>
      <trkpt lat="42.6932580" lon="-0.0520120">
        <ele>3117.4</ele>
        <time>2022-07-23T16:17:06Z</time>
      </trkpt>
      <trkpt lat="42.6932860" lon="-0.0519720">
        <ele>3119.2</ele>
        <time>2022-07-23T16:17:11Z</time>
      </trkpt>
      <trkpt lat="42.6933190" lon="-0.0519180">
        <ele>3120.6</ele>
        <time>2022-07-23T16:17:17Z</time>
      </trkpt>
      <trkpt lat="42.6933370" lon="-0.0518900">
        <ele>3121.4</ele>
        <time>2022-07-23T16:17:20Z</time>
      </trkpt>
      <trkpt lat="42.6933450" lon="-0.0518680">
        <ele>3121.6</ele>
        <time>2022-07-23T16:17:22Z</time>
      </trkpt>
      <trkpt lat="42.6933890" lon="-0.0517710">
        <ele>3123.8</ele>
        <time>2022-07-23T16:17:32Z</time>
      </trkpt>
      <trkpt lat="42.6934020" lon="-0.0517530">
        <ele>3124.0</ele>
        <time>2022-07-23T16:17:35Z</time>
      </trkpt>
      <trkpt lat="42.6934090" lon="-0.0517440">
        <ele>3124.2</ele>
        <time>2022-07-23T16:17:37Z</time>
      </trkpt>
      <trkpt lat="42.6934130" lon="-0.0517400">
        <ele>3124.4</ele>
        <time>2022-07-23T16:17:38Z</time>
      </trkpt>
      <trkpt lat="42.6934150" lon="-0.0517330">
        <ele>3124.4</ele>
        <time>2022-07-23T16:17:39Z</time>
      </trkpt>
      <trkpt lat="42.6934180" lon="-0.0517240">
        <ele>3124.8</ele>
        <time>2022-07-23T16:17:40Z</time>
      </trkpt>
      <trkpt lat="42.6934340" lon="-0.0516910">
        <ele>3125.8</ele>
        <time>2022-07-23T16:17:45Z</time>
      </trkpt>
      <trkpt lat="42.6934360" lon="-0.0516920">
        <ele>3126.0</ele>
        <time>2022-07-23T16:17:46Z</time>
      </trkpt>
      <trkpt lat="42.6934470" lon="-0.0516830">
        <ele>3126.6</ele>
        <time>2022-07-23T16:17:48Z</time>
      </trkpt>
      <trkpt lat="42.6934570" lon="-0.0516750">
        <ele>3127.6</ele>
        <time>2022-07-23T16:17:50Z</time>
      </trkpt>
      <trkpt lat="42.6934880" lon="-0.0516580">
        <ele>3129.0</ele>
        <time>2022-07-23T16:17:55Z</time>
      </trkpt>
      <trkpt lat="42.6935310" lon="-0.0516120">
        <ele>3130.6</ele>
        <time>2022-07-23T16:18:03Z</time>
      </trkpt>
      <trkpt lat="42.6935450" lon="-0.0515970">
        <ele>3131.2</ele>
        <time>2022-07-23T16:18:05Z</time>
      </trkpt>
      <trkpt lat="42.6935590" lon="-0.0515800">
        <ele>3131.6</ele>
        <time>2022-07-23T16:18:07Z</time>
      </trkpt>
      <trkpt lat="42.6935800" lon="-0.0515440">
        <ele>3132.4</ele>
        <time>2022-07-23T16:18:11Z</time>
      </trkpt>
      <trkpt lat="42.6936130" lon="-0.0515040">
        <ele>3134.0</ele>
        <time>2022-07-23T16:18:17Z</time>
      </trkpt>
      <trkpt lat="42.6936360" lon="-0.0514810">
        <ele>3134.6</ele>
        <time>2022-07-23T16:18:21Z</time>
      </trkpt>
      <trkpt lat="42.6936640" lon="-0.0514720">
        <ele>3135.6</ele>
        <time>2022-07-23T16:18:25Z</time>
      </trkpt>
      <trkpt lat="42.6936770" lon="-0.0514680">
        <ele>3136.2</ele>
        <time>2022-07-23T16:18:27Z</time>
      </trkpt>
      <trkpt lat="42.6936980" lon="-0.0514480">
        <ele>3137.2</ele>
        <time>2022-07-23T16:18:34Z</time>
      </trkpt>
      <trkpt lat="42.6937020" lon="-0.0514180">
        <ele>3137.4</ele>
        <time>2022-07-23T16:18:42Z</time>
      </trkpt>
      <trkpt lat="42.6937000" lon="-0.0514010">
        <ele>3137.4</ele>
        <time>2022-07-23T16:18:44Z</time>
      </trkpt>
      <trkpt lat="42.6936990" lon="-0.0513910">
        <ele>3137.4</ele>
        <time>2022-07-23T16:18:45Z</time>
      </trkpt>
      <trkpt lat="42.6936980" lon="-0.0513800">
        <ele>3137.6</ele>
        <time>2022-07-23T16:18:46Z</time>
      </trkpt>
      <trkpt lat="42.6936990" lon="-0.0512880">
        <ele>3137.6</ele>
        <time>2022-07-23T16:18:54Z</time>
      </trkpt>
      <trkpt lat="42.6937090" lon="-0.0512450">
        <ele>3137.6</ele>
        <time>2022-07-23T16:18:57Z</time>
      </trkpt>
      <trkpt lat="42.6937260" lon="-0.0512060">
        <ele>3137.6</ele>
        <time>2022-07-23T16:18:59Z</time>
      </trkpt>
      <trkpt lat="42.6937650" lon="-0.0511280">
        <ele>3137.4</ele>
        <time>2022-07-23T16:19:04Z</time>
      </trkpt>
      <trkpt lat="42.6937890" lon="-0.0510730">
        <ele>3137.0</ele>
        <time>2022-07-23T16:19:08Z</time>
      </trkpt>
      <trkpt lat="42.6938300" lon="-0.0509610">
        <ele>3136.2</ele>
        <time>2022-07-23T16:19:14Z</time>
      </trkpt>
      <trkpt lat="42.6938520" lon="-0.0509280">
        <ele>3135.8</ele>
        <time>2022-07-23T16:19:16Z</time>
      </trkpt>
      <trkpt lat="42.6938650" lon="-0.0508970">
        <ele>3135.6</ele>
        <time>2022-07-23T16:19:18Z</time>
      </trkpt>
      <trkpt lat="42.6938600" lon="-0.0508820">
        <ele>3135.4</ele>
        <time>2022-07-23T16:19:19Z</time>
      </trkpt>
      <trkpt lat="42.6938460" lon="-0.0508590">
        <ele>3135.2</ele>
        <time>2022-07-23T16:19:21Z</time>
      </trkpt>
      <trkpt lat="42.6938380" lon="-0.0508500">
        <ele>3135.0</ele>
        <time>2022-07-23T16:19:23Z</time>
      </trkpt>
      <trkpt lat="42.6938330" lon="-0.0508400">
        <ele>3134.4</ele>
        <time>2022-07-23T16:19:28Z</time>
      </trkpt>
      <trkpt lat="42.6938310" lon="-0.0508410">
        <ele>3134.4</ele>
        <time>2022-07-23T16:19:31Z</time>
      </trkpt>
      <trkpt lat="42.6938310" lon="-0.0508410">
        <ele>3134.4</ele>
        <time>2022-07-23T16:19:32Z</time>
      </trkpt>
      <trkpt lat="42.6938310" lon="-0.0508420">
        <ele>3134.4</ele>
        <time>2022-07-23T16:19:33Z</time>
      </trkpt>
      <trkpt lat="42.6938310" lon="-0.0508420">
        <ele>3134.2</ele>
        <time>2022-07-23T16:19:34Z</time>
      </trkpt>
      <trkpt lat="42.6938310" lon="-0.0508420">
        <ele>3134.2</ele>
        <time>2022-07-23T16:19:35Z</time>
      </trkpt>
      <trkpt lat="42.6938270" lon="-0.0508470">
        <ele>3134.2</ele>
        <time>2022-07-23T16:19:39Z</time>
      </trkpt>
      <trkpt lat="42.6938140" lon="-0.0507950">
        <ele>3133.8</ele>
        <time>2022-07-23T16:19:55Z</time>
      </trkpt>
      <trkpt lat="42.6938000" lon="-0.0508240">
        <ele>3134.0</ele>
        <time>2022-07-23T16:20:10Z</time>
      </trkpt>
      <trkpt lat="42.6937950" lon="-0.0508440">
        <ele>3134.0</ele>
        <time>2022-07-23T16:20:26Z</time>
      </trkpt>
      <trkpt lat="42.6938070" lon="-0.0508320">
        <ele>3134.2</ele>
        <time>2022-07-23T16:20:37Z</time>
      </trkpt>
      <trkpt lat="42.6938070" lon="-0.0508320">
        <ele>3134.0</ele>
        <time>2022-07-23T16:20:39Z</time>
      </trkpt>
      <trkpt lat="42.6938140" lon="-0.0508210">
        <ele>3134.6</ele>
        <time>2022-07-23T16:21:00Z</time>
      </trkpt>
      <trkpt lat="42.6938140" lon="-0.0508190">
        <ele>3134.4</ele>
        <time>2022-07-23T16:21:03Z</time>
      </trkpt>
      <trkpt lat="42.6938140" lon="-0.0508180">
        <ele>3134.4</ele>
        <time>2022-07-23T16:21:04Z</time>
      </trkpt>
      <trkpt lat="42.6938140" lon="-0.0508180">
        <ele>3134.4</ele>
        <time>2022-07-23T16:21:05Z</time>
      </trkpt>
      <trkpt lat="42.6938140" lon="-0.0508180">
        <ele>3134.4</ele>
        <time>2022-07-23T16:21:06Z</time>
      </trkpt>
      <trkpt lat="42.6938250" lon="-0.0508190">
        <ele>3134.4</ele>
        <time>2022-07-23T16:21:16Z</time>
      </trkpt>
      <trkpt lat="42.6938190" lon="-0.0508300">
        <ele>3134.4</ele>
        <time>2022-07-23T16:21:33Z</time>
      </trkpt>
      <trkpt lat="42.6938200" lon="-0.0508240">
        <ele>3134.6</ele>
        <time>2022-07-23T16:21:44Z</time>
      </trkpt>
      <trkpt lat="42.6938100" lon="-0.0508350">
        <ele>3134.6</ele>
        <time>2022-07-23T16:21:54Z</time>
      </trkpt>
      <trkpt lat="42.6938190" lon="-0.0508360">
        <ele>3134.4</ele>
        <time>2022-07-23T16:22:05Z</time>
      </trkpt>
      <trkpt lat="42.6938200" lon="-0.0508360">
        <ele>3135.0</ele>
        <time>2022-07-23T16:22:18Z</time>
      </trkpt>
      <trkpt lat="42.6938220" lon="-0.0508370">
        <ele>3135.4</ele>
        <time>2022-07-23T16:22:27Z</time>
      </trkpt>
      <trkpt lat="42.6938230" lon="-0.0508540">
        <ele>3134.6</ele>
        <time>2022-07-23T16:22:44Z</time>
      </trkpt>
      <trkpt lat="42.6938130" lon="-0.0508730">
        <ele>3134.6</ele>
        <time>2022-07-23T16:22:50Z</time>
      </trkpt>
      <trkpt lat="42.6938220" lon="-0.0508570">
        <ele>3134.6</ele>
        <time>2022-07-23T16:22:55Z</time>
      </trkpt>
      <trkpt lat="42.6938330" lon="-0.0508630">
        <ele>3134.8</ele>
        <time>2022-07-23T16:23:10Z</time>
      </trkpt>
      <trkpt lat="42.6938270" lon="-0.0508620">
        <ele>3135.0</ele>
        <time>2022-07-23T16:23:24Z</time>
      </trkpt>
      <trkpt lat="42.6938420" lon="-0.0508470">
        <ele>3135.0</ele>
        <time>2022-07-23T16:23:38Z</time>
      </trkpt>
      <trkpt lat="42.6938560" lon="-0.0508710">
        <ele>3135.0</ele>
        <time>2022-07-23T16:23:52Z</time>
      </trkpt>
      <trkpt lat="42.6938430" lon="-0.0508630">
        <ele>3135.2</ele>
        <time>2022-07-23T16:24:04Z</time>
      </trkpt>
      <trkpt lat="42.6938590" lon="-0.0508550">
        <ele>3135.2</ele>
        <time>2022-07-23T16:24:20Z</time>
      </trkpt>
      <trkpt lat="42.6938390" lon="-0.0508450">
        <ele>3135.2</ele>
        <time>2022-07-23T16:24:39Z</time>
      </trkpt>
      <trkpt lat="42.6938380" lon="-0.0508510">
        <ele>3135.0</ele>
        <time>2022-07-23T16:24:55Z</time>
      </trkpt>
      <trkpt lat="42.6938330" lon="-0.0508570">
        <ele>3134.8</ele>
        <time>2022-07-23T16:25:15Z</time>
      </trkpt>
      <trkpt lat="42.6938270" lon="-0.0508260">
        <ele>3135.0</ele>
        <time>2022-07-23T16:25:34Z</time>
      </trkpt>
      <trkpt lat="42.6938270" lon="-0.0508380">
        <ele>3135.6</ele>
        <time>2022-07-23T16:25:54Z</time>
      </trkpt>
      <trkpt lat="42.6938220" lon="-0.0508680">
        <ele>3135.2</ele>
        <time>2022-07-23T16:26:10Z</time>
      </trkpt>
      <trkpt lat="42.6938140" lon="-0.0508580">
        <ele>3135.0</ele>
        <time>2022-07-23T16:26:27Z</time>
      </trkpt>
      <trkpt lat="42.6938410" lon="-0.0508320">
        <ele>3135.0</ele>
        <time>2022-07-23T16:26:43Z</time>
      </trkpt>
      <trkpt lat="42.6938460" lon="-0.0508320">
        <ele>3135.0</ele>
        <time>2022-07-23T16:26:57Z</time>
      </trkpt>
      <trkpt lat="42.6937450" lon="-0.0508570">
        <ele>3142.2</ele>
        <time>2022-07-24T05:33:06Z</time>
      </trkpt>
      <trkpt lat="42.6936940" lon="-0.0508560">
        <ele>3132.2</ele>
        <time>2022-07-24T05:33:17Z</time>
      </trkpt>
      <trkpt lat="42.6936880" lon="-0.0508620">
        <ele>3131.0</ele>
        <time>2022-07-24T05:33:18Z</time>
      </trkpt>
      <trkpt lat="42.6936300" lon="-0.0508790">
        <ele>3130.8</ele>
        <time>2022-07-24T05:33:25Z</time>
      </trkpt>
      <trkpt lat="42.6936150" lon="-0.0508700">
        <ele>3130.4</ele>
        <time>2022-07-24T05:33:28Z</time>
      </trkpt>
      <trkpt lat="42.6936130" lon="-0.0508360">
        <ele>3129.8</ele>
        <time>2022-07-24T05:33:32Z</time>
      </trkpt>
      <trkpt lat="42.6936270" lon="-0.0507900">
        <ele>3128.8</ele>
        <time>2022-07-24T05:33:36Z</time>
      </trkpt>
      <trkpt lat="42.6936390" lon="-0.0507530">
        <ele>3127.6</ele>
        <time>2022-07-24T05:33:39Z</time>
      </trkpt>
      <trkpt lat="42.6936570" lon="-0.0507060">
        <ele>3127.4</ele>
        <time>2022-07-24T05:33:43Z</time>
      </trkpt>
      <trkpt lat="42.6936610" lon="-0.0506970">
        <ele>3127.0</ele>
        <time>2022-07-24T05:33:44Z</time>
      </trkpt>
      <trkpt lat="42.6936700" lon="-0.0506550">
        <ele>3125.4</ele>
        <time>2022-07-24T05:33:49Z</time>
      </trkpt>
      <trkpt lat="42.6936680" lon="-0.0505930">
        <ele>3123.4</ele>
        <time>2022-07-24T05:33:55Z</time>
      </trkpt>
      <trkpt lat="42.6936680" lon="-0.0505650">
        <ele>3123.0</ele>
        <time>2022-07-24T05:33:57Z</time>
      </trkpt>
      <trkpt lat="42.6936560" lon="-0.0505060">
        <ele>3122.0</ele>
        <time>2022-07-24T05:34:04Z</time>
      </trkpt>
      <trkpt lat="42.6936530" lon="-0.0504750">
        <ele>3120.4</ele>
        <time>2022-07-24T05:34:07Z</time>
      </trkpt>
      <trkpt lat="42.6936440" lon="-0.0504370">
        <ele>3119.4</ele>
        <time>2022-07-24T05:34:11Z</time>
      </trkpt>
      <trkpt lat="42.6936390" lon="-0.0504280">
        <ele>3119.4</ele>
        <time>2022-07-24T05:34:12Z</time>
      </trkpt>
      <trkpt lat="42.6936260" lon="-0.0503890">
        <ele>3118.2</ele>
        <time>2022-07-24T05:34:15Z</time>
      </trkpt>
      <trkpt lat="42.6936230" lon="-0.0503550">
        <ele>3117.2</ele>
        <time>2022-07-24T05:34:19Z</time>
      </trkpt>
      <trkpt lat="42.6936180" lon="-0.0503300">
        <ele>3116.8</ele>
        <time>2022-07-24T05:34:21Z</time>
      </trkpt>
      <trkpt lat="42.6936170" lon="-0.0502750">
        <ele>3115.6</ele>
        <time>2022-07-24T05:34:24Z</time>
      </trkpt>
      <trkpt lat="42.6936200" lon="-0.0502130">
        <ele>3114.6</ele>
        <time>2022-07-24T05:34:27Z</time>
      </trkpt>
      <trkpt lat="42.6936230" lon="-0.0501760">
        <ele>3114.0</ele>
        <time>2022-07-24T05:34:29Z</time>
      </trkpt>
      <trkpt lat="42.6936280" lon="-0.0501200">
        <ele>3112.6</ele>
        <time>2022-07-24T05:34:32Z</time>
      </trkpt>
      <trkpt lat="42.6936270" lon="-0.0501000">
        <ele>3112.0</ele>
        <time>2022-07-24T05:34:33Z</time>
      </trkpt>
      <trkpt lat="42.6936400" lon="-0.0500660">
        <ele>3111.2</ele>
        <time>2022-07-24T05:34:35Z</time>
      </trkpt>
      <trkpt lat="42.6936450" lon="-0.0499800">
        <ele>3108.6</ele>
        <time>2022-07-24T05:34:40Z</time>
      </trkpt>
      <trkpt lat="42.6936590" lon="-0.0499510">
        <ele>3107.6</ele>
        <time>2022-07-24T05:34:42Z</time>
      </trkpt>
      <trkpt lat="42.6936710" lon="-0.0499110">
        <ele>3106.4</ele>
        <time>2022-07-24T05:34:45Z</time>
      </trkpt>
      <trkpt lat="42.6936710" lon="-0.0498160">
        <ele>3105.0</ele>
        <time>2022-07-24T05:34:51Z</time>
      </trkpt>
      <trkpt lat="42.6936690" lon="-0.0497970">
        <ele>3104.6</ele>
        <time>2022-07-24T05:34:52Z</time>
      </trkpt>
      <trkpt lat="42.6936740" lon="-0.0497700">
        <ele>3104.2</ele>
        <time>2022-07-24T05:34:54Z</time>
      </trkpt>
      <trkpt lat="42.6936870" lon="-0.0497390">
        <ele>3102.8</ele>
        <time>2022-07-24T05:34:59Z</time>
      </trkpt>
      <trkpt lat="42.6936920" lon="-0.0497320">
        <ele>3102.4</ele>
        <time>2022-07-24T05:35:00Z</time>
      </trkpt>
      <trkpt lat="42.6936970" lon="-0.0497190">
        <ele>3101.8</ele>
        <time>2022-07-24T05:35:01Z</time>
      </trkpt>
      <trkpt lat="42.6937000" lon="-0.0497040">
        <ele>3101.4</ele>
        <time>2022-07-24T05:35:02Z</time>
      </trkpt>
      <trkpt lat="42.6937070" lon="-0.0496080">
        <ele>3100.6</ele>
        <time>2022-07-24T05:35:07Z</time>
      </trkpt>
      <trkpt lat="42.6937030" lon="-0.0495880">
        <ele>3100.4</ele>
        <time>2022-07-24T05:35:08Z</time>
      </trkpt>
      <trkpt lat="42.6937030" lon="-0.0495690">
        <ele>3100.2</ele>
        <time>2022-07-24T05:35:09Z</time>
      </trkpt>
      <trkpt lat="42.6937070" lon="-0.0494960">
        <ele>3098.8</ele>
        <time>2022-07-24T05:35:13Z</time>
      </trkpt>
      <trkpt lat="42.6936960" lon="-0.0494360">
        <ele>3098.2</ele>
        <time>2022-07-24T05:35:16Z</time>
      </trkpt>
      <trkpt lat="42.6936920" lon="-0.0494030">
        <ele>3097.0</ele>
        <time>2022-07-24T05:35:18Z</time>
      </trkpt>
      <trkpt lat="42.6936860" lon="-0.0493830">
        <ele>3096.6</ele>
        <time>2022-07-24T05:35:19Z</time>
      </trkpt>
      <trkpt lat="42.6936670" lon="-0.0492860">
        <ele>3095.2</ele>
        <time>2022-07-24T05:35:23Z</time>
      </trkpt>
      <trkpt lat="42.6936450" lon="-0.0491980">
        <ele>3093.4</ele>
        <time>2022-07-24T05:35:27Z</time>
      </trkpt>
      <trkpt lat="42.6936410" lon="-0.0491760">
        <ele>3093.0</ele>
        <time>2022-07-24T05:35:28Z</time>
      </trkpt>
      <trkpt lat="42.6936130" lon="-0.0490760">
        <ele>3091.2</ele>
        <time>2022-07-24T05:35:33Z</time>
      </trkpt>
      <trkpt lat="42.6936100" lon="-0.0490540">
        <ele>3090.8</ele>
        <time>2022-07-24T05:35:34Z</time>
      </trkpt>
      <trkpt lat="42.6936160" lon="-0.0489550">
        <ele>3088.8</ele>
        <time>2022-07-24T05:35:40Z</time>
      </trkpt>
      <trkpt lat="42.6936160" lon="-0.0489380">
        <ele>3088.4</ele>
        <time>2022-07-24T05:35:41Z</time>
      </trkpt>
      <trkpt lat="42.6936170" lon="-0.0489200">
        <ele>3088.4</ele>
        <time>2022-07-24T05:35:42Z</time>
      </trkpt>
      <trkpt lat="42.6936170" lon="-0.0488030">
        <ele>3085.2</ele>
        <time>2022-07-24T05:35:48Z</time>
      </trkpt>
      <trkpt lat="42.6936220" lon="-0.0487660">
        <ele>3084.6</ele>
        <time>2022-07-24T05:35:50Z</time>
      </trkpt>
      <trkpt lat="42.6936540" lon="-0.0487370">
        <ele>3083.4</ele>
        <time>2022-07-24T05:35:53Z</time>
      </trkpt>
      <trkpt lat="42.6936610" lon="-0.0486760">
        <ele>3082.2</ele>
        <time>2022-07-24T05:35:57Z</time>
      </trkpt>
      <trkpt lat="42.6936730" lon="-0.0486730">
        <ele>3082.0</ele>
        <time>2022-07-24T05:35:58Z</time>
      </trkpt>
      <trkpt lat="42.6936670" lon="-0.0486400">
        <ele>3081.2</ele>
        <time>2022-07-24T05:36:00Z</time>
      </trkpt>
      <trkpt lat="42.6937030" lon="-0.0485920">
        <ele>3079.6</ele>
        <time>2022-07-24T05:36:04Z</time>
      </trkpt>
      <trkpt lat="42.6937140" lon="-0.0485810">
        <ele>3079.2</ele>
        <time>2022-07-24T05:36:05Z</time>
      </trkpt>
      <trkpt lat="42.6937150" lon="-0.0485550">
        <ele>3079.0</ele>
        <time>2022-07-24T05:36:07Z</time>
      </trkpt>
      <trkpt lat="42.6936970" lon="-0.0484870">
        <ele>3078.2</ele>
        <time>2022-07-24T05:36:10Z</time>
      </trkpt>
      <trkpt lat="42.6937000" lon="-0.0484660">
        <ele>3077.8</ele>
        <time>2022-07-24T05:36:11Z</time>
      </trkpt>
      <trkpt lat="42.6937010" lon="-0.0484440">
        <ele>3077.6</ele>
        <time>2022-07-24T05:36:12Z</time>
      </trkpt>
      <trkpt lat="42.6937050" lon="-0.0484220">
        <ele>3077.2</ele>
        <time>2022-07-24T05:36:13Z</time>
      </trkpt>
      <trkpt lat="42.6937150" lon="-0.0482750">
        <ele>3075.0</ele>
        <time>2022-07-24T05:36:20Z</time>
      </trkpt>
      <trkpt lat="42.6937190" lon="-0.0482570">
        <ele>3074.6</ele>
        <time>2022-07-24T05:36:21Z</time>
      </trkpt>
      <trkpt lat="42.6937150" lon="-0.0482010">
        <ele>3074.2</ele>
        <time>2022-07-24T05:36:24Z</time>
      </trkpt>
      <trkpt lat="42.6937250" lon="-0.0481720">
        <ele>3073.8</ele>
        <time>2022-07-24T05:36:27Z</time>
      </trkpt>
      <trkpt lat="42.6937290" lon="-0.0481700">
        <ele>3073.8</ele>
        <time>2022-07-24T05:36:28Z</time>
      </trkpt>
      <trkpt lat="42.6937650" lon="-0.0481270">
        <ele>3072.2</ele>
        <time>2022-07-24T05:36:34Z</time>
      </trkpt>
      <trkpt lat="42.6937730" lon="-0.0481150">
        <ele>3071.8</ele>
        <time>2022-07-24T05:36:35Z</time>
      </trkpt>
      <trkpt lat="42.6937450" lon="-0.0480880">
        <ele>3071.6</ele>
        <time>2022-07-24T05:36:37Z</time>
      </trkpt>
      <trkpt lat="42.6937080" lon="-0.0480490">
        <ele>3071.0</ele>
        <time>2022-07-24T05:36:40Z</time>
      </trkpt>
      <trkpt lat="42.6936990" lon="-0.0480200">
        <ele>3070.4</ele>
        <time>2022-07-24T05:36:42Z</time>
      </trkpt>
      <trkpt lat="42.6937010" lon="-0.0480000">
        <ele>3070.0</ele>
        <time>2022-07-24T05:36:44Z</time>
      </trkpt>
      <trkpt lat="42.6936980" lon="-0.0479790">
        <ele>3069.4</ele>
        <time>2022-07-24T05:36:46Z</time>
      </trkpt>
      <trkpt lat="42.6936730" lon="-0.0479220">
        <ele>3069.2</ele>
        <time>2022-07-24T05:36:49Z</time>
      </trkpt>
      <trkpt lat="42.6936770" lon="-0.0478910">
        <ele>3068.4</ele>
        <time>2022-07-24T05:36:51Z</time>
      </trkpt>
      <trkpt lat="42.6936820" lon="-0.0478330">
        <ele>3067.6</ele>
        <time>2022-07-24T05:36:56Z</time>
      </trkpt>
      <trkpt lat="42.6937070" lon="-0.0477830">
        <ele>3065.2</ele>
        <time>2022-07-24T05:37:01Z</time>
      </trkpt>
      <trkpt lat="42.6937280" lon="-0.0477570">
        <ele>3064.2</ele>
        <time>2022-07-24T05:37:04Z</time>
      </trkpt>
      <trkpt lat="42.6937260" lon="-0.0477400">
        <ele>3063.4</ele>
        <time>2022-07-24T05:37:06Z</time>
      </trkpt>
      <trkpt lat="42.6937270" lon="-0.0477300">
        <ele>3062.8</ele>
        <time>2022-07-24T05:37:07Z</time>
      </trkpt>
      <trkpt lat="42.6937650" lon="-0.0476810">
        <ele>3060.8</ele>
        <time>2022-07-24T05:37:12Z</time>
      </trkpt>
      <trkpt lat="42.6937720" lon="-0.0476690">
        <ele>3060.4</ele>
        <time>2022-07-24T05:37:13Z</time>
      </trkpt>
      <trkpt lat="42.6937700" lon="-0.0476560">
        <ele>3059.6</ele>
        <time>2022-07-24T05:37:14Z</time>
      </trkpt>
      <trkpt lat="42.6937640" lon="-0.0476480">
        <ele>3059.4</ele>
        <time>2022-07-24T05:37:15Z</time>
      </trkpt>
      <trkpt lat="42.6937300" lon="-0.0476550">
        <ele>3058.2</ele>
        <time>2022-07-24T05:37:18Z</time>
      </trkpt>
      <trkpt lat="42.6937070" lon="-0.0476690">
        <ele>3057.6</ele>
        <time>2022-07-24T05:37:20Z</time>
      </trkpt>
      <trkpt lat="42.6937040" lon="-0.0476760">
        <ele>3057.0</ele>
        <time>2022-07-24T05:37:21Z</time>
      </trkpt>
      <trkpt lat="42.6936900" lon="-0.0476750">
        <ele>3056.0</ele>
        <time>2022-07-24T05:37:23Z</time>
      </trkpt>
      <trkpt lat="42.6936830" lon="-0.0476700">
        <ele>3055.6</ele>
        <time>2022-07-24T05:37:24Z</time>
      </trkpt>
      <trkpt lat="42.6936770" lon="-0.0476650">
        <ele>3055.0</ele>
        <time>2022-07-24T05:37:25Z</time>
      </trkpt>
      <trkpt lat="42.6936640" lon="-0.0476590">
        <ele>3054.8</ele>
        <time>2022-07-24T05:37:27Z</time>
      </trkpt>
      <trkpt lat="42.6936380" lon="-0.0476780">
        <ele>3053.0</ele>
        <time>2022-07-24T05:37:32Z</time>
      </trkpt>
      <trkpt lat="42.6936290" lon="-0.0476910">
        <ele>3052.8</ele>
        <time>2022-07-24T05:37:34Z</time>
      </trkpt>
      <trkpt lat="42.6936280" lon="-0.0476910">
        <ele>3052.6</ele>
        <time>2022-07-24T05:37:35Z</time>
      </trkpt>
      <trkpt lat="42.6936430" lon="-0.0476870">
        <ele>3052.6</ele>
        <time>2022-07-24T05:37:38Z</time>
      </trkpt>
      <trkpt lat="42.6936190" lon="-0.0476340">
        <ele>3052.0</ele>
        <time>2022-07-24T05:37:40Z</time>
      </trkpt>
      <trkpt lat="42.6936020" lon="-0.0476060">
        <ele>3051.6</ele>
        <time>2022-07-24T05:37:42Z</time>
      </trkpt>
      <trkpt lat="42.6935970" lon="-0.0475820">
        <ele>3051.4</ele>
        <time>2022-07-24T05:37:44Z</time>
      </trkpt>
      <trkpt lat="42.6935990" lon="-0.0475770">
        <ele>3050.8</ele>
        <time>2022-07-24T05:37:45Z</time>
      </trkpt>
      <trkpt lat="42.6936030" lon="-0.0475740">
        <ele>3050.2</ele>
        <time>2022-07-24T05:37:46Z</time>
      </trkpt>
      <trkpt lat="42.6936190" lon="-0.0475730">
        <ele>3049.2</ele>
        <time>2022-07-24T05:37:48Z</time>
      </trkpt>
      <trkpt lat="42.6936250" lon="-0.0475680">
        <ele>3049.0</ele>
        <time>2022-07-24T05:37:49Z</time>
      </trkpt>
      <trkpt lat="42.6936350" lon="-0.0475510">
        <ele>3048.2</ele>
        <time>2022-07-24T05:37:51Z</time>
      </trkpt>
      <trkpt lat="42.6936680" lon="-0.0475000">
        <ele>3046.8</ele>
        <time>2022-07-24T05:37:55Z</time>
      </trkpt>
      <trkpt lat="42.6936800" lon="-0.0474660">
        <ele>3045.2</ele>
        <time>2022-07-24T05:37:57Z</time>
      </trkpt>
      <trkpt lat="42.6936970" lon="-0.0474450">
        <ele>3044.6</ele>
        <time>2022-07-24T05:37:59Z</time>
      </trkpt>
      <trkpt lat="42.6936910" lon="-0.0474500">
        <ele>3043.4</ele>
        <time>2022-07-24T05:38:02Z</time>
      </trkpt>
      <trkpt lat="42.6936740" lon="-0.0474600">
        <ele>3043.0</ele>
        <time>2022-07-24T05:38:03Z</time>
      </trkpt>
      <trkpt lat="42.6936640" lon="-0.0474690">
        <ele>3042.6</ele>
        <time>2022-07-24T05:38:04Z</time>
      </trkpt>
      <trkpt lat="42.6936550" lon="-0.0474630">
        <ele>3042.2</ele>
        <time>2022-07-24T05:38:06Z</time>
      </trkpt>
      <trkpt lat="42.6936370" lon="-0.0474590">
        <ele>3041.2</ele>
        <time>2022-07-24T05:38:08Z</time>
      </trkpt>
      <trkpt lat="42.6936310" lon="-0.0474580">
        <ele>3041.0</ele>
        <time>2022-07-24T05:38:09Z</time>
      </trkpt>
      <trkpt lat="42.6936170" lon="-0.0474390">
        <ele>3040.6</ele>
        <time>2022-07-24T05:38:11Z</time>
      </trkpt>
      <trkpt lat="42.6935970" lon="-0.0474380">
        <ele>3040.0</ele>
        <time>2022-07-24T05:38:13Z</time>
      </trkpt>
      <trkpt lat="42.6935310" lon="-0.0474190">
        <ele>3038.6</ele>
        <time>2022-07-24T05:38:17Z</time>
      </trkpt>
      <trkpt lat="42.6934720" lon="-0.0474140">
        <ele>3037.2</ele>
        <time>2022-07-24T05:38:21Z</time>
      </trkpt>
      <trkpt lat="42.6934670" lon="-0.0474080">
        <ele>3036.8</ele>
        <time>2022-07-24T05:38:22Z</time>
      </trkpt>
      <trkpt lat="42.6934620" lon="-0.0473970">
        <ele>3036.0</ele>
        <time>2022-07-24T05:38:23Z</time>
      </trkpt>
      <trkpt lat="42.6934580" lon="-0.0474010">
        <ele>3035.6</ele>
        <time>2022-07-24T05:38:24Z</time>
      </trkpt>
      <trkpt lat="42.6934420" lon="-0.0473890">
        <ele>3034.6</ele>
        <time>2022-07-24T05:38:26Z</time>
      </trkpt>
      <trkpt lat="42.6934330" lon="-0.0473850">
        <ele>3034.4</ele>
        <time>2022-07-24T05:38:27Z</time>
      </trkpt>
      <trkpt lat="42.6934270" lon="-0.0473430">
        <ele>3033.6</ele>
        <time>2022-07-24T05:38:29Z</time>
      </trkpt>
      <trkpt lat="42.6934320" lon="-0.0473240">
        <ele>3033.0</ele>
        <time>2022-07-24T05:38:32Z</time>
      </trkpt>
      <trkpt lat="42.6934210" lon="-0.0472950">
        <ele>3032.6</ele>
        <time>2022-07-24T05:38:33Z</time>
      </trkpt>
      <trkpt lat="42.6934000" lon="-0.0472480">
        <ele>3032.0</ele>
        <time>2022-07-24T05:38:35Z</time>
      </trkpt>
      <trkpt lat="42.6933770" lon="-0.0471990">
        <ele>3031.2</ele>
        <time>2022-07-24T05:38:37Z</time>
      </trkpt>
      <trkpt lat="42.6933630" lon="-0.0471830">
        <ele>3030.8</ele>
        <time>2022-07-24T05:38:38Z</time>
      </trkpt>
      <trkpt lat="42.6933410" lon="-0.0471600">
        <ele>3029.2</ele>
        <time>2022-07-24T05:38:40Z</time>
      </trkpt>
      <trkpt lat="42.6933230" lon="-0.0471380">
        <ele>3028.4</ele>
        <time>2022-07-24T05:38:42Z</time>
      </trkpt>
      <trkpt lat="42.6933000" lon="-0.0470640">
        <ele>3027.6</ele>
        <time>2022-07-24T05:38:44Z</time>
      </trkpt>
      <trkpt lat="42.6932890" lon="-0.0469610">
        <ele>3024.8</ele>
        <time>2022-07-24T05:38:49Z</time>
      </trkpt>
      <trkpt lat="42.6932910" lon="-0.0469620">
        <ele>3024.0</ele>
        <time>2022-07-24T05:38:50Z</time>
      </trkpt>
      <trkpt lat="42.6932780" lon="-0.0469320">
        <ele>3023.2</ele>
        <time>2022-07-24T05:38:52Z</time>
      </trkpt>
      <trkpt lat="42.6932670" lon="-0.0469020">
        <ele>3022.4</ele>
        <time>2022-07-24T05:38:54Z</time>
      </trkpt>
      <trkpt lat="42.6932690" lon="-0.0468870">
        <ele>3022.4</ele>
        <time>2022-07-24T05:38:55Z</time>
      </trkpt>
      <trkpt lat="42.6932630" lon="-0.0468570">
        <ele>3021.2</ele>
        <time>2022-07-24T05:39:00Z</time>
      </trkpt>
      <trkpt lat="42.6932560" lon="-0.0468560">
        <ele>3020.4</ele>
        <time>2022-07-24T05:39:01Z</time>
      </trkpt>
      <trkpt lat="42.6932430" lon="-0.0468510">
        <ele>3020.4</ele>
        <time>2022-07-24T05:39:02Z</time>
      </trkpt>
      <trkpt lat="42.6932400" lon="-0.0468090">
        <ele>3019.0</ele>
        <time>2022-07-24T05:39:06Z</time>
      </trkpt>
      <trkpt lat="42.6932380" lon="-0.0467720">
        <ele>3018.0</ele>
        <time>2022-07-24T05:39:09Z</time>
      </trkpt>
      <trkpt lat="42.6932460" lon="-0.0466920">
        <ele>3014.8</ele>
        <time>2022-07-24T05:39:17Z</time>
      </trkpt>
      <trkpt lat="42.6932560" lon="-0.0466350">
        <ele>3013.8</ele>
        <time>2022-07-24T05:39:22Z</time>
      </trkpt>
      <trkpt lat="42.6932610" lon="-0.0466280">
        <ele>3013.8</ele>
        <time>2022-07-24T05:39:23Z</time>
      </trkpt>
      <trkpt lat="42.6932660" lon="-0.0466180">
        <ele>3013.4</ele>
        <time>2022-07-24T05:39:24Z</time>
      </trkpt>
      <trkpt lat="42.6932680" lon="-0.0466070">
        <ele>3013.4</ele>
        <time>2022-07-24T05:39:25Z</time>
      </trkpt>
      <trkpt lat="42.6932650" lon="-0.0465820">
        <ele>3012.4</ele>
        <time>2022-07-24T05:39:28Z</time>
      </trkpt>
      <trkpt lat="42.6932410" lon="-0.0465500">
        <ele>3010.8</ele>
        <time>2022-07-24T05:39:33Z</time>
      </trkpt>
      <trkpt lat="42.6932310" lon="-0.0465460">
        <ele>3010.2</ele>
        <time>2022-07-24T05:39:34Z</time>
      </trkpt>
      <trkpt lat="42.6932170" lon="-0.0465010">
        <ele>3008.2</ele>
        <time>2022-07-24T05:39:38Z</time>
      </trkpt>
      <trkpt lat="42.6932090" lon="-0.0464810">
        <ele>3007.6</ele>
        <time>2022-07-24T05:39:40Z</time>
      </trkpt>
      <trkpt lat="42.6932020" lon="-0.0464750">
        <ele>3007.4</ele>
        <time>2022-07-24T05:39:41Z</time>
      </trkpt>
      <trkpt lat="42.6931960" lon="-0.0464650">
        <ele>3007.2</ele>
        <time>2022-07-24T05:39:42Z</time>
      </trkpt>
      <trkpt lat="42.6931830" lon="-0.0464510">
        <ele>3006.2</ele>
        <time>2022-07-24T05:39:44Z</time>
      </trkpt>
      <trkpt lat="42.6931620" lon="-0.0464170">
        <ele>3004.8</ele>
        <time>2022-07-24T05:39:48Z</time>
      </trkpt>
      <trkpt lat="42.6931640" lon="-0.0464050">
        <ele>3004.8</ele>
        <time>2022-07-24T05:39:49Z</time>
      </trkpt>
      <trkpt lat="42.6931810" lon="-0.0463700">
        <ele>3004.0</ele>
        <time>2022-07-24T05:39:52Z</time>
      </trkpt>
      <trkpt lat="42.6931780" lon="-0.0463280">
        <ele>3003.4</ele>
        <time>2022-07-24T05:39:56Z</time>
      </trkpt>
      <trkpt lat="42.6931780" lon="-0.0463210">
        <ele>3003.0</ele>
        <time>2022-07-24T05:39:57Z</time>
      </trkpt>
      <trkpt lat="42.6931750" lon="-0.0463140">
        <ele>3002.4</ele>
        <time>2022-07-24T05:39:58Z</time>
      </trkpt>
      <trkpt lat="42.6931700" lon="-0.0463050">
        <ele>3002.0</ele>
        <time>2022-07-24T05:39:59Z</time>
      </trkpt>
      <trkpt lat="42.6931600" lon="-0.0462590">
        <ele>3001.0</ele>
        <time>2022-07-24T05:40:02Z</time>
      </trkpt>
      <trkpt lat="42.6931610" lon="-0.0462330">
        <ele>3000.2</ele>
        <time>2022-07-24T05:40:03Z</time>
      </trkpt>
      <trkpt lat="42.6931610" lon="-0.0461990">
        <ele>2999.8</ele>
        <time>2022-07-24T05:40:04Z</time>
      </trkpt>
      <trkpt lat="42.6931590" lon="-0.0461670">
        <ele>2999.8</ele>
        <time>2022-07-24T05:40:06Z</time>
      </trkpt>
      <trkpt lat="42.6931470" lon="-0.0461400">
        <ele>2997.8</ele>
        <time>2022-07-24T05:40:12Z</time>
      </trkpt>
      <trkpt lat="42.6931500" lon="-0.0461320">
        <ele>2997.8</ele>
        <time>2022-07-24T05:40:13Z</time>
      </trkpt>
      <trkpt lat="42.6931520" lon="-0.0461230">
        <ele>2997.6</ele>
        <time>2022-07-24T05:40:14Z</time>
      </trkpt>
      <trkpt lat="42.6931500" lon="-0.0460930">
        <ele>2996.6</ele>
        <time>2022-07-24T05:40:18Z</time>
      </trkpt>
      <trkpt lat="42.6931170" lon="-0.0460680">
        <ele>2995.8</ele>
        <time>2022-07-24T05:40:22Z</time>
      </trkpt>
      <trkpt lat="42.6931060" lon="-0.0460580">
        <ele>2995.6</ele>
        <time>2022-07-24T05:40:23Z</time>
      </trkpt>
      <trkpt lat="42.6930950" lon="-0.0460430">
        <ele>2994.4</ele>
        <time>2022-07-24T05:40:25Z</time>
      </trkpt>
      <trkpt lat="42.6930580" lon="-0.0460210">
        <ele>2993.0</ele>
        <time>2022-07-24T05:40:29Z</time>
      </trkpt>
      <trkpt lat="42.6930490" lon="-0.0460170">
        <ele>2992.6</ele>
        <time>2022-07-24T05:40:30Z</time>
      </trkpt>
      <trkpt lat="42.6930420" lon="-0.0460140">
        <ele>2992.2</ele>
        <time>2022-07-24T05:40:31Z</time>
      </trkpt>
      <trkpt lat="42.6930230" lon="-0.0460080">
        <ele>2990.4</ele>
        <time>2022-07-24T05:40:35Z</time>
      </trkpt>
      <trkpt lat="42.6930160" lon="-0.0460060">
        <ele>2990.4</ele>
        <time>2022-07-24T05:40:36Z</time>
      </trkpt>
      <trkpt lat="42.6929380" lon="-0.0459820">
        <ele>2988.8</ele>
        <time>2022-07-24T05:40:41Z</time>
      </trkpt>
      <trkpt lat="42.6929320" lon="-0.0459750">
        <ele>2988.2</ele>
        <time>2022-07-24T05:40:42Z</time>
      </trkpt>
      <trkpt lat="42.6929240" lon="-0.0459450">
        <ele>2986.8</ele>
        <time>2022-07-24T05:40:45Z</time>
      </trkpt>
      <trkpt lat="42.6929070" lon="-0.0459270">
        <ele>2985.2</ele>
        <time>2022-07-24T05:40:49Z</time>
      </trkpt>
      <trkpt lat="42.6928930" lon="-0.0458990">
        <ele>2984.2</ele>
        <time>2022-07-24T05:40:51Z</time>
      </trkpt>
      <trkpt lat="42.6928550" lon="-0.0458480">
        <ele>2982.6</ele>
        <time>2022-07-24T05:40:56Z</time>
      </trkpt>
      <trkpt lat="42.6928310" lon="-0.0457990">
        <ele>2981.4</ele>
        <time>2022-07-24T05:40:59Z</time>
      </trkpt>
      <trkpt lat="42.6928150" lon="-0.0457680">
        <ele>2980.6</ele>
        <time>2022-07-24T05:41:01Z</time>
      </trkpt>
      <trkpt lat="42.6927950" lon="-0.0457240">
        <ele>2979.6</ele>
        <time>2022-07-24T05:41:04Z</time>
      </trkpt>
      <trkpt lat="42.6927580" lon="-0.0456530">
        <ele>2978.2</ele>
        <time>2022-07-24T05:41:09Z</time>
      </trkpt>
      <trkpt lat="42.6927530" lon="-0.0455780">
        <ele>2977.2</ele>
        <time>2022-07-24T05:41:13Z</time>
      </trkpt>
      <trkpt lat="42.6927440" lon="-0.0455300">
        <ele>2976.4</ele>
        <time>2022-07-24T05:41:17Z</time>
      </trkpt>
      <trkpt lat="42.6927260" lon="-0.0455340">
        <ele>2976.4</ele>
        <time>2022-07-24T05:41:18Z</time>
      </trkpt>
      <trkpt lat="42.6926840" lon="-0.0454960">
        <ele>2975.8</ele>
        <time>2022-07-24T05:41:21Z</time>
      </trkpt>
      <trkpt lat="42.6925940" lon="-0.0453980">
        <ele>2973.4</ele>
        <time>2022-07-24T05:41:28Z</time>
      </trkpt>
      <trkpt lat="42.6925640" lon="-0.0453750">
        <ele>2972.8</ele>
        <time>2022-07-24T05:41:32Z</time>
      </trkpt>
      <trkpt lat="42.6925280" lon="-0.0453250">
        <ele>2972.6</ele>
        <time>2022-07-24T05:41:35Z</time>
      </trkpt>
      <trkpt lat="42.6924980" lon="-0.0452540">
        <ele>2972.4</ele>
        <time>2022-07-24T05:41:38Z</time>
      </trkpt>
      <trkpt lat="42.6924820" lon="-0.0451690">
        <ele>2971.8</ele>
        <time>2022-07-24T05:41:42Z</time>
      </trkpt>
      <trkpt lat="42.6924760" lon="-0.0451560">
        <ele>2971.8</ele>
        <time>2022-07-24T05:41:43Z</time>
      </trkpt>
      <trkpt lat="42.6924720" lon="-0.0451370">
        <ele>2971.6</ele>
        <time>2022-07-24T05:41:44Z</time>
      </trkpt>
      <trkpt lat="42.6924700" lon="-0.0451190">
        <ele>2971.6</ele>
        <time>2022-07-24T05:41:45Z</time>
      </trkpt>
      <trkpt lat="42.6924620" lon="-0.0450890">
        <ele>2970.8</ele>
        <time>2022-07-24T05:41:47Z</time>
      </trkpt>
      <trkpt lat="42.6924280" lon="-0.0450280">
        <ele>2969.4</ele>
        <time>2022-07-24T05:41:52Z</time>
      </trkpt>
      <trkpt lat="42.6924210" lon="-0.0450170">
        <ele>2969.2</ele>
        <time>2022-07-24T05:41:53Z</time>
      </trkpt>
      <trkpt lat="42.6924160" lon="-0.0450080">
        <ele>2969.0</ele>
        <time>2022-07-24T05:41:54Z</time>
      </trkpt>
      <trkpt lat="42.6924120" lon="-0.0450040">
        <ele>2968.6</ele>
        <time>2022-07-24T05:41:55Z</time>
      </trkpt>
      <trkpt lat="42.6923910" lon="-0.0449530">
        <ele>2967.6</ele>
        <time>2022-07-24T05:42:00Z</time>
      </trkpt>
      <trkpt lat="42.6923700" lon="-0.0448700">
        <ele>2966.6</ele>
        <time>2022-07-24T05:42:05Z</time>
      </trkpt>
      <trkpt lat="42.6923600" lon="-0.0448190">
        <ele>2966.2</ele>
        <time>2022-07-24T05:42:08Z</time>
      </trkpt>
      <trkpt lat="42.6923300" lon="-0.0447580">
        <ele>2965.8</ele>
        <time>2022-07-24T05:42:12Z</time>
      </trkpt>
      <trkpt lat="42.6923050" lon="-0.0447160">
        <ele>2965.0</ele>
        <time>2022-07-24T05:42:15Z</time>
      </trkpt>
      <trkpt lat="42.6923040" lon="-0.0447030">
        <ele>2964.8</ele>
        <time>2022-07-24T05:42:16Z</time>
      </trkpt>
      <trkpt lat="42.6922960" lon="-0.0446730">
        <ele>2963.4</ele>
        <time>2022-07-24T05:42:19Z</time>
      </trkpt>
      <trkpt lat="42.6922990" lon="-0.0446520">
        <ele>2962.6</ele>
        <time>2022-07-24T05:42:21Z</time>
      </trkpt>
      <trkpt lat="42.6923090" lon="-0.0445990">
        <ele>2961.8</ele>
        <time>2022-07-24T05:42:24Z</time>
      </trkpt>
      <trkpt lat="42.6922990" lon="-0.0445650">
        <ele>2960.6</ele>
        <time>2022-07-24T05:42:26Z</time>
      </trkpt>
      <trkpt lat="42.6922680" lon="-0.0445200">
        <ele>2959.8</ele>
        <time>2022-07-24T05:42:30Z</time>
      </trkpt>
      <trkpt lat="42.6922550" lon="-0.0445130">
        <ele>2959.4</ele>
        <time>2022-07-24T05:42:31Z</time>
      </trkpt>
      <trkpt lat="42.6922210" lon="-0.0444610">
        <ele>2958.6</ele>
        <time>2022-07-24T05:42:34Z</time>
      </trkpt>
      <trkpt lat="42.6922190" lon="-0.0444350">
        <ele>2958.2</ele>
        <time>2022-07-24T05:42:35Z</time>
      </trkpt>
      <trkpt lat="42.6922180" lon="-0.0444110">
        <ele>2957.6</ele>
        <time>2022-07-24T05:42:36Z</time>
      </trkpt>
      <trkpt lat="42.6922100" lon="-0.0443290">
        <ele>2956.4</ele>
        <time>2022-07-24T05:42:39Z</time>
      </trkpt>
      <trkpt lat="42.6921880" lon="-0.0441990">
        <ele>2954.6</ele>
        <time>2022-07-24T05:42:44Z</time>
      </trkpt>
      <trkpt lat="42.6921770" lon="-0.0441110">
        <ele>2953.4</ele>
        <time>2022-07-24T05:42:48Z</time>
      </trkpt>
      <trkpt lat="42.6921600" lon="-0.0440570">
        <ele>2952.8</ele>
        <time>2022-07-24T05:42:51Z</time>
      </trkpt>
      <trkpt lat="42.6921130" lon="-0.0439870">
        <ele>2951.4</ele>
        <time>2022-07-24T05:42:57Z</time>
      </trkpt>
      <trkpt lat="42.6921020" lon="-0.0439750">
        <ele>2951.2</ele>
        <time>2022-07-24T05:42:58Z</time>
      </trkpt>
      <trkpt lat="42.6920360" lon="-0.0439110">
        <ele>2950.4</ele>
        <time>2022-07-24T05:43:03Z</time>
      </trkpt>
      <trkpt lat="42.6920150" lon="-0.0438580">
        <ele>2950.2</ele>
        <time>2022-07-24T05:43:06Z</time>
      </trkpt>
      <trkpt lat="42.6919300" lon="-0.0437360">
        <ele>2947.0</ele>
        <time>2022-07-24T05:43:14Z</time>
      </trkpt>
      <trkpt lat="42.6919190" lon="-0.0437260">
        <ele>2947.0</ele>
        <time>2022-07-24T05:43:15Z</time>
      </trkpt>
      <trkpt lat="42.6919080" lon="-0.0436780">
        <ele>2946.0</ele>
        <time>2022-07-24T05:43:19Z</time>
      </trkpt>
      <trkpt lat="42.6919070" lon="-0.0436600">
        <ele>2946.0</ele>
        <time>2022-07-24T05:43:21Z</time>
      </trkpt>
      <trkpt lat="42.6918870" lon="-0.0435890">
        <ele>2944.4</ele>
        <time>2022-07-24T05:43:26Z</time>
      </trkpt>
      <trkpt lat="42.6918830" lon="-0.0435490">
        <ele>2943.8</ele>
        <time>2022-07-24T05:43:28Z</time>
      </trkpt>
      <trkpt lat="42.6918470" lon="-0.0434310">
        <ele>2942.6</ele>
        <time>2022-07-24T05:43:35Z</time>
      </trkpt>
      <trkpt lat="42.6918140" lon="-0.0432950">
        <ele>2941.2</ele>
        <time>2022-07-24T05:43:42Z</time>
      </trkpt>
      <trkpt lat="42.6918020" lon="-0.0432860">
        <ele>2941.0</ele>
        <time>2022-07-24T05:43:43Z</time>
      </trkpt>
      <trkpt lat="42.6917870" lon="-0.0432820">
        <ele>2940.8</ele>
        <time>2022-07-24T05:43:44Z</time>
      </trkpt>
      <trkpt lat="42.6917700" lon="-0.0432690">
        <ele>2940.2</ele>
        <time>2022-07-24T05:43:46Z</time>
      </trkpt>
      <trkpt lat="42.6917740" lon="-0.0432540">
        <ele>2940.2</ele>
        <time>2022-07-24T05:43:47Z</time>
      </trkpt>
      <trkpt lat="42.6917780" lon="-0.0432400">
        <ele>2940.0</ele>
        <time>2022-07-24T05:43:48Z</time>
      </trkpt>
      <trkpt lat="42.6917830" lon="-0.0432150">
        <ele>2939.6</ele>
        <time>2022-07-24T05:43:50Z</time>
      </trkpt>
      <trkpt lat="42.6917780" lon="-0.0431550">
        <ele>2939.0</ele>
        <time>2022-07-24T05:43:53Z</time>
      </trkpt>
      <trkpt lat="42.6917740" lon="-0.0431340">
        <ele>2938.6</ele>
        <time>2022-07-24T05:43:54Z</time>
      </trkpt>
      <trkpt lat="42.6917610" lon="-0.0430950">
        <ele>2938.2</ele>
        <time>2022-07-24T05:43:56Z</time>
      </trkpt>
      <trkpt lat="42.6917460" lon="-0.0430130">
        <ele>2936.0</ele>
        <time>2022-07-24T05:44:01Z</time>
      </trkpt>
      <trkpt lat="42.6917390" lon="-0.0429680">
        <ele>2935.0</ele>
        <time>2022-07-24T05:44:04Z</time>
      </trkpt>
      <trkpt lat="42.6917430" lon="-0.0428990">
        <ele>2933.8</ele>
        <time>2022-07-24T05:44:09Z</time>
      </trkpt>
      <trkpt lat="42.6917350" lon="-0.0428680">
        <ele>2933.4</ele>
        <time>2022-07-24T05:44:11Z</time>
      </trkpt>
      <trkpt lat="42.6917490" lon="-0.0428250">
        <ele>2933.2</ele>
        <time>2022-07-24T05:44:13Z</time>
      </trkpt>
      <trkpt lat="42.6917620" lon="-0.0427870">
        <ele>2933.2</ele>
        <time>2022-07-24T05:44:15Z</time>
      </trkpt>
      <trkpt lat="42.6917520" lon="-0.0427550">
        <ele>2933.2</ele>
        <time>2022-07-24T05:44:17Z</time>
      </trkpt>
      <trkpt lat="42.6917470" lon="-0.0427410">
        <ele>2933.2</ele>
        <time>2022-07-24T05:44:18Z</time>
      </trkpt>
      <trkpt lat="42.6917260" lon="-0.0427370">
        <ele>2933.2</ele>
        <time>2022-07-24T05:44:19Z</time>
      </trkpt>
      <trkpt lat="42.6916990" lon="-0.0427140">
        <ele>2932.8</ele>
        <time>2022-07-24T05:44:21Z</time>
      </trkpt>
      <trkpt lat="42.6916530" lon="-0.0426290">
        <ele>2933.0</ele>
        <time>2022-07-24T05:44:27Z</time>
      </trkpt>
      <trkpt lat="42.6916420" lon="-0.0425920">
        <ele>2933.0</ele>
        <time>2022-07-24T05:44:29Z</time>
      </trkpt>
      <trkpt lat="42.6916410" lon="-0.0425320">
        <ele>2933.0</ele>
        <time>2022-07-24T05:44:33Z</time>
      </trkpt>
      <trkpt lat="42.6916270" lon="-0.0425200">
        <ele>2933.2</ele>
        <time>2022-07-24T05:44:35Z</time>
      </trkpt>
      <trkpt lat="42.6916210" lon="-0.0425140">
        <ele>2933.2</ele>
        <time>2022-07-24T05:44:36Z</time>
      </trkpt>
      <trkpt lat="42.6915950" lon="-0.0424860">
        <ele>2932.8</ele>
        <time>2022-07-24T05:44:39Z</time>
      </trkpt>
      <trkpt lat="42.6915850" lon="-0.0424760">
        <ele>2932.8</ele>
        <time>2022-07-24T05:44:40Z</time>
      </trkpt>
      <trkpt lat="42.6915570" lon="-0.0424580">
        <ele>2932.2</ele>
        <time>2022-07-24T05:44:43Z</time>
      </trkpt>
      <trkpt lat="42.6915450" lon="-0.0424560">
        <ele>2932.2</ele>
        <time>2022-07-24T05:44:44Z</time>
      </trkpt>
      <trkpt lat="42.6915360" lon="-0.0424540">
        <ele>2932.0</ele>
        <time>2022-07-24T05:44:45Z</time>
      </trkpt>
      <trkpt lat="42.6914910" lon="-0.0423950">
        <ele>2931.6</ele>
        <time>2022-07-24T05:44:50Z</time>
      </trkpt>
      <trkpt lat="42.6914830" lon="-0.0423870">
        <ele>2931.4</ele>
        <time>2022-07-24T05:44:52Z</time>
      </trkpt>
      <trkpt lat="42.6914780" lon="-0.0423880">
        <ele>2931.2</ele>
        <time>2022-07-24T05:44:54Z</time>
      </trkpt>
      <trkpt lat="42.6914750" lon="-0.0423920">
        <ele>2931.2</ele>
        <time>2022-07-24T05:44:55Z</time>
      </trkpt>
      <trkpt lat="42.6914720" lon="-0.0424000">
        <ele>2931.2</ele>
        <time>2022-07-24T05:44:57Z</time>
      </trkpt>
      <trkpt lat="42.6914870" lon="-0.0423750">
        <ele>2931.4</ele>
        <time>2022-07-24T05:45:03Z</time>
      </trkpt>
      <trkpt lat="42.6914910" lon="-0.0423680">
        <ele>2931.6</ele>
        <time>2022-07-24T05:45:04Z</time>
      </trkpt>
      <trkpt lat="42.6914840" lon="-0.0423400">
        <ele>2931.6</ele>
        <time>2022-07-24T05:45:08Z</time>
      </trkpt>
      <trkpt lat="42.6914800" lon="-0.0423270">
        <ele>2931.8</ele>
        <time>2022-07-24T05:45:09Z</time>
      </trkpt>
      <trkpt lat="42.6914660" lon="-0.0422860">
        <ele>2932.6</ele>
        <time>2022-07-24T05:45:13Z</time>
      </trkpt>
      <trkpt lat="42.6914570" lon="-0.0422790">
        <ele>2932.8</ele>
        <time>2022-07-24T05:45:14Z</time>
      </trkpt>
      <trkpt lat="42.6914330" lon="-0.0422650">
        <ele>2933.0</ele>
        <time>2022-07-24T05:45:15Z</time>
      </trkpt>
      <trkpt lat="42.6914170" lon="-0.0422020">
        <ele>2933.2</ele>
        <time>2022-07-24T05:45:20Z</time>
      </trkpt>
      <trkpt lat="42.6914180" lon="-0.0421930">
        <ele>2933.0</ele>
        <time>2022-07-24T05:45:21Z</time>
      </trkpt>
      <trkpt lat="42.6914620" lon="-0.0421590">
        <ele>2932.6</ele>
        <time>2022-07-24T05:45:26Z</time>
      </trkpt>
      <trkpt lat="42.6914680" lon="-0.0421490">
        <ele>2932.4</ele>
        <time>2022-07-24T05:45:27Z</time>
      </trkpt>
      <trkpt lat="42.6915010" lon="-0.0421190">
        <ele>2931.6</ele>
        <time>2022-07-24T05:45:31Z</time>
      </trkpt>
      <trkpt lat="42.6915190" lon="-0.0421090">
        <ele>2930.8</ele>
        <time>2022-07-24T05:45:34Z</time>
      </trkpt>
      <trkpt lat="42.6915220" lon="-0.0421070">
        <ele>2930.4</ele>
        <time>2022-07-24T05:45:35Z</time>
      </trkpt>
      <trkpt lat="42.6915310" lon="-0.0420820">
        <ele>2929.8</ele>
        <time>2022-07-24T05:45:38Z</time>
      </trkpt>
      <trkpt lat="42.6915370" lon="-0.0420520">
        <ele>2929.2</ele>
        <time>2022-07-24T05:45:41Z</time>
      </trkpt>
      <trkpt lat="42.6915720" lon="-0.0420360">
        <ele>2928.8</ele>
        <time>2022-07-24T05:45:43Z</time>
      </trkpt>
      <trkpt lat="42.6916110" lon="-0.0420080">
        <ele>2927.8</ele>
        <time>2022-07-24T05:45:48Z</time>
      </trkpt>
      <trkpt lat="42.6916270" lon="-0.0419620">
        <ele>2926.4</ele>
        <time>2022-07-24T05:45:53Z</time>
      </trkpt>
      <trkpt lat="42.6916140" lon="-0.0419540">
        <ele>2926.2</ele>
        <time>2022-07-24T05:45:55Z</time>
      </trkpt>
      <trkpt lat="42.6916090" lon="-0.0419500">
        <ele>2926.2</ele>
        <time>2022-07-24T05:45:56Z</time>
      </trkpt>
      <trkpt lat="42.6915960" lon="-0.0419370">
        <ele>2925.0</ele>
        <time>2022-07-24T05:45:58Z</time>
      </trkpt>
      <trkpt lat="42.6915880" lon="-0.0419170">
        <ele>2924.0</ele>
        <time>2022-07-24T05:46:01Z</time>
      </trkpt>
      <trkpt lat="42.6915740" lon="-0.0418750">
        <ele>2922.6</ele>
        <time>2022-07-24T05:46:06Z</time>
      </trkpt>
      <trkpt lat="42.6915590" lon="-0.0418110">
        <ele>2921.6</ele>
        <time>2022-07-24T05:46:12Z</time>
      </trkpt>
      <trkpt lat="42.6915630" lon="-0.0417960">
        <ele>2921.4</ele>
        <time>2022-07-24T05:46:13Z</time>
      </trkpt>
      <trkpt lat="42.6915630" lon="-0.0417740">
        <ele>2921.4</ele>
        <time>2022-07-24T05:46:15Z</time>
      </trkpt>
      <trkpt lat="42.6915480" lon="-0.0417350">
        <ele>2919.6</ele>
        <time>2022-07-24T05:46:19Z</time>
      </trkpt>
      <trkpt lat="42.6915330" lon="-0.0416830">
        <ele>2918.0</ele>
        <time>2022-07-24T05:46:24Z</time>
      </trkpt>
      <trkpt lat="42.6915220" lon="-0.0416560">
        <ele>2917.6</ele>
        <time>2022-07-24T05:46:26Z</time>
      </trkpt>
      <trkpt lat="42.6915220" lon="-0.0415820">
        <ele>2915.8</ele>
        <time>2022-07-24T05:46:31Z</time>
      </trkpt>
      <trkpt lat="42.6915010" lon="-0.0414980">
        <ele>2914.4</ele>
        <time>2022-07-24T05:46:37Z</time>
      </trkpt>
      <trkpt lat="42.6914970" lon="-0.0414920">
        <ele>2914.2</ele>
        <time>2022-07-24T05:46:38Z</time>
      </trkpt>
      <trkpt lat="42.6914450" lon="-0.0414660">
        <ele>2912.6</ele>
        <time>2022-07-24T05:46:43Z</time>
      </trkpt>
      <trkpt lat="42.6914360" lon="-0.0414620">
        <ele>2912.4</ele>
        <time>2022-07-24T05:46:44Z</time>
      </trkpt>
      <trkpt lat="42.6914290" lon="-0.0414590">
        <ele>2912.4</ele>
        <time>2022-07-24T05:46:45Z</time>
      </trkpt>
      <trkpt lat="42.6914330" lon="-0.0414630">
        <ele>2912.2</ele>
        <time>2022-07-24T05:46:46Z</time>
      </trkpt>
      <trkpt lat="42.6914300" lon="-0.0414720">
        <ele>2911.6</ele>
        <time>2022-07-24T05:46:49Z</time>
      </trkpt>
      <trkpt lat="42.6914100" lon="-0.0414490">
        <ele>2910.8</ele>
        <time>2022-07-24T05:46:52Z</time>
      </trkpt>
      <trkpt lat="42.6914000" lon="-0.0414390">
        <ele>2910.4</ele>
        <time>2022-07-24T05:46:53Z</time>
      </trkpt>
      <trkpt lat="42.6913900" lon="-0.0414130">
        <ele>2909.8</ele>
        <time>2022-07-24T05:46:55Z</time>
      </trkpt>
      <trkpt lat="42.6913920" lon="-0.0414050">
        <ele>2909.6</ele>
        <time>2022-07-24T05:46:56Z</time>
      </trkpt>
      <trkpt lat="42.6913930" lon="-0.0413950">
        <ele>2909.6</ele>
        <time>2022-07-24T05:46:57Z</time>
      </trkpt>
      <trkpt lat="42.6913850" lon="-0.0413640">
        <ele>2908.8</ele>
        <time>2022-07-24T05:47:00Z</time>
      </trkpt>
      <trkpt lat="42.6914010" lon="-0.0413390">
        <ele>2907.6</ele>
        <time>2022-07-24T05:47:03Z</time>
      </trkpt>
      <trkpt lat="42.6914170" lon="-0.0413040">
        <ele>2905.6</ele>
        <time>2022-07-24T05:47:09Z</time>
      </trkpt>
      <trkpt lat="42.6914040" lon="-0.0412930">
        <ele>2904.8</ele>
        <time>2022-07-24T05:47:11Z</time>
      </trkpt>
      <trkpt lat="42.6913960" lon="-0.0412840">
        <ele>2904.2</ele>
        <time>2022-07-24T05:47:12Z</time>
      </trkpt>
      <trkpt lat="42.6913890" lon="-0.0412770">
        <ele>2904.2</ele>
        <time>2022-07-24T05:47:13Z</time>
      </trkpt>
      <trkpt lat="42.6913770" lon="-0.0412590">
        <ele>2903.6</ele>
        <time>2022-07-24T05:47:15Z</time>
      </trkpt>
      <trkpt lat="42.6913630" lon="-0.0412180">
        <ele>2902.2</ele>
        <time>2022-07-24T05:47:19Z</time>
      </trkpt>
      <trkpt lat="42.6913470" lon="-0.0411570">
        <ele>2900.2</ele>
        <time>2022-07-24T05:47:24Z</time>
      </trkpt>
      <trkpt lat="42.6913360" lon="-0.0411140">
        <ele>2899.4</ele>
        <time>2022-07-24T05:47:26Z</time>
      </trkpt>
      <trkpt lat="42.6913310" lon="-0.0410970">
        <ele>2899.0</ele>
        <time>2022-07-24T05:47:28Z</time>
      </trkpt>
      <trkpt lat="42.6913030" lon="-0.0410230">
        <ele>2897.4</ele>
        <time>2022-07-24T05:47:34Z</time>
      </trkpt>
      <trkpt lat="42.6912830" lon="-0.0409750">
        <ele>2895.8</ele>
        <time>2022-07-24T05:47:38Z</time>
      </trkpt>
      <trkpt lat="42.6912730" lon="-0.0409630">
        <ele>2895.6</ele>
        <time>2022-07-24T05:47:39Z</time>
      </trkpt>
      <trkpt lat="42.6912570" lon="-0.0409370">
        <ele>2895.0</ele>
        <time>2022-07-24T05:47:41Z</time>
      </trkpt>
      <trkpt lat="42.6912100" lon="-0.0408570">
        <ele>2893.8</ele>
        <time>2022-07-24T05:47:47Z</time>
      </trkpt>
      <trkpt lat="42.6911790" lon="-0.0408180">
        <ele>2892.8</ele>
        <time>2022-07-24T05:47:50Z</time>
      </trkpt>
      <trkpt lat="42.6911610" lon="-0.0407970">
        <ele>2892.0</ele>
        <time>2022-07-24T05:47:52Z</time>
      </trkpt>
      <trkpt lat="42.6911500" lon="-0.0407660">
        <ele>2891.2</ele>
        <time>2022-07-24T05:47:54Z</time>
      </trkpt>
      <trkpt lat="42.6911310" lon="-0.0407130">
        <ele>2890.2</ele>
        <time>2022-07-24T05:47:57Z</time>
      </trkpt>
      <trkpt lat="42.6910610" lon="-0.0405770">
        <ele>2886.4</ele>
        <time>2022-07-24T05:48:05Z</time>
      </trkpt>
      <trkpt lat="42.6910570" lon="-0.0405670">
        <ele>2886.2</ele>
        <time>2022-07-24T05:48:06Z</time>
      </trkpt>
      <trkpt lat="42.6910330" lon="-0.0405280">
        <ele>2884.6</ele>
        <time>2022-07-24T05:48:09Z</time>
      </trkpt>
      <trkpt lat="42.6910200" lon="-0.0404910">
        <ele>2884.4</ele>
        <time>2022-07-24T05:48:10Z</time>
      </trkpt>
      <trkpt lat="42.6910200" lon="-0.0404910">
        <ele>2884.0</ele>
        <time>2022-07-24T05:48:11Z</time>
      </trkpt>
      <trkpt lat="42.6909970" lon="-0.0404650">
        <ele>2883.8</ele>
        <time>2022-07-24T05:48:14Z</time>
      </trkpt>
      <trkpt lat="42.6909760" lon="-0.0403890">
        <ele>2882.8</ele>
        <time>2022-07-24T05:48:17Z</time>
      </trkpt>
      <trkpt lat="42.6909690" lon="-0.0403770">
        <ele>2882.2</ele>
        <time>2022-07-24T05:48:19Z</time>
      </trkpt>
      <trkpt lat="42.6909480" lon="-0.0403520">
        <ele>2881.6</ele>
        <time>2022-07-24T05:48:21Z</time>
      </trkpt>
      <trkpt lat="42.6909390" lon="-0.0403460">
        <ele>2881.4</ele>
        <time>2022-07-24T05:48:22Z</time>
      </trkpt>
      <trkpt lat="42.6909280" lon="-0.0403340">
        <ele>2881.2</ele>
        <time>2022-07-24T05:48:23Z</time>
      </trkpt>
      <trkpt lat="42.6909250" lon="-0.0403330">
        <ele>2880.8</ele>
        <time>2022-07-24T05:48:24Z</time>
      </trkpt>
      <trkpt lat="42.6909210" lon="-0.0403220">
        <ele>2880.4</ele>
        <time>2022-07-24T05:48:25Z</time>
      </trkpt>
      <trkpt lat="42.6908750" lon="-0.0402530">
        <ele>2878.0</ele>
        <time>2022-07-24T05:48:32Z</time>
      </trkpt>
      <trkpt lat="42.6908610" lon="-0.0402170">
        <ele>2877.4</ele>
        <time>2022-07-24T05:48:34Z</time>
      </trkpt>
      <trkpt lat="42.6908440" lon="-0.0401660">
        <ele>2876.8</ele>
        <time>2022-07-24T05:48:38Z</time>
      </trkpt>
      <trkpt lat="42.6908440" lon="-0.0401460">
        <ele>2876.6</ele>
        <time>2022-07-24T05:48:39Z</time>
      </trkpt>
      <trkpt lat="42.6908380" lon="-0.0400650">
        <ele>2875.8</ele>
        <time>2022-07-24T05:48:44Z</time>
      </trkpt>
      <trkpt lat="42.6908330" lon="-0.0400630">
        <ele>2875.6</ele>
        <time>2022-07-24T05:48:45Z</time>
      </trkpt>
      <trkpt lat="42.6908340" lon="-0.0400280">
        <ele>2875.0</ele>
        <time>2022-07-24T05:48:47Z</time>
      </trkpt>
      <trkpt lat="42.6908260" lon="-0.0399590">
        <ele>2874.4</ele>
        <time>2022-07-24T05:48:51Z</time>
      </trkpt>
      <trkpt lat="42.6908150" lon="-0.0399380">
        <ele>2874.4</ele>
        <time>2022-07-24T05:48:52Z</time>
      </trkpt>
      <trkpt lat="42.6907990" lon="-0.0399050">
        <ele>2872.8</ele>
        <time>2022-07-24T05:48:56Z</time>
      </trkpt>
      <trkpt lat="42.6908020" lon="-0.0398670">
        <ele>2872.6</ele>
        <time>2022-07-24T05:48:57Z</time>
      </trkpt>
      <trkpt lat="42.6908020" lon="-0.0398670">
        <ele>2872.4</ele>
        <time>2022-07-24T05:48:58Z</time>
      </trkpt>
      <trkpt lat="42.6907850" lon="-0.0398390">
        <ele>2871.2</ele>
        <time>2022-07-24T05:49:01Z</time>
      </trkpt>
      <trkpt lat="42.6907780" lon="-0.0398280">
        <ele>2871.0</ele>
        <time>2022-07-24T05:49:02Z</time>
      </trkpt>
      <trkpt lat="42.6907610" lon="-0.0397910">
        <ele>2870.6</ele>
        <time>2022-07-24T05:49:05Z</time>
      </trkpt>
      <trkpt lat="42.6907440" lon="-0.0397540">
        <ele>2869.2</ele>
        <time>2022-07-24T05:49:08Z</time>
      </trkpt>
      <trkpt lat="42.6907380" lon="-0.0397380">
        <ele>2868.8</ele>
        <time>2022-07-24T05:49:09Z</time>
      </trkpt>
      <trkpt lat="42.6907090" lon="-0.0397080">
        <ele>2867.2</ele>
        <time>2022-07-24T05:49:13Z</time>
      </trkpt>
      <trkpt lat="42.6906950" lon="-0.0396760">
        <ele>2865.8</ele>
        <time>2022-07-24T05:49:16Z</time>
      </trkpt>
      <trkpt lat="42.6906930" lon="-0.0396640">
        <ele>2865.6</ele>
        <time>2022-07-24T05:49:17Z</time>
      </trkpt>
      <trkpt lat="42.6906610" lon="-0.0396310">
        <ele>2864.0</ele>
        <time>2022-07-24T05:49:21Z</time>
      </trkpt>
      <trkpt lat="42.6906430" lon="-0.0396370">
        <ele>2862.8</ele>
        <time>2022-07-24T05:49:24Z</time>
      </trkpt>
      <trkpt lat="42.6906330" lon="-0.0396180">
        <ele>2861.4</ele>
        <time>2022-07-24T05:49:27Z</time>
      </trkpt>
      <trkpt lat="42.6906280" lon="-0.0396210">
        <ele>2861.2</ele>
        <time>2022-07-24T05:49:28Z</time>
      </trkpt>
      <trkpt lat="42.6906230" lon="-0.0395900">
        <ele>2860.0</ele>
        <time>2022-07-24T05:49:31Z</time>
      </trkpt>
      <trkpt lat="42.6906160" lon="-0.0395770">
        <ele>2858.8</ele>
        <time>2022-07-24T05:49:33Z</time>
      </trkpt>
      <trkpt lat="42.6906170" lon="-0.0395590">
        <ele>2858.0</ele>
        <time>2022-07-24T05:49:35Z</time>
      </trkpt>
      <trkpt lat="42.6906340" lon="-0.0395040">
        <ele>2856.8</ele>
        <time>2022-07-24T05:49:39Z</time>
      </trkpt>
      <trkpt lat="42.6906400" lon="-0.0394730">
        <ele>2856.4</ele>
        <time>2022-07-24T05:49:40Z</time>
      </trkpt>
      <trkpt lat="42.6906630" lon="-0.0394220">
        <ele>2855.2</ele>
        <time>2022-07-24T05:49:43Z</time>
      </trkpt>
      <trkpt lat="42.6906720" lon="-0.0393740">
        <ele>2853.8</ele>
        <time>2022-07-24T05:49:46Z</time>
      </trkpt>
      <trkpt lat="42.6906720" lon="-0.0393740">
        <ele>2853.6</ele>
        <time>2022-07-24T05:49:47Z</time>
      </trkpt>
      <trkpt lat="42.6906790" lon="-0.0392980">
        <ele>2851.8</ele>
        <time>2022-07-24T05:49:50Z</time>
      </trkpt>
      <trkpt lat="42.6906930" lon="-0.0391700">
        <ele>2849.4</ele>
        <time>2022-07-24T05:49:56Z</time>
      </trkpt>
      <trkpt lat="42.6906970" lon="-0.0391440">
        <ele>2848.0</ele>
        <time>2022-07-24T05:50:00Z</time>
      </trkpt>
      <trkpt lat="42.6907000" lon="-0.0391190">
        <ele>2847.6</ele>
        <time>2022-07-24T05:50:02Z</time>
      </trkpt>
      <trkpt lat="42.6907040" lon="-0.0390930">
        <ele>2847.0</ele>
        <time>2022-07-24T05:50:05Z</time>
      </trkpt>
      <trkpt lat="42.6907070" lon="-0.0390670">
        <ele>2845.0</ele>
        <time>2022-07-24T05:50:13Z</time>
      </trkpt>
      <trkpt lat="42.6907110" lon="-0.0390420">
        <ele>2844.4</ele>
        <time>2022-07-24T05:50:15Z</time>
      </trkpt>
      <trkpt lat="42.6907140" lon="-0.0390160">
        <ele>2843.0</ele>
        <time>2022-07-24T05:50:21Z</time>
      </trkpt>
      <trkpt lat="42.6907180" lon="-0.0389900">
        <ele>2842.2</ele>
        <time>2022-07-24T05:50:25Z</time>
      </trkpt>
      <trkpt lat="42.6907210" lon="-0.0389650">
        <ele>2840.4</ele>
        <time>2022-07-24T05:50:33Z</time>
      </trkpt>
      <trkpt lat="42.6907250" lon="-0.0389390">
        <ele>2838.8</ele>
        <time>2022-07-24T05:50:37Z</time>
      </trkpt>
      <trkpt lat="42.6907280" lon="-0.0389130">
        <ele>2838.4</ele>
        <time>2022-07-24T05:50:40Z</time>
      </trkpt>
      <trkpt lat="42.6907320" lon="-0.0388880">
        <ele>2836.8</ele>
        <time>2022-07-24T05:51:00Z</time>
      </trkpt>
      <trkpt lat="42.6907360" lon="-0.0388620">
        <ele>2837.4</ele>
        <time>2022-07-24T05:51:06Z</time>
      </trkpt>
      <trkpt lat="42.6907390" lon="-0.0388360">
        <ele>2838.2</ele>
        <time>2022-07-24T05:51:14Z</time>
      </trkpt>
      <trkpt lat="42.6907430" lon="-0.0388110">
        <ele>2838.6</ele>
        <time>2022-07-24T05:51:15Z</time>
      </trkpt>
      <trkpt lat="42.6907460" lon="-0.0387850">
        <ele>2838.6</ele>
        <time>2022-07-24T05:51:18Z</time>
      </trkpt>
      <trkpt lat="42.6907500" lon="-0.0387590">
        <ele>2838.8</ele>
        <time>2022-07-24T05:51:19Z</time>
      </trkpt>
      <trkpt lat="42.6907530" lon="-0.0387340">
        <ele>2839.2</ele>
        <time>2022-07-24T05:51:23Z</time>
      </trkpt>
      <trkpt lat="42.6907570" lon="-0.0387080">
        <ele>2839.4</ele>
        <time>2022-07-24T05:51:24Z</time>
      </trkpt>
      <trkpt lat="42.6907600" lon="-0.0386820">
        <ele>2839.2</ele>
        <time>2022-07-24T05:51:25Z</time>
      </trkpt>
      <trkpt lat="42.6907640" lon="-0.0386570">
        <ele>2839.4</ele>
        <time>2022-07-24T05:51:28Z</time>
      </trkpt>
      <trkpt lat="42.6907670" lon="-0.0386310">
        <ele>2839.4</ele>
        <time>2022-07-24T05:51:29Z</time>
      </trkpt>
      <trkpt lat="42.6907710" lon="-0.0386050">
        <ele>2839.2</ele>
        <time>2022-07-24T05:51:31Z</time>
      </trkpt>
      <trkpt lat="42.6907740" lon="-0.0385800">
        <ele>2839.2</ele>
        <time>2022-07-24T05:51:32Z</time>
      </trkpt>
      <trkpt lat="42.6907780" lon="-0.0385540">
        <ele>2838.4</ele>
        <time>2022-07-24T05:51:40Z</time>
      </trkpt>
      <trkpt lat="42.6907820" lon="-0.0385280">
        <ele>2837.6</ele>
        <time>2022-07-24T05:51:48Z</time>
      </trkpt>
      <trkpt lat="42.6907850" lon="-0.0385030">
        <ele>2837.4</ele>
        <time>2022-07-24T05:51:49Z</time>
      </trkpt>
      <trkpt lat="42.6907890" lon="-0.0384770">
        <ele>2837.2</ele>
        <time>2022-07-24T05:51:50Z</time>
      </trkpt>
      <trkpt lat="42.6907920" lon="-0.0384510">
        <ele>2837.4</ele>
        <time>2022-07-24T05:51:52Z</time>
      </trkpt>
      <trkpt lat="42.6907960" lon="-0.0384260">
        <ele>2837.0</ele>
        <time>2022-07-24T05:51:55Z</time>
      </trkpt>
      <trkpt lat="42.6907990" lon="-0.0384000">
        <ele>2837.0</ele>
        <time>2022-07-24T05:51:57Z</time>
      </trkpt>
      <trkpt lat="42.6908030" lon="-0.0383740">
        <ele>2836.6</ele>
        <time>2022-07-24T05:52:01Z</time>
      </trkpt>
      <trkpt lat="42.6908060" lon="-0.0383490">
        <ele>2836.8</ele>
        <time>2022-07-24T05:52:02Z</time>
      </trkpt>
      <trkpt lat="42.6908100" lon="-0.0383230">
        <ele>2836.6</ele>
        <time>2022-07-24T05:52:11Z</time>
      </trkpt>
      <trkpt lat="42.6908130" lon="-0.0382970">
        <ele>2835.4</ele>
        <time>2022-07-24T05:52:21Z</time>
      </trkpt>
      <trkpt lat="42.6908170" lon="-0.0382720">
        <ele>2834.0</ele>
        <time>2022-07-24T05:52:43Z</time>
      </trkpt>
      <trkpt lat="42.6908200" lon="-0.0382460">
        <ele>2833.4</ele>
        <time>2022-07-24T05:52:54Z</time>
      </trkpt>
      <trkpt lat="42.6908240" lon="-0.0382200">
        <ele>2833.4</ele>
        <time>2022-07-24T05:52:55Z</time>
      </trkpt>
      <trkpt lat="42.6908270" lon="-0.0381950">
        <ele>2832.4</ele>
        <time>2022-07-24T05:53:00Z</time>
      </trkpt>
      <trkpt lat="42.6908310" lon="-0.0381690">
        <ele>2832.2</ele>
        <time>2022-07-24T05:53:05Z</time>
      </trkpt>
      <trkpt lat="42.6908350" lon="-0.0381430">
        <ele>2832.0</ele>
        <time>2022-07-24T05:53:07Z</time>
      </trkpt>
      <trkpt lat="42.6908380" lon="-0.0381180">
        <ele>2832.2</ele>
        <time>2022-07-24T05:53:08Z</time>
      </trkpt>
      <trkpt lat="42.6908420" lon="-0.0380920">
        <ele>2831.4</ele>
        <time>2022-07-24T05:53:11Z</time>
      </trkpt>
      <trkpt lat="42.6908450" lon="-0.0380660">
        <ele>2831.4</ele>
        <time>2022-07-24T05:53:12Z</time>
      </trkpt>
      <trkpt lat="42.6908490" lon="-0.0380410">
        <ele>2831.4</ele>
        <time>2022-07-24T05:53:14Z</time>
      </trkpt>
      <trkpt lat="42.6908520" lon="-0.0380150">
        <ele>2831.2</ele>
        <time>2022-07-24T05:53:16Z</time>
      </trkpt>
      <trkpt lat="42.6908560" lon="-0.0379890">
        <ele>2830.8</ele>
        <time>2022-07-24T05:53:18Z</time>
      </trkpt>
      <trkpt lat="42.6908590" lon="-0.0379640">
        <ele>2830.6</ele>
        <time>2022-07-24T05:53:19Z</time>
      </trkpt>
      <trkpt lat="42.6908630" lon="-0.0379380">
        <ele>2830.4</ele>
        <time>2022-07-24T05:53:22Z</time>
      </trkpt>
      <trkpt lat="42.6908660" lon="-0.0379120">
        <ele>2830.2</ele>
        <time>2022-07-24T05:53:23Z</time>
      </trkpt>
      <trkpt lat="42.6908700" lon="-0.0378870">
        <ele>2829.6</ele>
        <time>2022-07-24T05:53:26Z</time>
      </trkpt>
      <trkpt lat="42.6908730" lon="-0.0378610">
        <ele>2829.6</ele>
        <time>2022-07-24T05:53:27Z</time>
      </trkpt>
      <trkpt lat="42.6908770" lon="-0.0378350">
        <ele>2829.2</ele>
        <time>2022-07-24T05:53:29Z</time>
      </trkpt>
      <trkpt lat="42.6909710" lon="-0.0371550">
        <ele>2829.2</ele>
        <time>2022-07-24T05:53:30Z</time>
      </trkpt>
      <trkpt lat="42.6909700" lon="-0.0371400">
        <ele>2828.8</ele>
        <time>2022-07-24T05:53:32Z</time>
      </trkpt>
      <trkpt lat="42.6909710" lon="-0.0370990">
        <ele>2828.2</ele>
        <time>2022-07-24T05:53:35Z</time>
      </trkpt>
      <trkpt lat="42.6909720" lon="-0.0370860">
        <ele>2828.2</ele>
        <time>2022-07-24T05:53:36Z</time>
      </trkpt>
      <trkpt lat="42.6909470" lon="-0.0370570">
        <ele>2826.6</ele>
        <time>2022-07-24T05:53:39Z</time>
      </trkpt>
      <trkpt lat="42.6908870" lon="-0.0369920">
        <ele>2825.0</ele>
        <time>2022-07-24T05:53:44Z</time>
      </trkpt>
      <trkpt lat="42.6908740" lon="-0.0369460">
        <ele>2823.8</ele>
        <time>2022-07-24T05:53:47Z</time>
      </trkpt>
      <trkpt lat="42.6909100" lon="-0.0369300">
        <ele>2823.6</ele>
        <time>2022-07-24T05:53:48Z</time>
      </trkpt>
      <trkpt lat="42.6908710" lon="-0.0368680">
        <ele>2822.2</ele>
        <time>2022-07-24T05:53:53Z</time>
      </trkpt>
      <trkpt lat="42.6908740" lon="-0.0368540">
        <ele>2821.8</ele>
        <time>2022-07-24T05:53:54Z</time>
      </trkpt>
      <trkpt lat="42.6909250" lon="-0.0368370">
        <ele>2821.4</ele>
        <time>2022-07-24T05:53:55Z</time>
      </trkpt>
      <trkpt lat="42.6909760" lon="-0.0367940">
        <ele>2820.6</ele>
        <time>2022-07-24T05:53:57Z</time>
      </trkpt>
      <trkpt lat="42.6909770" lon="-0.0367560">
        <ele>2819.4</ele>
        <time>2022-07-24T05:53:59Z</time>
      </trkpt>
      <trkpt lat="42.6909280" lon="-0.0367160">
        <ele>2818.6</ele>
        <time>2022-07-24T05:54:01Z</time>
      </trkpt>
      <trkpt lat="42.6909120" lon="-0.0366340">
        <ele>2817.6</ele>
        <time>2022-07-24T05:54:04Z</time>
      </trkpt>
      <trkpt lat="42.6909330" lon="-0.0366000">
        <ele>2817.0</ele>
        <time>2022-07-24T05:54:09Z</time>
      </trkpt>
      <trkpt lat="42.6909540" lon="-0.0365670">
        <ele>2816.8</ele>
        <time>2022-07-24T05:54:13Z</time>
      </trkpt>
      <trkpt lat="42.6909750" lon="-0.0365330">
        <ele>2816.8</ele>
        <time>2022-07-24T05:54:19Z</time>
      </trkpt>
      <trkpt lat="42.6909960" lon="-0.0365000">
        <ele>2817.0</ele>
        <time>2022-07-24T05:54:23Z</time>
      </trkpt>
      <trkpt lat="42.6910170" lon="-0.0364660">
        <ele>2817.0</ele>
        <time>2022-07-24T05:54:24Z</time>
      </trkpt>
      <trkpt lat="42.6910380" lon="-0.0364320">
        <ele>2817.0</ele>
        <time>2022-07-24T05:54:25Z</time>
      </trkpt>
      <trkpt lat="42.6910600" lon="-0.0363990">
        <ele>2818.4</ele>
        <time>2022-07-24T05:54:50Z</time>
      </trkpt>
      <trkpt lat="42.6910810" lon="-0.0363650">
        <ele>2819.2</ele>
        <time>2022-07-24T05:55:05Z</time>
      </trkpt>
      <trkpt lat="42.6911020" lon="-0.0363310">
        <ele>2819.4</ele>
        <time>2022-07-24T05:55:07Z</time>
      </trkpt>
      <trkpt lat="42.6914210" lon="-0.0357980">
        <ele>2819.4</ele>
        <time>2022-07-24T05:55:10Z</time>
      </trkpt>
      <trkpt lat="42.6914230" lon="-0.0357690">
        <ele>2819.8</ele>
        <time>2022-07-24T05:55:13Z</time>
      </trkpt>
      <trkpt lat="42.6914240" lon="-0.0357390">
        <ele>2821.2</ele>
        <time>2022-07-24T05:55:20Z</time>
      </trkpt>
      <trkpt lat="42.6914260" lon="-0.0357100">
        <ele>2821.8</ele>
        <time>2022-07-24T05:55:24Z</time>
      </trkpt>
      <trkpt lat="42.6914280" lon="-0.0356810">
        <ele>2821.8</ele>
        <time>2022-07-24T05:55:25Z</time>
      </trkpt>
      <trkpt lat="42.6914280" lon="-0.0356810">
        <ele>2821.6</ele>
        <time>2022-07-24T05:55:26Z</time>
      </trkpt>
      <trkpt lat="42.6914280" lon="-0.0356810">
        <ele>2821.6</ele>
        <time>2022-07-24T05:55:31Z</time>
      </trkpt>
      <trkpt lat="42.6914280" lon="-0.0356810">
        <ele>2821.0</ele>
        <time>2022-07-24T05:55:37Z</time>
      </trkpt>
      <trkpt lat="42.6914280" lon="-0.0356810">
        <ele>2820.6</ele>
        <time>2022-07-24T05:55:40Z</time>
      </trkpt>
      <trkpt lat="42.6914280" lon="-0.0356810">
        <ele>2820.4</ele>
        <time>2022-07-24T05:55:43Z</time>
      </trkpt>
      <trkpt lat="42.6914280" lon="-0.0356810">
        <ele>2819.2</ele>
        <time>2022-07-24T05:55:48Z</time>
      </trkpt>
      <trkpt lat="42.6914280" lon="-0.0356810">
        <ele>2818.2</ele>
        <time>2022-07-24T05:55:51Z</time>
      </trkpt>
      <trkpt lat="42.6914280" lon="-0.0356810">
        <ele>2817.6</ele>
        <time>2022-07-24T05:55:54Z</time>
      </trkpt>
      <trkpt lat="42.6906810" lon="-0.0349520">
        <ele>2813.8</ele>
        <time>2022-07-24T05:56:04Z</time>
      </trkpt>
      <trkpt lat="42.6906100" lon="-0.0349190">
        <ele>2813.4</ele>
        <time>2022-07-24T05:56:07Z</time>
      </trkpt>
      <trkpt lat="42.6905940" lon="-0.0348800">
        <ele>2813.0</ele>
        <time>2022-07-24T05:56:11Z</time>
      </trkpt>
      <trkpt lat="42.6906200" lon="-0.0348430">
        <ele>2812.8</ele>
        <time>2022-07-24T05:56:13Z</time>
      </trkpt>
      <trkpt lat="42.6906460" lon="-0.0348190">
        <ele>2813.0</ele>
        <time>2022-07-24T05:56:15Z</time>
      </trkpt>
      <trkpt lat="42.6906640" lon="-0.0348040">
        <ele>2812.8</ele>
        <time>2022-07-24T05:56:16Z</time>
      </trkpt>
      <trkpt lat="42.6907960" lon="-0.0347600">
        <ele>2813.2</ele>
        <time>2022-07-24T05:56:19Z</time>
      </trkpt>
      <trkpt lat="42.6909390" lon="-0.0346950">
        <ele>2813.8</ele>
        <time>2022-07-24T05:56:25Z</time>
      </trkpt>
      <trkpt lat="42.6908610" lon="-0.0346250">
        <ele>2814.0</ele>
        <time>2022-07-24T05:56:30Z</time>
      </trkpt>
      <trkpt lat="42.6908780" lon="-0.0346150">
        <ele>2814.4</ele>
        <time>2022-07-24T05:56:32Z</time>
      </trkpt>
      <trkpt lat="42.6909690" lon="-0.0345760">
        <ele>2814.8</ele>
        <time>2022-07-24T05:56:37Z</time>
      </trkpt>
      <trkpt lat="42.6909840" lon="-0.0345530">
        <ele>2815.0</ele>
        <time>2022-07-24T05:56:39Z</time>
      </trkpt>
      <trkpt lat="42.6909690" lon="-0.0345280">
        <ele>2815.2</ele>
        <time>2022-07-24T05:56:41Z</time>
      </trkpt>
      <trkpt lat="42.6910010" lon="-0.0345070">
        <ele>2815.6</ele>
        <time>2022-07-24T05:56:43Z</time>
      </trkpt>
      <trkpt lat="42.6910160" lon="-0.0344930">
        <ele>2815.6</ele>
        <time>2022-07-24T05:56:44Z</time>
      </trkpt>
      <trkpt lat="42.6910950" lon="-0.0344560">
        <ele>2815.8</ele>
        <time>2022-07-24T05:56:47Z</time>
      </trkpt>
      <trkpt lat="42.6911490" lon="-0.0344390">
        <ele>2816.6</ele>
        <time>2022-07-24T05:56:49Z</time>
      </trkpt>
      <trkpt lat="42.6910690" lon="-0.0344020">
        <ele>2817.4</ele>
        <time>2022-07-24T05:56:52Z</time>
      </trkpt>
      <trkpt lat="42.6910850" lon="-0.0343950">
        <ele>2817.8</ele>
        <time>2022-07-24T05:56:54Z</time>
      </trkpt>
      <trkpt lat="42.6911030" lon="-0.0343830">
        <ele>2818.0</ele>
        <time>2022-07-24T05:56:57Z</time>
      </trkpt>
      <trkpt lat="42.6911080" lon="-0.0343780">
        <ele>2818.0</ele>
        <time>2022-07-24T05:56:58Z</time>
      </trkpt>
      <trkpt lat="42.6911440" lon="-0.0343710">
        <ele>2818.2</ele>
        <time>2022-07-24T05:57:01Z</time>
      </trkpt>
      <trkpt lat="42.6911500" lon="-0.0343520">
        <ele>2818.2</ele>
        <time>2022-07-24T05:57:03Z</time>
      </trkpt>
      <trkpt lat="42.6911540" lon="-0.0343370">
        <ele>2818.2</ele>
        <time>2022-07-24T05:57:05Z</time>
      </trkpt>
      <trkpt lat="42.6911440" lon="-0.0343150">
        <ele>2818.4</ele>
        <time>2022-07-24T05:57:06Z</time>
      </trkpt>
      <trkpt lat="42.6911330" lon="-0.0342990">
        <ele>2818.2</ele>
        <time>2022-07-24T05:57:07Z</time>
      </trkpt>
      <trkpt lat="42.6911290" lon="-0.0342960">
        <ele>2818.2</ele>
        <time>2022-07-24T05:57:08Z</time>
      </trkpt>
      <trkpt lat="42.6911250" lon="-0.0342890">
        <ele>2818.4</ele>
        <time>2022-07-24T05:57:09Z</time>
      </trkpt>
      <trkpt lat="42.6910740" lon="-0.0342540">
        <ele>2817.0</ele>
        <time>2022-07-24T05:57:17Z</time>
      </trkpt>
      <trkpt lat="42.6910580" lon="-0.0342380">
        <ele>2817.0</ele>
        <time>2022-07-24T05:57:21Z</time>
      </trkpt>
      <trkpt lat="42.6910330" lon="-0.0341870">
        <ele>2817.0</ele>
        <time>2022-07-24T05:57:34Z</time>
      </trkpt>
      <trkpt lat="42.6910340" lon="-0.0341870">
        <ele>2817.0</ele>
        <time>2022-07-24T05:57:35Z</time>
      </trkpt>
      <trkpt lat="42.6910330" lon="-0.0341860">
        <ele>2817.0</ele>
        <time>2022-07-24T05:57:36Z</time>
      </trkpt>
      <trkpt lat="42.6910330" lon="-0.0341870">
        <ele>2817.0</ele>
        <time>2022-07-24T05:57:37Z</time>
      </trkpt>
      <trkpt lat="42.6910280" lon="-0.0341910">
        <ele>2816.8</ele>
        <time>2022-07-24T05:57:42Z</time>
      </trkpt>
      <trkpt lat="42.6910190" lon="-0.0341880">
        <ele>2816.2</ele>
        <time>2022-07-24T05:57:52Z</time>
      </trkpt>
      <trkpt lat="42.6910210" lon="-0.0341780">
        <ele>2816.0</ele>
        <time>2022-07-24T05:58:13Z</time>
      </trkpt>
      <trkpt lat="42.6910220" lon="-0.0341760">
        <ele>2816.0</ele>
        <time>2022-07-24T05:58:15Z</time>
      </trkpt>
      <trkpt lat="42.6910220" lon="-0.0341750">
        <ele>2816.0</ele>
        <time>2022-07-24T05:58:16Z</time>
      </trkpt>
      <trkpt lat="42.6910220" lon="-0.0341750">
        <ele>2816.2</ele>
        <time>2022-07-24T05:58:18Z</time>
      </trkpt>
      <trkpt lat="42.6910210" lon="-0.0341750">
        <ele>2816.2</ele>
        <time>2022-07-24T05:58:20Z</time>
      </trkpt>
      <trkpt lat="42.6910210" lon="-0.0341750">
        <ele>2816.0</ele>
        <time>2022-07-24T05:58:21Z</time>
      </trkpt>
      <trkpt lat="42.6910210" lon="-0.0341750">
        <ele>2816.0</ele>
        <time>2022-07-24T05:58:22Z</time>
      </trkpt>
      <trkpt lat="42.6910210" lon="-0.0341710">
        <ele>2816.8</ele>
        <time>2022-07-24T05:58:40Z</time>
      </trkpt>
      <trkpt lat="42.6910120" lon="-0.0341700">
        <ele>2816.6</ele>
        <time>2022-07-24T05:59:07Z</time>
      </trkpt>
      <trkpt lat="42.6910120" lon="-0.0341700">
        <ele>2816.2</ele>
        <time>2022-07-24T05:59:14Z</time>
      </trkpt>
      <trkpt lat="42.6910120" lon="-0.0341690">
        <ele>2816.2</ele>
        <time>2022-07-24T05:59:15Z</time>
      </trkpt>
      <trkpt lat="42.6910110" lon="-0.0341690">
        <ele>2816.2</ele>
        <time>2022-07-24T05:59:16Z</time>
      </trkpt>
      <trkpt lat="42.6910110" lon="-0.0341690">
        <ele>2816.0</ele>
        <time>2022-07-24T05:59:17Z</time>
      </trkpt>
      <trkpt lat="42.6910100" lon="-0.0341690">
        <ele>2816.0</ele>
        <time>2022-07-24T05:59:20Z</time>
      </trkpt>
      <trkpt lat="42.6910130" lon="-0.0341690">
        <ele>2816.2</ele>
        <time>2022-07-24T05:59:38Z</time>
      </trkpt>
      <trkpt lat="42.6910150" lon="-0.0341650">
        <ele>2816.2</ele>
        <time>2022-07-24T06:00:20Z</time>
      </trkpt>
      <trkpt lat="42.6910080" lon="-0.0341650">
        <ele>2816.2</ele>
        <time>2022-07-24T06:00:47Z</time>
      </trkpt>
      <trkpt lat="42.6910080" lon="-0.0341620">
        <ele>2815.6</ele>
        <time>2022-07-24T06:01:26Z</time>
      </trkpt>
      <trkpt lat="42.6910120" lon="-0.0341610">
        <ele>2816.0</ele>
        <time>2022-07-24T06:01:42Z</time>
      </trkpt>
      <trkpt lat="42.6910220" lon="-0.0341660">
        <ele>2815.8</ele>
        <time>2022-07-24T06:01:57Z</time>
      </trkpt>
      <trkpt lat="42.6910220" lon="-0.0341720">
        <ele>2816.2</ele>
        <time>2022-07-24T06:02:14Z</time>
      </trkpt>
      <trkpt lat="42.6910240" lon="-0.0341740">
        <ele>2816.0</ele>
        <time>2022-07-24T06:02:16Z</time>
      </trkpt>
      <trkpt lat="42.6910260" lon="-0.0341760">
        <ele>2815.8</ele>
        <time>2022-07-24T06:02:40Z</time>
      </trkpt>
      <trkpt lat="42.6910150" lon="-0.0341780">
        <ele>2815.4</ele>
        <time>2022-07-24T06:03:06Z</time>
      </trkpt>
      <trkpt lat="42.6910150" lon="-0.0341780">
        <ele>2815.4</ele>
        <time>2022-07-24T06:03:07Z</time>
      </trkpt>
      <trkpt lat="42.6910150" lon="-0.0341780">
        <ele>2815.4</ele>
        <time>2022-07-24T06:03:08Z</time>
      </trkpt>
      <trkpt lat="42.6910150" lon="-0.0341780">
        <ele>2815.4</ele>
        <time>2022-07-24T06:03:10Z</time>
      </trkpt>
      <trkpt lat="42.6910150" lon="-0.0341770">
        <ele>2815.4</ele>
        <time>2022-07-24T06:03:11Z</time>
      </trkpt>
      <trkpt lat="42.6910150" lon="-0.0341770">
        <ele>2815.4</ele>
        <time>2022-07-24T06:03:13Z</time>
      </trkpt>
      <trkpt lat="42.6910150" lon="-0.0341770">
        <ele>2815.4</ele>
        <time>2022-07-24T06:03:16Z</time>
      </trkpt>
      <trkpt lat="42.6910150" lon="-0.0341770">
        <ele>2815.4</ele>
        <time>2022-07-24T06:03:17Z</time>
      </trkpt>
      <trkpt lat="42.6910150" lon="-0.0341770">
        <ele>2815.4</ele>
        <time>2022-07-24T06:03:18Z</time>
      </trkpt>
      <trkpt lat="42.6910150" lon="-0.0341770">
        <ele>2815.2</ele>
        <time>2022-07-24T06:03:20Z</time>
      </trkpt>
      <trkpt lat="42.6910150" lon="-0.0341770">
        <ele>2815.4</ele>
        <time>2022-07-24T06:03:22Z</time>
      </trkpt>
      <trkpt lat="42.6910150" lon="-0.0341770">
        <ele>2815.4</ele>
        <time>2022-07-24T06:03:23Z</time>
      </trkpt>
      <trkpt lat="42.6910150" lon="-0.0341770">
        <ele>2815.4</ele>
        <time>2022-07-24T06:03:24Z</time>
      </trkpt>
      <trkpt lat="42.6910150" lon="-0.0341770">
        <ele>2815.4</ele>
        <time>2022-07-24T06:03:26Z</time>
      </trkpt>
      <trkpt lat="42.6910160" lon="-0.0341760">
        <ele>2815.4</ele>
        <time>2022-07-24T06:03:27Z</time>
      </trkpt>
      <trkpt lat="42.6910160" lon="-0.0341760">
        <ele>2815.4</ele>
        <time>2022-07-24T06:03:28Z</time>
      </trkpt>
      <trkpt lat="42.6910160" lon="-0.0341760">
        <ele>2815.4</ele>
        <time>2022-07-24T06:03:29Z</time>
      </trkpt>
      <trkpt lat="42.6910160" lon="-0.0341760">
        <ele>2815.6</ele>
        <time>2022-07-24T06:03:30Z</time>
      </trkpt>
      <trkpt lat="42.6910160" lon="-0.0341760">
        <ele>2815.6</ele>
        <time>2022-07-24T06:03:31Z</time>
      </trkpt>
      <trkpt lat="42.6910160" lon="-0.0341760">
        <ele>2815.4</ele>
        <time>2022-07-24T06:03:32Z</time>
      </trkpt>
      <trkpt lat="42.6910160" lon="-0.0341760">
        <ele>2815.4</ele>
        <time>2022-07-24T06:03:33Z</time>
      </trkpt>
      <trkpt lat="42.6910170" lon="-0.0341760">
        <ele>2815.4</ele>
        <time>2022-07-24T06:03:36Z</time>
      </trkpt>
      <trkpt lat="42.6910180" lon="-0.0341760">
        <ele>2815.4</ele>
        <time>2022-07-24T06:03:37Z</time>
      </trkpt>
      <trkpt lat="42.6910180" lon="-0.0341750">
        <ele>2815.2</ele>
        <time>2022-07-24T06:03:38Z</time>
      </trkpt>
      <trkpt lat="42.6910190" lon="-0.0341740">
        <ele>2816.0</ele>
        <time>2022-07-24T06:03:47Z</time>
      </trkpt>
      <trkpt lat="42.6910200" lon="-0.0341720">
        <ele>2815.8</ele>
        <time>2022-07-24T06:03:53Z</time>
      </trkpt>
      <trkpt lat="42.6910200" lon="-0.0341720">
        <ele>2815.8</ele>
        <time>2022-07-24T06:03:54Z</time>
      </trkpt>
      <trkpt lat="42.6910200" lon="-0.0341710">
        <ele>2815.8</ele>
        <time>2022-07-24T06:03:55Z</time>
      </trkpt>
      <trkpt lat="42.6910200" lon="-0.0341710">
        <ele>2816.0</ele>
        <time>2022-07-24T06:03:57Z</time>
      </trkpt>
      <trkpt lat="42.6910200" lon="-0.0341690">
        <ele>2816.0</ele>
        <time>2022-07-24T06:04:22Z</time>
      </trkpt>
      <trkpt lat="42.6910200" lon="-0.0341790">
        <ele>2816.0</ele>
        <time>2022-07-24T06:04:55Z</time>
      </trkpt>
      <trkpt lat="42.6910200" lon="-0.0341830">
        <ele>2815.8</ele>
        <time>2022-07-24T06:05:06Z</time>
      </trkpt>
      <trkpt lat="42.6910210" lon="-0.0341830">
        <ele>2815.8</ele>
        <time>2022-07-24T06:05:08Z</time>
      </trkpt>
      <trkpt lat="42.6910210" lon="-0.0341830">
        <ele>2815.6</ele>
        <time>2022-07-24T06:05:10Z</time>
      </trkpt>
      <trkpt lat="42.6910210" lon="-0.0341830">
        <ele>2815.8</ele>
        <time>2022-07-24T06:05:12Z</time>
      </trkpt>
      <trkpt lat="42.6910240" lon="-0.0341820">
        <ele>2815.8</ele>
        <time>2022-07-24T06:05:14Z</time>
      </trkpt>
      <trkpt lat="42.6910270" lon="-0.0341820">
        <ele>2815.8</ele>
        <time>2022-07-24T06:05:15Z</time>
      </trkpt>
      <trkpt lat="42.6910290" lon="-0.0341820">
        <ele>2815.8</ele>
        <time>2022-07-24T06:05:17Z</time>
      </trkpt>
      <trkpt lat="42.6910300" lon="-0.0341830">
        <ele>2815.6</ele>
        <time>2022-07-24T06:05:23Z</time>
      </trkpt>
      <trkpt lat="42.6910320" lon="-0.0341820">
        <ele>2815.6</ele>
        <time>2022-07-24T06:05:32Z</time>
      </trkpt>
      <trkpt lat="42.6910380" lon="-0.0341890">
        <ele>2814.8</ele>
        <time>2022-07-24T06:05:52Z</time>
      </trkpt>
      <trkpt lat="42.6910470" lon="-0.0341890">
        <ele>2815.0</ele>
        <time>2022-07-24T06:06:19Z</time>
      </trkpt>
      <trkpt lat="42.6910490" lon="-0.0341870">
        <ele>2815.0</ele>
        <time>2022-07-24T06:06:36Z</time>
      </trkpt>
      <trkpt lat="42.6910820" lon="-0.0342140">
        <ele>2814.8</ele>
        <time>2022-07-24T06:06:45Z</time>
      </trkpt>
      <trkpt lat="42.6911120" lon="-0.0342080">
        <ele>2814.6</ele>
        <time>2022-07-24T06:06:59Z</time>
      </trkpt>
      <trkpt lat="42.6910580" lon="-0.0341310">
        <ele>2814.8</ele>
        <time>2022-07-24T06:07:13Z</time>
      </trkpt>
      <trkpt lat="42.6910540" lon="-0.0341220">
        <ele>2815.2</ele>
        <time>2022-07-24T06:07:29Z</time>
      </trkpt>
      <trkpt lat="42.6910710" lon="-0.0341540">
        <ele>2815.0</ele>
        <time>2022-07-24T06:07:45Z</time>
      </trkpt>
      <trkpt lat="42.6910730" lon="-0.0341580">
        <ele>2814.8</ele>
        <time>2022-07-24T06:07:47Z</time>
      </trkpt>
      <trkpt lat="42.6910830" lon="-0.0342110">
        <ele>2814.6</ele>
        <time>2022-07-24T06:08:05Z</time>
      </trkpt>
      <trkpt lat="42.6910790" lon="-0.0342530">
        <ele>2814.4</ele>
        <time>2022-07-24T06:08:20Z</time>
      </trkpt>
      <trkpt lat="42.6910920" lon="-0.0342640">
        <ele>2814.8</ele>
        <time>2022-07-24T06:08:39Z</time>
      </trkpt>
      <trkpt lat="42.6910990" lon="-0.0342760">
        <ele>2814.6</ele>
        <time>2022-07-24T06:08:59Z</time>
      </trkpt>
      <trkpt lat="42.6910860" lon="-0.0342620">
        <ele>2814.8</ele>
        <time>2022-07-24T06:09:10Z</time>
      </trkpt>
      <trkpt lat="42.6910830" lon="-0.0342630">
        <ele>2814.8</ele>
        <time>2022-07-24T06:09:15Z</time>
      </trkpt>
      <trkpt lat="42.6910870" lon="-0.0342600">
        <ele>2814.8</ele>
        <time>2022-07-24T06:09:31Z</time>
      </trkpt>
      <trkpt lat="42.6910870" lon="-0.0342600">
        <ele>2814.8</ele>
        <time>2022-07-24T06:09:32Z</time>
      </trkpt>
      <trkpt lat="42.6910870" lon="-0.0342610">
        <ele>2814.8</ele>
        <time>2022-07-24T06:09:33Z</time>
      </trkpt>
      <trkpt lat="42.6910870" lon="-0.0342620">
        <ele>2814.8</ele>
        <time>2022-07-24T06:09:34Z</time>
      </trkpt>
      <trkpt lat="42.6910870" lon="-0.0342630">
        <ele>2814.8</ele>
        <time>2022-07-24T06:09:35Z</time>
      </trkpt>
      <trkpt lat="42.6910870" lon="-0.0342640">
        <ele>2815.0</ele>
        <time>2022-07-24T06:09:36Z</time>
      </trkpt>
      <trkpt lat="42.6910870" lon="-0.0342660">
        <ele>2814.8</ele>
        <time>2022-07-24T06:09:37Z</time>
      </trkpt>
      <trkpt lat="42.6910870" lon="-0.0342670">
        <ele>2814.8</ele>
        <time>2022-07-24T06:09:38Z</time>
      </trkpt>
      <trkpt lat="42.6910870" lon="-0.0342670">
        <ele>2814.8</ele>
        <time>2022-07-24T06:09:39Z</time>
      </trkpt>
      <trkpt lat="42.6910860" lon="-0.0342680">
        <ele>2815.0</ele>
        <time>2022-07-24T06:09:41Z</time>
      </trkpt>
      <trkpt lat="42.6910860" lon="-0.0342690">
        <ele>2814.8</ele>
        <time>2022-07-24T06:09:43Z</time>
      </trkpt>
      <trkpt lat="42.6910870" lon="-0.0342690">
        <ele>2814.6</ele>
        <time>2022-07-24T06:09:44Z</time>
      </trkpt>
      <trkpt lat="42.6910870" lon="-0.0342690">
        <ele>2815.0</ele>
        <time>2022-07-24T06:09:45Z</time>
      </trkpt>
      <trkpt lat="42.6910870" lon="-0.0342690">
        <ele>2815.0</ele>
        <time>2022-07-24T06:09:46Z</time>
      </trkpt>
      <trkpt lat="42.6910870" lon="-0.0342700">
        <ele>2815.4</ele>
        <time>2022-07-24T06:09:47Z</time>
      </trkpt>
      <trkpt lat="42.6910860" lon="-0.0342700">
        <ele>2815.4</ele>
        <time>2022-07-24T06:09:48Z</time>
      </trkpt>
      <trkpt lat="42.6910860" lon="-0.0342700">
        <ele>2815.6</ele>
        <time>2022-07-24T06:09:49Z</time>
      </trkpt>
      <trkpt lat="42.6910860" lon="-0.0342710">
        <ele>2815.8</ele>
        <time>2022-07-24T06:09:52Z</time>
      </trkpt>
      <trkpt lat="42.6910860" lon="-0.0342700">
        <ele>2816.0</ele>
        <time>2022-07-24T06:09:53Z</time>
      </trkpt>
      <trkpt lat="42.6910860" lon="-0.0342710">
        <ele>2815.8</ele>
        <time>2022-07-24T06:09:54Z</time>
      </trkpt>
      <trkpt lat="42.6910860" lon="-0.0342710">
        <ele>2816.0</ele>
        <time>2022-07-24T06:09:56Z</time>
      </trkpt>
      <trkpt lat="42.6910860" lon="-0.0342700">
        <ele>2815.8</ele>
        <time>2022-07-24T06:09:58Z</time>
      </trkpt>
      <trkpt lat="42.6910860" lon="-0.0342650">
        <ele>2816.0</ele>
        <time>2022-07-24T06:09:59Z</time>
      </trkpt>
      <trkpt lat="42.6910850" lon="-0.0342610">
        <ele>2816.0</ele>
        <time>2022-07-24T06:10:00Z</time>
      </trkpt>
      <trkpt lat="42.6910840" lon="-0.0342540">
        <ele>2816.0</ele>
        <time>2022-07-24T06:10:01Z</time>
      </trkpt>
      <trkpt lat="42.6910840" lon="-0.0342450">
        <ele>2816.0</ele>
        <time>2022-07-24T06:10:02Z</time>
      </trkpt>
      <trkpt lat="42.6910850" lon="-0.0342370">
        <ele>2816.2</ele>
        <time>2022-07-24T06:10:03Z</time>
      </trkpt>
      <trkpt lat="42.6910880" lon="-0.0342310">
        <ele>2816.2</ele>
        <time>2022-07-24T06:10:04Z</time>
      </trkpt>
      <trkpt lat="42.6910910" lon="-0.0342250">
        <ele>2817.0</ele>
        <time>2022-07-24T06:10:05Z</time>
      </trkpt>
      <trkpt lat="42.6910930" lon="-0.0342170">
        <ele>2817.2</ele>
        <time>2022-07-24T06:10:06Z</time>
      </trkpt>
      <trkpt lat="42.6911000" lon="-0.0342040">
        <ele>2816.2</ele>
        <time>2022-07-24T06:10:09Z</time>
      </trkpt>
      <trkpt lat="42.6911040" lon="-0.0341710">
        <ele>2814.8</ele>
        <time>2022-07-24T06:10:13Z</time>
      </trkpt>
      <trkpt lat="42.6911050" lon="-0.0341600">
        <ele>2814.4</ele>
        <time>2022-07-24T06:10:14Z</time>
      </trkpt>
      <trkpt lat="42.6911060" lon="-0.0341510">
        <ele>2814.0</ele>
        <time>2022-07-24T06:10:15Z</time>
      </trkpt>
      <trkpt lat="42.6911040" lon="-0.0341420">
        <ele>2813.8</ele>
        <time>2022-07-24T06:10:16Z</time>
      </trkpt>
      <trkpt lat="42.6911040" lon="-0.0341340">
        <ele>2813.8</ele>
        <time>2022-07-24T06:10:17Z</time>
      </trkpt>
      <trkpt lat="42.6911050" lon="-0.0341270">
        <ele>2813.4</ele>
        <time>2022-07-24T06:10:18Z</time>
      </trkpt>
      <trkpt lat="42.6911070" lon="-0.0341200">
        <ele>2813.2</ele>
        <time>2022-07-24T06:10:19Z</time>
      </trkpt>
      <trkpt lat="42.6911090" lon="-0.0341140">
        <ele>2813.0</ele>
        <time>2022-07-24T06:10:20Z</time>
      </trkpt>
      <trkpt lat="42.6911140" lon="-0.0341070">
        <ele>2812.8</ele>
        <time>2022-07-24T06:10:21Z</time>
      </trkpt>
      <trkpt lat="42.6911210" lon="-0.0340850">
        <ele>2812.4</ele>
        <time>2022-07-24T06:10:23Z</time>
      </trkpt>
      <trkpt lat="42.6911210" lon="-0.0340690">
        <ele>2812.0</ele>
        <time>2022-07-24T06:10:24Z</time>
      </trkpt>
      <trkpt lat="42.6911210" lon="-0.0340600">
        <ele>2811.6</ele>
        <time>2022-07-24T06:10:25Z</time>
      </trkpt>
      <trkpt lat="42.6911180" lon="-0.0340480">
        <ele>2811.4</ele>
        <time>2022-07-24T06:10:26Z</time>
      </trkpt>
      <trkpt lat="42.6911200" lon="-0.0340310">
        <ele>2811.2</ele>
        <time>2022-07-24T06:10:28Z</time>
      </trkpt>
      <trkpt lat="42.6911210" lon="-0.0340250">
        <ele>2810.8</ele>
        <time>2022-07-24T06:10:29Z</time>
      </trkpt>
      <trkpt lat="42.6911230" lon="-0.0340100">
        <ele>2810.0</ele>
        <time>2022-07-24T06:10:31Z</time>
      </trkpt>
      <trkpt lat="42.6911240" lon="-0.0340070">
        <ele>2809.8</ele>
        <time>2022-07-24T06:10:32Z</time>
      </trkpt>
      <trkpt lat="42.6911240" lon="-0.0340050">
        <ele>2809.6</ele>
        <time>2022-07-24T06:10:33Z</time>
      </trkpt>
      <trkpt lat="42.6911220" lon="-0.0340020">
        <ele>2809.2</ele>
        <time>2022-07-24T06:10:35Z</time>
      </trkpt>
      <trkpt lat="42.6911220" lon="-0.0340040">
        <ele>2809.2</ele>
        <time>2022-07-24T06:10:36Z</time>
      </trkpt>
      <trkpt lat="42.6911230" lon="-0.0340060">
        <ele>2808.8</ele>
        <time>2022-07-24T06:10:37Z</time>
      </trkpt>
      <trkpt lat="42.6911240" lon="-0.0340090">
        <ele>2808.0</ele>
        <time>2022-07-24T06:10:39Z</time>
      </trkpt>
      <trkpt lat="42.6911250" lon="-0.0340090">
        <ele>2808.0</ele>
        <time>2022-07-24T06:10:40Z</time>
      </trkpt>
      <trkpt lat="42.6911270" lon="-0.0340090">
        <ele>2807.2</ele>
        <time>2022-07-24T06:10:41Z</time>
      </trkpt>
      <trkpt lat="42.6911300" lon="-0.0340100">
        <ele>2806.6</ele>
        <time>2022-07-24T06:10:42Z</time>
      </trkpt>
      <trkpt lat="42.6911280" lon="-0.0340080">
        <ele>2806.2</ele>
        <time>2022-07-24T06:10:44Z</time>
      </trkpt>
      <trkpt lat="42.6911230" lon="-0.0339990">
        <ele>2806.2</ele>
        <time>2022-07-24T06:10:45Z</time>
      </trkpt>
      <trkpt lat="42.6911230" lon="-0.0339950">
        <ele>2806.2</ele>
        <time>2022-07-24T06:10:46Z</time>
      </trkpt>
      <trkpt lat="42.6911220" lon="-0.0339890">
        <ele>2805.6</ele>
        <time>2022-07-24T06:10:48Z</time>
      </trkpt>
      <trkpt lat="42.6911190" lon="-0.0339920">
        <ele>2805.0</ele>
        <time>2022-07-24T06:10:50Z</time>
      </trkpt>
      <trkpt lat="42.6911110" lon="-0.0340080">
        <ele>2804.6</ele>
        <time>2022-07-24T06:10:52Z</time>
      </trkpt>
      <trkpt lat="42.6911040" lon="-0.0340320">
        <ele>2804.2</ele>
        <time>2022-07-24T06:10:55Z</time>
      </trkpt>
      <trkpt lat="42.6911230" lon="-0.0340620">
        <ele>2802.8</ele>
        <time>2022-07-24T06:11:00Z</time>
      </trkpt>
      <trkpt lat="42.6911300" lon="-0.0340650">
        <ele>2802.6</ele>
        <time>2022-07-24T06:11:01Z</time>
      </trkpt>
      <trkpt lat="42.6911360" lon="-0.0340600">
        <ele>2802.4</ele>
        <time>2022-07-24T06:11:02Z</time>
      </trkpt>
      <trkpt lat="42.6911380" lon="-0.0340530">
        <ele>2801.8</ele>
        <time>2022-07-24T06:11:03Z</time>
      </trkpt>
      <trkpt lat="42.6911380" lon="-0.0340450">
        <ele>2801.6</ele>
        <time>2022-07-24T06:11:04Z</time>
      </trkpt>
      <trkpt lat="42.6911380" lon="-0.0340360">
        <ele>2801.4</ele>
        <time>2022-07-24T06:11:05Z</time>
      </trkpt>
      <trkpt lat="42.6911410" lon="-0.0340320">
        <ele>2801.0</ele>
        <time>2022-07-24T06:11:07Z</time>
      </trkpt>
      <trkpt lat="42.6911460" lon="-0.0340280">
        <ele>2801.0</ele>
        <time>2022-07-24T06:11:08Z</time>
      </trkpt>
      <trkpt lat="42.6911420" lon="-0.0340250">
        <ele>2801.0</ele>
        <time>2022-07-24T06:11:09Z</time>
      </trkpt>
      <trkpt lat="42.6911340" lon="-0.0340180">
        <ele>2800.8</ele>
        <time>2022-07-24T06:11:11Z</time>
      </trkpt>
      <trkpt lat="42.6911280" lon="-0.0340210">
        <ele>2800.0</ele>
        <time>2022-07-24T06:11:14Z</time>
      </trkpt>
      <trkpt lat="42.6911380" lon="-0.0340170">
        <ele>2799.4</ele>
        <time>2022-07-24T06:11:17Z</time>
      </trkpt>
      <trkpt lat="42.6911420" lon="-0.0340080">
        <ele>2798.4</ele>
        <time>2022-07-24T06:11:22Z</time>
      </trkpt>
      <trkpt lat="42.6911410" lon="-0.0340080">
        <ele>2798.2</ele>
        <time>2022-07-24T06:11:23Z</time>
      </trkpt>
      <trkpt lat="42.6911410" lon="-0.0340080">
        <ele>2798.0</ele>
        <time>2022-07-24T06:11:24Z</time>
      </trkpt>
      <trkpt lat="42.6911390" lon="-0.0340140">
        <ele>2798.0</ele>
        <time>2022-07-24T06:11:25Z</time>
      </trkpt>
      <trkpt lat="42.6911390" lon="-0.0340140">
        <ele>2798.0</ele>
        <time>2022-07-24T06:11:26Z</time>
      </trkpt>
      <trkpt lat="42.6911390" lon="-0.0340160">
        <ele>2798.0</ele>
        <time>2022-07-24T06:11:27Z</time>
      </trkpt>
      <trkpt lat="42.6911380" lon="-0.0340180">
        <ele>2798.2</ele>
        <time>2022-07-24T06:11:28Z</time>
      </trkpt>
      <trkpt lat="42.6911370" lon="-0.0340200">
        <ele>2797.8</ele>
        <time>2022-07-24T06:11:29Z</time>
      </trkpt>
      <trkpt lat="42.6911370" lon="-0.0340220">
        <ele>2797.4</ele>
        <time>2022-07-24T06:11:31Z</time>
      </trkpt>
      <trkpt lat="42.6911360" lon="-0.0340230">
        <ele>2797.4</ele>
        <time>2022-07-24T06:11:33Z</time>
      </trkpt>
      <trkpt lat="42.6911290" lon="-0.0340260">
        <ele>2797.0</ele>
        <time>2022-07-24T06:11:38Z</time>
      </trkpt>
      <trkpt lat="42.6911270" lon="-0.0340250">
        <ele>2796.6</ele>
        <time>2022-07-24T06:11:41Z</time>
      </trkpt>
      <trkpt lat="42.6911300" lon="-0.0340170">
        <ele>2796.6</ele>
        <time>2022-07-24T06:11:44Z</time>
      </trkpt>
      <trkpt lat="42.6911290" lon="-0.0340110">
        <ele>2796.4</ele>
        <time>2022-07-24T06:11:45Z</time>
      </trkpt>
      <trkpt lat="42.6911190" lon="-0.0340020">
        <ele>2796.0</ele>
        <time>2022-07-24T06:11:48Z</time>
      </trkpt>
      <trkpt lat="42.6911650" lon="-0.0340110">
        <ele>2794.8</ele>
        <time>2022-07-24T06:11:54Z</time>
      </trkpt>
      <trkpt lat="42.6911650" lon="-0.0340130">
        <ele>2794.2</ele>
        <time>2022-07-24T06:11:57Z</time>
      </trkpt>
      <trkpt lat="42.6911650" lon="-0.0340130">
        <ele>2794.0</ele>
        <time>2022-07-24T06:11:58Z</time>
      </trkpt>
      <trkpt lat="42.6911650" lon="-0.0340130">
        <ele>2794.0</ele>
        <time>2022-07-24T06:11:59Z</time>
      </trkpt>
      <trkpt lat="42.6911650" lon="-0.0340130">
        <ele>2793.8</ele>
        <time>2022-07-24T06:12:00Z</time>
      </trkpt>
      <trkpt lat="42.6911650" lon="-0.0340130">
        <ele>2793.8</ele>
        <time>2022-07-24T06:12:02Z</time>
      </trkpt>
      <trkpt lat="42.6911650" lon="-0.0340130">
        <ele>2794.0</ele>
        <time>2022-07-24T06:12:04Z</time>
      </trkpt>
      <trkpt lat="42.6911630" lon="-0.0340150">
        <ele>2793.8</ele>
        <time>2022-07-24T06:12:15Z</time>
      </trkpt>
      <trkpt lat="42.6911630" lon="-0.0340150">
        <ele>2793.8</ele>
        <time>2022-07-24T06:12:16Z</time>
      </trkpt>
      <trkpt lat="42.6911550" lon="-0.0340160">
        <ele>2794.4</ele>
        <time>2022-07-24T06:12:30Z</time>
      </trkpt>
      <trkpt lat="42.6911530" lon="-0.0340130">
        <ele>2794.6</ele>
        <time>2022-07-24T06:12:43Z</time>
      </trkpt>
      <trkpt lat="42.6911540" lon="-0.0340230">
        <ele>2794.4</ele>
        <time>2022-07-24T06:12:45Z</time>
      </trkpt>
      <trkpt lat="42.6911560" lon="-0.0340280">
        <ele>2794.4</ele>
        <time>2022-07-24T06:12:46Z</time>
      </trkpt>
      <trkpt lat="42.6911780" lon="-0.0340550">
        <ele>2794.2</ele>
        <time>2022-07-24T06:12:50Z</time>
      </trkpt>
      <trkpt lat="42.6911820" lon="-0.0340590">
        <ele>2794.2</ele>
        <time>2022-07-24T06:12:51Z</time>
      </trkpt>
      <trkpt lat="42.6911880" lon="-0.0340620">
        <ele>2794.4</ele>
        <time>2022-07-24T06:12:52Z</time>
      </trkpt>
      <trkpt lat="42.6912040" lon="-0.0340640">
        <ele>2794.0</ele>
        <time>2022-07-24T06:12:54Z</time>
      </trkpt>
      <trkpt lat="42.6912140" lon="-0.0340700">
        <ele>2793.2</ele>
        <time>2022-07-24T06:12:57Z</time>
      </trkpt>
      <trkpt lat="42.6912200" lon="-0.0340820">
        <ele>2792.8</ele>
        <time>2022-07-24T06:12:58Z</time>
      </trkpt>
      <trkpt lat="42.6912290" lon="-0.0340880">
        <ele>2792.6</ele>
        <time>2022-07-24T06:12:59Z</time>
      </trkpt>
      <trkpt lat="42.6912330" lon="-0.0340920">
        <ele>2792.4</ele>
        <time>2022-07-24T06:13:00Z</time>
      </trkpt>
      <trkpt lat="42.6912390" lon="-0.0341410">
        <ele>2790.6</ele>
        <time>2022-07-24T06:13:08Z</time>
      </trkpt>
      <trkpt lat="42.6912350" lon="-0.0341450">
        <ele>2790.6</ele>
        <time>2022-07-24T06:13:09Z</time>
      </trkpt>
      <trkpt lat="42.6912360" lon="-0.0341450">
        <ele>2790.0</ele>
        <time>2022-07-24T06:13:10Z</time>
      </trkpt>
      <trkpt lat="42.6912360" lon="-0.0341460">
        <ele>2789.4</ele>
        <time>2022-07-24T06:13:12Z</time>
      </trkpt>
      <trkpt lat="42.6912290" lon="-0.0341540">
        <ele>2789.2</ele>
        <time>2022-07-24T06:13:13Z</time>
      </trkpt>
      <trkpt lat="42.6912290" lon="-0.0341550">
        <ele>2789.2</ele>
        <time>2022-07-24T06:13:14Z</time>
      </trkpt>
      <trkpt lat="42.6912230" lon="-0.0341630">
        <ele>2789.0</ele>
        <time>2022-07-24T06:13:15Z</time>
      </trkpt>
      <trkpt lat="42.6912280" lon="-0.0341650">
        <ele>2789.2</ele>
        <time>2022-07-24T06:13:16Z</time>
      </trkpt>
      <trkpt lat="42.6912380" lon="-0.0341810">
        <ele>2788.6</ele>
        <time>2022-07-24T06:13:18Z</time>
      </trkpt>
      <trkpt lat="42.6912550" lon="-0.0342050">
        <ele>2788.0</ele>
        <time>2022-07-24T06:13:20Z</time>
      </trkpt>
      <trkpt lat="42.6912680" lon="-0.0342210">
        <ele>2787.2</ele>
        <time>2022-07-24T06:13:22Z</time>
      </trkpt>
      <trkpt lat="42.6912740" lon="-0.0342220">
        <ele>2787.2</ele>
        <time>2022-07-24T06:13:23Z</time>
      </trkpt>
      <trkpt lat="42.6912790" lon="-0.0342240">
        <ele>2786.8</ele>
        <time>2022-07-24T06:13:24Z</time>
      </trkpt>
      <trkpt lat="42.6912930" lon="-0.0342270">
        <ele>2786.2</ele>
        <time>2022-07-24T06:13:26Z</time>
      </trkpt>
      <trkpt lat="42.6913780" lon="-0.0342720">
        <ele>2784.4</ele>
        <time>2022-07-24T06:13:34Z</time>
      </trkpt>
      <trkpt lat="42.6913870" lon="-0.0342790">
        <ele>2784.4</ele>
        <time>2022-07-24T06:13:35Z</time>
      </trkpt>
      <trkpt lat="42.6913990" lon="-0.0342830">
        <ele>2784.2</ele>
        <time>2022-07-24T06:13:36Z</time>
      </trkpt>
      <trkpt lat="42.6914100" lon="-0.0343010">
        <ele>2783.8</ele>
        <time>2022-07-24T06:13:38Z</time>
      </trkpt>
      <trkpt lat="42.6914250" lon="-0.0343210">
        <ele>2783.4</ele>
        <time>2022-07-24T06:13:40Z</time>
      </trkpt>
      <trkpt lat="42.6914440" lon="-0.0343270">
        <ele>2783.2</ele>
        <time>2022-07-24T06:13:42Z</time>
      </trkpt>
      <trkpt lat="42.6914520" lon="-0.0343400">
        <ele>2782.8</ele>
        <time>2022-07-24T06:13:44Z</time>
      </trkpt>
      <trkpt lat="42.6914560" lon="-0.0343490">
        <ele>2782.4</ele>
        <time>2022-07-24T06:13:45Z</time>
      </trkpt>
      <trkpt lat="42.6914640" lon="-0.0343470">
        <ele>2782.2</ele>
        <time>2022-07-24T06:13:46Z</time>
      </trkpt>
      <trkpt lat="42.6914820" lon="-0.0343980">
        <ele>2780.6</ele>
        <time>2022-07-24T06:13:54Z</time>
      </trkpt>
      <trkpt lat="42.6914850" lon="-0.0344090">
        <ele>2780.4</ele>
        <time>2022-07-24T06:13:55Z</time>
      </trkpt>
      <trkpt lat="42.6914910" lon="-0.0344200">
        <ele>2780.2</ele>
        <time>2022-07-24T06:13:56Z</time>
      </trkpt>
      <trkpt lat="42.6914900" lon="-0.0344340">
        <ele>2780.0</ele>
        <time>2022-07-24T06:13:57Z</time>
      </trkpt>
      <trkpt lat="42.6914880" lon="-0.0344430">
        <ele>2779.6</ele>
        <time>2022-07-24T06:13:58Z</time>
      </trkpt>
      <trkpt lat="42.6914950" lon="-0.0344550">
        <ele>2779.6</ele>
        <time>2022-07-24T06:13:59Z</time>
      </trkpt>
      <trkpt lat="42.6915090" lon="-0.0344690">
        <ele>2779.4</ele>
        <time>2022-07-24T06:14:01Z</time>
      </trkpt>
      <trkpt lat="42.6915130" lon="-0.0344700">
        <ele>2779.2</ele>
        <time>2022-07-24T06:14:02Z</time>
      </trkpt>
      <trkpt lat="42.6915200" lon="-0.0344750">
        <ele>2778.8</ele>
        <time>2022-07-24T06:14:03Z</time>
      </trkpt>
      <trkpt lat="42.6915240" lon="-0.0344810">
        <ele>2778.6</ele>
        <time>2022-07-24T06:14:04Z</time>
      </trkpt>
      <trkpt lat="42.6915190" lon="-0.0344900">
        <ele>2778.2</ele>
        <time>2022-07-24T06:14:05Z</time>
      </trkpt>
      <trkpt lat="42.6915160" lon="-0.0344990">
        <ele>2778.0</ele>
        <time>2022-07-24T06:14:06Z</time>
      </trkpt>
      <trkpt lat="42.6915150" lon="-0.0345000">
        <ele>2776.8</ele>
        <time>2022-07-24T06:14:08Z</time>
      </trkpt>
      <trkpt lat="42.6915200" lon="-0.0345050">
        <ele>2776.4</ele>
        <time>2022-07-24T06:14:09Z</time>
      </trkpt>
      <trkpt lat="42.6915330" lon="-0.0345150">
        <ele>2776.0</ele>
        <time>2022-07-24T06:14:11Z</time>
      </trkpt>
      <trkpt lat="42.6915400" lon="-0.0345110">
        <ele>2775.6</ele>
        <time>2022-07-24T06:14:12Z</time>
      </trkpt>
      <trkpt lat="42.6915420" lon="-0.0345110">
        <ele>2775.2</ele>
        <time>2022-07-24T06:14:13Z</time>
      </trkpt>
      <trkpt lat="42.6915440" lon="-0.0345130">
        <ele>2775.0</ele>
        <time>2022-07-24T06:14:14Z</time>
      </trkpt>
      <trkpt lat="42.6915800" lon="-0.0345670">
        <ele>2772.4</ele>
        <time>2022-07-24T06:14:21Z</time>
      </trkpt>
      <trkpt lat="42.6915970" lon="-0.0345940">
        <ele>2771.8</ele>
        <time>2022-07-24T06:14:23Z</time>
      </trkpt>
      <trkpt lat="42.6916190" lon="-0.0346250">
        <ele>2771.2</ele>
        <time>2022-07-24T06:14:27Z</time>
      </trkpt>
      <trkpt lat="42.6916260" lon="-0.0346270">
        <ele>2771.2</ele>
        <time>2022-07-24T06:14:28Z</time>
      </trkpt>
      <trkpt lat="42.6916300" lon="-0.0346330">
        <ele>2771.2</ele>
        <time>2022-07-24T06:14:29Z</time>
      </trkpt>
      <trkpt lat="42.6916440" lon="-0.0346430">
        <ele>2771.0</ele>
        <time>2022-07-24T06:14:31Z</time>
      </trkpt>
      <trkpt lat="42.6916480" lon="-0.0346490">
        <ele>2770.8</ele>
        <time>2022-07-24T06:14:32Z</time>
      </trkpt>
      <trkpt lat="42.6916520" lon="-0.0346560">
        <ele>2770.4</ele>
        <time>2022-07-24T06:14:33Z</time>
      </trkpt>
      <trkpt lat="42.6916670" lon="-0.0346700">
        <ele>2769.6</ele>
        <time>2022-07-24T06:14:35Z</time>
      </trkpt>
      <trkpt lat="42.6916890" lon="-0.0346910">
        <ele>2768.4</ele>
        <time>2022-07-24T06:14:38Z</time>
      </trkpt>
      <trkpt lat="42.6916960" lon="-0.0346940">
        <ele>2767.6</ele>
        <time>2022-07-24T06:14:39Z</time>
      </trkpt>
      <trkpt lat="42.6917080" lon="-0.0346920">
        <ele>2767.2</ele>
        <time>2022-07-24T06:14:40Z</time>
      </trkpt>
      <trkpt lat="42.6917150" lon="-0.0347000">
        <ele>2766.8</ele>
        <time>2022-07-24T06:14:41Z</time>
      </trkpt>
      <trkpt lat="42.6917270" lon="-0.0347070">
        <ele>2766.8</ele>
        <time>2022-07-24T06:14:42Z</time>
      </trkpt>
      <trkpt lat="42.6917470" lon="-0.0347290">
        <ele>2765.4</ele>
        <time>2022-07-24T06:14:45Z</time>
      </trkpt>
      <trkpt lat="42.6917550" lon="-0.0347360">
        <ele>2765.0</ele>
        <time>2022-07-24T06:14:46Z</time>
      </trkpt>
      <trkpt lat="42.6917630" lon="-0.0347420">
        <ele>2764.6</ele>
        <time>2022-07-24T06:14:47Z</time>
      </trkpt>
      <trkpt lat="42.6917660" lon="-0.0347590">
        <ele>2764.2</ele>
        <time>2022-07-24T06:14:48Z</time>
      </trkpt>
      <trkpt lat="42.6917750" lon="-0.0347700">
        <ele>2763.6</ele>
        <time>2022-07-24T06:14:49Z</time>
      </trkpt>
      <trkpt lat="42.6917910" lon="-0.0347800">
        <ele>2762.4</ele>
        <time>2022-07-24T06:14:51Z</time>
      </trkpt>
      <trkpt lat="42.6918000" lon="-0.0347850">
        <ele>2761.8</ele>
        <time>2022-07-24T06:14:52Z</time>
      </trkpt>
      <trkpt lat="42.6918180" lon="-0.0347930">
        <ele>2761.6</ele>
        <time>2022-07-24T06:14:53Z</time>
      </trkpt>
      <trkpt lat="42.6918610" lon="-0.0348250">
        <ele>2759.4</ele>
        <time>2022-07-24T06:14:57Z</time>
      </trkpt>
      <trkpt lat="42.6918850" lon="-0.0348400">
        <ele>2758.8</ele>
        <time>2022-07-24T06:14:59Z</time>
      </trkpt>
      <trkpt lat="42.6918950" lon="-0.0348470">
        <ele>2758.4</ele>
        <time>2022-07-24T06:15:00Z</time>
      </trkpt>
      <trkpt lat="42.6919370" lon="-0.0348850">
        <ele>2757.0</ele>
        <time>2022-07-24T06:15:04Z</time>
      </trkpt>
      <trkpt lat="42.6919470" lon="-0.0348930">
        <ele>2756.8</ele>
        <time>2022-07-24T06:15:05Z</time>
      </trkpt>
      <trkpt lat="42.6919580" lon="-0.0348990">
        <ele>2756.6</ele>
        <time>2022-07-24T06:15:06Z</time>
      </trkpt>
      <trkpt lat="42.6919640" lon="-0.0349100">
        <ele>2756.4</ele>
        <time>2022-07-24T06:15:07Z</time>
      </trkpt>
      <trkpt lat="42.6919650" lon="-0.0349190">
        <ele>2756.2</ele>
        <time>2022-07-24T06:15:08Z</time>
      </trkpt>
      <trkpt lat="42.6919660" lon="-0.0349300">
        <ele>2756.0</ele>
        <time>2022-07-24T06:15:09Z</time>
      </trkpt>
      <trkpt lat="42.6919810" lon="-0.0349360">
        <ele>2755.6</ele>
        <time>2022-07-24T06:15:11Z</time>
      </trkpt>
      <trkpt lat="42.6919990" lon="-0.0349300">
        <ele>2755.4</ele>
        <time>2022-07-24T06:15:14Z</time>
      </trkpt>
      <trkpt lat="42.6920250" lon="-0.0349410">
        <ele>2754.8</ele>
        <time>2022-07-24T06:15:17Z</time>
      </trkpt>
      <trkpt lat="42.6920790" lon="-0.0349390">
        <ele>2753.6</ele>
        <time>2022-07-24T06:15:22Z</time>
      </trkpt>
      <trkpt lat="42.6920910" lon="-0.0349380">
        <ele>2753.6</ele>
        <time>2022-07-24T06:15:23Z</time>
      </trkpt>
      <trkpt lat="42.6920890" lon="-0.0349390">
        <ele>2753.2</ele>
        <time>2022-07-24T06:15:24Z</time>
      </trkpt>
      <trkpt lat="42.6921210" lon="-0.0348770">
        <ele>2752.0</ele>
        <time>2022-07-24T06:15:30Z</time>
      </trkpt>
      <trkpt lat="42.6921250" lon="-0.0348620">
        <ele>2751.8</ele>
        <time>2022-07-24T06:15:32Z</time>
      </trkpt>
      <trkpt lat="42.6921200" lon="-0.0348620">
        <ele>2751.8</ele>
        <time>2022-07-24T06:15:33Z</time>
      </trkpt>
      <trkpt lat="42.6921120" lon="-0.0348620">
        <ele>2751.6</ele>
        <time>2022-07-24T06:15:35Z</time>
      </trkpt>
      <trkpt lat="42.6921070" lon="-0.0348830">
        <ele>2751.2</ele>
        <time>2022-07-24T06:15:38Z</time>
      </trkpt>
      <trkpt lat="42.6921160" lon="-0.0348850">
        <ele>2751.4</ele>
        <time>2022-07-24T06:15:39Z</time>
      </trkpt>
      <trkpt lat="42.6921080" lon="-0.0349990">
        <ele>2749.4</ele>
        <time>2022-07-24T06:15:49Z</time>
      </trkpt>
      <trkpt lat="42.6921100" lon="-0.0350080">
        <ele>2749.2</ele>
        <time>2022-07-24T06:15:50Z</time>
      </trkpt>
      <trkpt lat="42.6921320" lon="-0.0350520">
        <ele>2748.8</ele>
        <time>2022-07-24T06:15:58Z</time>
      </trkpt>
      <trkpt lat="42.6921500" lon="-0.0350680">
        <ele>2748.6</ele>
        <time>2022-07-24T06:16:00Z</time>
      </trkpt>
      <trkpt lat="42.6921620" lon="-0.0350890">
        <ele>2748.6</ele>
        <time>2022-07-24T06:16:04Z</time>
      </trkpt>
      <trkpt lat="42.6921560" lon="-0.0350940">
        <ele>2748.8</ele>
        <time>2022-07-24T06:16:05Z</time>
      </trkpt>
      <trkpt lat="42.6921500" lon="-0.0351050">
        <ele>2748.6</ele>
        <time>2022-07-24T06:16:08Z</time>
      </trkpt>
      <trkpt lat="42.6921490" lon="-0.0351080">
        <ele>2748.4</ele>
        <time>2022-07-24T06:16:10Z</time>
      </trkpt>
      <trkpt lat="42.6921490" lon="-0.0351090">
        <ele>2748.2</ele>
        <time>2022-07-24T06:16:11Z</time>
      </trkpt>
      <trkpt lat="42.6921650" lon="-0.0351170">
        <ele>2748.2</ele>
        <time>2022-07-24T06:16:14Z</time>
      </trkpt>
      <trkpt lat="42.6921870" lon="-0.0351040">
        <ele>2747.8</ele>
        <time>2022-07-24T06:16:16Z</time>
      </trkpt>
      <trkpt lat="42.6922270" lon="-0.0350760">
        <ele>2747.8</ele>
        <time>2022-07-24T06:16:19Z</time>
      </trkpt>
      <trkpt lat="42.6922370" lon="-0.0350670">
        <ele>2747.6</ele>
        <time>2022-07-24T06:16:20Z</time>
      </trkpt>
      <trkpt lat="42.6923540" lon="-0.0349900">
        <ele>2745.8</ele>
        <time>2022-07-24T06:16:26Z</time>
      </trkpt>
      <trkpt lat="42.6924940" lon="-0.0349010">
        <ele>2743.6</ele>
        <time>2022-07-24T06:16:33Z</time>
      </trkpt>
      <trkpt lat="42.6926310" lon="-0.0347910">
        <ele>2743.2</ele>
        <time>2022-07-24T06:16:40Z</time>
      </trkpt>
      <trkpt lat="42.6926710" lon="-0.0347460">
        <ele>2743.0</ele>
        <time>2022-07-24T06:16:43Z</time>
      </trkpt>
      <trkpt lat="42.6927040" lon="-0.0346950">
        <ele>2743.2</ele>
        <time>2022-07-24T06:16:48Z</time>
      </trkpt>
      <trkpt lat="42.6927050" lon="-0.0346020">
        <ele>2744.4</ele>
        <time>2022-07-24T06:16:56Z</time>
      </trkpt>
      <trkpt lat="42.6927040" lon="-0.0345670">
        <ele>2745.2</ele>
        <time>2022-07-24T06:17:02Z</time>
      </trkpt>
      <trkpt lat="42.6927240" lon="-0.0345250">
        <ele>2745.8</ele>
        <time>2022-07-24T06:17:06Z</time>
      </trkpt>
      <trkpt lat="42.6927300" lon="-0.0345140">
        <ele>2745.8</ele>
        <time>2022-07-24T06:17:07Z</time>
      </trkpt>
      <trkpt lat="42.6927370" lon="-0.0345040">
        <ele>2746.0</ele>
        <time>2022-07-24T06:17:08Z</time>
      </trkpt>
      <trkpt lat="42.6927430" lon="-0.0344910">
        <ele>2746.2</ele>
        <time>2022-07-24T06:17:09Z</time>
      </trkpt>
      <trkpt lat="42.6927580" lon="-0.0344720">
        <ele>2746.2</ele>
        <time>2022-07-24T06:17:11Z</time>
      </trkpt>
      <trkpt lat="42.6927710" lon="-0.0344720">
        <ele>2746.8</ele>
        <time>2022-07-24T06:17:15Z</time>
      </trkpt>
      <trkpt lat="42.6927740" lon="-0.0344760">
        <ele>2747.0</ele>
        <time>2022-07-24T06:17:16Z</time>
      </trkpt>
      <trkpt lat="42.6927850" lon="-0.0344780">
        <ele>2747.6</ele>
        <time>2022-07-24T06:17:19Z</time>
      </trkpt>
      <trkpt lat="42.6927870" lon="-0.0344750">
        <ele>2747.4</ele>
        <time>2022-07-24T06:17:21Z</time>
      </trkpt>
      <trkpt lat="42.6927960" lon="-0.0344590">
        <ele>2747.8</ele>
        <time>2022-07-24T06:17:24Z</time>
      </trkpt>
      <trkpt lat="42.6928440" lon="-0.0344200">
        <ele>2747.8</ele>
        <time>2022-07-24T06:17:30Z</time>
      </trkpt>
      <trkpt lat="42.6928520" lon="-0.0344060">
        <ele>2747.6</ele>
        <time>2022-07-24T06:17:32Z</time>
      </trkpt>
      <trkpt lat="42.6928660" lon="-0.0343780">
        <ele>2747.2</ele>
        <time>2022-07-24T06:17:34Z</time>
      </trkpt>
      <trkpt lat="42.6928740" lon="-0.0343700">
        <ele>2747.0</ele>
        <time>2022-07-24T06:17:35Z</time>
      </trkpt>
      <trkpt lat="42.6928870" lon="-0.0343560">
        <ele>2747.0</ele>
        <time>2022-07-24T06:17:37Z</time>
      </trkpt>
      <trkpt lat="42.6929180" lon="-0.0343680">
        <ele>2746.6</ele>
        <time>2022-07-24T06:17:41Z</time>
      </trkpt>
      <trkpt lat="42.6929250" lon="-0.0343670">
        <ele>2746.6</ele>
        <time>2022-07-24T06:17:42Z</time>
      </trkpt>
      <trkpt lat="42.6929390" lon="-0.0343410">
        <ele>2744.6</ele>
        <time>2022-07-24T06:17:46Z</time>
      </trkpt>
      <trkpt lat="42.6929470" lon="-0.0343210">
        <ele>2744.2</ele>
        <time>2022-07-24T06:17:48Z</time>
      </trkpt>
      <trkpt lat="42.6929510" lon="-0.0343080">
        <ele>2744.0</ele>
        <time>2022-07-24T06:17:49Z</time>
      </trkpt>
      <trkpt lat="42.6929550" lon="-0.0342970">
        <ele>2743.8</ele>
        <time>2022-07-24T06:17:50Z</time>
      </trkpt>
      <trkpt lat="42.6929600" lon="-0.0342910">
        <ele>2743.8</ele>
        <time>2022-07-24T06:17:51Z</time>
      </trkpt>
      <trkpt lat="42.6930320" lon="-0.0341880">
        <ele>2742.6</ele>
        <time>2022-07-24T06:18:03Z</time>
      </trkpt>
      <trkpt lat="42.6930380" lon="-0.0341770">
        <ele>2742.4</ele>
        <time>2022-07-24T06:18:05Z</time>
      </trkpt>
      <trkpt lat="42.6930660" lon="-0.0341400">
        <ele>2742.0</ele>
        <time>2022-07-24T06:18:12Z</time>
      </trkpt>
      <trkpt lat="42.6930710" lon="-0.0341630">
        <ele>2740.8</ele>
        <time>2022-07-24T06:18:18Z</time>
      </trkpt>
      <trkpt lat="42.6930750" lon="-0.0341750">
        <ele>2740.6</ele>
        <time>2022-07-24T06:18:19Z</time>
      </trkpt>
      <trkpt lat="42.6930860" lon="-0.0341610">
        <ele>2740.0</ele>
        <time>2022-07-24T06:18:25Z</time>
      </trkpt>
      <trkpt lat="42.6931030" lon="-0.0341630">
        <ele>2739.2</ele>
        <time>2022-07-24T06:18:28Z</time>
      </trkpt>
      <trkpt lat="42.6931360" lon="-0.0341450">
        <ele>2738.2</ele>
        <time>2022-07-24T06:18:32Z</time>
      </trkpt>
      <trkpt lat="42.6931720" lon="-0.0341650">
        <ele>2737.2</ele>
        <time>2022-07-24T06:18:36Z</time>
      </trkpt>
      <trkpt lat="42.6931850" lon="-0.0341790">
        <ele>2736.4</ele>
        <time>2022-07-24T06:18:38Z</time>
      </trkpt>
      <trkpt lat="42.6931920" lon="-0.0341880">
        <ele>2736.4</ele>
        <time>2022-07-24T06:18:39Z</time>
      </trkpt>
      <trkpt lat="42.6932280" lon="-0.0342330">
        <ele>2734.4</ele>
        <time>2022-07-24T06:18:46Z</time>
      </trkpt>
      <trkpt lat="42.6932440" lon="-0.0342530">
        <ele>2733.2</ele>
        <time>2022-07-24T06:18:50Z</time>
      </trkpt>
      <trkpt lat="42.6932780" lon="-0.0342840">
        <ele>2731.8</ele>
        <time>2022-07-24T06:18:56Z</time>
      </trkpt>
      <trkpt lat="42.6932940" lon="-0.0342960">
        <ele>2731.2</ele>
        <time>2022-07-24T06:18:58Z</time>
      </trkpt>
      <trkpt lat="42.6933060" lon="-0.0343080">
        <ele>2731.0</ele>
        <time>2022-07-24T06:19:00Z</time>
      </trkpt>
      <trkpt lat="42.6933510" lon="-0.0343520">
        <ele>2729.6</ele>
        <time>2022-07-24T06:19:06Z</time>
      </trkpt>
      <trkpt lat="42.6933640" lon="-0.0343720">
        <ele>2729.4</ele>
        <time>2022-07-24T06:19:07Z</time>
      </trkpt>
      <trkpt lat="42.6934150" lon="-0.0344070">
        <ele>2727.4</ele>
        <time>2022-07-24T06:19:13Z</time>
      </trkpt>
      <trkpt lat="42.6934150" lon="-0.0344210">
        <ele>2727.2</ele>
        <time>2022-07-24T06:19:14Z</time>
      </trkpt>
      <trkpt lat="42.6934180" lon="-0.0344280">
        <ele>2726.8</ele>
        <time>2022-07-24T06:19:15Z</time>
      </trkpt>
      <trkpt lat="42.6934450" lon="-0.0344590">
        <ele>2724.0</ele>
        <time>2022-07-24T06:19:22Z</time>
      </trkpt>
      <trkpt lat="42.6934530" lon="-0.0344710">
        <ele>2722.8</ele>
        <time>2022-07-24T06:19:25Z</time>
      </trkpt>
      <trkpt lat="42.6934560" lon="-0.0344760">
        <ele>2722.6</ele>
        <time>2022-07-24T06:19:26Z</time>
      </trkpt>
      <trkpt lat="42.6934650" lon="-0.0345170">
        <ele>2721.0</ele>
        <time>2022-07-24T06:19:33Z</time>
      </trkpt>
      <trkpt lat="42.6934650" lon="-0.0345550">
        <ele>2719.0</ele>
        <time>2022-07-24T06:19:41Z</time>
      </trkpt>
      <trkpt lat="42.6934860" lon="-0.0345740">
        <ele>2718.6</ele>
        <time>2022-07-24T06:19:46Z</time>
      </trkpt>
      <trkpt lat="42.6934950" lon="-0.0345730">
        <ele>2718.4</ele>
        <time>2022-07-24T06:19:47Z</time>
      </trkpt>
      <trkpt lat="42.6935010" lon="-0.0345750">
        <ele>2718.2</ele>
        <time>2022-07-24T06:19:49Z</time>
      </trkpt>
      <trkpt lat="42.6935070" lon="-0.0345740">
        <ele>2718.2</ele>
        <time>2022-07-24T06:19:50Z</time>
      </trkpt>
      <trkpt lat="42.6935120" lon="-0.0345790">
        <ele>2718.0</ele>
        <time>2022-07-24T06:19:52Z</time>
      </trkpt>
      <trkpt lat="42.6935370" lon="-0.0346020">
        <ele>2717.6</ele>
        <time>2022-07-24T06:19:56Z</time>
      </trkpt>
      <trkpt lat="42.6935570" lon="-0.0346270">
        <ele>2717.0</ele>
        <time>2022-07-24T06:20:00Z</time>
      </trkpt>
      <trkpt lat="42.6935710" lon="-0.0346450">
        <ele>2716.4</ele>
        <time>2022-07-24T06:20:03Z</time>
      </trkpt>
      <trkpt lat="42.6935930" lon="-0.0346850">
        <ele>2713.8</ele>
        <time>2022-07-24T06:20:10Z</time>
      </trkpt>
      <trkpt lat="42.6936250" lon="-0.0347210">
        <ele>2712.8</ele>
        <time>2022-07-24T06:20:13Z</time>
      </trkpt>
      <trkpt lat="42.6936500" lon="-0.0347590">
        <ele>2712.6</ele>
        <time>2022-07-24T06:20:16Z</time>
      </trkpt>
      <trkpt lat="42.6936790" lon="-0.0347830">
        <ele>2712.4</ele>
        <time>2022-07-24T06:20:18Z</time>
      </trkpt>
      <trkpt lat="42.6936950" lon="-0.0347930">
        <ele>2712.0</ele>
        <time>2022-07-24T06:20:19Z</time>
      </trkpt>
      <trkpt lat="42.6937090" lon="-0.0348130">
        <ele>2711.2</ele>
        <time>2022-07-24T06:20:20Z</time>
      </trkpt>
      <trkpt lat="42.6937510" lon="-0.0348600">
        <ele>2710.0</ele>
        <time>2022-07-24T06:20:23Z</time>
      </trkpt>
      <trkpt lat="42.6937690" lon="-0.0348910">
        <ele>2708.6</ele>
        <time>2022-07-24T06:20:25Z</time>
      </trkpt>
      <trkpt lat="42.6937810" lon="-0.0349020">
        <ele>2707.6</ele>
        <time>2022-07-24T06:20:26Z</time>
      </trkpt>
      <trkpt lat="42.6937960" lon="-0.0349030">
        <ele>2707.0</ele>
        <time>2022-07-24T06:20:27Z</time>
      </trkpt>
      <trkpt lat="42.6938080" lon="-0.0348940">
        <ele>2706.4</ele>
        <time>2022-07-24T06:20:28Z</time>
      </trkpt>
      <trkpt lat="42.6938170" lon="-0.0348790">
        <ele>2705.6</ele>
        <time>2022-07-24T06:20:29Z</time>
      </trkpt>
      <trkpt lat="42.6938350" lon="-0.0348180">
        <ele>2704.4</ele>
        <time>2022-07-24T06:20:32Z</time>
      </trkpt>
      <trkpt lat="42.6938470" lon="-0.0347740">
        <ele>2703.0</ele>
        <time>2022-07-24T06:20:34Z</time>
      </trkpt>
      <trkpt lat="42.6938580" lon="-0.0347040">
        <ele>2701.0</ele>
        <time>2022-07-24T06:20:37Z</time>
      </trkpt>
      <trkpt lat="42.6938600" lon="-0.0346580">
        <ele>2699.8</ele>
        <time>2022-07-24T06:20:39Z</time>
      </trkpt>
      <trkpt lat="42.6938620" lon="-0.0345960">
        <ele>2698.2</ele>
        <time>2022-07-24T06:20:41Z</time>
      </trkpt>
      <trkpt lat="42.6938650" lon="-0.0345840">
        <ele>2696.8</ele>
        <time>2022-07-24T06:20:43Z</time>
      </trkpt>
      <trkpt lat="42.6938740" lon="-0.0345720">
        <ele>2696.2</ele>
        <time>2022-07-24T06:20:44Z</time>
      </trkpt>
      <trkpt lat="42.6938810" lon="-0.0345580">
        <ele>2695.6</ele>
        <time>2022-07-24T06:20:45Z</time>
      </trkpt>
      <trkpt lat="42.6938880" lon="-0.0345420">
        <ele>2695.6</ele>
        <time>2022-07-24T06:20:46Z</time>
      </trkpt>
      <trkpt lat="42.6938950" lon="-0.0345070">
        <ele>2694.0</ele>
        <time>2022-07-24T06:20:48Z</time>
      </trkpt>
      <trkpt lat="42.6939100" lon="-0.0344500">
        <ele>2691.2</ele>
        <time>2022-07-24T06:20:52Z</time>
      </trkpt>
      <trkpt lat="42.6939290" lon="-0.0343970">
        <ele>2689.2</ele>
        <time>2022-07-24T06:20:56Z</time>
      </trkpt>
      <trkpt lat="42.6939420" lon="-0.0343860">
        <ele>2688.4</ele>
        <time>2022-07-24T06:20:57Z</time>
      </trkpt>
      <trkpt lat="42.6939530" lon="-0.0343700">
        <ele>2687.0</ele>
        <time>2022-07-24T06:20:59Z</time>
      </trkpt>
      <trkpt lat="42.6939670" lon="-0.0343540">
        <ele>2685.8</ele>
        <time>2022-07-24T06:21:01Z</time>
      </trkpt>
      <trkpt lat="42.6939850" lon="-0.0343270">
        <ele>2685.4</ele>
        <time>2022-07-24T06:21:03Z</time>
      </trkpt>
      <trkpt lat="42.6940140" lon="-0.0342810">
        <ele>2684.4</ele>
        <time>2022-07-24T06:21:06Z</time>
      </trkpt>
      <trkpt lat="42.6940210" lon="-0.0342670">
        <ele>2683.6</ele>
        <time>2022-07-24T06:21:07Z</time>
      </trkpt>
      <trkpt lat="42.6940270" lon="-0.0342560">
        <ele>2683.2</ele>
        <time>2022-07-24T06:21:08Z</time>
      </trkpt>
      <trkpt lat="42.6940500" lon="-0.0342330">
        <ele>2682.2</ele>
        <time>2022-07-24T06:21:11Z</time>
      </trkpt>
      <trkpt lat="42.6940730" lon="-0.0342010">
        <ele>2680.2</ele>
        <time>2022-07-24T06:21:14Z</time>
      </trkpt>
      <trkpt lat="42.6940860" lon="-0.0341750">
        <ele>2679.4</ele>
        <time>2022-07-24T06:21:16Z</time>
      </trkpt>
      <trkpt lat="42.6940930" lon="-0.0341580">
        <ele>2678.4</ele>
        <time>2022-07-24T06:21:17Z</time>
      </trkpt>
      <trkpt lat="42.6940980" lon="-0.0341310">
        <ele>2678.0</ele>
        <time>2022-07-24T06:21:19Z</time>
      </trkpt>
      <trkpt lat="42.6941070" lon="-0.0341110">
        <ele>2676.4</ele>
        <time>2022-07-24T06:21:21Z</time>
      </trkpt>
      <trkpt lat="42.6941090" lon="-0.0340890">
        <ele>2675.2</ele>
        <time>2022-07-24T06:21:23Z</time>
      </trkpt>
      <trkpt lat="42.6941400" lon="-0.0340530">
        <ele>2673.6</ele>
        <time>2022-07-24T06:21:26Z</time>
      </trkpt>
      <trkpt lat="42.6941800" lon="-0.0340330">
        <ele>2671.8</ele>
        <time>2022-07-24T06:21:29Z</time>
      </trkpt>
      <trkpt lat="42.6941990" lon="-0.0339970">
        <ele>2670.6</ele>
        <time>2022-07-24T06:21:32Z</time>
      </trkpt>
      <trkpt lat="42.6942150" lon="-0.0339840">
        <ele>2670.4</ele>
        <time>2022-07-24T06:21:33Z</time>
      </trkpt>
      <trkpt lat="42.6942440" lon="-0.0339710">
        <ele>2670.0</ele>
        <time>2022-07-24T06:21:35Z</time>
      </trkpt>
      <trkpt lat="42.6942820" lon="-0.0339610">
        <ele>2668.4</ele>
        <time>2022-07-24T06:21:38Z</time>
      </trkpt>
      <trkpt lat="42.6942960" lon="-0.0339530">
        <ele>2668.0</ele>
        <time>2022-07-24T06:21:39Z</time>
      </trkpt>
      <trkpt lat="42.6943050" lon="-0.0339450">
        <ele>2667.2</ele>
        <time>2022-07-24T06:21:40Z</time>
      </trkpt>
      <trkpt lat="42.6943450" lon="-0.0339200">
        <ele>2665.0</ele>
        <time>2022-07-24T06:21:43Z</time>
      </trkpt>
      <trkpt lat="42.6943710" lon="-0.0338890">
        <ele>2663.8</ele>
        <time>2022-07-24T06:21:45Z</time>
      </trkpt>
      <trkpt lat="42.6943840" lon="-0.0338760">
        <ele>2663.4</ele>
        <time>2022-07-24T06:21:46Z</time>
      </trkpt>
      <trkpt lat="42.6944020" lon="-0.0338640">
        <ele>2662.6</ele>
        <time>2022-07-24T06:21:47Z</time>
      </trkpt>
      <trkpt lat="42.6944420" lon="-0.0338390">
        <ele>2661.4</ele>
        <time>2022-07-24T06:21:50Z</time>
      </trkpt>
      <trkpt lat="42.6944770" lon="-0.0338140">
        <ele>2660.0</ele>
        <time>2022-07-24T06:21:53Z</time>
      </trkpt>
      <trkpt lat="42.6945100" lon="-0.0338000">
        <ele>2658.6</ele>
        <time>2022-07-24T06:21:55Z</time>
      </trkpt>
      <trkpt lat="42.6945350" lon="-0.0337890">
        <ele>2657.4</ele>
        <time>2022-07-24T06:21:57Z</time>
      </trkpt>
      <trkpt lat="42.6945580" lon="-0.0337770">
        <ele>2656.0</ele>
        <time>2022-07-24T06:21:59Z</time>
      </trkpt>
      <trkpt lat="42.6945710" lon="-0.0337690">
        <ele>2655.2</ele>
        <time>2022-07-24T06:22:00Z</time>
      </trkpt>
      <trkpt lat="42.6945860" lon="-0.0337650">
        <ele>2654.6</ele>
        <time>2022-07-24T06:22:01Z</time>
      </trkpt>
      <trkpt lat="42.6946100" lon="-0.0337720">
        <ele>2653.0</ele>
        <time>2022-07-24T06:22:03Z</time>
      </trkpt>
      <trkpt lat="42.6946170" lon="-0.0337680">
        <ele>2652.6</ele>
        <time>2022-07-24T06:22:04Z</time>
      </trkpt>
      <trkpt lat="42.6946390" lon="-0.0337530">
        <ele>2652.0</ele>
        <time>2022-07-24T06:22:07Z</time>
      </trkpt>
      <trkpt lat="42.6946580" lon="-0.0337500">
        <ele>2651.4</ele>
        <time>2022-07-24T06:22:09Z</time>
      </trkpt>
      <trkpt lat="42.6946680" lon="-0.0337470">
        <ele>2650.6</ele>
        <time>2022-07-24T06:22:10Z</time>
      </trkpt>
      <trkpt lat="42.6946860" lon="-0.0337260">
        <ele>2649.4</ele>
        <time>2022-07-24T06:22:13Z</time>
      </trkpt>
      <trkpt lat="42.6947230" lon="-0.0337160">
        <ele>2648.2</ele>
        <time>2022-07-24T06:22:16Z</time>
      </trkpt>
      <trkpt lat="42.6947410" lon="-0.0337240">
        <ele>2647.6</ele>
        <time>2022-07-24T06:22:18Z</time>
      </trkpt>
      <trkpt lat="42.6947490" lon="-0.0337270">
        <ele>2647.2</ele>
        <time>2022-07-24T06:22:19Z</time>
      </trkpt>
      <trkpt lat="42.6947570" lon="-0.0337290">
        <ele>2646.8</ele>
        <time>2022-07-24T06:22:20Z</time>
      </trkpt>
      <trkpt lat="42.6947730" lon="-0.0337230">
        <ele>2646.4</ele>
        <time>2022-07-24T06:22:22Z</time>
      </trkpt>
      <trkpt lat="42.6947960" lon="-0.0337050">
        <ele>2644.4</ele>
        <time>2022-07-24T06:22:27Z</time>
      </trkpt>
      <trkpt lat="42.6948000" lon="-0.0337020">
        <ele>2644.4</ele>
        <time>2022-07-24T06:22:28Z</time>
      </trkpt>
      <trkpt lat="42.6948030" lon="-0.0337030">
        <ele>2644.2</ele>
        <time>2022-07-24T06:22:29Z</time>
      </trkpt>
      <trkpt lat="42.6948070" lon="-0.0337030">
        <ele>2643.8</ele>
        <time>2022-07-24T06:22:30Z</time>
      </trkpt>
      <trkpt lat="42.6948060" lon="-0.0337050">
        <ele>2643.4</ele>
        <time>2022-07-24T06:22:31Z</time>
      </trkpt>
      <trkpt lat="42.6948100" lon="-0.0337070">
        <ele>2643.4</ele>
        <time>2022-07-24T06:22:32Z</time>
      </trkpt>
      <trkpt lat="42.6948180" lon="-0.0337160">
        <ele>2643.2</ele>
        <time>2022-07-24T06:22:34Z</time>
      </trkpt>
      <trkpt lat="42.6948340" lon="-0.0337120">
        <ele>2643.4</ele>
        <time>2022-07-24T06:22:39Z</time>
      </trkpt>
      <trkpt lat="42.6948350" lon="-0.0337010">
        <ele>2643.4</ele>
        <time>2022-07-24T06:22:42Z</time>
      </trkpt>
      <trkpt lat="42.6947970" lon="-0.0336510">
        <ele>2643.2</ele>
        <time>2022-07-24T06:22:48Z</time>
      </trkpt>
      <trkpt lat="42.6947980" lon="-0.0336410">
        <ele>2643.0</ele>
        <time>2022-07-24T06:22:55Z</time>
      </trkpt>
      <trkpt lat="42.6947790" lon="-0.0336270">
        <ele>2642.8</ele>
        <time>2022-07-24T06:22:58Z</time>
      </trkpt>
      <trkpt lat="42.6947400" lon="-0.0336050">
        <ele>2642.8</ele>
        <time>2022-07-24T06:23:02Z</time>
      </trkpt>
      <trkpt lat="42.6947460" lon="-0.0335970">
        <ele>2642.8</ele>
        <time>2022-07-24T06:23:03Z</time>
      </trkpt>
      <trkpt lat="42.6947450" lon="-0.0335850">
        <ele>2642.8</ele>
        <time>2022-07-24T06:23:06Z</time>
      </trkpt>
      <trkpt lat="42.6947450" lon="-0.0335850">
        <ele>2642.8</ele>
        <time>2022-07-24T06:23:07Z</time>
      </trkpt>
      <trkpt lat="42.6947420" lon="-0.0335910">
        <ele>2642.4</ele>
        <time>2022-07-24T06:23:09Z</time>
      </trkpt>
      <trkpt lat="42.6947560" lon="-0.0335820">
        <ele>2642.6</ele>
        <time>2022-07-24T06:23:11Z</time>
      </trkpt>
      <trkpt lat="42.6947240" lon="-0.0336190">
        <ele>2642.6</ele>
        <time>2022-07-24T06:23:12Z</time>
      </trkpt>
      <trkpt lat="42.6947010" lon="-0.0336230">
        <ele>2642.8</ele>
        <time>2022-07-24T06:23:14Z</time>
      </trkpt>
      <trkpt lat="42.6946730" lon="-0.0335990">
        <ele>2642.8</ele>
        <time>2022-07-24T06:23:17Z</time>
      </trkpt>
      <trkpt lat="42.6946860" lon="-0.0335990">
        <ele>2642.8</ele>
        <time>2022-07-24T06:23:18Z</time>
      </trkpt>
      <trkpt lat="42.6946960" lon="-0.0335960">
        <ele>2642.6</ele>
        <time>2022-07-24T06:23:20Z</time>
      </trkpt>
      <trkpt lat="42.6947330" lon="-0.0335830">
        <ele>2642.4</ele>
        <time>2022-07-24T06:23:22Z</time>
      </trkpt>
      <trkpt lat="42.6947330" lon="-0.0335830">
        <ele>2642.2</ele>
        <time>2022-07-24T06:23:23Z</time>
      </trkpt>
      <trkpt lat="42.6947630" lon="-0.0336010">
        <ele>2641.6</ele>
        <time>2022-07-24T06:23:25Z</time>
      </trkpt>
      <trkpt lat="42.6947780" lon="-0.0335950">
        <ele>2641.0</ele>
        <time>2022-07-24T06:23:28Z</time>
      </trkpt>
      <trkpt lat="42.6947810" lon="-0.0335880">
        <ele>2640.8</ele>
        <time>2022-07-24T06:23:29Z</time>
      </trkpt>
      <trkpt lat="42.6947910" lon="-0.0335820">
        <ele>2640.6</ele>
        <time>2022-07-24T06:23:30Z</time>
      </trkpt>
      <trkpt lat="42.6948170" lon="-0.0335810">
        <ele>2640.2</ele>
        <time>2022-07-24T06:23:31Z</time>
      </trkpt>
      <trkpt lat="42.6948220" lon="-0.0335870">
        <ele>2639.8</ele>
        <time>2022-07-24T06:23:32Z</time>
      </trkpt>
      <trkpt lat="42.6948610" lon="-0.0335660">
        <ele>2638.8</ele>
        <time>2022-07-24T06:23:35Z</time>
      </trkpt>
      <trkpt lat="42.6948730" lon="-0.0335540">
        <ele>2638.4</ele>
        <time>2022-07-24T06:23:36Z</time>
      </trkpt>
      <trkpt lat="42.6948880" lon="-0.0335310">
        <ele>2638.2</ele>
        <time>2022-07-24T06:23:37Z</time>
      </trkpt>
      <trkpt lat="42.6949080" lon="-0.0335200">
        <ele>2636.8</ele>
        <time>2022-07-24T06:23:39Z</time>
      </trkpt>
      <trkpt lat="42.6949190" lon="-0.0335180">
        <ele>2636.6</ele>
        <time>2022-07-24T06:23:40Z</time>
      </trkpt>
      <trkpt lat="42.6949330" lon="-0.0335130">
        <ele>2635.8</ele>
        <time>2022-07-24T06:23:41Z</time>
      </trkpt>
      <trkpt lat="42.6949420" lon="-0.0335070">
        <ele>2635.4</ele>
        <time>2022-07-24T06:23:43Z</time>
      </trkpt>
      <trkpt lat="42.6949530" lon="-0.0334990">
        <ele>2634.6</ele>
        <time>2022-07-24T06:23:44Z</time>
      </trkpt>
      <trkpt lat="42.6949680" lon="-0.0335110">
        <ele>2633.4</ele>
        <time>2022-07-24T06:23:46Z</time>
      </trkpt>
      <trkpt lat="42.6949790" lon="-0.0335160">
        <ele>2632.8</ele>
        <time>2022-07-24T06:23:47Z</time>
      </trkpt>
      <trkpt lat="42.6950360" lon="-0.0334970">
        <ele>2631.2</ele>
        <time>2022-07-24T06:23:50Z</time>
      </trkpt>
      <trkpt lat="42.6950470" lon="-0.0334960">
        <ele>2630.8</ele>
        <time>2022-07-24T06:23:51Z</time>
      </trkpt>
      <trkpt lat="42.6950590" lon="-0.0334950">
        <ele>2629.6</ele>
        <time>2022-07-24T06:23:53Z</time>
      </trkpt>
      <trkpt lat="42.6950790" lon="-0.0334700">
        <ele>2628.2</ele>
        <time>2022-07-24T06:23:56Z</time>
      </trkpt>
      <trkpt lat="42.6951000" lon="-0.0334560">
        <ele>2627.8</ele>
        <time>2022-07-24T06:23:59Z</time>
      </trkpt>
      <trkpt lat="42.6951230" lon="-0.0334550">
        <ele>2627.0</ele>
        <time>2022-07-24T06:24:00Z</time>
      </trkpt>
      <trkpt lat="42.6951850" lon="-0.0334660">
        <ele>2625.8</ele>
        <time>2022-07-24T06:24:03Z</time>
      </trkpt>
      <trkpt lat="42.6952130" lon="-0.0334610">
        <ele>2625.0</ele>
        <time>2022-07-24T06:24:05Z</time>
      </trkpt>
      <trkpt lat="42.6952300" lon="-0.0334670">
        <ele>2624.4</ele>
        <time>2022-07-24T06:24:06Z</time>
      </trkpt>
      <trkpt lat="42.6952500" lon="-0.0334720">
        <ele>2624.0</ele>
        <time>2022-07-24T06:24:07Z</time>
      </trkpt>
      <trkpt lat="42.6952680" lon="-0.0334780">
        <ele>2623.2</ele>
        <time>2022-07-24T06:24:08Z</time>
      </trkpt>
      <trkpt lat="42.6953580" lon="-0.0334770">
        <ele>2621.0</ele>
        <time>2022-07-24T06:24:12Z</time>
      </trkpt>
      <trkpt lat="42.6953750" lon="-0.0334810">
        <ele>2620.6</ele>
        <time>2022-07-24T06:24:13Z</time>
      </trkpt>
      <trkpt lat="42.6954320" lon="-0.0335070">
        <ele>2619.0</ele>
        <time>2022-07-24T06:24:17Z</time>
      </trkpt>
      <trkpt lat="42.6954640" lon="-0.0335160">
        <ele>2618.4</ele>
        <time>2022-07-24T06:24:18Z</time>
      </trkpt>
      <trkpt lat="42.6954810" lon="-0.0335200">
        <ele>2618.0</ele>
        <time>2022-07-24T06:24:19Z</time>
      </trkpt>
      <trkpt lat="42.6955050" lon="-0.0335280">
        <ele>2617.0</ele>
        <time>2022-07-24T06:24:21Z</time>
      </trkpt>
      <trkpt lat="42.6955510" lon="-0.0335350">
        <ele>2616.4</ele>
        <time>2022-07-24T06:24:23Z</time>
      </trkpt>
      <trkpt lat="42.6955730" lon="-0.0335440">
        <ele>2616.2</ele>
        <time>2022-07-24T06:24:24Z</time>
      </trkpt>
      <trkpt lat="42.6956030" lon="-0.0335640">
        <ele>2615.6</ele>
        <time>2022-07-24T06:24:26Z</time>
      </trkpt>
      <trkpt lat="42.6956140" lon="-0.0335710">
        <ele>2615.4</ele>
        <time>2022-07-24T06:24:27Z</time>
      </trkpt>
      <trkpt lat="42.6956460" lon="-0.0335810">
        <ele>2614.8</ele>
        <time>2022-07-24T06:24:30Z</time>
      </trkpt>
      <trkpt lat="42.6956800" lon="-0.0335940">
        <ele>2613.6</ele>
        <time>2022-07-24T06:24:34Z</time>
      </trkpt>
      <trkpt lat="42.6956980" lon="-0.0336060">
        <ele>2613.2</ele>
        <time>2022-07-24T06:24:36Z</time>
      </trkpt>
      <trkpt lat="42.6956980" lon="-0.0336060">
        <ele>2613.0</ele>
        <time>2022-07-24T06:24:37Z</time>
      </trkpt>
      <trkpt lat="42.6956990" lon="-0.0336130">
        <ele>2613.0</ele>
        <time>2022-07-24T06:24:38Z</time>
      </trkpt>
      <trkpt lat="42.6957040" lon="-0.0336220">
        <ele>2612.8</ele>
        <time>2022-07-24T06:24:39Z</time>
      </trkpt>
      <trkpt lat="42.6957050" lon="-0.0336280">
        <ele>2612.6</ele>
        <time>2022-07-24T06:24:40Z</time>
      </trkpt>
      <trkpt lat="42.6957050" lon="-0.0336410">
        <ele>2612.6</ele>
        <time>2022-07-24T06:24:41Z</time>
      </trkpt>
      <trkpt lat="42.6957060" lon="-0.0336450">
        <ele>2612.0</ele>
        <time>2022-07-24T06:24:43Z</time>
      </trkpt>
      <trkpt lat="42.6957180" lon="-0.0336260">
        <ele>2611.6</ele>
        <time>2022-07-24T06:24:46Z</time>
      </trkpt>
      <trkpt lat="42.6957440" lon="-0.0335980">
        <ele>2611.2</ele>
        <time>2022-07-24T06:24:48Z</time>
      </trkpt>
      <trkpt lat="42.6957540" lon="-0.0335880">
        <ele>2610.6</ele>
        <time>2022-07-24T06:24:50Z</time>
      </trkpt>
      <trkpt lat="42.6957630" lon="-0.0335770">
        <ele>2610.2</ele>
        <time>2022-07-24T06:24:51Z</time>
      </trkpt>
      <trkpt lat="42.6958430" lon="-0.0335030">
        <ele>2608.8</ele>
        <time>2022-07-24T06:24:57Z</time>
      </trkpt>
      <trkpt lat="42.6959130" lon="-0.0334930">
        <ele>2608.8</ele>
        <time>2022-07-24T06:25:01Z</time>
      </trkpt>
      <trkpt lat="42.6959400" lon="-0.0334960">
        <ele>2608.8</ele>
        <time>2022-07-24T06:25:03Z</time>
      </trkpt>
      <trkpt lat="42.6959950" lon="-0.0334910">
        <ele>2609.4</ele>
        <time>2022-07-24T06:25:11Z</time>
      </trkpt>
      <trkpt lat="42.6960070" lon="-0.0334850">
        <ele>2610.2</ele>
        <time>2022-07-24T06:25:19Z</time>
      </trkpt>
      <trkpt lat="42.6960370" lon="-0.0334750">
        <ele>2610.2</ele>
        <time>2022-07-24T06:25:23Z</time>
      </trkpt>
      <trkpt lat="42.6960450" lon="-0.0334710">
        <ele>2610.2</ele>
        <time>2022-07-24T06:25:24Z</time>
      </trkpt>
      <trkpt lat="42.6960510" lon="-0.0334630">
        <ele>2610.0</ele>
        <time>2022-07-24T06:25:28Z</time>
      </trkpt>
      <trkpt lat="42.6960520" lon="-0.0334600">
        <ele>2610.2</ele>
        <time>2022-07-24T06:25:29Z</time>
      </trkpt>
      <trkpt lat="42.6960560" lon="-0.0334540">
        <ele>2610.0</ele>
        <time>2022-07-24T06:25:31Z</time>
      </trkpt>
      <trkpt lat="42.6960520" lon="-0.0334070">
        <ele>2610.2</ele>
        <time>2022-07-24T06:25:45Z</time>
      </trkpt>
      <trkpt lat="42.6960560" lon="-0.0334110">
        <ele>2610.4</ele>
        <time>2022-07-24T06:25:46Z</time>
      </trkpt>
      <trkpt lat="42.6960610" lon="-0.0334130">
        <ele>2610.4</ele>
        <time>2022-07-24T06:25:57Z</time>
      </trkpt>
      <trkpt lat="42.6960650" lon="-0.0334270">
        <ele>2610.2</ele>
        <time>2022-07-24T06:26:02Z</time>
      </trkpt>
      <trkpt lat="42.6960600" lon="-0.0334360">
        <ele>2610.0</ele>
        <time>2022-07-24T06:26:07Z</time>
      </trkpt>
      <trkpt lat="42.6960580" lon="-0.0334360">
        <ele>2610.0</ele>
        <time>2022-07-24T06:26:08Z</time>
      </trkpt>
      <trkpt lat="42.6960530" lon="-0.0334360">
        <ele>2609.8</ele>
        <time>2022-07-24T06:26:16Z</time>
      </trkpt>
      <trkpt lat="42.6960510" lon="-0.0334350">
        <ele>2609.8</ele>
        <time>2022-07-24T06:26:19Z</time>
      </trkpt>
      <trkpt lat="42.6960510" lon="-0.0334360">
        <ele>2609.8</ele>
        <time>2022-07-24T06:26:20Z</time>
      </trkpt>
      <trkpt lat="42.6960510" lon="-0.0334360">
        <ele>2609.6</ele>
        <time>2022-07-24T06:26:21Z</time>
      </trkpt>
      <trkpt lat="42.6960490" lon="-0.0334360">
        <ele>2609.8</ele>
        <time>2022-07-24T06:26:23Z</time>
      </trkpt>
      <trkpt lat="42.6960480" lon="-0.0334340">
        <ele>2609.8</ele>
        <time>2022-07-24T06:26:32Z</time>
      </trkpt>
      <trkpt lat="42.6960480" lon="-0.0334340">
        <ele>2609.8</ele>
        <time>2022-07-24T06:26:34Z</time>
      </trkpt>
      <trkpt lat="42.6960490" lon="-0.0334330">
        <ele>2609.8</ele>
        <time>2022-07-24T06:26:35Z</time>
      </trkpt>
      <trkpt lat="42.6960480" lon="-0.0334310">
        <ele>2609.8</ele>
        <time>2022-07-24T06:26:37Z</time>
      </trkpt>
      <trkpt lat="42.6960490" lon="-0.0334320">
        <ele>2609.6</ele>
        <time>2022-07-24T06:26:43Z</time>
      </trkpt>
      <trkpt lat="42.6960490" lon="-0.0334300">
        <ele>2609.4</ele>
        <time>2022-07-24T06:26:44Z</time>
      </trkpt>
      <trkpt lat="42.6960440" lon="-0.0334320">
        <ele>2609.6</ele>
        <time>2022-07-24T06:26:46Z</time>
      </trkpt>
      <trkpt lat="42.6960360" lon="-0.0334330">
        <ele>2609.6</ele>
        <time>2022-07-24T06:26:47Z</time>
      </trkpt>
      <trkpt lat="42.6960320" lon="-0.0334340">
        <ele>2609.4</ele>
        <time>2022-07-24T06:26:48Z</time>
      </trkpt>
      <trkpt lat="42.6960280" lon="-0.0334370">
        <ele>2609.4</ele>
        <time>2022-07-24T06:26:49Z</time>
      </trkpt>
      <trkpt lat="42.6960250" lon="-0.0334400">
        <ele>2609.6</ele>
        <time>2022-07-24T06:26:50Z</time>
      </trkpt>
      <trkpt lat="42.6960190" lon="-0.0334450">
        <ele>2609.6</ele>
        <time>2022-07-24T06:26:52Z</time>
      </trkpt>
      <trkpt lat="42.6960190" lon="-0.0334470">
        <ele>2609.6</ele>
        <time>2022-07-24T06:26:53Z</time>
      </trkpt>
      <trkpt lat="42.6960170" lon="-0.0334490">
        <ele>2609.6</ele>
        <time>2022-07-24T06:26:54Z</time>
      </trkpt>
      <trkpt lat="42.6960170" lon="-0.0334490">
        <ele>2609.6</ele>
        <time>2022-07-24T06:26:55Z</time>
      </trkpt>
      <trkpt lat="42.6960190" lon="-0.0334500">
        <ele>2609.4</ele>
        <time>2022-07-24T06:26:57Z</time>
      </trkpt>
      <trkpt lat="42.6960210" lon="-0.0334510">
        <ele>2609.6</ele>
        <time>2022-07-24T06:26:58Z</time>
      </trkpt>
      <trkpt lat="42.6960260" lon="-0.0334560">
        <ele>2609.6</ele>
        <time>2022-07-24T06:26:59Z</time>
      </trkpt>
      <trkpt lat="42.6960260" lon="-0.0334560">
        <ele>2609.6</ele>
        <time>2022-07-24T06:27:00Z</time>
      </trkpt>
      <trkpt lat="42.6960280" lon="-0.0334660">
        <ele>2609.6</ele>
        <time>2022-07-24T06:27:01Z</time>
      </trkpt>
      <trkpt lat="42.6960220" lon="-0.0334670">
        <ele>2609.6</ele>
        <time>2022-07-24T06:27:04Z</time>
      </trkpt>
      <trkpt lat="42.6960080" lon="-0.0334690">
        <ele>2609.4</ele>
        <time>2022-07-24T06:27:10Z</time>
      </trkpt>
      <trkpt lat="42.6960070" lon="-0.0334690">
        <ele>2609.4</ele>
        <time>2022-07-24T06:27:11Z</time>
      </trkpt>
      <trkpt lat="42.6960070" lon="-0.0334680">
        <ele>2609.2</ele>
        <time>2022-07-24T06:27:13Z</time>
      </trkpt>
      <trkpt lat="42.6960060" lon="-0.0334660">
        <ele>2609.4</ele>
        <time>2022-07-24T06:27:14Z</time>
      </trkpt>
      <trkpt lat="42.6959950" lon="-0.0334540">
        <ele>2609.4</ele>
        <time>2022-07-24T06:27:22Z</time>
      </trkpt>
      <trkpt lat="42.6959930" lon="-0.0334510">
        <ele>2609.6</ele>
        <time>2022-07-24T06:27:23Z</time>
      </trkpt>
      <trkpt lat="42.6959910" lon="-0.0334430">
        <ele>2609.6</ele>
        <time>2022-07-24T06:27:25Z</time>
      </trkpt>
      <trkpt lat="42.6959890" lon="-0.0334370">
        <ele>2609.8</ele>
        <time>2022-07-24T06:27:37Z</time>
      </trkpt>
      <trkpt lat="42.6959890" lon="-0.0334370">
        <ele>2609.8</ele>
        <time>2022-07-24T06:27:38Z</time>
      </trkpt>
      <trkpt lat="42.6959860" lon="-0.0334390">
        <ele>2609.8</ele>
        <time>2022-07-24T06:27:43Z</time>
      </trkpt>
      <trkpt lat="42.6959780" lon="-0.0334570">
        <ele>2609.8</ele>
        <time>2022-07-24T06:27:50Z</time>
      </trkpt>
      <trkpt lat="42.6959730" lon="-0.0334580">
        <ele>2609.6</ele>
        <time>2022-07-24T06:27:51Z</time>
      </trkpt>
      <trkpt lat="42.6959460" lon="-0.0334640">
        <ele>2609.4</ele>
        <time>2022-07-24T06:28:01Z</time>
      </trkpt>
      <trkpt lat="42.6959350" lon="-0.0334650">
        <ele>2609.2</ele>
        <time>2022-07-24T06:28:20Z</time>
      </trkpt>
      <trkpt lat="42.6959340" lon="-0.0334650">
        <ele>2609.2</ele>
        <time>2022-07-24T06:28:21Z</time>
      </trkpt>
      <trkpt lat="42.6959330" lon="-0.0334600">
        <ele>2609.2</ele>
        <time>2022-07-24T06:28:32Z</time>
      </trkpt>
      <trkpt lat="42.6959370" lon="-0.0334660">
        <ele>2609.2</ele>
        <time>2022-07-24T06:28:33Z</time>
      </trkpt>
      <trkpt lat="42.6959380" lon="-0.0334640">
        <ele>2609.2</ele>
        <time>2022-07-24T06:28:34Z</time>
      </trkpt>
      <trkpt lat="42.6959370" lon="-0.0334670">
        <ele>2609.2</ele>
        <time>2022-07-24T06:28:35Z</time>
      </trkpt>
      <trkpt lat="42.6959340" lon="-0.0334620">
        <ele>2609.0</ele>
        <time>2022-07-24T06:28:40Z</time>
      </trkpt>
      <trkpt lat="42.6959350" lon="-0.0334640">
        <ele>2609.0</ele>
        <time>2022-07-24T06:28:41Z</time>
      </trkpt>
      <trkpt lat="42.6959360" lon="-0.0334650">
        <ele>2609.0</ele>
        <time>2022-07-24T06:28:42Z</time>
      </trkpt>
      <trkpt lat="42.6959370" lon="-0.0334700">
        <ele>2609.0</ele>
        <time>2022-07-24T06:28:44Z</time>
      </trkpt>
      <trkpt lat="42.6959440" lon="-0.0334840">
        <ele>2609.0</ele>
        <time>2022-07-24T06:28:46Z</time>
      </trkpt>
      <trkpt lat="42.6959520" lon="-0.0335010">
        <ele>2609.0</ele>
        <time>2022-07-24T06:28:48Z</time>
      </trkpt>
      <trkpt lat="42.6959550" lon="-0.0335040">
        <ele>2609.0</ele>
        <time>2022-07-24T06:28:50Z</time>
      </trkpt>
      <trkpt lat="42.6959570" lon="-0.0334970">
        <ele>2609.0</ele>
        <time>2022-07-24T06:28:54Z</time>
      </trkpt>
      <trkpt lat="42.6959460" lon="-0.0334880">
        <ele>2608.6</ele>
        <time>2022-07-24T06:28:57Z</time>
      </trkpt>
      <trkpt lat="42.6959430" lon="-0.0334860">
        <ele>2608.6</ele>
        <time>2022-07-24T06:28:58Z</time>
      </trkpt>
      <trkpt lat="42.6959370" lon="-0.0334780">
        <ele>2608.4</ele>
        <time>2022-07-24T06:29:03Z</time>
      </trkpt>
      <trkpt lat="42.6959430" lon="-0.0334650">
        <ele>2608.4</ele>
        <time>2022-07-24T06:29:05Z</time>
      </trkpt>
      <trkpt lat="42.6959460" lon="-0.0334670">
        <ele>2608.4</ele>
        <time>2022-07-24T06:29:06Z</time>
      </trkpt>
      <trkpt lat="42.6959610" lon="-0.0334680">
        <ele>2608.4</ele>
        <time>2022-07-24T06:29:07Z</time>
      </trkpt>
      <trkpt lat="42.6959640" lon="-0.0334820">
        <ele>2608.4</ele>
        <time>2022-07-24T06:29:08Z</time>
      </trkpt>
      <trkpt lat="42.6959650" lon="-0.0334880">
        <ele>2608.2</ele>
        <time>2022-07-24T06:29:10Z</time>
      </trkpt>
      <trkpt lat="42.6959640" lon="-0.0334890">
        <ele>2608.2</ele>
        <time>2022-07-24T06:29:11Z</time>
      </trkpt>
      <trkpt lat="42.6959640" lon="-0.0334930">
        <ele>2608.4</ele>
        <time>2022-07-24T06:29:13Z</time>
      </trkpt>
      <trkpt lat="42.6959570" lon="-0.0334940">
        <ele>2608.0</ele>
        <time>2022-07-24T06:29:21Z</time>
      </trkpt>
      <trkpt lat="42.6959310" lon="-0.0334950">
        <ele>2609.4</ele>
        <time>2022-07-24T06:29:39Z</time>
      </trkpt>
      <trkpt lat="42.6959270" lon="-0.0334910">
        <ele>2609.6</ele>
        <time>2022-07-24T06:29:46Z</time>
      </trkpt>
      <trkpt lat="42.6959260" lon="-0.0334890">
        <ele>2609.8</ele>
        <time>2022-07-24T06:29:48Z</time>
      </trkpt>
      <trkpt lat="42.6959270" lon="-0.0334890">
        <ele>2609.8</ele>
        <time>2022-07-24T06:29:49Z</time>
      </trkpt>
      <trkpt lat="42.6959280" lon="-0.0334900">
        <ele>2609.8</ele>
        <time>2022-07-24T06:29:51Z</time>
      </trkpt>
      <trkpt lat="42.6959260" lon="-0.0334920">
        <ele>2610.0</ele>
        <time>2022-07-24T06:29:52Z</time>
      </trkpt>
      <trkpt lat="42.6959260" lon="-0.0334920">
        <ele>2610.2</ele>
        <time>2022-07-24T06:29:53Z</time>
      </trkpt>
      <trkpt lat="42.6959330" lon="-0.0334960">
        <ele>2610.2</ele>
        <time>2022-07-24T06:29:56Z</time>
      </trkpt>
      <trkpt lat="42.6959340" lon="-0.0334950">
        <ele>2610.2</ele>
        <time>2022-07-24T06:29:57Z</time>
      </trkpt>
      <trkpt lat="42.6959330" lon="-0.0334920">
        <ele>2610.0</ele>
        <time>2022-07-24T06:29:59Z</time>
      </trkpt>
      <trkpt lat="42.6959350" lon="-0.0334900">
        <ele>2609.8</ele>
        <time>2022-07-24T06:30:02Z</time>
      </trkpt>
      <trkpt lat="42.6959350" lon="-0.0334910">
        <ele>2609.6</ele>
        <time>2022-07-24T06:30:04Z</time>
      </trkpt>
      <trkpt lat="42.6959320" lon="-0.0334880">
        <ele>2609.4</ele>
        <time>2022-07-24T06:30:11Z</time>
      </trkpt>
      <trkpt lat="42.6959320" lon="-0.0334880">
        <ele>2609.2</ele>
        <time>2022-07-24T06:30:13Z</time>
      </trkpt>
      <trkpt lat="42.6959350" lon="-0.0334890">
        <ele>2609.6</ele>
        <time>2022-07-24T06:30:20Z</time>
      </trkpt>
      <trkpt lat="42.6959440" lon="-0.0334970">
        <ele>2609.8</ele>
        <time>2022-07-24T06:30:29Z</time>
      </trkpt>
      <trkpt lat="42.6959450" lon="-0.0334980">
        <ele>2609.8</ele>
        <time>2022-07-24T06:30:33Z</time>
      </trkpt>
      <trkpt lat="42.6959450" lon="-0.0334990">
        <ele>2609.8</ele>
        <time>2022-07-24T06:30:34Z</time>
      </trkpt>
      <trkpt lat="42.6959450" lon="-0.0334980">
        <ele>2609.6</ele>
        <time>2022-07-24T06:30:38Z</time>
      </trkpt>
      <trkpt lat="42.6959450" lon="-0.0334980">
        <ele>2609.6</ele>
        <time>2022-07-24T06:30:39Z</time>
      </trkpt>
      <trkpt lat="42.6959470" lon="-0.0334970">
        <ele>2609.6</ele>
        <time>2022-07-24T06:30:40Z</time>
      </trkpt>
      <trkpt lat="42.6959470" lon="-0.0334970">
        <ele>2609.4</ele>
        <time>2022-07-24T06:30:42Z</time>
      </trkpt>
      <trkpt lat="42.6959470" lon="-0.0334960">
        <ele>2609.4</ele>
        <time>2022-07-24T06:30:43Z</time>
      </trkpt>
      <trkpt lat="42.6959470" lon="-0.0334960">
        <ele>2609.4</ele>
        <time>2022-07-24T06:30:44Z</time>
      </trkpt>
      <trkpt lat="42.6959440" lon="-0.0334890">
        <ele>2608.8</ele>
        <time>2022-07-24T06:30:52Z</time>
      </trkpt>
      <trkpt lat="42.6959390" lon="-0.0334830">
        <ele>2609.0</ele>
        <time>2022-07-24T06:30:54Z</time>
      </trkpt>
      <trkpt lat="42.6959390" lon="-0.0334830">
        <ele>2609.0</ele>
        <time>2022-07-24T06:30:55Z</time>
      </trkpt>
      <trkpt lat="42.6959330" lon="-0.0334880">
        <ele>2609.2</ele>
        <time>2022-07-24T06:31:00Z</time>
      </trkpt>
      <trkpt lat="42.6959340" lon="-0.0334900">
        <ele>2609.0</ele>
        <time>2022-07-24T06:31:01Z</time>
      </trkpt>
      <trkpt lat="42.6959580" lon="-0.0334940">
        <ele>2609.2</ele>
        <time>2022-07-24T06:31:10Z</time>
      </trkpt>
      <trkpt lat="42.6959650" lon="-0.0334910">
        <ele>2609.4</ele>
        <time>2022-07-24T06:31:16Z</time>
      </trkpt>
      <trkpt lat="42.6959680" lon="-0.0334920">
        <ele>2609.4</ele>
        <time>2022-07-24T06:31:19Z</time>
      </trkpt>
      <trkpt lat="42.6959680" lon="-0.0334930">
        <ele>2609.6</ele>
        <time>2022-07-24T06:31:24Z</time>
      </trkpt>
      <trkpt lat="42.6959730" lon="-0.0334780">
        <ele>2609.4</ele>
        <time>2022-07-24T06:31:25Z</time>
      </trkpt>
      <trkpt lat="42.6959740" lon="-0.0334580">
        <ele>2609.4</ele>
        <time>2022-07-24T06:31:28Z</time>
      </trkpt>
      <trkpt lat="42.6959750" lon="-0.0334530">
        <ele>2609.6</ele>
        <time>2022-07-24T06:31:29Z</time>
      </trkpt>
      <trkpt lat="42.6959830" lon="-0.0334450">
        <ele>2609.6</ele>
        <time>2022-07-24T06:31:34Z</time>
      </trkpt>
      <trkpt lat="42.6959860" lon="-0.0334390">
        <ele>2609.4</ele>
        <time>2022-07-24T06:31:36Z</time>
      </trkpt>
      <trkpt lat="42.6959800" lon="-0.0334270">
        <ele>2609.4</ele>
        <time>2022-07-24T06:31:38Z</time>
      </trkpt>
      <trkpt lat="42.6959700" lon="-0.0334050">
        <ele>2609.4</ele>
        <time>2022-07-24T06:31:39Z</time>
      </trkpt>
      <trkpt lat="42.6959620" lon="-0.0333820">
        <ele>2609.6</ele>
        <time>2022-07-24T06:31:41Z</time>
      </trkpt>
      <trkpt lat="42.6959610" lon="-0.0334050">
        <ele>2609.6</ele>
        <time>2022-07-24T06:31:48Z</time>
      </trkpt>
      <trkpt lat="42.6959640" lon="-0.0334240">
        <ele>2609.4</ele>
        <time>2022-07-24T06:31:50Z</time>
      </trkpt>
      <trkpt lat="42.6959580" lon="-0.0334420">
        <ele>2609.4</ele>
        <time>2022-07-24T06:31:51Z</time>
      </trkpt>
      <trkpt lat="42.6959510" lon="-0.0334640">
        <ele>2609.4</ele>
        <time>2022-07-24T06:31:53Z</time>
      </trkpt>
      <trkpt lat="42.6959530" lon="-0.0334730">
        <ele>2609.2</ele>
        <time>2022-07-24T06:31:54Z</time>
      </trkpt>
      <trkpt lat="42.6959540" lon="-0.0334830">
        <ele>2609.4</ele>
        <time>2022-07-24T06:31:55Z</time>
      </trkpt>
      <trkpt lat="42.6959610" lon="-0.0334890">
        <ele>2609.2</ele>
        <time>2022-07-24T06:31:56Z</time>
      </trkpt>
      <trkpt lat="42.6959720" lon="-0.0334910">
        <ele>2609.2</ele>
        <time>2022-07-24T06:31:59Z</time>
      </trkpt>
      <trkpt lat="42.6959730" lon="-0.0334870">
        <ele>2609.2</ele>
        <time>2022-07-24T06:32:00Z</time>
      </trkpt>
      <trkpt lat="42.6959910" lon="-0.0334780">
        <ele>2609.2</ele>
        <time>2022-07-24T06:32:04Z</time>
      </trkpt>
      <trkpt lat="42.6960140" lon="-0.0334770">
        <ele>2609.2</ele>
        <time>2022-07-24T06:32:05Z</time>
      </trkpt>
      <trkpt lat="42.6960230" lon="-0.0334730">
        <ele>2608.8</ele>
        <time>2022-07-24T06:32:06Z</time>
      </trkpt>
      <trkpt lat="42.6960450" lon="-0.0334850">
        <ele>2608.4</ele>
        <time>2022-07-24T06:32:08Z</time>
      </trkpt>
      <trkpt lat="42.6960740" lon="-0.0335170">
        <ele>2607.8</ele>
        <time>2022-07-24T06:32:11Z</time>
      </trkpt>
      <trkpt lat="42.6961010" lon="-0.0335430">
        <ele>2607.2</ele>
        <time>2022-07-24T06:32:13Z</time>
      </trkpt>
      <trkpt lat="42.6961370" lon="-0.0335600">
        <ele>2606.4</ele>
        <time>2022-07-24T06:32:16Z</time>
      </trkpt>
      <trkpt lat="42.6961470" lon="-0.0335670">
        <ele>2606.4</ele>
        <time>2022-07-24T06:32:17Z</time>
      </trkpt>
      <trkpt lat="42.6962940" lon="-0.0336710">
        <ele>2604.8</ele>
        <time>2022-07-24T06:32:33Z</time>
      </trkpt>
      <trkpt lat="42.6963050" lon="-0.0336820">
        <ele>2604.4</ele>
        <time>2022-07-24T06:32:35Z</time>
      </trkpt>
      <trkpt lat="42.6963360" lon="-0.0337020">
        <ele>2604.4</ele>
        <time>2022-07-24T06:32:38Z</time>
      </trkpt>
      <trkpt lat="42.6963590" lon="-0.0337190">
        <ele>2604.6</ele>
        <time>2022-07-24T06:32:40Z</time>
      </trkpt>
      <trkpt lat="42.6963700" lon="-0.0337300">
        <ele>2604.4</ele>
        <time>2022-07-24T06:32:41Z</time>
      </trkpt>
      <trkpt lat="42.6964200" lon="-0.0337790">
        <ele>2603.8</ele>
        <time>2022-07-24T06:32:46Z</time>
      </trkpt>
      <trkpt lat="42.6964400" lon="-0.0337910">
        <ele>2603.4</ele>
        <time>2022-07-24T06:32:48Z</time>
      </trkpt>
      <trkpt lat="42.6964860" lon="-0.0338290">
        <ele>2603.0</ele>
        <time>2022-07-24T06:32:51Z</time>
      </trkpt>
      <trkpt lat="42.6964980" lon="-0.0338370">
        <ele>2602.8</ele>
        <time>2022-07-24T06:32:52Z</time>
      </trkpt>
      <trkpt lat="42.6965610" lon="-0.0338820">
        <ele>2602.0</ele>
        <time>2022-07-24T06:32:58Z</time>
      </trkpt>
      <trkpt lat="42.6965690" lon="-0.0338870">
        <ele>2601.8</ele>
        <time>2022-07-24T06:32:59Z</time>
      </trkpt>
      <trkpt lat="42.6965770" lon="-0.0338920">
        <ele>2601.8</ele>
        <time>2022-07-24T06:33:00Z</time>
      </trkpt>
      <trkpt lat="42.6965890" lon="-0.0339010">
        <ele>2601.6</ele>
        <time>2022-07-24T06:33:02Z</time>
      </trkpt>
      <trkpt lat="42.6966050" lon="-0.0339170">
        <ele>2601.4</ele>
        <time>2022-07-24T06:33:04Z</time>
      </trkpt>
      <trkpt lat="42.6966140" lon="-0.0339540">
        <ele>2601.0</ele>
        <time>2022-07-24T06:33:06Z</time>
      </trkpt>
      <trkpt lat="42.6966190" lon="-0.0339700">
        <ele>2601.0</ele>
        <time>2022-07-24T06:33:07Z</time>
      </trkpt>
      <trkpt lat="42.6966430" lon="-0.0340060">
        <ele>2600.6</ele>
        <time>2022-07-24T06:33:10Z</time>
      </trkpt>
      <trkpt lat="42.6966610" lon="-0.0340480">
        <ele>2600.2</ele>
        <time>2022-07-24T06:33:13Z</time>
      </trkpt>
      <trkpt lat="42.6966670" lon="-0.0340610">
        <ele>2600.2</ele>
        <time>2022-07-24T06:33:14Z</time>
      </trkpt>
      <trkpt lat="42.6966720" lon="-0.0340730">
        <ele>2600.2</ele>
        <time>2022-07-24T06:33:15Z</time>
      </trkpt>
      <trkpt lat="42.6967100" lon="-0.0341440">
        <ele>2600.2</ele>
        <time>2022-07-24T06:33:21Z</time>
      </trkpt>
      <trkpt lat="42.6967170" lon="-0.0341550">
        <ele>2600.2</ele>
        <time>2022-07-24T06:33:22Z</time>
      </trkpt>
      <trkpt lat="42.6967250" lon="-0.0341590">
        <ele>2600.2</ele>
        <time>2022-07-24T06:33:23Z</time>
      </trkpt>
      <trkpt lat="42.6967310" lon="-0.0341680">
        <ele>2600.4</ele>
        <time>2022-07-24T06:33:24Z</time>
      </trkpt>
      <trkpt lat="42.6967370" lon="-0.0341770">
        <ele>2600.4</ele>
        <time>2022-07-24T06:33:25Z</time>
      </trkpt>
      <trkpt lat="42.6967400" lon="-0.0342010">
        <ele>2601.2</ele>
        <time>2022-07-24T06:33:30Z</time>
      </trkpt>
      <trkpt lat="42.6967410" lon="-0.0342130">
        <ele>2602.4</ele>
        <time>2022-07-24T06:33:32Z</time>
      </trkpt>
      <trkpt lat="42.6967570" lon="-0.0342370">
        <ele>2604.0</ele>
        <time>2022-07-24T06:33:38Z</time>
      </trkpt>
      <trkpt lat="42.6967450" lon="-0.0342440">
        <ele>2604.2</ele>
        <time>2022-07-24T06:33:40Z</time>
      </trkpt>
      <trkpt lat="42.6967460" lon="-0.0342480">
        <ele>2604.6</ele>
        <time>2022-07-24T06:33:41Z</time>
      </trkpt>
      <trkpt lat="42.6967490" lon="-0.0342850">
        <ele>2606.0</ele>
        <time>2022-07-24T06:33:47Z</time>
      </trkpt>
      <trkpt lat="42.6967630" lon="-0.0343070">
        <ele>2606.4</ele>
        <time>2022-07-24T06:33:50Z</time>
      </trkpt>
      <trkpt lat="42.6967820" lon="-0.0343800">
        <ele>2607.4</ele>
        <time>2022-07-24T06:33:57Z</time>
      </trkpt>
      <trkpt lat="42.6967850" lon="-0.0344120">
        <ele>2608.2</ele>
        <time>2022-07-24T06:34:00Z</time>
      </trkpt>
      <trkpt lat="42.6967990" lon="-0.0344750">
        <ele>2609.0</ele>
        <time>2022-07-24T06:34:05Z</time>
      </trkpt>
      <trkpt lat="42.6968020" lon="-0.0344980">
        <ele>2609.2</ele>
        <time>2022-07-24T06:34:06Z</time>
      </trkpt>
      <trkpt lat="42.6968130" lon="-0.0345380">
        <ele>2609.4</ele>
        <time>2022-07-24T06:34:08Z</time>
      </trkpt>
      <trkpt lat="42.6968160" lon="-0.0345600">
        <ele>2609.6</ele>
        <time>2022-07-24T06:34:09Z</time>
      </trkpt>
      <trkpt lat="42.6968550" lon="-0.0346860">
        <ele>2611.2</ele>
        <time>2022-07-24T06:34:19Z</time>
      </trkpt>
      <trkpt lat="42.6968750" lon="-0.0347400">
        <ele>2611.4</ele>
        <time>2022-07-24T06:34:24Z</time>
      </trkpt>
      <trkpt lat="42.6969100" lon="-0.0347640">
        <ele>2611.6</ele>
        <time>2022-07-24T06:34:26Z</time>
      </trkpt>
      <trkpt lat="42.6969460" lon="-0.0347800">
        <ele>2611.8</ele>
        <time>2022-07-24T06:34:28Z</time>
      </trkpt>
      <trkpt lat="42.6970800" lon="-0.0348180">
        <ele>2613.6</ele>
        <time>2022-07-24T06:34:35Z</time>
      </trkpt>
      <trkpt lat="42.6970940" lon="-0.0348240">
        <ele>2613.6</ele>
        <time>2022-07-24T06:34:36Z</time>
      </trkpt>
      <trkpt lat="42.6971020" lon="-0.0348250">
        <ele>2613.6</ele>
        <time>2022-07-24T06:34:37Z</time>
      </trkpt>
      <trkpt lat="42.6971020" lon="-0.0348250">
        <ele>2613.8</ele>
        <time>2022-07-24T06:34:38Z</time>
      </trkpt>
      <trkpt lat="42.6971060" lon="-0.0348220">
        <ele>2613.8</ele>
        <time>2022-07-24T06:34:40Z</time>
      </trkpt>
      <trkpt lat="42.6971110" lon="-0.0348240">
        <ele>2613.8</ele>
        <time>2022-07-24T06:34:41Z</time>
      </trkpt>
      <trkpt lat="42.6971170" lon="-0.0348250">
        <ele>2613.8</ele>
        <time>2022-07-24T06:34:42Z</time>
      </trkpt>
      <trkpt lat="42.6971240" lon="-0.0348270">
        <ele>2614.0</ele>
        <time>2022-07-24T06:34:43Z</time>
      </trkpt>
      <trkpt lat="42.6971440" lon="-0.0348450">
        <ele>2614.0</ele>
        <time>2022-07-24T06:34:45Z</time>
      </trkpt>
      <trkpt lat="42.6971680" lon="-0.0348780">
        <ele>2613.2</ele>
        <time>2022-07-24T06:34:51Z</time>
      </trkpt>
      <trkpt lat="42.6971920" lon="-0.0348820">
        <ele>2613.2</ele>
        <time>2022-07-24T06:34:53Z</time>
      </trkpt>
      <trkpt lat="42.6972040" lon="-0.0348820">
        <ele>2613.0</ele>
        <time>2022-07-24T06:34:54Z</time>
      </trkpt>
      <trkpt lat="42.6972270" lon="-0.0348830">
        <ele>2613.0</ele>
        <time>2022-07-24T06:34:56Z</time>
      </trkpt>
      <trkpt lat="42.6972460" lon="-0.0348950">
        <ele>2612.8</ele>
        <time>2022-07-24T06:34:58Z</time>
      </trkpt>
      <trkpt lat="42.6972580" lon="-0.0349020">
        <ele>2612.6</ele>
        <time>2022-07-24T06:34:59Z</time>
      </trkpt>
      <trkpt lat="42.6972820" lon="-0.0349130">
        <ele>2612.8</ele>
        <time>2022-07-24T06:35:01Z</time>
      </trkpt>
      <trkpt lat="42.6973240" lon="-0.0349280">
        <ele>2612.8</ele>
        <time>2022-07-24T06:35:04Z</time>
      </trkpt>
      <trkpt lat="42.6973330" lon="-0.0349300">
        <ele>2613.0</ele>
        <time>2022-07-24T06:35:05Z</time>
      </trkpt>
      <trkpt lat="42.6973540" lon="-0.0349270">
        <ele>2613.2</ele>
        <time>2022-07-24T06:35:07Z</time>
      </trkpt>
      <trkpt lat="42.6973640" lon="-0.0349270">
        <ele>2613.4</ele>
        <time>2022-07-24T06:35:08Z</time>
      </trkpt>
      <trkpt lat="42.6973920" lon="-0.0349480">
        <ele>2613.4</ele>
        <time>2022-07-24T06:35:12Z</time>
      </trkpt>
      <trkpt lat="42.6973910" lon="-0.0349580">
        <ele>2613.2</ele>
        <time>2022-07-24T06:35:13Z</time>
      </trkpt>
      <trkpt lat="42.6973910" lon="-0.0349660">
        <ele>2613.2</ele>
        <time>2022-07-24T06:35:14Z</time>
      </trkpt>
      <trkpt lat="42.6973910" lon="-0.0349720">
        <ele>2613.0</ele>
        <time>2022-07-24T06:35:15Z</time>
      </trkpt>
      <trkpt lat="42.6974130" lon="-0.0349920">
        <ele>2613.0</ele>
        <time>2022-07-24T06:35:18Z</time>
      </trkpt>
      <trkpt lat="42.6974430" lon="-0.0350270">
        <ele>2612.6</ele>
        <time>2022-07-24T06:35:22Z</time>
      </trkpt>
      <trkpt lat="42.6974510" lon="-0.0350310">
        <ele>2611.4</ele>
        <time>2022-07-24T06:35:23Z</time>
      </trkpt>
      <trkpt lat="42.6974570" lon="-0.0350380">
        <ele>2610.0</ele>
        <time>2022-07-24T06:35:24Z</time>
      </trkpt>
      <trkpt lat="42.6974600" lon="-0.0350400">
        <ele>2609.4</ele>
        <time>2022-07-24T06:35:25Z</time>
      </trkpt>
      <trkpt lat="42.6974680" lon="-0.0350450">
        <ele>2609.4</ele>
        <time>2022-07-24T06:35:26Z</time>
      </trkpt>
      <trkpt lat="42.6974740" lon="-0.0350500">
        <ele>2608.8</ele>
        <time>2022-07-24T06:35:27Z</time>
      </trkpt>
      <trkpt lat="42.6974770" lon="-0.0350550">
        <ele>2608.4</ele>
        <time>2022-07-24T06:35:28Z</time>
      </trkpt>
      <trkpt lat="42.6974880" lon="-0.0350630">
        <ele>2607.6</ele>
        <time>2022-07-24T06:35:30Z</time>
      </trkpt>
      <trkpt lat="42.6975030" lon="-0.0350770">
        <ele>2605.4</ele>
        <time>2022-07-24T06:35:34Z</time>
      </trkpt>
      <trkpt lat="42.6975180" lon="-0.0351090">
        <ele>2604.0</ele>
        <time>2022-07-24T06:35:37Z</time>
      </trkpt>
      <trkpt lat="42.6975370" lon="-0.0351190">
        <ele>2603.0</ele>
        <time>2022-07-24T06:35:39Z</time>
      </trkpt>
      <trkpt lat="42.6975630" lon="-0.0351490">
        <ele>2602.0</ele>
        <time>2022-07-24T06:35:45Z</time>
      </trkpt>
      <trkpt lat="42.6975760" lon="-0.0351620">
        <ele>2600.6</ele>
        <time>2022-07-24T06:35:48Z</time>
      </trkpt>
      <trkpt lat="42.6975740" lon="-0.0351700">
        <ele>2600.4</ele>
        <time>2022-07-24T06:35:49Z</time>
      </trkpt>
      <trkpt lat="42.6975720" lon="-0.0351790">
        <ele>2600.2</ele>
        <time>2022-07-24T06:35:50Z</time>
      </trkpt>
      <trkpt lat="42.6975650" lon="-0.0351880">
        <ele>2600.0</ele>
        <time>2022-07-24T06:35:51Z</time>
      </trkpt>
      <trkpt lat="42.6975640" lon="-0.0351960">
        <ele>2599.6</ele>
        <time>2022-07-24T06:35:52Z</time>
      </trkpt>
      <trkpt lat="42.6975420" lon="-0.0352420">
        <ele>2597.4</ele>
        <time>2022-07-24T06:35:57Z</time>
      </trkpt>
      <trkpt lat="42.6975350" lon="-0.0352510">
        <ele>2597.0</ele>
        <time>2022-07-24T06:35:59Z</time>
      </trkpt>
      <trkpt lat="42.6975340" lon="-0.0352660">
        <ele>2596.6</ele>
        <time>2022-07-24T06:36:00Z</time>
      </trkpt>
      <trkpt lat="42.6975270" lon="-0.0353050">
        <ele>2595.6</ele>
        <time>2022-07-24T06:36:02Z</time>
      </trkpt>
      <trkpt lat="42.6975110" lon="-0.0353510">
        <ele>2594.4</ele>
        <time>2022-07-24T06:36:07Z</time>
      </trkpt>
      <trkpt lat="42.6975100" lon="-0.0353610">
        <ele>2593.6</ele>
        <time>2022-07-24T06:36:08Z</time>
      </trkpt>
      <trkpt lat="42.6975100" lon="-0.0353800">
        <ele>2593.2</ele>
        <time>2022-07-24T06:36:10Z</time>
      </trkpt>
      <trkpt lat="42.6975090" lon="-0.0354310">
        <ele>2591.8</ele>
        <time>2022-07-24T06:36:15Z</time>
      </trkpt>
      <trkpt lat="42.6974810" lon="-0.0354330">
        <ele>2590.0</ele>
        <time>2022-07-24T06:36:20Z</time>
      </trkpt>
      <trkpt lat="42.6974710" lon="-0.0354300">
        <ele>2589.8</ele>
        <time>2022-07-24T06:36:21Z</time>
      </trkpt>
      <trkpt lat="42.6974740" lon="-0.0354350">
        <ele>2589.2</ele>
        <time>2022-07-24T06:36:22Z</time>
      </trkpt>
      <trkpt lat="42.6974860" lon="-0.0354660">
        <ele>2588.4</ele>
        <time>2022-07-24T06:36:25Z</time>
      </trkpt>
      <trkpt lat="42.6975110" lon="-0.0354880">
        <ele>2587.6</ele>
        <time>2022-07-24T06:36:28Z</time>
      </trkpt>
      <trkpt lat="42.6975350" lon="-0.0355010">
        <ele>2587.0</ele>
        <time>2022-07-24T06:36:30Z</time>
      </trkpt>
      <trkpt lat="42.6975850" lon="-0.0355330">
        <ele>2584.0</ele>
        <time>2022-07-24T06:36:36Z</time>
      </trkpt>
      <trkpt lat="42.6975940" lon="-0.0355350">
        <ele>2584.0</ele>
        <time>2022-07-24T06:36:37Z</time>
      </trkpt>
      <trkpt lat="42.6976470" lon="-0.0355690">
        <ele>2581.8</ele>
        <time>2022-07-24T06:36:43Z</time>
      </trkpt>
      <trkpt lat="42.6976720" lon="-0.0355850">
        <ele>2581.4</ele>
        <time>2022-07-24T06:36:46Z</time>
      </trkpt>
      <trkpt lat="42.6976950" lon="-0.0355960">
        <ele>2580.4</ele>
        <time>2022-07-24T06:36:49Z</time>
      </trkpt>
      <trkpt lat="42.6977040" lon="-0.0355980">
        <ele>2580.2</ele>
        <time>2022-07-24T06:36:50Z</time>
      </trkpt>
      <trkpt lat="42.6977080" lon="-0.0356010">
        <ele>2579.8</ele>
        <time>2022-07-24T06:36:51Z</time>
      </trkpt>
      <trkpt lat="42.6977160" lon="-0.0356060">
        <ele>2579.6</ele>
        <time>2022-07-24T06:36:52Z</time>
      </trkpt>
      <trkpt lat="42.6977440" lon="-0.0355980">
        <ele>2578.6</ele>
        <time>2022-07-24T06:36:57Z</time>
      </trkpt>
      <trkpt lat="42.6977490" lon="-0.0355980">
        <ele>2578.0</ele>
        <time>2022-07-24T06:36:58Z</time>
      </trkpt>
      <trkpt lat="42.6977610" lon="-0.0356030">
        <ele>2577.4</ele>
        <time>2022-07-24T06:37:00Z</time>
      </trkpt>
      <trkpt lat="42.6978130" lon="-0.0356720">
        <ele>2575.4</ele>
        <time>2022-07-24T06:37:10Z</time>
      </trkpt>
      <trkpt lat="42.6978200" lon="-0.0356980">
        <ele>2574.8</ele>
        <time>2022-07-24T06:37:12Z</time>
      </trkpt>
      <trkpt lat="42.6978240" lon="-0.0357200">
        <ele>2574.6</ele>
        <time>2022-07-24T06:37:14Z</time>
      </trkpt>
      <trkpt lat="42.6978450" lon="-0.0357670">
        <ele>2574.0</ele>
        <time>2022-07-24T06:37:21Z</time>
      </trkpt>
      <trkpt lat="42.6978570" lon="-0.0357570">
        <ele>2573.8</ele>
        <time>2022-07-24T06:37:23Z</time>
      </trkpt>
      <trkpt lat="42.6978710" lon="-0.0357350">
        <ele>2573.0</ele>
        <time>2022-07-24T06:37:26Z</time>
      </trkpt>
      <trkpt lat="42.6979200" lon="-0.0357220">
        <ele>2571.8</ele>
        <time>2022-07-24T06:37:32Z</time>
      </trkpt>
      <trkpt lat="42.6979260" lon="-0.0357280">
        <ele>2571.8</ele>
        <time>2022-07-24T06:37:33Z</time>
      </trkpt>
      <trkpt lat="42.6979500" lon="-0.0357680">
        <ele>2570.6</ele>
        <time>2022-07-24T06:37:37Z</time>
      </trkpt>
      <trkpt lat="42.6979550" lon="-0.0357760">
        <ele>2570.6</ele>
        <time>2022-07-24T06:37:38Z</time>
      </trkpt>
      <trkpt lat="42.6979760" lon="-0.0357800">
        <ele>2569.8</ele>
        <time>2022-07-24T06:37:40Z</time>
      </trkpt>
      <trkpt lat="42.6980000" lon="-0.0357650">
        <ele>2569.2</ele>
        <time>2022-07-24T06:37:42Z</time>
      </trkpt>
      <trkpt lat="42.6980190" lon="-0.0357540">
        <ele>2568.8</ele>
        <time>2022-07-24T06:37:44Z</time>
      </trkpt>
      <trkpt lat="42.6980450" lon="-0.0357610">
        <ele>2567.8</ele>
        <time>2022-07-24T06:37:47Z</time>
      </trkpt>
      <trkpt lat="42.6980500" lon="-0.0357660">
        <ele>2567.4</ele>
        <time>2022-07-24T06:37:48Z</time>
      </trkpt>
      <trkpt lat="42.6980560" lon="-0.0358070">
        <ele>2566.4</ele>
        <time>2022-07-24T06:37:52Z</time>
      </trkpt>
      <trkpt lat="42.6980600" lon="-0.0358210">
        <ele>2566.4</ele>
        <time>2022-07-24T06:37:53Z</time>
      </trkpt>
      <trkpt lat="42.6981000" lon="-0.0358670">
        <ele>2564.4</ele>
        <time>2022-07-24T06:38:00Z</time>
      </trkpt>
      <trkpt lat="42.6981090" lon="-0.0358800">
        <ele>2564.2</ele>
        <time>2022-07-24T06:38:01Z</time>
      </trkpt>
      <trkpt lat="42.6981190" lon="-0.0358910">
        <ele>2563.8</ele>
        <time>2022-07-24T06:38:02Z</time>
      </trkpt>
      <trkpt lat="42.6981280" lon="-0.0359050">
        <ele>2563.4</ele>
        <time>2022-07-24T06:38:03Z</time>
      </trkpt>
      <trkpt lat="42.6981580" lon="-0.0359660">
        <ele>2563.0</ele>
        <time>2022-07-24T06:38:07Z</time>
      </trkpt>
      <trkpt lat="42.6982030" lon="-0.0360010">
        <ele>2562.4</ele>
        <time>2022-07-24T06:38:11Z</time>
      </trkpt>
      <trkpt lat="42.6982350" lon="-0.0360510">
        <ele>2561.0</ele>
        <time>2022-07-24T06:38:14Z</time>
      </trkpt>
      <trkpt lat="42.6982410" lon="-0.0360700">
        <ele>2560.4</ele>
        <time>2022-07-24T06:38:15Z</time>
      </trkpt>
      <trkpt lat="42.6982560" lon="-0.0361010">
        <ele>2560.0</ele>
        <time>2022-07-24T06:38:17Z</time>
      </trkpt>
      <trkpt lat="42.6982630" lon="-0.0361160">
        <ele>2559.8</ele>
        <time>2022-07-24T06:38:18Z</time>
      </trkpt>
      <trkpt lat="42.6982770" lon="-0.0361100">
        <ele>2558.8</ele>
        <time>2022-07-24T06:38:22Z</time>
      </trkpt>
      <trkpt lat="42.6982970" lon="-0.0360850">
        <ele>2557.8</ele>
        <time>2022-07-24T06:38:25Z</time>
      </trkpt>
      <trkpt lat="42.6983060" lon="-0.0360750">
        <ele>2557.8</ele>
        <time>2022-07-24T06:38:26Z</time>
      </trkpt>
      <trkpt lat="42.6983160" lon="-0.0360600">
        <ele>2557.6</ele>
        <time>2022-07-24T06:38:27Z</time>
      </trkpt>
      <trkpt lat="42.6983760" lon="-0.0360420">
        <ele>2556.0</ele>
        <time>2022-07-24T06:38:34Z</time>
      </trkpt>
      <trkpt lat="42.6983850" lon="-0.0360360">
        <ele>2555.8</ele>
        <time>2022-07-24T06:38:35Z</time>
      </trkpt>
      <trkpt lat="42.6983970" lon="-0.0360160">
        <ele>2555.4</ele>
        <time>2022-07-24T06:38:38Z</time>
      </trkpt>
      <trkpt lat="42.6983980" lon="-0.0360070">
        <ele>2555.4</ele>
        <time>2022-07-24T06:38:39Z</time>
      </trkpt>
      <trkpt lat="42.6984060" lon="-0.0359950">
        <ele>2555.0</ele>
        <time>2022-07-24T06:38:41Z</time>
      </trkpt>
      <trkpt lat="42.6984070" lon="-0.0359980">
        <ele>2554.6</ele>
        <time>2022-07-24T06:38:42Z</time>
      </trkpt>
      <trkpt lat="42.6984100" lon="-0.0360010">
        <ele>2554.6</ele>
        <time>2022-07-24T06:38:43Z</time>
      </trkpt>
      <trkpt lat="42.6984160" lon="-0.0360070">
        <ele>2554.4</ele>
        <time>2022-07-24T06:38:45Z</time>
      </trkpt>
      <trkpt lat="42.6984350" lon="-0.0360270">
        <ele>2553.6</ele>
        <time>2022-07-24T06:38:48Z</time>
      </trkpt>
      <trkpt lat="42.6984520" lon="-0.0361230">
        <ele>2551.8</ele>
        <time>2022-07-24T06:38:56Z</time>
      </trkpt>
      <trkpt lat="42.6984520" lon="-0.0361470">
        <ele>2551.6</ele>
        <time>2022-07-24T06:38:58Z</time>
      </trkpt>
      <trkpt lat="42.6984510" lon="-0.0361500">
        <ele>2551.4</ele>
        <time>2022-07-24T06:38:59Z</time>
      </trkpt>
      <trkpt lat="42.6984500" lon="-0.0361530">
        <ele>2551.0</ele>
        <time>2022-07-24T06:39:00Z</time>
      </trkpt>
      <trkpt lat="42.6984590" lon="-0.0361830">
        <ele>2550.6</ele>
        <time>2022-07-24T06:39:03Z</time>
      </trkpt>
      <trkpt lat="42.6984760" lon="-0.0362070">
        <ele>2549.4</ele>
        <time>2022-07-24T06:39:07Z</time>
      </trkpt>
      <trkpt lat="42.6984730" lon="-0.0362220">
        <ele>2549.2</ele>
        <time>2022-07-24T06:39:09Z</time>
      </trkpt>
      <trkpt lat="42.6984730" lon="-0.0362410">
        <ele>2548.6</ele>
        <time>2022-07-24T06:39:11Z</time>
      </trkpt>
      <trkpt lat="42.6984690" lon="-0.0362800">
        <ele>2546.8</ele>
        <time>2022-07-24T06:39:17Z</time>
      </trkpt>
      <trkpt lat="42.6984690" lon="-0.0362850">
        <ele>2546.6</ele>
        <time>2022-07-24T06:39:18Z</time>
      </trkpt>
      <trkpt lat="42.6984680" lon="-0.0362890">
        <ele>2546.2</ele>
        <time>2022-07-24T06:39:19Z</time>
      </trkpt>
      <trkpt lat="42.6984700" lon="-0.0362870">
        <ele>2545.8</ele>
        <time>2022-07-24T06:39:20Z</time>
      </trkpt>
      <trkpt lat="42.6984700" lon="-0.0362820">
        <ele>2545.4</ele>
        <time>2022-07-24T06:39:21Z</time>
      </trkpt>
      <trkpt lat="42.6985180" lon="-0.0362810">
        <ele>2544.4</ele>
        <time>2022-07-24T06:39:28Z</time>
      </trkpt>
      <trkpt lat="42.6985270" lon="-0.0362820">
        <ele>2543.6</ele>
        <time>2022-07-24T06:39:29Z</time>
      </trkpt>
      <trkpt lat="42.6985350" lon="-0.0362800">
        <ele>2543.2</ele>
        <time>2022-07-24T06:39:30Z</time>
      </trkpt>
      <trkpt lat="42.6985430" lon="-0.0362780">
        <ele>2543.0</ele>
        <time>2022-07-24T06:39:31Z</time>
      </trkpt>
      <trkpt lat="42.6985550" lon="-0.0362710">
        <ele>2542.2</ele>
        <time>2022-07-24T06:39:35Z</time>
      </trkpt>
      <trkpt lat="42.6985850" lon="-0.0362600">
        <ele>2541.2</ele>
        <time>2022-07-24T06:39:39Z</time>
      </trkpt>
      <trkpt lat="42.6986080" lon="-0.0362560">
        <ele>2541.0</ele>
        <time>2022-07-24T06:39:42Z</time>
      </trkpt>
      <trkpt lat="42.6986310" lon="-0.0362530">
        <ele>2540.6</ele>
        <time>2022-07-24T06:39:44Z</time>
      </trkpt>
      <trkpt lat="42.6986860" lon="-0.0362280">
        <ele>2539.8</ele>
        <time>2022-07-24T06:39:48Z</time>
      </trkpt>
      <trkpt lat="42.6987150" lon="-0.0361930">
        <ele>2539.4</ele>
        <time>2022-07-24T06:39:51Z</time>
      </trkpt>
      <trkpt lat="42.6987650" lon="-0.0361270">
        <ele>2537.0</ele>
        <time>2022-07-24T06:40:00Z</time>
      </trkpt>
      <trkpt lat="42.6987780" lon="-0.0361030">
        <ele>2536.6</ele>
        <time>2022-07-24T06:40:03Z</time>
      </trkpt>
      <trkpt lat="42.6988100" lon="-0.0360670">
        <ele>2535.8</ele>
        <time>2022-07-24T06:40:10Z</time>
      </trkpt>
      <trkpt lat="42.6988230" lon="-0.0360490">
        <ele>2535.8</ele>
        <time>2022-07-24T06:40:14Z</time>
      </trkpt>
      <trkpt lat="42.6988270" lon="-0.0360450">
        <ele>2535.6</ele>
        <time>2022-07-24T06:40:15Z</time>
      </trkpt>
      <trkpt lat="42.6988420" lon="-0.0360570">
        <ele>2535.4</ele>
        <time>2022-07-24T06:40:18Z</time>
      </trkpt>
      <trkpt lat="42.6988670" lon="-0.0360520">
        <ele>2534.0</ele>
        <time>2022-07-24T06:40:24Z</time>
      </trkpt>
      <trkpt lat="42.6988760" lon="-0.0360530">
        <ele>2533.6</ele>
        <time>2022-07-24T06:40:26Z</time>
      </trkpt>
      <trkpt lat="42.6989060" lon="-0.0360580">
        <ele>2533.4</ele>
        <time>2022-07-24T06:40:30Z</time>
      </trkpt>
      <trkpt lat="42.6989110" lon="-0.0360570">
        <ele>2533.2</ele>
        <time>2022-07-24T06:40:31Z</time>
      </trkpt>
      <trkpt lat="42.6989150" lon="-0.0360620">
        <ele>2533.0</ele>
        <time>2022-07-24T06:40:32Z</time>
      </trkpt>
      <trkpt lat="42.6989260" lon="-0.0360800">
        <ele>2532.2</ele>
        <time>2022-07-24T06:40:35Z</time>
      </trkpt>
      <trkpt lat="42.6989290" lon="-0.0360810">
        <ele>2531.6</ele>
        <time>2022-07-24T06:40:36Z</time>
      </trkpt>
      <trkpt lat="42.6989300" lon="-0.0360810">
        <ele>2531.2</ele>
        <time>2022-07-24T06:40:37Z</time>
      </trkpt>
      <trkpt lat="42.6989300" lon="-0.0360810">
        <ele>2531.0</ele>
        <time>2022-07-24T06:40:38Z</time>
      </trkpt>
      <trkpt lat="42.6989280" lon="-0.0360870">
        <ele>2530.8</ele>
        <time>2022-07-24T06:40:39Z</time>
      </trkpt>
      <trkpt lat="42.6989310" lon="-0.0360950">
        <ele>2530.8</ele>
        <time>2022-07-24T06:40:40Z</time>
      </trkpt>
      <trkpt lat="42.6989300" lon="-0.0361000">
        <ele>2530.2</ele>
        <time>2022-07-24T06:40:41Z</time>
      </trkpt>
      <trkpt lat="42.6989270" lon="-0.0361080">
        <ele>2530.0</ele>
        <time>2022-07-24T06:40:42Z</time>
      </trkpt>
      <trkpt lat="42.6989260" lon="-0.0361200">
        <ele>2529.8</ele>
        <time>2022-07-24T06:40:44Z</time>
      </trkpt>
      <trkpt lat="42.6989310" lon="-0.0361420">
        <ele>2529.0</ele>
        <time>2022-07-24T06:40:48Z</time>
      </trkpt>
      <trkpt lat="42.6989260" lon="-0.0361600">
        <ele>2528.2</ele>
        <time>2022-07-24T06:40:52Z</time>
      </trkpt>
      <trkpt lat="42.6989290" lon="-0.0361580">
        <ele>2528.2</ele>
        <time>2022-07-24T06:40:53Z</time>
      </trkpt>
      <trkpt lat="42.6989370" lon="-0.0361590">
        <ele>2528.0</ele>
        <time>2022-07-24T06:40:54Z</time>
      </trkpt>
      <trkpt lat="42.6989560" lon="-0.0361560">
        <ele>2527.6</ele>
        <time>2022-07-24T06:40:56Z</time>
      </trkpt>
      <trkpt lat="42.6989600" lon="-0.0361660">
        <ele>2527.6</ele>
        <time>2022-07-24T06:40:57Z</time>
      </trkpt>
      <trkpt lat="42.6989660" lon="-0.0361670">
        <ele>2527.4</ele>
        <time>2022-07-24T06:40:58Z</time>
      </trkpt>
      <trkpt lat="42.6990060" lon="-0.0361610">
        <ele>2524.6</ele>
        <time>2022-07-24T06:41:09Z</time>
      </trkpt>
      <trkpt lat="42.6990100" lon="-0.0361620">
        <ele>2524.6</ele>
        <time>2022-07-24T06:41:10Z</time>
      </trkpt>
      <trkpt lat="42.6990110" lon="-0.0361590">
        <ele>2524.4</ele>
        <time>2022-07-24T06:41:12Z</time>
      </trkpt>
      <trkpt lat="42.6990180" lon="-0.0361580">
        <ele>2524.4</ele>
        <time>2022-07-24T06:41:13Z</time>
      </trkpt>
      <trkpt lat="42.6990160" lon="-0.0361700">
        <ele>2524.2</ele>
        <time>2022-07-24T06:41:14Z</time>
      </trkpt>
      <trkpt lat="42.6990350" lon="-0.0361610">
        <ele>2524.0</ele>
        <time>2022-07-24T06:41:17Z</time>
      </trkpt>
      <trkpt lat="42.6990450" lon="-0.0361570">
        <ele>2523.8</ele>
        <time>2022-07-24T06:41:18Z</time>
      </trkpt>
      <trkpt lat="42.6990150" lon="-0.0362700">
        <ele>2523.6</ele>
        <time>2022-07-24T06:41:19Z</time>
      </trkpt>
      <trkpt lat="42.6990170" lon="-0.0362740">
        <ele>2523.4</ele>
        <time>2022-07-24T06:41:20Z</time>
      </trkpt>
      <trkpt lat="42.6990280" lon="-0.0362850">
        <ele>2522.6</ele>
        <time>2022-07-24T06:41:22Z</time>
      </trkpt>
      <trkpt lat="42.6990070" lon="-0.0363690">
        <ele>2521.0</ele>
        <time>2022-07-24T06:41:26Z</time>
      </trkpt>
      <trkpt lat="42.6990070" lon="-0.0363730">
        <ele>2520.8</ele>
        <time>2022-07-24T06:41:27Z</time>
      </trkpt>
      <trkpt lat="42.6990200" lon="-0.0363730">
        <ele>2519.8</ele>
        <time>2022-07-24T06:41:29Z</time>
      </trkpt>
      <trkpt lat="42.6990230" lon="-0.0363870">
        <ele>2519.0</ele>
        <time>2022-07-24T06:41:31Z</time>
      </trkpt>
      <trkpt lat="42.6990280" lon="-0.0364210">
        <ele>2517.0</ele>
        <time>2022-07-24T06:41:38Z</time>
      </trkpt>
      <trkpt lat="42.6990250" lon="-0.0364280">
        <ele>2516.6</ele>
        <time>2022-07-24T06:41:39Z</time>
      </trkpt>
      <trkpt lat="42.6990420" lon="-0.0364560">
        <ele>2515.8</ele>
        <time>2022-07-24T06:41:43Z</time>
      </trkpt>
      <trkpt lat="42.6990540" lon="-0.0364550">
        <ele>2515.4</ele>
        <time>2022-07-24T06:41:44Z</time>
      </trkpt>
      <trkpt lat="42.6990630" lon="-0.0364600">
        <ele>2515.4</ele>
        <time>2022-07-24T06:41:45Z</time>
      </trkpt>
      <trkpt lat="42.6990720" lon="-0.0364580">
        <ele>2515.2</ele>
        <time>2022-07-24T06:41:47Z</time>
      </trkpt>
      <trkpt lat="42.6990810" lon="-0.0364440">
        <ele>2514.4</ele>
        <time>2022-07-24T06:41:48Z</time>
      </trkpt>
      <trkpt lat="42.6990940" lon="-0.0364330">
        <ele>2514.0</ele>
        <time>2022-07-24T06:41:49Z</time>
      </trkpt>
      <trkpt lat="42.6991060" lon="-0.0364130">
        <ele>2513.4</ele>
        <time>2022-07-24T06:41:50Z</time>
      </trkpt>
      <trkpt lat="42.6991510" lon="-0.0363650">
        <ele>2512.2</ele>
        <time>2022-07-24T06:41:55Z</time>
      </trkpt>
      <trkpt lat="42.6991620" lon="-0.0363650">
        <ele>2511.4</ele>
        <time>2022-07-24T06:41:57Z</time>
      </trkpt>
      <trkpt lat="42.6991460" lon="-0.0364120">
        <ele>2510.0</ele>
        <time>2022-07-24T06:42:03Z</time>
      </trkpt>
      <trkpt lat="42.6991420" lon="-0.0364140">
        <ele>2510.0</ele>
        <time>2022-07-24T06:42:04Z</time>
      </trkpt>
      <trkpt lat="42.6991380" lon="-0.0364210">
        <ele>2509.2</ele>
        <time>2022-07-24T06:42:06Z</time>
      </trkpt>
      <trkpt lat="42.6991410" lon="-0.0364310">
        <ele>2509.0</ele>
        <time>2022-07-24T06:42:07Z</time>
      </trkpt>
      <trkpt lat="42.6991560" lon="-0.0364230">
        <ele>2508.2</ele>
        <time>2022-07-24T06:42:09Z</time>
      </trkpt>
      <trkpt lat="42.6991730" lon="-0.0364230">
        <ele>2507.6</ele>
        <time>2022-07-24T06:42:11Z</time>
      </trkpt>
      <trkpt lat="42.6991830" lon="-0.0364230">
        <ele>2507.6</ele>
        <time>2022-07-24T06:42:12Z</time>
      </trkpt>
      <trkpt lat="42.6991930" lon="-0.0364270">
        <ele>2507.4</ele>
        <time>2022-07-24T06:42:13Z</time>
      </trkpt>
      <trkpt lat="42.6992280" lon="-0.0364390">
        <ele>2506.8</ele>
        <time>2022-07-24T06:42:16Z</time>
      </trkpt>
      <trkpt lat="42.6992210" lon="-0.0364880">
        <ele>2506.4</ele>
        <time>2022-07-24T06:42:17Z</time>
      </trkpt>
      <trkpt lat="42.6992310" lon="-0.0365080">
        <ele>2505.6</ele>
        <time>2022-07-24T06:42:21Z</time>
      </trkpt>
      <trkpt lat="42.6992020" lon="-0.0365860">
        <ele>2504.6</ele>
        <time>2022-07-24T06:42:25Z</time>
      </trkpt>
      <trkpt lat="42.6992050" lon="-0.0365890">
        <ele>2504.6</ele>
        <time>2022-07-24T06:42:26Z</time>
      </trkpt>
      <trkpt lat="42.6992080" lon="-0.0365940">
        <ele>2503.8</ele>
        <time>2022-07-24T06:42:27Z</time>
      </trkpt>
      <trkpt lat="42.6992080" lon="-0.0365990">
        <ele>2503.2</ele>
        <time>2022-07-24T06:42:28Z</time>
      </trkpt>
      <trkpt lat="42.6992100" lon="-0.0366030">
        <ele>2502.8</ele>
        <time>2022-07-24T06:42:29Z</time>
      </trkpt>
      <trkpt lat="42.6992130" lon="-0.0366330">
        <ele>2501.4</ele>
        <time>2022-07-24T06:42:33Z</time>
      </trkpt>
      <trkpt lat="42.6992110" lon="-0.0366370">
        <ele>2501.4</ele>
        <time>2022-07-24T06:42:35Z</time>
      </trkpt>
      <trkpt lat="42.6992120" lon="-0.0366590">
        <ele>2500.6</ele>
        <time>2022-07-24T06:42:37Z</time>
      </trkpt>
      <trkpt lat="42.6992190" lon="-0.0367260">
        <ele>2499.8</ele>
        <time>2022-07-24T06:42:41Z</time>
      </trkpt>
      <trkpt lat="42.6992010" lon="-0.0368190">
        <ele>2498.8</ele>
        <time>2022-07-24T06:42:46Z</time>
      </trkpt>
      <trkpt lat="42.6992070" lon="-0.0368370">
        <ele>2498.8</ele>
        <time>2022-07-24T06:42:47Z</time>
      </trkpt>
      <trkpt lat="42.6992420" lon="-0.0368700">
        <ele>2498.4</ele>
        <time>2022-07-24T06:42:52Z</time>
      </trkpt>
      <trkpt lat="42.6992510" lon="-0.0368770">
        <ele>2498.2</ele>
        <time>2022-07-24T06:42:53Z</time>
      </trkpt>
      <trkpt lat="42.6992580" lon="-0.0368810">
        <ele>2498.2</ele>
        <time>2022-07-24T06:42:54Z</time>
      </trkpt>
      <trkpt lat="42.6992760" lon="-0.0369020">
        <ele>2497.4</ele>
        <time>2022-07-24T06:42:57Z</time>
      </trkpt>
      <trkpt lat="42.6992760" lon="-0.0369020">
        <ele>2497.2</ele>
        <time>2022-07-24T06:42:58Z</time>
      </trkpt>
      <trkpt lat="42.6992780" lon="-0.0369000">
        <ele>2496.8</ele>
        <time>2022-07-24T06:42:59Z</time>
      </trkpt>
      <trkpt lat="42.6992870" lon="-0.0369070">
        <ele>2495.6</ele>
        <time>2022-07-24T06:43:02Z</time>
      </trkpt>
      <trkpt lat="42.6992920" lon="-0.0369080">
        <ele>2495.0</ele>
        <time>2022-07-24T06:43:04Z</time>
      </trkpt>
      <trkpt lat="42.6992940" lon="-0.0369160">
        <ele>2494.6</ele>
        <time>2022-07-24T06:43:05Z</time>
      </trkpt>
      <trkpt lat="42.6993090" lon="-0.0369590">
        <ele>2493.6</ele>
        <time>2022-07-24T06:43:11Z</time>
      </trkpt>
      <trkpt lat="42.6993250" lon="-0.0369770">
        <ele>2492.8</ele>
        <time>2022-07-24T06:43:13Z</time>
      </trkpt>
      <trkpt lat="42.6993670" lon="-0.0370520">
        <ele>2491.6</ele>
        <time>2022-07-24T06:43:17Z</time>
      </trkpt>
      <trkpt lat="42.6993910" lon="-0.0370860">
        <ele>2490.2</ele>
        <time>2022-07-24T06:43:20Z</time>
      </trkpt>
      <trkpt lat="42.6994040" lon="-0.0370980">
        <ele>2490.2</ele>
        <time>2022-07-24T06:43:21Z</time>
      </trkpt>
      <trkpt lat="42.6994100" lon="-0.0371110">
        <ele>2489.8</ele>
        <time>2022-07-24T06:43:22Z</time>
      </trkpt>
      <trkpt lat="42.6994210" lon="-0.0371250">
        <ele>2489.8</ele>
        <time>2022-07-24T06:43:23Z</time>
      </trkpt>
      <trkpt lat="42.6994320" lon="-0.0371360">
        <ele>2489.4</ele>
        <time>2022-07-24T06:43:24Z</time>
      </trkpt>
      <trkpt lat="42.6994420" lon="-0.0371500">
        <ele>2489.2</ele>
        <time>2022-07-24T06:43:26Z</time>
      </trkpt>
      <trkpt lat="42.6994540" lon="-0.0371680">
        <ele>2489.0</ele>
        <time>2022-07-24T06:43:27Z</time>
      </trkpt>
      <trkpt lat="42.6994580" lon="-0.0371730">
        <ele>2488.2</ele>
        <time>2022-07-24T06:43:29Z</time>
      </trkpt>
      <trkpt lat="42.6994510" lon="-0.0371720">
        <ele>2488.2</ele>
        <time>2022-07-24T06:43:30Z</time>
      </trkpt>
      <trkpt lat="42.6994300" lon="-0.0371940">
        <ele>2487.8</ele>
        <time>2022-07-24T06:43:32Z</time>
      </trkpt>
      <trkpt lat="42.6994240" lon="-0.0372030">
        <ele>2487.6</ele>
        <time>2022-07-24T06:43:33Z</time>
      </trkpt>
      <trkpt lat="42.6994230" lon="-0.0372180">
        <ele>2487.0</ele>
        <time>2022-07-24T06:43:35Z</time>
      </trkpt>
      <trkpt lat="42.6994280" lon="-0.0372240">
        <ele>2487.0</ele>
        <time>2022-07-24T06:43:36Z</time>
      </trkpt>
      <trkpt lat="42.6994240" lon="-0.0372300">
        <ele>2486.6</ele>
        <time>2022-07-24T06:43:38Z</time>
      </trkpt>
      <trkpt lat="42.6994180" lon="-0.0372410">
        <ele>2486.0</ele>
        <time>2022-07-24T06:43:40Z</time>
      </trkpt>
      <trkpt lat="42.6994140" lon="-0.0372500">
        <ele>2485.6</ele>
        <time>2022-07-24T06:43:42Z</time>
      </trkpt>
      <trkpt lat="42.6993380" lon="-0.0372380">
        <ele>2484.8</ele>
        <time>2022-07-24T06:43:48Z</time>
      </trkpt>
      <trkpt lat="42.6993270" lon="-0.0372400">
        <ele>2484.8</ele>
        <time>2022-07-24T06:43:49Z</time>
      </trkpt>
      <trkpt lat="42.6993230" lon="-0.0372420">
        <ele>2484.6</ele>
        <time>2022-07-24T06:43:50Z</time>
      </trkpt>
      <trkpt lat="42.6993140" lon="-0.0372420">
        <ele>2484.6</ele>
        <time>2022-07-24T06:43:51Z</time>
      </trkpt>
      <trkpt lat="42.6992950" lon="-0.0372530">
        <ele>2484.4</ele>
        <time>2022-07-24T06:43:56Z</time>
      </trkpt>
      <trkpt lat="42.6992870" lon="-0.0372610">
        <ele>2484.8</ele>
        <time>2022-07-24T06:44:02Z</time>
      </trkpt>
      <trkpt lat="42.6992780" lon="-0.0372660">
        <ele>2485.0</ele>
        <time>2022-07-24T06:44:05Z</time>
      </trkpt>
      <trkpt lat="42.6992900" lon="-0.0372580">
        <ele>2485.0</ele>
        <time>2022-07-24T06:44:07Z</time>
      </trkpt>
      <trkpt lat="42.6993660" lon="-0.0372560">
        <ele>2485.6</ele>
        <time>2022-07-24T06:44:14Z</time>
      </trkpt>
      <trkpt lat="42.6993690" lon="-0.0372580">
        <ele>2485.4</ele>
        <time>2022-07-24T06:44:15Z</time>
      </trkpt>
      <trkpt lat="42.6994060" lon="-0.0372880">
        <ele>2485.6</ele>
        <time>2022-07-24T06:44:19Z</time>
      </trkpt>
      <trkpt lat="42.6994170" lon="-0.0372950">
        <ele>2485.4</ele>
        <time>2022-07-24T06:44:20Z</time>
      </trkpt>
      <trkpt lat="42.6994300" lon="-0.0373000">
        <ele>2485.6</ele>
        <time>2022-07-24T06:44:21Z</time>
      </trkpt>
      <trkpt lat="42.6994370" lon="-0.0373090">
        <ele>2485.6</ele>
        <time>2022-07-24T06:44:22Z</time>
      </trkpt>
      <trkpt lat="42.6994390" lon="-0.0373140">
        <ele>2485.4</ele>
        <time>2022-07-24T06:44:23Z</time>
      </trkpt>
      <trkpt lat="42.6994920" lon="-0.0373160">
        <ele>2485.2</ele>
        <time>2022-07-24T06:44:26Z</time>
      </trkpt>
      <trkpt lat="42.6995020" lon="-0.0373190">
        <ele>2485.2</ele>
        <time>2022-07-24T06:44:27Z</time>
      </trkpt>
      <trkpt lat="42.6995260" lon="-0.0373270">
        <ele>2485.0</ele>
        <time>2022-07-24T06:44:29Z</time>
      </trkpt>
      <trkpt lat="42.6995540" lon="-0.0373330">
        <ele>2483.8</ele>
        <time>2022-07-24T06:44:32Z</time>
      </trkpt>
      <trkpt lat="42.6995760" lon="-0.0373580">
        <ele>2482.8</ele>
        <time>2022-07-24T06:44:37Z</time>
      </trkpt>
      <trkpt lat="42.6995610" lon="-0.0373700">
        <ele>2482.2</ele>
        <time>2022-07-24T06:44:40Z</time>
      </trkpt>
      <trkpt lat="42.6995880" lon="-0.0373720">
        <ele>2481.8</ele>
        <time>2022-07-24T06:44:42Z</time>
      </trkpt>
      <trkpt lat="42.6996090" lon="-0.0373860">
        <ele>2481.2</ele>
        <time>2022-07-24T06:44:44Z</time>
      </trkpt>
      <trkpt lat="42.6996160" lon="-0.0373980">
        <ele>2481.0</ele>
        <time>2022-07-24T06:44:45Z</time>
      </trkpt>
      <trkpt lat="42.6996590" lon="-0.0374320">
        <ele>2479.4</ele>
        <time>2022-07-24T06:44:50Z</time>
      </trkpt>
      <trkpt lat="42.6996690" lon="-0.0374780">
        <ele>2478.8</ele>
        <time>2022-07-24T06:44:56Z</time>
      </trkpt>
      <trkpt lat="42.6996450" lon="-0.0375000">
        <ele>2478.6</ele>
        <time>2022-07-24T06:44:58Z</time>
      </trkpt>
      <trkpt lat="42.6996430" lon="-0.0375120">
        <ele>2478.4</ele>
        <time>2022-07-24T06:44:59Z</time>
      </trkpt>
      <trkpt lat="42.6996640" lon="-0.0375560">
        <ele>2478.2</ele>
        <time>2022-07-24T06:45:03Z</time>
      </trkpt>
      <trkpt lat="42.6996860" lon="-0.0375730">
        <ele>2477.8</ele>
        <time>2022-07-24T06:45:05Z</time>
      </trkpt>
      <trkpt lat="42.6996940" lon="-0.0375830">
        <ele>2477.6</ele>
        <time>2022-07-24T06:45:06Z</time>
      </trkpt>
      <trkpt lat="42.6997260" lon="-0.0376010">
        <ele>2476.6</ele>
        <time>2022-07-24T06:45:09Z</time>
      </trkpt>
      <trkpt lat="42.6997490" lon="-0.0376410">
        <ele>2476.4</ele>
        <time>2022-07-24T06:45:12Z</time>
      </trkpt>
      <trkpt lat="42.6997580" lon="-0.0376570">
        <ele>2476.2</ele>
        <time>2022-07-24T06:45:13Z</time>
      </trkpt>
      <trkpt lat="42.6997870" lon="-0.0377370">
        <ele>2474.8</ele>
        <time>2022-07-24T06:45:20Z</time>
      </trkpt>
      <trkpt lat="42.6998180" lon="-0.0377710">
        <ele>2474.0</ele>
        <time>2022-07-24T06:45:25Z</time>
      </trkpt>
      <trkpt lat="42.6998460" lon="-0.0377950">
        <ele>2473.8</ele>
        <time>2022-07-24T06:45:28Z</time>
      </trkpt>
      <trkpt lat="42.6998710" lon="-0.0377990">
        <ele>2473.6</ele>
        <time>2022-07-24T06:45:29Z</time>
      </trkpt>
      <trkpt lat="42.6999030" lon="-0.0378130">
        <ele>2473.0</ele>
        <time>2022-07-24T06:45:31Z</time>
      </trkpt>
      <trkpt lat="42.6999190" lon="-0.0378220">
        <ele>2472.8</ele>
        <time>2022-07-24T06:45:32Z</time>
      </trkpt>
      <trkpt lat="42.6999310" lon="-0.0378380">
        <ele>2472.6</ele>
        <time>2022-07-24T06:45:33Z</time>
      </trkpt>
      <trkpt lat="42.6999480" lon="-0.0378540">
        <ele>2472.4</ele>
        <time>2022-07-24T06:45:34Z</time>
      </trkpt>
      <trkpt lat="42.6999640" lon="-0.0378760">
        <ele>2471.6</ele>
        <time>2022-07-24T06:45:36Z</time>
      </trkpt>
      <trkpt lat="42.6999750" lon="-0.0378800">
        <ele>2471.4</ele>
        <time>2022-07-24T06:45:37Z</time>
      </trkpt>
      <trkpt lat="42.6998850" lon="-0.0379330">
        <ele>2471.0</ele>
        <time>2022-07-24T06:45:40Z</time>
      </trkpt>
      <trkpt lat="42.6998440" lon="-0.0379690">
        <ele>2470.2</ele>
        <time>2022-07-24T06:45:42Z</time>
      </trkpt>
      <trkpt lat="42.6998570" lon="-0.0379750">
        <ele>2469.8</ele>
        <time>2022-07-24T06:45:43Z</time>
      </trkpt>
      <trkpt lat="42.6998910" lon="-0.0380020">
        <ele>2469.4</ele>
        <time>2022-07-24T06:45:46Z</time>
      </trkpt>
      <trkpt lat="42.6998930" lon="-0.0380110">
        <ele>2469.4</ele>
        <time>2022-07-24T06:45:47Z</time>
      </trkpt>
      <trkpt lat="42.6999050" lon="-0.0380230">
        <ele>2469.0</ele>
        <time>2022-07-24T06:45:48Z</time>
      </trkpt>
      <trkpt lat="42.6999280" lon="-0.0380450">
        <ele>2468.6</ele>
        <time>2022-07-24T06:45:50Z</time>
      </trkpt>
      <trkpt lat="42.6999520" lon="-0.0380720">
        <ele>2468.4</ele>
        <time>2022-07-24T06:45:53Z</time>
      </trkpt>
      <trkpt lat="42.6999770" lon="-0.0381010">
        <ele>2468.0</ele>
        <time>2022-07-24T06:45:54Z</time>
      </trkpt>
      <trkpt lat="42.7000240" lon="-0.0381410">
        <ele>2467.6</ele>
        <time>2022-07-24T06:45:57Z</time>
      </trkpt>
      <trkpt lat="42.7000490" lon="-0.0381540">
        <ele>2467.6</ele>
        <time>2022-07-24T06:45:58Z</time>
      </trkpt>
      <trkpt lat="42.7000660" lon="-0.0381720">
        <ele>2467.2</ele>
        <time>2022-07-24T06:46:00Z</time>
      </trkpt>
      <trkpt lat="42.7000930" lon="-0.0382010">
        <ele>2466.8</ele>
        <time>2022-07-24T06:46:02Z</time>
      </trkpt>
      <trkpt lat="42.7001360" lon="-0.0382220">
        <ele>2465.2</ele>
        <time>2022-07-24T06:46:07Z</time>
      </trkpt>
      <trkpt lat="42.7001420" lon="-0.0381830">
        <ele>2464.8</ele>
        <time>2022-07-24T06:46:09Z</time>
      </trkpt>
      <trkpt lat="42.7001350" lon="-0.0381310">
        <ele>2463.4</ele>
        <time>2022-07-24T06:46:12Z</time>
      </trkpt>
      <trkpt lat="42.7001250" lon="-0.0380800">
        <ele>2462.6</ele>
        <time>2022-07-24T06:46:15Z</time>
      </trkpt>
      <trkpt lat="42.7001420" lon="-0.0379980">
        <ele>2461.0</ele>
        <time>2022-07-24T06:46:21Z</time>
      </trkpt>
      <trkpt lat="42.7001460" lon="-0.0379880">
        <ele>2460.8</ele>
        <time>2022-07-24T06:46:22Z</time>
      </trkpt>
      <trkpt lat="42.7001540" lon="-0.0379700">
        <ele>2459.4</ele>
        <time>2022-07-24T06:46:26Z</time>
      </trkpt>
      <trkpt lat="42.7001540" lon="-0.0379540">
        <ele>2459.0</ele>
        <time>2022-07-24T06:46:28Z</time>
      </trkpt>
      <trkpt lat="42.7001470" lon="-0.0379450">
        <ele>2459.0</ele>
        <time>2022-07-24T06:46:29Z</time>
      </trkpt>
      <trkpt lat="42.7001400" lon="-0.0379280">
        <ele>2458.4</ele>
        <time>2022-07-24T06:46:31Z</time>
      </trkpt>
      <trkpt lat="42.7001570" lon="-0.0379050">
        <ele>2457.0</ele>
        <time>2022-07-24T06:46:36Z</time>
      </trkpt>
      <trkpt lat="42.7001760" lon="-0.0379110">
        <ele>2456.6</ele>
        <time>2022-07-24T06:46:38Z</time>
      </trkpt>
      <trkpt lat="42.7001860" lon="-0.0379130">
        <ele>2456.4</ele>
        <time>2022-07-24T06:46:39Z</time>
      </trkpt>
      <trkpt lat="42.7002030" lon="-0.0379160">
        <ele>2456.0</ele>
        <time>2022-07-24T06:46:40Z</time>
      </trkpt>
      <trkpt lat="42.7002190" lon="-0.0379170">
        <ele>2455.8</ele>
        <time>2022-07-24T06:46:41Z</time>
      </trkpt>
      <trkpt lat="42.7002550" lon="-0.0379230">
        <ele>2455.0</ele>
        <time>2022-07-24T06:46:45Z</time>
      </trkpt>
      <trkpt lat="42.7002670" lon="-0.0379270">
        <ele>2454.6</ele>
        <time>2022-07-24T06:46:46Z</time>
      </trkpt>
      <trkpt lat="42.7003350" lon="-0.0379970">
        <ele>2452.2</ele>
        <time>2022-07-24T06:46:52Z</time>
      </trkpt>
      <trkpt lat="42.7003630" lon="-0.0380590">
        <ele>2451.6</ele>
        <time>2022-07-24T06:46:55Z</time>
      </trkpt>
      <trkpt lat="42.7004010" lon="-0.0380890">
        <ele>2450.8</ele>
        <time>2022-07-24T06:46:59Z</time>
      </trkpt>
      <trkpt lat="42.7004100" lon="-0.0380900">
        <ele>2450.4</ele>
        <time>2022-07-24T06:47:00Z</time>
      </trkpt>
      <trkpt lat="42.7005000" lon="-0.0381610">
        <ele>2449.0</ele>
        <time>2022-07-24T06:47:07Z</time>
      </trkpt>
      <trkpt lat="42.7005080" lon="-0.0381670">
        <ele>2448.8</ele>
        <time>2022-07-24T06:47:08Z</time>
      </trkpt>
      <trkpt lat="42.7005150" lon="-0.0381730">
        <ele>2448.4</ele>
        <time>2022-07-24T06:47:09Z</time>
      </trkpt>
      <trkpt lat="42.7005320" lon="-0.0381860">
        <ele>2447.6</ele>
        <time>2022-07-24T06:47:11Z</time>
      </trkpt>
      <trkpt lat="42.7005370" lon="-0.0381930">
        <ele>2447.2</ele>
        <time>2022-07-24T06:47:12Z</time>
      </trkpt>
      <trkpt lat="42.7005360" lon="-0.0382000">
        <ele>2447.0</ele>
        <time>2022-07-24T06:47:13Z</time>
      </trkpt>
      <trkpt lat="42.7005310" lon="-0.0382170">
        <ele>2446.8</ele>
        <time>2022-07-24T06:47:15Z</time>
      </trkpt>
      <trkpt lat="42.7005370" lon="-0.0382220">
        <ele>2446.6</ele>
        <time>2022-07-24T06:47:16Z</time>
      </trkpt>
      <trkpt lat="42.7005730" lon="-0.0382620">
        <ele>2444.0</ele>
        <time>2022-07-24T06:47:22Z</time>
      </trkpt>
      <trkpt lat="42.7005750" lon="-0.0382680">
        <ele>2443.6</ele>
        <time>2022-07-24T06:47:23Z</time>
      </trkpt>
      <trkpt lat="42.7005710" lon="-0.0382710">
        <ele>2443.0</ele>
        <time>2022-07-24T06:47:24Z</time>
      </trkpt>
      <trkpt lat="42.7005670" lon="-0.0382760">
        <ele>2442.2</ele>
        <time>2022-07-24T06:47:26Z</time>
      </trkpt>
      <trkpt lat="42.7005590" lon="-0.0382950">
        <ele>2441.8</ele>
        <time>2022-07-24T06:47:28Z</time>
      </trkpt>
      <trkpt lat="42.7005710" lon="-0.0383080">
        <ele>2441.4</ele>
        <time>2022-07-24T06:47:29Z</time>
      </trkpt>
      <trkpt lat="42.7005820" lon="-0.0383320">
        <ele>2440.8</ele>
        <time>2022-07-24T06:47:31Z</time>
      </trkpt>
      <trkpt lat="42.7005700" lon="-0.0384320">
        <ele>2437.6</ele>
        <time>2022-07-24T06:47:39Z</time>
      </trkpt>
      <trkpt lat="42.7005680" lon="-0.0384440">
        <ele>2437.0</ele>
        <time>2022-07-24T06:47:41Z</time>
      </trkpt>
      <trkpt lat="42.7005560" lon="-0.0384620">
        <ele>2437.0</ele>
        <time>2022-07-24T06:47:42Z</time>
      </trkpt>
      <trkpt lat="42.7005500" lon="-0.0384720">
        <ele>2437.0</ele>
        <time>2022-07-24T06:47:43Z</time>
      </trkpt>
      <trkpt lat="42.7005500" lon="-0.0384840">
        <ele>2436.6</ele>
        <time>2022-07-24T06:47:44Z</time>
      </trkpt>
      <trkpt lat="42.7005520" lon="-0.0385090">
        <ele>2436.0</ele>
        <time>2022-07-24T06:47:46Z</time>
      </trkpt>
      <trkpt lat="42.7005390" lon="-0.0385320">
        <ele>2435.4</ele>
        <time>2022-07-24T06:47:48Z</time>
      </trkpt>
      <trkpt lat="42.7005350" lon="-0.0385470">
        <ele>2435.0</ele>
        <time>2022-07-24T06:47:49Z</time>
      </trkpt>
      <trkpt lat="42.7005480" lon="-0.0386130">
        <ele>2432.6</ele>
        <time>2022-07-24T06:47:56Z</time>
      </trkpt>
      <trkpt lat="42.7005450" lon="-0.0386170">
        <ele>2432.0</ele>
        <time>2022-07-24T06:47:57Z</time>
      </trkpt>
      <trkpt lat="42.7005560" lon="-0.0386340">
        <ele>2431.4</ele>
        <time>2022-07-24T06:48:00Z</time>
      </trkpt>
      <trkpt lat="42.7005760" lon="-0.0386530">
        <ele>2431.4</ele>
        <time>2022-07-24T06:48:02Z</time>
      </trkpt>
      <trkpt lat="42.7005860" lon="-0.0386660">
        <ele>2431.2</ele>
        <time>2022-07-24T06:48:03Z</time>
      </trkpt>
      <trkpt lat="42.7006090" lon="-0.0387070">
        <ele>2430.6</ele>
        <time>2022-07-24T06:48:06Z</time>
      </trkpt>
      <trkpt lat="42.7006250" lon="-0.0387510">
        <ele>2430.2</ele>
        <time>2022-07-24T06:48:09Z</time>
      </trkpt>
      <trkpt lat="42.7006250" lon="-0.0387510">
        <ele>2429.8</ele>
        <time>2022-07-24T06:48:10Z</time>
      </trkpt>
      <trkpt lat="42.7006360" lon="-0.0387910">
        <ele>2429.4</ele>
        <time>2022-07-24T06:48:11Z</time>
      </trkpt>
      <trkpt lat="42.7006670" lon="-0.0388940">
        <ele>2427.8</ele>
        <time>2022-07-24T06:48:17Z</time>
      </trkpt>
      <trkpt lat="42.7006650" lon="-0.0389090">
        <ele>2427.4</ele>
        <time>2022-07-24T06:48:18Z</time>
      </trkpt>
      <trkpt lat="42.7006260" lon="-0.0389710">
        <ele>2425.6</ele>
        <time>2022-07-24T06:48:22Z</time>
      </trkpt>
      <trkpt lat="42.7006180" lon="-0.0390480">
        <ele>2425.0</ele>
        <time>2022-07-24T06:48:26Z</time>
      </trkpt>
      <trkpt lat="42.7006210" lon="-0.0390690">
        <ele>2424.4</ele>
        <time>2022-07-24T06:48:27Z</time>
      </trkpt>
      <trkpt lat="42.7006190" lon="-0.0390870">
        <ele>2424.2</ele>
        <time>2022-07-24T06:48:28Z</time>
      </trkpt>
      <trkpt lat="42.7006260" lon="-0.0391260">
        <ele>2423.4</ele>
        <time>2022-07-24T06:48:30Z</time>
      </trkpt>
      <trkpt lat="42.7006320" lon="-0.0391420">
        <ele>2423.2</ele>
        <time>2022-07-24T06:48:31Z</time>
      </trkpt>
      <trkpt lat="42.7006470" lon="-0.0391900">
        <ele>2421.8</ele>
        <time>2022-07-24T06:48:34Z</time>
      </trkpt>
      <trkpt lat="42.7006680" lon="-0.0392880">
        <ele>2420.4</ele>
        <time>2022-07-24T06:48:42Z</time>
      </trkpt>
      <trkpt lat="42.7006640" lon="-0.0392990">
        <ele>2420.2</ele>
        <time>2022-07-24T06:48:43Z</time>
      </trkpt>
      <trkpt lat="42.7006980" lon="-0.0393890">
        <ele>2419.6</ele>
        <time>2022-07-24T06:48:51Z</time>
      </trkpt>
      <trkpt lat="42.7006800" lon="-0.0393910">
        <ele>2419.6</ele>
        <time>2022-07-24T06:48:52Z</time>
      </trkpt>
      <trkpt lat="42.7006780" lon="-0.0394080">
        <ele>2419.6</ele>
        <time>2022-07-24T06:48:54Z</time>
      </trkpt>
      <trkpt lat="42.7006950" lon="-0.0394150">
        <ele>2419.6</ele>
        <time>2022-07-24T06:48:55Z</time>
      </trkpt>
      <trkpt lat="42.7007000" lon="-0.0394250">
        <ele>2419.6</ele>
        <time>2022-07-24T06:48:56Z</time>
      </trkpt>
      <trkpt lat="42.7006530" lon="-0.0394740">
        <ele>2419.8</ele>
        <time>2022-07-24T06:49:02Z</time>
      </trkpt>
      <trkpt lat="42.7006500" lon="-0.0394840">
        <ele>2420.0</ele>
        <time>2022-07-24T06:49:03Z</time>
      </trkpt>
      <trkpt lat="42.7006400" lon="-0.0395050">
        <ele>2419.8</ele>
        <time>2022-07-24T06:49:05Z</time>
      </trkpt>
      <trkpt lat="42.7006780" lon="-0.0395500">
        <ele>2419.8</ele>
        <time>2022-07-24T06:49:07Z</time>
      </trkpt>
      <trkpt lat="42.7006950" lon="-0.0395750">
        <ele>2419.8</ele>
        <time>2022-07-24T06:49:08Z</time>
      </trkpt>
      <trkpt lat="42.7007510" lon="-0.0397910">
        <ele>2419.4</ele>
        <time>2022-07-24T06:49:19Z</time>
      </trkpt>
      <trkpt lat="42.7007120" lon="-0.0398390">
        <ele>2419.4</ele>
        <time>2022-07-24T06:49:23Z</time>
      </trkpt>
      <trkpt lat="42.7006870" lon="-0.0398540">
        <ele>2419.2</ele>
        <time>2022-07-24T06:49:25Z</time>
      </trkpt>
      <trkpt lat="42.7006920" lon="-0.0398990">
        <ele>2419.4</ele>
        <time>2022-07-24T06:49:28Z</time>
      </trkpt>
      <trkpt lat="42.7006980" lon="-0.0399320">
        <ele>2419.4</ele>
        <time>2022-07-24T06:49:30Z</time>
      </trkpt>
      <trkpt lat="42.7006720" lon="-0.0399360">
        <ele>2419.2</ele>
        <time>2022-07-24T06:49:31Z</time>
      </trkpt>
      <trkpt lat="42.7006250" lon="-0.0399460">
        <ele>2419.4</ele>
        <time>2022-07-24T06:49:33Z</time>
      </trkpt>
      <trkpt lat="42.7005910" lon="-0.0399660">
        <ele>2419.4</ele>
        <time>2022-07-24T06:49:35Z</time>
      </trkpt>
      <trkpt lat="42.7005740" lon="-0.0399740">
        <ele>2419.4</ele>
        <time>2022-07-24T06:49:36Z</time>
      </trkpt>
      <trkpt lat="42.7005670" lon="-0.0399830">
        <ele>2419.4</ele>
        <time>2022-07-24T06:49:37Z</time>
      </trkpt>
      <trkpt lat="42.7005370" lon="-0.0399930">
        <ele>2419.2</ele>
        <time>2022-07-24T06:49:40Z</time>
      </trkpt>
      <trkpt lat="42.7005030" lon="-0.0400030">
        <ele>2419.2</ele>
        <time>2022-07-24T06:49:43Z</time>
      </trkpt>
      <trkpt lat="42.7005020" lon="-0.0400080">
        <ele>2419.2</ele>
        <time>2022-07-24T06:49:44Z</time>
      </trkpt>
      <trkpt lat="42.7005090" lon="-0.0400300">
        <ele>2419.0</ele>
        <time>2022-07-24T06:49:46Z</time>
      </trkpt>
      <trkpt lat="42.7005370" lon="-0.0400760">
        <ele>2419.0</ele>
        <time>2022-07-24T06:49:49Z</time>
      </trkpt>
      <trkpt lat="42.7005480" lon="-0.0401170">
        <ele>2418.6</ele>
        <time>2022-07-24T06:49:52Z</time>
      </trkpt>
      <trkpt lat="42.7005770" lon="-0.0401390">
        <ele>2418.8</ele>
        <time>2022-07-24T06:49:53Z</time>
      </trkpt>
      <trkpt lat="42.7006180" lon="-0.0401700">
        <ele>2418.8</ele>
        <time>2022-07-24T06:49:54Z</time>
      </trkpt>
      <trkpt lat="42.7006520" lon="-0.0401970">
        <ele>2418.4</ele>
        <time>2022-07-24T06:49:55Z</time>
      </trkpt>
      <trkpt lat="42.7007930" lon="-0.0403360">
        <ele>2417.6</ele>
        <time>2022-07-24T06:50:01Z</time>
      </trkpt>
      <trkpt lat="42.7008010" lon="-0.0403510">
        <ele>2417.4</ele>
        <time>2022-07-24T06:50:02Z</time>
      </trkpt>
      <trkpt lat="42.7008170" lon="-0.0403670">
        <ele>2417.4</ele>
        <time>2022-07-24T06:50:03Z</time>
      </trkpt>
      <trkpt lat="42.7008310" lon="-0.0403840">
        <ele>2417.2</ele>
        <time>2022-07-24T06:50:04Z</time>
      </trkpt>
      <trkpt lat="42.7008830" lon="-0.0404450">
        <ele>2416.6</ele>
        <time>2022-07-24T06:50:07Z</time>
      </trkpt>
      <trkpt lat="42.7008870" lon="-0.0404800">
        <ele>2416.2</ele>
        <time>2022-07-24T06:50:10Z</time>
      </trkpt>
      <trkpt lat="42.7008770" lon="-0.0405040">
        <ele>2416.2</ele>
        <time>2022-07-24T06:50:12Z</time>
      </trkpt>
      <trkpt lat="42.7008730" lon="-0.0405180">
        <ele>2416.0</ele>
        <time>2022-07-24T06:50:13Z</time>
      </trkpt>
      <trkpt lat="42.7008590" lon="-0.0405390">
        <ele>2415.8</ele>
        <time>2022-07-24T06:50:14Z</time>
      </trkpt>
      <trkpt lat="42.7008510" lon="-0.0405860">
        <ele>2415.6</ele>
        <time>2022-07-24T06:50:17Z</time>
      </trkpt>
      <trkpt lat="42.7008620" lon="-0.0406010">
        <ele>2415.4</ele>
        <time>2022-07-24T06:50:18Z</time>
      </trkpt>
      <trkpt lat="42.7008870" lon="-0.0406600">
        <ele>2415.2</ele>
        <time>2022-07-24T06:50:23Z</time>
      </trkpt>
      <trkpt lat="42.7008820" lon="-0.0406770">
        <ele>2415.2</ele>
        <time>2022-07-24T06:50:25Z</time>
      </trkpt>
      <trkpt lat="42.7008820" lon="-0.0406870">
        <ele>2415.2</ele>
        <time>2022-07-24T06:50:26Z</time>
      </trkpt>
      <trkpt lat="42.7009110" lon="-0.0408040">
        <ele>2415.0</ele>
        <time>2022-07-24T06:50:32Z</time>
      </trkpt>
      <trkpt lat="42.7008820" lon="-0.0408420">
        <ele>2415.2</ele>
        <time>2022-07-24T06:50:36Z</time>
      </trkpt>
      <trkpt lat="42.7008520" lon="-0.0408490">
        <ele>2415.2</ele>
        <time>2022-07-24T06:50:38Z</time>
      </trkpt>
      <trkpt lat="42.7007360" lon="-0.0409100">
        <ele>2415.0</ele>
        <time>2022-07-24T06:50:46Z</time>
      </trkpt>
      <trkpt lat="42.7007260" lon="-0.0409240">
        <ele>2415.0</ele>
        <time>2022-07-24T06:50:47Z</time>
      </trkpt>
      <trkpt lat="42.7007130" lon="-0.0409350">
        <ele>2415.2</ele>
        <time>2022-07-24T06:50:48Z</time>
      </trkpt>
      <trkpt lat="42.7007130" lon="-0.0409520">
        <ele>2415.0</ele>
        <time>2022-07-24T06:50:49Z</time>
      </trkpt>
      <trkpt lat="42.7007230" lon="-0.0410070">
        <ele>2415.0</ele>
        <time>2022-07-24T06:50:52Z</time>
      </trkpt>
      <trkpt lat="42.7006540" lon="-0.0411310">
        <ele>2415.6</ele>
        <time>2022-07-24T06:51:00Z</time>
      </trkpt>
      <trkpt lat="42.7006570" lon="-0.0412640">
        <ele>2415.6</ele>
        <time>2022-07-24T06:51:07Z</time>
      </trkpt>
      <trkpt lat="42.7006020" lon="-0.0413490">
        <ele>2415.8</ele>
        <time>2022-07-24T06:51:13Z</time>
      </trkpt>
      <trkpt lat="42.7006080" lon="-0.0413650">
        <ele>2415.8</ele>
        <time>2022-07-24T06:51:14Z</time>
      </trkpt>
      <trkpt lat="42.7006000" lon="-0.0414550">
        <ele>2415.8</ele>
        <time>2022-07-24T06:51:20Z</time>
      </trkpt>
      <trkpt lat="42.7005830" lon="-0.0414780">
        <ele>2415.6</ele>
        <time>2022-07-24T06:51:22Z</time>
      </trkpt>
      <trkpt lat="42.7005680" lon="-0.0415610">
        <ele>2415.4</ele>
        <time>2022-07-24T06:51:27Z</time>
      </trkpt>
      <trkpt lat="42.7005840" lon="-0.0415870">
        <ele>2415.6</ele>
        <time>2022-07-24T06:51:28Z</time>
      </trkpt>
      <trkpt lat="42.7006630" lon="-0.0416820">
        <ele>2415.4</ele>
        <time>2022-07-24T06:51:32Z</time>
      </trkpt>
      <trkpt lat="42.7007680" lon="-0.0418900">
        <ele>2415.4</ele>
        <time>2022-07-24T06:51:42Z</time>
      </trkpt>
      <trkpt lat="42.7007740" lon="-0.0419220">
        <ele>2415.4</ele>
        <time>2022-07-24T06:51:44Z</time>
      </trkpt>
      <trkpt lat="42.7007750" lon="-0.0419350">
        <ele>2415.4</ele>
        <time>2022-07-24T06:51:45Z</time>
      </trkpt>
      <trkpt lat="42.7007720" lon="-0.0419470">
        <ele>2415.4</ele>
        <time>2022-07-24T06:51:46Z</time>
      </trkpt>
      <trkpt lat="42.7007290" lon="-0.0419660">
        <ele>2415.4</ele>
        <time>2022-07-24T06:51:48Z</time>
      </trkpt>
      <trkpt lat="42.7007180" lon="-0.0419780">
        <ele>2415.6</ele>
        <time>2022-07-24T06:51:49Z</time>
      </trkpt>
      <trkpt lat="42.7007130" lon="-0.0419900">
        <ele>2415.6</ele>
        <time>2022-07-24T06:51:50Z</time>
      </trkpt>
      <trkpt lat="42.7006660" lon="-0.0420210">
        <ele>2415.6</ele>
        <time>2022-07-24T06:51:53Z</time>
      </trkpt>
      <trkpt lat="42.7006530" lon="-0.0420500">
        <ele>2415.6</ele>
        <time>2022-07-24T06:51:55Z</time>
      </trkpt>
      <trkpt lat="42.7006610" lon="-0.0420730">
        <ele>2415.8</ele>
        <time>2022-07-24T06:51:56Z</time>
      </trkpt>
      <trkpt lat="42.7006560" lon="-0.0421400">
        <ele>2415.6</ele>
        <time>2022-07-24T06:52:00Z</time>
      </trkpt>
      <trkpt lat="42.7006720" lon="-0.0422040">
        <ele>2415.6</ele>
        <time>2022-07-24T06:52:03Z</time>
      </trkpt>
      <trkpt lat="42.7007230" lon="-0.0423410">
        <ele>2415.4</ele>
        <time>2022-07-24T06:52:10Z</time>
      </trkpt>
      <trkpt lat="42.7007420" lon="-0.0423880">
        <ele>2415.4</ele>
        <time>2022-07-24T06:52:13Z</time>
      </trkpt>
      <trkpt lat="42.7007370" lon="-0.0424130">
        <ele>2415.2</ele>
        <time>2022-07-24T06:52:15Z</time>
      </trkpt>
      <trkpt lat="42.7007410" lon="-0.0424290">
        <ele>2415.2</ele>
        <time>2022-07-24T06:52:16Z</time>
      </trkpt>
      <trkpt lat="42.7007440" lon="-0.0424510">
        <ele>2415.2</ele>
        <time>2022-07-24T06:52:17Z</time>
      </trkpt>
      <trkpt lat="42.7007030" lon="-0.0425140">
        <ele>2415.2</ele>
        <time>2022-07-24T06:52:22Z</time>
      </trkpt>
      <trkpt lat="42.7007190" lon="-0.0425440">
        <ele>2415.2</ele>
        <time>2022-07-24T06:52:24Z</time>
      </trkpt>
      <trkpt lat="42.7007560" lon="-0.0426170">
        <ele>2415.8</ele>
        <time>2022-07-24T06:52:30Z</time>
      </trkpt>
      <trkpt lat="42.7007880" lon="-0.0426520">
        <ele>2416.0</ele>
        <time>2022-07-24T06:52:32Z</time>
      </trkpt>
      <trkpt lat="42.7008780" lon="-0.0428050">
        <ele>2416.0</ele>
        <time>2022-07-24T06:52:40Z</time>
      </trkpt>
      <trkpt lat="42.7008760" lon="-0.0428180">
        <ele>2416.2</ele>
        <time>2022-07-24T06:52:41Z</time>
      </trkpt>
      <trkpt lat="42.7009450" lon="-0.0429200">
        <ele>2416.4</ele>
        <time>2022-07-24T06:52:46Z</time>
      </trkpt>
      <trkpt lat="42.7009710" lon="-0.0429580">
        <ele>2416.6</ele>
        <time>2022-07-24T06:52:48Z</time>
      </trkpt>
      <trkpt lat="42.7009730" lon="-0.0430010">
        <ele>2417.2</ele>
        <time>2022-07-24T06:52:51Z</time>
      </trkpt>
      <trkpt lat="42.7009660" lon="-0.0430240">
        <ele>2417.2</ele>
        <time>2022-07-24T06:52:53Z</time>
      </trkpt>
      <trkpt lat="42.7009380" lon="-0.0430440">
        <ele>2417.4</ele>
        <time>2022-07-24T06:52:56Z</time>
      </trkpt>
      <trkpt lat="42.7009290" lon="-0.0430480">
        <ele>2417.4</ele>
        <time>2022-07-24T06:52:57Z</time>
      </trkpt>
      <trkpt lat="42.7009350" lon="-0.0430760">
        <ele>2417.4</ele>
        <time>2022-07-24T06:52:59Z</time>
      </trkpt>
      <trkpt lat="42.7009300" lon="-0.0430900">
        <ele>2417.6</ele>
        <time>2022-07-24T06:53:00Z</time>
      </trkpt>
      <trkpt lat="42.7009220" lon="-0.0431840">
        <ele>2417.6</ele>
        <time>2022-07-24T06:53:07Z</time>
      </trkpt>
      <trkpt lat="42.7009900" lon="-0.0432630">
        <ele>2417.6</ele>
        <time>2022-07-24T06:53:11Z</time>
      </trkpt>
      <trkpt lat="42.7010210" lon="-0.0433040">
        <ele>2417.6</ele>
        <time>2022-07-24T06:53:13Z</time>
      </trkpt>
      <trkpt lat="42.7010050" lon="-0.0433630">
        <ele>2417.4</ele>
        <time>2022-07-24T06:53:17Z</time>
      </trkpt>
      <trkpt lat="42.7009960" lon="-0.0433700">
        <ele>2417.4</ele>
        <time>2022-07-24T06:53:18Z</time>
      </trkpt>
      <trkpt lat="42.7010070" lon="-0.0433850">
        <ele>2417.2</ele>
        <time>2022-07-24T06:53:19Z</time>
      </trkpt>
      <trkpt lat="42.7010180" lon="-0.0434030">
        <ele>2417.4</ele>
        <time>2022-07-24T06:53:20Z</time>
      </trkpt>
      <trkpt lat="42.7010240" lon="-0.0434390">
        <ele>2417.4</ele>
        <time>2022-07-24T06:53:22Z</time>
      </trkpt>
      <trkpt lat="42.7010610" lon="-0.0435120">
        <ele>2417.4</ele>
        <time>2022-07-24T06:53:25Z</time>
      </trkpt>
      <trkpt lat="42.7010930" lon="-0.0435620">
        <ele>2417.6</ele>
        <time>2022-07-24T06:53:27Z</time>
      </trkpt>
      <trkpt lat="42.7011270" lon="-0.0436600">
        <ele>2417.8</ele>
        <time>2022-07-24T06:53:32Z</time>
      </trkpt>
      <trkpt lat="42.7011350" lon="-0.0436890">
        <ele>2418.0</ele>
        <time>2022-07-24T06:53:34Z</time>
      </trkpt>
      <trkpt lat="42.7011800" lon="-0.0437730">
        <ele>2418.2</ele>
        <time>2022-07-24T06:53:39Z</time>
      </trkpt>
      <trkpt lat="42.7011750" lon="-0.0437830">
        <ele>2418.0</ele>
        <time>2022-07-24T06:53:40Z</time>
      </trkpt>
      <trkpt lat="42.7011490" lon="-0.0437900">
        <ele>2418.0</ele>
        <time>2022-07-24T06:53:41Z</time>
      </trkpt>
      <trkpt lat="42.7011430" lon="-0.0438510">
        <ele>2418.2</ele>
        <time>2022-07-24T06:53:45Z</time>
      </trkpt>
      <trkpt lat="42.7011550" lon="-0.0439010">
        <ele>2418.0</ele>
        <time>2022-07-24T06:53:48Z</time>
      </trkpt>
      <trkpt lat="42.7011700" lon="-0.0439420">
        <ele>2418.0</ele>
        <time>2022-07-24T06:53:50Z</time>
      </trkpt>
      <trkpt lat="42.7011800" lon="-0.0439660">
        <ele>2418.0</ele>
        <time>2022-07-24T06:53:51Z</time>
      </trkpt>
      <trkpt lat="42.7011810" lon="-0.0439830">
        <ele>2418.0</ele>
        <time>2022-07-24T06:53:52Z</time>
      </trkpt>
      <trkpt lat="42.7011940" lon="-0.0440930">
        <ele>2417.8</ele>
        <time>2022-07-24T06:53:58Z</time>
      </trkpt>
      <trkpt lat="42.7012120" lon="-0.0441310">
        <ele>2417.8</ele>
        <time>2022-07-24T06:54:00Z</time>
      </trkpt>
      <trkpt lat="42.7012180" lon="-0.0441480">
        <ele>2417.8</ele>
        <time>2022-07-24T06:54:01Z</time>
      </trkpt>
      <trkpt lat="42.7012180" lon="-0.0442620">
        <ele>2417.4</ele>
        <time>2022-07-24T06:54:08Z</time>
      </trkpt>
      <trkpt lat="42.7012120" lon="-0.0442980">
        <ele>2417.4</ele>
        <time>2022-07-24T06:54:10Z</time>
      </trkpt>
      <trkpt lat="42.7012750" lon="-0.0443980">
        <ele>2417.4</ele>
        <time>2022-07-24T06:54:15Z</time>
      </trkpt>
      <trkpt lat="42.7013090" lon="-0.0444790">
        <ele>2417.4</ele>
        <time>2022-07-24T06:54:19Z</time>
      </trkpt>
      <trkpt lat="42.7013260" lon="-0.0445050">
        <ele>2417.4</ele>
        <time>2022-07-24T06:54:20Z</time>
      </trkpt>
      <trkpt lat="42.7013910" lon="-0.0445890">
        <ele>2417.4</ele>
        <time>2022-07-24T06:54:23Z</time>
      </trkpt>
      <trkpt lat="42.7013990" lon="-0.0446380">
        <ele>2417.4</ele>
        <time>2022-07-24T06:54:26Z</time>
      </trkpt>
      <trkpt lat="42.7014080" lon="-0.0446720">
        <ele>2417.2</ele>
        <time>2022-07-24T06:54:28Z</time>
      </trkpt>
      <trkpt lat="42.7014670" lon="-0.0448020">
        <ele>2416.8</ele>
        <time>2022-07-24T06:54:36Z</time>
      </trkpt>
      <trkpt lat="42.7013880" lon="-0.0448070">
        <ele>2416.4</ele>
        <time>2022-07-24T06:54:39Z</time>
      </trkpt>
      <trkpt lat="42.7013740" lon="-0.0448100">
        <ele>2416.2</ele>
        <time>2022-07-24T06:54:40Z</time>
      </trkpt>
      <trkpt lat="42.7013450" lon="-0.0448280">
        <ele>2416.2</ele>
        <time>2022-07-24T06:54:42Z</time>
      </trkpt>
      <trkpt lat="42.7013220" lon="-0.0448570">
        <ele>2416.0</ele>
        <time>2022-07-24T06:54:46Z</time>
      </trkpt>
      <trkpt lat="42.7013230" lon="-0.0448600">
        <ele>2415.8</ele>
        <time>2022-07-24T06:54:47Z</time>
      </trkpt>
      <trkpt lat="42.7013570" lon="-0.0448900">
        <ele>2415.0</ele>
        <time>2022-07-24T06:54:53Z</time>
      </trkpt>
      <trkpt lat="42.7013510" lon="-0.0448910">
        <ele>2414.8</ele>
        <time>2022-07-24T06:54:55Z</time>
      </trkpt>
      <trkpt lat="42.7013620" lon="-0.0448900">
        <ele>2414.2</ele>
        <time>2022-07-24T06:54:58Z</time>
      </trkpt>
      <trkpt lat="42.7013550" lon="-0.0448820">
        <ele>2414.2</ele>
        <time>2022-07-24T06:55:01Z</time>
      </trkpt>
      <trkpt lat="42.7013800" lon="-0.0448800">
        <ele>2414.0</ele>
        <time>2022-07-24T06:55:03Z</time>
      </trkpt>
      <trkpt lat="42.7014150" lon="-0.0448780">
        <ele>2413.6</ele>
        <time>2022-07-24T06:55:12Z</time>
      </trkpt>
      <trkpt lat="42.7014560" lon="-0.0448470">
        <ele>2413.2</ele>
        <time>2022-07-24T06:55:21Z</time>
      </trkpt>
      <trkpt lat="42.7014650" lon="-0.0448090">
        <ele>2413.0</ele>
        <time>2022-07-24T06:55:30Z</time>
      </trkpt>
      <trkpt lat="42.7014550" lon="-0.0447940">
        <ele>2413.0</ele>
        <time>2022-07-24T06:55:38Z</time>
      </trkpt>
      <trkpt lat="42.7014280" lon="-0.0448160">
        <ele>2413.0</ele>
        <time>2022-07-24T06:55:47Z</time>
      </trkpt>
      <trkpt lat="42.7014390" lon="-0.0448530">
        <ele>2413.0</ele>
        <time>2022-07-24T06:55:56Z</time>
      </trkpt>
      <trkpt lat="42.7014840" lon="-0.0448670">
        <ele>2413.0</ele>
        <time>2022-07-24T06:56:05Z</time>
      </trkpt>
      <trkpt lat="42.7014920" lon="-0.0448770">
        <ele>2413.0</ele>
        <time>2022-07-24T06:56:13Z</time>
      </trkpt>
      <trkpt lat="42.7014860" lon="-0.0448910">
        <ele>2413.0</ele>
        <time>2022-07-24T06:56:21Z</time>
      </trkpt>
      <trkpt lat="42.7014810" lon="-0.0448920">
        <ele>2413.0</ele>
        <time>2022-07-24T06:56:23Z</time>
      </trkpt>
      <trkpt lat="42.7014640" lon="-0.0448910">
        <ele>2412.8</ele>
        <time>2022-07-24T06:56:32Z</time>
      </trkpt>
      <trkpt lat="42.7014710" lon="-0.0449080">
        <ele>2413.0</ele>
        <time>2022-07-24T06:56:41Z</time>
      </trkpt>
      <trkpt lat="42.7015000" lon="-0.0448930">
        <ele>2413.4</ele>
        <time>2022-07-24T06:56:51Z</time>
      </trkpt>
      <trkpt lat="42.7014900" lon="-0.0448740">
        <ele>2413.6</ele>
        <time>2022-07-24T06:57:00Z</time>
      </trkpt>
      <trkpt lat="42.7014870" lon="-0.0448740">
        <ele>2413.4</ele>
        <time>2022-07-24T06:57:05Z</time>
      </trkpt>
      <trkpt lat="42.7014830" lon="-0.0448680">
        <ele>2413.4</ele>
        <time>2022-07-24T06:57:09Z</time>
      </trkpt>
      <trkpt lat="42.7014750" lon="-0.0448550">
        <ele>2413.2</ele>
        <time>2022-07-24T06:57:16Z</time>
      </trkpt>
      <trkpt lat="42.7014760" lon="-0.0448430">
        <ele>2413.2</ele>
        <time>2022-07-24T06:57:19Z</time>
      </trkpt>
      <trkpt lat="42.7014780" lon="-0.0448310">
        <ele>2413.2</ele>
        <time>2022-07-24T06:57:27Z</time>
      </trkpt>
      <trkpt lat="42.7014710" lon="-0.0448480">
        <ele>2413.4</ele>
        <time>2022-07-24T06:57:31Z</time>
      </trkpt>
      <trkpt lat="42.7014960" lon="-0.0448510">
        <ele>2413.4</ele>
        <time>2022-07-24T06:57:38Z</time>
      </trkpt>
      <trkpt lat="42.7014860" lon="-0.0448470">
        <ele>2413.0</ele>
        <time>2022-07-24T06:57:46Z</time>
      </trkpt>
      <trkpt lat="42.7014660" lon="-0.0448610">
        <ele>2413.0</ele>
        <time>2022-07-24T06:57:54Z</time>
      </trkpt>
      <trkpt lat="42.7014830" lon="-0.0448560">
        <ele>2413.2</ele>
        <time>2022-07-24T06:58:05Z</time>
      </trkpt>
      <trkpt lat="42.7014970" lon="-0.0448320">
        <ele>2413.2</ele>
        <time>2022-07-24T06:58:13Z</time>
      </trkpt>
      <trkpt lat="42.7015200" lon="-0.0447910">
        <ele>2413.2</ele>
        <time>2022-07-24T06:58:17Z</time>
      </trkpt>
      <trkpt lat="42.7015240" lon="-0.0447890">
        <ele>2413.2</ele>
        <time>2022-07-24T06:58:23Z</time>
      </trkpt>
      <trkpt lat="42.7015130" lon="-0.0447440">
        <ele>2413.4</ele>
        <time>2022-07-24T06:58:30Z</time>
      </trkpt>
      <trkpt lat="42.7015370" lon="-0.0446960">
        <ele>2413.6</ele>
        <time>2022-07-24T06:58:40Z</time>
      </trkpt>
      <trkpt lat="42.7015210" lon="-0.0446690">
        <ele>2413.2</ele>
        <time>2022-07-24T06:58:51Z</time>
      </trkpt>
      <trkpt lat="42.7015200" lon="-0.0446810">
        <ele>2413.2</ele>
        <time>2022-07-24T06:58:53Z</time>
      </trkpt>
      <trkpt lat="42.7015400" lon="-0.0447200">
        <ele>2413.0</ele>
        <time>2022-07-24T06:59:02Z</time>
      </trkpt>
      <trkpt lat="42.7015750" lon="-0.0447260">
        <ele>2412.8</ele>
        <time>2022-07-24T06:59:12Z</time>
      </trkpt>
      <trkpt lat="42.7015370" lon="-0.0446960">
        <ele>2412.8</ele>
        <time>2022-07-24T06:59:28Z</time>
      </trkpt>
      <trkpt lat="42.7014850" lon="-0.0447410">
        <ele>2413.0</ele>
        <time>2022-07-24T06:59:38Z</time>
      </trkpt>
      <trkpt lat="42.7015020" lon="-0.0448120">
        <ele>2413.0</ele>
        <time>2022-07-24T06:59:46Z</time>
      </trkpt>
      <trkpt lat="42.7015090" lon="-0.0448490">
        <ele>2413.0</ele>
        <time>2022-07-24T06:59:55Z</time>
      </trkpt>
      <trkpt lat="42.7015200" lon="-0.0448840">
        <ele>2412.8</ele>
        <time>2022-07-24T07:00:04Z</time>
      </trkpt>
      <trkpt lat="42.7014820" lon="-0.0448860">
        <ele>2413.0</ele>
        <time>2022-07-24T07:00:14Z</time>
      </trkpt>
      <trkpt lat="42.7014860" lon="-0.0448660">
        <ele>2413.0</ele>
        <time>2022-07-24T07:00:22Z</time>
      </trkpt>
      <trkpt lat="42.7014870" lon="-0.0448670">
        <ele>2413.2</ele>
        <time>2022-07-24T07:00:23Z</time>
      </trkpt>
      <trkpt lat="42.7014890" lon="-0.0448740">
        <ele>2413.6</ele>
        <time>2022-07-24T07:00:30Z</time>
      </trkpt>
      <trkpt lat="42.7015190" lon="-0.0449110">
        <ele>2413.6</ele>
        <time>2022-07-24T07:00:40Z</time>
      </trkpt>
      <trkpt lat="42.7014840" lon="-0.0449140">
        <ele>2413.6</ele>
        <time>2022-07-24T07:00:49Z</time>
      </trkpt>
      <trkpt lat="42.7014000" lon="-0.0449510">
        <ele>2413.6</ele>
        <time>2022-07-24T07:00:58Z</time>
      </trkpt>
      <trkpt lat="42.7013710" lon="-0.0449680">
        <ele>2413.4</ele>
        <time>2022-07-24T07:01:08Z</time>
      </trkpt>
      <trkpt lat="42.7014150" lon="-0.0449710">
        <ele>2413.4</ele>
        <time>2022-07-24T07:01:16Z</time>
      </trkpt>
      <trkpt lat="42.7014350" lon="-0.0449510">
        <ele>2413.2</ele>
        <time>2022-07-24T07:01:26Z</time>
      </trkpt>
      <trkpt lat="42.7014900" lon="-0.0449440">
        <ele>2413.4</ele>
        <time>2022-07-24T07:01:35Z</time>
      </trkpt>
      <trkpt lat="42.7014860" lon="-0.0448680">
        <ele>2413.0</ele>
        <time>2022-07-24T07:01:46Z</time>
      </trkpt>
      <trkpt lat="42.7014880" lon="-0.0448620">
        <ele>2413.0</ele>
        <time>2022-07-24T07:01:47Z</time>
      </trkpt>
      <trkpt lat="42.7015120" lon="-0.0448340">
        <ele>2413.0</ele>
        <time>2022-07-24T07:01:57Z</time>
      </trkpt>
      <trkpt lat="42.7015160" lon="-0.0448280">
        <ele>2413.0</ele>
        <time>2022-07-24T07:01:59Z</time>
      </trkpt>
      <trkpt lat="42.7015390" lon="-0.0447930">
        <ele>2413.2</ele>
        <time>2022-07-24T07:02:06Z</time>
      </trkpt>
      <trkpt lat="42.7015450" lon="-0.0447490">
        <ele>2413.4</ele>
        <time>2022-07-24T07:02:15Z</time>
      </trkpt>
      <trkpt lat="42.7015280" lon="-0.0447380">
        <ele>2413.4</ele>
        <time>2022-07-24T07:02:20Z</time>
      </trkpt>
      <trkpt lat="42.7015140" lon="-0.0447190">
        <ele>2413.2</ele>
        <time>2022-07-24T07:02:24Z</time>
      </trkpt>
      <trkpt lat="42.7014920" lon="-0.0446880">
        <ele>2413.2</ele>
        <time>2022-07-24T07:02:33Z</time>
      </trkpt>
      <trkpt lat="42.7014730" lon="-0.0446620">
        <ele>2413.0</ele>
        <time>2022-07-24T07:02:40Z</time>
      </trkpt>
      <trkpt lat="42.7014660" lon="-0.0448330">
        <ele>2413.2</ele>
        <time>2022-07-24T07:02:48Z</time>
      </trkpt>
      <trkpt lat="42.7014220" lon="-0.0449850">
        <ele>2413.4</ele>
        <time>2022-07-24T07:02:56Z</time>
      </trkpt>
      <trkpt lat="42.7013600" lon="-0.0450000">
        <ele>2413.2</ele>
        <time>2022-07-24T07:03:00Z</time>
      </trkpt>
      <trkpt lat="42.7013430" lon="-0.0450100">
        <ele>2413.0</ele>
        <time>2022-07-24T07:03:03Z</time>
      </trkpt>
      <trkpt lat="42.7013330" lon="-0.0450880">
        <ele>2413.0</ele>
        <time>2022-07-24T07:03:04Z</time>
      </trkpt>
      <trkpt lat="42.7013430" lon="-0.0451160">
        <ele>2412.8</ele>
        <time>2022-07-24T07:03:06Z</time>
      </trkpt>
      <trkpt lat="42.7013430" lon="-0.0451160">
        <ele>2413.0</ele>
        <time>2022-07-24T07:03:07Z</time>
      </trkpt>
      <trkpt lat="42.7013490" lon="-0.0451110">
        <ele>2413.0</ele>
        <time>2022-07-24T07:03:08Z</time>
      </trkpt>
      <trkpt lat="42.7013820" lon="-0.0450960">
        <ele>2412.8</ele>
        <time>2022-07-24T07:03:09Z</time>
      </trkpt>
      <trkpt lat="42.7014100" lon="-0.0450800">
        <ele>2412.8</ele>
        <time>2022-07-24T07:03:11Z</time>
      </trkpt>
      <trkpt lat="42.7014700" lon="-0.0450750">
        <ele>2413.4</ele>
        <time>2022-07-24T07:03:16Z</time>
      </trkpt>
      <trkpt lat="42.7015690" lon="-0.0450760">
        <ele>2413.6</ele>
        <time>2022-07-24T07:03:22Z</time>
      </trkpt>
      <trkpt lat="42.7015090" lon="-0.0450300">
        <ele>2413.8</ele>
        <time>2022-07-24T07:03:31Z</time>
      </trkpt>
      <trkpt lat="42.7015390" lon="-0.0450010">
        <ele>2413.8</ele>
        <time>2022-07-24T07:03:40Z</time>
      </trkpt>
      <trkpt lat="42.7015530" lon="-0.0449580">
        <ele>2413.6</ele>
        <time>2022-07-24T07:03:49Z</time>
      </trkpt>
      <trkpt lat="42.7015140" lon="-0.0449420">
        <ele>2413.6</ele>
        <time>2022-07-24T07:03:55Z</time>
      </trkpt>
      <trkpt lat="42.7015050" lon="-0.0449400">
        <ele>2413.6</ele>
        <time>2022-07-24T07:03:56Z</time>
      </trkpt>
      <trkpt lat="42.7015080" lon="-0.0449330">
        <ele>2413.8</ele>
        <time>2022-07-24T07:03:57Z</time>
      </trkpt>
      <trkpt lat="42.7015190" lon="-0.0449300">
        <ele>2413.6</ele>
        <time>2022-07-24T07:03:58Z</time>
      </trkpt>
      <trkpt lat="42.7015120" lon="-0.0449460">
        <ele>2413.6</ele>
        <time>2022-07-24T07:04:04Z</time>
      </trkpt>
      <trkpt lat="42.7015360" lon="-0.0449500">
        <ele>2414.4</ele>
        <time>2022-07-24T07:04:12Z</time>
      </trkpt>
      <trkpt lat="42.7014210" lon="-0.0449430">
        <ele>2414.6</ele>
        <time>2022-07-24T07:04:19Z</time>
      </trkpt>
      <trkpt lat="42.7014530" lon="-0.0449230">
        <ele>2414.2</ele>
        <time>2022-07-24T07:04:26Z</time>
      </trkpt>
      <trkpt lat="42.7014520" lon="-0.0449210">
        <ele>2414.2</ele>
        <time>2022-07-24T07:04:27Z</time>
      </trkpt>
      <trkpt lat="42.7014420" lon="-0.0449160">
        <ele>2414.0</ele>
        <time>2022-07-24T07:04:30Z</time>
      </trkpt>
      <trkpt lat="42.7014320" lon="-0.0449150">
        <ele>2413.8</ele>
        <time>2022-07-24T07:04:36Z</time>
      </trkpt>
      <trkpt lat="42.7013690" lon="-0.0448850">
        <ele>2413.8</ele>
        <time>2022-07-24T07:04:44Z</time>
      </trkpt>
      <trkpt lat="42.7012640" lon="-0.0448530">
        <ele>2414.0</ele>
        <time>2022-07-24T07:04:53Z</time>
      </trkpt>
      <trkpt lat="42.7012520" lon="-0.0448490">
        <ele>2414.0</ele>
        <time>2022-07-24T07:04:54Z</time>
      </trkpt>
      <trkpt lat="42.7012220" lon="-0.0448660">
        <ele>2414.0</ele>
        <time>2022-07-24T07:05:01Z</time>
      </trkpt>
      <trkpt lat="42.7012280" lon="-0.0448710">
        <ele>2414.0</ele>
        <time>2022-07-24T07:05:02Z</time>
      </trkpt>
      <trkpt lat="42.7012360" lon="-0.0448740">
        <ele>2414.0</ele>
        <time>2022-07-24T07:05:03Z</time>
      </trkpt>
      <trkpt lat="42.7012370" lon="-0.0448760">
        <ele>2414.0</ele>
        <time>2022-07-24T07:05:04Z</time>
      </trkpt>
      <trkpt lat="42.7012580" lon="-0.0448830">
        <ele>2414.0</ele>
        <time>2022-07-24T07:05:06Z</time>
      </trkpt>
      <trkpt lat="42.7012890" lon="-0.0448890">
        <ele>2414.0</ele>
        <time>2022-07-24T07:05:08Z</time>
      </trkpt>
      <trkpt lat="42.7013010" lon="-0.0448910">
        <ele>2414.0</ele>
        <time>2022-07-24T07:05:09Z</time>
      </trkpt>
      <trkpt lat="42.7013020" lon="-0.0448910">
        <ele>2414.0</ele>
        <time>2022-07-24T07:05:10Z</time>
      </trkpt>
      <trkpt lat="42.7012980" lon="-0.0448870">
        <ele>2413.8</ele>
        <time>2022-07-24T07:05:11Z</time>
      </trkpt>
      <trkpt lat="42.7013030" lon="-0.0448820">
        <ele>2414.0</ele>
        <time>2022-07-24T07:05:12Z</time>
      </trkpt>
      <trkpt lat="42.7013040" lon="-0.0448770">
        <ele>2413.8</ele>
        <time>2022-07-24T07:05:13Z</time>
      </trkpt>
      <trkpt lat="42.7013050" lon="-0.0448730">
        <ele>2413.8</ele>
        <time>2022-07-24T07:05:14Z</time>
      </trkpt>
      <trkpt lat="42.7013060" lon="-0.0448740">
        <ele>2413.8</ele>
        <time>2022-07-24T07:05:15Z</time>
      </trkpt>
      <trkpt lat="42.7013070" lon="-0.0448780">
        <ele>2414.0</ele>
        <time>2022-07-24T07:05:16Z</time>
      </trkpt>
      <trkpt lat="42.7013160" lon="-0.0448790">
        <ele>2413.8</ele>
        <time>2022-07-24T07:05:17Z</time>
      </trkpt>
      <trkpt lat="42.7013240" lon="-0.0448870">
        <ele>2414.2</ele>
        <time>2022-07-24T07:05:20Z</time>
      </trkpt>
      <trkpt lat="42.7013280" lon="-0.0448870">
        <ele>2414.2</ele>
        <time>2022-07-24T07:05:21Z</time>
      </trkpt>
      <trkpt lat="42.7013290" lon="-0.0448900">
        <ele>2414.2</ele>
        <time>2022-07-24T07:05:22Z</time>
      </trkpt>
      <trkpt lat="42.7013300" lon="-0.0448930">
        <ele>2414.4</ele>
        <time>2022-07-24T07:05:23Z</time>
      </trkpt>
      <trkpt lat="42.7013210" lon="-0.0448960">
        <ele>2414.2</ele>
        <time>2022-07-24T07:05:24Z</time>
      </trkpt>
      <trkpt lat="42.7013110" lon="-0.0448980">
        <ele>2414.4</ele>
        <time>2022-07-24T07:05:25Z</time>
      </trkpt>
      <trkpt lat="42.7013040" lon="-0.0448980">
        <ele>2414.4</ele>
        <time>2022-07-24T07:05:26Z</time>
      </trkpt>
      <trkpt lat="42.7012980" lon="-0.0448970">
        <ele>2414.4</ele>
        <time>2022-07-24T07:05:27Z</time>
      </trkpt>
      <trkpt lat="42.7012960" lon="-0.0449030">
        <ele>2414.8</ele>
        <time>2022-07-24T07:05:30Z</time>
      </trkpt>
      <trkpt lat="42.7013010" lon="-0.0449010">
        <ele>2415.0</ele>
        <time>2022-07-24T07:05:31Z</time>
      </trkpt>
      <trkpt lat="42.7013030" lon="-0.0449020">
        <ele>2415.0</ele>
        <time>2022-07-24T07:05:32Z</time>
      </trkpt>
      <trkpt lat="42.7012980" lon="-0.0449120">
        <ele>2414.8</ele>
        <time>2022-07-24T07:05:36Z</time>
      </trkpt>
      <trkpt lat="42.7013010" lon="-0.0449120">
        <ele>2415.0</ele>
        <time>2022-07-24T07:05:37Z</time>
      </trkpt>
      <trkpt lat="42.7012930" lon="-0.0449210">
        <ele>2415.0</ele>
        <time>2022-07-24T07:05:44Z</time>
      </trkpt>
      <trkpt lat="42.7012990" lon="-0.0449190">
        <ele>2415.0</ele>
        <time>2022-07-24T07:05:45Z</time>
      </trkpt>
      <trkpt lat="42.7013540" lon="-0.0449190">
        <ele>2414.8</ele>
        <time>2022-07-24T07:05:54Z</time>
      </trkpt>
      <trkpt lat="42.7014820" lon="-0.0449280">
        <ele>2414.4</ele>
        <time>2022-07-24T07:06:03Z</time>
      </trkpt>
      <trkpt lat="42.7014940" lon="-0.0449290">
        <ele>2414.6</ele>
        <time>2022-07-24T07:06:04Z</time>
      </trkpt>
      <trkpt lat="42.7014990" lon="-0.0449300">
        <ele>2414.6</ele>
        <time>2022-07-24T07:06:05Z</time>
      </trkpt>
      <trkpt lat="42.7014970" lon="-0.0449290">
        <ele>2414.6</ele>
        <time>2022-07-24T07:06:06Z</time>
      </trkpt>
      <trkpt lat="42.7015010" lon="-0.0449370">
        <ele>2414.6</ele>
        <time>2022-07-24T07:06:09Z</time>
      </trkpt>
      <trkpt lat="42.7014970" lon="-0.0449350">
        <ele>2414.6</ele>
        <time>2022-07-24T07:06:10Z</time>
      </trkpt>
      <trkpt lat="42.7014790" lon="-0.0449300">
        <ele>2414.8</ele>
        <time>2022-07-24T07:06:12Z</time>
      </trkpt>
      <trkpt lat="42.7014250" lon="-0.0449180">
        <ele>2414.8</ele>
        <time>2022-07-24T07:06:14Z</time>
      </trkpt>
      <trkpt lat="42.7014170" lon="-0.0449120">
        <ele>2414.6</ele>
        <time>2022-07-24T07:06:15Z</time>
      </trkpt>
      <trkpt lat="42.7013780" lon="-0.0449040">
        <ele>2414.6</ele>
        <time>2022-07-24T07:06:16Z</time>
      </trkpt>
      <trkpt lat="42.7013360" lon="-0.0448970">
        <ele>2414.8</ele>
        <time>2022-07-24T07:06:17Z</time>
      </trkpt>
      <trkpt lat="42.7012760" lon="-0.0448870">
        <ele>2414.6</ele>
        <time>2022-07-24T07:06:19Z</time>
      </trkpt>
      <trkpt lat="42.7012420" lon="-0.0448860">
        <ele>2414.8</ele>
        <time>2022-07-24T07:06:20Z</time>
      </trkpt>
      <trkpt lat="42.7012240" lon="-0.0448840">
        <ele>2415.0</ele>
        <time>2022-07-24T07:06:21Z</time>
      </trkpt>
      <trkpt lat="42.7011550" lon="-0.0448770">
        <ele>2414.8</ele>
        <time>2022-07-24T07:06:25Z</time>
      </trkpt>
      <trkpt lat="42.7011950" lon="-0.0448940">
        <ele>2414.8</ele>
        <time>2022-07-24T07:06:27Z</time>
      </trkpt>
      <trkpt lat="42.7012170" lon="-0.0448890">
        <ele>2415.0</ele>
        <time>2022-07-24T07:06:28Z</time>
      </trkpt>
      <trkpt lat="42.7012410" lon="-0.0448940">
        <ele>2414.8</ele>
        <time>2022-07-24T07:06:31Z</time>
      </trkpt>
      <trkpt lat="42.7012040" lon="-0.0448950">
        <ele>2415.0</ele>
        <time>2022-07-24T07:06:37Z</time>
      </trkpt>
      <trkpt lat="42.7012150" lon="-0.0448950">
        <ele>2414.8</ele>
        <time>2022-07-24T07:06:40Z</time>
      </trkpt>
      <trkpt lat="42.7012470" lon="-0.0449010">
        <ele>2414.8</ele>
        <time>2022-07-24T07:06:42Z</time>
      </trkpt>
      <trkpt lat="42.7013370" lon="-0.0449350">
        <ele>2414.6</ele>
        <time>2022-07-24T07:06:47Z</time>
      </trkpt>
      <trkpt lat="42.7013370" lon="-0.0449440">
        <ele>2414.6</ele>
        <time>2022-07-24T07:06:49Z</time>
      </trkpt>
      <trkpt lat="42.7013410" lon="-0.0449470">
        <ele>2414.6</ele>
        <time>2022-07-24T07:06:50Z</time>
      </trkpt>
      <trkpt lat="42.7013450" lon="-0.0449480">
        <ele>2414.6</ele>
        <time>2022-07-24T07:06:51Z</time>
      </trkpt>
      <trkpt lat="42.7013580" lon="-0.0449490">
        <ele>2414.6</ele>
        <time>2022-07-24T07:06:53Z</time>
      </trkpt>
      <trkpt lat="42.7013630" lon="-0.0449490">
        <ele>2414.6</ele>
        <time>2022-07-24T07:06:54Z</time>
      </trkpt>
      <trkpt lat="42.7013780" lon="-0.0449510">
        <ele>2414.6</ele>
        <time>2022-07-24T07:06:55Z</time>
      </trkpt>
      <trkpt lat="42.7013960" lon="-0.0449480">
        <ele>2414.6</ele>
        <time>2022-07-24T07:06:56Z</time>
      </trkpt>
      <trkpt lat="42.7014310" lon="-0.0449470">
        <ele>2414.6</ele>
        <time>2022-07-24T07:06:59Z</time>
      </trkpt>
      <trkpt lat="42.7014350" lon="-0.0449490">
        <ele>2414.6</ele>
        <time>2022-07-24T07:07:00Z</time>
      </trkpt>
      <trkpt lat="42.7014290" lon="-0.0449500">
        <ele>2414.6</ele>
        <time>2022-07-24T07:07:02Z</time>
      </trkpt>
      <trkpt lat="42.7014290" lon="-0.0449500">
        <ele>2414.4</ele>
        <time>2022-07-24T07:07:03Z</time>
      </trkpt>
      <trkpt lat="42.7014310" lon="-0.0449480">
        <ele>2414.6</ele>
        <time>2022-07-24T07:07:04Z</time>
      </trkpt>
      <trkpt lat="42.7014260" lon="-0.0449460">
        <ele>2414.6</ele>
        <time>2022-07-24T07:07:05Z</time>
      </trkpt>
      <trkpt lat="42.7014240" lon="-0.0449460">
        <ele>2414.8</ele>
        <time>2022-07-24T07:07:06Z</time>
      </trkpt>
      <trkpt lat="42.7014260" lon="-0.0449470">
        <ele>2414.8</ele>
        <time>2022-07-24T07:07:07Z</time>
      </trkpt>
      <trkpt lat="42.7014290" lon="-0.0449510">
        <ele>2414.6</ele>
        <time>2022-07-24T07:07:08Z</time>
      </trkpt>
      <trkpt lat="42.7014390" lon="-0.0449550">
        <ele>2414.6</ele>
        <time>2022-07-24T07:07:10Z</time>
      </trkpt>
      <trkpt lat="42.7014440" lon="-0.0449570">
        <ele>2414.6</ele>
        <time>2022-07-24T07:07:11Z</time>
      </trkpt>
      <trkpt lat="42.7014480" lon="-0.0449610">
        <ele>2414.6</ele>
        <time>2022-07-24T07:07:15Z</time>
      </trkpt>
      <trkpt lat="42.7014630" lon="-0.0449350">
        <ele>2414.6</ele>
        <time>2022-07-24T07:07:19Z</time>
      </trkpt>
      <trkpt lat="42.7014640" lon="-0.0449430">
        <ele>2414.6</ele>
        <time>2022-07-24T07:07:21Z</time>
      </trkpt>
      <trkpt lat="42.7014610" lon="-0.0449470">
        <ele>2414.6</ele>
        <time>2022-07-24T07:07:22Z</time>
      </trkpt>
      <trkpt lat="42.7014610" lon="-0.0449480">
        <ele>2414.8</ele>
        <time>2022-07-24T07:07:23Z</time>
      </trkpt>
      <trkpt lat="42.7014600" lon="-0.0449520">
        <ele>2414.8</ele>
        <time>2022-07-24T07:07:24Z</time>
      </trkpt>
      <trkpt lat="42.7014560" lon="-0.0449550">
        <ele>2414.6</ele>
        <time>2022-07-24T07:07:25Z</time>
      </trkpt>
      <trkpt lat="42.7014590" lon="-0.0449540">
        <ele>2414.6</ele>
        <time>2022-07-24T07:07:26Z</time>
      </trkpt>
      <trkpt lat="42.7014570" lon="-0.0449530">
        <ele>2414.6</ele>
        <time>2022-07-24T07:07:27Z</time>
      </trkpt>
      <trkpt lat="42.7014540" lon="-0.0449520">
        <ele>2414.4</ele>
        <time>2022-07-24T07:07:30Z</time>
      </trkpt>
      <trkpt lat="42.7014590" lon="-0.0449560">
        <ele>2414.4</ele>
        <time>2022-07-24T07:07:31Z</time>
      </trkpt>
      <trkpt lat="42.7014460" lon="-0.0449570">
        <ele>2414.6</ele>
        <time>2022-07-24T07:07:32Z</time>
      </trkpt>
      <trkpt lat="42.7014270" lon="-0.0449590">
        <ele>2414.6</ele>
        <time>2022-07-24T07:07:33Z</time>
      </trkpt>
      <trkpt lat="42.7014250" lon="-0.0449640">
        <ele>2414.4</ele>
        <time>2022-07-24T07:07:35Z</time>
      </trkpt>
      <trkpt lat="42.7014360" lon="-0.0449700">
        <ele>2414.4</ele>
        <time>2022-07-24T07:07:36Z</time>
      </trkpt>
      <trkpt lat="42.7013700" lon="-0.0450050">
        <ele>2414.0</ele>
        <time>2022-07-24T07:07:40Z</time>
      </trkpt>
      <trkpt lat="42.7013630" lon="-0.0450150">
        <ele>2414.0</ele>
        <time>2022-07-24T07:07:41Z</time>
      </trkpt>
      <trkpt lat="42.7013620" lon="-0.0450270">
        <ele>2414.0</ele>
        <time>2022-07-24T07:07:42Z</time>
      </trkpt>
      <trkpt lat="42.7013670" lon="-0.0450420">
        <ele>2414.0</ele>
        <time>2022-07-24T07:07:43Z</time>
      </trkpt>
      <trkpt lat="42.7013710" lon="-0.0450860">
        <ele>2414.0</ele>
        <time>2022-07-24T07:07:46Z</time>
      </trkpt>
      <trkpt lat="42.7013700" lon="-0.0450990">
        <ele>2414.0</ele>
        <time>2022-07-24T07:07:47Z</time>
      </trkpt>
      <trkpt lat="42.7013650" lon="-0.0451110">
        <ele>2414.0</ele>
        <time>2022-07-24T07:07:48Z</time>
      </trkpt>
      <trkpt lat="42.7013620" lon="-0.0451250">
        <ele>2414.0</ele>
        <time>2022-07-24T07:07:49Z</time>
      </trkpt>
      <trkpt lat="42.7013590" lon="-0.0451480">
        <ele>2413.8</ele>
        <time>2022-07-24T07:07:51Z</time>
      </trkpt>
      <trkpt lat="42.7013590" lon="-0.0451580">
        <ele>2413.8</ele>
        <time>2022-07-24T07:07:52Z</time>
      </trkpt>
      <trkpt lat="42.7013600" lon="-0.0451680">
        <ele>2413.8</ele>
        <time>2022-07-24T07:07:53Z</time>
      </trkpt>
      <trkpt lat="42.7013630" lon="-0.0451880">
        <ele>2413.8</ele>
        <time>2022-07-24T07:07:55Z</time>
      </trkpt>
      <trkpt lat="42.7013680" lon="-0.0452010">
        <ele>2413.8</ele>
        <time>2022-07-24T07:07:56Z</time>
      </trkpt>
      <trkpt lat="42.7013870" lon="-0.0452180">
        <ele>2413.8</ele>
        <time>2022-07-24T07:07:57Z</time>
      </trkpt>
      <trkpt lat="42.7014040" lon="-0.0452320">
        <ele>2413.4</ele>
        <time>2022-07-24T07:07:58Z</time>
      </trkpt>
      <trkpt lat="42.7014180" lon="-0.0452500">
        <ele>2413.2</ele>
        <time>2022-07-24T07:08:00Z</time>
      </trkpt>
      <trkpt lat="42.7014310" lon="-0.0452810">
        <ele>2412.8</ele>
        <time>2022-07-24T07:08:02Z</time>
      </trkpt>
      <trkpt lat="42.7014310" lon="-0.0452940">
        <ele>2412.8</ele>
        <time>2022-07-24T07:08:03Z</time>
      </trkpt>
      <trkpt lat="42.7014460" lon="-0.0453310">
        <ele>2412.6</ele>
        <time>2022-07-24T07:08:06Z</time>
      </trkpt>
      <trkpt lat="42.7014480" lon="-0.0453430">
        <ele>2412.6</ele>
        <time>2022-07-24T07:08:07Z</time>
      </trkpt>
      <trkpt lat="42.7014400" lon="-0.0453590">
        <ele>2412.4</ele>
        <time>2022-07-24T07:08:08Z</time>
      </trkpt>
      <trkpt lat="42.7014410" lon="-0.0453780">
        <ele>2412.4</ele>
        <time>2022-07-24T07:08:09Z</time>
      </trkpt>
      <trkpt lat="42.7014430" lon="-0.0453920">
        <ele>2412.0</ele>
        <time>2022-07-24T07:08:10Z</time>
      </trkpt>
      <trkpt lat="42.7014470" lon="-0.0454070">
        <ele>2412.2</ele>
        <time>2022-07-24T07:08:11Z</time>
      </trkpt>
      <trkpt lat="42.7014490" lon="-0.0454240">
        <ele>2412.0</ele>
        <time>2022-07-24T07:08:12Z</time>
      </trkpt>
      <trkpt lat="42.7014490" lon="-0.0454720">
        <ele>2411.6</ele>
        <time>2022-07-24T07:08:15Z</time>
      </trkpt>
      <trkpt lat="42.7014470" lon="-0.0454870">
        <ele>2411.6</ele>
        <time>2022-07-24T07:08:16Z</time>
      </trkpt>
      <trkpt lat="42.7014470" lon="-0.0455230">
        <ele>2411.6</ele>
        <time>2022-07-24T07:08:18Z</time>
      </trkpt>
      <trkpt lat="42.7014590" lon="-0.0455610">
        <ele>2411.0</ele>
        <time>2022-07-24T07:08:21Z</time>
      </trkpt>
      <trkpt lat="42.7014530" lon="-0.0455860">
        <ele>2411.0</ele>
        <time>2022-07-24T07:08:23Z</time>
      </trkpt>
      <trkpt lat="42.7014430" lon="-0.0455990">
        <ele>2411.0</ele>
        <time>2022-07-24T07:08:24Z</time>
      </trkpt>
      <trkpt lat="42.7014390" lon="-0.0456100">
        <ele>2411.0</ele>
        <time>2022-07-24T07:08:25Z</time>
      </trkpt>
      <trkpt lat="42.7014540" lon="-0.0456340">
        <ele>2411.2</ele>
        <time>2022-07-24T07:08:27Z</time>
      </trkpt>
      <trkpt lat="42.7014540" lon="-0.0456440">
        <ele>2411.2</ele>
        <time>2022-07-24T07:08:28Z</time>
      </trkpt>
      <trkpt lat="42.7014640" lon="-0.0456580">
        <ele>2411.4</ele>
        <time>2022-07-24T07:08:29Z</time>
      </trkpt>
      <trkpt lat="42.7014840" lon="-0.0456830">
        <ele>2411.8</ele>
        <time>2022-07-24T07:08:31Z</time>
      </trkpt>
      <trkpt lat="42.7014950" lon="-0.0456920">
        <ele>2412.0</ele>
        <time>2022-07-24T07:08:33Z</time>
      </trkpt>
      <trkpt lat="42.7014990" lon="-0.0456960">
        <ele>2412.0</ele>
        <time>2022-07-24T07:08:34Z</time>
      </trkpt>
      <trkpt lat="42.7015120" lon="-0.0457370">
        <ele>2412.0</ele>
        <time>2022-07-24T07:08:39Z</time>
      </trkpt>
      <trkpt lat="42.7015280" lon="-0.0457590">
        <ele>2412.2</ele>
        <time>2022-07-24T07:08:41Z</time>
      </trkpt>
      <trkpt lat="42.7015330" lon="-0.0457680">
        <ele>2412.0</ele>
        <time>2022-07-24T07:08:42Z</time>
      </trkpt>
      <trkpt lat="42.7015350" lon="-0.0457710">
        <ele>2411.8</ele>
        <time>2022-07-24T07:08:43Z</time>
      </trkpt>
      <trkpt lat="42.7015390" lon="-0.0457810">
        <ele>2412.0</ele>
        <time>2022-07-24T07:08:44Z</time>
      </trkpt>
      <trkpt lat="42.7015450" lon="-0.0457920">
        <ele>2411.8</ele>
        <time>2022-07-24T07:08:45Z</time>
      </trkpt>
      <trkpt lat="42.7015530" lon="-0.0458260">
        <ele>2411.6</ele>
        <time>2022-07-24T07:08:47Z</time>
      </trkpt>
      <trkpt lat="42.7015480" lon="-0.0458640">
        <ele>2411.2</ele>
        <time>2022-07-24T07:08:50Z</time>
      </trkpt>
      <trkpt lat="42.7015440" lon="-0.0458890">
        <ele>2410.6</ele>
        <time>2022-07-24T07:08:52Z</time>
      </trkpt>
      <trkpt lat="42.7015570" lon="-0.0459040">
        <ele>2410.2</ele>
        <time>2022-07-24T07:08:53Z</time>
      </trkpt>
      <trkpt lat="42.7015630" lon="-0.0459170">
        <ele>2410.2</ele>
        <time>2022-07-24T07:08:54Z</time>
      </trkpt>
      <trkpt lat="42.7015710" lon="-0.0459340">
        <ele>2410.0</ele>
        <time>2022-07-24T07:08:55Z</time>
      </trkpt>
      <trkpt lat="42.7015760" lon="-0.0459440">
        <ele>2409.8</ele>
        <time>2022-07-24T07:08:56Z</time>
      </trkpt>
      <trkpt lat="42.7015980" lon="-0.0459720">
        <ele>2409.6</ele>
        <time>2022-07-24T07:08:57Z</time>
      </trkpt>
      <trkpt lat="42.7016000" lon="-0.0459880">
        <ele>2409.4</ele>
        <time>2022-07-24T07:08:58Z</time>
      </trkpt>
      <trkpt lat="42.7016060" lon="-0.0460020">
        <ele>2409.4</ele>
        <time>2022-07-24T07:08:59Z</time>
      </trkpt>
      <trkpt lat="42.7016080" lon="-0.0460200">
        <ele>2409.0</ele>
        <time>2022-07-24T07:09:00Z</time>
      </trkpt>
      <trkpt lat="42.7016140" lon="-0.0460330">
        <ele>2409.0</ele>
        <time>2022-07-24T07:09:01Z</time>
      </trkpt>
      <trkpt lat="42.7016210" lon="-0.0460510">
        <ele>2408.8</ele>
        <time>2022-07-24T07:09:02Z</time>
      </trkpt>
      <trkpt lat="42.7016150" lon="-0.0460650">
        <ele>2408.8</ele>
        <time>2022-07-24T07:09:03Z</time>
      </trkpt>
      <trkpt lat="42.7016370" lon="-0.0460850">
        <ele>2408.8</ele>
        <time>2022-07-24T07:09:04Z</time>
      </trkpt>
      <trkpt lat="42.7016470" lon="-0.0461030">
        <ele>2408.4</ele>
        <time>2022-07-24T07:09:05Z</time>
      </trkpt>
      <trkpt lat="42.7016580" lon="-0.0461200">
        <ele>2408.0</ele>
        <time>2022-07-24T07:09:06Z</time>
      </trkpt>
      <trkpt lat="42.7016490" lon="-0.0461560">
        <ele>2407.6</ele>
        <time>2022-07-24T07:09:09Z</time>
      </trkpt>
      <trkpt lat="42.7016560" lon="-0.0461700">
        <ele>2407.6</ele>
        <time>2022-07-24T07:09:10Z</time>
      </trkpt>
      <trkpt lat="42.7016730" lon="-0.0461870">
        <ele>2407.6</ele>
        <time>2022-07-24T07:09:12Z</time>
      </trkpt>
      <trkpt lat="42.7016750" lon="-0.0461970">
        <ele>2407.2</ele>
        <time>2022-07-24T07:09:13Z</time>
      </trkpt>
      <trkpt lat="42.7016750" lon="-0.0462080">
        <ele>2407.2</ele>
        <time>2022-07-24T07:09:14Z</time>
      </trkpt>
      <trkpt lat="42.7016710" lon="-0.0462240">
        <ele>2407.0</ele>
        <time>2022-07-24T07:09:15Z</time>
      </trkpt>
      <trkpt lat="42.7016750" lon="-0.0462440">
        <ele>2407.0</ele>
        <time>2022-07-24T07:09:16Z</time>
      </trkpt>
      <trkpt lat="42.7016870" lon="-0.0463050">
        <ele>2407.0</ele>
        <time>2022-07-24T07:09:19Z</time>
      </trkpt>
      <trkpt lat="42.7017010" lon="-0.0463500">
        <ele>2407.0</ele>
        <time>2022-07-24T07:09:21Z</time>
      </trkpt>
      <trkpt lat="42.7017120" lon="-0.0464050">
        <ele>2406.8</ele>
        <time>2022-07-24T07:09:24Z</time>
      </trkpt>
      <trkpt lat="42.7017090" lon="-0.0464180">
        <ele>2406.8</ele>
        <time>2022-07-24T07:09:25Z</time>
      </trkpt>
      <trkpt lat="42.7017070" lon="-0.0464290">
        <ele>2406.8</ele>
        <time>2022-07-24T07:09:26Z</time>
      </trkpt>
      <trkpt lat="42.7017090" lon="-0.0464440">
        <ele>2406.6</ele>
        <time>2022-07-24T07:09:27Z</time>
      </trkpt>
      <trkpt lat="42.7017050" lon="-0.0464560">
        <ele>2406.4</ele>
        <time>2022-07-24T07:09:28Z</time>
      </trkpt>
      <trkpt lat="42.7016980" lon="-0.0464790">
        <ele>2406.2</ele>
        <time>2022-07-24T07:09:30Z</time>
      </trkpt>
      <trkpt lat="42.7016970" lon="-0.0464880">
        <ele>2406.2</ele>
        <time>2022-07-24T07:09:31Z</time>
      </trkpt>
      <trkpt lat="42.7017000" lon="-0.0465000">
        <ele>2406.2</ele>
        <time>2022-07-24T07:09:32Z</time>
      </trkpt>
      <trkpt lat="42.7017020" lon="-0.0465110">
        <ele>2405.8</ele>
        <time>2022-07-24T07:09:33Z</time>
      </trkpt>
      <trkpt lat="42.7017090" lon="-0.0465230">
        <ele>2405.6</ele>
        <time>2022-07-24T07:09:34Z</time>
      </trkpt>
      <trkpt lat="42.7017080" lon="-0.0465360">
        <ele>2405.6</ele>
        <time>2022-07-24T07:09:35Z</time>
      </trkpt>
      <trkpt lat="42.7017090" lon="-0.0465520">
        <ele>2405.6</ele>
        <time>2022-07-24T07:09:36Z</time>
      </trkpt>
      <trkpt lat="42.7017070" lon="-0.0465660">
        <ele>2405.2</ele>
        <time>2022-07-24T07:09:37Z</time>
      </trkpt>
      <trkpt lat="42.7017060" lon="-0.0465940">
        <ele>2405.0</ele>
        <time>2022-07-24T07:09:39Z</time>
      </trkpt>
      <trkpt lat="42.7016950" lon="-0.0466200">
        <ele>2404.6</ele>
        <time>2022-07-24T07:09:41Z</time>
      </trkpt>
      <trkpt lat="42.7016970" lon="-0.0466350">
        <ele>2404.2</ele>
        <time>2022-07-24T07:09:42Z</time>
      </trkpt>
      <trkpt lat="42.7017160" lon="-0.0466850">
        <ele>2403.0</ele>
        <time>2022-07-24T07:09:45Z</time>
      </trkpt>
      <trkpt lat="42.7017320" lon="-0.0467350">
        <ele>2402.0</ele>
        <time>2022-07-24T07:09:49Z</time>
      </trkpt>
      <trkpt lat="42.7017290" lon="-0.0467530">
        <ele>2401.8</ele>
        <time>2022-07-24T07:09:51Z</time>
      </trkpt>
      <trkpt lat="42.7017400" lon="-0.0467650">
        <ele>2401.8</ele>
        <time>2022-07-24T07:09:52Z</time>
      </trkpt>
      <trkpt lat="42.7017400" lon="-0.0467940">
        <ele>2401.6</ele>
        <time>2022-07-24T07:09:54Z</time>
      </trkpt>
      <trkpt lat="42.7017420" lon="-0.0468130">
        <ele>2401.4</ele>
        <time>2022-07-24T07:09:56Z</time>
      </trkpt>
      <trkpt lat="42.7017370" lon="-0.0468300">
        <ele>2401.2</ele>
        <time>2022-07-24T07:09:57Z</time>
      </trkpt>
      <trkpt lat="42.7017370" lon="-0.0468430">
        <ele>2401.4</ele>
        <time>2022-07-24T07:09:58Z</time>
      </trkpt>
      <trkpt lat="42.7017450" lon="-0.0468590">
        <ele>2401.2</ele>
        <time>2022-07-24T07:10:00Z</time>
      </trkpt>
      <trkpt lat="42.7017540" lon="-0.0468700">
        <ele>2401.2</ele>
        <time>2022-07-24T07:10:01Z</time>
      </trkpt>
      <trkpt lat="42.7017690" lon="-0.0468830">
        <ele>2401.2</ele>
        <time>2022-07-24T07:10:02Z</time>
      </trkpt>
      <trkpt lat="42.7017730" lon="-0.0468900">
        <ele>2400.6</ele>
        <time>2022-07-24T07:10:03Z</time>
      </trkpt>
      <trkpt lat="42.7017700" lon="-0.0468970">
        <ele>2400.4</ele>
        <time>2022-07-24T07:10:04Z</time>
      </trkpt>
      <trkpt lat="42.7017750" lon="-0.0469070">
        <ele>2400.0</ele>
        <time>2022-07-24T07:10:05Z</time>
      </trkpt>
      <trkpt lat="42.7017750" lon="-0.0469200">
        <ele>2399.8</ele>
        <time>2022-07-24T07:10:06Z</time>
      </trkpt>
      <trkpt lat="42.7017760" lon="-0.0469300">
        <ele>2399.6</ele>
        <time>2022-07-24T07:10:07Z</time>
      </trkpt>
      <trkpt lat="42.7017740" lon="-0.0469540">
        <ele>2399.4</ele>
        <time>2022-07-24T07:10:09Z</time>
      </trkpt>
      <trkpt lat="42.7017720" lon="-0.0469680">
        <ele>2399.2</ele>
        <time>2022-07-24T07:10:10Z</time>
      </trkpt>
      <trkpt lat="42.7017730" lon="-0.0469820">
        <ele>2399.2</ele>
        <time>2022-07-24T07:10:11Z</time>
      </trkpt>
      <trkpt lat="42.7017720" lon="-0.0469950">
        <ele>2399.2</ele>
        <time>2022-07-24T07:10:12Z</time>
      </trkpt>
      <trkpt lat="42.7017730" lon="-0.0470080">
        <ele>2399.2</ele>
        <time>2022-07-24T07:10:13Z</time>
      </trkpt>
      <trkpt lat="42.7017680" lon="-0.0470210">
        <ele>2399.0</ele>
        <time>2022-07-24T07:10:14Z</time>
      </trkpt>
      <trkpt lat="42.7017690" lon="-0.0470600">
        <ele>2398.8</ele>
        <time>2022-07-24T07:10:16Z</time>
      </trkpt>
      <trkpt lat="42.7017630" lon="-0.0470800">
        <ele>2398.8</ele>
        <time>2022-07-24T07:10:17Z</time>
      </trkpt>
      <trkpt lat="42.7017620" lon="-0.0470930">
        <ele>2398.8</ele>
        <time>2022-07-24T07:10:18Z</time>
      </trkpt>
      <trkpt lat="42.7017650" lon="-0.0471040">
        <ele>2398.6</ele>
        <time>2022-07-24T07:10:19Z</time>
      </trkpt>
      <trkpt lat="42.7017750" lon="-0.0471370">
        <ele>2398.2</ele>
        <time>2022-07-24T07:10:21Z</time>
      </trkpt>
      <trkpt lat="42.7017750" lon="-0.0471480">
        <ele>2398.0</ele>
        <time>2022-07-24T07:10:22Z</time>
      </trkpt>
      <trkpt lat="42.7017740" lon="-0.0471610">
        <ele>2398.0</ele>
        <time>2022-07-24T07:10:23Z</time>
      </trkpt>
      <trkpt lat="42.7017760" lon="-0.0471760">
        <ele>2398.0</ele>
        <time>2022-07-24T07:10:24Z</time>
      </trkpt>
      <trkpt lat="42.7017750" lon="-0.0472030">
        <ele>2398.0</ele>
        <time>2022-07-24T07:10:27Z</time>
      </trkpt>
      <trkpt lat="42.7017770" lon="-0.0472140">
        <ele>2398.0</ele>
        <time>2022-07-24T07:10:28Z</time>
      </trkpt>
      <trkpt lat="42.7017800" lon="-0.0472260">
        <ele>2398.0</ele>
        <time>2022-07-24T07:10:29Z</time>
      </trkpt>
      <trkpt lat="42.7017860" lon="-0.0472360">
        <ele>2397.8</ele>
        <time>2022-07-24T07:10:30Z</time>
      </trkpt>
      <trkpt lat="42.7017950" lon="-0.0472470">
        <ele>2397.6</ele>
        <time>2022-07-24T07:10:31Z</time>
      </trkpt>
      <trkpt lat="42.7018020" lon="-0.0472590">
        <ele>2397.8</ele>
        <time>2022-07-24T07:10:32Z</time>
      </trkpt>
      <trkpt lat="42.7018120" lon="-0.0472730">
        <ele>2397.6</ele>
        <time>2022-07-24T07:10:33Z</time>
      </trkpt>
      <trkpt lat="42.7018240" lon="-0.0472910">
        <ele>2397.2</ele>
        <time>2022-07-24T07:10:34Z</time>
      </trkpt>
      <trkpt lat="42.7018290" lon="-0.0473060">
        <ele>2396.8</ele>
        <time>2022-07-24T07:10:35Z</time>
      </trkpt>
      <trkpt lat="42.7018330" lon="-0.0473240">
        <ele>2397.0</ele>
        <time>2022-07-24T07:10:36Z</time>
      </trkpt>
      <trkpt lat="42.7018360" lon="-0.0473390">
        <ele>2396.8</ele>
        <time>2022-07-24T07:10:37Z</time>
      </trkpt>
      <trkpt lat="42.7018450" lon="-0.0473600">
        <ele>2396.4</ele>
        <time>2022-07-24T07:10:38Z</time>
      </trkpt>
      <trkpt lat="42.7018130" lon="-0.0473770">
        <ele>2396.4</ele>
        <time>2022-07-24T07:10:40Z</time>
      </trkpt>
      <trkpt lat="42.7018130" lon="-0.0474220">
        <ele>2396.4</ele>
        <time>2022-07-24T07:10:43Z</time>
      </trkpt>
      <trkpt lat="42.7018280" lon="-0.0474550">
        <ele>2395.8</ele>
        <time>2022-07-24T07:10:46Z</time>
      </trkpt>
      <trkpt lat="42.7018450" lon="-0.0474900">
        <ele>2395.6</ele>
        <time>2022-07-24T07:10:48Z</time>
      </trkpt>
      <trkpt lat="42.7018650" lon="-0.0475080">
        <ele>2395.2</ele>
        <time>2022-07-24T07:10:49Z</time>
      </trkpt>
      <trkpt lat="42.7018880" lon="-0.0475230">
        <ele>2395.2</ele>
        <time>2022-07-24T07:10:50Z</time>
      </trkpt>
      <trkpt lat="42.7019240" lon="-0.0475450">
        <ele>2395.0</ele>
        <time>2022-07-24T07:10:52Z</time>
      </trkpt>
      <trkpt lat="42.7019430" lon="-0.0475510">
        <ele>2395.0</ele>
        <time>2022-07-24T07:10:53Z</time>
      </trkpt>
      <trkpt lat="42.7019640" lon="-0.0475570">
        <ele>2395.0</ele>
        <time>2022-07-24T07:10:54Z</time>
      </trkpt>
      <trkpt lat="42.7020260" lon="-0.0475860">
        <ele>2394.6</ele>
        <time>2022-07-24T07:10:59Z</time>
      </trkpt>
      <trkpt lat="42.7020350" lon="-0.0475940">
        <ele>2394.2</ele>
        <time>2022-07-24T07:11:00Z</time>
      </trkpt>
      <trkpt lat="42.7020370" lon="-0.0476040">
        <ele>2394.2</ele>
        <time>2022-07-24T07:11:01Z</time>
      </trkpt>
      <trkpt lat="42.7020380" lon="-0.0476180">
        <ele>2394.0</ele>
        <time>2022-07-24T07:11:02Z</time>
      </trkpt>
      <trkpt lat="42.7020480" lon="-0.0476480">
        <ele>2393.8</ele>
        <time>2022-07-24T07:11:04Z</time>
      </trkpt>
      <trkpt lat="42.7020540" lon="-0.0476650">
        <ele>2393.8</ele>
        <time>2022-07-24T07:11:05Z</time>
      </trkpt>
      <trkpt lat="42.7020580" lon="-0.0476810">
        <ele>2393.8</ele>
        <time>2022-07-24T07:11:06Z</time>
      </trkpt>
      <trkpt lat="42.7020630" lon="-0.0476980">
        <ele>2393.8</ele>
        <time>2022-07-24T07:11:07Z</time>
      </trkpt>
      <trkpt lat="42.7020540" lon="-0.0477210">
        <ele>2393.4</ele>
        <time>2022-07-24T07:11:09Z</time>
      </trkpt>
      <trkpt lat="42.7020500" lon="-0.0477330">
        <ele>2393.4</ele>
        <time>2022-07-24T07:11:10Z</time>
      </trkpt>
      <trkpt lat="42.7020430" lon="-0.0477430">
        <ele>2393.4</ele>
        <time>2022-07-24T07:11:11Z</time>
      </trkpt>
      <trkpt lat="42.7020420" lon="-0.0477450">
        <ele>2393.4</ele>
        <time>2022-07-24T07:11:12Z</time>
      </trkpt>
      <trkpt lat="42.7020420" lon="-0.0477560">
        <ele>2393.4</ele>
        <time>2022-07-24T07:11:13Z</time>
      </trkpt>
      <trkpt lat="42.7020420" lon="-0.0477730">
        <ele>2392.4</ele>
        <time>2022-07-24T07:11:15Z</time>
      </trkpt>
      <trkpt lat="42.7020420" lon="-0.0477810">
        <ele>2392.2</ele>
        <time>2022-07-24T07:11:16Z</time>
      </trkpt>
      <trkpt lat="42.7020400" lon="-0.0477890">
        <ele>2392.0</ele>
        <time>2022-07-24T07:11:17Z</time>
      </trkpt>
      <trkpt lat="42.7020400" lon="-0.0477970">
        <ele>2391.8</ele>
        <time>2022-07-24T07:11:18Z</time>
      </trkpt>
      <trkpt lat="42.7020510" lon="-0.0478180">
        <ele>2391.6</ele>
        <time>2022-07-24T07:11:20Z</time>
      </trkpt>
      <trkpt lat="42.7020590" lon="-0.0478330">
        <ele>2391.6</ele>
        <time>2022-07-24T07:11:21Z</time>
      </trkpt>
      <trkpt lat="42.7020660" lon="-0.0478450">
        <ele>2391.6</ele>
        <time>2022-07-24T07:11:22Z</time>
      </trkpt>
      <trkpt lat="42.7020720" lon="-0.0478550">
        <ele>2391.4</ele>
        <time>2022-07-24T07:11:23Z</time>
      </trkpt>
      <trkpt lat="42.7020780" lon="-0.0478790">
        <ele>2391.0</ele>
        <time>2022-07-24T07:11:25Z</time>
      </trkpt>
      <trkpt lat="42.7020860" lon="-0.0478940">
        <ele>2390.8</ele>
        <time>2022-07-24T07:11:26Z</time>
      </trkpt>
      <trkpt lat="42.7020990" lon="-0.0479600">
        <ele>2390.6</ele>
        <time>2022-07-24T07:11:30Z</time>
      </trkpt>
      <trkpt lat="42.7021030" lon="-0.0479790">
        <ele>2390.6</ele>
        <time>2022-07-24T07:11:31Z</time>
      </trkpt>
      <trkpt lat="42.7021090" lon="-0.0480530">
        <ele>2389.6</ele>
        <time>2022-07-24T07:11:36Z</time>
      </trkpt>
      <trkpt lat="42.7021130" lon="-0.0480810">
        <ele>2389.4</ele>
        <time>2022-07-24T07:11:38Z</time>
      </trkpt>
      <trkpt lat="42.7021160" lon="-0.0480950">
        <ele>2389.2</ele>
        <time>2022-07-24T07:11:39Z</time>
      </trkpt>
      <trkpt lat="42.7021180" lon="-0.0481580">
        <ele>2388.8</ele>
        <time>2022-07-24T07:11:42Z</time>
      </trkpt>
      <trkpt lat="42.7021070" lon="-0.0482570">
        <ele>2388.6</ele>
        <time>2022-07-24T07:11:48Z</time>
      </trkpt>
      <trkpt lat="42.7020820" lon="-0.0483040">
        <ele>2388.4</ele>
        <time>2022-07-24T07:11:50Z</time>
      </trkpt>
      <trkpt lat="42.7020790" lon="-0.0483200">
        <ele>2388.4</ele>
        <time>2022-07-24T07:11:51Z</time>
      </trkpt>
      <trkpt lat="42.7020710" lon="-0.0483380">
        <ele>2388.2</ele>
        <time>2022-07-24T07:11:52Z</time>
      </trkpt>
      <trkpt lat="42.7020430" lon="-0.0484080">
        <ele>2388.4</ele>
        <time>2022-07-24T07:11:56Z</time>
      </trkpt>
      <trkpt lat="42.7020470" lon="-0.0484490">
        <ele>2388.2</ele>
        <time>2022-07-24T07:12:00Z</time>
      </trkpt>
      <trkpt lat="42.7020630" lon="-0.0484660">
        <ele>2388.2</ele>
        <time>2022-07-24T07:12:02Z</time>
      </trkpt>
      <trkpt lat="42.7020690" lon="-0.0484830">
        <ele>2388.2</ele>
        <time>2022-07-24T07:12:03Z</time>
      </trkpt>
      <trkpt lat="42.7020760" lon="-0.0484940">
        <ele>2388.2</ele>
        <time>2022-07-24T07:12:04Z</time>
      </trkpt>
      <trkpt lat="42.7020820" lon="-0.0485090">
        <ele>2388.4</ele>
        <time>2022-07-24T07:12:05Z</time>
      </trkpt>
      <trkpt lat="42.7020940" lon="-0.0485320">
        <ele>2388.4</ele>
        <time>2022-07-24T07:12:07Z</time>
      </trkpt>
      <trkpt lat="42.7020970" lon="-0.0485390">
        <ele>2388.6</ele>
        <time>2022-07-24T07:12:08Z</time>
      </trkpt>
      <trkpt lat="42.7021000" lon="-0.0485490">
        <ele>2388.6</ele>
        <time>2022-07-24T07:12:09Z</time>
      </trkpt>
      <trkpt lat="42.7021250" lon="-0.0485590">
        <ele>2388.6</ele>
        <time>2022-07-24T07:12:10Z</time>
      </trkpt>
      <trkpt lat="42.7021360" lon="-0.0485760">
        <ele>2388.4</ele>
        <time>2022-07-24T07:12:11Z</time>
      </trkpt>
      <trkpt lat="42.7021690" lon="-0.0485960">
        <ele>2388.6</ele>
        <time>2022-07-24T07:12:12Z</time>
      </trkpt>
      <trkpt lat="42.7021780" lon="-0.0486350">
        <ele>2388.6</ele>
        <time>2022-07-24T07:12:14Z</time>
      </trkpt>
      <trkpt lat="42.7021820" lon="-0.0486520">
        <ele>2388.6</ele>
        <time>2022-07-24T07:12:15Z</time>
      </trkpt>
      <trkpt lat="42.7021870" lon="-0.0486650">
        <ele>2388.8</ele>
        <time>2022-07-24T07:12:16Z</time>
      </trkpt>
      <trkpt lat="42.7021870" lon="-0.0486980">
        <ele>2388.8</ele>
        <time>2022-07-24T07:12:19Z</time>
      </trkpt>
      <trkpt lat="42.7021850" lon="-0.0487140">
        <ele>2389.4</ele>
        <time>2022-07-24T07:12:21Z</time>
      </trkpt>
      <trkpt lat="42.7021890" lon="-0.0487230">
        <ele>2389.6</ele>
        <time>2022-07-24T07:12:22Z</time>
      </trkpt>
      <trkpt lat="42.7021650" lon="-0.0488030">
        <ele>2388.8</ele>
        <time>2022-07-24T07:12:26Z</time>
      </trkpt>
      <trkpt lat="42.7021510" lon="-0.0488500">
        <ele>2388.4</ele>
        <time>2022-07-24T07:12:30Z</time>
      </trkpt>
      <trkpt lat="42.7021510" lon="-0.0488550">
        <ele>2388.6</ele>
        <time>2022-07-24T07:12:31Z</time>
      </trkpt>
      <trkpt lat="42.7021490" lon="-0.0488670">
        <ele>2388.4</ele>
        <time>2022-07-24T07:12:32Z</time>
      </trkpt>
      <trkpt lat="42.7021430" lon="-0.0488900">
        <ele>2388.2</ele>
        <time>2022-07-24T07:12:34Z</time>
      </trkpt>
      <trkpt lat="42.7021390" lon="-0.0489460">
        <ele>2387.8</ele>
        <time>2022-07-24T07:12:38Z</time>
      </trkpt>
      <trkpt lat="42.7021440" lon="-0.0489580">
        <ele>2387.8</ele>
        <time>2022-07-24T07:12:39Z</time>
      </trkpt>
      <trkpt lat="42.7021470" lon="-0.0489680">
        <ele>2387.4</ele>
        <time>2022-07-24T07:12:40Z</time>
      </trkpt>
      <trkpt lat="42.7021510" lon="-0.0489840">
        <ele>2387.4</ele>
        <time>2022-07-24T07:12:41Z</time>
      </trkpt>
      <trkpt lat="42.7021450" lon="-0.0490090">
        <ele>2387.2</ele>
        <time>2022-07-24T07:12:42Z</time>
      </trkpt>
      <trkpt lat="42.7021460" lon="-0.0490270">
        <ele>2387.0</ele>
        <time>2022-07-24T07:12:43Z</time>
      </trkpt>
      <trkpt lat="42.7021430" lon="-0.0490450">
        <ele>2387.2</ele>
        <time>2022-07-24T07:12:44Z</time>
      </trkpt>
      <trkpt lat="42.7021400" lon="-0.0490610">
        <ele>2386.6</ele>
        <time>2022-07-24T07:12:46Z</time>
      </trkpt>
      <trkpt lat="42.7021400" lon="-0.0490590">
        <ele>2386.4</ele>
        <time>2022-07-24T07:12:47Z</time>
      </trkpt>
      <trkpt lat="42.7021340" lon="-0.0490690">
        <ele>2386.2</ele>
        <time>2022-07-24T07:12:48Z</time>
      </trkpt>
      <trkpt lat="42.7021220" lon="-0.0491020">
        <ele>2386.0</ele>
        <time>2022-07-24T07:12:51Z</time>
      </trkpt>
      <trkpt lat="42.7021220" lon="-0.0491150">
        <ele>2386.2</ele>
        <time>2022-07-24T07:12:52Z</time>
      </trkpt>
      <trkpt lat="42.7021270" lon="-0.0491210">
        <ele>2385.8</ele>
        <time>2022-07-24T07:12:53Z</time>
      </trkpt>
      <trkpt lat="42.7021330" lon="-0.0491660">
        <ele>2384.8</ele>
        <time>2022-07-24T07:12:57Z</time>
      </trkpt>
      <trkpt lat="42.7021290" lon="-0.0491830">
        <ele>2384.6</ele>
        <time>2022-07-24T07:12:58Z</time>
      </trkpt>
      <trkpt lat="42.7021310" lon="-0.0491990">
        <ele>2384.4</ele>
        <time>2022-07-24T07:12:59Z</time>
      </trkpt>
      <trkpt lat="42.7021260" lon="-0.0492160">
        <ele>2384.2</ele>
        <time>2022-07-24T07:13:00Z</time>
      </trkpt>
      <trkpt lat="42.7021020" lon="-0.0492610">
        <ele>2383.6</ele>
        <time>2022-07-24T07:13:03Z</time>
      </trkpt>
      <trkpt lat="42.7020890" lon="-0.0492740">
        <ele>2383.4</ele>
        <time>2022-07-24T07:13:04Z</time>
      </trkpt>
      <trkpt lat="42.7020540" lon="-0.0493270">
        <ele>2382.2</ele>
        <time>2022-07-24T07:13:08Z</time>
      </trkpt>
      <trkpt lat="42.7020610" lon="-0.0493380">
        <ele>2382.2</ele>
        <time>2022-07-24T07:13:09Z</time>
      </trkpt>
      <trkpt lat="42.7020690" lon="-0.0493500">
        <ele>2381.8</ele>
        <time>2022-07-24T07:13:10Z</time>
      </trkpt>
      <trkpt lat="42.7020770" lon="-0.0493640">
        <ele>2381.6</ele>
        <time>2022-07-24T07:13:11Z</time>
      </trkpt>
      <trkpt lat="42.7021100" lon="-0.0494160">
        <ele>2380.6</ele>
        <time>2022-07-24T07:13:16Z</time>
      </trkpt>
      <trkpt lat="42.7021390" lon="-0.0495030">
        <ele>2378.8</ele>
        <time>2022-07-24T07:13:22Z</time>
      </trkpt>
      <trkpt lat="42.7021570" lon="-0.0495260">
        <ele>2378.4</ele>
        <time>2022-07-24T07:13:24Z</time>
      </trkpt>
      <trkpt lat="42.7021640" lon="-0.0495370">
        <ele>2378.4</ele>
        <time>2022-07-24T07:13:25Z</time>
      </trkpt>
      <trkpt lat="42.7021750" lon="-0.0495930">
        <ele>2376.8</ele>
        <time>2022-07-24T07:13:31Z</time>
      </trkpt>
      <trkpt lat="42.7021820" lon="-0.0495950">
        <ele>2376.6</ele>
        <time>2022-07-24T07:13:32Z</time>
      </trkpt>
      <trkpt lat="42.7021810" lon="-0.0496070">
        <ele>2376.2</ele>
        <time>2022-07-24T07:13:33Z</time>
      </trkpt>
      <trkpt lat="42.7021930" lon="-0.0496380">
        <ele>2375.6</ele>
        <time>2022-07-24T07:13:37Z</time>
      </trkpt>
      <trkpt lat="42.7021970" lon="-0.0496460">
        <ele>2375.6</ele>
        <time>2022-07-24T07:13:38Z</time>
      </trkpt>
      <trkpt lat="42.7022030" lon="-0.0496500">
        <ele>2375.6</ele>
        <time>2022-07-24T07:13:39Z</time>
      </trkpt>
      <trkpt lat="42.7022040" lon="-0.0496630">
        <ele>2375.2</ele>
        <time>2022-07-24T07:13:40Z</time>
      </trkpt>
      <trkpt lat="42.7022070" lon="-0.0496770">
        <ele>2375.2</ele>
        <time>2022-07-24T07:13:41Z</time>
      </trkpt>
      <trkpt lat="42.7022110" lon="-0.0496900">
        <ele>2375.2</ele>
        <time>2022-07-24T07:13:42Z</time>
      </trkpt>
      <trkpt lat="42.7022190" lon="-0.0497290">
        <ele>2373.6</ele>
        <time>2022-07-24T07:13:45Z</time>
      </trkpt>
      <trkpt lat="42.7022150" lon="-0.0497760">
        <ele>2372.6</ele>
        <time>2022-07-24T07:13:48Z</time>
      </trkpt>
      <trkpt lat="42.7022170" lon="-0.0497960">
        <ele>2372.6</ele>
        <time>2022-07-24T07:13:49Z</time>
      </trkpt>
      <trkpt lat="42.7022340" lon="-0.0498780">
        <ele>2371.2</ele>
        <time>2022-07-24T07:13:53Z</time>
      </trkpt>
      <trkpt lat="42.7022430" lon="-0.0498940">
        <ele>2371.0</ele>
        <time>2022-07-24T07:13:54Z</time>
      </trkpt>
      <trkpt lat="42.7022470" lon="-0.0499150">
        <ele>2370.8</ele>
        <time>2022-07-24T07:13:55Z</time>
      </trkpt>
      <trkpt lat="42.7022500" lon="-0.0499370">
        <ele>2370.8</ele>
        <time>2022-07-24T07:13:56Z</time>
      </trkpt>
      <trkpt lat="42.7022530" lon="-0.0499580">
        <ele>2370.4</ele>
        <time>2022-07-24T07:13:57Z</time>
      </trkpt>
      <trkpt lat="42.7022670" lon="-0.0500600">
        <ele>2368.6</ele>
        <time>2022-07-24T07:14:03Z</time>
      </trkpt>
      <trkpt lat="42.7022700" lon="-0.0500740">
        <ele>2368.2</ele>
        <time>2022-07-24T07:14:04Z</time>
      </trkpt>
      <trkpt lat="42.7022730" lon="-0.0500870">
        <ele>2368.0</ele>
        <time>2022-07-24T07:14:05Z</time>
      </trkpt>
      <trkpt lat="42.7022780" lon="-0.0501030">
        <ele>2367.6</ele>
        <time>2022-07-24T07:14:06Z</time>
      </trkpt>
      <trkpt lat="42.7022970" lon="-0.0502130">
        <ele>2366.4</ele>
        <time>2022-07-24T07:14:13Z</time>
      </trkpt>
      <trkpt lat="42.7023040" lon="-0.0502330">
        <ele>2366.4</ele>
        <time>2022-07-24T07:14:14Z</time>
      </trkpt>
      <trkpt lat="42.7023010" lon="-0.0502550">
        <ele>2366.4</ele>
        <time>2022-07-24T07:14:15Z</time>
      </trkpt>
      <trkpt lat="42.7023050" lon="-0.0502690">
        <ele>2366.0</ele>
        <time>2022-07-24T07:14:16Z</time>
      </trkpt>
      <trkpt lat="42.7023100" lon="-0.0502960">
        <ele>2365.6</ele>
        <time>2022-07-24T07:14:18Z</time>
      </trkpt>
      <trkpt lat="42.7023180" lon="-0.0503080">
        <ele>2365.4</ele>
        <time>2022-07-24T07:14:19Z</time>
      </trkpt>
      <trkpt lat="42.7023290" lon="-0.0503210">
        <ele>2365.4</ele>
        <time>2022-07-24T07:14:20Z</time>
      </trkpt>
      <trkpt lat="42.7023360" lon="-0.0503350">
        <ele>2365.2</ele>
        <time>2022-07-24T07:14:21Z</time>
      </trkpt>
      <trkpt lat="42.7023440" lon="-0.0503500">
        <ele>2365.2</ele>
        <time>2022-07-24T07:14:22Z</time>
      </trkpt>
      <trkpt lat="42.7023490" lon="-0.0503600">
        <ele>2365.0</ele>
        <time>2022-07-24T07:14:23Z</time>
      </trkpt>
      <trkpt lat="42.7023600" lon="-0.0503830">
        <ele>2364.8</ele>
        <time>2022-07-24T07:14:25Z</time>
      </trkpt>
      <trkpt lat="42.7024130" lon="-0.0504570">
        <ele>2364.2</ele>
        <time>2022-07-24T07:14:30Z</time>
      </trkpt>
      <trkpt lat="42.7024200" lon="-0.0504890">
        <ele>2363.6</ele>
        <time>2022-07-24T07:14:32Z</time>
      </trkpt>
      <trkpt lat="42.7024290" lon="-0.0506170">
        <ele>2362.2</ele>
        <time>2022-07-24T07:14:38Z</time>
      </trkpt>
      <trkpt lat="42.7024290" lon="-0.0506380">
        <ele>2362.2</ele>
        <time>2022-07-24T07:14:39Z</time>
      </trkpt>
      <trkpt lat="42.7024210" lon="-0.0506760">
        <ele>2362.2</ele>
        <time>2022-07-24T07:14:41Z</time>
      </trkpt>
      <trkpt lat="42.7024090" lon="-0.0506980">
        <ele>2362.0</ele>
        <time>2022-07-24T07:14:42Z</time>
      </trkpt>
      <trkpt lat="42.7023940" lon="-0.0507170">
        <ele>2362.0</ele>
        <time>2022-07-24T07:14:43Z</time>
      </trkpt>
      <trkpt lat="42.7023830" lon="-0.0507340">
        <ele>2362.0</ele>
        <time>2022-07-24T07:14:44Z</time>
      </trkpt>
      <trkpt lat="42.7023690" lon="-0.0507540">
        <ele>2361.8</ele>
        <time>2022-07-24T07:14:45Z</time>
      </trkpt>
      <trkpt lat="42.7023610" lon="-0.0507690">
        <ele>2361.8</ele>
        <time>2022-07-24T07:14:46Z</time>
      </trkpt>
      <trkpt lat="42.7023490" lon="-0.0507890">
        <ele>2361.6</ele>
        <time>2022-07-24T07:14:47Z</time>
      </trkpt>
      <trkpt lat="42.7023380" lon="-0.0508110">
        <ele>2361.6</ele>
        <time>2022-07-24T07:14:48Z</time>
      </trkpt>
      <trkpt lat="42.7023290" lon="-0.0508280">
        <ele>2361.6</ele>
        <time>2022-07-24T07:14:49Z</time>
      </trkpt>
      <trkpt lat="42.7023210" lon="-0.0508850">
        <ele>2361.4</ele>
        <time>2022-07-24T07:14:53Z</time>
      </trkpt>
      <trkpt lat="42.7023220" lon="-0.0508960">
        <ele>2361.0</ele>
        <time>2022-07-24T07:14:54Z</time>
      </trkpt>
      <trkpt lat="42.7023270" lon="-0.0509220">
        <ele>2360.8</ele>
        <time>2022-07-24T07:14:56Z</time>
      </trkpt>
      <trkpt lat="42.7023330" lon="-0.0509340">
        <ele>2360.8</ele>
        <time>2022-07-24T07:14:57Z</time>
      </trkpt>
      <trkpt lat="42.7023480" lon="-0.0509550">
        <ele>2360.8</ele>
        <time>2022-07-24T07:14:59Z</time>
      </trkpt>
      <trkpt lat="42.7023640" lon="-0.0509820">
        <ele>2360.6</ele>
        <time>2022-07-24T07:15:01Z</time>
      </trkpt>
      <trkpt lat="42.7023710" lon="-0.0509950">
        <ele>2360.8</ele>
        <time>2022-07-24T07:15:02Z</time>
      </trkpt>
      <trkpt lat="42.7023770" lon="-0.0510060">
        <ele>2360.6</ele>
        <time>2022-07-24T07:15:03Z</time>
      </trkpt>
      <trkpt lat="42.7023800" lon="-0.0510150">
        <ele>2360.8</ele>
        <time>2022-07-24T07:15:04Z</time>
      </trkpt>
      <trkpt lat="42.7023840" lon="-0.0510280">
        <ele>2360.6</ele>
        <time>2022-07-24T07:15:05Z</time>
      </trkpt>
      <trkpt lat="42.7023800" lon="-0.0510460">
        <ele>2360.8</ele>
        <time>2022-07-24T07:15:06Z</time>
      </trkpt>
      <trkpt lat="42.7023780" lon="-0.0510640">
        <ele>2360.6</ele>
        <time>2022-07-24T07:15:07Z</time>
      </trkpt>
      <trkpt lat="42.7023860" lon="-0.0510830">
        <ele>2360.6</ele>
        <time>2022-07-24T07:15:09Z</time>
      </trkpt>
      <trkpt lat="42.7023860" lon="-0.0510950">
        <ele>2360.8</ele>
        <time>2022-07-24T07:15:10Z</time>
      </trkpt>
      <trkpt lat="42.7023980" lon="-0.0511110">
        <ele>2360.6</ele>
        <time>2022-07-24T07:15:12Z</time>
      </trkpt>
      <trkpt lat="42.7024030" lon="-0.0511170">
        <ele>2360.6</ele>
        <time>2022-07-24T07:15:13Z</time>
      </trkpt>
      <trkpt lat="42.7024000" lon="-0.0511320">
        <ele>2360.6</ele>
        <time>2022-07-24T07:15:15Z</time>
      </trkpt>
      <trkpt lat="42.7023970" lon="-0.0511580">
        <ele>2360.4</ele>
        <time>2022-07-24T07:15:17Z</time>
      </trkpt>
      <trkpt lat="42.7023950" lon="-0.0511700">
        <ele>2360.4</ele>
        <time>2022-07-24T07:15:18Z</time>
      </trkpt>
      <trkpt lat="42.7023900" lon="-0.0511820">
        <ele>2360.4</ele>
        <time>2022-07-24T07:15:19Z</time>
      </trkpt>
      <trkpt lat="42.7023890" lon="-0.0511920">
        <ele>2360.0</ele>
        <time>2022-07-24T07:15:20Z</time>
      </trkpt>
      <trkpt lat="42.7023880" lon="-0.0512010">
        <ele>2360.0</ele>
        <time>2022-07-24T07:15:21Z</time>
      </trkpt>
      <trkpt lat="42.7023900" lon="-0.0512070">
        <ele>2359.8</ele>
        <time>2022-07-24T07:15:22Z</time>
      </trkpt>
      <trkpt lat="42.7023930" lon="-0.0512140">
        <ele>2359.6</ele>
        <time>2022-07-24T07:15:23Z</time>
      </trkpt>
      <trkpt lat="42.7023980" lon="-0.0512220">
        <ele>2359.8</ele>
        <time>2022-07-24T07:15:24Z</time>
      </trkpt>
      <trkpt lat="42.7023950" lon="-0.0512390">
        <ele>2359.6</ele>
        <time>2022-07-24T07:15:25Z</time>
      </trkpt>
      <trkpt lat="42.7023930" lon="-0.0512560">
        <ele>2359.6</ele>
        <time>2022-07-24T07:15:26Z</time>
      </trkpt>
      <trkpt lat="42.7023950" lon="-0.0512720">
        <ele>2359.6</ele>
        <time>2022-07-24T07:15:27Z</time>
      </trkpt>
      <trkpt lat="42.7023990" lon="-0.0512880">
        <ele>2359.4</ele>
        <time>2022-07-24T07:15:28Z</time>
      </trkpt>
      <trkpt lat="42.7023980" lon="-0.0513050">
        <ele>2359.0</ele>
        <time>2022-07-24T07:15:29Z</time>
      </trkpt>
      <trkpt lat="42.7023970" lon="-0.0513200">
        <ele>2358.8</ele>
        <time>2022-07-24T07:15:30Z</time>
      </trkpt>
      <trkpt lat="42.7024010" lon="-0.0513460">
        <ele>2358.4</ele>
        <time>2022-07-24T07:15:32Z</time>
      </trkpt>
      <trkpt lat="42.7024100" lon="-0.0513750">
        <ele>2358.2</ele>
        <time>2022-07-24T07:15:34Z</time>
      </trkpt>
      <trkpt lat="42.7024170" lon="-0.0513900">
        <ele>2358.2</ele>
        <time>2022-07-24T07:15:35Z</time>
      </trkpt>
      <trkpt lat="42.7024250" lon="-0.0514070">
        <ele>2358.0</ele>
        <time>2022-07-24T07:15:36Z</time>
      </trkpt>
      <trkpt lat="42.7024420" lon="-0.0514460">
        <ele>2357.4</ele>
        <time>2022-07-24T07:15:38Z</time>
      </trkpt>
      <trkpt lat="42.7024530" lon="-0.0514610">
        <ele>2357.4</ele>
        <time>2022-07-24T07:15:39Z</time>
      </trkpt>
      <trkpt lat="42.7024570" lon="-0.0514760">
        <ele>2357.4</ele>
        <time>2022-07-24T07:15:40Z</time>
      </trkpt>
      <trkpt lat="42.7024630" lon="-0.0514860">
        <ele>2357.4</ele>
        <time>2022-07-24T07:15:41Z</time>
      </trkpt>
      <trkpt lat="42.7024630" lon="-0.0514990">
        <ele>2357.4</ele>
        <time>2022-07-24T07:15:42Z</time>
      </trkpt>
      <trkpt lat="42.7024630" lon="-0.0515200">
        <ele>2357.2</ele>
        <time>2022-07-24T07:15:44Z</time>
      </trkpt>
      <trkpt lat="42.7024680" lon="-0.0515460">
        <ele>2356.8</ele>
        <time>2022-07-24T07:15:46Z</time>
      </trkpt>
      <trkpt lat="42.7024690" lon="-0.0515590">
        <ele>2356.6</ele>
        <time>2022-07-24T07:15:47Z</time>
      </trkpt>
      <trkpt lat="42.7024770" lon="-0.0515990">
        <ele>2356.2</ele>
        <time>2022-07-24T07:15:50Z</time>
      </trkpt>
      <trkpt lat="42.7024960" lon="-0.0516710">
        <ele>2355.2</ele>
        <time>2022-07-24T07:15:54Z</time>
      </trkpt>
      <trkpt lat="42.7024980" lon="-0.0516970">
        <ele>2355.2</ele>
        <time>2022-07-24T07:15:55Z</time>
      </trkpt>
      <trkpt lat="42.7024970" lon="-0.0517490">
        <ele>2354.8</ele>
        <time>2022-07-24T07:15:58Z</time>
      </trkpt>
      <trkpt lat="42.7025610" lon="-0.0518920">
        <ele>2354.4</ele>
        <time>2022-07-24T07:16:05Z</time>
      </trkpt>
      <trkpt lat="42.7025680" lon="-0.0519130">
        <ele>2354.2</ele>
        <time>2022-07-24T07:16:06Z</time>
      </trkpt>
      <trkpt lat="42.7025660" lon="-0.0519390">
        <ele>2354.2</ele>
        <time>2022-07-24T07:16:07Z</time>
      </trkpt>
      <trkpt lat="42.7025640" lon="-0.0519670">
        <ele>2354.0</ele>
        <time>2022-07-24T07:16:08Z</time>
      </trkpt>
      <trkpt lat="42.7025560" lon="-0.0520130">
        <ele>2353.8</ele>
        <time>2022-07-24T07:16:10Z</time>
      </trkpt>
      <trkpt lat="42.7025620" lon="-0.0520290">
        <ele>2354.0</ele>
        <time>2022-07-24T07:16:11Z</time>
      </trkpt>
      <trkpt lat="42.7025580" lon="-0.0520560">
        <ele>2353.8</ele>
        <time>2022-07-24T07:16:12Z</time>
      </trkpt>
      <trkpt lat="42.7025440" lon="-0.0521540">
        <ele>2353.6</ele>
        <time>2022-07-24T07:16:16Z</time>
      </trkpt>
      <trkpt lat="42.7025350" lon="-0.0522010">
        <ele>2353.4</ele>
        <time>2022-07-24T07:16:18Z</time>
      </trkpt>
      <trkpt lat="42.7025380" lon="-0.0523040">
        <ele>2353.0</ele>
        <time>2022-07-24T07:16:24Z</time>
      </trkpt>
      <trkpt lat="42.7025380" lon="-0.0523210">
        <ele>2352.8</ele>
        <time>2022-07-24T07:16:25Z</time>
      </trkpt>
      <trkpt lat="42.7025350" lon="-0.0523380">
        <ele>2353.0</ele>
        <time>2022-07-24T07:16:26Z</time>
      </trkpt>
      <trkpt lat="42.7025270" lon="-0.0524090">
        <ele>2352.6</ele>
        <time>2022-07-24T07:16:30Z</time>
      </trkpt>
      <trkpt lat="42.7025280" lon="-0.0524250">
        <ele>2352.8</ele>
        <time>2022-07-24T07:16:31Z</time>
      </trkpt>
      <trkpt lat="42.7025300" lon="-0.0524500">
        <ele>2352.6</ele>
        <time>2022-07-24T07:16:33Z</time>
      </trkpt>
      <trkpt lat="42.7025290" lon="-0.0524660">
        <ele>2352.6</ele>
        <time>2022-07-24T07:16:34Z</time>
      </trkpt>
      <trkpt lat="42.7025390" lon="-0.0524880">
        <ele>2352.4</ele>
        <time>2022-07-24T07:16:36Z</time>
      </trkpt>
      <trkpt lat="42.7025600" lon="-0.0525400">
        <ele>2352.0</ele>
        <time>2022-07-24T07:16:40Z</time>
      </trkpt>
      <trkpt lat="42.7025630" lon="-0.0525580">
        <ele>2352.0</ele>
        <time>2022-07-24T07:16:41Z</time>
      </trkpt>
      <trkpt lat="42.7025790" lon="-0.0526440">
        <ele>2351.8</ele>
        <time>2022-07-24T07:16:46Z</time>
      </trkpt>
      <trkpt lat="42.7025800" lon="-0.0526620">
        <ele>2351.8</ele>
        <time>2022-07-24T07:16:47Z</time>
      </trkpt>
      <trkpt lat="42.7025860" lon="-0.0527000">
        <ele>2351.8</ele>
        <time>2022-07-24T07:16:49Z</time>
      </trkpt>
      <trkpt lat="42.7025870" lon="-0.0527190">
        <ele>2351.8</ele>
        <time>2022-07-24T07:16:50Z</time>
      </trkpt>
      <trkpt lat="42.7025850" lon="-0.0527390">
        <ele>2351.8</ele>
        <time>2022-07-24T07:16:51Z</time>
      </trkpt>
      <trkpt lat="42.7025770" lon="-0.0527930">
        <ele>2352.0</ele>
        <time>2022-07-24T07:16:54Z</time>
      </trkpt>
      <trkpt lat="42.7025710" lon="-0.0528110">
        <ele>2352.0</ele>
        <time>2022-07-24T07:16:55Z</time>
      </trkpt>
      <trkpt lat="42.7025480" lon="-0.0528700">
        <ele>2351.8</ele>
        <time>2022-07-24T07:16:58Z</time>
      </trkpt>
      <trkpt lat="42.7025390" lon="-0.0529040">
        <ele>2352.0</ele>
        <time>2022-07-24T07:17:00Z</time>
      </trkpt>
      <trkpt lat="42.7025380" lon="-0.0529690">
        <ele>2352.2</ele>
        <time>2022-07-24T07:17:04Z</time>
      </trkpt>
      <trkpt lat="42.7025340" lon="-0.0529930">
        <ele>2352.2</ele>
        <time>2022-07-24T07:17:05Z</time>
      </trkpt>
      <trkpt lat="42.7025350" lon="-0.0530090">
        <ele>2352.2</ele>
        <time>2022-07-24T07:17:06Z</time>
      </trkpt>
      <trkpt lat="42.7025360" lon="-0.0530280">
        <ele>2352.4</ele>
        <time>2022-07-24T07:17:07Z</time>
      </trkpt>
      <trkpt lat="42.7025550" lon="-0.0530920">
        <ele>2352.4</ele>
        <time>2022-07-24T07:17:11Z</time>
      </trkpt>
      <trkpt lat="42.7025600" lon="-0.0531220">
        <ele>2352.6</ele>
        <time>2022-07-24T07:17:13Z</time>
      </trkpt>
      <trkpt lat="42.7025550" lon="-0.0531410">
        <ele>2353.0</ele>
        <time>2022-07-24T07:17:14Z</time>
      </trkpt>
      <trkpt lat="42.7025420" lon="-0.0532470">
        <ele>2353.4</ele>
        <time>2022-07-24T07:17:21Z</time>
      </trkpt>
      <trkpt lat="42.7025230" lon="-0.0532840">
        <ele>2353.4</ele>
        <time>2022-07-24T07:17:23Z</time>
      </trkpt>
      <trkpt lat="42.7025130" lon="-0.0533170">
        <ele>2353.4</ele>
        <time>2022-07-24T07:17:25Z</time>
      </trkpt>
      <trkpt lat="42.7025090" lon="-0.0533360">
        <ele>2353.4</ele>
        <time>2022-07-24T07:17:26Z</time>
      </trkpt>
      <trkpt lat="42.7025010" lon="-0.0533750">
        <ele>2353.4</ele>
        <time>2022-07-24T07:17:28Z</time>
      </trkpt>
      <trkpt lat="42.7025000" lon="-0.0533900">
        <ele>2353.6</ele>
        <time>2022-07-24T07:17:29Z</time>
      </trkpt>
      <trkpt lat="42.7024960" lon="-0.0534250">
        <ele>2354.0</ele>
        <time>2022-07-24T07:17:31Z</time>
      </trkpt>
      <trkpt lat="42.7024990" lon="-0.0534420">
        <ele>2354.0</ele>
        <time>2022-07-24T07:17:32Z</time>
      </trkpt>
      <trkpt lat="42.7024940" lon="-0.0534630">
        <ele>2354.2</ele>
        <time>2022-07-24T07:17:33Z</time>
      </trkpt>
      <trkpt lat="42.7024920" lon="-0.0534790">
        <ele>2354.4</ele>
        <time>2022-07-24T07:17:34Z</time>
      </trkpt>
      <trkpt lat="42.7024850" lon="-0.0535660">
        <ele>2354.4</ele>
        <time>2022-07-24T07:17:38Z</time>
      </trkpt>
      <trkpt lat="42.7024850" lon="-0.0535850">
        <ele>2354.4</ele>
        <time>2022-07-24T07:17:39Z</time>
      </trkpt>
      <trkpt lat="42.7024840" lon="-0.0536010">
        <ele>2354.4</ele>
        <time>2022-07-24T07:17:40Z</time>
      </trkpt>
      <trkpt lat="42.7024840" lon="-0.0536190">
        <ele>2354.6</ele>
        <time>2022-07-24T07:17:41Z</time>
      </trkpt>
      <trkpt lat="42.7024550" lon="-0.0536930">
        <ele>2354.6</ele>
        <time>2022-07-24T07:17:45Z</time>
      </trkpt>
      <trkpt lat="42.7024480" lon="-0.0537080">
        <ele>2354.6</ele>
        <time>2022-07-24T07:17:46Z</time>
      </trkpt>
      <trkpt lat="42.7024370" lon="-0.0537480">
        <ele>2355.0</ele>
        <time>2022-07-24T07:17:48Z</time>
      </trkpt>
      <trkpt lat="42.7024390" lon="-0.0537720">
        <ele>2355.0</ele>
        <time>2022-07-24T07:17:49Z</time>
      </trkpt>
      <trkpt lat="42.7024500" lon="-0.0538520">
        <ele>2355.0</ele>
        <time>2022-07-24T07:17:53Z</time>
      </trkpt>
      <trkpt lat="42.7024580" lon="-0.0538680">
        <ele>2355.4</ele>
        <time>2022-07-24T07:17:54Z</time>
      </trkpt>
      <trkpt lat="42.7024660" lon="-0.0538820">
        <ele>2355.4</ele>
        <time>2022-07-24T07:17:55Z</time>
      </trkpt>
      <trkpt lat="42.7024760" lon="-0.0538920">
        <ele>2355.2</ele>
        <time>2022-07-24T07:17:56Z</time>
      </trkpt>
      <trkpt lat="42.7025170" lon="-0.0539320">
        <ele>2354.8</ele>
        <time>2022-07-24T07:17:59Z</time>
      </trkpt>
      <trkpt lat="42.7025310" lon="-0.0539540">
        <ele>2354.8</ele>
        <time>2022-07-24T07:18:01Z</time>
      </trkpt>
      <trkpt lat="42.7025290" lon="-0.0540260">
        <ele>2354.6</ele>
        <time>2022-07-24T07:18:05Z</time>
      </trkpt>
      <trkpt lat="42.7024940" lon="-0.0541240">
        <ele>2354.4</ele>
        <time>2022-07-24T07:18:09Z</time>
      </trkpt>
      <trkpt lat="42.7024710" lon="-0.0541690">
        <ele>2354.2</ele>
        <time>2022-07-24T07:18:11Z</time>
      </trkpt>
      <trkpt lat="42.7024590" lon="-0.0541880">
        <ele>2354.4</ele>
        <time>2022-07-24T07:18:12Z</time>
      </trkpt>
      <trkpt lat="42.7024550" lon="-0.0542070">
        <ele>2354.2</ele>
        <time>2022-07-24T07:18:13Z</time>
      </trkpt>
      <trkpt lat="42.7024410" lon="-0.0542290">
        <ele>2354.2</ele>
        <time>2022-07-24T07:18:14Z</time>
      </trkpt>
      <trkpt lat="42.7024000" lon="-0.0542930">
        <ele>2354.2</ele>
        <time>2022-07-24T07:18:17Z</time>
      </trkpt>
      <trkpt lat="42.7023960" lon="-0.0543110">
        <ele>2354.0</ele>
        <time>2022-07-24T07:18:18Z</time>
      </trkpt>
      <trkpt lat="42.7023930" lon="-0.0543310">
        <ele>2354.0</ele>
        <time>2022-07-24T07:18:19Z</time>
      </trkpt>
      <trkpt lat="42.7023910" lon="-0.0543490">
        <ele>2353.8</ele>
        <time>2022-07-24T07:18:20Z</time>
      </trkpt>
      <trkpt lat="42.7023470" lon="-0.0544680">
        <ele>2353.4</ele>
        <time>2022-07-24T07:18:26Z</time>
      </trkpt>
      <trkpt lat="42.7023420" lon="-0.0544790">
        <ele>2353.4</ele>
        <time>2022-07-24T07:18:27Z</time>
      </trkpt>
      <trkpt lat="42.7023250" lon="-0.0545090">
        <ele>2353.2</ele>
        <time>2022-07-24T07:18:29Z</time>
      </trkpt>
      <trkpt lat="42.7023000" lon="-0.0545400">
        <ele>2353.4</ele>
        <time>2022-07-24T07:18:31Z</time>
      </trkpt>
      <trkpt lat="42.7022920" lon="-0.0545530">
        <ele>2353.2</ele>
        <time>2022-07-24T07:18:32Z</time>
      </trkpt>
      <trkpt lat="42.7022840" lon="-0.0545650">
        <ele>2353.2</ele>
        <time>2022-07-24T07:18:33Z</time>
      </trkpt>
      <trkpt lat="42.7022780" lon="-0.0545840">
        <ele>2353.2</ele>
        <time>2022-07-24T07:18:34Z</time>
      </trkpt>
      <trkpt lat="42.7022720" lon="-0.0545960">
        <ele>2353.2</ele>
        <time>2022-07-24T07:18:35Z</time>
      </trkpt>
      <trkpt lat="42.7022640" lon="-0.0546320">
        <ele>2353.2</ele>
        <time>2022-07-24T07:18:37Z</time>
      </trkpt>
      <trkpt lat="42.7022740" lon="-0.0546980">
        <ele>2353.2</ele>
        <time>2022-07-24T07:18:41Z</time>
      </trkpt>
      <trkpt lat="42.7022820" lon="-0.0547080">
        <ele>2353.2</ele>
        <time>2022-07-24T07:18:42Z</time>
      </trkpt>
      <trkpt lat="42.7022910" lon="-0.0547230">
        <ele>2353.4</ele>
        <time>2022-07-24T07:18:43Z</time>
      </trkpt>
      <trkpt lat="42.7023040" lon="-0.0547520">
        <ele>2353.4</ele>
        <time>2022-07-24T07:18:45Z</time>
      </trkpt>
      <trkpt lat="42.7023250" lon="-0.0547870">
        <ele>2353.2</ele>
        <time>2022-07-24T07:18:48Z</time>
      </trkpt>
      <trkpt lat="42.7023310" lon="-0.0547960">
        <ele>2353.4</ele>
        <time>2022-07-24T07:18:49Z</time>
      </trkpt>
      <trkpt lat="42.7023390" lon="-0.0548070">
        <ele>2353.4</ele>
        <time>2022-07-24T07:18:50Z</time>
      </trkpt>
      <trkpt lat="42.7023460" lon="-0.0548230">
        <ele>2353.4</ele>
        <time>2022-07-24T07:18:51Z</time>
      </trkpt>
      <trkpt lat="42.7023530" lon="-0.0548370">
        <ele>2353.4</ele>
        <time>2022-07-24T07:18:52Z</time>
      </trkpt>
      <trkpt lat="42.7023630" lon="-0.0548500">
        <ele>2353.2</ele>
        <time>2022-07-24T07:18:53Z</time>
      </trkpt>
      <trkpt lat="42.7023740" lon="-0.0548830">
        <ele>2353.4</ele>
        <time>2022-07-24T07:18:55Z</time>
      </trkpt>
      <trkpt lat="42.7023770" lon="-0.0549020">
        <ele>2353.4</ele>
        <time>2022-07-24T07:18:56Z</time>
      </trkpt>
      <trkpt lat="42.7023770" lon="-0.0549240">
        <ele>2353.4</ele>
        <time>2022-07-24T07:18:57Z</time>
      </trkpt>
      <trkpt lat="42.7023920" lon="-0.0550330">
        <ele>2353.2</ele>
        <time>2022-07-24T07:19:03Z</time>
      </trkpt>
      <trkpt lat="42.7023930" lon="-0.0550520">
        <ele>2353.0</ele>
        <time>2022-07-24T07:19:04Z</time>
      </trkpt>
      <trkpt lat="42.7023950" lon="-0.0550710">
        <ele>2353.0</ele>
        <time>2022-07-24T07:19:05Z</time>
      </trkpt>
      <trkpt lat="42.7023960" lon="-0.0550910">
        <ele>2352.8</ele>
        <time>2022-07-24T07:19:06Z</time>
      </trkpt>
      <trkpt lat="42.7023890" lon="-0.0551270">
        <ele>2352.6</ele>
        <time>2022-07-24T07:19:08Z</time>
      </trkpt>
      <trkpt lat="42.7023860" lon="-0.0551450">
        <ele>2352.8</ele>
        <time>2022-07-24T07:19:09Z</time>
      </trkpt>
      <trkpt lat="42.7023820" lon="-0.0551640">
        <ele>2352.8</ele>
        <time>2022-07-24T07:19:10Z</time>
      </trkpt>
      <trkpt lat="42.7023730" lon="-0.0551990">
        <ele>2352.6</ele>
        <time>2022-07-24T07:19:12Z</time>
      </trkpt>
      <trkpt lat="42.7023680" lon="-0.0553050">
        <ele>2352.6</ele>
        <time>2022-07-24T07:19:18Z</time>
      </trkpt>
      <trkpt lat="42.7023690" lon="-0.0553260">
        <ele>2352.6</ele>
        <time>2022-07-24T07:19:19Z</time>
      </trkpt>
      <trkpt lat="42.7023670" lon="-0.0553450">
        <ele>2352.6</ele>
        <time>2022-07-24T07:19:20Z</time>
      </trkpt>
      <trkpt lat="42.7023560" lon="-0.0553930">
        <ele>2352.8</ele>
        <time>2022-07-24T07:19:22Z</time>
      </trkpt>
      <trkpt lat="42.7023500" lon="-0.0554130">
        <ele>2353.0</ele>
        <time>2022-07-24T07:19:23Z</time>
      </trkpt>
      <trkpt lat="42.7023460" lon="-0.0554470">
        <ele>2353.0</ele>
        <time>2022-07-24T07:19:25Z</time>
      </trkpt>
      <trkpt lat="42.7023460" lon="-0.0554730">
        <ele>2353.0</ele>
        <time>2022-07-24T07:19:27Z</time>
      </trkpt>
      <trkpt lat="42.7023430" lon="-0.0554890">
        <ele>2353.0</ele>
        <time>2022-07-24T07:19:28Z</time>
      </trkpt>
      <trkpt lat="42.7023330" lon="-0.0555230">
        <ele>2353.0</ele>
        <time>2022-07-24T07:19:30Z</time>
      </trkpt>
      <trkpt lat="42.7023320" lon="-0.0555420">
        <ele>2353.0</ele>
        <time>2022-07-24T07:19:31Z</time>
      </trkpt>
      <trkpt lat="42.7023450" lon="-0.0555660">
        <ele>2353.0</ele>
        <time>2022-07-24T07:19:33Z</time>
      </trkpt>
      <trkpt lat="42.7023480" lon="-0.0555800">
        <ele>2353.2</ele>
        <time>2022-07-24T07:19:34Z</time>
      </trkpt>
      <trkpt lat="42.7023500" lon="-0.0556310">
        <ele>2353.6</ele>
        <time>2022-07-24T07:19:37Z</time>
      </trkpt>
      <trkpt lat="42.7023440" lon="-0.0556540">
        <ele>2353.6</ele>
        <time>2022-07-24T07:19:38Z</time>
      </trkpt>
      <trkpt lat="42.7023800" lon="-0.0557470">
        <ele>2353.6</ele>
        <time>2022-07-24T07:19:43Z</time>
      </trkpt>
      <trkpt lat="42.7023850" lon="-0.0557650">
        <ele>2353.8</ele>
        <time>2022-07-24T07:19:44Z</time>
      </trkpt>
      <trkpt lat="42.7023860" lon="-0.0557830">
        <ele>2353.8</ele>
        <time>2022-07-24T07:19:45Z</time>
      </trkpt>
      <trkpt lat="42.7023910" lon="-0.0558020">
        <ele>2354.0</ele>
        <time>2022-07-24T07:19:46Z</time>
      </trkpt>
      <trkpt lat="42.7024130" lon="-0.0558560">
        <ele>2354.0</ele>
        <time>2022-07-24T07:19:49Z</time>
      </trkpt>
      <trkpt lat="42.7024300" lon="-0.0558790">
        <ele>2354.0</ele>
        <time>2022-07-24T07:19:51Z</time>
      </trkpt>
      <trkpt lat="42.7024420" lon="-0.0558890">
        <ele>2354.2</ele>
        <time>2022-07-24T07:19:52Z</time>
      </trkpt>
      <trkpt lat="42.7024910" lon="-0.0559560">
        <ele>2353.8</ele>
        <time>2022-07-24T07:19:57Z</time>
      </trkpt>
      <trkpt lat="42.7025300" lon="-0.0560040">
        <ele>2353.8</ele>
        <time>2022-07-24T07:20:00Z</time>
      </trkpt>
      <trkpt lat="42.7025490" lon="-0.0560430">
        <ele>2353.6</ele>
        <time>2022-07-24T07:20:02Z</time>
      </trkpt>
      <trkpt lat="42.7025590" lon="-0.0560600">
        <ele>2353.8</ele>
        <time>2022-07-24T07:20:03Z</time>
      </trkpt>
      <trkpt lat="42.7026120" lon="-0.0561500">
        <ele>2353.6</ele>
        <time>2022-07-24T07:20:09Z</time>
      </trkpt>
      <trkpt lat="42.7026230" lon="-0.0561630">
        <ele>2353.4</ele>
        <time>2022-07-24T07:20:10Z</time>
      </trkpt>
      <trkpt lat="42.7026340" lon="-0.0561780">
        <ele>2353.4</ele>
        <time>2022-07-24T07:20:11Z</time>
      </trkpt>
      <trkpt lat="42.7026500" lon="-0.0561960">
        <ele>2353.6</ele>
        <time>2022-07-24T07:20:12Z</time>
      </trkpt>
      <trkpt lat="42.7026830" lon="-0.0562450">
        <ele>2353.6</ele>
        <time>2022-07-24T07:20:15Z</time>
      </trkpt>
      <trkpt lat="42.7026980" lon="-0.0563060">
        <ele>2354.0</ele>
        <time>2022-07-24T07:20:18Z</time>
      </trkpt>
      <trkpt lat="42.7027180" lon="-0.0563390">
        <ele>2353.8</ele>
        <time>2022-07-24T07:20:20Z</time>
      </trkpt>
      <trkpt lat="42.7027290" lon="-0.0563730">
        <ele>2354.0</ele>
        <time>2022-07-24T07:20:22Z</time>
      </trkpt>
      <trkpt lat="42.7027320" lon="-0.0563850">
        <ele>2354.0</ele>
        <time>2022-07-24T07:20:23Z</time>
      </trkpt>
      <trkpt lat="42.7027370" lon="-0.0563950">
        <ele>2354.0</ele>
        <time>2022-07-24T07:20:24Z</time>
      </trkpt>
      <trkpt lat="42.7027220" lon="-0.0564510">
        <ele>2354.0</ele>
        <time>2022-07-24T07:20:27Z</time>
      </trkpt>
      <trkpt lat="42.7027220" lon="-0.0564620">
        <ele>2354.2</ele>
        <time>2022-07-24T07:20:28Z</time>
      </trkpt>
      <trkpt lat="42.7027300" lon="-0.0564830">
        <ele>2354.0</ele>
        <time>2022-07-24T07:20:30Z</time>
      </trkpt>
      <trkpt lat="42.7027370" lon="-0.0565140">
        <ele>2354.2</ele>
        <time>2022-07-24T07:20:32Z</time>
      </trkpt>
      <trkpt lat="42.7027530" lon="-0.0565400">
        <ele>2354.2</ele>
        <time>2022-07-24T07:20:34Z</time>
      </trkpt>
      <trkpt lat="42.7027520" lon="-0.0565790">
        <ele>2354.4</ele>
        <time>2022-07-24T07:20:36Z</time>
      </trkpt>
      <trkpt lat="42.7027540" lon="-0.0565960">
        <ele>2354.6</ele>
        <time>2022-07-24T07:20:37Z</time>
      </trkpt>
      <trkpt lat="42.7027540" lon="-0.0566160">
        <ele>2354.6</ele>
        <time>2022-07-24T07:20:38Z</time>
      </trkpt>
      <trkpt lat="42.7027550" lon="-0.0566340">
        <ele>2354.8</ele>
        <time>2022-07-24T07:20:39Z</time>
      </trkpt>
      <trkpt lat="42.7027600" lon="-0.0566500">
        <ele>2354.8</ele>
        <time>2022-07-24T07:20:40Z</time>
      </trkpt>
      <trkpt lat="42.7027670" lon="-0.0566660">
        <ele>2355.0</ele>
        <time>2022-07-24T07:20:41Z</time>
      </trkpt>
      <trkpt lat="42.7027800" lon="-0.0567010">
        <ele>2355.0</ele>
        <time>2022-07-24T07:20:43Z</time>
      </trkpt>
      <trkpt lat="42.7027870" lon="-0.0567370">
        <ele>2355.2</ele>
        <time>2022-07-24T07:20:45Z</time>
      </trkpt>
      <trkpt lat="42.7027820" lon="-0.0567730">
        <ele>2355.0</ele>
        <time>2022-07-24T07:20:47Z</time>
      </trkpt>
      <trkpt lat="42.7027750" lon="-0.0567950">
        <ele>2355.2</ele>
        <time>2022-07-24T07:20:48Z</time>
      </trkpt>
      <trkpt lat="42.7027750" lon="-0.0568490">
        <ele>2355.2</ele>
        <time>2022-07-24T07:20:51Z</time>
      </trkpt>
      <trkpt lat="42.7027700" lon="-0.0568700">
        <ele>2355.4</ele>
        <time>2022-07-24T07:20:52Z</time>
      </trkpt>
      <trkpt lat="42.7027790" lon="-0.0568820">
        <ele>2355.4</ele>
        <time>2022-07-24T07:20:53Z</time>
      </trkpt>
      <trkpt lat="42.7027870" lon="-0.0568910">
        <ele>2355.6</ele>
        <time>2022-07-24T07:20:54Z</time>
      </trkpt>
      <trkpt lat="42.7027900" lon="-0.0569230">
        <ele>2355.4</ele>
        <time>2022-07-24T07:20:56Z</time>
      </trkpt>
      <trkpt lat="42.7027810" lon="-0.0569550">
        <ele>2355.4</ele>
        <time>2022-07-24T07:20:58Z</time>
      </trkpt>
      <trkpt lat="42.7027850" lon="-0.0569820">
        <ele>2355.2</ele>
        <time>2022-07-24T07:21:00Z</time>
      </trkpt>
      <trkpt lat="42.7027800" lon="-0.0569950">
        <ele>2355.2</ele>
        <time>2022-07-24T07:21:01Z</time>
      </trkpt>
      <trkpt lat="42.7027770" lon="-0.0570090">
        <ele>2355.2</ele>
        <time>2022-07-24T07:21:02Z</time>
      </trkpt>
      <trkpt lat="42.7027700" lon="-0.0570260">
        <ele>2355.4</ele>
        <time>2022-07-24T07:21:04Z</time>
      </trkpt>
      <trkpt lat="42.7027510" lon="-0.0570500">
        <ele>2355.6</ele>
        <time>2022-07-24T07:21:06Z</time>
      </trkpt>
      <trkpt lat="42.7027430" lon="-0.0570800">
        <ele>2355.4</ele>
        <time>2022-07-24T07:21:08Z</time>
      </trkpt>
      <trkpt lat="42.7027460" lon="-0.0570960">
        <ele>2355.4</ele>
        <time>2022-07-24T07:21:09Z</time>
      </trkpt>
      <trkpt lat="42.7027550" lon="-0.0571270">
        <ele>2355.2</ele>
        <time>2022-07-24T07:21:11Z</time>
      </trkpt>
      <trkpt lat="42.7027600" lon="-0.0571430">
        <ele>2355.4</ele>
        <time>2022-07-24T07:21:12Z</time>
      </trkpt>
      <trkpt lat="42.7027650" lon="-0.0571770">
        <ele>2355.2</ele>
        <time>2022-07-24T07:21:14Z</time>
      </trkpt>
      <trkpt lat="42.7027670" lon="-0.0571920">
        <ele>2355.0</ele>
        <time>2022-07-24T07:21:15Z</time>
      </trkpt>
      <trkpt lat="42.7027820" lon="-0.0572620">
        <ele>2355.0</ele>
        <time>2022-07-24T07:21:20Z</time>
      </trkpt>
      <trkpt lat="42.7027790" lon="-0.0572750">
        <ele>2355.2</ele>
        <time>2022-07-24T07:21:21Z</time>
      </trkpt>
      <trkpt lat="42.7027730" lon="-0.0572860">
        <ele>2355.0</ele>
        <time>2022-07-24T07:21:22Z</time>
      </trkpt>
      <trkpt lat="42.7027730" lon="-0.0572990">
        <ele>2355.0</ele>
        <time>2022-07-24T07:21:23Z</time>
      </trkpt>
      <trkpt lat="42.7027840" lon="-0.0574310">
        <ele>2354.8</ele>
        <time>2022-07-24T07:21:31Z</time>
      </trkpt>
      <trkpt lat="42.7027800" lon="-0.0574470">
        <ele>2354.8</ele>
        <time>2022-07-24T07:21:32Z</time>
      </trkpt>
      <trkpt lat="42.7027860" lon="-0.0574720">
        <ele>2355.0</ele>
        <time>2022-07-24T07:21:34Z</time>
      </trkpt>
      <trkpt lat="42.7027890" lon="-0.0574860">
        <ele>2354.8</ele>
        <time>2022-07-24T07:21:35Z</time>
      </trkpt>
      <trkpt lat="42.7027880" lon="-0.0576490">
        <ele>2355.8</ele>
        <time>2022-07-24T07:21:44Z</time>
      </trkpt>
      <trkpt lat="42.7027890" lon="-0.0576770">
        <ele>2356.0</ele>
        <time>2022-07-24T07:21:46Z</time>
      </trkpt>
      <trkpt lat="42.7027740" lon="-0.0577450">
        <ele>2356.2</ele>
        <time>2022-07-24T07:21:50Z</time>
      </trkpt>
      <trkpt lat="42.7027830" lon="-0.0577570">
        <ele>2356.2</ele>
        <time>2022-07-24T07:21:51Z</time>
      </trkpt>
      <trkpt lat="42.7027910" lon="-0.0577710">
        <ele>2356.2</ele>
        <time>2022-07-24T07:21:52Z</time>
      </trkpt>
      <trkpt lat="42.7028010" lon="-0.0577850">
        <ele>2356.4</ele>
        <time>2022-07-24T07:21:53Z</time>
      </trkpt>
      <trkpt lat="42.7028090" lon="-0.0577980">
        <ele>2356.2</ele>
        <time>2022-07-24T07:21:54Z</time>
      </trkpt>
      <trkpt lat="42.7028230" lon="-0.0578270">
        <ele>2356.6</ele>
        <time>2022-07-24T07:21:56Z</time>
      </trkpt>
      <trkpt lat="42.7028270" lon="-0.0578400">
        <ele>2356.8</ele>
        <time>2022-07-24T07:21:57Z</time>
      </trkpt>
      <trkpt lat="42.7028330" lon="-0.0578520">
        <ele>2357.0</ele>
        <time>2022-07-24T07:21:58Z</time>
      </trkpt>
      <trkpt lat="42.7028490" lon="-0.0578760">
        <ele>2357.4</ele>
        <time>2022-07-24T07:22:00Z</time>
      </trkpt>
      <trkpt lat="42.7028670" lon="-0.0579030">
        <ele>2357.8</ele>
        <time>2022-07-24T07:22:02Z</time>
      </trkpt>
      <trkpt lat="42.7028730" lon="-0.0579170">
        <ele>2357.8</ele>
        <time>2022-07-24T07:22:03Z</time>
      </trkpt>
      <trkpt lat="42.7028860" lon="-0.0579550">
        <ele>2358.0</ele>
        <time>2022-07-24T07:22:06Z</time>
      </trkpt>
      <trkpt lat="42.7028860" lon="-0.0579690">
        <ele>2357.8</ele>
        <time>2022-07-24T07:22:07Z</time>
      </trkpt>
      <trkpt lat="42.7028850" lon="-0.0579840">
        <ele>2358.0</ele>
        <time>2022-07-24T07:22:08Z</time>
      </trkpt>
      <trkpt lat="42.7028890" lon="-0.0580080">
        <ele>2358.2</ele>
        <time>2022-07-24T07:22:10Z</time>
      </trkpt>
      <trkpt lat="42.7028910" lon="-0.0580540">
        <ele>2359.0</ele>
        <time>2022-07-24T07:22:13Z</time>
      </trkpt>
      <trkpt lat="42.7028950" lon="-0.0580690">
        <ele>2359.0</ele>
        <time>2022-07-24T07:22:14Z</time>
      </trkpt>
      <trkpt lat="42.7029140" lon="-0.0581200">
        <ele>2359.2</ele>
        <time>2022-07-24T07:22:17Z</time>
      </trkpt>
      <trkpt lat="42.7029250" lon="-0.0581840">
        <ele>2359.6</ele>
        <time>2022-07-24T07:22:20Z</time>
      </trkpt>
      <trkpt lat="42.7029350" lon="-0.0581990">
        <ele>2359.8</ele>
        <time>2022-07-24T07:22:21Z</time>
      </trkpt>
      <trkpt lat="42.7029440" lon="-0.0582150">
        <ele>2359.8</ele>
        <time>2022-07-24T07:22:22Z</time>
      </trkpt>
      <trkpt lat="42.7029500" lon="-0.0582320">
        <ele>2359.8</ele>
        <time>2022-07-24T07:22:23Z</time>
      </trkpt>
      <trkpt lat="42.7029570" lon="-0.0582640">
        <ele>2359.8</ele>
        <time>2022-07-24T07:22:25Z</time>
      </trkpt>
      <trkpt lat="42.7029610" lon="-0.0583330">
        <ele>2360.0</ele>
        <time>2022-07-24T07:22:28Z</time>
      </trkpt>
      <trkpt lat="42.7029650" lon="-0.0584330">
        <ele>2360.0</ele>
        <time>2022-07-24T07:22:32Z</time>
      </trkpt>
      <trkpt lat="42.7029670" lon="-0.0584550">
        <ele>2360.0</ele>
        <time>2022-07-24T07:22:33Z</time>
      </trkpt>
      <trkpt lat="42.7029470" lon="-0.0585310">
        <ele>2360.2</ele>
        <time>2022-07-24T07:22:36Z</time>
      </trkpt>
      <trkpt lat="42.7029420" lon="-0.0587090">
        <ele>2360.0</ele>
        <time>2022-07-24T07:22:43Z</time>
      </trkpt>
      <trkpt lat="42.7029560" lon="-0.0587140">
        <ele>2360.0</ele>
        <time>2022-07-24T07:22:44Z</time>
      </trkpt>
      <trkpt lat="42.7029690" lon="-0.0587230">
        <ele>2360.0</ele>
        <time>2022-07-24T07:22:45Z</time>
      </trkpt>
      <trkpt lat="42.7029800" lon="-0.0587340">
        <ele>2360.0</ele>
        <time>2022-07-24T07:22:46Z</time>
      </trkpt>
      <trkpt lat="42.7029870" lon="-0.0587500">
        <ele>2359.8</ele>
        <time>2022-07-24T07:22:47Z</time>
      </trkpt>
      <trkpt lat="42.7030240" lon="-0.0588030">
        <ele>2360.0</ele>
        <time>2022-07-24T07:22:51Z</time>
      </trkpt>
      <trkpt lat="42.7030330" lon="-0.0588150">
        <ele>2359.8</ele>
        <time>2022-07-24T07:22:52Z</time>
      </trkpt>
      <trkpt lat="42.7030490" lon="-0.0588280">
        <ele>2359.8</ele>
        <time>2022-07-24T07:22:53Z</time>
      </trkpt>
      <trkpt lat="42.7030710" lon="-0.0588570">
        <ele>2359.8</ele>
        <time>2022-07-24T07:22:55Z</time>
      </trkpt>
      <trkpt lat="42.7030800" lon="-0.0588720">
        <ele>2360.0</ele>
        <time>2022-07-24T07:22:56Z</time>
      </trkpt>
      <trkpt lat="42.7030850" lon="-0.0589100">
        <ele>2360.2</ele>
        <time>2022-07-24T07:22:58Z</time>
      </trkpt>
      <trkpt lat="42.7030880" lon="-0.0589300">
        <ele>2360.4</ele>
        <time>2022-07-24T07:22:59Z</time>
      </trkpt>
      <trkpt lat="42.7031060" lon="-0.0589630">
        <ele>2360.6</ele>
        <time>2022-07-24T07:23:01Z</time>
      </trkpt>
      <trkpt lat="42.7031300" lon="-0.0589980">
        <ele>2361.2</ele>
        <time>2022-07-24T07:23:04Z</time>
      </trkpt>
      <trkpt lat="42.7031100" lon="-0.0590260">
        <ele>2361.2</ele>
        <time>2022-07-24T07:23:05Z</time>
      </trkpt>
      <trkpt lat="42.7030990" lon="-0.0590470">
        <ele>2361.4</ele>
        <time>2022-07-24T07:23:06Z</time>
      </trkpt>
      <trkpt lat="42.7030870" lon="-0.0590870">
        <ele>2361.4</ele>
        <time>2022-07-24T07:23:08Z</time>
      </trkpt>
      <trkpt lat="42.7030440" lon="-0.0592030">
        <ele>2362.2</ele>
        <time>2022-07-24T07:23:13Z</time>
      </trkpt>
      <trkpt lat="42.7030390" lon="-0.0592270">
        <ele>2362.2</ele>
        <time>2022-07-24T07:23:14Z</time>
      </trkpt>
      <trkpt lat="42.7030350" lon="-0.0592530">
        <ele>2362.4</ele>
        <time>2022-07-24T07:23:15Z</time>
      </trkpt>
      <trkpt lat="42.7030310" lon="-0.0593000">
        <ele>2362.6</ele>
        <time>2022-07-24T07:23:17Z</time>
      </trkpt>
      <trkpt lat="42.7030490" lon="-0.0593610">
        <ele>2363.0</ele>
        <time>2022-07-24T07:23:21Z</time>
      </trkpt>
      <trkpt lat="42.7030450" lon="-0.0593890">
        <ele>2363.0</ele>
        <time>2022-07-24T07:23:23Z</time>
      </trkpt>
      <trkpt lat="42.7030380" lon="-0.0594110">
        <ele>2363.0</ele>
        <time>2022-07-24T07:23:24Z</time>
      </trkpt>
      <trkpt lat="42.7030410" lon="-0.0594250">
        <ele>2363.2</ele>
        <time>2022-07-24T07:23:25Z</time>
      </trkpt>
      <trkpt lat="42.7030500" lon="-0.0594530">
        <ele>2363.4</ele>
        <time>2022-07-24T07:23:27Z</time>
      </trkpt>
      <trkpt lat="42.7030550" lon="-0.0594680">
        <ele>2363.4</ele>
        <time>2022-07-24T07:23:28Z</time>
      </trkpt>
      <trkpt lat="42.7030830" lon="-0.0595330">
        <ele>2363.4</ele>
        <time>2022-07-24T07:23:32Z</time>
      </trkpt>
      <trkpt lat="42.7030720" lon="-0.0596250">
        <ele>2363.8</ele>
        <time>2022-07-24T07:23:38Z</time>
      </trkpt>
      <trkpt lat="42.7031070" lon="-0.0596600">
        <ele>2363.8</ele>
        <time>2022-07-24T07:23:40Z</time>
      </trkpt>
      <trkpt lat="42.7031210" lon="-0.0596720">
        <ele>2363.8</ele>
        <time>2022-07-24T07:23:41Z</time>
      </trkpt>
      <trkpt lat="42.7031290" lon="-0.0596760">
        <ele>2363.8</ele>
        <time>2022-07-24T07:23:42Z</time>
      </trkpt>
      <trkpt lat="42.7031290" lon="-0.0596940">
        <ele>2363.8</ele>
        <time>2022-07-24T07:23:44Z</time>
      </trkpt>
      <trkpt lat="42.7031330" lon="-0.0597640">
        <ele>2364.2</ele>
        <time>2022-07-24T07:23:48Z</time>
      </trkpt>
      <trkpt lat="42.7031350" lon="-0.0597810">
        <ele>2364.2</ele>
        <time>2022-07-24T07:23:49Z</time>
      </trkpt>
      <trkpt lat="42.7031470" lon="-0.0598030">
        <ele>2364.2</ele>
        <time>2022-07-24T07:23:50Z</time>
      </trkpt>
      <trkpt lat="42.7031430" lon="-0.0598220">
        <ele>2364.4</ele>
        <time>2022-07-24T07:23:51Z</time>
      </trkpt>
      <trkpt lat="42.7031440" lon="-0.0598360">
        <ele>2364.2</ele>
        <time>2022-07-24T07:23:52Z</time>
      </trkpt>
      <trkpt lat="42.7031470" lon="-0.0598470">
        <ele>2364.2</ele>
        <time>2022-07-24T07:23:53Z</time>
      </trkpt>
      <trkpt lat="42.7031450" lon="-0.0598920">
        <ele>2364.4</ele>
        <time>2022-07-24T07:23:56Z</time>
      </trkpt>
      <trkpt lat="42.7031280" lon="-0.0599540">
        <ele>2364.8</ele>
        <time>2022-07-24T07:23:59Z</time>
      </trkpt>
      <trkpt lat="42.7031280" lon="-0.0599750">
        <ele>2364.8</ele>
        <time>2022-07-24T07:24:00Z</time>
      </trkpt>
      <trkpt lat="42.7031220" lon="-0.0599920">
        <ele>2365.0</ele>
        <time>2022-07-24T07:24:01Z</time>
      </trkpt>
      <trkpt lat="42.7031180" lon="-0.0600460">
        <ele>2365.0</ele>
        <time>2022-07-24T07:24:04Z</time>
      </trkpt>
      <trkpt lat="42.7031210" lon="-0.0600600">
        <ele>2365.0</ele>
        <time>2022-07-24T07:24:05Z</time>
      </trkpt>
      <trkpt lat="42.7031290" lon="-0.0600730">
        <ele>2364.8</ele>
        <time>2022-07-24T07:24:06Z</time>
      </trkpt>
      <trkpt lat="42.7031420" lon="-0.0600900">
        <ele>2364.8</ele>
        <time>2022-07-24T07:24:07Z</time>
      </trkpt>
      <trkpt lat="42.7031420" lon="-0.0601400">
        <ele>2365.4</ele>
        <time>2022-07-24T07:24:10Z</time>
      </trkpt>
      <trkpt lat="42.7031370" lon="-0.0601760">
        <ele>2365.2</ele>
        <time>2022-07-24T07:24:12Z</time>
      </trkpt>
      <trkpt lat="42.7031420" lon="-0.0601940">
        <ele>2365.4</ele>
        <time>2022-07-24T07:24:13Z</time>
      </trkpt>
      <trkpt lat="42.7031440" lon="-0.0602100">
        <ele>2365.4</ele>
        <time>2022-07-24T07:24:14Z</time>
      </trkpt>
      <trkpt lat="42.7031540" lon="-0.0602200">
        <ele>2365.4</ele>
        <time>2022-07-24T07:24:15Z</time>
      </trkpt>
      <trkpt lat="42.7031620" lon="-0.0602390">
        <ele>2365.6</ele>
        <time>2022-07-24T07:24:17Z</time>
      </trkpt>
      <trkpt lat="42.7031710" lon="-0.0602490">
        <ele>2365.6</ele>
        <time>2022-07-24T07:24:18Z</time>
      </trkpt>
      <trkpt lat="42.7031820" lon="-0.0602640">
        <ele>2365.6</ele>
        <time>2022-07-24T07:24:19Z</time>
      </trkpt>
      <trkpt lat="42.7031800" lon="-0.0602870">
        <ele>2365.6</ele>
        <time>2022-07-24T07:24:20Z</time>
      </trkpt>
      <trkpt lat="42.7031760" lon="-0.0603090">
        <ele>2365.4</ele>
        <time>2022-07-24T07:24:21Z</time>
      </trkpt>
      <trkpt lat="42.7031790" lon="-0.0603380">
        <ele>2364.8</ele>
        <time>2022-07-24T07:24:23Z</time>
      </trkpt>
      <trkpt lat="42.7031910" lon="-0.0603480">
        <ele>2364.4</ele>
        <time>2022-07-24T07:24:24Z</time>
      </trkpt>
      <trkpt lat="42.7032230" lon="-0.0603600">
        <ele>2364.2</ele>
        <time>2022-07-24T07:24:26Z</time>
      </trkpt>
      <trkpt lat="42.7032750" lon="-0.0604080">
        <ele>2362.6</ele>
        <time>2022-07-24T07:24:30Z</time>
      </trkpt>
      <trkpt lat="42.7032920" lon="-0.0604400">
        <ele>2362.2</ele>
        <time>2022-07-24T07:24:32Z</time>
      </trkpt>
      <trkpt lat="42.7033760" lon="-0.0605290">
        <ele>2361.4</ele>
        <time>2022-07-24T07:24:39Z</time>
      </trkpt>
      <trkpt lat="42.7034030" lon="-0.0605470">
        <ele>2361.2</ele>
        <time>2022-07-24T07:24:41Z</time>
      </trkpt>
      <trkpt lat="42.7034380" lon="-0.0605580">
        <ele>2361.0</ele>
        <time>2022-07-24T07:24:43Z</time>
      </trkpt>
      <trkpt lat="42.7035060" lon="-0.0605700">
        <ele>2361.2</ele>
        <time>2022-07-24T07:24:46Z</time>
      </trkpt>
      <trkpt lat="42.7035280" lon="-0.0605780">
        <ele>2361.0</ele>
        <time>2022-07-24T07:24:47Z</time>
      </trkpt>
      <trkpt lat="42.7035730" lon="-0.0606600">
        <ele>2360.8</ele>
        <time>2022-07-24T07:24:53Z</time>
      </trkpt>
      <trkpt lat="42.7035770" lon="-0.0607090">
        <ele>2360.8</ele>
        <time>2022-07-24T07:24:56Z</time>
      </trkpt>
      <trkpt lat="42.7035510" lon="-0.0607840">
        <ele>2360.6</ele>
        <time>2022-07-24T07:25:00Z</time>
      </trkpt>
      <trkpt lat="42.7035580" lon="-0.0608070">
        <ele>2360.6</ele>
        <time>2022-07-24T07:25:02Z</time>
      </trkpt>
      <trkpt lat="42.7035600" lon="-0.0608180">
        <ele>2360.6</ele>
        <time>2022-07-24T07:25:03Z</time>
      </trkpt>
      <trkpt lat="42.7035800" lon="-0.0608430">
        <ele>2360.4</ele>
        <time>2022-07-24T07:25:06Z</time>
      </trkpt>
      <trkpt lat="42.7035600" lon="-0.0608700">
        <ele>2360.6</ele>
        <time>2022-07-24T07:25:08Z</time>
      </trkpt>
      <trkpt lat="42.7035510" lon="-0.0608880">
        <ele>2360.4</ele>
        <time>2022-07-24T07:25:09Z</time>
      </trkpt>
      <trkpt lat="42.7034990" lon="-0.0609650">
        <ele>2360.0</ele>
        <time>2022-07-24T07:25:12Z</time>
      </trkpt>
      <trkpt lat="42.7034500" lon="-0.0610800">
        <ele>2359.2</ele>
        <time>2022-07-24T07:25:17Z</time>
      </trkpt>
      <trkpt lat="42.7034490" lon="-0.0610950">
        <ele>2359.0</ele>
        <time>2022-07-24T07:25:18Z</time>
      </trkpt>
      <trkpt lat="42.7034450" lon="-0.0611130">
        <ele>2358.8</ele>
        <time>2022-07-24T07:25:19Z</time>
      </trkpt>
      <trkpt lat="42.7034500" lon="-0.0611380">
        <ele>2358.4</ele>
        <time>2022-07-24T07:25:21Z</time>
      </trkpt>
      <trkpt lat="42.7034640" lon="-0.0611820">
        <ele>2357.6</ele>
        <time>2022-07-24T07:25:25Z</time>
      </trkpt>
      <trkpt lat="42.7034650" lon="-0.0611960">
        <ele>2357.4</ele>
        <time>2022-07-24T07:25:26Z</time>
      </trkpt>
      <trkpt lat="42.7035320" lon="-0.0612510">
        <ele>2356.2</ele>
        <time>2022-07-24T07:25:31Z</time>
      </trkpt>
      <trkpt lat="42.7035490" lon="-0.0612590">
        <ele>2356.2</ele>
        <time>2022-07-24T07:25:32Z</time>
      </trkpt>
      <trkpt lat="42.7035590" lon="-0.0612710">
        <ele>2356.2</ele>
        <time>2022-07-24T07:25:33Z</time>
      </trkpt>
      <trkpt lat="42.7035700" lon="-0.0612860">
        <ele>2356.0</ele>
        <time>2022-07-24T07:25:34Z</time>
      </trkpt>
      <trkpt lat="42.7035870" lon="-0.0613200">
        <ele>2355.8</ele>
        <time>2022-07-24T07:25:36Z</time>
      </trkpt>
      <trkpt lat="42.7035980" lon="-0.0613360">
        <ele>2355.8</ele>
        <time>2022-07-24T07:25:37Z</time>
      </trkpt>
      <trkpt lat="42.7036040" lon="-0.0613500">
        <ele>2355.6</ele>
        <time>2022-07-24T07:25:38Z</time>
      </trkpt>
      <trkpt lat="42.7036060" lon="-0.0613670">
        <ele>2355.6</ele>
        <time>2022-07-24T07:25:39Z</time>
      </trkpt>
      <trkpt lat="42.7036100" lon="-0.0613830">
        <ele>2355.4</ele>
        <time>2022-07-24T07:25:40Z</time>
      </trkpt>
      <trkpt lat="42.7035940" lon="-0.0614350">
        <ele>2355.0</ele>
        <time>2022-07-24T07:25:43Z</time>
      </trkpt>
      <trkpt lat="42.7035970" lon="-0.0614490">
        <ele>2354.8</ele>
        <time>2022-07-24T07:25:44Z</time>
      </trkpt>
      <trkpt lat="42.7035890" lon="-0.0614990">
        <ele>2354.4</ele>
        <time>2022-07-24T07:25:47Z</time>
      </trkpt>
      <trkpt lat="42.7035940" lon="-0.0615160">
        <ele>2354.4</ele>
        <time>2022-07-24T07:25:48Z</time>
      </trkpt>
      <trkpt lat="42.7035910" lon="-0.0615480">
        <ele>2353.8</ele>
        <time>2022-07-24T07:25:50Z</time>
      </trkpt>
      <trkpt lat="42.7035970" lon="-0.0615600">
        <ele>2353.8</ele>
        <time>2022-07-24T07:25:51Z</time>
      </trkpt>
      <trkpt lat="42.7035950" lon="-0.0615770">
        <ele>2353.6</ele>
        <time>2022-07-24T07:25:52Z</time>
      </trkpt>
      <trkpt lat="42.7036060" lon="-0.0616290">
        <ele>2352.6</ele>
        <time>2022-07-24T07:25:55Z</time>
      </trkpt>
      <trkpt lat="42.7036030" lon="-0.0616530">
        <ele>2352.4</ele>
        <time>2022-07-24T07:25:56Z</time>
      </trkpt>
      <trkpt lat="42.7035920" lon="-0.0616800">
        <ele>2352.2</ele>
        <time>2022-07-24T07:25:57Z</time>
      </trkpt>
      <trkpt lat="42.7035790" lon="-0.0617110">
        <ele>2352.0</ele>
        <time>2022-07-24T07:25:58Z</time>
      </trkpt>
      <trkpt lat="42.7035690" lon="-0.0617930">
        <ele>2351.8</ele>
        <time>2022-07-24T07:26:02Z</time>
      </trkpt>
      <trkpt lat="42.7035580" lon="-0.0618970">
        <ele>2351.0</ele>
        <time>2022-07-24T07:26:07Z</time>
      </trkpt>
      <trkpt lat="42.7036050" lon="-0.0619710">
        <ele>2349.8</ele>
        <time>2022-07-24T07:26:12Z</time>
      </trkpt>
      <trkpt lat="42.7036160" lon="-0.0619900">
        <ele>2349.6</ele>
        <time>2022-07-24T07:26:13Z</time>
      </trkpt>
      <trkpt lat="42.7036280" lon="-0.0620070">
        <ele>2349.4</ele>
        <time>2022-07-24T07:26:14Z</time>
      </trkpt>
      <trkpt lat="42.7036430" lon="-0.0620200">
        <ele>2349.4</ele>
        <time>2022-07-24T07:26:15Z</time>
      </trkpt>
      <trkpt lat="42.7036820" lon="-0.0621120">
        <ele>2348.6</ele>
        <time>2022-07-24T07:26:20Z</time>
      </trkpt>
      <trkpt lat="42.7036830" lon="-0.0621350">
        <ele>2348.0</ele>
        <time>2022-07-24T07:26:22Z</time>
      </trkpt>
      <trkpt lat="42.7036830" lon="-0.0621450">
        <ele>2347.6</ele>
        <time>2022-07-24T07:26:23Z</time>
      </trkpt>
      <trkpt lat="42.7036910" lon="-0.0621570">
        <ele>2347.2</ele>
        <time>2022-07-24T07:26:24Z</time>
      </trkpt>
      <trkpt lat="42.7037020" lon="-0.0621660">
        <ele>2347.0</ele>
        <time>2022-07-24T07:26:25Z</time>
      </trkpt>
      <trkpt lat="42.7037070" lon="-0.0621760">
        <ele>2346.8</ele>
        <time>2022-07-24T07:26:26Z</time>
      </trkpt>
      <trkpt lat="42.7037130" lon="-0.0621840">
        <ele>2346.8</ele>
        <time>2022-07-24T07:26:27Z</time>
      </trkpt>
      <trkpt lat="42.7037190" lon="-0.0621950">
        <ele>2346.6</ele>
        <time>2022-07-24T07:26:28Z</time>
      </trkpt>
      <trkpt lat="42.7037280" lon="-0.0622360">
        <ele>2346.2</ele>
        <time>2022-07-24T07:26:31Z</time>
      </trkpt>
      <trkpt lat="42.7037140" lon="-0.0623110">
        <ele>2345.8</ele>
        <time>2022-07-24T07:26:35Z</time>
      </trkpt>
      <trkpt lat="42.7037110" lon="-0.0623270">
        <ele>2345.4</ele>
        <time>2022-07-24T07:26:36Z</time>
      </trkpt>
      <trkpt lat="42.7037090" lon="-0.0623420">
        <ele>2345.2</ele>
        <time>2022-07-24T07:26:37Z</time>
      </trkpt>
      <trkpt lat="42.7037060" lon="-0.0623580">
        <ele>2345.0</ele>
        <time>2022-07-24T07:26:38Z</time>
      </trkpt>
      <trkpt lat="42.7037060" lon="-0.0623720">
        <ele>2344.8</ele>
        <time>2022-07-24T07:26:39Z</time>
      </trkpt>
      <trkpt lat="42.7037100" lon="-0.0623820">
        <ele>2344.4</ele>
        <time>2022-07-24T07:26:40Z</time>
      </trkpt>
      <trkpt lat="42.7037140" lon="-0.0623930">
        <ele>2344.2</ele>
        <time>2022-07-24T07:26:41Z</time>
      </trkpt>
      <trkpt lat="42.7037040" lon="-0.0624240">
        <ele>2344.0</ele>
        <time>2022-07-24T07:26:43Z</time>
      </trkpt>
      <trkpt lat="42.7037100" lon="-0.0624340">
        <ele>2344.0</ele>
        <time>2022-07-24T07:26:44Z</time>
      </trkpt>
      <trkpt lat="42.7036940" lon="-0.0625200">
        <ele>2342.6</ele>
        <time>2022-07-24T07:26:50Z</time>
      </trkpt>
      <trkpt lat="42.7036670" lon="-0.0625680">
        <ele>2342.0</ele>
        <time>2022-07-24T07:26:52Z</time>
      </trkpt>
      <trkpt lat="42.7036580" lon="-0.0626250">
        <ele>2341.6</ele>
        <time>2022-07-24T07:26:55Z</time>
      </trkpt>
      <trkpt lat="42.7036730" lon="-0.0626560">
        <ele>2341.4</ele>
        <time>2022-07-24T07:26:57Z</time>
      </trkpt>
      <trkpt lat="42.7037010" lon="-0.0626720">
        <ele>2341.2</ele>
        <time>2022-07-24T07:26:59Z</time>
      </trkpt>
      <trkpt lat="42.7036920" lon="-0.0627400">
        <ele>2340.6</ele>
        <time>2022-07-24T07:27:05Z</time>
      </trkpt>
      <trkpt lat="42.7036810" lon="-0.0627660">
        <ele>2340.0</ele>
        <time>2022-07-24T07:27:07Z</time>
      </trkpt>
      <trkpt lat="42.7036640" lon="-0.0627940">
        <ele>2339.6</ele>
        <time>2022-07-24T07:27:08Z</time>
      </trkpt>
      <trkpt lat="42.7036080" lon="-0.0628650">
        <ele>2338.4</ele>
        <time>2022-07-24T07:27:12Z</time>
      </trkpt>
      <trkpt lat="42.7036120" lon="-0.0628710">
        <ele>2338.0</ele>
        <time>2022-07-24T07:27:13Z</time>
      </trkpt>
      <trkpt lat="42.7036160" lon="-0.0629000">
        <ele>2337.8</ele>
        <time>2022-07-24T07:27:15Z</time>
      </trkpt>
      <trkpt lat="42.7036250" lon="-0.0629090">
        <ele>2337.8</ele>
        <time>2022-07-24T07:27:16Z</time>
      </trkpt>
      <trkpt lat="42.7036270" lon="-0.0629460">
        <ele>2337.4</ele>
        <time>2022-07-24T07:27:18Z</time>
      </trkpt>
      <trkpt lat="42.7036230" lon="-0.0629660">
        <ele>2337.2</ele>
        <time>2022-07-24T07:27:19Z</time>
      </trkpt>
      <trkpt lat="42.7036170" lon="-0.0630000">
        <ele>2337.0</ele>
        <time>2022-07-24T07:27:21Z</time>
      </trkpt>
      <trkpt lat="42.7036140" lon="-0.0631130">
        <ele>2335.0</ele>
        <time>2022-07-24T07:27:26Z</time>
      </trkpt>
      <trkpt lat="42.7036210" lon="-0.0631560">
        <ele>2333.6</ele>
        <time>2022-07-24T07:27:29Z</time>
      </trkpt>
      <trkpt lat="42.7036090" lon="-0.0632230">
        <ele>2332.6</ele>
        <time>2022-07-24T07:27:32Z</time>
      </trkpt>
      <trkpt lat="42.7036110" lon="-0.0632680">
        <ele>2332.4</ele>
        <time>2022-07-24T07:27:35Z</time>
      </trkpt>
      <trkpt lat="42.7035980" lon="-0.0633290">
        <ele>2331.8</ele>
        <time>2022-07-24T07:27:38Z</time>
      </trkpt>
      <trkpt lat="42.7036140" lon="-0.0633600">
        <ele>2331.4</ele>
        <time>2022-07-24T07:27:40Z</time>
      </trkpt>
      <trkpt lat="42.7036240" lon="-0.0634430">
        <ele>2330.8</ele>
        <time>2022-07-24T07:27:44Z</time>
      </trkpt>
      <trkpt lat="42.7036380" lon="-0.0634970">
        <ele>2329.6</ele>
        <time>2022-07-24T07:27:48Z</time>
      </trkpt>
      <trkpt lat="42.7036490" lon="-0.0635050">
        <ele>2329.4</ele>
        <time>2022-07-24T07:27:49Z</time>
      </trkpt>
      <trkpt lat="42.7036570" lon="-0.0635090">
        <ele>2329.2</ele>
        <time>2022-07-24T07:27:50Z</time>
      </trkpt>
      <trkpt lat="42.7036740" lon="-0.0635420">
        <ele>2328.2</ele>
        <time>2022-07-24T07:27:54Z</time>
      </trkpt>
      <trkpt lat="42.7036760" lon="-0.0635560">
        <ele>2328.0</ele>
        <time>2022-07-24T07:27:55Z</time>
      </trkpt>
      <trkpt lat="42.7036760" lon="-0.0635710">
        <ele>2327.8</ele>
        <time>2022-07-24T07:27:56Z</time>
      </trkpt>
      <trkpt lat="42.7036930" lon="-0.0636730">
        <ele>2327.2</ele>
        <time>2022-07-24T07:28:00Z</time>
      </trkpt>
      <trkpt lat="42.7037080" lon="-0.0636940">
        <ele>2327.0</ele>
        <time>2022-07-24T07:28:01Z</time>
      </trkpt>
      <trkpt lat="42.7037340" lon="-0.0637320">
        <ele>2326.4</ele>
        <time>2022-07-24T07:28:03Z</time>
      </trkpt>
      <trkpt lat="42.7037600" lon="-0.0637630">
        <ele>2326.2</ele>
        <time>2022-07-24T07:28:05Z</time>
      </trkpt>
      <trkpt lat="42.7038180" lon="-0.0637970">
        <ele>2325.8</ele>
        <time>2022-07-24T07:28:08Z</time>
      </trkpt>
      <trkpt lat="42.7038840" lon="-0.0638870">
        <ele>2323.0</ele>
        <time>2022-07-24T07:28:14Z</time>
      </trkpt>
      <trkpt lat="42.7039010" lon="-0.0638970">
        <ele>2322.4</ele>
        <time>2022-07-24T07:28:15Z</time>
      </trkpt>
      <trkpt lat="42.7039150" lon="-0.0639080">
        <ele>2321.8</ele>
        <time>2022-07-24T07:28:16Z</time>
      </trkpt>
      <trkpt lat="42.7039250" lon="-0.0639160">
        <ele>2321.6</ele>
        <time>2022-07-24T07:28:17Z</time>
      </trkpt>
      <trkpt lat="42.7039340" lon="-0.0639530">
        <ele>2320.2</ele>
        <time>2022-07-24T07:28:22Z</time>
      </trkpt>
      <trkpt lat="42.7039380" lon="-0.0639710">
        <ele>2318.8</ele>
        <time>2022-07-24T07:28:25Z</time>
      </trkpt>
      <trkpt lat="42.7039530" lon="-0.0639970">
        <ele>2317.8</ele>
        <time>2022-07-24T07:28:28Z</time>
      </trkpt>
      <trkpt lat="42.7039470" lon="-0.0640300">
        <ele>2317.8</ele>
        <time>2022-07-24T07:28:30Z</time>
      </trkpt>
      <trkpt lat="42.7039300" lon="-0.0641060">
        <ele>2317.4</ele>
        <time>2022-07-24T07:28:34Z</time>
      </trkpt>
      <trkpt lat="42.7039270" lon="-0.0641520">
        <ele>2317.4</ele>
        <time>2022-07-24T07:28:37Z</time>
      </trkpt>
      <trkpt lat="42.7039220" lon="-0.0641650">
        <ele>2317.2</ele>
        <time>2022-07-24T07:28:38Z</time>
      </trkpt>
      <trkpt lat="42.7039260" lon="-0.0641770">
        <ele>2317.2</ele>
        <time>2022-07-24T07:28:39Z</time>
      </trkpt>
      <trkpt lat="42.7039290" lon="-0.0641890">
        <ele>2317.2</ele>
        <time>2022-07-24T07:28:40Z</time>
      </trkpt>
      <trkpt lat="42.7039200" lon="-0.0642220">
        <ele>2317.4</ele>
        <time>2022-07-24T07:28:42Z</time>
      </trkpt>
      <trkpt lat="42.7039080" lon="-0.0642570">
        <ele>2317.4</ele>
        <time>2022-07-24T07:28:44Z</time>
      </trkpt>
      <trkpt lat="42.7039130" lon="-0.0642680">
        <ele>2317.2</ele>
        <time>2022-07-24T07:28:45Z</time>
      </trkpt>
      <trkpt lat="42.7039110" lon="-0.0642790">
        <ele>2317.0</ele>
        <time>2022-07-24T07:28:46Z</time>
      </trkpt>
      <trkpt lat="42.7039060" lon="-0.0642900">
        <ele>2317.0</ele>
        <time>2022-07-24T07:28:47Z</time>
      </trkpt>
      <trkpt lat="42.7039010" lon="-0.0643010">
        <ele>2316.8</ele>
        <time>2022-07-24T07:28:48Z</time>
      </trkpt>
      <trkpt lat="42.7038940" lon="-0.0643170">
        <ele>2316.8</ele>
        <time>2022-07-24T07:28:49Z</time>
      </trkpt>
      <trkpt lat="42.7039080" lon="-0.0643260">
        <ele>2316.6</ele>
        <time>2022-07-24T07:28:50Z</time>
      </trkpt>
      <trkpt lat="42.7039140" lon="-0.0643410">
        <ele>2316.4</ele>
        <time>2022-07-24T07:28:51Z</time>
      </trkpt>
      <trkpt lat="42.7039090" lon="-0.0643560">
        <ele>2316.0</ele>
        <time>2022-07-24T07:28:52Z</time>
      </trkpt>
      <trkpt lat="42.7039060" lon="-0.0643730">
        <ele>2316.0</ele>
        <time>2022-07-24T07:28:53Z</time>
      </trkpt>
      <trkpt lat="42.7039030" lon="-0.0643910">
        <ele>2315.8</ele>
        <time>2022-07-24T07:28:54Z</time>
      </trkpt>
      <trkpt lat="42.7038960" lon="-0.0644360">
        <ele>2315.8</ele>
        <time>2022-07-24T07:28:56Z</time>
      </trkpt>
      <trkpt lat="42.7038920" lon="-0.0644570">
        <ele>2315.6</ele>
        <time>2022-07-24T07:28:57Z</time>
      </trkpt>
      <trkpt lat="42.7039020" lon="-0.0645180">
        <ele>2314.6</ele>
        <time>2022-07-24T07:29:01Z</time>
      </trkpt>
      <trkpt lat="42.7038540" lon="-0.0645730">
        <ele>2313.4</ele>
        <time>2022-07-24T07:29:04Z</time>
      </trkpt>
      <trkpt lat="42.7037880" lon="-0.0646370">
        <ele>2312.6</ele>
        <time>2022-07-24T07:29:08Z</time>
      </trkpt>
      <trkpt lat="42.7037760" lon="-0.0646540">
        <ele>2312.6</ele>
        <time>2022-07-24T07:29:09Z</time>
      </trkpt>
      <trkpt lat="42.7037700" lon="-0.0646950">
        <ele>2312.4</ele>
        <time>2022-07-24T07:29:11Z</time>
      </trkpt>
      <trkpt lat="42.7037730" lon="-0.0647130">
        <ele>2312.2</ele>
        <time>2022-07-24T07:29:12Z</time>
      </trkpt>
      <trkpt lat="42.7037690" lon="-0.0647770">
        <ele>2311.8</ele>
        <time>2022-07-24T07:29:15Z</time>
      </trkpt>
      <trkpt lat="42.7037730" lon="-0.0648310">
        <ele>2310.2</ele>
        <time>2022-07-24T07:29:19Z</time>
      </trkpt>
      <trkpt lat="42.7037830" lon="-0.0648640">
        <ele>2308.4</ele>
        <time>2022-07-24T07:29:22Z</time>
      </trkpt>
      <trkpt lat="42.7037870" lon="-0.0648740">
        <ele>2308.2</ele>
        <time>2022-07-24T07:29:23Z</time>
      </trkpt>
      <trkpt lat="42.7037840" lon="-0.0648870">
        <ele>2308.0</ele>
        <time>2022-07-24T07:29:24Z</time>
      </trkpt>
      <trkpt lat="42.7037810" lon="-0.0649030">
        <ele>2307.8</ele>
        <time>2022-07-24T07:29:25Z</time>
      </trkpt>
      <trkpt lat="42.7037420" lon="-0.0649580">
        <ele>2307.4</ele>
        <time>2022-07-24T07:29:28Z</time>
      </trkpt>
      <trkpt lat="42.7037270" lon="-0.0649700">
        <ele>2307.2</ele>
        <time>2022-07-24T07:29:29Z</time>
      </trkpt>
      <trkpt lat="42.7037160" lon="-0.0649790">
        <ele>2307.2</ele>
        <time>2022-07-24T07:29:30Z</time>
      </trkpt>
      <trkpt lat="42.7036980" lon="-0.0649930">
        <ele>2306.8</ele>
        <time>2022-07-24T07:29:32Z</time>
      </trkpt>
      <trkpt lat="42.7036840" lon="-0.0650090">
        <ele>2306.4</ele>
        <time>2022-07-24T07:29:33Z</time>
      </trkpt>
      <trkpt lat="42.7036100" lon="-0.0650790">
        <ele>2305.8</ele>
        <time>2022-07-24T07:29:37Z</time>
      </trkpt>
      <trkpt lat="42.7035680" lon="-0.0651170">
        <ele>2305.4</ele>
        <time>2022-07-24T07:29:39Z</time>
      </trkpt>
      <trkpt lat="42.7035170" lon="-0.0651520">
        <ele>2305.0</ele>
        <time>2022-07-24T07:29:41Z</time>
      </trkpt>
      <trkpt lat="42.7034900" lon="-0.0651820">
        <ele>2304.8</ele>
        <time>2022-07-24T07:29:44Z</time>
      </trkpt>
      <trkpt lat="42.7034880" lon="-0.0651940">
        <ele>2304.8</ele>
        <time>2022-07-24T07:29:45Z</time>
      </trkpt>
      <trkpt lat="42.7034890" lon="-0.0652400">
        <ele>2304.4</ele>
        <time>2022-07-24T07:29:48Z</time>
      </trkpt>
      <trkpt lat="42.7034860" lon="-0.0652630">
        <ele>2304.0</ele>
        <time>2022-07-24T07:29:50Z</time>
      </trkpt>
      <trkpt lat="42.7034830" lon="-0.0652740">
        <ele>2304.0</ele>
        <time>2022-07-24T07:29:51Z</time>
      </trkpt>
      <trkpt lat="42.7034940" lon="-0.0652830">
        <ele>2303.0</ele>
        <time>2022-07-24T07:29:53Z</time>
      </trkpt>
      <trkpt lat="42.7035070" lon="-0.0652910">
        <ele>2302.2</ele>
        <time>2022-07-24T07:29:54Z</time>
      </trkpt>
      <trkpt lat="42.7035080" lon="-0.0653040">
        <ele>2301.6</ele>
        <time>2022-07-24T07:29:55Z</time>
      </trkpt>
      <trkpt lat="42.7035070" lon="-0.0653170">
        <ele>2301.4</ele>
        <time>2022-07-24T07:29:56Z</time>
      </trkpt>
      <trkpt lat="42.7035090" lon="-0.0653290">
        <ele>2301.2</ele>
        <time>2022-07-24T07:29:57Z</time>
      </trkpt>
      <trkpt lat="42.7035090" lon="-0.0653620">
        <ele>2300.6</ele>
        <time>2022-07-24T07:30:00Z</time>
      </trkpt>
      <trkpt lat="42.7034990" lon="-0.0653730">
        <ele>2300.4</ele>
        <time>2022-07-24T07:30:01Z</time>
      </trkpt>
      <trkpt lat="42.7034980" lon="-0.0653890">
        <ele>2300.4</ele>
        <time>2022-07-24T07:30:02Z</time>
      </trkpt>
      <trkpt lat="42.7034860" lon="-0.0654110">
        <ele>2300.0</ele>
        <time>2022-07-24T07:30:03Z</time>
      </trkpt>
      <trkpt lat="42.7034760" lon="-0.0654240">
        <ele>2300.0</ele>
        <time>2022-07-24T07:30:04Z</time>
      </trkpt>
      <trkpt lat="42.7034660" lon="-0.0654440">
        <ele>2298.8</ele>
        <time>2022-07-24T07:30:06Z</time>
      </trkpt>
      <trkpt lat="42.7034600" lon="-0.0654660">
        <ele>2298.0</ele>
        <time>2022-07-24T07:30:08Z</time>
      </trkpt>
      <trkpt lat="42.7034510" lon="-0.0654810">
        <ele>2298.0</ele>
        <time>2022-07-24T07:30:09Z</time>
      </trkpt>
      <trkpt lat="42.7034430" lon="-0.0654900">
        <ele>2297.6</ele>
        <time>2022-07-24T07:30:10Z</time>
      </trkpt>
      <trkpt lat="42.7034340" lon="-0.0655000">
        <ele>2297.4</ele>
        <time>2022-07-24T07:30:11Z</time>
      </trkpt>
      <trkpt lat="42.7034280" lon="-0.0655160">
        <ele>2297.2</ele>
        <time>2022-07-24T07:30:12Z</time>
      </trkpt>
      <trkpt lat="42.7034200" lon="-0.0655320">
        <ele>2296.6</ele>
        <time>2022-07-24T07:30:13Z</time>
      </trkpt>
      <trkpt lat="42.7033980" lon="-0.0655480">
        <ele>2296.0</ele>
        <time>2022-07-24T07:30:15Z</time>
      </trkpt>
      <trkpt lat="42.7033850" lon="-0.0655890">
        <ele>2294.8</ele>
        <time>2022-07-24T07:30:17Z</time>
      </trkpt>
      <trkpt lat="42.7033760" lon="-0.0656230">
        <ele>2293.6</ele>
        <time>2022-07-24T07:30:19Z</time>
      </trkpt>
      <trkpt lat="42.7033620" lon="-0.0657070">
        <ele>2291.4</ele>
        <time>2022-07-24T07:30:24Z</time>
      </trkpt>
      <trkpt lat="42.7033580" lon="-0.0657150">
        <ele>2291.0</ele>
        <time>2022-07-24T07:30:25Z</time>
      </trkpt>
      <trkpt lat="42.7033470" lon="-0.0657290">
        <ele>2290.8</ele>
        <time>2022-07-24T07:30:26Z</time>
      </trkpt>
      <trkpt lat="42.7033370" lon="-0.0657390">
        <ele>2290.6</ele>
        <time>2022-07-24T07:30:27Z</time>
      </trkpt>
      <trkpt lat="42.7033250" lon="-0.0657400">
        <ele>2290.4</ele>
        <time>2022-07-24T07:30:28Z</time>
      </trkpt>
      <trkpt lat="42.7033150" lon="-0.0657470">
        <ele>2290.0</ele>
        <time>2022-07-24T07:30:29Z</time>
      </trkpt>
      <trkpt lat="42.7033030" lon="-0.0657540">
        <ele>2290.0</ele>
        <time>2022-07-24T07:30:30Z</time>
      </trkpt>
      <trkpt lat="42.7032910" lon="-0.0657690">
        <ele>2289.4</ele>
        <time>2022-07-24T07:30:32Z</time>
      </trkpt>
      <trkpt lat="42.7033120" lon="-0.0657850">
        <ele>2289.4</ele>
        <time>2022-07-24T07:30:34Z</time>
      </trkpt>
      <trkpt lat="42.7033030" lon="-0.0657870">
        <ele>2289.0</ele>
        <time>2022-07-24T07:30:38Z</time>
      </trkpt>
      <trkpt lat="42.7032930" lon="-0.0657930">
        <ele>2288.8</ele>
        <time>2022-07-24T07:30:39Z</time>
      </trkpt>
      <trkpt lat="42.7032880" lon="-0.0658110">
        <ele>2288.4</ele>
        <time>2022-07-24T07:30:41Z</time>
      </trkpt>
      <trkpt lat="42.7032850" lon="-0.0658220">
        <ele>2288.0</ele>
        <time>2022-07-24T07:30:42Z</time>
      </trkpt>
      <trkpt lat="42.7032800" lon="-0.0658290">
        <ele>2288.0</ele>
        <time>2022-07-24T07:30:43Z</time>
      </trkpt>
      <trkpt lat="42.7032760" lon="-0.0658410">
        <ele>2287.8</ele>
        <time>2022-07-24T07:30:45Z</time>
      </trkpt>
      <trkpt lat="42.7032730" lon="-0.0658520">
        <ele>2287.6</ele>
        <time>2022-07-24T07:30:47Z</time>
      </trkpt>
      <trkpt lat="42.7032690" lon="-0.0658580">
        <ele>2287.6</ele>
        <time>2022-07-24T07:30:48Z</time>
      </trkpt>
      <trkpt lat="42.7032670" lon="-0.0658620">
        <ele>2287.2</ele>
        <time>2022-07-24T07:30:49Z</time>
      </trkpt>
      <trkpt lat="42.7032710" lon="-0.0658700">
        <ele>2286.2</ele>
        <time>2022-07-24T07:30:52Z</time>
      </trkpt>
      <trkpt lat="42.7032740" lon="-0.0658700">
        <ele>2286.0</ele>
        <time>2022-07-24T07:30:53Z</time>
      </trkpt>
      <trkpt lat="42.7032830" lon="-0.0658670">
        <ele>2285.2</ele>
        <time>2022-07-24T07:30:54Z</time>
      </trkpt>
      <trkpt lat="42.7032910" lon="-0.0658770">
        <ele>2284.6</ele>
        <time>2022-07-24T07:30:56Z</time>
      </trkpt>
      <trkpt lat="42.7032910" lon="-0.0658850">
        <ele>2284.4</ele>
        <time>2022-07-24T07:30:57Z</time>
      </trkpt>
      <trkpt lat="42.7032980" lon="-0.0658890">
        <ele>2283.8</ele>
        <time>2022-07-24T07:30:58Z</time>
      </trkpt>
      <trkpt lat="42.7033030" lon="-0.0659000">
        <ele>2283.2</ele>
        <time>2022-07-24T07:30:59Z</time>
      </trkpt>
      <trkpt lat="42.7033070" lon="-0.0659100">
        <ele>2283.2</ele>
        <time>2022-07-24T07:31:00Z</time>
      </trkpt>
      <trkpt lat="42.7033140" lon="-0.0659290">
        <ele>2282.8</ele>
        <time>2022-07-24T07:31:01Z</time>
      </trkpt>
      <trkpt lat="42.7033310" lon="-0.0660090">
        <ele>2281.4</ele>
        <time>2022-07-24T07:31:07Z</time>
      </trkpt>
      <trkpt lat="42.7033370" lon="-0.0660360">
        <ele>2280.2</ele>
        <time>2022-07-24T07:31:09Z</time>
      </trkpt>
      <trkpt lat="42.7033370" lon="-0.0660420">
        <ele>2279.6</ele>
        <time>2022-07-24T07:31:10Z</time>
      </trkpt>
      <trkpt lat="42.7033520" lon="-0.0660820">
        <ele>2278.8</ele>
        <time>2022-07-24T07:31:14Z</time>
      </trkpt>
      <trkpt lat="42.7033550" lon="-0.0660930">
        <ele>2278.6</ele>
        <time>2022-07-24T07:31:15Z</time>
      </trkpt>
      <trkpt lat="42.7033530" lon="-0.0661080">
        <ele>2278.6</ele>
        <time>2022-07-24T07:31:16Z</time>
      </trkpt>
      <trkpt lat="42.7033540" lon="-0.0661250">
        <ele>2278.2</ele>
        <time>2022-07-24T07:31:17Z</time>
      </trkpt>
      <trkpt lat="42.7033580" lon="-0.0661360">
        <ele>2277.8</ele>
        <time>2022-07-24T07:31:18Z</time>
      </trkpt>
      <trkpt lat="42.7033680" lon="-0.0661700">
        <ele>2276.4</ele>
        <time>2022-07-24T07:31:20Z</time>
      </trkpt>
      <trkpt lat="42.7033650" lon="-0.0661920">
        <ele>2276.2</ele>
        <time>2022-07-24T07:31:21Z</time>
      </trkpt>
      <trkpt lat="42.7033750" lon="-0.0662280">
        <ele>2275.4</ele>
        <time>2022-07-24T07:31:23Z</time>
      </trkpt>
      <trkpt lat="42.7033930" lon="-0.0662550">
        <ele>2275.0</ele>
        <time>2022-07-24T07:31:25Z</time>
      </trkpt>
      <trkpt lat="42.7033820" lon="-0.0663420">
        <ele>2273.2</ele>
        <time>2022-07-24T07:31:29Z</time>
      </trkpt>
      <trkpt lat="42.7034000" lon="-0.0663560">
        <ele>2272.4</ele>
        <time>2022-07-24T07:31:31Z</time>
      </trkpt>
      <trkpt lat="42.7034180" lon="-0.0663750">
        <ele>2272.2</ele>
        <time>2022-07-24T07:31:33Z</time>
      </trkpt>
      <trkpt lat="42.7034220" lon="-0.0663830">
        <ele>2271.8</ele>
        <time>2022-07-24T07:31:34Z</time>
      </trkpt>
      <trkpt lat="42.7034390" lon="-0.0664020">
        <ele>2270.6</ele>
        <time>2022-07-24T07:31:37Z</time>
      </trkpt>
      <trkpt lat="42.7034450" lon="-0.0664220">
        <ele>2270.2</ele>
        <time>2022-07-24T07:31:39Z</time>
      </trkpt>
      <trkpt lat="42.7034280" lon="-0.0664580">
        <ele>2269.4</ele>
        <time>2022-07-24T07:31:41Z</time>
      </trkpt>
      <trkpt lat="42.7034270" lon="-0.0664630">
        <ele>2269.0</ele>
        <time>2022-07-24T07:31:42Z</time>
      </trkpt>
      <trkpt lat="42.7034300" lon="-0.0664620">
        <ele>2268.8</ele>
        <time>2022-07-24T07:31:43Z</time>
      </trkpt>
      <trkpt lat="42.7034320" lon="-0.0664590">
        <ele>2268.0</ele>
        <time>2022-07-24T07:31:45Z</time>
      </trkpt>
      <trkpt lat="42.7034460" lon="-0.0664640">
        <ele>2267.4</ele>
        <time>2022-07-24T07:31:47Z</time>
      </trkpt>
      <trkpt lat="42.7034470" lon="-0.0664650">
        <ele>2266.8</ele>
        <time>2022-07-24T07:31:48Z</time>
      </trkpt>
      <trkpt lat="42.7034490" lon="-0.0664700">
        <ele>2266.8</ele>
        <time>2022-07-24T07:31:49Z</time>
      </trkpt>
      <trkpt lat="42.7034510" lon="-0.0664880">
        <ele>2265.8</ele>
        <time>2022-07-24T07:31:51Z</time>
      </trkpt>
      <trkpt lat="42.7034530" lon="-0.0664990">
        <ele>2265.8</ele>
        <time>2022-07-24T07:31:52Z</time>
      </trkpt>
      <trkpt lat="42.7034520" lon="-0.0665040">
        <ele>2265.6</ele>
        <time>2022-07-24T07:31:53Z</time>
      </trkpt>
      <trkpt lat="42.7034500" lon="-0.0665190">
        <ele>2265.4</ele>
        <time>2022-07-24T07:31:54Z</time>
      </trkpt>
      <trkpt lat="42.7034490" lon="-0.0665450">
        <ele>2264.8</ele>
        <time>2022-07-24T07:31:56Z</time>
      </trkpt>
      <trkpt lat="42.7034530" lon="-0.0665780">
        <ele>2264.2</ele>
        <time>2022-07-24T07:31:58Z</time>
      </trkpt>
      <trkpt lat="42.7034520" lon="-0.0666000">
        <ele>2264.0</ele>
        <time>2022-07-24T07:31:59Z</time>
      </trkpt>
      <trkpt lat="42.7034420" lon="-0.0666240">
        <ele>2263.4</ele>
        <time>2022-07-24T07:32:01Z</time>
      </trkpt>
      <trkpt lat="42.7034350" lon="-0.0666410">
        <ele>2262.6</ele>
        <time>2022-07-24T07:32:02Z</time>
      </trkpt>
      <trkpt lat="42.7034310" lon="-0.0667160">
        <ele>2261.8</ele>
        <time>2022-07-24T07:32:05Z</time>
      </trkpt>
      <trkpt lat="42.7034260" lon="-0.0667360">
        <ele>2261.6</ele>
        <time>2022-07-24T07:32:06Z</time>
      </trkpt>
      <trkpt lat="42.7034220" lon="-0.0667580">
        <ele>2260.6</ele>
        <time>2022-07-24T07:32:07Z</time>
      </trkpt>
      <trkpt lat="42.7034180" lon="-0.0667760">
        <ele>2260.0</ele>
        <time>2022-07-24T07:32:08Z</time>
      </trkpt>
      <trkpt lat="42.7034400" lon="-0.0668260">
        <ele>2258.8</ele>
        <time>2022-07-24T07:32:12Z</time>
      </trkpt>
      <trkpt lat="42.7034480" lon="-0.0668380">
        <ele>2258.4</ele>
        <time>2022-07-24T07:32:13Z</time>
      </trkpt>
      <trkpt lat="42.7034560" lon="-0.0668550">
        <ele>2258.0</ele>
        <time>2022-07-24T07:32:14Z</time>
      </trkpt>
      <trkpt lat="42.7034760" lon="-0.0668910">
        <ele>2257.2</ele>
        <time>2022-07-24T07:32:16Z</time>
      </trkpt>
      <trkpt lat="42.7034920" lon="-0.0669390">
        <ele>2256.2</ele>
        <time>2022-07-24T07:32:19Z</time>
      </trkpt>
      <trkpt lat="42.7034990" lon="-0.0669780">
        <ele>2255.6</ele>
        <time>2022-07-24T07:32:21Z</time>
      </trkpt>
      <trkpt lat="42.7034990" lon="-0.0669970">
        <ele>2255.2</ele>
        <time>2022-07-24T07:32:22Z</time>
      </trkpt>
      <trkpt lat="42.7034980" lon="-0.0670160">
        <ele>2254.0</ele>
        <time>2022-07-24T07:32:23Z</time>
      </trkpt>
      <trkpt lat="42.7034990" lon="-0.0670290">
        <ele>2253.4</ele>
        <time>2022-07-24T07:32:24Z</time>
      </trkpt>
      <trkpt lat="42.7035030" lon="-0.0670410">
        <ele>2252.8</ele>
        <time>2022-07-24T07:32:25Z</time>
      </trkpt>
      <trkpt lat="42.7035020" lon="-0.0670640">
        <ele>2252.6</ele>
        <time>2022-07-24T07:32:26Z</time>
      </trkpt>
      <trkpt lat="42.7035020" lon="-0.0670900">
        <ele>2252.2</ele>
        <time>2022-07-24T07:32:27Z</time>
      </trkpt>
      <trkpt lat="42.7035080" lon="-0.0671070">
        <ele>2252.0</ele>
        <time>2022-07-24T07:32:28Z</time>
      </trkpt>
      <trkpt lat="42.7035300" lon="-0.0671280">
        <ele>2251.2</ele>
        <time>2022-07-24T07:32:31Z</time>
      </trkpt>
      <trkpt lat="42.7035570" lon="-0.0671270">
        <ele>2250.0</ele>
        <time>2022-07-24T07:32:33Z</time>
      </trkpt>
      <trkpt lat="42.7035640" lon="-0.0671330">
        <ele>2249.6</ele>
        <time>2022-07-24T07:32:34Z</time>
      </trkpt>
      <trkpt lat="42.7035750" lon="-0.0671370">
        <ele>2249.2</ele>
        <time>2022-07-24T07:32:36Z</time>
      </trkpt>
      <trkpt lat="42.7035700" lon="-0.0671510">
        <ele>2248.4</ele>
        <time>2022-07-24T07:32:38Z</time>
      </trkpt>
      <trkpt lat="42.7035790" lon="-0.0671590">
        <ele>2247.6</ele>
        <time>2022-07-24T07:32:40Z</time>
      </trkpt>
      <trkpt lat="42.7035790" lon="-0.0671690">
        <ele>2247.4</ele>
        <time>2022-07-24T07:32:41Z</time>
      </trkpt>
      <trkpt lat="42.7035790" lon="-0.0671810">
        <ele>2247.0</ele>
        <time>2022-07-24T07:32:42Z</time>
      </trkpt>
      <trkpt lat="42.7035900" lon="-0.0671910">
        <ele>2246.8</ele>
        <time>2022-07-24T07:32:43Z</time>
      </trkpt>
      <trkpt lat="42.7036010" lon="-0.0671980">
        <ele>2246.6</ele>
        <time>2022-07-24T07:32:44Z</time>
      </trkpt>
      <trkpt lat="42.7036150" lon="-0.0671970">
        <ele>2246.2</ele>
        <time>2022-07-24T07:32:45Z</time>
      </trkpt>
      <trkpt lat="42.7036240" lon="-0.0671950">
        <ele>2245.6</ele>
        <time>2022-07-24T07:32:46Z</time>
      </trkpt>
      <trkpt lat="42.7036330" lon="-0.0671920">
        <ele>2245.0</ele>
        <time>2022-07-24T07:32:47Z</time>
      </trkpt>
      <trkpt lat="42.7036350" lon="-0.0671890">
        <ele>2244.6</ele>
        <time>2022-07-24T07:32:48Z</time>
      </trkpt>
      <trkpt lat="42.7036310" lon="-0.0671860">
        <ele>2244.2</ele>
        <time>2022-07-24T07:32:49Z</time>
      </trkpt>
      <trkpt lat="42.7036020" lon="-0.0671960">
        <ele>2244.0</ele>
        <time>2022-07-24T07:32:51Z</time>
      </trkpt>
      <trkpt lat="42.7035870" lon="-0.0672210">
        <ele>2243.8</ele>
        <time>2022-07-24T07:32:52Z</time>
      </trkpt>
      <trkpt lat="42.7035730" lon="-0.0672680">
        <ele>2243.0</ele>
        <time>2022-07-24T07:32:54Z</time>
      </trkpt>
      <trkpt lat="42.7035680" lon="-0.0672540">
        <ele>2242.0</ele>
        <time>2022-07-24T07:32:56Z</time>
      </trkpt>
      <trkpt lat="42.7035790" lon="-0.0672740">
        <ele>2240.4</ele>
        <time>2022-07-24T07:32:59Z</time>
      </trkpt>
      <trkpt lat="42.7035800" lon="-0.0672860">
        <ele>2240.0</ele>
        <time>2022-07-24T07:33:00Z</time>
      </trkpt>
      <trkpt lat="42.7035670" lon="-0.0673100">
        <ele>2239.4</ele>
        <time>2022-07-24T07:33:01Z</time>
      </trkpt>
      <trkpt lat="42.7035470" lon="-0.0673390">
        <ele>2239.0</ele>
        <time>2022-07-24T07:33:02Z</time>
      </trkpt>
      <trkpt lat="42.7035180" lon="-0.0674070">
        <ele>2238.0</ele>
        <time>2022-07-24T07:33:05Z</time>
      </trkpt>
      <trkpt lat="42.7034920" lon="-0.0674440">
        <ele>2237.4</ele>
        <time>2022-07-24T07:33:08Z</time>
      </trkpt>
      <trkpt lat="42.7034940" lon="-0.0674550">
        <ele>2237.4</ele>
        <time>2022-07-24T07:33:09Z</time>
      </trkpt>
      <trkpt lat="42.7035270" lon="-0.0674760">
        <ele>2236.2</ele>
        <time>2022-07-24T07:33:12Z</time>
      </trkpt>
      <trkpt lat="42.7035390" lon="-0.0674820">
        <ele>2236.0</ele>
        <time>2022-07-24T07:33:13Z</time>
      </trkpt>
      <trkpt lat="42.7035420" lon="-0.0674990">
        <ele>2235.6</ele>
        <time>2022-07-24T07:33:14Z</time>
      </trkpt>
      <trkpt lat="42.7035510" lon="-0.0675020">
        <ele>2234.8</ele>
        <time>2022-07-24T07:33:15Z</time>
      </trkpt>
      <trkpt lat="42.7035790" lon="-0.0675310">
        <ele>2232.0</ele>
        <time>2022-07-24T07:33:20Z</time>
      </trkpt>
      <trkpt lat="42.7035790" lon="-0.0675380">
        <ele>2231.8</ele>
        <time>2022-07-24T07:33:21Z</time>
      </trkpt>
      <trkpt lat="42.7035770" lon="-0.0675590">
        <ele>2231.6</ele>
        <time>2022-07-24T07:33:23Z</time>
      </trkpt>
      <trkpt lat="42.7035740" lon="-0.0675660">
        <ele>2231.0</ele>
        <time>2022-07-24T07:33:24Z</time>
      </trkpt>
      <trkpt lat="42.7035770" lon="-0.0675700">
        <ele>2230.8</ele>
        <time>2022-07-24T07:33:25Z</time>
      </trkpt>
      <trkpt lat="42.7036110" lon="-0.0675870">
        <ele>2230.0</ele>
        <time>2022-07-24T07:33:28Z</time>
      </trkpt>
      <trkpt lat="42.7036370" lon="-0.0676130">
        <ele>2228.4</ele>
        <time>2022-07-24T07:33:32Z</time>
      </trkpt>
      <trkpt lat="42.7036410" lon="-0.0676180">
        <ele>2227.4</ele>
        <time>2022-07-24T07:33:33Z</time>
      </trkpt>
      <trkpt lat="42.7036470" lon="-0.0676180">
        <ele>2226.6</ele>
        <time>2022-07-24T07:33:35Z</time>
      </trkpt>
      <trkpt lat="42.7036530" lon="-0.0676130">
        <ele>2226.4</ele>
        <time>2022-07-24T07:33:36Z</time>
      </trkpt>
      <trkpt lat="42.7036480" lon="-0.0676200">
        <ele>2226.4</ele>
        <time>2022-07-24T07:33:37Z</time>
      </trkpt>
      <trkpt lat="42.7036600" lon="-0.0676270">
        <ele>2226.0</ele>
        <time>2022-07-24T07:33:39Z</time>
      </trkpt>
      <trkpt lat="42.7036710" lon="-0.0676390">
        <ele>2225.8</ele>
        <time>2022-07-24T07:33:41Z</time>
      </trkpt>
      <trkpt lat="42.7036780" lon="-0.0676430">
        <ele>2225.8</ele>
        <time>2022-07-24T07:33:42Z</time>
      </trkpt>
      <trkpt lat="42.7037040" lon="-0.0676620">
        <ele>2225.2</ele>
        <time>2022-07-24T07:33:44Z</time>
      </trkpt>
      <trkpt lat="42.7037140" lon="-0.0676720">
        <ele>2224.6</ele>
        <time>2022-07-24T07:33:45Z</time>
      </trkpt>
      <trkpt lat="42.7037200" lon="-0.0676880">
        <ele>2224.0</ele>
        <time>2022-07-24T07:33:46Z</time>
      </trkpt>
      <trkpt lat="42.7037270" lon="-0.0677010">
        <ele>2223.8</ele>
        <time>2022-07-24T07:33:47Z</time>
      </trkpt>
      <trkpt lat="42.7037330" lon="-0.0677130">
        <ele>2223.4</ele>
        <time>2022-07-24T07:33:48Z</time>
      </trkpt>
      <trkpt lat="42.7037270" lon="-0.0677480">
        <ele>2222.6</ele>
        <time>2022-07-24T07:33:50Z</time>
      </trkpt>
      <trkpt lat="42.7037370" lon="-0.0677530">
        <ele>2221.8</ele>
        <time>2022-07-24T07:33:52Z</time>
      </trkpt>
      <trkpt lat="42.7037190" lon="-0.0678120">
        <ele>2221.2</ele>
        <time>2022-07-24T07:33:56Z</time>
      </trkpt>
      <trkpt lat="42.7037000" lon="-0.0678450">
        <ele>2219.8</ele>
        <time>2022-07-24T07:34:00Z</time>
      </trkpt>
      <trkpt lat="42.7036430" lon="-0.0679480">
        <ele>2217.6</ele>
        <time>2022-07-24T07:34:06Z</time>
      </trkpt>
      <trkpt lat="42.7036430" lon="-0.0679600">
        <ele>2217.2</ele>
        <time>2022-07-24T07:34:07Z</time>
      </trkpt>
      <trkpt lat="42.7036440" lon="-0.0679690">
        <ele>2217.0</ele>
        <time>2022-07-24T07:34:08Z</time>
      </trkpt>
      <trkpt lat="42.7036350" lon="-0.0679980">
        <ele>2216.8</ele>
        <time>2022-07-24T07:34:10Z</time>
      </trkpt>
      <trkpt lat="42.7036210" lon="-0.0680360">
        <ele>2216.4</ele>
        <time>2022-07-24T07:34:14Z</time>
      </trkpt>
      <trkpt lat="42.7036230" lon="-0.0680470">
        <ele>2216.0</ele>
        <time>2022-07-24T07:34:15Z</time>
      </trkpt>
      <trkpt lat="42.7036300" lon="-0.0680580">
        <ele>2215.8</ele>
        <time>2022-07-24T07:34:16Z</time>
      </trkpt>
      <trkpt lat="42.7036390" lon="-0.0680740">
        <ele>2215.0</ele>
        <time>2022-07-24T07:34:17Z</time>
      </trkpt>
      <trkpt lat="42.7036440" lon="-0.0680880">
        <ele>2214.4</ele>
        <time>2022-07-24T07:34:18Z</time>
      </trkpt>
      <trkpt lat="42.7036500" lon="-0.0681000">
        <ele>2214.0</ele>
        <time>2022-07-24T07:34:19Z</time>
      </trkpt>
      <trkpt lat="42.7036510" lon="-0.0681190">
        <ele>2213.6</ele>
        <time>2022-07-24T07:34:20Z</time>
      </trkpt>
      <trkpt lat="42.7036570" lon="-0.0681360">
        <ele>2213.2</ele>
        <time>2022-07-24T07:34:21Z</time>
      </trkpt>
      <trkpt lat="42.7036630" lon="-0.0681810">
        <ele>2212.6</ele>
        <time>2022-07-24T07:34:24Z</time>
      </trkpt>
      <trkpt lat="42.7036720" lon="-0.0681880">
        <ele>2212.6</ele>
        <time>2022-07-24T07:34:25Z</time>
      </trkpt>
      <trkpt lat="42.7036770" lon="-0.0681950">
        <ele>2212.2</ele>
        <time>2022-07-24T07:34:26Z</time>
      </trkpt>
      <trkpt lat="42.7036810" lon="-0.0681940">
        <ele>2212.0</ele>
        <time>2022-07-24T07:34:27Z</time>
      </trkpt>
      <trkpt lat="42.7036470" lon="-0.0682180">
        <ele>2211.2</ele>
        <time>2022-07-24T07:34:30Z</time>
      </trkpt>
      <trkpt lat="42.7036470" lon="-0.0682380">
        <ele>2210.8</ele>
        <time>2022-07-24T07:34:31Z</time>
      </trkpt>
      <trkpt lat="42.7036440" lon="-0.0682560">
        <ele>2210.8</ele>
        <time>2022-07-24T07:34:32Z</time>
      </trkpt>
      <trkpt lat="42.7036450" lon="-0.0682680">
        <ele>2210.6</ele>
        <time>2022-07-24T07:34:33Z</time>
      </trkpt>
      <trkpt lat="42.7036030" lon="-0.0683910">
        <ele>2210.0</ele>
        <time>2022-07-24T07:34:37Z</time>
      </trkpt>
      <trkpt lat="42.7036030" lon="-0.0684280">
        <ele>2209.2</ele>
        <time>2022-07-24T07:34:39Z</time>
      </trkpt>
      <trkpt lat="42.7036070" lon="-0.0684440">
        <ele>2209.0</ele>
        <time>2022-07-24T07:34:40Z</time>
      </trkpt>
      <trkpt lat="42.7036130" lon="-0.0684680">
        <ele>2208.8</ele>
        <time>2022-07-24T07:34:42Z</time>
      </trkpt>
      <trkpt lat="42.7036440" lon="-0.0684980">
        <ele>2208.0</ele>
        <time>2022-07-24T07:34:46Z</time>
      </trkpt>
      <trkpt lat="42.7036470" lon="-0.0685040">
        <ele>2207.4</ele>
        <time>2022-07-24T07:34:47Z</time>
      </trkpt>
      <trkpt lat="42.7036460" lon="-0.0684980">
        <ele>2206.2</ele>
        <time>2022-07-24T07:34:50Z</time>
      </trkpt>
      <trkpt lat="42.7036430" lon="-0.0685040">
        <ele>2206.0</ele>
        <time>2022-07-24T07:34:51Z</time>
      </trkpt>
      <trkpt lat="42.7036590" lon="-0.0685070">
        <ele>2205.6</ele>
        <time>2022-07-24T07:34:53Z</time>
      </trkpt>
      <trkpt lat="42.7036620" lon="-0.0685120">
        <ele>2205.4</ele>
        <time>2022-07-24T07:34:54Z</time>
      </trkpt>
      <trkpt lat="42.7036640" lon="-0.0685190">
        <ele>2205.2</ele>
        <time>2022-07-24T07:34:55Z</time>
      </trkpt>
      <trkpt lat="42.7036660" lon="-0.0685250">
        <ele>2205.2</ele>
        <time>2022-07-24T07:34:56Z</time>
      </trkpt>
      <trkpt lat="42.7036820" lon="-0.0685310">
        <ele>2204.6</ele>
        <time>2022-07-24T07:34:58Z</time>
      </trkpt>
      <trkpt lat="42.7036940" lon="-0.0685470">
        <ele>2204.2</ele>
        <time>2022-07-24T07:35:00Z</time>
      </trkpt>
      <trkpt lat="42.7036960" lon="-0.0685640">
        <ele>2204.0</ele>
        <time>2022-07-24T07:35:01Z</time>
      </trkpt>
      <trkpt lat="42.7037000" lon="-0.0685860">
        <ele>2204.2</ele>
        <time>2022-07-24T07:35:02Z</time>
      </trkpt>
      <trkpt lat="42.7037120" lon="-0.0685990">
        <ele>2204.0</ele>
        <time>2022-07-24T07:35:03Z</time>
      </trkpt>
      <trkpt lat="42.7037350" lon="-0.0686480">
        <ele>2203.8</ele>
        <time>2022-07-24T07:35:05Z</time>
      </trkpt>
      <trkpt lat="42.7037500" lon="-0.0687430">
        <ele>2202.4</ele>
        <time>2022-07-24T07:35:09Z</time>
      </trkpt>
      <trkpt lat="42.7037560" lon="-0.0687560">
        <ele>2202.4</ele>
        <time>2022-07-24T07:35:10Z</time>
      </trkpt>
      <trkpt lat="42.7037590" lon="-0.0687710">
        <ele>2202.2</ele>
        <time>2022-07-24T07:35:11Z</time>
      </trkpt>
      <trkpt lat="42.7037690" lon="-0.0687950">
        <ele>2202.0</ele>
        <time>2022-07-24T07:35:13Z</time>
      </trkpt>
      <trkpt lat="42.7037920" lon="-0.0688250">
        <ele>2201.4</ele>
        <time>2022-07-24T07:35:16Z</time>
      </trkpt>
      <trkpt lat="42.7038000" lon="-0.0688340">
        <ele>2201.4</ele>
        <time>2022-07-24T07:35:17Z</time>
      </trkpt>
      <trkpt lat="42.7038020" lon="-0.0689120">
        <ele>2200.4</ele>
        <time>2022-07-24T07:35:21Z</time>
      </trkpt>
      <trkpt lat="42.7037940" lon="-0.0689560">
        <ele>2200.0</ele>
        <time>2022-07-24T07:35:23Z</time>
      </trkpt>
      <trkpt lat="42.7037950" lon="-0.0689730">
        <ele>2199.8</ele>
        <time>2022-07-24T07:35:24Z</time>
      </trkpt>
      <trkpt lat="42.7038100" lon="-0.0690750">
        <ele>2198.8</ele>
        <time>2022-07-24T07:35:29Z</time>
      </trkpt>
      <trkpt lat="42.7038140" lon="-0.0690960">
        <ele>2198.6</ele>
        <time>2022-07-24T07:35:30Z</time>
      </trkpt>
      <trkpt lat="42.7038310" lon="-0.0691770">
        <ele>2196.6</ele>
        <time>2022-07-24T07:35:35Z</time>
      </trkpt>
      <trkpt lat="42.7038330" lon="-0.0691950">
        <ele>2196.4</ele>
        <time>2022-07-24T07:35:36Z</time>
      </trkpt>
      <trkpt lat="42.7038350" lon="-0.0692120">
        <ele>2196.2</ele>
        <time>2022-07-24T07:35:37Z</time>
      </trkpt>
      <trkpt lat="42.7038410" lon="-0.0692270">
        <ele>2196.2</ele>
        <time>2022-07-24T07:35:38Z</time>
      </trkpt>
      <trkpt lat="42.7038500" lon="-0.0692420">
        <ele>2195.8</ele>
        <time>2022-07-24T07:35:39Z</time>
      </trkpt>
      <trkpt lat="42.7038770" lon="-0.0692690">
        <ele>2195.6</ele>
        <time>2022-07-24T07:35:41Z</time>
      </trkpt>
      <trkpt lat="42.7038810" lon="-0.0692840">
        <ele>2195.4</ele>
        <time>2022-07-24T07:35:42Z</time>
      </trkpt>
      <trkpt lat="42.7038950" lon="-0.0692960">
        <ele>2195.2</ele>
        <time>2022-07-24T07:35:43Z</time>
      </trkpt>
      <trkpt lat="42.7039110" lon="-0.0693060">
        <ele>2195.0</ele>
        <time>2022-07-24T07:35:44Z</time>
      </trkpt>
      <trkpt lat="42.7039330" lon="-0.0693380">
        <ele>2194.8</ele>
        <time>2022-07-24T07:35:46Z</time>
      </trkpt>
      <trkpt lat="42.7039270" lon="-0.0693620">
        <ele>2194.6</ele>
        <time>2022-07-24T07:35:47Z</time>
      </trkpt>
      <trkpt lat="42.7039240" lon="-0.0693850">
        <ele>2194.6</ele>
        <time>2022-07-24T07:35:48Z</time>
      </trkpt>
      <trkpt lat="42.7039040" lon="-0.0694550">
        <ele>2193.6</ele>
        <time>2022-07-24T07:35:51Z</time>
      </trkpt>
      <trkpt lat="42.7038890" lon="-0.0694920">
        <ele>2193.2</ele>
        <time>2022-07-24T07:35:53Z</time>
      </trkpt>
      <trkpt lat="42.7038900" lon="-0.0695090">
        <ele>2193.0</ele>
        <time>2022-07-24T07:35:54Z</time>
      </trkpt>
      <trkpt lat="42.7038960" lon="-0.0695230">
        <ele>2193.2</ele>
        <time>2022-07-24T07:35:55Z</time>
      </trkpt>
      <trkpt lat="42.7038470" lon="-0.0696230">
        <ele>2192.8</ele>
        <time>2022-07-24T07:35:59Z</time>
      </trkpt>
      <trkpt lat="42.7038670" lon="-0.0696510">
        <ele>2192.6</ele>
        <time>2022-07-24T07:36:01Z</time>
      </trkpt>
      <trkpt lat="42.7038640" lon="-0.0696700">
        <ele>2192.4</ele>
        <time>2022-07-24T07:36:02Z</time>
      </trkpt>
      <trkpt lat="42.7038590" lon="-0.0696950">
        <ele>2192.4</ele>
        <time>2022-07-24T07:36:03Z</time>
      </trkpt>
      <trkpt lat="42.7038500" lon="-0.0697410">
        <ele>2192.0</ele>
        <time>2022-07-24T07:36:05Z</time>
      </trkpt>
      <trkpt lat="42.7038500" lon="-0.0697800">
        <ele>2191.8</ele>
        <time>2022-07-24T07:36:07Z</time>
      </trkpt>
      <trkpt lat="42.7038560" lon="-0.0697960">
        <ele>2191.8</ele>
        <time>2022-07-24T07:36:08Z</time>
      </trkpt>
      <trkpt lat="42.7038820" lon="-0.0698160">
        <ele>2191.6</ele>
        <time>2022-07-24T07:36:10Z</time>
      </trkpt>
      <trkpt lat="42.7038840" lon="-0.0698260">
        <ele>2191.4</ele>
        <time>2022-07-24T07:36:11Z</time>
      </trkpt>
      <trkpt lat="42.7038900" lon="-0.0698330">
        <ele>2191.0</ele>
        <time>2022-07-24T07:36:12Z</time>
      </trkpt>
      <trkpt lat="42.7038900" lon="-0.0698460">
        <ele>2190.8</ele>
        <time>2022-07-24T07:36:13Z</time>
      </trkpt>
      <trkpt lat="42.7038870" lon="-0.0698630">
        <ele>2190.8</ele>
        <time>2022-07-24T07:36:14Z</time>
      </trkpt>
      <trkpt lat="42.7038860" lon="-0.0698960">
        <ele>2190.6</ele>
        <time>2022-07-24T07:36:16Z</time>
      </trkpt>
      <trkpt lat="42.7038830" lon="-0.0699530">
        <ele>2189.8</ele>
        <time>2022-07-24T07:36:21Z</time>
      </trkpt>
      <trkpt lat="42.7038880" lon="-0.0699550">
        <ele>2189.4</ele>
        <time>2022-07-24T07:36:22Z</time>
      </trkpt>
      <trkpt lat="42.7038910" lon="-0.0699640">
        <ele>2189.4</ele>
        <time>2022-07-24T07:36:23Z</time>
      </trkpt>
      <trkpt lat="42.7038840" lon="-0.0699760">
        <ele>2189.0</ele>
        <time>2022-07-24T07:36:24Z</time>
      </trkpt>
      <trkpt lat="42.7038800" lon="-0.0700170">
        <ele>2188.2</ele>
        <time>2022-07-24T07:36:26Z</time>
      </trkpt>
      <trkpt lat="42.7038750" lon="-0.0700370">
        <ele>2188.0</ele>
        <time>2022-07-24T07:36:27Z</time>
      </trkpt>
      <trkpt lat="42.7038710" lon="-0.0700550">
        <ele>2187.8</ele>
        <time>2022-07-24T07:36:28Z</time>
      </trkpt>
      <trkpt lat="42.7038530" lon="-0.0700990">
        <ele>2187.2</ele>
        <time>2022-07-24T07:36:30Z</time>
      </trkpt>
      <trkpt lat="42.7038490" lon="-0.0701210">
        <ele>2186.8</ele>
        <time>2022-07-24T07:36:32Z</time>
      </trkpt>
      <trkpt lat="42.7038610" lon="-0.0701410">
        <ele>2186.6</ele>
        <time>2022-07-24T07:36:34Z</time>
      </trkpt>
      <trkpt lat="42.7038820" lon="-0.0701780">
        <ele>2186.0</ele>
        <time>2022-07-24T07:36:37Z</time>
      </trkpt>
      <trkpt lat="42.7038960" lon="-0.0701840">
        <ele>2185.8</ele>
        <time>2022-07-24T07:36:38Z</time>
      </trkpt>
      <trkpt lat="42.7039060" lon="-0.0702020">
        <ele>2184.8</ele>
        <time>2022-07-24T07:36:40Z</time>
      </trkpt>
      <trkpt lat="42.7039140" lon="-0.0702140">
        <ele>2184.4</ele>
        <time>2022-07-24T07:36:41Z</time>
      </trkpt>
      <trkpt lat="42.7039490" lon="-0.0702760">
        <ele>2183.2</ele>
        <time>2022-07-24T07:36:45Z</time>
      </trkpt>
      <trkpt lat="42.7039520" lon="-0.0702900">
        <ele>2182.8</ele>
        <time>2022-07-24T07:36:46Z</time>
      </trkpt>
      <trkpt lat="42.7039570" lon="-0.0703040">
        <ele>2182.6</ele>
        <time>2022-07-24T07:36:47Z</time>
      </trkpt>
      <trkpt lat="42.7039630" lon="-0.0703200">
        <ele>2181.8</ele>
        <time>2022-07-24T07:36:48Z</time>
      </trkpt>
      <trkpt lat="42.7039630" lon="-0.0703560">
        <ele>2181.4</ele>
        <time>2022-07-24T07:36:50Z</time>
      </trkpt>
      <trkpt lat="42.7039350" lon="-0.0704300">
        <ele>2180.8</ele>
        <time>2022-07-24T07:36:53Z</time>
      </trkpt>
      <trkpt lat="42.7038970" lon="-0.0704910">
        <ele>2180.6</ele>
        <time>2022-07-24T07:36:55Z</time>
      </trkpt>
      <trkpt lat="42.7038840" lon="-0.0705360">
        <ele>2179.6</ele>
        <time>2022-07-24T07:36:57Z</time>
      </trkpt>
      <trkpt lat="42.7037810" lon="-0.0706680">
        <ele>2178.0</ele>
        <time>2022-07-24T07:37:02Z</time>
      </trkpt>
      <trkpt lat="42.7037770" lon="-0.0706830">
        <ele>2177.4</ele>
        <time>2022-07-24T07:37:03Z</time>
      </trkpt>
      <trkpt lat="42.7037800" lon="-0.0707180">
        <ele>2177.2</ele>
        <time>2022-07-24T07:37:05Z</time>
      </trkpt>
      <trkpt lat="42.7037850" lon="-0.0707570">
        <ele>2176.4</ele>
        <time>2022-07-24T07:37:07Z</time>
      </trkpt>
      <trkpt lat="42.7037970" lon="-0.0707740">
        <ele>2176.0</ele>
        <time>2022-07-24T07:37:08Z</time>
      </trkpt>
      <trkpt lat="42.7038030" lon="-0.0707940">
        <ele>2175.8</ele>
        <time>2022-07-24T07:37:09Z</time>
      </trkpt>
      <trkpt lat="42.7038040" lon="-0.0708120">
        <ele>2175.8</ele>
        <time>2022-07-24T07:37:10Z</time>
      </trkpt>
      <trkpt lat="42.7038010" lon="-0.0708300">
        <ele>2175.4</ele>
        <time>2022-07-24T07:37:11Z</time>
      </trkpt>
      <trkpt lat="42.7037760" lon="-0.0708630">
        <ele>2175.0</ele>
        <time>2022-07-24T07:37:13Z</time>
      </trkpt>
      <trkpt lat="42.7037730" lon="-0.0708880">
        <ele>2173.6</ele>
        <time>2022-07-24T07:37:15Z</time>
      </trkpt>
      <trkpt lat="42.7037830" lon="-0.0709660">
        <ele>2172.2</ele>
        <time>2022-07-24T07:37:19Z</time>
      </trkpt>
      <trkpt lat="42.7038030" lon="-0.0710240">
        <ele>2171.4</ele>
        <time>2022-07-24T07:37:22Z</time>
      </trkpt>
      <trkpt lat="42.7038200" lon="-0.0710600">
        <ele>2170.6</ele>
        <time>2022-07-24T07:37:24Z</time>
      </trkpt>
      <trkpt lat="42.7038280" lon="-0.0710770">
        <ele>2170.4</ele>
        <time>2022-07-24T07:37:25Z</time>
      </trkpt>
      <trkpt lat="42.7038390" lon="-0.0711160">
        <ele>2169.6</ele>
        <time>2022-07-24T07:37:27Z</time>
      </trkpt>
      <trkpt lat="42.7038290" lon="-0.0711750">
        <ele>2168.4</ele>
        <time>2022-07-24T07:37:30Z</time>
      </trkpt>
      <trkpt lat="42.7038280" lon="-0.0711990">
        <ele>2167.8</ele>
        <time>2022-07-24T07:37:32Z</time>
      </trkpt>
      <trkpt lat="42.7038080" lon="-0.0712300">
        <ele>2167.2</ele>
        <time>2022-07-24T07:37:34Z</time>
      </trkpt>
      <trkpt lat="42.7037930" lon="-0.0712730">
        <ele>2166.6</ele>
        <time>2022-07-24T07:37:37Z</time>
      </trkpt>
      <trkpt lat="42.7037860" lon="-0.0712920">
        <ele>2166.4</ele>
        <time>2022-07-24T07:37:38Z</time>
      </trkpt>
      <trkpt lat="42.7036730" lon="-0.0714340">
        <ele>2165.0</ele>
        <time>2022-07-24T07:37:43Z</time>
      </trkpt>
      <trkpt lat="42.7036620" lon="-0.0714540">
        <ele>2164.2</ele>
        <time>2022-07-24T07:37:44Z</time>
      </trkpt>
      <trkpt lat="42.7036600" lon="-0.0714700">
        <ele>2164.0</ele>
        <time>2022-07-24T07:37:45Z</time>
      </trkpt>
      <trkpt lat="42.7036100" lon="-0.0715260">
        <ele>2162.8</ele>
        <time>2022-07-24T07:37:47Z</time>
      </trkpt>
      <trkpt lat="42.7035970" lon="-0.0715660">
        <ele>2161.4</ele>
        <time>2022-07-24T07:37:50Z</time>
      </trkpt>
      <trkpt lat="42.7035930" lon="-0.0715890">
        <ele>2160.8</ele>
        <time>2022-07-24T07:37:53Z</time>
      </trkpt>
      <trkpt lat="42.7035980" lon="-0.0716310">
        <ele>2159.4</ele>
        <time>2022-07-24T07:37:57Z</time>
      </trkpt>
      <trkpt lat="42.7036010" lon="-0.0716450">
        <ele>2159.2</ele>
        <time>2022-07-24T07:37:58Z</time>
      </trkpt>
      <trkpt lat="42.7036140" lon="-0.0717070">
        <ele>2158.0</ele>
        <time>2022-07-24T07:38:02Z</time>
      </trkpt>
      <trkpt lat="42.7036260" lon="-0.0717390">
        <ele>2157.0</ele>
        <time>2022-07-24T07:38:04Z</time>
      </trkpt>
      <trkpt lat="42.7036300" lon="-0.0717570">
        <ele>2156.8</ele>
        <time>2022-07-24T07:38:05Z</time>
      </trkpt>
      <trkpt lat="42.7036320" lon="-0.0717760">
        <ele>2156.6</ele>
        <time>2022-07-24T07:38:06Z</time>
      </trkpt>
      <trkpt lat="42.7036300" lon="-0.0718450">
        <ele>2156.0</ele>
        <time>2022-07-24T07:38:09Z</time>
      </trkpt>
      <trkpt lat="42.7036310" lon="-0.0718850">
        <ele>2155.8</ele>
        <time>2022-07-24T07:38:11Z</time>
      </trkpt>
      <trkpt lat="42.7036240" lon="-0.0719270">
        <ele>2155.4</ele>
        <time>2022-07-24T07:38:13Z</time>
      </trkpt>
      <trkpt lat="42.7036220" lon="-0.0719630">
        <ele>2154.8</ele>
        <time>2022-07-24T07:38:15Z</time>
      </trkpt>
      <trkpt lat="42.7036240" lon="-0.0719820">
        <ele>2154.6</ele>
        <time>2022-07-24T07:38:16Z</time>
      </trkpt>
      <trkpt lat="42.7036220" lon="-0.0720240">
        <ele>2154.0</ele>
        <time>2022-07-24T07:38:18Z</time>
      </trkpt>
      <trkpt lat="42.7036260" lon="-0.0720400">
        <ele>2153.8</ele>
        <time>2022-07-24T07:38:19Z</time>
      </trkpt>
      <trkpt lat="42.7036330" lon="-0.0720520">
        <ele>2153.6</ele>
        <time>2022-07-24T07:38:20Z</time>
      </trkpt>
      <trkpt lat="42.7036290" lon="-0.0721010">
        <ele>2153.4</ele>
        <time>2022-07-24T07:38:23Z</time>
      </trkpt>
      <trkpt lat="42.7036000" lon="-0.0721980">
        <ele>2153.2</ele>
        <time>2022-07-24T07:38:27Z</time>
      </trkpt>
      <trkpt lat="42.7036050" lon="-0.0722130">
        <ele>2153.0</ele>
        <time>2022-07-24T07:38:28Z</time>
      </trkpt>
      <trkpt lat="42.7035990" lon="-0.0723100">
        <ele>2152.2</ele>
        <time>2022-07-24T07:38:33Z</time>
      </trkpt>
      <trkpt lat="42.7035990" lon="-0.0723290">
        <ele>2152.2</ele>
        <time>2022-07-24T07:38:34Z</time>
      </trkpt>
      <trkpt lat="42.7035990" lon="-0.0723460">
        <ele>2152.0</ele>
        <time>2022-07-24T07:38:35Z</time>
      </trkpt>
      <trkpt lat="42.7036030" lon="-0.0723600">
        <ele>2151.8</ele>
        <time>2022-07-24T07:38:36Z</time>
      </trkpt>
      <trkpt lat="42.7036090" lon="-0.0723890">
        <ele>2151.6</ele>
        <time>2022-07-24T07:38:38Z</time>
      </trkpt>
      <trkpt lat="42.7036060" lon="-0.0724240">
        <ele>2151.8</ele>
        <time>2022-07-24T07:38:40Z</time>
      </trkpt>
      <trkpt lat="42.7036240" lon="-0.0724590">
        <ele>2151.0</ele>
        <time>2022-07-24T07:38:43Z</time>
      </trkpt>
      <trkpt lat="42.7036350" lon="-0.0724730">
        <ele>2150.6</ele>
        <time>2022-07-24T07:38:44Z</time>
      </trkpt>
      <trkpt lat="42.7036420" lon="-0.0724890">
        <ele>2150.2</ele>
        <time>2022-07-24T07:38:45Z</time>
      </trkpt>
      <trkpt lat="42.7036490" lon="-0.0725040">
        <ele>2150.0</ele>
        <time>2022-07-24T07:38:46Z</time>
      </trkpt>
      <trkpt lat="42.7036560" lon="-0.0725140">
        <ele>2149.4</ele>
        <time>2022-07-24T07:38:47Z</time>
      </trkpt>
      <trkpt lat="42.7036640" lon="-0.0725270">
        <ele>2148.4</ele>
        <time>2022-07-24T07:38:49Z</time>
      </trkpt>
      <trkpt lat="42.7036680" lon="-0.0725350">
        <ele>2148.2</ele>
        <time>2022-07-24T07:38:50Z</time>
      </trkpt>
      <trkpt lat="42.7036720" lon="-0.0725430">
        <ele>2148.0</ele>
        <time>2022-07-24T07:38:51Z</time>
      </trkpt>
      <trkpt lat="42.7036770" lon="-0.0725550">
        <ele>2147.4</ele>
        <time>2022-07-24T07:38:52Z</time>
      </trkpt>
      <trkpt lat="42.7036840" lon="-0.0725640">
        <ele>2146.8</ele>
        <time>2022-07-24T07:38:53Z</time>
      </trkpt>
      <trkpt lat="42.7036980" lon="-0.0725720">
        <ele>2146.6</ele>
        <time>2022-07-24T07:38:54Z</time>
      </trkpt>
      <trkpt lat="42.7037110" lon="-0.0725940">
        <ele>2146.4</ele>
        <time>2022-07-24T07:38:56Z</time>
      </trkpt>
      <trkpt lat="42.7037190" lon="-0.0726030">
        <ele>2146.0</ele>
        <time>2022-07-24T07:38:57Z</time>
      </trkpt>
      <trkpt lat="42.7037380" lon="-0.0726180">
        <ele>2144.6</ele>
        <time>2022-07-24T07:39:00Z</time>
      </trkpt>
      <trkpt lat="42.7037430" lon="-0.0726260">
        <ele>2144.6</ele>
        <time>2022-07-24T07:39:01Z</time>
      </trkpt>
      <trkpt lat="42.7037490" lon="-0.0726340">
        <ele>2143.4</ele>
        <time>2022-07-24T07:39:04Z</time>
      </trkpt>
      <trkpt lat="42.7037570" lon="-0.0726440">
        <ele>2142.4</ele>
        <time>2022-07-24T07:39:06Z</time>
      </trkpt>
      <trkpt lat="42.7037640" lon="-0.0726520">
        <ele>2141.8</ele>
        <time>2022-07-24T07:39:08Z</time>
      </trkpt>
      <trkpt lat="42.7037530" lon="-0.0726680">
        <ele>2141.4</ele>
        <time>2022-07-24T07:39:09Z</time>
      </trkpt>
      <trkpt lat="42.7037500" lon="-0.0726740">
        <ele>2140.8</ele>
        <time>2022-07-24T07:39:10Z</time>
      </trkpt>
      <trkpt lat="42.7036920" lon="-0.0727650">
        <ele>2140.2</ele>
        <time>2022-07-24T07:39:14Z</time>
      </trkpt>
      <trkpt lat="42.7036970" lon="-0.0727850">
        <ele>2139.4</ele>
        <time>2022-07-24T07:39:17Z</time>
      </trkpt>
      <trkpt lat="42.7037000" lon="-0.0727950">
        <ele>2139.2</ele>
        <time>2022-07-24T07:39:18Z</time>
      </trkpt>
      <trkpt lat="42.7037030" lon="-0.0728130">
        <ele>2138.4</ele>
        <time>2022-07-24T07:39:19Z</time>
      </trkpt>
      <trkpt lat="42.7037060" lon="-0.0728210">
        <ele>2137.8</ele>
        <time>2022-07-24T07:39:20Z</time>
      </trkpt>
      <trkpt lat="42.7037030" lon="-0.0728350">
        <ele>2137.4</ele>
        <time>2022-07-24T07:39:21Z</time>
      </trkpt>
      <trkpt lat="42.7036920" lon="-0.0728410">
        <ele>2137.4</ele>
        <time>2022-07-24T07:39:22Z</time>
      </trkpt>
      <trkpt lat="42.7036940" lon="-0.0728500">
        <ele>2137.2</ele>
        <time>2022-07-24T07:39:23Z</time>
      </trkpt>
      <trkpt lat="42.7036910" lon="-0.0728630">
        <ele>2137.0</ele>
        <time>2022-07-24T07:39:24Z</time>
      </trkpt>
      <trkpt lat="42.7037050" lon="-0.0728910">
        <ele>2136.4</ele>
        <time>2022-07-24T07:39:26Z</time>
      </trkpt>
      <trkpt lat="42.7036680" lon="-0.0729470">
        <ele>2135.2</ele>
        <time>2022-07-24T07:39:29Z</time>
      </trkpt>
      <trkpt lat="42.7036890" lon="-0.0729710">
        <ele>2134.4</ele>
        <time>2022-07-24T07:39:31Z</time>
      </trkpt>
      <trkpt lat="42.7037350" lon="-0.0730210">
        <ele>2132.6</ele>
        <time>2022-07-24T07:39:35Z</time>
      </trkpt>
      <trkpt lat="42.7037470" lon="-0.0730330">
        <ele>2132.4</ele>
        <time>2022-07-24T07:39:36Z</time>
      </trkpt>
      <trkpt lat="42.7037580" lon="-0.0730460">
        <ele>2132.2</ele>
        <time>2022-07-24T07:39:37Z</time>
      </trkpt>
      <trkpt lat="42.7037640" lon="-0.0730660">
        <ele>2131.8</ele>
        <time>2022-07-24T07:39:38Z</time>
      </trkpt>
      <trkpt lat="42.7038000" lon="-0.0731150">
        <ele>2130.4</ele>
        <time>2022-07-24T07:39:42Z</time>
      </trkpt>
      <trkpt lat="42.7037970" lon="-0.0731360">
        <ele>2130.4</ele>
        <time>2022-07-24T07:39:43Z</time>
      </trkpt>
      <trkpt lat="42.7037880" lon="-0.0732320">
        <ele>2128.6</ele>
        <time>2022-07-24T07:39:47Z</time>
      </trkpt>
      <trkpt lat="42.7037920" lon="-0.0732470">
        <ele>2128.4</ele>
        <time>2022-07-24T07:39:48Z</time>
      </trkpt>
      <trkpt lat="42.7037980" lon="-0.0732780">
        <ele>2127.6</ele>
        <time>2022-07-24T07:39:50Z</time>
      </trkpt>
      <trkpt lat="42.7038110" lon="-0.0732930">
        <ele>2127.4</ele>
        <time>2022-07-24T07:39:51Z</time>
      </trkpt>
      <trkpt lat="42.7038420" lon="-0.0733350">
        <ele>2125.6</ele>
        <time>2022-07-24T07:39:54Z</time>
      </trkpt>
      <trkpt lat="42.7038520" lon="-0.0733620">
        <ele>2125.2</ele>
        <time>2022-07-24T07:39:56Z</time>
      </trkpt>
      <trkpt lat="42.7038640" lon="-0.0733700">
        <ele>2125.2</ele>
        <time>2022-07-24T07:39:57Z</time>
      </trkpt>
      <trkpt lat="42.7038720" lon="-0.0733800">
        <ele>2124.8</ele>
        <time>2022-07-24T07:39:58Z</time>
      </trkpt>
      <trkpt lat="42.7038790" lon="-0.0734500">
        <ele>2122.8</ele>
        <time>2022-07-24T07:40:02Z</time>
      </trkpt>
      <trkpt lat="42.7038560" lon="-0.0735070">
        <ele>2122.0</ele>
        <time>2022-07-24T07:40:04Z</time>
      </trkpt>
      <trkpt lat="42.7038680" lon="-0.0735660">
        <ele>2120.8</ele>
        <time>2022-07-24T07:40:07Z</time>
      </trkpt>
      <trkpt lat="42.7038750" lon="-0.0735770">
        <ele>2120.6</ele>
        <time>2022-07-24T07:40:08Z</time>
      </trkpt>
      <trkpt lat="42.7038730" lon="-0.0735870">
        <ele>2120.4</ele>
        <time>2022-07-24T07:40:09Z</time>
      </trkpt>
      <trkpt lat="42.7038740" lon="-0.0736000">
        <ele>2120.2</ele>
        <time>2022-07-24T07:40:10Z</time>
      </trkpt>
      <trkpt lat="42.7038640" lon="-0.0736800">
        <ele>2119.0</ele>
        <time>2022-07-24T07:40:14Z</time>
      </trkpt>
      <trkpt lat="42.7038440" lon="-0.0737200">
        <ele>2118.8</ele>
        <time>2022-07-24T07:40:16Z</time>
      </trkpt>
      <trkpt lat="42.7038520" lon="-0.0737520">
        <ele>2117.8</ele>
        <time>2022-07-24T07:40:18Z</time>
      </trkpt>
      <trkpt lat="42.7038280" lon="-0.0738190">
        <ele>2116.4</ele>
        <time>2022-07-24T07:40:22Z</time>
      </trkpt>
      <trkpt lat="42.7038230" lon="-0.0738600">
        <ele>2115.0</ele>
        <time>2022-07-24T07:40:25Z</time>
      </trkpt>
      <trkpt lat="42.7038240" lon="-0.0738740">
        <ele>2114.6</ele>
        <time>2022-07-24T07:40:26Z</time>
      </trkpt>
      <trkpt lat="42.7038480" lon="-0.0739320">
        <ele>2113.6</ele>
        <time>2022-07-24T07:40:30Z</time>
      </trkpt>
      <trkpt lat="42.7038860" lon="-0.0739590">
        <ele>2112.6</ele>
        <time>2022-07-24T07:40:33Z</time>
      </trkpt>
      <trkpt lat="42.7038860" lon="-0.0739920">
        <ele>2111.8</ele>
        <time>2022-07-24T07:40:35Z</time>
      </trkpt>
      <trkpt lat="42.7038740" lon="-0.0740310">
        <ele>2111.0</ele>
        <time>2022-07-24T07:40:37Z</time>
      </trkpt>
      <trkpt lat="42.7038740" lon="-0.0740660">
        <ele>2110.2</ele>
        <time>2022-07-24T07:40:39Z</time>
      </trkpt>
      <trkpt lat="42.7038710" lon="-0.0741180">
        <ele>2109.2</ele>
        <time>2022-07-24T07:40:42Z</time>
      </trkpt>
      <trkpt lat="42.7038790" lon="-0.0741320">
        <ele>2109.0</ele>
        <time>2022-07-24T07:40:43Z</time>
      </trkpt>
      <trkpt lat="42.7039080" lon="-0.0741560">
        <ele>2108.6</ele>
        <time>2022-07-24T07:40:45Z</time>
      </trkpt>
      <trkpt lat="42.7039100" lon="-0.0741730">
        <ele>2108.0</ele>
        <time>2022-07-24T07:40:46Z</time>
      </trkpt>
      <trkpt lat="42.7039110" lon="-0.0742280">
        <ele>2106.8</ele>
        <time>2022-07-24T07:40:49Z</time>
      </trkpt>
      <trkpt lat="42.7038720" lon="-0.0743020">
        <ele>2105.6</ele>
        <time>2022-07-24T07:40:52Z</time>
      </trkpt>
      <trkpt lat="42.7038570" lon="-0.0743580">
        <ele>2104.8</ele>
        <time>2022-07-24T07:40:55Z</time>
      </trkpt>
      <trkpt lat="42.7038610" lon="-0.0743720">
        <ele>2104.2</ele>
        <time>2022-07-24T07:40:56Z</time>
      </trkpt>
      <trkpt lat="42.7038730" lon="-0.0743840">
        <ele>2103.4</ele>
        <time>2022-07-24T07:40:57Z</time>
      </trkpt>
      <trkpt lat="42.7038810" lon="-0.0743970">
        <ele>2102.8</ele>
        <time>2022-07-24T07:40:58Z</time>
      </trkpt>
      <trkpt lat="42.7038880" lon="-0.0744130">
        <ele>2102.6</ele>
        <time>2022-07-24T07:40:59Z</time>
      </trkpt>
      <trkpt lat="42.7039140" lon="-0.0744610">
        <ele>2101.6</ele>
        <time>2022-07-24T07:41:02Z</time>
      </trkpt>
      <trkpt lat="42.7039290" lon="-0.0744940">
        <ele>2101.4</ele>
        <time>2022-07-24T07:41:04Z</time>
      </trkpt>
      <trkpt lat="42.7039430" lon="-0.0745250">
        <ele>2101.4</ele>
        <time>2022-07-24T07:41:06Z</time>
      </trkpt>
      <trkpt lat="42.7039440" lon="-0.0745390">
        <ele>2100.8</ele>
        <time>2022-07-24T07:41:07Z</time>
      </trkpt>
      <trkpt lat="42.7039500" lon="-0.0745530">
        <ele>2100.4</ele>
        <time>2022-07-24T07:41:08Z</time>
      </trkpt>
      <trkpt lat="42.7039550" lon="-0.0745680">
        <ele>2099.8</ele>
        <time>2022-07-24T07:41:09Z</time>
      </trkpt>
      <trkpt lat="42.7039640" lon="-0.0746260">
        <ele>2098.8</ele>
        <time>2022-07-24T07:41:12Z</time>
      </trkpt>
      <trkpt lat="42.7039190" lon="-0.0746990">
        <ele>2097.6</ele>
        <time>2022-07-24T07:41:15Z</time>
      </trkpt>
      <trkpt lat="42.7039120" lon="-0.0747220">
        <ele>2097.4</ele>
        <time>2022-07-24T07:41:16Z</time>
      </trkpt>
      <trkpt lat="42.7039090" lon="-0.0747410">
        <ele>2096.6</ele>
        <time>2022-07-24T07:41:17Z</time>
      </trkpt>
      <trkpt lat="42.7038900" lon="-0.0748610">
        <ele>2095.0</ele>
        <time>2022-07-24T07:41:23Z</time>
      </trkpt>
      <trkpt lat="42.7038960" lon="-0.0749160">
        <ele>2094.0</ele>
        <time>2022-07-24T07:41:26Z</time>
      </trkpt>
      <trkpt lat="42.7038810" lon="-0.0749660">
        <ele>2093.0</ele>
        <time>2022-07-24T07:41:28Z</time>
      </trkpt>
      <trkpt lat="42.7038760" lon="-0.0749860">
        <ele>2092.4</ele>
        <time>2022-07-24T07:41:29Z</time>
      </trkpt>
      <trkpt lat="42.7038710" lon="-0.0750060">
        <ele>2092.2</ele>
        <time>2022-07-24T07:41:30Z</time>
      </trkpt>
      <trkpt lat="42.7038670" lon="-0.0750220">
        <ele>2091.8</ele>
        <time>2022-07-24T07:41:31Z</time>
      </trkpt>
      <trkpt lat="42.7038590" lon="-0.0750820">
        <ele>2091.0</ele>
        <time>2022-07-24T07:41:34Z</time>
      </trkpt>
      <trkpt lat="42.7038350" lon="-0.0751510">
        <ele>2090.2</ele>
        <time>2022-07-24T07:41:37Z</time>
      </trkpt>
      <trkpt lat="42.7038200" lon="-0.0752390">
        <ele>2088.6</ele>
        <time>2022-07-24T07:41:41Z</time>
      </trkpt>
      <trkpt lat="42.7038080" lon="-0.0752810">
        <ele>2087.4</ele>
        <time>2022-07-24T07:41:43Z</time>
      </trkpt>
      <trkpt lat="42.7038000" lon="-0.0753260">
        <ele>2086.6</ele>
        <time>2022-07-24T07:41:45Z</time>
      </trkpt>
      <trkpt lat="42.7037830" lon="-0.0753870">
        <ele>2085.8</ele>
        <time>2022-07-24T07:41:48Z</time>
      </trkpt>
      <trkpt lat="42.7037490" lon="-0.0754800">
        <ele>2084.2</ele>
        <time>2022-07-24T07:41:53Z</time>
      </trkpt>
      <trkpt lat="42.7037450" lon="-0.0754930">
        <ele>2083.8</ele>
        <time>2022-07-24T07:41:54Z</time>
      </trkpt>
      <trkpt lat="42.7037380" lon="-0.0755070">
        <ele>2083.6</ele>
        <time>2022-07-24T07:41:55Z</time>
      </trkpt>
      <trkpt lat="42.7037170" lon="-0.0755360">
        <ele>2083.2</ele>
        <time>2022-07-24T07:41:57Z</time>
      </trkpt>
      <trkpt lat="42.7037100" lon="-0.0755540">
        <ele>2083.0</ele>
        <time>2022-07-24T07:41:58Z</time>
      </trkpt>
      <trkpt lat="42.7037050" lon="-0.0755760">
        <ele>2082.6</ele>
        <time>2022-07-24T07:41:59Z</time>
      </trkpt>
      <trkpt lat="42.7037000" lon="-0.0755970">
        <ele>2082.4</ele>
        <time>2022-07-24T07:42:00Z</time>
      </trkpt>
      <trkpt lat="42.7036990" lon="-0.0756150">
        <ele>2082.0</ele>
        <time>2022-07-24T07:42:01Z</time>
      </trkpt>
      <trkpt lat="42.7036850" lon="-0.0756370">
        <ele>2081.4</ele>
        <time>2022-07-24T07:42:02Z</time>
      </trkpt>
      <trkpt lat="42.7036830" lon="-0.0756550">
        <ele>2080.6</ele>
        <time>2022-07-24T07:42:03Z</time>
      </trkpt>
      <trkpt lat="42.7037000" lon="-0.0757280">
        <ele>2079.2</ele>
        <time>2022-07-24T07:42:07Z</time>
      </trkpt>
      <trkpt lat="42.7037000" lon="-0.0757500">
        <ele>2078.6</ele>
        <time>2022-07-24T07:42:08Z</time>
      </trkpt>
      <trkpt lat="42.7037070" lon="-0.0758380">
        <ele>2076.6</ele>
        <time>2022-07-24T07:42:13Z</time>
      </trkpt>
      <trkpt lat="42.7037280" lon="-0.0758670">
        <ele>2076.2</ele>
        <time>2022-07-24T07:42:15Z</time>
      </trkpt>
      <trkpt lat="42.7037380" lon="-0.0759060">
        <ele>2075.6</ele>
        <time>2022-07-24T07:42:17Z</time>
      </trkpt>
      <trkpt lat="42.7037420" lon="-0.0759270">
        <ele>2075.4</ele>
        <time>2022-07-24T07:42:18Z</time>
      </trkpt>
      <trkpt lat="42.7037310" lon="-0.0759700">
        <ele>2075.2</ele>
        <time>2022-07-24T07:42:20Z</time>
      </trkpt>
      <trkpt lat="42.7037250" lon="-0.0759880">
        <ele>2075.2</ele>
        <time>2022-07-24T07:42:21Z</time>
      </trkpt>
      <trkpt lat="42.7037210" lon="-0.0760280">
        <ele>2075.2</ele>
        <time>2022-07-24T07:42:23Z</time>
      </trkpt>
      <trkpt lat="42.7037270" lon="-0.0760580">
        <ele>2074.8</ele>
        <time>2022-07-24T07:42:25Z</time>
      </trkpt>
      <trkpt lat="42.7037280" lon="-0.0760710">
        <ele>2074.6</ele>
        <time>2022-07-24T07:42:26Z</time>
      </trkpt>
      <trkpt lat="42.7037230" lon="-0.0760880">
        <ele>2074.4</ele>
        <time>2022-07-24T07:42:27Z</time>
      </trkpt>
      <trkpt lat="42.7037130" lon="-0.0761100">
        <ele>2074.0</ele>
        <time>2022-07-24T07:42:28Z</time>
      </trkpt>
      <trkpt lat="42.7037020" lon="-0.0761340">
        <ele>2073.8</ele>
        <time>2022-07-24T07:42:29Z</time>
      </trkpt>
      <trkpt lat="42.7036930" lon="-0.0761550">
        <ele>2073.4</ele>
        <time>2022-07-24T07:42:30Z</time>
      </trkpt>
      <trkpt lat="42.7036820" lon="-0.0761730">
        <ele>2073.4</ele>
        <time>2022-07-24T07:42:31Z</time>
      </trkpt>
      <trkpt lat="42.7036800" lon="-0.0762000">
        <ele>2072.8</ele>
        <time>2022-07-24T07:42:33Z</time>
      </trkpt>
      <trkpt lat="42.7036900" lon="-0.0762110">
        <ele>2072.6</ele>
        <time>2022-07-24T07:42:34Z</time>
      </trkpt>
      <trkpt lat="42.7036850" lon="-0.0762820">
        <ele>2071.2</ele>
        <time>2022-07-24T07:42:39Z</time>
      </trkpt>
      <trkpt lat="42.7036870" lon="-0.0762950">
        <ele>2070.8</ele>
        <time>2022-07-24T07:42:40Z</time>
      </trkpt>
      <trkpt lat="42.7036970" lon="-0.0763170">
        <ele>2069.8</ele>
        <time>2022-07-24T07:42:42Z</time>
      </trkpt>
      <trkpt lat="42.7037000" lon="-0.0763440">
        <ele>2069.0</ele>
        <time>2022-07-24T07:42:45Z</time>
      </trkpt>
      <trkpt lat="42.7036940" lon="-0.0763460">
        <ele>2068.6</ele>
        <time>2022-07-24T07:42:46Z</time>
      </trkpt>
      <trkpt lat="42.7036930" lon="-0.0763490">
        <ele>2068.6</ele>
        <time>2022-07-24T07:42:47Z</time>
      </trkpt>
      <trkpt lat="42.7036990" lon="-0.0763630">
        <ele>2067.4</ele>
        <time>2022-07-24T07:42:49Z</time>
      </trkpt>
      <trkpt lat="42.7036800" lon="-0.0763920">
        <ele>2067.0</ele>
        <time>2022-07-24T07:42:51Z</time>
      </trkpt>
      <trkpt lat="42.7036710" lon="-0.0764080">
        <ele>2066.8</ele>
        <time>2022-07-24T07:42:52Z</time>
      </trkpt>
      <trkpt lat="42.7036720" lon="-0.0764220">
        <ele>2066.6</ele>
        <time>2022-07-24T07:42:53Z</time>
      </trkpt>
      <trkpt lat="42.7036710" lon="-0.0764690">
        <ele>2066.2</ele>
        <time>2022-07-24T07:42:55Z</time>
      </trkpt>
      <trkpt lat="42.7036740" lon="-0.0764910">
        <ele>2066.0</ele>
        <time>2022-07-24T07:42:56Z</time>
      </trkpt>
      <trkpt lat="42.7036590" lon="-0.0765630">
        <ele>2065.4</ele>
        <time>2022-07-24T07:42:59Z</time>
      </trkpt>
      <trkpt lat="42.7036500" lon="-0.0766120">
        <ele>2065.0</ele>
        <time>2022-07-24T07:43:01Z</time>
      </trkpt>
      <trkpt lat="42.7036260" lon="-0.0766680">
        <ele>2064.6</ele>
        <time>2022-07-24T07:43:03Z</time>
      </trkpt>
      <trkpt lat="42.7036170" lon="-0.0766920">
        <ele>2064.2</ele>
        <time>2022-07-24T07:43:04Z</time>
      </trkpt>
      <trkpt lat="42.7035300" lon="-0.0767730">
        <ele>2063.8</ele>
        <time>2022-07-24T07:43:07Z</time>
      </trkpt>
      <trkpt lat="42.7035000" lon="-0.0768110">
        <ele>2063.4</ele>
        <time>2022-07-24T07:43:09Z</time>
      </trkpt>
      <trkpt lat="42.7034350" lon="-0.0768950">
        <ele>2061.8</ele>
        <time>2022-07-24T07:43:15Z</time>
      </trkpt>
      <trkpt lat="42.7034230" lon="-0.0769100">
        <ele>2061.4</ele>
        <time>2022-07-24T07:43:16Z</time>
      </trkpt>
      <trkpt lat="42.7034030" lon="-0.0769630">
        <ele>2060.4</ele>
        <time>2022-07-24T07:43:19Z</time>
      </trkpt>
      <trkpt lat="42.7034020" lon="-0.0769830">
        <ele>2059.8</ele>
        <time>2022-07-24T07:43:20Z</time>
      </trkpt>
      <trkpt lat="42.7033990" lon="-0.0770030">
        <ele>2059.8</ele>
        <time>2022-07-24T07:43:21Z</time>
      </trkpt>
      <trkpt lat="42.7033810" lon="-0.0771530">
        <ele>2058.8</ele>
        <time>2022-07-24T07:43:30Z</time>
      </trkpt>
      <trkpt lat="42.7033960" lon="-0.0771880">
        <ele>2058.6</ele>
        <time>2022-07-24T07:43:32Z</time>
      </trkpt>
      <trkpt lat="42.7033990" lon="-0.0772060">
        <ele>2058.4</ele>
        <time>2022-07-24T07:43:33Z</time>
      </trkpt>
      <trkpt lat="42.7034050" lon="-0.0772380">
        <ele>2058.4</ele>
        <time>2022-07-24T07:43:35Z</time>
      </trkpt>
      <trkpt lat="42.7034080" lon="-0.0772520">
        <ele>2058.4</ele>
        <time>2022-07-24T07:43:36Z</time>
      </trkpt>
      <trkpt lat="42.7034230" lon="-0.0772820">
        <ele>2058.4</ele>
        <time>2022-07-24T07:43:38Z</time>
      </trkpt>
      <trkpt lat="42.7034470" lon="-0.0772960">
        <ele>2058.4</ele>
        <time>2022-07-24T07:43:40Z</time>
      </trkpt>
      <trkpt lat="42.7034230" lon="-0.0773120">
        <ele>2058.4</ele>
        <time>2022-07-24T07:43:42Z</time>
      </trkpt>
      <trkpt lat="42.7034060" lon="-0.0773170">
        <ele>2058.2</ele>
        <time>2022-07-24T07:43:43Z</time>
      </trkpt>
      <trkpt lat="42.7033940" lon="-0.0773260">
        <ele>2058.0</ele>
        <time>2022-07-24T07:43:44Z</time>
      </trkpt>
      <trkpt lat="42.7033810" lon="-0.0773430">
        <ele>2058.2</ele>
        <time>2022-07-24T07:43:45Z</time>
      </trkpt>
      <trkpt lat="42.7033740" lon="-0.0773600">
        <ele>2058.0</ele>
        <time>2022-07-24T07:43:46Z</time>
      </trkpt>
      <trkpt lat="42.7033700" lon="-0.0773780">
        <ele>2058.0</ele>
        <time>2022-07-24T07:43:47Z</time>
      </trkpt>
      <trkpt lat="42.7033640" lon="-0.0774180">
        <ele>2057.8</ele>
        <time>2022-07-24T07:43:49Z</time>
      </trkpt>
      <trkpt lat="42.7033310" lon="-0.0774590">
        <ele>2057.6</ele>
        <time>2022-07-24T07:43:52Z</time>
      </trkpt>
      <trkpt lat="42.7033230" lon="-0.0774710">
        <ele>2057.8</ele>
        <time>2022-07-24T07:43:53Z</time>
      </trkpt>
      <trkpt lat="42.7033190" lon="-0.0774820">
        <ele>2057.6</ele>
        <time>2022-07-24T07:43:54Z</time>
      </trkpt>
      <trkpt lat="42.7033080" lon="-0.0775140">
        <ele>2057.4</ele>
        <time>2022-07-24T07:43:56Z</time>
      </trkpt>
      <trkpt lat="42.7032720" lon="-0.0775530">
        <ele>2057.4</ele>
        <time>2022-07-24T07:43:58Z</time>
      </trkpt>
      <trkpt lat="42.7032580" lon="-0.0775640">
        <ele>2057.4</ele>
        <time>2022-07-24T07:43:59Z</time>
      </trkpt>
      <trkpt lat="42.7032430" lon="-0.0775680">
        <ele>2057.2</ele>
        <time>2022-07-24T07:44:00Z</time>
      </trkpt>
      <trkpt lat="42.7032260" lon="-0.0775760">
        <ele>2057.2</ele>
        <time>2022-07-24T07:44:01Z</time>
      </trkpt>
      <trkpt lat="42.7032100" lon="-0.0775910">
        <ele>2057.0</ele>
        <time>2022-07-24T07:44:02Z</time>
      </trkpt>
      <trkpt lat="42.7031400" lon="-0.0777260">
        <ele>2055.4</ele>
        <time>2022-07-24T07:44:07Z</time>
      </trkpt>
      <trkpt lat="42.7031380" lon="-0.0777640">
        <ele>2055.0</ele>
        <time>2022-07-24T07:44:09Z</time>
      </trkpt>
      <trkpt lat="42.7031470" lon="-0.0777980">
        <ele>2055.0</ele>
        <time>2022-07-24T07:44:11Z</time>
      </trkpt>
      <trkpt lat="42.7031540" lon="-0.0778190">
        <ele>2054.8</ele>
        <time>2022-07-24T07:44:12Z</time>
      </trkpt>
      <trkpt lat="42.7031510" lon="-0.0778370">
        <ele>2054.8</ele>
        <time>2022-07-24T07:44:13Z</time>
      </trkpt>
      <trkpt lat="42.7031490" lon="-0.0778580">
        <ele>2054.6</ele>
        <time>2022-07-24T07:44:14Z</time>
      </trkpt>
      <trkpt lat="42.7031430" lon="-0.0778800">
        <ele>2054.8</ele>
        <time>2022-07-24T07:44:15Z</time>
      </trkpt>
      <trkpt lat="42.7031320" lon="-0.0779890">
        <ele>2054.2</ele>
        <time>2022-07-24T07:44:20Z</time>
      </trkpt>
      <trkpt lat="42.7031340" lon="-0.0780040">
        <ele>2054.0</ele>
        <time>2022-07-24T07:44:21Z</time>
      </trkpt>
      <trkpt lat="42.7031330" lon="-0.0780170">
        <ele>2054.0</ele>
        <time>2022-07-24T07:44:22Z</time>
      </trkpt>
      <trkpt lat="42.7031300" lon="-0.0780360">
        <ele>2053.8</ele>
        <time>2022-07-24T07:44:23Z</time>
      </trkpt>
      <trkpt lat="42.7031320" lon="-0.0780550">
        <ele>2053.6</ele>
        <time>2022-07-24T07:44:24Z</time>
      </trkpt>
      <trkpt lat="42.7031370" lon="-0.0780910">
        <ele>2053.2</ele>
        <time>2022-07-24T07:44:26Z</time>
      </trkpt>
      <trkpt lat="42.7031430" lon="-0.0781100">
        <ele>2053.0</ele>
        <time>2022-07-24T07:44:27Z</time>
      </trkpt>
      <trkpt lat="42.7031410" lon="-0.0781350">
        <ele>2052.8</ele>
        <time>2022-07-24T07:44:28Z</time>
      </trkpt>
      <trkpt lat="42.7031270" lon="-0.0781750">
        <ele>2052.6</ele>
        <time>2022-07-24T07:44:30Z</time>
      </trkpt>
      <trkpt lat="42.7031220" lon="-0.0781890">
        <ele>2052.4</ele>
        <time>2022-07-24T07:44:31Z</time>
      </trkpt>
      <trkpt lat="42.7031270" lon="-0.0782100">
        <ele>2052.0</ele>
        <time>2022-07-24T07:44:33Z</time>
      </trkpt>
      <trkpt lat="42.7031340" lon="-0.0782190">
        <ele>2051.8</ele>
        <time>2022-07-24T07:44:34Z</time>
      </trkpt>
      <trkpt lat="42.7031080" lon="-0.0783140">
        <ele>2051.2</ele>
        <time>2022-07-24T07:44:39Z</time>
      </trkpt>
      <trkpt lat="42.7031100" lon="-0.0783580">
        <ele>2050.6</ele>
        <time>2022-07-24T07:44:43Z</time>
      </trkpt>
      <trkpt lat="42.7031170" lon="-0.0783690">
        <ele>2050.2</ele>
        <time>2022-07-24T07:44:44Z</time>
      </trkpt>
      <trkpt lat="42.7031260" lon="-0.0783800">
        <ele>2050.2</ele>
        <time>2022-07-24T07:44:45Z</time>
      </trkpt>
      <trkpt lat="42.7031140" lon="-0.0784200">
        <ele>2050.0</ele>
        <time>2022-07-24T07:44:47Z</time>
      </trkpt>
      <trkpt lat="42.7030730" lon="-0.0784860">
        <ele>2049.6</ele>
        <time>2022-07-24T07:44:50Z</time>
      </trkpt>
      <trkpt lat="42.7030630" lon="-0.0785060">
        <ele>2049.6</ele>
        <time>2022-07-24T07:44:51Z</time>
      </trkpt>
      <trkpt lat="42.7030520" lon="-0.0785280">
        <ele>2049.4</ele>
        <time>2022-07-24T07:44:52Z</time>
      </trkpt>
      <trkpt lat="42.7030330" lon="-0.0785670">
        <ele>2049.0</ele>
        <time>2022-07-24T07:44:54Z</time>
      </trkpt>
      <trkpt lat="42.7030180" lon="-0.0786060">
        <ele>2048.8</ele>
        <time>2022-07-24T07:44:56Z</time>
      </trkpt>
      <trkpt lat="42.7030110" lon="-0.0786210">
        <ele>2048.8</ele>
        <time>2022-07-24T07:44:57Z</time>
      </trkpt>
      <trkpt lat="42.7029990" lon="-0.0786530">
        <ele>2048.4</ele>
        <time>2022-07-24T07:44:59Z</time>
      </trkpt>
      <trkpt lat="42.7029680" lon="-0.0787800">
        <ele>2047.2</ele>
        <time>2022-07-24T07:45:06Z</time>
      </trkpt>
      <trkpt lat="42.7029580" lon="-0.0787990">
        <ele>2047.2</ele>
        <time>2022-07-24T07:45:07Z</time>
      </trkpt>
      <trkpt lat="42.7029410" lon="-0.0788080">
        <ele>2047.0</ele>
        <time>2022-07-24T07:45:08Z</time>
      </trkpt>
      <trkpt lat="42.7028990" lon="-0.0788560">
        <ele>2046.6</ele>
        <time>2022-07-24T07:45:11Z</time>
      </trkpt>
      <trkpt lat="42.7028860" lon="-0.0788700">
        <ele>2046.6</ele>
        <time>2022-07-24T07:45:12Z</time>
      </trkpt>
      <trkpt lat="42.7028610" lon="-0.0788980">
        <ele>2046.6</ele>
        <time>2022-07-24T07:45:14Z</time>
      </trkpt>
      <trkpt lat="42.7028240" lon="-0.0789450">
        <ele>2046.4</ele>
        <time>2022-07-24T07:45:17Z</time>
      </trkpt>
      <trkpt lat="42.7028180" lon="-0.0789540">
        <ele>2046.2</ele>
        <time>2022-07-24T07:45:18Z</time>
      </trkpt>
      <trkpt lat="42.7028160" lon="-0.0789700">
        <ele>2045.6</ele>
        <time>2022-07-24T07:45:20Z</time>
      </trkpt>
      <trkpt lat="42.7027800" lon="-0.0790400">
        <ele>2044.8</ele>
        <time>2022-07-24T07:45:25Z</time>
      </trkpt>
      <trkpt lat="42.7027780" lon="-0.0790480">
        <ele>2045.0</ele>
        <time>2022-07-24T07:45:26Z</time>
      </trkpt>
      <trkpt lat="42.7027650" lon="-0.0790710">
        <ele>2044.6</ele>
        <time>2022-07-24T07:45:28Z</time>
      </trkpt>
      <trkpt lat="42.7027380" lon="-0.0791400">
        <ele>2043.6</ele>
        <time>2022-07-24T07:45:32Z</time>
      </trkpt>
      <trkpt lat="42.7026760" lon="-0.0791790">
        <ele>2043.4</ele>
        <time>2022-07-24T07:45:34Z</time>
      </trkpt>
      <trkpt lat="42.7026180" lon="-0.0792220">
        <ele>2043.0</ele>
        <time>2022-07-24T07:45:36Z</time>
      </trkpt>
      <trkpt lat="42.7025970" lon="-0.0792390">
        <ele>2043.0</ele>
        <time>2022-07-24T07:45:37Z</time>
      </trkpt>
      <trkpt lat="42.7025810" lon="-0.0792610">
        <ele>2042.8</ele>
        <time>2022-07-24T07:45:38Z</time>
      </trkpt>
      <trkpt lat="42.7025380" lon="-0.0793020">
        <ele>2042.6</ele>
        <time>2022-07-24T07:45:40Z</time>
      </trkpt>
      <trkpt lat="42.7025060" lon="-0.0793420">
        <ele>2042.0</ele>
        <time>2022-07-24T07:45:42Z</time>
      </trkpt>
      <trkpt lat="42.7024810" lon="-0.0793920">
        <ele>2041.4</ele>
        <time>2022-07-24T07:45:45Z</time>
      </trkpt>
      <trkpt lat="42.7024760" lon="-0.0794060">
        <ele>2041.0</ele>
        <time>2022-07-24T07:45:46Z</time>
      </trkpt>
      <trkpt lat="42.7024500" lon="-0.0794430">
        <ele>2041.0</ele>
        <time>2022-07-24T07:45:48Z</time>
      </trkpt>
      <trkpt lat="42.7024280" lon="-0.0794920">
        <ele>2040.4</ele>
        <time>2022-07-24T07:45:51Z</time>
      </trkpt>
      <trkpt lat="42.7023990" lon="-0.0795330">
        <ele>2039.6</ele>
        <time>2022-07-24T07:45:54Z</time>
      </trkpt>
      <trkpt lat="42.7023850" lon="-0.0795470">
        <ele>2039.6</ele>
        <time>2022-07-24T07:45:55Z</time>
      </trkpt>
      <trkpt lat="42.7023540" lon="-0.0795900">
        <ele>2039.2</ele>
        <time>2022-07-24T07:45:58Z</time>
      </trkpt>
      <trkpt lat="42.7023470" lon="-0.0796080">
        <ele>2039.2</ele>
        <time>2022-07-24T07:45:59Z</time>
      </trkpt>
      <trkpt lat="42.7023260" lon="-0.0796660">
        <ele>2038.8</ele>
        <time>2022-07-24T07:46:02Z</time>
      </trkpt>
      <trkpt lat="42.7022920" lon="-0.0797750">
        <ele>2038.0</ele>
        <time>2022-07-24T07:46:08Z</time>
      </trkpt>
      <trkpt lat="42.7022790" lon="-0.0797940">
        <ele>2038.0</ele>
        <time>2022-07-24T07:46:09Z</time>
      </trkpt>
      <trkpt lat="42.7022640" lon="-0.0798310">
        <ele>2037.8</ele>
        <time>2022-07-24T07:46:11Z</time>
      </trkpt>
      <trkpt lat="42.7022380" lon="-0.0799690">
        <ele>2037.0</ele>
        <time>2022-07-24T07:46:19Z</time>
      </trkpt>
      <trkpt lat="42.7022480" lon="-0.0800290">
        <ele>2036.8</ele>
        <time>2022-07-24T07:46:23Z</time>
      </trkpt>
      <trkpt lat="42.7022420" lon="-0.0800500">
        <ele>2036.8</ele>
        <time>2022-07-24T07:46:24Z</time>
      </trkpt>
      <trkpt lat="42.7022260" lon="-0.0800870">
        <ele>2036.4</ele>
        <time>2022-07-24T07:46:26Z</time>
      </trkpt>
      <trkpt lat="42.7022270" lon="-0.0801080">
        <ele>2036.4</ele>
        <time>2022-07-24T07:46:27Z</time>
      </trkpt>
      <trkpt lat="42.7021970" lon="-0.0801610">
        <ele>2036.4</ele>
        <time>2022-07-24T07:46:29Z</time>
      </trkpt>
      <trkpt lat="42.7021770" lon="-0.0801860">
        <ele>2036.4</ele>
        <time>2022-07-24T07:46:30Z</time>
      </trkpt>
      <trkpt lat="42.7021660" lon="-0.0802100">
        <ele>2036.2</ele>
        <time>2022-07-24T07:46:31Z</time>
      </trkpt>
      <trkpt lat="42.7021700" lon="-0.0802290">
        <ele>2036.2</ele>
        <time>2022-07-24T07:46:32Z</time>
      </trkpt>
      <trkpt lat="42.7021710" lon="-0.0802460">
        <ele>2036.0</ele>
        <time>2022-07-24T07:46:33Z</time>
      </trkpt>
      <trkpt lat="42.7021560" lon="-0.0802680">
        <ele>2035.8</ele>
        <time>2022-07-24T07:46:34Z</time>
      </trkpt>
      <trkpt lat="42.7021490" lon="-0.0802880">
        <ele>2036.0</ele>
        <time>2022-07-24T07:46:35Z</time>
      </trkpt>
      <trkpt lat="42.7021500" lon="-0.0803210">
        <ele>2035.8</ele>
        <time>2022-07-24T07:46:37Z</time>
      </trkpt>
      <trkpt lat="42.7021330" lon="-0.0803730">
        <ele>2035.6</ele>
        <time>2022-07-24T07:46:40Z</time>
      </trkpt>
      <trkpt lat="42.7021230" lon="-0.0803940">
        <ele>2035.4</ele>
        <time>2022-07-24T07:46:41Z</time>
      </trkpt>
      <trkpt lat="42.7021240" lon="-0.0804120">
        <ele>2035.4</ele>
        <time>2022-07-24T07:46:42Z</time>
      </trkpt>
      <trkpt lat="42.7020930" lon="-0.0805500">
        <ele>2034.8</ele>
        <time>2022-07-24T07:46:50Z</time>
      </trkpt>
      <trkpt lat="42.7020890" lon="-0.0805840">
        <ele>2034.6</ele>
        <time>2022-07-24T07:46:52Z</time>
      </trkpt>
      <trkpt lat="42.7020660" lon="-0.0806640">
        <ele>2034.6</ele>
        <time>2022-07-24T07:46:56Z</time>
      </trkpt>
      <trkpt lat="42.7020580" lon="-0.0806830">
        <ele>2034.4</ele>
        <time>2022-07-24T07:46:57Z</time>
      </trkpt>
      <trkpt lat="42.7020510" lon="-0.0807020">
        <ele>2034.4</ele>
        <time>2022-07-24T07:46:58Z</time>
      </trkpt>
      <trkpt lat="42.7020500" lon="-0.0807190">
        <ele>2034.2</ele>
        <time>2022-07-24T07:46:59Z</time>
      </trkpt>
      <trkpt lat="42.7020340" lon="-0.0808690">
        <ele>2034.0</ele>
        <time>2022-07-24T07:47:06Z</time>
      </trkpt>
      <trkpt lat="42.7020320" lon="-0.0809190">
        <ele>2034.0</ele>
        <time>2022-07-24T07:47:08Z</time>
      </trkpt>
      <trkpt lat="42.7020340" lon="-0.0811060">
        <ele>2033.2</ele>
        <time>2022-07-24T07:47:16Z</time>
      </trkpt>
      <trkpt lat="42.7020230" lon="-0.0811730">
        <ele>2033.0</ele>
        <time>2022-07-24T07:47:18Z</time>
      </trkpt>
      <trkpt lat="42.7019820" lon="-0.0812430">
        <ele>2032.8</ele>
        <time>2022-07-24T07:47:21Z</time>
      </trkpt>
      <trkpt lat="42.7019710" lon="-0.0812630">
        <ele>2032.8</ele>
        <time>2022-07-24T07:47:22Z</time>
      </trkpt>
      <trkpt lat="42.7019440" lon="-0.0813010">
        <ele>2032.8</ele>
        <time>2022-07-24T07:47:24Z</time>
      </trkpt>
      <trkpt lat="42.7019360" lon="-0.0813280">
        <ele>2032.8</ele>
        <time>2022-07-24T07:47:25Z</time>
      </trkpt>
      <trkpt lat="42.7019280" lon="-0.0813640">
        <ele>2032.6</ele>
        <time>2022-07-24T07:47:27Z</time>
      </trkpt>
      <trkpt lat="42.7019240" lon="-0.0814950">
        <ele>2032.4</ele>
        <time>2022-07-24T07:47:33Z</time>
      </trkpt>
      <trkpt lat="42.7019590" lon="-0.0816210">
        <ele>2032.0</ele>
        <time>2022-07-24T07:47:38Z</time>
      </trkpt>
      <trkpt lat="42.7019700" lon="-0.0816380">
        <ele>2032.0</ele>
        <time>2022-07-24T07:47:39Z</time>
      </trkpt>
      <trkpt lat="42.7019810" lon="-0.0816530">
        <ele>2032.0</ele>
        <time>2022-07-24T07:47:40Z</time>
      </trkpt>
      <trkpt lat="42.7019800" lon="-0.0817910">
        <ele>2031.8</ele>
        <time>2022-07-24T07:47:47Z</time>
      </trkpt>
      <trkpt lat="42.7019910" lon="-0.0818430">
        <ele>2031.8</ele>
        <time>2022-07-24T07:47:50Z</time>
      </trkpt>
      <trkpt lat="42.7019990" lon="-0.0818630">
        <ele>2031.6</ele>
        <time>2022-07-24T07:47:51Z</time>
      </trkpt>
      <trkpt lat="42.7020060" lon="-0.0819480">
        <ele>2031.4</ele>
        <time>2022-07-24T07:47:56Z</time>
      </trkpt>
      <trkpt lat="42.7020130" lon="-0.0819640">
        <ele>2031.4</ele>
        <time>2022-07-24T07:47:57Z</time>
      </trkpt>
      <trkpt lat="42.7020430" lon="-0.0820350">
        <ele>2031.2</ele>
        <time>2022-07-24T07:48:01Z</time>
      </trkpt>
      <trkpt lat="42.7020660" lon="-0.0821090">
        <ele>2031.4</ele>
        <time>2022-07-24T07:48:05Z</time>
      </trkpt>
      <trkpt lat="42.7020710" lon="-0.0821480">
        <ele>2031.2</ele>
        <time>2022-07-24T07:48:07Z</time>
      </trkpt>
      <trkpt lat="42.7020720" lon="-0.0822780">
        <ele>2031.2</ele>
        <time>2022-07-24T07:48:13Z</time>
      </trkpt>
      <trkpt lat="42.7020110" lon="-0.0824090">
        <ele>2031.2</ele>
        <time>2022-07-24T07:48:20Z</time>
      </trkpt>
      <trkpt lat="42.7020030" lon="-0.0824970">
        <ele>2031.4</ele>
        <time>2022-07-24T07:48:25Z</time>
      </trkpt>
      <trkpt lat="42.7020140" lon="-0.0825280">
        <ele>2031.4</ele>
        <time>2022-07-24T07:48:27Z</time>
      </trkpt>
      <trkpt lat="42.7020250" lon="-0.0825570">
        <ele>2031.4</ele>
        <time>2022-07-24T07:48:29Z</time>
      </trkpt>
      <trkpt lat="42.7020350" lon="-0.0825700">
        <ele>2031.6</ele>
        <time>2022-07-24T07:48:30Z</time>
      </trkpt>
      <trkpt lat="42.7020360" lon="-0.0825950">
        <ele>2031.4</ele>
        <time>2022-07-24T07:48:32Z</time>
      </trkpt>
      <trkpt lat="42.7020310" lon="-0.0826060">
        <ele>2031.4</ele>
        <time>2022-07-24T07:48:33Z</time>
      </trkpt>
      <trkpt lat="42.7020260" lon="-0.0826260">
        <ele>2031.2</ele>
        <time>2022-07-24T07:48:35Z</time>
      </trkpt>
      <trkpt lat="42.7020140" lon="-0.0826420">
        <ele>2031.0</ele>
        <time>2022-07-24T07:48:36Z</time>
      </trkpt>
      <trkpt lat="42.7020020" lon="-0.0826850">
        <ele>2030.8</ele>
        <time>2022-07-24T07:48:39Z</time>
      </trkpt>
      <trkpt lat="42.7020010" lon="-0.0827180">
        <ele>2030.6</ele>
        <time>2022-07-24T07:48:41Z</time>
      </trkpt>
      <trkpt lat="42.7019930" lon="-0.0827630">
        <ele>2030.4</ele>
        <time>2022-07-24T07:48:44Z</time>
      </trkpt>
      <trkpt lat="42.7019940" lon="-0.0827790">
        <ele>2030.4</ele>
        <time>2022-07-24T07:48:45Z</time>
      </trkpt>
      <trkpt lat="42.7019950" lon="-0.0827950">
        <ele>2030.4</ele>
        <time>2022-07-24T07:48:46Z</time>
      </trkpt>
      <trkpt lat="42.7019920" lon="-0.0828160">
        <ele>2029.8</ele>
        <time>2022-07-24T07:48:48Z</time>
      </trkpt>
      <trkpt lat="42.7019900" lon="-0.0828130">
        <ele>2029.8</ele>
        <time>2022-07-24T07:48:49Z</time>
      </trkpt>
      <trkpt lat="42.7019780" lon="-0.0828070">
        <ele>2029.2</ele>
        <time>2022-07-24T07:48:51Z</time>
      </trkpt>
      <trkpt lat="42.7019790" lon="-0.0828130">
        <ele>2028.8</ele>
        <time>2022-07-24T07:48:53Z</time>
      </trkpt>
      <trkpt lat="42.7019820" lon="-0.0828160">
        <ele>2028.8</ele>
        <time>2022-07-24T07:48:54Z</time>
      </trkpt>
      <trkpt lat="42.7019830" lon="-0.0828190">
        <ele>2028.6</ele>
        <time>2022-07-24T07:48:55Z</time>
      </trkpt>
      <trkpt lat="42.7019790" lon="-0.0828240">
        <ele>2028.4</ele>
        <time>2022-07-24T07:48:57Z</time>
      </trkpt>
      <trkpt lat="42.7019770" lon="-0.0828300">
        <ele>2028.4</ele>
        <time>2022-07-24T07:48:58Z</time>
      </trkpt>
      <trkpt lat="42.7019950" lon="-0.0828440">
        <ele>2028.2</ele>
        <time>2022-07-24T07:49:02Z</time>
      </trkpt>
      <trkpt lat="42.7020070" lon="-0.0828460">
        <ele>2028.0</ele>
        <time>2022-07-24T07:49:03Z</time>
      </trkpt>
      <trkpt lat="42.7020140" lon="-0.0828460">
        <ele>2028.0</ele>
        <time>2022-07-24T07:49:04Z</time>
      </trkpt>
      <trkpt lat="42.7020230" lon="-0.0828450">
        <ele>2027.8</ele>
        <time>2022-07-24T07:49:07Z</time>
      </trkpt>
      <trkpt lat="42.7020210" lon="-0.0828450">
        <ele>2027.8</ele>
        <time>2022-07-24T07:49:08Z</time>
      </trkpt>
      <trkpt lat="42.7020150" lon="-0.0828580">
        <ele>2027.6</ele>
        <time>2022-07-24T07:49:11Z</time>
      </trkpt>
      <trkpt lat="42.7019980" lon="-0.0828950">
        <ele>2027.4</ele>
        <time>2022-07-24T07:49:14Z</time>
      </trkpt>
      <trkpt lat="42.7019890" lon="-0.0829310">
        <ele>2027.2</ele>
        <time>2022-07-24T07:49:16Z</time>
      </trkpt>
      <trkpt lat="42.7019810" lon="-0.0829470">
        <ele>2027.0</ele>
        <time>2022-07-24T07:49:17Z</time>
      </trkpt>
      <trkpt lat="42.7019540" lon="-0.0830060">
        <ele>2026.4</ele>
        <time>2022-07-24T07:49:21Z</time>
      </trkpt>
      <trkpt lat="42.7019560" lon="-0.0830270">
        <ele>2026.2</ele>
        <time>2022-07-24T07:49:22Z</time>
      </trkpt>
      <trkpt lat="42.7019500" lon="-0.0830500">
        <ele>2026.0</ele>
        <time>2022-07-24T07:49:23Z</time>
      </trkpt>
      <trkpt lat="42.7019430" lon="-0.0830760">
        <ele>2025.8</ele>
        <time>2022-07-24T07:49:24Z</time>
      </trkpt>
      <trkpt lat="42.7019120" lon="-0.0832320">
        <ele>2024.4</ele>
        <time>2022-07-24T07:49:31Z</time>
      </trkpt>
      <trkpt lat="42.7018800" lon="-0.0832550">
        <ele>2023.2</ele>
        <time>2022-07-24T07:49:33Z</time>
      </trkpt>
      <trkpt lat="42.7018440" lon="-0.0832900">
        <ele>2022.8</ele>
        <time>2022-07-24T07:49:35Z</time>
      </trkpt>
      <trkpt lat="42.7018360" lon="-0.0833160">
        <ele>2022.8</ele>
        <time>2022-07-24T07:49:36Z</time>
      </trkpt>
      <trkpt lat="42.7018300" lon="-0.0833370">
        <ele>2022.6</ele>
        <time>2022-07-24T07:49:37Z</time>
      </trkpt>
      <trkpt lat="42.7017940" lon="-0.0833940">
        <ele>2022.4</ele>
        <time>2022-07-24T07:49:39Z</time>
      </trkpt>
      <trkpt lat="42.7017370" lon="-0.0834720">
        <ele>2022.0</ele>
        <time>2022-07-24T07:49:43Z</time>
      </trkpt>
      <trkpt lat="42.7017360" lon="-0.0835140">
        <ele>2021.4</ele>
        <time>2022-07-24T07:49:45Z</time>
      </trkpt>
      <trkpt lat="42.7017490" lon="-0.0835780">
        <ele>2021.4</ele>
        <time>2022-07-24T07:49:48Z</time>
      </trkpt>
      <trkpt lat="42.7017530" lon="-0.0835980">
        <ele>2021.0</ele>
        <time>2022-07-24T07:49:49Z</time>
      </trkpt>
      <trkpt lat="42.7017600" lon="-0.0836340">
        <ele>2020.8</ele>
        <time>2022-07-24T07:49:51Z</time>
      </trkpt>
      <trkpt lat="42.7017710" lon="-0.0836640">
        <ele>2020.6</ele>
        <time>2022-07-24T07:49:54Z</time>
      </trkpt>
      <trkpt lat="42.7017720" lon="-0.0836710">
        <ele>2020.4</ele>
        <time>2022-07-24T07:49:55Z</time>
      </trkpt>
      <trkpt lat="42.7017710" lon="-0.0836790">
        <ele>2020.4</ele>
        <time>2022-07-24T07:49:56Z</time>
      </trkpt>
      <trkpt lat="42.7017680" lon="-0.0836860">
        <ele>2020.4</ele>
        <time>2022-07-24T07:49:57Z</time>
      </trkpt>
      <trkpt lat="42.7017640" lon="-0.0836930">
        <ele>2020.0</ele>
        <time>2022-07-24T07:49:59Z</time>
      </trkpt>
      <trkpt lat="42.7017750" lon="-0.0836830">
        <ele>2019.8</ele>
        <time>2022-07-24T07:50:00Z</time>
      </trkpt>
      <trkpt lat="42.7017760" lon="-0.0836690">
        <ele>2019.6</ele>
        <time>2022-07-24T07:50:01Z</time>
      </trkpt>
      <trkpt lat="42.7017740" lon="-0.0836550">
        <ele>2019.6</ele>
        <time>2022-07-24T07:50:02Z</time>
      </trkpt>
      <trkpt lat="42.7017720" lon="-0.0836270">
        <ele>2019.6</ele>
        <time>2022-07-24T07:50:04Z</time>
      </trkpt>
      <trkpt lat="42.7017690" lon="-0.0836150">
        <ele>2019.2</ele>
        <time>2022-07-24T07:50:05Z</time>
      </trkpt>
      <trkpt lat="42.7017680" lon="-0.0836170">
        <ele>2018.6</ele>
        <time>2022-07-24T07:50:07Z</time>
      </trkpt>
      <trkpt lat="42.7017670" lon="-0.0836240">
        <ele>2018.6</ele>
        <time>2022-07-24T07:50:08Z</time>
      </trkpt>
      <trkpt lat="42.7017620" lon="-0.0836400">
        <ele>2018.0</ele>
        <time>2022-07-24T07:50:14Z</time>
      </trkpt>
      <trkpt lat="42.7017610" lon="-0.0836470">
        <ele>2017.8</ele>
        <time>2022-07-24T07:50:16Z</time>
      </trkpt>
      <trkpt lat="42.7017370" lon="-0.0836480">
        <ele>2017.6</ele>
        <time>2022-07-24T07:50:21Z</time>
      </trkpt>
      <trkpt lat="42.7017340" lon="-0.0836400">
        <ele>2017.0</ele>
        <time>2022-07-24T07:50:29Z</time>
      </trkpt>
      <trkpt lat="42.7018020" lon="-0.0836570">
        <ele>2016.6</ele>
        <time>2022-07-24T07:50:39Z</time>
      </trkpt>
      <trkpt lat="42.7018380" lon="-0.0836600">
        <ele>2016.6</ele>
        <time>2022-07-24T07:50:50Z</time>
      </trkpt>
      <trkpt lat="42.7018440" lon="-0.0836590">
        <ele>2016.6</ele>
        <time>2022-07-24T07:50:51Z</time>
      </trkpt>
      <trkpt lat="42.7018240" lon="-0.0836930">
        <ele>2016.6</ele>
        <time>2022-07-24T07:51:00Z</time>
      </trkpt>
      <trkpt lat="42.7018360" lon="-0.0836900">
        <ele>2016.6</ele>
        <time>2022-07-24T07:51:07Z</time>
      </trkpt>
      <trkpt lat="42.7018300" lon="-0.0836910">
        <ele>2016.6</ele>
        <time>2022-07-24T07:51:10Z</time>
      </trkpt>
      <trkpt lat="42.7018160" lon="-0.0836940">
        <ele>2017.0</ele>
        <time>2022-07-24T07:51:17Z</time>
      </trkpt>
      <trkpt lat="42.7018690" lon="-0.0836440">
        <ele>2016.8</ele>
        <time>2022-07-24T07:51:28Z</time>
      </trkpt>
      <trkpt lat="42.7020060" lon="-0.0835420">
        <ele>2016.6</ele>
        <time>2022-07-24T07:51:39Z</time>
      </trkpt>
      <trkpt lat="42.7021590" lon="-0.0834320">
        <ele>2016.6</ele>
        <time>2022-07-24T07:51:49Z</time>
      </trkpt>
      <trkpt lat="42.7021420" lon="-0.0834640">
        <ele>2016.8</ele>
        <time>2022-07-24T07:51:56Z</time>
      </trkpt>
      <trkpt lat="42.7020170" lon="-0.0835460">
        <ele>2016.8</ele>
        <time>2022-07-24T07:52:05Z</time>
      </trkpt>
      <trkpt lat="42.7019010" lon="-0.0836180">
        <ele>2016.6</ele>
        <time>2022-07-24T07:52:15Z</time>
      </trkpt>
      <trkpt lat="42.7019280" lon="-0.0836010">
        <ele>2016.8</ele>
        <time>2022-07-24T07:52:24Z</time>
      </trkpt>
      <trkpt lat="42.7019260" lon="-0.0836290">
        <ele>2016.6</ele>
        <time>2022-07-24T07:52:35Z</time>
      </trkpt>
      <trkpt lat="42.7018910" lon="-0.0836580">
        <ele>2016.8</ele>
        <time>2022-07-24T07:52:45Z</time>
      </trkpt>
      <trkpt lat="42.7019000" lon="-0.0836810">
        <ele>2016.8</ele>
        <time>2022-07-24T07:52:53Z</time>
      </trkpt>
      <trkpt lat="42.7018580" lon="-0.0836770">
        <ele>2017.0</ele>
        <time>2022-07-24T07:53:03Z</time>
      </trkpt>
      <trkpt lat="42.7018580" lon="-0.0836730">
        <ele>2017.0</ele>
        <time>2022-07-24T07:53:12Z</time>
      </trkpt>
      <trkpt lat="42.7018700" lon="-0.0836480">
        <ele>2016.8</ele>
        <time>2022-07-24T07:53:22Z</time>
      </trkpt>
      <trkpt lat="42.7018780" lon="-0.0836200">
        <ele>2016.8</ele>
        <time>2022-07-24T07:53:33Z</time>
      </trkpt>
      <trkpt lat="42.7018810" lon="-0.0836190">
        <ele>2017.0</ele>
        <time>2022-07-24T07:53:51Z</time>
      </trkpt>
      <trkpt lat="42.7019460" lon="-0.0836160">
        <ele>2017.0</ele>
        <time>2022-07-24T07:54:14Z</time>
      </trkpt>
      <trkpt lat="42.7020280" lon="-0.0836190">
        <ele>2017.0</ele>
        <time>2022-07-24T07:54:31Z</time>
      </trkpt>
      <trkpt lat="42.7020350" lon="-0.0836270">
        <ele>2016.8</ele>
        <time>2022-07-24T07:54:39Z</time>
      </trkpt>
      <trkpt lat="42.7020420" lon="-0.0836320">
        <ele>2016.6</ele>
        <time>2022-07-24T07:54:48Z</time>
      </trkpt>
      <trkpt lat="42.7019580" lon="-0.0836400">
        <ele>2016.8</ele>
        <time>2022-07-24T07:55:03Z</time>
      </trkpt>
      <trkpt lat="42.7018880" lon="-0.0836430">
        <ele>2016.6</ele>
        <time>2022-07-24T07:55:20Z</time>
      </trkpt>
      <trkpt lat="42.7018700" lon="-0.0836380">
        <ele>2016.6</ele>
        <time>2022-07-24T07:55:37Z</time>
      </trkpt>
      <trkpt lat="42.7018540" lon="-0.0836350">
        <ele>2016.8</ele>
        <time>2022-07-24T07:55:55Z</time>
      </trkpt>
      <trkpt lat="42.7018490" lon="-0.0836310">
        <ele>2016.6</ele>
        <time>2022-07-24T07:56:27Z</time>
      </trkpt>
      <trkpt lat="42.7018160" lon="-0.0836460">
        <ele>2016.8</ele>
        <time>2022-07-24T07:56:44Z</time>
      </trkpt>
      <trkpt lat="42.7018030" lon="-0.0836460">
        <ele>2016.8</ele>
        <time>2022-07-24T07:56:58Z</time>
      </trkpt>
      <trkpt lat="42.7019130" lon="-0.0836030">
        <ele>2016.8</ele>
        <time>2022-07-24T07:57:11Z</time>
      </trkpt>
      <trkpt lat="42.7019010" lon="-0.0836090">
        <ele>2016.8</ele>
        <time>2022-07-24T07:57:28Z</time>
      </trkpt>
      <trkpt lat="42.7018970" lon="-0.0836040">
        <ele>2016.8</ele>
        <time>2022-07-24T07:57:35Z</time>
      </trkpt>
      <trkpt lat="42.7019100" lon="-0.0835890">
        <ele>2016.8</ele>
        <time>2022-07-24T07:57:52Z</time>
      </trkpt>
      <trkpt lat="42.7019050" lon="-0.0835770">
        <ele>2017.0</ele>
        <time>2022-07-24T07:58:14Z</time>
      </trkpt>
      <trkpt lat="42.7019020" lon="-0.0835710">
        <ele>2017.0</ele>
        <time>2022-07-24T07:58:46Z</time>
      </trkpt>
      <trkpt lat="42.7019210" lon="-0.0835640">
        <ele>2016.8</ele>
        <time>2022-07-24T07:59:12Z</time>
      </trkpt>
      <trkpt lat="42.7019150" lon="-0.0835710">
        <ele>2017.0</ele>
        <time>2022-07-24T07:59:22Z</time>
      </trkpt>
      <trkpt lat="42.7019150" lon="-0.0835700">
        <ele>2017.0</ele>
        <time>2022-07-24T07:59:23Z</time>
      </trkpt>
      <trkpt lat="42.7019140" lon="-0.0835680">
        <ele>2017.0</ele>
        <time>2022-07-24T07:59:24Z</time>
      </trkpt>
      <trkpt lat="42.7019120" lon="-0.0835670">
        <ele>2017.2</ele>
        <time>2022-07-24T07:59:26Z</time>
      </trkpt>
      <trkpt lat="42.7019070" lon="-0.0835740">
        <ele>2017.2</ele>
        <time>2022-07-24T07:59:29Z</time>
      </trkpt>
      <trkpt lat="42.7019070" lon="-0.0835820">
        <ele>2017.2</ele>
        <time>2022-07-24T07:59:33Z</time>
      </trkpt>
      <trkpt lat="42.7019030" lon="-0.0835870">
        <ele>2017.4</ele>
        <time>2022-07-24T07:59:34Z</time>
      </trkpt>
      <trkpt lat="42.7019040" lon="-0.0835870">
        <ele>2017.2</ele>
        <time>2022-07-24T07:59:35Z</time>
      </trkpt>
      <trkpt lat="42.7019020" lon="-0.0835950">
        <ele>2017.2</ele>
        <time>2022-07-24T07:59:36Z</time>
      </trkpt>
      <trkpt lat="42.7019030" lon="-0.0835940">
        <ele>2017.2</ele>
        <time>2022-07-24T07:59:37Z</time>
      </trkpt>
      <trkpt lat="42.7019010" lon="-0.0835910">
        <ele>2017.6</ele>
        <time>2022-07-24T07:59:39Z</time>
      </trkpt>
      <trkpt lat="42.7018870" lon="-0.0836020">
        <ele>2017.6</ele>
        <time>2022-07-24T07:59:41Z</time>
      </trkpt>
      <trkpt lat="42.7018860" lon="-0.0835940">
        <ele>2017.6</ele>
        <time>2022-07-24T07:59:51Z</time>
      </trkpt>
      <trkpt lat="42.7018860" lon="-0.0835940">
        <ele>2017.6</ele>
        <time>2022-07-24T07:59:52Z</time>
      </trkpt>
      <trkpt lat="42.7018870" lon="-0.0835960">
        <ele>2017.8</ele>
        <time>2022-07-24T07:59:53Z</time>
      </trkpt>
      <trkpt lat="42.7018880" lon="-0.0836030">
        <ele>2017.8</ele>
        <time>2022-07-24T07:59:54Z</time>
      </trkpt>
      <trkpt lat="42.7018760" lon="-0.0836340">
        <ele>2017.8</ele>
        <time>2022-07-24T07:59:57Z</time>
      </trkpt>
      <trkpt lat="42.7018640" lon="-0.0836510">
        <ele>2017.8</ele>
        <time>2022-07-24T07:59:58Z</time>
      </trkpt>
      <trkpt lat="42.7018550" lon="-0.0836640">
        <ele>2018.0</ele>
        <time>2022-07-24T07:59:59Z</time>
      </trkpt>
      <trkpt lat="42.7018490" lon="-0.0836800">
        <ele>2018.0</ele>
        <time>2022-07-24T08:00:00Z</time>
      </trkpt>
      <trkpt lat="42.7018390" lon="-0.0836970">
        <ele>2017.8</ele>
        <time>2022-07-24T08:00:01Z</time>
      </trkpt>
      <trkpt lat="42.7018330" lon="-0.0837120">
        <ele>2018.0</ele>
        <time>2022-07-24T08:00:02Z</time>
      </trkpt>
      <trkpt lat="42.7018190" lon="-0.0837810">
        <ele>2017.8</ele>
        <time>2022-07-24T08:00:06Z</time>
      </trkpt>
      <trkpt lat="42.7018180" lon="-0.0838290">
        <ele>2017.6</ele>
        <time>2022-07-24T08:00:09Z</time>
      </trkpt>
      <trkpt lat="42.7018180" lon="-0.0838490">
        <ele>2017.4</ele>
        <time>2022-07-24T08:00:10Z</time>
      </trkpt>
      <trkpt lat="42.7018200" lon="-0.0838680">
        <ele>2017.4</ele>
        <time>2022-07-24T08:00:11Z</time>
      </trkpt>
      <trkpt lat="42.7018180" lon="-0.0839050">
        <ele>2017.4</ele>
        <time>2022-07-24T08:00:13Z</time>
      </trkpt>
      <trkpt lat="42.7018090" lon="-0.0839300">
        <ele>2017.4</ele>
        <time>2022-07-24T08:00:14Z</time>
      </trkpt>
      <trkpt lat="42.7017970" lon="-0.0840110">
        <ele>2016.8</ele>
        <time>2022-07-24T08:00:18Z</time>
      </trkpt>
      <trkpt lat="42.7017950" lon="-0.0840300">
        <ele>2016.8</ele>
        <time>2022-07-24T08:00:19Z</time>
      </trkpt>
      <trkpt lat="42.7017720" lon="-0.0841370">
        <ele>2016.8</ele>
        <time>2022-07-24T08:00:24Z</time>
      </trkpt>
      <trkpt lat="42.7017710" lon="-0.0841760">
        <ele>2016.6</ele>
        <time>2022-07-24T08:00:26Z</time>
      </trkpt>
      <trkpt lat="42.7017760" lon="-0.0841930">
        <ele>2016.6</ele>
        <time>2022-07-24T08:00:27Z</time>
      </trkpt>
      <trkpt lat="42.7018020" lon="-0.0843330">
        <ele>2016.0</ele>
        <time>2022-07-24T08:00:34Z</time>
      </trkpt>
      <trkpt lat="42.7018040" lon="-0.0843510">
        <ele>2016.0</ele>
        <time>2022-07-24T08:00:35Z</time>
      </trkpt>
      <trkpt lat="42.7018080" lon="-0.0843690">
        <ele>2015.8</ele>
        <time>2022-07-24T08:00:36Z</time>
      </trkpt>
      <trkpt lat="42.7018180" lon="-0.0843940">
        <ele>2016.0</ele>
        <time>2022-07-24T08:00:38Z</time>
      </trkpt>
      <trkpt lat="42.7018270" lon="-0.0844120">
        <ele>2016.0</ele>
        <time>2022-07-24T08:00:39Z</time>
      </trkpt>
      <trkpt lat="42.7018350" lon="-0.0844420">
        <ele>2015.8</ele>
        <time>2022-07-24T08:00:41Z</time>
      </trkpt>
      <trkpt lat="42.7018400" lon="-0.0844570">
        <ele>2015.8</ele>
        <time>2022-07-24T08:00:42Z</time>
      </trkpt>
      <trkpt lat="42.7018460" lon="-0.0844740">
        <ele>2015.6</ele>
        <time>2022-07-24T08:00:43Z</time>
      </trkpt>
      <trkpt lat="42.7018470" lon="-0.0844900">
        <ele>2015.6</ele>
        <time>2022-07-24T08:00:44Z</time>
      </trkpt>
      <trkpt lat="42.7018470" lon="-0.0845020">
        <ele>2015.6</ele>
        <time>2022-07-24T08:00:45Z</time>
      </trkpt>
      <trkpt lat="42.7018430" lon="-0.0845170">
        <ele>2015.6</ele>
        <time>2022-07-24T08:00:46Z</time>
      </trkpt>
      <trkpt lat="42.7018540" lon="-0.0845510">
        <ele>2015.4</ele>
        <time>2022-07-24T08:00:48Z</time>
      </trkpt>
      <trkpt lat="42.7018530" lon="-0.0845700">
        <ele>2015.4</ele>
        <time>2022-07-24T08:00:49Z</time>
      </trkpt>
      <trkpt lat="42.7018410" lon="-0.0846640">
        <ele>2015.0</ele>
        <time>2022-07-24T08:00:54Z</time>
      </trkpt>
      <trkpt lat="42.7018420" lon="-0.0846820">
        <ele>2015.0</ele>
        <time>2022-07-24T08:00:55Z</time>
      </trkpt>
      <trkpt lat="42.7018410" lon="-0.0847370">
        <ele>2014.6</ele>
        <time>2022-07-24T08:00:58Z</time>
      </trkpt>
      <trkpt lat="42.7018290" lon="-0.0848370">
        <ele>2014.6</ele>
        <time>2022-07-24T08:01:03Z</time>
      </trkpt>
      <trkpt lat="42.7017980" lon="-0.0849090">
        <ele>2014.6</ele>
        <time>2022-07-24T08:01:07Z</time>
      </trkpt>
      <trkpt lat="42.7017840" lon="-0.0849440">
        <ele>2014.6</ele>
        <time>2022-07-24T08:01:09Z</time>
      </trkpt>
      <trkpt lat="42.7017630" lon="-0.0850040">
        <ele>2014.4</ele>
        <time>2022-07-24T08:01:12Z</time>
      </trkpt>
      <trkpt lat="42.7017530" lon="-0.0850240">
        <ele>2014.4</ele>
        <time>2022-07-24T08:01:13Z</time>
      </trkpt>
      <trkpt lat="42.7017370" lon="-0.0850660">
        <ele>2014.2</ele>
        <time>2022-07-24T08:01:15Z</time>
      </trkpt>
      <trkpt lat="42.7017130" lon="-0.0852150">
        <ele>2013.4</ele>
        <time>2022-07-24T08:01:22Z</time>
      </trkpt>
      <trkpt lat="42.7017100" lon="-0.0852330">
        <ele>2013.4</ele>
        <time>2022-07-24T08:01:23Z</time>
      </trkpt>
      <trkpt lat="42.7017070" lon="-0.0852660">
        <ele>2013.2</ele>
        <time>2022-07-24T08:01:25Z</time>
      </trkpt>
      <trkpt lat="42.7017050" lon="-0.0852850">
        <ele>2013.2</ele>
        <time>2022-07-24T08:01:26Z</time>
      </trkpt>
      <trkpt lat="42.7017040" lon="-0.0853170">
        <ele>2013.2</ele>
        <time>2022-07-24T08:01:28Z</time>
      </trkpt>
      <trkpt lat="42.7017030" lon="-0.0853540">
        <ele>2013.0</ele>
        <time>2022-07-24T08:01:30Z</time>
      </trkpt>
      <trkpt lat="42.7016980" lon="-0.0854360">
        <ele>2013.0</ele>
        <time>2022-07-24T08:01:34Z</time>
      </trkpt>
      <trkpt lat="42.7016810" lon="-0.0856180">
        <ele>2012.0</ele>
        <time>2022-07-24T08:01:43Z</time>
      </trkpt>
      <trkpt lat="42.7016900" lon="-0.0857030">
        <ele>2012.0</ele>
        <time>2022-07-24T08:01:47Z</time>
      </trkpt>
      <trkpt lat="42.7016960" lon="-0.0858250">
        <ele>2011.6</ele>
        <time>2022-07-24T08:01:53Z</time>
      </trkpt>
      <trkpt lat="42.7016970" lon="-0.0858480">
        <ele>2011.4</ele>
        <time>2022-07-24T08:01:54Z</time>
      </trkpt>
      <trkpt lat="42.7017000" lon="-0.0858680">
        <ele>2011.2</ele>
        <time>2022-07-24T08:01:55Z</time>
      </trkpt>
      <trkpt lat="42.7017020" lon="-0.0860080">
        <ele>2009.6</ele>
        <time>2022-07-24T08:02:02Z</time>
      </trkpt>
      <trkpt lat="42.7017000" lon="-0.0860330">
        <ele>2009.4</ele>
        <time>2022-07-24T08:02:03Z</time>
      </trkpt>
      <trkpt lat="42.7017330" lon="-0.0862230">
        <ele>2007.8</ele>
        <time>2022-07-24T08:02:12Z</time>
      </trkpt>
      <trkpt lat="42.7017460" lon="-0.0862570">
        <ele>2007.2</ele>
        <time>2022-07-24T08:02:14Z</time>
      </trkpt>
      <trkpt lat="42.7017560" lon="-0.0863110">
        <ele>2006.6</ele>
        <time>2022-07-24T08:02:17Z</time>
      </trkpt>
      <trkpt lat="42.7017700" lon="-0.0863920">
        <ele>2005.8</ele>
        <time>2022-07-24T08:02:21Z</time>
      </trkpt>
      <trkpt lat="42.7017730" lon="-0.0864150">
        <ele>2005.6</ele>
        <time>2022-07-24T08:02:22Z</time>
      </trkpt>
      <trkpt lat="42.7017780" lon="-0.0864360">
        <ele>2005.6</ele>
        <time>2022-07-24T08:02:23Z</time>
      </trkpt>
      <trkpt lat="42.7017860" lon="-0.0864970">
        <ele>2005.0</ele>
        <time>2022-07-24T08:02:26Z</time>
      </trkpt>
      <trkpt lat="42.7017980" lon="-0.0865850">
        <ele>2004.2</ele>
        <time>2022-07-24T08:02:30Z</time>
      </trkpt>
      <trkpt lat="42.7018040" lon="-0.0866200">
        <ele>2004.0</ele>
        <time>2022-07-24T08:02:32Z</time>
      </trkpt>
      <trkpt lat="42.7018070" lon="-0.0866360">
        <ele>2003.8</ele>
        <time>2022-07-24T08:02:33Z</time>
      </trkpt>
      <trkpt lat="42.7018130" lon="-0.0866760">
        <ele>2003.2</ele>
        <time>2022-07-24T08:02:35Z</time>
      </trkpt>
      <trkpt lat="42.7018060" lon="-0.0867440">
        <ele>2002.4</ele>
        <time>2022-07-24T08:02:38Z</time>
      </trkpt>
      <trkpt lat="42.7018020" lon="-0.0867660">
        <ele>2002.4</ele>
        <time>2022-07-24T08:02:39Z</time>
      </trkpt>
      <trkpt lat="42.7017940" lon="-0.0867880">
        <ele>2002.2</ele>
        <time>2022-07-24T08:02:40Z</time>
      </trkpt>
      <trkpt lat="42.7017680" lon="-0.0868450">
        <ele>2001.4</ele>
        <time>2022-07-24T08:02:43Z</time>
      </trkpt>
      <trkpt lat="42.7017550" lon="-0.0869130">
        <ele>2000.6</ele>
        <time>2022-07-24T08:02:47Z</time>
      </trkpt>
      <trkpt lat="42.7017530" lon="-0.0869290">
        <ele>2000.6</ele>
        <time>2022-07-24T08:02:48Z</time>
      </trkpt>
      <trkpt lat="42.7017500" lon="-0.0869470">
        <ele>2000.6</ele>
        <time>2022-07-24T08:02:49Z</time>
      </trkpt>
      <trkpt lat="42.7017310" lon="-0.0869800">
        <ele>2000.2</ele>
        <time>2022-07-24T08:02:51Z</time>
      </trkpt>
      <trkpt lat="42.7017210" lon="-0.0869920">
        <ele>2000.2</ele>
        <time>2022-07-24T08:02:52Z</time>
      </trkpt>
      <trkpt lat="42.7017110" lon="-0.0870060">
        <ele>2000.0</ele>
        <time>2022-07-24T08:02:53Z</time>
      </trkpt>
      <trkpt lat="42.7017020" lon="-0.0870230">
        <ele>1999.6</ele>
        <time>2022-07-24T08:02:54Z</time>
      </trkpt>
      <trkpt lat="42.7016860" lon="-0.0870550">
        <ele>1999.2</ele>
        <time>2022-07-24T08:02:56Z</time>
      </trkpt>
      <trkpt lat="42.7016740" lon="-0.0870920">
        <ele>1999.2</ele>
        <time>2022-07-24T08:02:58Z</time>
      </trkpt>
      <trkpt lat="42.7016700" lon="-0.0871130">
        <ele>1999.2</ele>
        <time>2022-07-24T08:02:59Z</time>
      </trkpt>
      <trkpt lat="42.7016640" lon="-0.0871830">
        <ele>1999.0</ele>
        <time>2022-07-24T08:03:02Z</time>
      </trkpt>
      <trkpt lat="42.7016640" lon="-0.0872030">
        <ele>1998.6</ele>
        <time>2022-07-24T08:03:03Z</time>
      </trkpt>
      <trkpt lat="42.7016590" lon="-0.0872660">
        <ele>1998.2</ele>
        <time>2022-07-24T08:03:06Z</time>
      </trkpt>
      <trkpt lat="42.7016520" lon="-0.0872850">
        <ele>1998.2</ele>
        <time>2022-07-24T08:03:07Z</time>
      </trkpt>
      <trkpt lat="42.7016460" lon="-0.0873020">
        <ele>1998.0</ele>
        <time>2022-07-24T08:03:08Z</time>
      </trkpt>
      <trkpt lat="42.7016390" lon="-0.0873190">
        <ele>1998.0</ele>
        <time>2022-07-24T08:03:09Z</time>
      </trkpt>
      <trkpt lat="42.7016280" lon="-0.0873410">
        <ele>1997.8</ele>
        <time>2022-07-24T08:03:10Z</time>
      </trkpt>
      <trkpt lat="42.7016190" lon="-0.0873610">
        <ele>1998.0</ele>
        <time>2022-07-24T08:03:11Z</time>
      </trkpt>
      <trkpt lat="42.7015750" lon="-0.0874680">
        <ele>1996.8</ele>
        <time>2022-07-24T08:03:16Z</time>
      </trkpt>
      <trkpt lat="42.7015720" lon="-0.0874860">
        <ele>1996.2</ele>
        <time>2022-07-24T08:03:17Z</time>
      </trkpt>
      <trkpt lat="42.7015380" lon="-0.0876400">
        <ele>1994.6</ele>
        <time>2022-07-24T08:03:25Z</time>
      </trkpt>
      <trkpt lat="42.7015270" lon="-0.0876760">
        <ele>1994.4</ele>
        <time>2022-07-24T08:03:27Z</time>
      </trkpt>
      <trkpt lat="42.7015090" lon="-0.0877540">
        <ele>1994.4</ele>
        <time>2022-07-24T08:03:31Z</time>
      </trkpt>
      <trkpt lat="42.7014880" lon="-0.0878570">
        <ele>1993.8</ele>
        <time>2022-07-24T08:03:36Z</time>
      </trkpt>
      <trkpt lat="42.7014790" lon="-0.0879000">
        <ele>1993.6</ele>
        <time>2022-07-24T08:03:38Z</time>
      </trkpt>
      <trkpt lat="42.7014050" lon="-0.0880540">
        <ele>1993.2</ele>
        <time>2022-07-24T08:03:46Z</time>
      </trkpt>
      <trkpt lat="42.7013620" lon="-0.0881370">
        <ele>1993.2</ele>
        <time>2022-07-24T08:03:50Z</time>
      </trkpt>
      <trkpt lat="42.7013540" lon="-0.0881580">
        <ele>1993.2</ele>
        <time>2022-07-24T08:03:51Z</time>
      </trkpt>
      <trkpt lat="42.7013240" lon="-0.0882160">
        <ele>1993.2</ele>
        <time>2022-07-24T08:03:54Z</time>
      </trkpt>
      <trkpt lat="42.7013060" lon="-0.0882470">
        <ele>1993.0</ele>
        <time>2022-07-24T08:03:56Z</time>
      </trkpt>
      <trkpt lat="42.7012980" lon="-0.0882640">
        <ele>1993.0</ele>
        <time>2022-07-24T08:03:57Z</time>
      </trkpt>
      <trkpt lat="42.7012810" lon="-0.0883110">
        <ele>1992.6</ele>
        <time>2022-07-24T08:04:00Z</time>
      </trkpt>
      <trkpt lat="42.7012530" lon="-0.0883460">
        <ele>1992.6</ele>
        <time>2022-07-24T08:04:03Z</time>
      </trkpt>
      <trkpt lat="42.7012280" lon="-0.0883620">
        <ele>1992.4</ele>
        <time>2022-07-24T08:04:05Z</time>
      </trkpt>
      <trkpt lat="42.7011980" lon="-0.0883630">
        <ele>1992.4</ele>
        <time>2022-07-24T08:04:07Z</time>
      </trkpt>
      <trkpt lat="42.7011680" lon="-0.0883630">
        <ele>1992.2</ele>
        <time>2022-07-24T08:04:09Z</time>
      </trkpt>
      <trkpt lat="42.7011550" lon="-0.0883590">
        <ele>1992.2</ele>
        <time>2022-07-24T08:04:10Z</time>
      </trkpt>
      <trkpt lat="42.7011030" lon="-0.0883850">
        <ele>1991.4</ele>
        <time>2022-07-24T08:04:15Z</time>
      </trkpt>
      <trkpt lat="42.7010920" lon="-0.0883960">
        <ele>1991.4</ele>
        <time>2022-07-24T08:04:16Z</time>
      </trkpt>
      <trkpt lat="42.7010790" lon="-0.0884080">
        <ele>1991.4</ele>
        <time>2022-07-24T08:04:17Z</time>
      </trkpt>
      <trkpt lat="42.7010360" lon="-0.0884600">
        <ele>1991.0</ele>
        <time>2022-07-24T08:04:21Z</time>
      </trkpt>
      <trkpt lat="42.7010170" lon="-0.0885080">
        <ele>1990.0</ele>
        <time>2022-07-24T08:04:24Z</time>
      </trkpt>
      <trkpt lat="42.7009420" lon="-0.0885620">
        <ele>1989.0</ele>
        <time>2022-07-24T08:04:30Z</time>
      </trkpt>
      <trkpt lat="42.7009370" lon="-0.0885680">
        <ele>1989.0</ele>
        <time>2022-07-24T08:04:31Z</time>
      </trkpt>
      <trkpt lat="42.7009370" lon="-0.0885800">
        <ele>1988.6</ele>
        <time>2022-07-24T08:04:32Z</time>
      </trkpt>
      <trkpt lat="42.7009420" lon="-0.0885980">
        <ele>1988.4</ele>
        <time>2022-07-24T08:04:34Z</time>
      </trkpt>
      <trkpt lat="42.7009500" lon="-0.0886100">
        <ele>1988.2</ele>
        <time>2022-07-24T08:04:35Z</time>
      </trkpt>
      <trkpt lat="42.7009620" lon="-0.0886140">
        <ele>1988.0</ele>
        <time>2022-07-24T08:04:36Z</time>
      </trkpt>
      <trkpt lat="42.7009750" lon="-0.0886130">
        <ele>1988.0</ele>
        <time>2022-07-24T08:04:37Z</time>
      </trkpt>
      <trkpt lat="42.7009870" lon="-0.0886130">
        <ele>1987.8</ele>
        <time>2022-07-24T08:04:38Z</time>
      </trkpt>
      <trkpt lat="42.7010070" lon="-0.0886040">
        <ele>1987.4</ele>
        <time>2022-07-24T08:04:40Z</time>
      </trkpt>
      <trkpt lat="42.7010140" lon="-0.0886040">
        <ele>1986.8</ele>
        <time>2022-07-24T08:04:42Z</time>
      </trkpt>
      <trkpt lat="42.7010190" lon="-0.0886060">
        <ele>1986.4</ele>
        <time>2022-07-24T08:04:43Z</time>
      </trkpt>
      <trkpt lat="42.7010260" lon="-0.0886150">
        <ele>1986.2</ele>
        <time>2022-07-24T08:04:44Z</time>
      </trkpt>
      <trkpt lat="42.7010430" lon="-0.0886220">
        <ele>1985.6</ele>
        <time>2022-07-24T08:04:45Z</time>
      </trkpt>
      <trkpt lat="42.7010580" lon="-0.0886330">
        <ele>1985.4</ele>
        <time>2022-07-24T08:04:46Z</time>
      </trkpt>
      <trkpt lat="42.7010390" lon="-0.0886820">
        <ele>1984.4</ele>
        <time>2022-07-24T08:04:50Z</time>
      </trkpt>
      <trkpt lat="42.7010050" lon="-0.0887090">
        <ele>1984.0</ele>
        <time>2022-07-24T08:04:52Z</time>
      </trkpt>
      <trkpt lat="42.7009910" lon="-0.0887370">
        <ele>1983.4</ele>
        <time>2022-07-24T08:04:54Z</time>
      </trkpt>
      <trkpt lat="42.7009900" lon="-0.0887500">
        <ele>1983.2</ele>
        <time>2022-07-24T08:04:55Z</time>
      </trkpt>
      <trkpt lat="42.7009780" lon="-0.0888050">
        <ele>1982.6</ele>
        <time>2022-07-24T08:04:58Z</time>
      </trkpt>
      <trkpt lat="42.7009690" lon="-0.0888020">
        <ele>1982.4</ele>
        <time>2022-07-24T08:04:59Z</time>
      </trkpt>
      <trkpt lat="42.7009690" lon="-0.0888090">
        <ele>1982.2</ele>
        <time>2022-07-24T08:05:00Z</time>
      </trkpt>
      <trkpt lat="42.7009880" lon="-0.0888260">
        <ele>1982.2</ele>
        <time>2022-07-24T08:05:02Z</time>
      </trkpt>
      <trkpt lat="42.7010000" lon="-0.0888230">
        <ele>1981.8</ele>
        <time>2022-07-24T08:05:03Z</time>
      </trkpt>
      <trkpt lat="42.7010100" lon="-0.0888180">
        <ele>1981.4</ele>
        <time>2022-07-24T08:05:04Z</time>
      </trkpt>
      <trkpt lat="42.7010640" lon="-0.0888070">
        <ele>1980.6</ele>
        <time>2022-07-24T08:05:09Z</time>
      </trkpt>
      <trkpt lat="42.7010700" lon="-0.0888070">
        <ele>1980.2</ele>
        <time>2022-07-24T08:05:10Z</time>
      </trkpt>
      <trkpt lat="42.7010830" lon="-0.0888100">
        <ele>1979.8</ele>
        <time>2022-07-24T08:05:12Z</time>
      </trkpt>
      <trkpt lat="42.7011010" lon="-0.0887990">
        <ele>1979.0</ele>
        <time>2022-07-24T08:05:14Z</time>
      </trkpt>
      <trkpt lat="42.7011290" lon="-0.0887820">
        <ele>1978.2</ele>
        <time>2022-07-24T08:05:17Z</time>
      </trkpt>
      <trkpt lat="42.7011330" lon="-0.0887710">
        <ele>1977.8</ele>
        <time>2022-07-24T08:05:19Z</time>
      </trkpt>
      <trkpt lat="42.7011350" lon="-0.0887740">
        <ele>1977.4</ele>
        <time>2022-07-24T08:05:20Z</time>
      </trkpt>
      <trkpt lat="42.7011510" lon="-0.0888000">
        <ele>1977.0</ele>
        <time>2022-07-24T08:05:23Z</time>
      </trkpt>
      <trkpt lat="42.7011610" lon="-0.0888100">
        <ele>1976.8</ele>
        <time>2022-07-24T08:05:24Z</time>
      </trkpt>
      <trkpt lat="42.7011680" lon="-0.0888180">
        <ele>1976.8</ele>
        <time>2022-07-24T08:05:25Z</time>
      </trkpt>
      <trkpt lat="42.7011940" lon="-0.0888280">
        <ele>1975.8</ele>
        <time>2022-07-24T08:05:28Z</time>
      </trkpt>
      <trkpt lat="42.7012110" lon="-0.0888340">
        <ele>1975.6</ele>
        <time>2022-07-24T08:05:29Z</time>
      </trkpt>
      <trkpt lat="42.7012270" lon="-0.0888390">
        <ele>1975.4</ele>
        <time>2022-07-24T08:05:30Z</time>
      </trkpt>
      <trkpt lat="42.7012360" lon="-0.0888390">
        <ele>1975.4</ele>
        <time>2022-07-24T08:05:31Z</time>
      </trkpt>
      <trkpt lat="42.7012430" lon="-0.0888420">
        <ele>1975.0</ele>
        <time>2022-07-24T08:05:32Z</time>
      </trkpt>
      <trkpt lat="42.7012620" lon="-0.0888580">
        <ele>1973.8</ele>
        <time>2022-07-24T08:05:34Z</time>
      </trkpt>
      <trkpt lat="42.7012630" lon="-0.0888660">
        <ele>1973.4</ele>
        <time>2022-07-24T08:05:35Z</time>
      </trkpt>
      <trkpt lat="42.7012600" lon="-0.0888740">
        <ele>1973.0</ele>
        <time>2022-07-24T08:05:36Z</time>
      </trkpt>
      <trkpt lat="42.7012500" lon="-0.0888900">
        <ele>1972.6</ele>
        <time>2022-07-24T08:05:38Z</time>
      </trkpt>
      <trkpt lat="42.7012410" lon="-0.0888940">
        <ele>1972.2</ele>
        <time>2022-07-24T08:05:39Z</time>
      </trkpt>
      <trkpt lat="42.7012310" lon="-0.0888930">
        <ele>1972.2</ele>
        <time>2022-07-24T08:05:40Z</time>
      </trkpt>
      <trkpt lat="42.7012000" lon="-0.0889250">
        <ele>1970.6</ele>
        <time>2022-07-24T08:05:44Z</time>
      </trkpt>
      <trkpt lat="42.7011980" lon="-0.0889350">
        <ele>1970.2</ele>
        <time>2022-07-24T08:05:45Z</time>
      </trkpt>
      <trkpt lat="42.7011930" lon="-0.0889460">
        <ele>1970.0</ele>
        <time>2022-07-24T08:05:46Z</time>
      </trkpt>
      <trkpt lat="42.7011820" lon="-0.0889610">
        <ele>1969.8</ele>
        <time>2022-07-24T08:05:47Z</time>
      </trkpt>
      <trkpt lat="42.7011730" lon="-0.0889750">
        <ele>1969.6</ele>
        <time>2022-07-24T08:05:48Z</time>
      </trkpt>
      <trkpt lat="42.7011620" lon="-0.0889900">
        <ele>1969.4</ele>
        <time>2022-07-24T08:05:49Z</time>
      </trkpt>
      <trkpt lat="42.7011500" lon="-0.0890010">
        <ele>1969.2</ele>
        <time>2022-07-24T08:05:50Z</time>
      </trkpt>
      <trkpt lat="42.7011340" lon="-0.0890110">
        <ele>1969.4</ele>
        <time>2022-07-24T08:05:51Z</time>
      </trkpt>
      <trkpt lat="42.7011050" lon="-0.0890390">
        <ele>1968.8</ele>
        <time>2022-07-24T08:05:55Z</time>
      </trkpt>
      <trkpt lat="42.7011010" lon="-0.0890510">
        <ele>1968.6</ele>
        <time>2022-07-24T08:05:56Z</time>
      </trkpt>
      <trkpt lat="42.7010900" lon="-0.0890720">
        <ele>1968.0</ele>
        <time>2022-07-24T08:05:58Z</time>
      </trkpt>
      <trkpt lat="42.7010780" lon="-0.0890840">
        <ele>1968.0</ele>
        <time>2022-07-24T08:06:00Z</time>
      </trkpt>
      <trkpt lat="42.7010690" lon="-0.0890880">
        <ele>1967.8</ele>
        <time>2022-07-24T08:06:01Z</time>
      </trkpt>
      <trkpt lat="42.7010550" lon="-0.0891110">
        <ele>1967.8</ele>
        <time>2022-07-24T08:06:03Z</time>
      </trkpt>
      <trkpt lat="42.7010450" lon="-0.0891510">
        <ele>1967.6</ele>
        <time>2022-07-24T08:06:05Z</time>
      </trkpt>
      <trkpt lat="42.7010450" lon="-0.0891610">
        <ele>1967.0</ele>
        <time>2022-07-24T08:06:06Z</time>
      </trkpt>
      <trkpt lat="42.7010550" lon="-0.0892000">
        <ele>1966.2</ele>
        <time>2022-07-24T08:06:10Z</time>
      </trkpt>
      <trkpt lat="42.7010760" lon="-0.0892000">
        <ele>1965.4</ele>
        <time>2022-07-24T08:06:14Z</time>
      </trkpt>
      <trkpt lat="42.7010800" lon="-0.0892010">
        <ele>1965.2</ele>
        <time>2022-07-24T08:06:15Z</time>
      </trkpt>
      <trkpt lat="42.7010830" lon="-0.0892020">
        <ele>1965.0</ele>
        <time>2022-07-24T08:06:16Z</time>
      </trkpt>
      <trkpt lat="42.7010740" lon="-0.0892110">
        <ele>1964.4</ele>
        <time>2022-07-24T08:06:18Z</time>
      </trkpt>
      <trkpt lat="42.7010570" lon="-0.0892200">
        <ele>1964.0</ele>
        <time>2022-07-24T08:06:20Z</time>
      </trkpt>
      <trkpt lat="42.7010440" lon="-0.0892290">
        <ele>1964.0</ele>
        <time>2022-07-24T08:06:21Z</time>
      </trkpt>
      <trkpt lat="42.7010280" lon="-0.0892450">
        <ele>1963.8</ele>
        <time>2022-07-24T08:06:23Z</time>
      </trkpt>
      <trkpt lat="42.7010170" lon="-0.0892450">
        <ele>1963.8</ele>
        <time>2022-07-24T08:06:24Z</time>
      </trkpt>
      <trkpt lat="42.7010040" lon="-0.0892510">
        <ele>1963.4</ele>
        <time>2022-07-24T08:06:25Z</time>
      </trkpt>
      <trkpt lat="42.7009960" lon="-0.0892590">
        <ele>1963.4</ele>
        <time>2022-07-24T08:06:26Z</time>
      </trkpt>
      <trkpt lat="42.7009870" lon="-0.0892690">
        <ele>1962.8</ele>
        <time>2022-07-24T08:06:27Z</time>
      </trkpt>
      <trkpt lat="42.7009790" lon="-0.0892850">
        <ele>1962.6</ele>
        <time>2022-07-24T08:06:28Z</time>
      </trkpt>
      <trkpt lat="42.7009740" lon="-0.0893010">
        <ele>1962.2</ele>
        <time>2022-07-24T08:06:29Z</time>
      </trkpt>
      <trkpt lat="42.7009670" lon="-0.0893180">
        <ele>1961.8</ele>
        <time>2022-07-24T08:06:30Z</time>
      </trkpt>
      <trkpt lat="42.7009640" lon="-0.0893350">
        <ele>1961.6</ele>
        <time>2022-07-24T08:06:31Z</time>
      </trkpt>
      <trkpt lat="42.7009610" lon="-0.0893550">
        <ele>1961.4</ele>
        <time>2022-07-24T08:06:32Z</time>
      </trkpt>
      <trkpt lat="42.7009590" lon="-0.0893730">
        <ele>1961.2</ele>
        <time>2022-07-24T08:06:33Z</time>
      </trkpt>
      <trkpt lat="42.7009610" lon="-0.0894540">
        <ele>1960.0</ele>
        <time>2022-07-24T08:06:37Z</time>
      </trkpt>
      <trkpt lat="42.7009590" lon="-0.0894670">
        <ele>1959.8</ele>
        <time>2022-07-24T08:06:38Z</time>
      </trkpt>
      <trkpt lat="42.7009280" lon="-0.0895030">
        <ele>1959.4</ele>
        <time>2022-07-24T08:06:42Z</time>
      </trkpt>
      <trkpt lat="42.7009000" lon="-0.0895300">
        <ele>1958.6</ele>
        <time>2022-07-24T08:06:45Z</time>
      </trkpt>
      <trkpt lat="42.7008950" lon="-0.0895430">
        <ele>1958.2</ele>
        <time>2022-07-24T08:06:46Z</time>
      </trkpt>
      <trkpt lat="42.7008920" lon="-0.0895530">
        <ele>1957.8</ele>
        <time>2022-07-24T08:06:47Z</time>
      </trkpt>
      <trkpt lat="42.7008870" lon="-0.0895750">
        <ele>1957.4</ele>
        <time>2022-07-24T08:06:49Z</time>
      </trkpt>
      <trkpt lat="42.7008850" lon="-0.0895840">
        <ele>1957.2</ele>
        <time>2022-07-24T08:06:50Z</time>
      </trkpt>
      <trkpt lat="42.7008810" lon="-0.0895920">
        <ele>1957.0</ele>
        <time>2022-07-24T08:06:51Z</time>
      </trkpt>
      <trkpt lat="42.7008740" lon="-0.0896030">
        <ele>1956.6</ele>
        <time>2022-07-24T08:06:52Z</time>
      </trkpt>
      <trkpt lat="42.7008440" lon="-0.0896430">
        <ele>1956.0</ele>
        <time>2022-07-24T08:06:55Z</time>
      </trkpt>
      <trkpt lat="42.7008180" lon="-0.0896770">
        <ele>1955.6</ele>
        <time>2022-07-24T08:06:58Z</time>
      </trkpt>
      <trkpt lat="42.7008090" lon="-0.0896910">
        <ele>1955.0</ele>
        <time>2022-07-24T08:06:59Z</time>
      </trkpt>
      <trkpt lat="42.7008030" lon="-0.0897040">
        <ele>1954.4</ele>
        <time>2022-07-24T08:07:00Z</time>
      </trkpt>
      <trkpt lat="42.7007940" lon="-0.0897170">
        <ele>1954.0</ele>
        <time>2022-07-24T08:07:01Z</time>
      </trkpt>
      <trkpt lat="42.7007610" lon="-0.0897500">
        <ele>1953.8</ele>
        <time>2022-07-24T08:07:03Z</time>
      </trkpt>
      <trkpt lat="42.7007490" lon="-0.0897740">
        <ele>1953.6</ele>
        <time>2022-07-24T08:07:05Z</time>
      </trkpt>
      <trkpt lat="42.7007300" lon="-0.0898180">
        <ele>1953.0</ele>
        <time>2022-07-24T08:07:08Z</time>
      </trkpt>
      <trkpt lat="42.7007190" lon="-0.0898410">
        <ele>1952.6</ele>
        <time>2022-07-24T08:07:10Z</time>
      </trkpt>
      <trkpt lat="42.7007140" lon="-0.0898700">
        <ele>1952.4</ele>
        <time>2022-07-24T08:07:12Z</time>
      </trkpt>
      <trkpt lat="42.7007160" lon="-0.0898900">
        <ele>1952.4</ele>
        <time>2022-07-24T08:07:13Z</time>
      </trkpt>
      <trkpt lat="42.7007190" lon="-0.0899250">
        <ele>1951.4</ele>
        <time>2022-07-24T08:07:15Z</time>
      </trkpt>
      <trkpt lat="42.7007030" lon="-0.0899600">
        <ele>1950.6</ele>
        <time>2022-07-24T08:07:18Z</time>
      </trkpt>
      <trkpt lat="42.7006970" lon="-0.0899730">
        <ele>1950.2</ele>
        <time>2022-07-24T08:07:19Z</time>
      </trkpt>
      <trkpt lat="42.7006910" lon="-0.0899860">
        <ele>1950.0</ele>
        <time>2022-07-24T08:07:20Z</time>
      </trkpt>
      <trkpt lat="42.7006550" lon="-0.0900300">
        <ele>1948.4</ele>
        <time>2022-07-24T08:07:23Z</time>
      </trkpt>
      <trkpt lat="42.7006160" lon="-0.0900720">
        <ele>1947.8</ele>
        <time>2022-07-24T08:07:26Z</time>
      </trkpt>
      <trkpt lat="42.7006140" lon="-0.0901100">
        <ele>1947.2</ele>
        <time>2022-07-24T08:07:29Z</time>
      </trkpt>
      <trkpt lat="42.7006150" lon="-0.0901360">
        <ele>1946.2</ele>
        <time>2022-07-24T08:07:31Z</time>
      </trkpt>
      <trkpt lat="42.7006150" lon="-0.0901590">
        <ele>1945.8</ele>
        <time>2022-07-24T08:07:33Z</time>
      </trkpt>
      <trkpt lat="42.7006090" lon="-0.0901670">
        <ele>1945.4</ele>
        <time>2022-07-24T08:07:34Z</time>
      </trkpt>
      <trkpt lat="42.7006050" lon="-0.0901810">
        <ele>1945.4</ele>
        <time>2022-07-24T08:07:35Z</time>
      </trkpt>
      <trkpt lat="42.7005700" lon="-0.0902090">
        <ele>1944.4</ele>
        <time>2022-07-24T08:07:38Z</time>
      </trkpt>
      <trkpt lat="42.7005710" lon="-0.0902170">
        <ele>1944.0</ele>
        <time>2022-07-24T08:07:39Z</time>
      </trkpt>
      <trkpt lat="42.7005660" lon="-0.0902280">
        <ele>1943.8</ele>
        <time>2022-07-24T08:07:40Z</time>
      </trkpt>
      <trkpt lat="42.7005400" lon="-0.0902560">
        <ele>1943.0</ele>
        <time>2022-07-24T08:07:42Z</time>
      </trkpt>
      <trkpt lat="42.7005090" lon="-0.0902810">
        <ele>1942.8</ele>
        <time>2022-07-24T08:07:44Z</time>
      </trkpt>
      <trkpt lat="42.7004930" lon="-0.0902960">
        <ele>1942.6</ele>
        <time>2022-07-24T08:07:45Z</time>
      </trkpt>
      <trkpt lat="42.7004690" lon="-0.0903130">
        <ele>1942.2</ele>
        <time>2022-07-24T08:07:46Z</time>
      </trkpt>
      <trkpt lat="42.7004430" lon="-0.0903330">
        <ele>1942.0</ele>
        <time>2022-07-24T08:07:47Z</time>
      </trkpt>
      <trkpt lat="42.7004320" lon="-0.0903540">
        <ele>1942.0</ele>
        <time>2022-07-24T08:07:48Z</time>
      </trkpt>
      <trkpt lat="42.7004320" lon="-0.0903960">
        <ele>1941.2</ele>
        <time>2022-07-24T08:07:51Z</time>
      </trkpt>
      <trkpt lat="42.7004200" lon="-0.0904170">
        <ele>1940.8</ele>
        <time>2022-07-24T08:07:52Z</time>
      </trkpt>
      <trkpt lat="42.7004120" lon="-0.0904350">
        <ele>1940.4</ele>
        <time>2022-07-24T08:07:53Z</time>
      </trkpt>
      <trkpt lat="42.7004110" lon="-0.0904500">
        <ele>1940.2</ele>
        <time>2022-07-24T08:07:54Z</time>
      </trkpt>
      <trkpt lat="42.7004070" lon="-0.0904630">
        <ele>1940.0</ele>
        <time>2022-07-24T08:07:55Z</time>
      </trkpt>
      <trkpt lat="42.7004040" lon="-0.0904720">
        <ele>1940.0</ele>
        <time>2022-07-24T08:07:56Z</time>
      </trkpt>
      <trkpt lat="42.7004030" lon="-0.0904800">
        <ele>1939.8</ele>
        <time>2022-07-24T08:07:57Z</time>
      </trkpt>
      <trkpt lat="42.7003970" lon="-0.0904840">
        <ele>1939.8</ele>
        <time>2022-07-24T08:07:58Z</time>
      </trkpt>
      <trkpt lat="42.7003760" lon="-0.0905180">
        <ele>1939.0</ele>
        <time>2022-07-24T08:08:02Z</time>
      </trkpt>
      <trkpt lat="42.7003560" lon="-0.0905390">
        <ele>1938.2</ele>
        <time>2022-07-24T08:08:04Z</time>
      </trkpt>
      <trkpt lat="42.7003420" lon="-0.0905520">
        <ele>1938.2</ele>
        <time>2022-07-24T08:08:05Z</time>
      </trkpt>
      <trkpt lat="42.7003070" lon="-0.0905890">
        <ele>1938.0</ele>
        <time>2022-07-24T08:08:08Z</time>
      </trkpt>
      <trkpt lat="42.7003060" lon="-0.0906130">
        <ele>1937.2</ele>
        <time>2022-07-24T08:08:10Z</time>
      </trkpt>
      <trkpt lat="42.7002990" lon="-0.0906370">
        <ele>1936.8</ele>
        <time>2022-07-24T08:08:12Z</time>
      </trkpt>
      <trkpt lat="42.7002910" lon="-0.0906460">
        <ele>1936.8</ele>
        <time>2022-07-24T08:08:13Z</time>
      </trkpt>
      <trkpt lat="42.7002840" lon="-0.0906670">
        <ele>1936.8</ele>
        <time>2022-07-24T08:08:15Z</time>
      </trkpt>
      <trkpt lat="42.7002840" lon="-0.0906750">
        <ele>1936.6</ele>
        <time>2022-07-24T08:08:16Z</time>
      </trkpt>
      <trkpt lat="42.7002860" lon="-0.0906820">
        <ele>1936.6</ele>
        <time>2022-07-24T08:08:17Z</time>
      </trkpt>
      <trkpt lat="42.7002810" lon="-0.0906930">
        <ele>1936.4</ele>
        <time>2022-07-24T08:08:18Z</time>
      </trkpt>
      <trkpt lat="42.7002820" lon="-0.0907010">
        <ele>1936.4</ele>
        <time>2022-07-24T08:08:19Z</time>
      </trkpt>
      <trkpt lat="42.7002830" lon="-0.0907130">
        <ele>1935.8</ele>
        <time>2022-07-24T08:08:20Z</time>
      </trkpt>
      <trkpt lat="42.7002550" lon="-0.0907610">
        <ele>1935.4</ele>
        <time>2022-07-24T08:08:23Z</time>
      </trkpt>
      <trkpt lat="42.7002120" lon="-0.0908110">
        <ele>1934.8</ele>
        <time>2022-07-24T08:08:26Z</time>
      </trkpt>
      <trkpt lat="42.7001930" lon="-0.0908490">
        <ele>1934.2</ele>
        <time>2022-07-24T08:08:28Z</time>
      </trkpt>
      <trkpt lat="42.7001760" lon="-0.0909570">
        <ele>1933.2</ele>
        <time>2022-07-24T08:08:33Z</time>
      </trkpt>
      <trkpt lat="42.7001900" lon="-0.0910000">
        <ele>1932.6</ele>
        <time>2022-07-24T08:08:35Z</time>
      </trkpt>
      <trkpt lat="42.7001950" lon="-0.0910420">
        <ele>1932.2</ele>
        <time>2022-07-24T08:08:37Z</time>
      </trkpt>
      <trkpt lat="42.7001990" lon="-0.0910930">
        <ele>1931.2</ele>
        <time>2022-07-24T08:08:40Z</time>
      </trkpt>
      <trkpt lat="42.7002040" lon="-0.0911060">
        <ele>1930.8</ele>
        <time>2022-07-24T08:08:41Z</time>
      </trkpt>
      <trkpt lat="42.7002160" lon="-0.0911170">
        <ele>1930.6</ele>
        <time>2022-07-24T08:08:42Z</time>
      </trkpt>
      <trkpt lat="42.7002170" lon="-0.0911270">
        <ele>1930.4</ele>
        <time>2022-07-24T08:08:43Z</time>
      </trkpt>
      <trkpt lat="42.7002070" lon="-0.0911400">
        <ele>1929.4</ele>
        <time>2022-07-24T08:08:44Z</time>
      </trkpt>
      <trkpt lat="42.7002050" lon="-0.0911500">
        <ele>1929.0</ele>
        <time>2022-07-24T08:08:45Z</time>
      </trkpt>
      <trkpt lat="42.7001850" lon="-0.0911720">
        <ele>1928.8</ele>
        <time>2022-07-24T08:08:47Z</time>
      </trkpt>
      <trkpt lat="42.7001800" lon="-0.0911830">
        <ele>1928.4</ele>
        <time>2022-07-24T08:08:48Z</time>
      </trkpt>
      <trkpt lat="42.7001800" lon="-0.0912000">
        <ele>1928.2</ele>
        <time>2022-07-24T08:08:49Z</time>
      </trkpt>
      <trkpt lat="42.7001730" lon="-0.0912530">
        <ele>1927.6</ele>
        <time>2022-07-24T08:08:52Z</time>
      </trkpt>
      <trkpt lat="42.7001200" lon="-0.0913300">
        <ele>1925.4</ele>
        <time>2022-07-24T08:08:57Z</time>
      </trkpt>
      <trkpt lat="42.7000870" lon="-0.0914140">
        <ele>1923.6</ele>
        <time>2022-07-24T08:09:03Z</time>
      </trkpt>
      <trkpt lat="42.7000830" lon="-0.0914270">
        <ele>1923.4</ele>
        <time>2022-07-24T08:09:04Z</time>
      </trkpt>
      <trkpt lat="42.7000610" lon="-0.0914670">
        <ele>1922.4</ele>
        <time>2022-07-24T08:09:07Z</time>
      </trkpt>
      <trkpt lat="42.7000480" lon="-0.0914930">
        <ele>1921.8</ele>
        <time>2022-07-24T08:09:09Z</time>
      </trkpt>
      <trkpt lat="42.7000400" lon="-0.0915010">
        <ele>1921.6</ele>
        <time>2022-07-24T08:09:10Z</time>
      </trkpt>
      <trkpt lat="42.7000330" lon="-0.0915120">
        <ele>1921.0</ele>
        <time>2022-07-24T08:09:11Z</time>
      </trkpt>
      <trkpt lat="42.7000220" lon="-0.0915280">
        <ele>1921.0</ele>
        <time>2022-07-24T08:09:12Z</time>
      </trkpt>
      <trkpt lat="42.7000060" lon="-0.0915610">
        <ele>1920.6</ele>
        <time>2022-07-24T08:09:14Z</time>
      </trkpt>
      <trkpt lat="42.6999890" lon="-0.0915840">
        <ele>1919.6</ele>
        <time>2022-07-24T08:09:16Z</time>
      </trkpt>
      <trkpt lat="42.6999540" lon="-0.0916210">
        <ele>1919.0</ele>
        <time>2022-07-24T08:09:19Z</time>
      </trkpt>
      <trkpt lat="42.6999390" lon="-0.0916660">
        <ele>1917.6</ele>
        <time>2022-07-24T08:09:22Z</time>
      </trkpt>
      <trkpt lat="42.6999220" lon="-0.0916850">
        <ele>1916.6</ele>
        <time>2022-07-24T08:09:24Z</time>
      </trkpt>
      <trkpt lat="42.6998970" lon="-0.0917130">
        <ele>1915.6</ele>
        <time>2022-07-24T08:09:26Z</time>
      </trkpt>
      <trkpt lat="42.6998690" lon="-0.0917530">
        <ele>1915.0</ele>
        <time>2022-07-24T08:09:28Z</time>
      </trkpt>
      <trkpt lat="42.6998510" lon="-0.0917750">
        <ele>1914.6</ele>
        <time>2022-07-24T08:09:29Z</time>
      </trkpt>
      <trkpt lat="42.6998400" lon="-0.0918000">
        <ele>1914.4</ele>
        <time>2022-07-24T08:09:30Z</time>
      </trkpt>
      <trkpt lat="42.6998260" lon="-0.0918290">
        <ele>1914.0</ele>
        <time>2022-07-24T08:09:31Z</time>
      </trkpt>
      <trkpt lat="42.6997930" lon="-0.0918920">
        <ele>1913.6</ele>
        <time>2022-07-24T08:09:33Z</time>
      </trkpt>
      <trkpt lat="42.6997400" lon="-0.0919860">
        <ele>1912.4</ele>
        <time>2022-07-24T08:09:36Z</time>
      </trkpt>
      <trkpt lat="42.6997280" lon="-0.0920170">
        <ele>1911.8</ele>
        <time>2022-07-24T08:09:37Z</time>
      </trkpt>
      <trkpt lat="42.6997160" lon="-0.0920470">
        <ele>1910.8</ele>
        <time>2022-07-24T08:09:38Z</time>
      </trkpt>
      <trkpt lat="42.6996990" lon="-0.0920730">
        <ele>1909.8</ele>
        <time>2022-07-24T08:09:39Z</time>
      </trkpt>
      <trkpt lat="42.6996200" lon="-0.0922120">
        <ele>1905.4</ele>
        <time>2022-07-24T08:09:46Z</time>
      </trkpt>
      <trkpt lat="42.6995550" lon="-0.0922900">
        <ele>1903.2</ele>
        <time>2022-07-24T08:09:51Z</time>
      </trkpt>
      <trkpt lat="42.6995490" lon="-0.0923290">
        <ele>1903.0</ele>
        <time>2022-07-24T08:09:53Z</time>
      </trkpt>
      <trkpt lat="42.6995350" lon="-0.0923860">
        <ele>1902.8</ele>
        <time>2022-07-24T08:09:56Z</time>
      </trkpt>
      <trkpt lat="42.6995360" lon="-0.0924120">
        <ele>1902.6</ele>
        <time>2022-07-24T08:09:58Z</time>
      </trkpt>
      <trkpt lat="42.6995390" lon="-0.0924290">
        <ele>1902.6</ele>
        <time>2022-07-24T08:09:59Z</time>
      </trkpt>
      <trkpt lat="42.6994790" lon="-0.0925560">
        <ele>1901.8</ele>
        <time>2022-07-24T08:10:06Z</time>
      </trkpt>
      <trkpt lat="42.6994690" lon="-0.0925850">
        <ele>1901.6</ele>
        <time>2022-07-24T08:10:08Z</time>
      </trkpt>
      <trkpt lat="42.6994400" lon="-0.0926360">
        <ele>1901.6</ele>
        <time>2022-07-24T08:10:11Z</time>
      </trkpt>
      <trkpt lat="42.6994220" lon="-0.0926510">
        <ele>1901.4</ele>
        <time>2022-07-24T08:10:12Z</time>
      </trkpt>
      <trkpt lat="42.6994050" lon="-0.0926680">
        <ele>1901.2</ele>
        <time>2022-07-24T08:10:13Z</time>
      </trkpt>
      <trkpt lat="42.6993900" lon="-0.0927290">
        <ele>1900.8</ele>
        <time>2022-07-24T08:10:16Z</time>
      </trkpt>
      <trkpt lat="42.6993870" lon="-0.0927450">
        <ele>1900.4</ele>
        <time>2022-07-24T08:10:18Z</time>
      </trkpt>
      <trkpt lat="42.6993860" lon="-0.0927540">
        <ele>1900.0</ele>
        <time>2022-07-24T08:10:19Z</time>
      </trkpt>
      <trkpt lat="42.6994030" lon="-0.0928130">
        <ele>1899.2</ele>
        <time>2022-07-24T08:10:23Z</time>
      </trkpt>
      <trkpt lat="42.6994100" lon="-0.0928270">
        <ele>1898.6</ele>
        <time>2022-07-24T08:10:25Z</time>
      </trkpt>
      <trkpt lat="42.6994120" lon="-0.0928300">
        <ele>1898.4</ele>
        <time>2022-07-24T08:10:26Z</time>
      </trkpt>
      <trkpt lat="42.6994190" lon="-0.0928470">
        <ele>1897.8</ele>
        <time>2022-07-24T08:10:28Z</time>
      </trkpt>
      <trkpt lat="42.6994250" lon="-0.0929000">
        <ele>1896.8</ele>
        <time>2022-07-24T08:10:32Z</time>
      </trkpt>
      <trkpt lat="42.6994430" lon="-0.0929040">
        <ele>1895.4</ele>
        <time>2022-07-24T08:10:34Z</time>
      </trkpt>
      <trkpt lat="42.6994530" lon="-0.0929040">
        <ele>1894.8</ele>
        <time>2022-07-24T08:10:36Z</time>
      </trkpt>
      <trkpt lat="42.6994420" lon="-0.0929080">
        <ele>1893.4</ele>
        <time>2022-07-24T08:10:38Z</time>
      </trkpt>
      <trkpt lat="42.6994240" lon="-0.0929130">
        <ele>1892.6</ele>
        <time>2022-07-24T08:10:39Z</time>
      </trkpt>
      <trkpt lat="42.6993990" lon="-0.0929330">
        <ele>1891.8</ele>
        <time>2022-07-24T08:10:41Z</time>
      </trkpt>
      <trkpt lat="42.6993680" lon="-0.0929450">
        <ele>1891.4</ele>
        <time>2022-07-24T08:10:42Z</time>
      </trkpt>
      <trkpt lat="42.6993720" lon="-0.0929470">
        <ele>1891.2</ele>
        <time>2022-07-24T08:10:43Z</time>
      </trkpt>
      <trkpt lat="42.6993730" lon="-0.0929660">
        <ele>1891.0</ele>
        <time>2022-07-24T08:10:44Z</time>
      </trkpt>
      <trkpt lat="42.6993930" lon="-0.0930230">
        <ele>1889.8</ele>
        <time>2022-07-24T08:10:47Z</time>
      </trkpt>
      <trkpt lat="42.6994050" lon="-0.0930590">
        <ele>1889.2</ele>
        <time>2022-07-24T08:10:49Z</time>
      </trkpt>
      <trkpt lat="42.6994070" lon="-0.0930790">
        <ele>1889.0</ele>
        <time>2022-07-24T08:10:50Z</time>
      </trkpt>
      <trkpt lat="42.6994060" lon="-0.0932220">
        <ele>1886.4</ele>
        <time>2022-07-24T08:10:56Z</time>
      </trkpt>
      <trkpt lat="42.6993950" lon="-0.0932430">
        <ele>1885.8</ele>
        <time>2022-07-24T08:10:57Z</time>
      </trkpt>
      <trkpt lat="42.6993250" lon="-0.0933390">
        <ele>1885.0</ele>
        <time>2022-07-24T08:11:03Z</time>
      </trkpt>
      <trkpt lat="42.6991920" lon="-0.0934490">
        <ele>1884.8</ele>
        <time>2022-07-24T08:11:11Z</time>
      </trkpt>
      <trkpt lat="42.6991940" lon="-0.0934620">
        <ele>1884.8</ele>
        <time>2022-07-24T08:11:12Z</time>
      </trkpt>
      <trkpt lat="42.6991920" lon="-0.0934740">
        <ele>1884.8</ele>
        <time>2022-07-24T08:11:13Z</time>
      </trkpt>
      <trkpt lat="42.6991900" lon="-0.0934960">
        <ele>1884.4</ele>
        <time>2022-07-24T08:11:15Z</time>
      </trkpt>
      <trkpt lat="42.6991890" lon="-0.0935280">
        <ele>1884.2</ele>
        <time>2022-07-24T08:11:17Z</time>
      </trkpt>
      <trkpt lat="42.6991980" lon="-0.0935420">
        <ele>1884.2</ele>
        <time>2022-07-24T08:11:18Z</time>
      </trkpt>
      <trkpt lat="42.6992130" lon="-0.0935580">
        <ele>1884.2</ele>
        <time>2022-07-24T08:11:19Z</time>
      </trkpt>
      <trkpt lat="42.6992270" lon="-0.0935940">
        <ele>1883.8</ele>
        <time>2022-07-24T08:11:21Z</time>
      </trkpt>
      <trkpt lat="42.6992210" lon="-0.0936130">
        <ele>1883.2</ele>
        <time>2022-07-24T08:11:22Z</time>
      </trkpt>
      <trkpt lat="42.6992060" lon="-0.0936320">
        <ele>1882.4</ele>
        <time>2022-07-24T08:11:23Z</time>
      </trkpt>
      <trkpt lat="42.6991740" lon="-0.0936920">
        <ele>1881.8</ele>
        <time>2022-07-24T08:11:26Z</time>
      </trkpt>
      <trkpt lat="42.6991690" lon="-0.0937160">
        <ele>1881.6</ele>
        <time>2022-07-24T08:11:27Z</time>
      </trkpt>
      <trkpt lat="42.6991550" lon="-0.0937820">
        <ele>1880.0</ele>
        <time>2022-07-24T08:11:30Z</time>
      </trkpt>
      <trkpt lat="42.6991330" lon="-0.0938520">
        <ele>1878.2</ele>
        <time>2022-07-24T08:11:34Z</time>
      </trkpt>
      <trkpt lat="42.6991260" lon="-0.0938740">
        <ele>1877.6</ele>
        <time>2022-07-24T08:11:35Z</time>
      </trkpt>
      <trkpt lat="42.6990910" lon="-0.0939870">
        <ele>1874.2</ele>
        <time>2022-07-24T08:11:41Z</time>
      </trkpt>
      <trkpt lat="42.6990980" lon="-0.0940040">
        <ele>1873.8</ele>
        <time>2022-07-24T08:11:42Z</time>
      </trkpt>
      <trkpt lat="42.6991010" lon="-0.0940170">
        <ele>1873.6</ele>
        <time>2022-07-24T08:11:43Z</time>
      </trkpt>
      <trkpt lat="42.6990950" lon="-0.0940600">
        <ele>1872.0</ele>
        <time>2022-07-24T08:11:46Z</time>
      </trkpt>
      <trkpt lat="42.6990890" lon="-0.0940710">
        <ele>1871.8</ele>
        <time>2022-07-24T08:11:47Z</time>
      </trkpt>
      <trkpt lat="42.6990870" lon="-0.0940950">
        <ele>1871.2</ele>
        <time>2022-07-24T08:11:49Z</time>
      </trkpt>
      <trkpt lat="42.6990940" lon="-0.0941080">
        <ele>1870.8</ele>
        <time>2022-07-24T08:11:50Z</time>
      </trkpt>
      <trkpt lat="42.6990920" lon="-0.0941180">
        <ele>1869.8</ele>
        <time>2022-07-24T08:11:51Z</time>
      </trkpt>
      <trkpt lat="42.6991180" lon="-0.0941500">
        <ele>1869.0</ele>
        <time>2022-07-24T08:11:53Z</time>
      </trkpt>
      <trkpt lat="42.6991430" lon="-0.0941660">
        <ele>1868.8</ele>
        <time>2022-07-24T08:11:54Z</time>
      </trkpt>
      <trkpt lat="42.6991550" lon="-0.0942370">
        <ele>1868.0</ele>
        <time>2022-07-24T08:11:58Z</time>
      </trkpt>
      <trkpt lat="42.6991590" lon="-0.0943130">
        <ele>1866.4</ele>
        <time>2022-07-24T08:12:02Z</time>
      </trkpt>
      <trkpt lat="42.6991380" lon="-0.0943540">
        <ele>1866.0</ele>
        <time>2022-07-24T08:12:04Z</time>
      </trkpt>
      <trkpt lat="42.6991370" lon="-0.0943730">
        <ele>1865.4</ele>
        <time>2022-07-24T08:12:05Z</time>
      </trkpt>
      <trkpt lat="42.6991300" lon="-0.0944520">
        <ele>1864.0</ele>
        <time>2022-07-24T08:12:10Z</time>
      </trkpt>
      <trkpt lat="42.6991390" lon="-0.0944680">
        <ele>1863.8</ele>
        <time>2022-07-24T08:12:11Z</time>
      </trkpt>
      <trkpt lat="42.6991880" lon="-0.0945210">
        <ele>1863.0</ele>
        <time>2022-07-24T08:12:14Z</time>
      </trkpt>
      <trkpt lat="42.6992010" lon="-0.0945340">
        <ele>1862.6</ele>
        <time>2022-07-24T08:12:15Z</time>
      </trkpt>
      <trkpt lat="42.6992130" lon="-0.0945480">
        <ele>1862.4</ele>
        <time>2022-07-24T08:12:16Z</time>
      </trkpt>
      <trkpt lat="42.6992120" lon="-0.0945780">
        <ele>1862.0</ele>
        <time>2022-07-24T08:12:18Z</time>
      </trkpt>
      <trkpt lat="42.6992090" lon="-0.0945940">
        <ele>1861.6</ele>
        <time>2022-07-24T08:12:19Z</time>
      </trkpt>
      <trkpt lat="42.6992100" lon="-0.0946070">
        <ele>1861.4</ele>
        <time>2022-07-24T08:12:20Z</time>
      </trkpt>
      <trkpt lat="42.6992150" lon="-0.0946430">
        <ele>1861.2</ele>
        <time>2022-07-24T08:12:22Z</time>
      </trkpt>
      <trkpt lat="42.6992300" lon="-0.0947130">
        <ele>1859.6</ele>
        <time>2022-07-24T08:12:26Z</time>
      </trkpt>
      <trkpt lat="42.6992400" lon="-0.0947480">
        <ele>1859.6</ele>
        <time>2022-07-24T08:12:27Z</time>
      </trkpt>
      <trkpt lat="42.6992640" lon="-0.0948170">
        <ele>1858.2</ele>
        <time>2022-07-24T08:12:30Z</time>
      </trkpt>
      <trkpt lat="42.6993210" lon="-0.0948660">
        <ele>1857.4</ele>
        <time>2022-07-24T08:12:33Z</time>
      </trkpt>
      <trkpt lat="42.6993600" lon="-0.0948970">
        <ele>1856.8</ele>
        <time>2022-07-24T08:12:35Z</time>
      </trkpt>
      <trkpt lat="42.6993580" lon="-0.0949170">
        <ele>1856.4</ele>
        <time>2022-07-24T08:12:36Z</time>
      </trkpt>
      <trkpt lat="42.6993720" lon="-0.0949330">
        <ele>1856.0</ele>
        <time>2022-07-24T08:12:37Z</time>
      </trkpt>
      <trkpt lat="42.6993710" lon="-0.0949710">
        <ele>1855.4</ele>
        <time>2022-07-24T08:12:39Z</time>
      </trkpt>
      <trkpt lat="42.6993670" lon="-0.0949990">
        <ele>1855.0</ele>
        <time>2022-07-24T08:12:40Z</time>
      </trkpt>
      <trkpt lat="42.6993630" lon="-0.0950420">
        <ele>1854.6</ele>
        <time>2022-07-24T08:12:42Z</time>
      </trkpt>
      <trkpt lat="42.6993680" lon="-0.0950820">
        <ele>1854.4</ele>
        <time>2022-07-24T08:12:44Z</time>
      </trkpt>
      <trkpt lat="42.6993360" lon="-0.0951900">
        <ele>1852.4</ele>
        <time>2022-07-24T08:12:50Z</time>
      </trkpt>
      <trkpt lat="42.6993210" lon="-0.0952040">
        <ele>1852.0</ele>
        <time>2022-07-24T08:12:51Z</time>
      </trkpt>
      <trkpt lat="42.6993130" lon="-0.0952210">
        <ele>1851.4</ele>
        <time>2022-07-24T08:12:52Z</time>
      </trkpt>
      <trkpt lat="42.6992990" lon="-0.0952380">
        <ele>1851.0</ele>
        <time>2022-07-24T08:12:53Z</time>
      </trkpt>
      <trkpt lat="42.6992550" lon="-0.0952960">
        <ele>1850.0</ele>
        <time>2022-07-24T08:12:56Z</time>
      </trkpt>
      <trkpt lat="42.6992410" lon="-0.0953340">
        <ele>1849.8</ele>
        <time>2022-07-24T08:12:58Z</time>
      </trkpt>
      <trkpt lat="42.6992370" lon="-0.0954140">
        <ele>1849.2</ele>
        <time>2022-07-24T08:13:02Z</time>
      </trkpt>
      <trkpt lat="42.6992760" lon="-0.0954710">
        <ele>1848.2</ele>
        <time>2022-07-24T08:13:05Z</time>
      </trkpt>
      <trkpt lat="42.6993170" lon="-0.0955330">
        <ele>1846.6</ele>
        <time>2022-07-24T08:13:08Z</time>
      </trkpt>
      <trkpt lat="42.6993350" lon="-0.0956000">
        <ele>1845.0</ele>
        <time>2022-07-24T08:13:12Z</time>
      </trkpt>
      <trkpt lat="42.6993560" lon="-0.0956500">
        <ele>1844.2</ele>
        <time>2022-07-24T08:13:15Z</time>
      </trkpt>
      <trkpt lat="42.6993570" lon="-0.0956950">
        <ele>1843.4</ele>
        <time>2022-07-24T08:13:18Z</time>
      </trkpt>
      <trkpt lat="42.6993510" lon="-0.0957450">
        <ele>1842.4</ele>
        <time>2022-07-24T08:13:21Z</time>
      </trkpt>
      <trkpt lat="42.6993530" lon="-0.0957640">
        <ele>1841.8</ele>
        <time>2022-07-24T08:13:22Z</time>
      </trkpt>
      <trkpt lat="42.6993450" lon="-0.0957830">
        <ele>1841.4</ele>
        <time>2022-07-24T08:13:23Z</time>
      </trkpt>
      <trkpt lat="42.6993430" lon="-0.0958220">
        <ele>1840.8</ele>
        <time>2022-07-24T08:13:25Z</time>
      </trkpt>
      <trkpt lat="42.6993390" lon="-0.0958360">
        <ele>1840.6</ele>
        <time>2022-07-24T08:13:26Z</time>
      </trkpt>
      <trkpt lat="42.6993590" lon="-0.0958850">
        <ele>1839.4</ele>
        <time>2022-07-24T08:13:28Z</time>
      </trkpt>
      <trkpt lat="42.6993680" lon="-0.0959270">
        <ele>1839.2</ele>
        <time>2022-07-24T08:13:30Z</time>
      </trkpt>
      <trkpt lat="42.6993690" lon="-0.0959450">
        <ele>1838.8</ele>
        <time>2022-07-24T08:13:31Z</time>
      </trkpt>
      <trkpt lat="42.6993760" lon="-0.0960230">
        <ele>1836.4</ele>
        <time>2022-07-24T08:13:35Z</time>
      </trkpt>
      <trkpt lat="42.6993750" lon="-0.0960660">
        <ele>1835.6</ele>
        <time>2022-07-24T08:13:37Z</time>
      </trkpt>
      <trkpt lat="42.6993680" lon="-0.0960830">
        <ele>1835.0</ele>
        <time>2022-07-24T08:13:38Z</time>
      </trkpt>
      <trkpt lat="42.6993640" lon="-0.0961000">
        <ele>1834.4</ele>
        <time>2022-07-24T08:13:39Z</time>
      </trkpt>
      <trkpt lat="42.6993440" lon="-0.0961570">
        <ele>1832.4</ele>
        <time>2022-07-24T08:13:42Z</time>
      </trkpt>
      <trkpt lat="42.6993370" lon="-0.0961750">
        <ele>1832.0</ele>
        <time>2022-07-24T08:13:43Z</time>
      </trkpt>
      <trkpt lat="42.6993200" lon="-0.0962520">
        <ele>1831.0</ele>
        <time>2022-07-24T08:13:47Z</time>
      </trkpt>
      <trkpt lat="42.6993180" lon="-0.0962760">
        <ele>1830.0</ele>
        <time>2022-07-24T08:13:48Z</time>
      </trkpt>
      <trkpt lat="42.6993110" lon="-0.0962960">
        <ele>1829.6</ele>
        <time>2022-07-24T08:13:49Z</time>
      </trkpt>
      <trkpt lat="42.6993010" lon="-0.0963720">
        <ele>1828.2</ele>
        <time>2022-07-24T08:13:53Z</time>
      </trkpt>
      <trkpt lat="42.6993050" lon="-0.0963920">
        <ele>1827.8</ele>
        <time>2022-07-24T08:13:54Z</time>
      </trkpt>
      <trkpt lat="42.6992990" lon="-0.0964100">
        <ele>1827.6</ele>
        <time>2022-07-24T08:13:55Z</time>
      </trkpt>
      <trkpt lat="42.6992960" lon="-0.0964320">
        <ele>1827.2</ele>
        <time>2022-07-24T08:13:56Z</time>
      </trkpt>
      <trkpt lat="42.6992870" lon="-0.0964920">
        <ele>1826.0</ele>
        <time>2022-07-24T08:13:59Z</time>
      </trkpt>
      <trkpt lat="42.6992760" lon="-0.0965590">
        <ele>1825.2</ele>
        <time>2022-07-24T08:14:02Z</time>
      </trkpt>
      <trkpt lat="42.6992630" lon="-0.0966000">
        <ele>1825.0</ele>
        <time>2022-07-24T08:14:04Z</time>
      </trkpt>
      <trkpt lat="42.6992560" lon="-0.0966540">
        <ele>1823.2</ele>
        <time>2022-07-24T08:14:06Z</time>
      </trkpt>
      <trkpt lat="42.6992480" lon="-0.0966830">
        <ele>1822.6</ele>
        <time>2022-07-24T08:14:07Z</time>
      </trkpt>
      <trkpt lat="42.6992260" lon="-0.0967430">
        <ele>1821.6</ele>
        <time>2022-07-24T08:14:09Z</time>
      </trkpt>
      <trkpt lat="42.6992240" lon="-0.0967730">
        <ele>1821.2</ele>
        <time>2022-07-24T08:14:10Z</time>
      </trkpt>
      <trkpt lat="42.6992260" lon="-0.0968250">
        <ele>1820.6</ele>
        <time>2022-07-24T08:14:12Z</time>
      </trkpt>
      <trkpt lat="42.6992180" lon="-0.0968530">
        <ele>1820.0</ele>
        <time>2022-07-24T08:14:13Z</time>
      </trkpt>
      <trkpt lat="42.6991960" lon="-0.0969320">
        <ele>1817.8</ele>
        <time>2022-07-24T08:14:16Z</time>
      </trkpt>
      <trkpt lat="42.6991930" lon="-0.0969960">
        <ele>1817.2</ele>
        <time>2022-07-24T08:14:18Z</time>
      </trkpt>
      <trkpt lat="42.6991960" lon="-0.0970310">
        <ele>1816.2</ele>
        <time>2022-07-24T08:14:19Z</time>
      </trkpt>
      <trkpt lat="42.6991940" lon="-0.0970940">
        <ele>1814.8</ele>
        <time>2022-07-24T08:14:21Z</time>
      </trkpt>
      <trkpt lat="42.6991740" lon="-0.0971380">
        <ele>1812.6</ele>
        <time>2022-07-24T08:14:23Z</time>
      </trkpt>
      <trkpt lat="42.6991590" lon="-0.0971590">
        <ele>1811.8</ele>
        <time>2022-07-24T08:14:24Z</time>
      </trkpt>
      <trkpt lat="42.6991520" lon="-0.0971800">
        <ele>1811.6</ele>
        <time>2022-07-24T08:14:25Z</time>
      </trkpt>
      <trkpt lat="42.6991320" lon="-0.0972900">
        <ele>1808.2</ele>
        <time>2022-07-24T08:14:30Z</time>
      </trkpt>
      <trkpt lat="42.6991180" lon="-0.0973370">
        <ele>1807.0</ele>
        <time>2022-07-24T08:14:32Z</time>
      </trkpt>
      <trkpt lat="42.6991560" lon="-0.0974460">
        <ele>1805.8</ele>
        <time>2022-07-24T08:14:37Z</time>
      </trkpt>
      <trkpt lat="42.6991620" lon="-0.0974640">
        <ele>1805.6</ele>
        <time>2022-07-24T08:14:38Z</time>
      </trkpt>
      <trkpt lat="42.6991750" lon="-0.0974820">
        <ele>1805.4</ele>
        <time>2022-07-24T08:14:39Z</time>
      </trkpt>
      <trkpt lat="42.6991880" lon="-0.0975010">
        <ele>1804.6</ele>
        <time>2022-07-24T08:14:40Z</time>
      </trkpt>
      <trkpt lat="42.6991960" lon="-0.0975180">
        <ele>1803.8</ele>
        <time>2022-07-24T08:14:41Z</time>
      </trkpt>
      <trkpt lat="42.6992020" lon="-0.0975520">
        <ele>1803.2</ele>
        <time>2022-07-24T08:14:43Z</time>
      </trkpt>
      <trkpt lat="42.6991880" lon="-0.0975740">
        <ele>1802.8</ele>
        <time>2022-07-24T08:14:45Z</time>
      </trkpt>
      <trkpt lat="42.6991680" lon="-0.0975910">
        <ele>1802.6</ele>
        <time>2022-07-24T08:14:46Z</time>
      </trkpt>
      <trkpt lat="42.6991370" lon="-0.0976200">
        <ele>1801.8</ele>
        <time>2022-07-24T08:14:48Z</time>
      </trkpt>
      <trkpt lat="42.6990680" lon="-0.0977100">
        <ele>1800.2</ele>
        <time>2022-07-24T08:14:53Z</time>
      </trkpt>
      <trkpt lat="42.6990680" lon="-0.0977250">
        <ele>1799.8</ele>
        <time>2022-07-24T08:14:54Z</time>
      </trkpt>
      <trkpt lat="42.6990760" lon="-0.0977500">
        <ele>1799.4</ele>
        <time>2022-07-24T08:14:56Z</time>
      </trkpt>
      <trkpt lat="42.6990920" lon="-0.0977580">
        <ele>1799.0</ele>
        <time>2022-07-24T08:14:57Z</time>
      </trkpt>
      <trkpt lat="42.6991120" lon="-0.0977680">
        <ele>1798.2</ele>
        <time>2022-07-24T08:14:59Z</time>
      </trkpt>
      <trkpt lat="42.6991800" lon="-0.0977770">
        <ele>1796.8</ele>
        <time>2022-07-24T08:15:02Z</time>
      </trkpt>
      <trkpt lat="42.6991940" lon="-0.0977750">
        <ele>1796.4</ele>
        <time>2022-07-24T08:15:03Z</time>
      </trkpt>
      <trkpt lat="42.6992160" lon="-0.0977740">
        <ele>1796.4</ele>
        <time>2022-07-24T08:15:04Z</time>
      </trkpt>
      <trkpt lat="42.6992350" lon="-0.0977740">
        <ele>1796.0</ele>
        <time>2022-07-24T08:15:05Z</time>
      </trkpt>
      <trkpt lat="42.6992420" lon="-0.0977770">
        <ele>1795.8</ele>
        <time>2022-07-24T08:15:06Z</time>
      </trkpt>
      <trkpt lat="42.6992370" lon="-0.0977930">
        <ele>1794.4</ele>
        <time>2022-07-24T08:15:10Z</time>
      </trkpt>
      <trkpt lat="42.6992290" lon="-0.0977920">
        <ele>1794.0</ele>
        <time>2022-07-24T08:15:11Z</time>
      </trkpt>
      <trkpt lat="42.6992230" lon="-0.0977910">
        <ele>1794.0</ele>
        <time>2022-07-24T08:15:12Z</time>
      </trkpt>
      <trkpt lat="42.6992860" lon="-0.0977980">
        <ele>1793.0</ele>
        <time>2022-07-24T08:15:15Z</time>
      </trkpt>
      <trkpt lat="42.6993040" lon="-0.0978090">
        <ele>1792.8</ele>
        <time>2022-07-24T08:15:16Z</time>
      </trkpt>
      <trkpt lat="42.6993170" lon="-0.0978210">
        <ele>1792.2</ele>
        <time>2022-07-24T08:15:17Z</time>
      </trkpt>
      <trkpt lat="42.6993210" lon="-0.0978330">
        <ele>1792.0</ele>
        <time>2022-07-24T08:15:18Z</time>
      </trkpt>
      <trkpt lat="42.6993190" lon="-0.0978470">
        <ele>1791.6</ele>
        <time>2022-07-24T08:15:19Z</time>
      </trkpt>
      <trkpt lat="42.6993100" lon="-0.0978680">
        <ele>1791.4</ele>
        <time>2022-07-24T08:15:20Z</time>
      </trkpt>
      <trkpt lat="42.6993010" lon="-0.0978810">
        <ele>1791.0</ele>
        <time>2022-07-24T08:15:21Z</time>
      </trkpt>
      <trkpt lat="42.6992900" lon="-0.0978920">
        <ele>1790.6</ele>
        <time>2022-07-24T08:15:22Z</time>
      </trkpt>
      <trkpt lat="42.6992440" lon="-0.0979300">
        <ele>1789.8</ele>
        <time>2022-07-24T08:15:25Z</time>
      </trkpt>
      <trkpt lat="42.6992150" lon="-0.0979490">
        <ele>1789.0</ele>
        <time>2022-07-24T08:15:27Z</time>
      </trkpt>
      <trkpt lat="42.6991980" lon="-0.0979710">
        <ele>1788.0</ele>
        <time>2022-07-24T08:15:29Z</time>
      </trkpt>
      <trkpt lat="42.6991700" lon="-0.0980330">
        <ele>1786.4</ele>
        <time>2022-07-24T08:15:33Z</time>
      </trkpt>
      <trkpt lat="42.6991540" lon="-0.0980720">
        <ele>1785.6</ele>
        <time>2022-07-24T08:15:35Z</time>
      </trkpt>
      <trkpt lat="42.6990780" lon="-0.0981630">
        <ele>1784.0</ele>
        <time>2022-07-24T08:15:40Z</time>
      </trkpt>
      <trkpt lat="42.6990760" lon="-0.0981790">
        <ele>1783.6</ele>
        <time>2022-07-24T08:15:41Z</time>
      </trkpt>
      <trkpt lat="42.6990740" lon="-0.0982160">
        <ele>1783.4</ele>
        <time>2022-07-24T08:15:43Z</time>
      </trkpt>
      <trkpt lat="42.6990790" lon="-0.0982320">
        <ele>1782.8</ele>
        <time>2022-07-24T08:15:44Z</time>
      </trkpt>
      <trkpt lat="42.6990960" lon="-0.0982370">
        <ele>1782.2</ele>
        <time>2022-07-24T08:15:46Z</time>
      </trkpt>
      <trkpt lat="42.6991080" lon="-0.0982310">
        <ele>1782.0</ele>
        <time>2022-07-24T08:15:47Z</time>
      </trkpt>
      <trkpt lat="42.6991290" lon="-0.0982190">
        <ele>1781.2</ele>
        <time>2022-07-24T08:15:49Z</time>
      </trkpt>
      <trkpt lat="42.6991380" lon="-0.0982230">
        <ele>1781.0</ele>
        <time>2022-07-24T08:15:50Z</time>
      </trkpt>
      <trkpt lat="42.6991530" lon="-0.0982280">
        <ele>1780.4</ele>
        <time>2022-07-24T08:15:51Z</time>
      </trkpt>
      <trkpt lat="42.6991710" lon="-0.0982300">
        <ele>1780.2</ele>
        <time>2022-07-24T08:15:52Z</time>
      </trkpt>
      <trkpt lat="42.6992640" lon="-0.0982500">
        <ele>1779.2</ele>
        <time>2022-07-24T08:15:54Z</time>
      </trkpt>
      <trkpt lat="42.6993540" lon="-0.0982680">
        <ele>1778.8</ele>
        <time>2022-07-24T08:15:56Z</time>
      </trkpt>
      <trkpt lat="42.6993900" lon="-0.0982870">
        <ele>1778.4</ele>
        <time>2022-07-24T08:15:57Z</time>
      </trkpt>
      <trkpt lat="42.6994190" lon="-0.0983280">
        <ele>1778.2</ele>
        <time>2022-07-24T08:15:59Z</time>
      </trkpt>
      <trkpt lat="42.6994290" lon="-0.0983600">
        <ele>1778.0</ele>
        <time>2022-07-24T08:16:00Z</time>
      </trkpt>
      <trkpt lat="42.6994510" lon="-0.0984550">
        <ele>1777.0</ele>
        <time>2022-07-24T08:16:03Z</time>
      </trkpt>
      <trkpt lat="42.6994510" lon="-0.0984800">
        <ele>1776.6</ele>
        <time>2022-07-24T08:16:04Z</time>
      </trkpt>
      <trkpt lat="42.6994490" lon="-0.0985060">
        <ele>1776.0</ele>
        <time>2022-07-24T08:16:05Z</time>
      </trkpt>
      <trkpt lat="42.6994470" lon="-0.0985360">
        <ele>1775.6</ele>
        <time>2022-07-24T08:16:06Z</time>
      </trkpt>
      <trkpt lat="42.6994410" lon="-0.0985680">
        <ele>1775.2</ele>
        <time>2022-07-24T08:16:07Z</time>
      </trkpt>
      <trkpt lat="42.6994320" lon="-0.0986180">
        <ele>1774.4</ele>
        <time>2022-07-24T08:16:09Z</time>
      </trkpt>
      <trkpt lat="42.6994230" lon="-0.0986380">
        <ele>1774.0</ele>
        <time>2022-07-24T08:16:10Z</time>
      </trkpt>
      <trkpt lat="42.6994050" lon="-0.0986700">
        <ele>1773.8</ele>
        <time>2022-07-24T08:16:12Z</time>
      </trkpt>
      <trkpt lat="42.6993890" lon="-0.0986960">
        <ele>1773.4</ele>
        <time>2022-07-24T08:16:14Z</time>
      </trkpt>
      <trkpt lat="42.6993810" lon="-0.0987040">
        <ele>1772.4</ele>
        <time>2022-07-24T08:16:15Z</time>
      </trkpt>
      <trkpt lat="42.6993910" lon="-0.0987260">
        <ele>1771.8</ele>
        <time>2022-07-24T08:16:17Z</time>
      </trkpt>
      <trkpt lat="42.6993950" lon="-0.0987320">
        <ele>1771.4</ele>
        <time>2022-07-24T08:16:18Z</time>
      </trkpt>
      <trkpt lat="42.6994210" lon="-0.0987460">
        <ele>1770.6</ele>
        <time>2022-07-24T08:16:21Z</time>
      </trkpt>
      <trkpt lat="42.6994240" lon="-0.0987500">
        <ele>1770.6</ele>
        <time>2022-07-24T08:16:22Z</time>
      </trkpt>
      <trkpt lat="42.6994280" lon="-0.0987540">
        <ele>1770.4</ele>
        <time>2022-07-24T08:16:23Z</time>
      </trkpt>
      <trkpt lat="42.6994480" lon="-0.0987490">
        <ele>1770.4</ele>
        <time>2022-07-24T08:16:24Z</time>
      </trkpt>
      <trkpt lat="42.6994540" lon="-0.0987530">
        <ele>1770.0</ele>
        <time>2022-07-24T08:16:25Z</time>
      </trkpt>
      <trkpt lat="42.6994570" lon="-0.0987620">
        <ele>1769.6</ele>
        <time>2022-07-24T08:16:26Z</time>
      </trkpt>
      <trkpt lat="42.6994700" lon="-0.0987980">
        <ele>1769.4</ele>
        <time>2022-07-24T08:16:28Z</time>
      </trkpt>
      <trkpt lat="42.6994680" lon="-0.0988150">
        <ele>1769.4</ele>
        <time>2022-07-24T08:16:29Z</time>
      </trkpt>
      <trkpt lat="42.6994630" lon="-0.0988480">
        <ele>1769.0</ele>
        <time>2022-07-24T08:16:32Z</time>
      </trkpt>
      <trkpt lat="42.6994580" lon="-0.0988600">
        <ele>1768.6</ele>
        <time>2022-07-24T08:16:33Z</time>
      </trkpt>
      <trkpt lat="42.6994470" lon="-0.0988690">
        <ele>1768.4</ele>
        <time>2022-07-24T08:16:34Z</time>
      </trkpt>
      <trkpt lat="42.6994100" lon="-0.0989080">
        <ele>1766.8</ele>
        <time>2022-07-24T08:16:38Z</time>
      </trkpt>
      <trkpt lat="42.6994070" lon="-0.0989280">
        <ele>1766.6</ele>
        <time>2022-07-24T08:16:39Z</time>
      </trkpt>
      <trkpt lat="42.6994040" lon="-0.0989470">
        <ele>1766.2</ele>
        <time>2022-07-24T08:16:40Z</time>
      </trkpt>
      <trkpt lat="42.6994090" lon="-0.0989970">
        <ele>1765.4</ele>
        <time>2022-07-24T08:16:42Z</time>
      </trkpt>
      <trkpt lat="42.6994090" lon="-0.0990340">
        <ele>1765.0</ele>
        <time>2022-07-24T08:16:44Z</time>
      </trkpt>
      <trkpt lat="42.6994130" lon="-0.0990490">
        <ele>1764.4</ele>
        <time>2022-07-24T08:16:45Z</time>
      </trkpt>
      <trkpt lat="42.6994160" lon="-0.0991010">
        <ele>1763.8</ele>
        <time>2022-07-24T08:16:49Z</time>
      </trkpt>
      <trkpt lat="42.6994190" lon="-0.0991200">
        <ele>1763.6</ele>
        <time>2022-07-24T08:16:50Z</time>
      </trkpt>
      <trkpt lat="42.6994190" lon="-0.0991390">
        <ele>1763.2</ele>
        <time>2022-07-24T08:16:51Z</time>
      </trkpt>
      <trkpt lat="42.6994140" lon="-0.0991630">
        <ele>1762.8</ele>
        <time>2022-07-24T08:16:52Z</time>
      </trkpt>
      <trkpt lat="42.6993960" lon="-0.0992230">
        <ele>1761.2</ele>
        <time>2022-07-24T08:16:55Z</time>
      </trkpt>
      <trkpt lat="42.6994090" lon="-0.0992720">
        <ele>1760.6</ele>
        <time>2022-07-24T08:16:57Z</time>
      </trkpt>
      <trkpt lat="42.6994460" lon="-0.0993490">
        <ele>1759.4</ele>
        <time>2022-07-24T08:17:00Z</time>
      </trkpt>
      <trkpt lat="42.6994560" lon="-0.0993720">
        <ele>1759.2</ele>
        <time>2022-07-24T08:17:01Z</time>
      </trkpt>
      <trkpt lat="42.6994670" lon="-0.0994080">
        <ele>1758.4</ele>
        <time>2022-07-24T08:17:03Z</time>
      </trkpt>
      <trkpt lat="42.6994730" lon="-0.0994240">
        <ele>1758.2</ele>
        <time>2022-07-24T08:17:04Z</time>
      </trkpt>
      <trkpt lat="42.6994770" lon="-0.0994320">
        <ele>1757.6</ele>
        <time>2022-07-24T08:17:05Z</time>
      </trkpt>
      <trkpt lat="42.6994840" lon="-0.0994380">
        <ele>1757.0</ele>
        <time>2022-07-24T08:17:06Z</time>
      </trkpt>
      <trkpt lat="42.6994940" lon="-0.0994460">
        <ele>1755.4</ele>
        <time>2022-07-24T08:17:07Z</time>
      </trkpt>
      <trkpt lat="42.6995080" lon="-0.0994550">
        <ele>1754.6</ele>
        <time>2022-07-24T08:17:08Z</time>
      </trkpt>
      <trkpt lat="42.6995380" lon="-0.0994760">
        <ele>1752.4</ele>
        <time>2022-07-24T08:17:10Z</time>
      </trkpt>
      <trkpt lat="42.6995500" lon="-0.0994870">
        <ele>1751.8</ele>
        <time>2022-07-24T08:17:11Z</time>
      </trkpt>
      <trkpt lat="42.6995610" lon="-0.0995000">
        <ele>1751.4</ele>
        <time>2022-07-24T08:17:12Z</time>
      </trkpt>
      <trkpt lat="42.6995730" lon="-0.0995100">
        <ele>1751.2</ele>
        <time>2022-07-24T08:17:13Z</time>
      </trkpt>
      <trkpt lat="42.6996060" lon="-0.0995310">
        <ele>1750.4</ele>
        <time>2022-07-24T08:17:15Z</time>
      </trkpt>
      <trkpt lat="42.6996340" lon="-0.0995820">
        <ele>1748.6</ele>
        <time>2022-07-24T08:17:18Z</time>
      </trkpt>
      <trkpt lat="42.6996440" lon="-0.0996470">
        <ele>1747.4</ele>
        <time>2022-07-24T08:17:22Z</time>
      </trkpt>
      <trkpt lat="42.6996480" lon="-0.0996660">
        <ele>1746.6</ele>
        <time>2022-07-24T08:17:24Z</time>
      </trkpt>
      <trkpt lat="42.6996490" lon="-0.0996880">
        <ele>1745.6</ele>
        <time>2022-07-24T08:17:27Z</time>
      </trkpt>
      <trkpt lat="42.6996540" lon="-0.0997090">
        <ele>1744.8</ele>
        <time>2022-07-24T08:17:29Z</time>
      </trkpt>
      <trkpt lat="42.6996520" lon="-0.0997360">
        <ele>1744.4</ele>
        <time>2022-07-24T08:17:31Z</time>
      </trkpt>
      <trkpt lat="42.6996520" lon="-0.0997570">
        <ele>1743.8</ele>
        <time>2022-07-24T08:17:33Z</time>
      </trkpt>
      <trkpt lat="42.6996710" lon="-0.0997620">
        <ele>1742.8</ele>
        <time>2022-07-24T08:17:35Z</time>
      </trkpt>
      <trkpt lat="42.6996840" lon="-0.0997680">
        <ele>1742.2</ele>
        <time>2022-07-24T08:17:36Z</time>
      </trkpt>
      <trkpt lat="42.6996940" lon="-0.0997760">
        <ele>1742.0</ele>
        <time>2022-07-24T08:17:37Z</time>
      </trkpt>
      <trkpt lat="42.6996990" lon="-0.0997830">
        <ele>1741.4</ele>
        <time>2022-07-24T08:17:38Z</time>
      </trkpt>
      <trkpt lat="42.6997250" lon="-0.0998130">
        <ele>1739.4</ele>
        <time>2022-07-24T08:17:42Z</time>
      </trkpt>
      <trkpt lat="42.6997290" lon="-0.0998270">
        <ele>1739.0</ele>
        <time>2022-07-24T08:17:43Z</time>
      </trkpt>
      <trkpt lat="42.6997390" lon="-0.0998400">
        <ele>1738.4</ele>
        <time>2022-07-24T08:17:44Z</time>
      </trkpt>
      <trkpt lat="42.6997680" lon="-0.0999140">
        <ele>1738.0</ele>
        <time>2022-07-24T08:17:47Z</time>
      </trkpt>
      <trkpt lat="42.6997780" lon="-0.0999500">
        <ele>1737.4</ele>
        <time>2022-07-24T08:17:48Z</time>
      </trkpt>
      <trkpt lat="42.6997770" lon="-0.0999770">
        <ele>1737.4</ele>
        <time>2022-07-24T08:17:49Z</time>
      </trkpt>
      <trkpt lat="42.6997800" lon="-0.1000360">
        <ele>1736.6</ele>
        <time>2022-07-24T08:17:51Z</time>
      </trkpt>
      <trkpt lat="42.6997870" lon="-0.1000800">
        <ele>1735.6</ele>
        <time>2022-07-24T08:17:53Z</time>
      </trkpt>
      <trkpt lat="42.6997850" lon="-0.1001000">
        <ele>1734.6</ele>
        <time>2022-07-24T08:17:54Z</time>
      </trkpt>
      <trkpt lat="42.6997880" lon="-0.1001410">
        <ele>1733.8</ele>
        <time>2022-07-24T08:17:56Z</time>
      </trkpt>
      <trkpt lat="42.6998020" lon="-0.1002030">
        <ele>1731.8</ele>
        <time>2022-07-24T08:17:59Z</time>
      </trkpt>
      <trkpt lat="42.6998140" lon="-0.1002210">
        <ele>1731.2</ele>
        <time>2022-07-24T08:18:00Z</time>
      </trkpt>
      <trkpt lat="42.6998290" lon="-0.1002330">
        <ele>1730.2</ele>
        <time>2022-07-24T08:18:01Z</time>
      </trkpt>
      <trkpt lat="42.6998450" lon="-0.1002800">
        <ele>1729.8</ele>
        <time>2022-07-24T08:18:03Z</time>
      </trkpt>
      <trkpt lat="42.6998460" lon="-0.1003020">
        <ele>1729.4</ele>
        <time>2022-07-24T08:18:04Z</time>
      </trkpt>
      <trkpt lat="42.6998530" lon="-0.1003240">
        <ele>1728.6</ele>
        <time>2022-07-24T08:18:05Z</time>
      </trkpt>
      <trkpt lat="42.6998590" lon="-0.1003410">
        <ele>1728.2</ele>
        <time>2022-07-24T08:18:06Z</time>
      </trkpt>
      <trkpt lat="42.6998650" lon="-0.1003620">
        <ele>1727.8</ele>
        <time>2022-07-24T08:18:07Z</time>
      </trkpt>
      <trkpt lat="42.6998690" lon="-0.1003840">
        <ele>1727.8</ele>
        <time>2022-07-24T08:18:08Z</time>
      </trkpt>
      <trkpt lat="42.6998820" lon="-0.1004150">
        <ele>1726.8</ele>
        <time>2022-07-24T08:18:10Z</time>
      </trkpt>
      <trkpt lat="42.6998970" lon="-0.1004280">
        <ele>1726.6</ele>
        <time>2022-07-24T08:18:11Z</time>
      </trkpt>
      <trkpt lat="42.6999130" lon="-0.1004350">
        <ele>1726.0</ele>
        <time>2022-07-24T08:18:12Z</time>
      </trkpt>
      <trkpt lat="42.6999250" lon="-0.1004470">
        <ele>1725.8</ele>
        <time>2022-07-24T08:18:13Z</time>
      </trkpt>
      <trkpt lat="42.6999310" lon="-0.1004620">
        <ele>1725.2</ele>
        <time>2022-07-24T08:18:14Z</time>
      </trkpt>
      <trkpt lat="42.6999350" lon="-0.1004900">
        <ele>1724.2</ele>
        <time>2022-07-24T08:18:16Z</time>
      </trkpt>
      <trkpt lat="42.6999350" lon="-0.1005120">
        <ele>1724.2</ele>
        <time>2022-07-24T08:18:17Z</time>
      </trkpt>
      <trkpt lat="42.6999470" lon="-0.1006000">
        <ele>1722.4</ele>
        <time>2022-07-24T08:18:22Z</time>
      </trkpt>
      <trkpt lat="42.6999580" lon="-0.1006050">
        <ele>1721.8</ele>
        <time>2022-07-24T08:18:23Z</time>
      </trkpt>
      <trkpt lat="42.6999630" lon="-0.1006100">
        <ele>1721.6</ele>
        <time>2022-07-24T08:18:24Z</time>
      </trkpt>
      <trkpt lat="42.6999720" lon="-0.1006140">
        <ele>1721.2</ele>
        <time>2022-07-24T08:18:25Z</time>
      </trkpt>
      <trkpt lat="42.6999920" lon="-0.1006260">
        <ele>1720.0</ele>
        <time>2022-07-24T08:18:27Z</time>
      </trkpt>
      <trkpt lat="42.7000120" lon="-0.1006440">
        <ele>1719.8</ele>
        <time>2022-07-24T08:18:29Z</time>
      </trkpt>
      <trkpt lat="42.7000270" lon="-0.1006520">
        <ele>1719.4</ele>
        <time>2022-07-24T08:18:30Z</time>
      </trkpt>
      <trkpt lat="42.7000380" lon="-0.1006630">
        <ele>1718.8</ele>
        <time>2022-07-24T08:18:31Z</time>
      </trkpt>
      <trkpt lat="42.7000800" lon="-0.1007070">
        <ele>1718.0</ele>
        <time>2022-07-24T08:18:34Z</time>
      </trkpt>
      <trkpt lat="42.7000930" lon="-0.1007270">
        <ele>1717.6</ele>
        <time>2022-07-24T08:18:35Z</time>
      </trkpt>
      <trkpt lat="42.7001040" lon="-0.1007650">
        <ele>1717.0</ele>
        <time>2022-07-24T08:18:37Z</time>
      </trkpt>
      <trkpt lat="42.7001000" lon="-0.1007870">
        <ele>1716.4</ele>
        <time>2022-07-24T08:18:38Z</time>
      </trkpt>
      <trkpt lat="42.7000970" lon="-0.1008240">
        <ele>1715.8</ele>
        <time>2022-07-24T08:18:40Z</time>
      </trkpt>
      <trkpt lat="42.7001010" lon="-0.1008440">
        <ele>1715.8</ele>
        <time>2022-07-24T08:18:41Z</time>
      </trkpt>
      <trkpt lat="42.7001020" lon="-0.1008920">
        <ele>1714.8</ele>
        <time>2022-07-24T08:18:43Z</time>
      </trkpt>
      <trkpt lat="42.7000750" lon="-0.1009650">
        <ele>1713.6</ele>
        <time>2022-07-24T08:18:47Z</time>
      </trkpt>
      <trkpt lat="42.7000540" lon="-0.1010170">
        <ele>1712.4</ele>
        <time>2022-07-24T08:18:50Z</time>
      </trkpt>
      <trkpt lat="42.7000410" lon="-0.1010440">
        <ele>1711.0</ele>
        <time>2022-07-24T08:18:52Z</time>
      </trkpt>
      <trkpt lat="42.7000040" lon="-0.1010660">
        <ele>1710.0</ele>
        <time>2022-07-24T08:18:55Z</time>
      </trkpt>
      <trkpt lat="42.6999720" lon="-0.1010620">
        <ele>1709.6</ele>
        <time>2022-07-24T08:18:57Z</time>
      </trkpt>
      <trkpt lat="42.6999560" lon="-0.1010770">
        <ele>1708.4</ele>
        <time>2022-07-24T08:18:59Z</time>
      </trkpt>
      <trkpt lat="42.6999450" lon="-0.1010940">
        <ele>1707.2</ele>
        <time>2022-07-24T08:19:02Z</time>
      </trkpt>
      <trkpt lat="42.6999480" lon="-0.1011020">
        <ele>1706.8</ele>
        <time>2022-07-24T08:19:03Z</time>
      </trkpt>
      <trkpt lat="42.6999590" lon="-0.1011160">
        <ele>1706.2</ele>
        <time>2022-07-24T08:19:06Z</time>
      </trkpt>
      <trkpt lat="42.6999580" lon="-0.1011340">
        <ele>1705.8</ele>
        <time>2022-07-24T08:19:07Z</time>
      </trkpt>
      <trkpt lat="42.6999540" lon="-0.1011500">
        <ele>1705.6</ele>
        <time>2022-07-24T08:19:08Z</time>
      </trkpt>
      <trkpt lat="42.6999450" lon="-0.1011830">
        <ele>1704.8</ele>
        <time>2022-07-24T08:19:09Z</time>
      </trkpt>
      <trkpt lat="42.6999280" lon="-0.1012150">
        <ele>1704.2</ele>
        <time>2022-07-24T08:19:10Z</time>
      </trkpt>
      <trkpt lat="42.6999050" lon="-0.1012370">
        <ele>1703.8</ele>
        <time>2022-07-24T08:19:11Z</time>
      </trkpt>
      <trkpt lat="42.6998880" lon="-0.1012490">
        <ele>1703.6</ele>
        <time>2022-07-24T08:19:12Z</time>
      </trkpt>
      <trkpt lat="42.6998790" lon="-0.1012560">
        <ele>1703.0</ele>
        <time>2022-07-24T08:19:13Z</time>
      </trkpt>
      <trkpt lat="42.6998800" lon="-0.1012570">
        <ele>1702.6</ele>
        <time>2022-07-24T08:19:14Z</time>
      </trkpt>
      <trkpt lat="42.6998900" lon="-0.1012650">
        <ele>1702.2</ele>
        <time>2022-07-24T08:19:15Z</time>
      </trkpt>
      <trkpt lat="42.6998950" lon="-0.1012740">
        <ele>1701.8</ele>
        <time>2022-07-24T08:19:16Z</time>
      </trkpt>
      <trkpt lat="42.6999250" lon="-0.1012760">
        <ele>1700.8</ele>
        <time>2022-07-24T08:19:17Z</time>
      </trkpt>
      <trkpt lat="42.6999330" lon="-0.1012840">
        <ele>1700.6</ele>
        <time>2022-07-24T08:19:18Z</time>
      </trkpt>
      <trkpt lat="42.6999380" lon="-0.1013070">
        <ele>1699.8</ele>
        <time>2022-07-24T08:19:20Z</time>
      </trkpt>
      <trkpt lat="42.6999490" lon="-0.1013510">
        <ele>1698.4</ele>
        <time>2022-07-24T08:19:23Z</time>
      </trkpt>
      <trkpt lat="42.6999570" lon="-0.1013610">
        <ele>1698.0</ele>
        <time>2022-07-24T08:19:24Z</time>
      </trkpt>
      <trkpt lat="42.6999650" lon="-0.1013990">
        <ele>1696.8</ele>
        <time>2022-07-24T08:19:27Z</time>
      </trkpt>
      <trkpt lat="42.6999670" lon="-0.1014150">
        <ele>1696.2</ele>
        <time>2022-07-24T08:19:28Z</time>
      </trkpt>
      <trkpt lat="42.6999680" lon="-0.1014300">
        <ele>1695.4</ele>
        <time>2022-07-24T08:19:30Z</time>
      </trkpt>
      <trkpt lat="42.6999670" lon="-0.1014310">
        <ele>1694.6</ele>
        <time>2022-07-24T08:19:31Z</time>
      </trkpt>
      <trkpt lat="42.6999770" lon="-0.1014040">
        <ele>1693.6</ele>
        <time>2022-07-24T08:19:35Z</time>
      </trkpt>
      <trkpt lat="42.6999910" lon="-0.1013980">
        <ele>1693.2</ele>
        <time>2022-07-24T08:19:37Z</time>
      </trkpt>
      <trkpt lat="42.7000000" lon="-0.1013990">
        <ele>1692.8</ele>
        <time>2022-07-24T08:19:38Z</time>
      </trkpt>
      <trkpt lat="42.7000360" lon="-0.1014080">
        <ele>1691.6</ele>
        <time>2022-07-24T08:19:40Z</time>
      </trkpt>
      <trkpt lat="42.7000780" lon="-0.1014600">
        <ele>1690.6</ele>
        <time>2022-07-24T08:19:43Z</time>
      </trkpt>
      <trkpt lat="42.7000820" lon="-0.1014750">
        <ele>1690.2</ele>
        <time>2022-07-24T08:19:44Z</time>
      </trkpt>
      <trkpt lat="42.7000840" lon="-0.1014920">
        <ele>1690.0</ele>
        <time>2022-07-24T08:19:45Z</time>
      </trkpt>
      <trkpt lat="42.7000720" lon="-0.1015480">
        <ele>1688.2</ele>
        <time>2022-07-24T08:19:49Z</time>
      </trkpt>
      <trkpt lat="42.7000580" lon="-0.1015610">
        <ele>1687.6</ele>
        <time>2022-07-24T08:19:50Z</time>
      </trkpt>
      <trkpt lat="42.7000220" lon="-0.1016000">
        <ele>1687.0</ele>
        <time>2022-07-24T08:19:54Z</time>
      </trkpt>
      <trkpt lat="42.7000300" lon="-0.1016150">
        <ele>1686.6</ele>
        <time>2022-07-24T08:19:55Z</time>
      </trkpt>
      <trkpt lat="42.7000270" lon="-0.1016300">
        <ele>1686.4</ele>
        <time>2022-07-24T08:19:56Z</time>
      </trkpt>
      <trkpt lat="42.7000260" lon="-0.1016920">
        <ele>1685.8</ele>
        <time>2022-07-24T08:19:59Z</time>
      </trkpt>
      <trkpt lat="42.7000100" lon="-0.1017280">
        <ele>1685.2</ele>
        <time>2022-07-24T08:20:01Z</time>
      </trkpt>
      <trkpt lat="42.6999930" lon="-0.1017410">
        <ele>1684.8</ele>
        <time>2022-07-24T08:20:02Z</time>
      </trkpt>
      <trkpt lat="42.6999770" lon="-0.1017540">
        <ele>1684.2</ele>
        <time>2022-07-24T08:20:03Z</time>
      </trkpt>
      <trkpt lat="42.6999560" lon="-0.1017640">
        <ele>1684.0</ele>
        <time>2022-07-24T08:20:04Z</time>
      </trkpt>
      <trkpt lat="42.6999440" lon="-0.1017880">
        <ele>1683.2</ele>
        <time>2022-07-24T08:20:06Z</time>
      </trkpt>
      <trkpt lat="42.6999430" lon="-0.1018070">
        <ele>1682.6</ele>
        <time>2022-07-24T08:20:07Z</time>
      </trkpt>
      <trkpt lat="42.6999080" lon="-0.1018460">
        <ele>1681.8</ele>
        <time>2022-07-24T08:20:10Z</time>
      </trkpt>
      <trkpt lat="42.6998760" lon="-0.1019150">
        <ele>1680.6</ele>
        <time>2022-07-24T08:20:13Z</time>
      </trkpt>
      <trkpt lat="42.6998820" lon="-0.1019300">
        <ele>1680.0</ele>
        <time>2022-07-24T08:20:14Z</time>
      </trkpt>
      <trkpt lat="42.6999030" lon="-0.1019880">
        <ele>1678.8</ele>
        <time>2022-07-24T08:20:17Z</time>
      </trkpt>
      <trkpt lat="42.6999170" lon="-0.1020130">
        <ele>1678.2</ele>
        <time>2022-07-24T08:20:18Z</time>
      </trkpt>
      <trkpt lat="42.6999700" lon="-0.1020480">
        <ele>1676.6</ele>
        <time>2022-07-24T08:20:21Z</time>
      </trkpt>
      <trkpt lat="42.7000020" lon="-0.1020540">
        <ele>1675.8</ele>
        <time>2022-07-24T08:20:23Z</time>
      </trkpt>
      <trkpt lat="42.7000810" lon="-0.1020580">
        <ele>1673.8</ele>
        <time>2022-07-24T08:20:30Z</time>
      </trkpt>
      <trkpt lat="42.7000780" lon="-0.1020870">
        <ele>1672.2</ele>
        <time>2022-07-24T08:20:33Z</time>
      </trkpt>
      <trkpt lat="42.7000700" lon="-0.1021050">
        <ele>1671.2</ele>
        <time>2022-07-24T08:20:36Z</time>
      </trkpt>
      <trkpt lat="42.7000670" lon="-0.1021140">
        <ele>1671.0</ele>
        <time>2022-07-24T08:20:37Z</time>
      </trkpt>
      <trkpt lat="42.7000610" lon="-0.1021280">
        <ele>1671.0</ele>
        <time>2022-07-24T08:20:38Z</time>
      </trkpt>
      <trkpt lat="42.7000380" lon="-0.1021620">
        <ele>1670.2</ele>
        <time>2022-07-24T08:20:41Z</time>
      </trkpt>
      <trkpt lat="42.7000110" lon="-0.1021870">
        <ele>1669.2</ele>
        <time>2022-07-24T08:20:44Z</time>
      </trkpt>
      <trkpt lat="42.7000020" lon="-0.1022000">
        <ele>1668.4</ele>
        <time>2022-07-24T08:20:47Z</time>
      </trkpt>
      <trkpt lat="42.6999750" lon="-0.1022210">
        <ele>1666.8</ele>
        <time>2022-07-24T08:20:51Z</time>
      </trkpt>
      <trkpt lat="42.6998960" lon="-0.1021850">
        <ele>1665.8</ele>
        <time>2022-07-24T08:20:57Z</time>
      </trkpt>
      <trkpt lat="42.6998770" lon="-0.1021770">
        <ele>1665.4</ele>
        <time>2022-07-24T08:20:58Z</time>
      </trkpt>
      <trkpt lat="42.6998450" lon="-0.1021710">
        <ele>1664.8</ele>
        <time>2022-07-24T08:21:00Z</time>
      </trkpt>
      <trkpt lat="42.6998250" lon="-0.1021690">
        <ele>1664.4</ele>
        <time>2022-07-24T08:21:01Z</time>
      </trkpt>
      <trkpt lat="42.6998050" lon="-0.1021630">
        <ele>1664.2</ele>
        <time>2022-07-24T08:21:02Z</time>
      </trkpt>
      <trkpt lat="42.6997010" lon="-0.1021760">
        <ele>1663.4</ele>
        <time>2022-07-24T08:21:06Z</time>
      </trkpt>
      <trkpt lat="42.6996820" lon="-0.1021850">
        <ele>1662.8</ele>
        <time>2022-07-24T08:21:07Z</time>
      </trkpt>
      <trkpt lat="42.6996590" lon="-0.1021850">
        <ele>1662.6</ele>
        <time>2022-07-24T08:21:08Z</time>
      </trkpt>
      <trkpt lat="42.6996400" lon="-0.1022260">
        <ele>1662.2</ele>
        <time>2022-07-24T08:21:09Z</time>
      </trkpt>
      <trkpt lat="42.6996250" lon="-0.1022420">
        <ele>1661.6</ele>
        <time>2022-07-24T08:21:10Z</time>
      </trkpt>
      <trkpt lat="42.6995990" lon="-0.1023080">
        <ele>1660.8</ele>
        <time>2022-07-24T08:21:13Z</time>
      </trkpt>
      <trkpt lat="42.6996000" lon="-0.1023600">
        <ele>1660.0</ele>
        <time>2022-07-24T08:21:16Z</time>
      </trkpt>
      <trkpt lat="42.6996060" lon="-0.1023800">
        <ele>1659.0</ele>
        <time>2022-07-24T08:21:18Z</time>
      </trkpt>
      <trkpt lat="42.6996020" lon="-0.1023930">
        <ele>1658.4</ele>
        <time>2022-07-24T08:21:19Z</time>
      </trkpt>
      <trkpt lat="42.6996060" lon="-0.1024040">
        <ele>1658.2</ele>
        <time>2022-07-24T08:21:20Z</time>
      </trkpt>
      <trkpt lat="42.6996070" lon="-0.1024160">
        <ele>1657.8</ele>
        <time>2022-07-24T08:21:21Z</time>
      </trkpt>
      <trkpt lat="42.6996150" lon="-0.1024460">
        <ele>1656.8</ele>
        <time>2022-07-24T08:21:23Z</time>
      </trkpt>
      <trkpt lat="42.6996000" lon="-0.1024610">
        <ele>1656.6</ele>
        <time>2022-07-24T08:21:25Z</time>
      </trkpt>
      <trkpt lat="42.6995830" lon="-0.1024520">
        <ele>1656.2</ele>
        <time>2022-07-24T08:21:27Z</time>
      </trkpt>
      <trkpt lat="42.6995760" lon="-0.1024460">
        <ele>1656.0</ele>
        <time>2022-07-24T08:21:28Z</time>
      </trkpt>
      <trkpt lat="42.6995700" lon="-0.1024440">
        <ele>1655.6</ele>
        <time>2022-07-24T08:21:29Z</time>
      </trkpt>
      <trkpt lat="42.6995680" lon="-0.1024400">
        <ele>1655.0</ele>
        <time>2022-07-24T08:21:31Z</time>
      </trkpt>
      <trkpt lat="42.6995680" lon="-0.1024660">
        <ele>1653.6</ele>
        <time>2022-07-24T08:21:33Z</time>
      </trkpt>
      <trkpt lat="42.6995690" lon="-0.1024720">
        <ele>1653.2</ele>
        <time>2022-07-24T08:21:34Z</time>
      </trkpt>
      <trkpt lat="42.6995610" lon="-0.1024730">
        <ele>1652.8</ele>
        <time>2022-07-24T08:21:35Z</time>
      </trkpt>
      <trkpt lat="42.6995340" lon="-0.1024850">
        <ele>1652.4</ele>
        <time>2022-07-24T08:21:36Z</time>
      </trkpt>
      <trkpt lat="42.6995040" lon="-0.1024880">
        <ele>1652.2</ele>
        <time>2022-07-24T08:21:38Z</time>
      </trkpt>
      <trkpt lat="42.6994900" lon="-0.1024900">
        <ele>1652.0</ele>
        <time>2022-07-24T08:21:39Z</time>
      </trkpt>
      <trkpt lat="42.6994780" lon="-0.1024880">
        <ele>1651.2</ele>
        <time>2022-07-24T08:21:40Z</time>
      </trkpt>
      <trkpt lat="42.6994570" lon="-0.1024760">
        <ele>1650.2</ele>
        <time>2022-07-24T08:21:42Z</time>
      </trkpt>
      <trkpt lat="42.6993610" lon="-0.1024930">
        <ele>1649.0</ele>
        <time>2022-07-24T08:21:47Z</time>
      </trkpt>
      <trkpt lat="42.6992680" lon="-0.1025430">
        <ele>1645.6</ele>
        <time>2022-07-24T08:21:54Z</time>
      </trkpt>
      <trkpt lat="42.6992590" lon="-0.1025520">
        <ele>1645.4</ele>
        <time>2022-07-24T08:21:55Z</time>
      </trkpt>
      <trkpt lat="42.6992160" lon="-0.1025850">
        <ele>1644.6</ele>
        <time>2022-07-24T08:21:57Z</time>
      </trkpt>
      <trkpt lat="42.6991760" lon="-0.1025990">
        <ele>1644.4</ele>
        <time>2022-07-24T08:22:00Z</time>
      </trkpt>
      <trkpt lat="42.6991840" lon="-0.1026030">
        <ele>1644.2</ele>
        <time>2022-07-24T08:22:01Z</time>
      </trkpt>
      <trkpt lat="42.6991700" lon="-0.1026080">
        <ele>1644.0</ele>
        <time>2022-07-24T08:22:03Z</time>
      </trkpt>
      <trkpt lat="42.6991630" lon="-0.1026170">
        <ele>1643.2</ele>
        <time>2022-07-24T08:22:04Z</time>
      </trkpt>
      <trkpt lat="42.6991540" lon="-0.1026170">
        <ele>1642.0</ele>
        <time>2022-07-24T08:22:07Z</time>
      </trkpt>
      <trkpt lat="42.6991430" lon="-0.1026310">
        <ele>1641.6</ele>
        <time>2022-07-24T08:22:10Z</time>
      </trkpt>
      <trkpt lat="42.6991350" lon="-0.1026350">
        <ele>1641.2</ele>
        <time>2022-07-24T08:22:11Z</time>
      </trkpt>
      <trkpt lat="42.6991260" lon="-0.1026580">
        <ele>1640.8</ele>
        <time>2022-07-24T08:22:16Z</time>
      </trkpt>
      <trkpt lat="42.6991270" lon="-0.1026720">
        <ele>1640.6</ele>
        <time>2022-07-24T08:22:18Z</time>
      </trkpt>
      <trkpt lat="42.6991310" lon="-0.1026840">
        <ele>1640.2</ele>
        <time>2022-07-24T08:22:20Z</time>
      </trkpt>
      <trkpt lat="42.6991350" lon="-0.1026950">
        <ele>1639.2</ele>
        <time>2022-07-24T08:22:23Z</time>
      </trkpt>
      <trkpt lat="42.6991380" lon="-0.1027010">
        <ele>1639.0</ele>
        <time>2022-07-24T08:22:24Z</time>
      </trkpt>
      <trkpt lat="42.6991350" lon="-0.1027150">
        <ele>1638.2</ele>
        <time>2022-07-24T08:22:26Z</time>
      </trkpt>
      <trkpt lat="42.6991490" lon="-0.1027210">
        <ele>1636.6</ele>
        <time>2022-07-24T08:22:28Z</time>
      </trkpt>
      <trkpt lat="42.6991640" lon="-0.1027750">
        <ele>1635.6</ele>
        <time>2022-07-24T08:22:32Z</time>
      </trkpt>
      <trkpt lat="42.6991720" lon="-0.1027910">
        <ele>1635.2</ele>
        <time>2022-07-24T08:22:33Z</time>
      </trkpt>
      <trkpt lat="42.6991890" lon="-0.1028510">
        <ele>1634.2</ele>
        <time>2022-07-24T08:22:35Z</time>
      </trkpt>
      <trkpt lat="42.6991880" lon="-0.1028780">
        <ele>1633.6</ele>
        <time>2022-07-24T08:22:36Z</time>
      </trkpt>
      <trkpt lat="42.6991810" lon="-0.1029060">
        <ele>1633.0</ele>
        <time>2022-07-24T08:22:37Z</time>
      </trkpt>
      <trkpt lat="42.6991730" lon="-0.1029530">
        <ele>1631.4</ele>
        <time>2022-07-24T08:22:39Z</time>
      </trkpt>
      <trkpt lat="42.6991670" lon="-0.1029790">
        <ele>1630.6</ele>
        <time>2022-07-24T08:22:41Z</time>
      </trkpt>
      <trkpt lat="42.6991230" lon="-0.1030520">
        <ele>1629.0</ele>
        <time>2022-07-24T08:22:48Z</time>
      </trkpt>
      <trkpt lat="42.6991160" lon="-0.1030610">
        <ele>1628.8</ele>
        <time>2022-07-24T08:22:49Z</time>
      </trkpt>
      <trkpt lat="42.6990970" lon="-0.1030890">
        <ele>1627.4</ele>
        <time>2022-07-24T08:22:52Z</time>
      </trkpt>
      <trkpt lat="42.6990700" lon="-0.1031110">
        <ele>1626.8</ele>
        <time>2022-07-24T08:22:55Z</time>
      </trkpt>
      <trkpt lat="42.6990750" lon="-0.1031120">
        <ele>1626.4</ele>
        <time>2022-07-24T08:22:56Z</time>
      </trkpt>
      <trkpt lat="42.6990610" lon="-0.1031270">
        <ele>1625.4</ele>
        <time>2022-07-24T08:22:58Z</time>
      </trkpt>
      <trkpt lat="42.6990560" lon="-0.1031340">
        <ele>1624.8</ele>
        <time>2022-07-24T08:22:59Z</time>
      </trkpt>
      <trkpt lat="42.6990430" lon="-0.1031520">
        <ele>1624.0</ele>
        <time>2022-07-24T08:23:01Z</time>
      </trkpt>
      <trkpt lat="42.6990460" lon="-0.1031690">
        <ele>1623.8</ele>
        <time>2022-07-24T08:23:03Z</time>
      </trkpt>
      <trkpt lat="42.6990750" lon="-0.1031920">
        <ele>1623.0</ele>
        <time>2022-07-24T08:23:05Z</time>
      </trkpt>
      <trkpt lat="42.6990920" lon="-0.1032170">
        <ele>1621.8</ele>
        <time>2022-07-24T08:23:07Z</time>
      </trkpt>
      <trkpt lat="42.6991000" lon="-0.1032200">
        <ele>1621.6</ele>
        <time>2022-07-24T08:23:08Z</time>
      </trkpt>
      <trkpt lat="42.6991310" lon="-0.1032330">
        <ele>1620.6</ele>
        <time>2022-07-24T08:23:10Z</time>
      </trkpt>
      <trkpt lat="42.6991180" lon="-0.1033250">
        <ele>1618.2</ele>
        <time>2022-07-24T08:23:14Z</time>
      </trkpt>
      <trkpt lat="42.6991130" lon="-0.1033450">
        <ele>1617.8</ele>
        <time>2022-07-24T08:23:16Z</time>
      </trkpt>
      <trkpt lat="42.6991010" lon="-0.1033610">
        <ele>1617.8</ele>
        <time>2022-07-24T08:23:17Z</time>
      </trkpt>
      <trkpt lat="42.6990850" lon="-0.1033910">
        <ele>1617.2</ele>
        <time>2022-07-24T08:23:19Z</time>
      </trkpt>
      <trkpt lat="42.6991180" lon="-0.1034000">
        <ele>1616.6</ele>
        <time>2022-07-24T08:23:22Z</time>
      </trkpt>
      <trkpt lat="42.6991430" lon="-0.1034110">
        <ele>1615.6</ele>
        <time>2022-07-24T08:23:25Z</time>
      </trkpt>
      <trkpt lat="42.6992080" lon="-0.1034410">
        <ele>1614.2</ele>
        <time>2022-07-24T08:23:30Z</time>
      </trkpt>
      <trkpt lat="42.6992220" lon="-0.1034550">
        <ele>1613.8</ele>
        <time>2022-07-24T08:23:31Z</time>
      </trkpt>
      <trkpt lat="42.6992260" lon="-0.1034670">
        <ele>1613.6</ele>
        <time>2022-07-24T08:23:32Z</time>
      </trkpt>
      <trkpt lat="42.6992400" lon="-0.1034690">
        <ele>1613.2</ele>
        <time>2022-07-24T08:23:34Z</time>
      </trkpt>
      <trkpt lat="42.6992340" lon="-0.1034840">
        <ele>1612.6</ele>
        <time>2022-07-24T08:23:36Z</time>
      </trkpt>
      <trkpt lat="42.6992150" lon="-0.1034970">
        <ele>1611.8</ele>
        <time>2022-07-24T08:23:39Z</time>
      </trkpt>
      <trkpt lat="42.6992110" lon="-0.1034970">
        <ele>1611.8</ele>
        <time>2022-07-24T08:23:40Z</time>
      </trkpt>
      <trkpt lat="42.6992110" lon="-0.1034990">
        <ele>1611.6</ele>
        <time>2022-07-24T08:23:41Z</time>
      </trkpt>
      <trkpt lat="42.6992280" lon="-0.1034910">
        <ele>1610.8</ele>
        <time>2022-07-24T08:23:57Z</time>
      </trkpt>
      <trkpt lat="42.6992200" lon="-0.1035020">
        <ele>1610.6</ele>
        <time>2022-07-24T08:23:59Z</time>
      </trkpt>
      <trkpt lat="42.6992050" lon="-0.1035270">
        <ele>1610.8</ele>
        <time>2022-07-24T08:24:01Z</time>
      </trkpt>
      <trkpt lat="42.6991980" lon="-0.1035540">
        <ele>1610.8</ele>
        <time>2022-07-24T08:24:03Z</time>
      </trkpt>
      <trkpt lat="42.6991700" lon="-0.1036180">
        <ele>1610.6</ele>
        <time>2022-07-24T08:24:07Z</time>
      </trkpt>
      <trkpt lat="42.6991570" lon="-0.1036480">
        <ele>1610.4</ele>
        <time>2022-07-24T08:24:09Z</time>
      </trkpt>
      <trkpt lat="42.6991290" lon="-0.1036900">
        <ele>1609.2</ele>
        <time>2022-07-24T08:24:13Z</time>
      </trkpt>
      <trkpt lat="42.6991130" lon="-0.1037250">
        <ele>1607.6</ele>
        <time>2022-07-24T08:24:17Z</time>
      </trkpt>
      <trkpt lat="42.6990960" lon="-0.1037520">
        <ele>1607.0</ele>
        <time>2022-07-24T08:24:20Z</time>
      </trkpt>
      <trkpt lat="42.6990640" lon="-0.1037690">
        <ele>1606.6</ele>
        <time>2022-07-24T08:24:23Z</time>
      </trkpt>
      <trkpt lat="42.6990140" lon="-0.1037960">
        <ele>1604.8</ele>
        <time>2022-07-24T08:24:27Z</time>
      </trkpt>
      <trkpt lat="42.6989670" lon="-0.1038010">
        <ele>1603.6</ele>
        <time>2022-07-24T08:24:31Z</time>
      </trkpt>
      <trkpt lat="42.6989610" lon="-0.1037980">
        <ele>1603.2</ele>
        <time>2022-07-24T08:24:32Z</time>
      </trkpt>
      <trkpt lat="42.6989510" lon="-0.1038020">
        <ele>1603.2</ele>
        <time>2022-07-24T08:24:33Z</time>
      </trkpt>
      <trkpt lat="42.6989080" lon="-0.1038110">
        <ele>1601.6</ele>
        <time>2022-07-24T08:24:38Z</time>
      </trkpt>
      <trkpt lat="42.6988790" lon="-0.1038070">
        <ele>1600.4</ele>
        <time>2022-07-24T08:24:41Z</time>
      </trkpt>
      <trkpt lat="42.6988740" lon="-0.1037970">
        <ele>1600.0</ele>
        <time>2022-07-24T08:24:42Z</time>
      </trkpt>
      <trkpt lat="42.6988730" lon="-0.1037880">
        <ele>1599.8</ele>
        <time>2022-07-24T08:24:43Z</time>
      </trkpt>
      <trkpt lat="42.6988630" lon="-0.1037800">
        <ele>1599.0</ele>
        <time>2022-07-24T08:24:45Z</time>
      </trkpt>
      <trkpt lat="42.6988530" lon="-0.1037620">
        <ele>1598.0</ele>
        <time>2022-07-24T08:24:47Z</time>
      </trkpt>
      <trkpt lat="42.6988370" lon="-0.1037610">
        <ele>1597.8</ele>
        <time>2022-07-24T08:24:48Z</time>
      </trkpt>
      <trkpt lat="42.6988390" lon="-0.1037560">
        <ele>1597.6</ele>
        <time>2022-07-24T08:24:49Z</time>
      </trkpt>
      <trkpt lat="42.6988000" lon="-0.1037920">
        <ele>1597.0</ele>
        <time>2022-07-24T08:24:52Z</time>
      </trkpt>
      <trkpt lat="42.6987760" lon="-0.1037980">
        <ele>1597.0</ele>
        <time>2022-07-24T08:24:53Z</time>
      </trkpt>
      <trkpt lat="42.6987360" lon="-0.1038180">
        <ele>1596.2</ele>
        <time>2022-07-24T08:24:55Z</time>
      </trkpt>
      <trkpt lat="42.6986510" lon="-0.1038740">
        <ele>1594.8</ele>
        <time>2022-07-24T08:24:59Z</time>
      </trkpt>
      <trkpt lat="42.6986470" lon="-0.1038950">
        <ele>1594.8</ele>
        <time>2022-07-24T08:25:00Z</time>
      </trkpt>
      <trkpt lat="42.6986610" lon="-0.1039150">
        <ele>1593.6</ele>
        <time>2022-07-24T08:25:02Z</time>
      </trkpt>
      <trkpt lat="42.6986690" lon="-0.1039290">
        <ele>1593.6</ele>
        <time>2022-07-24T08:25:03Z</time>
      </trkpt>
      <trkpt lat="42.6986760" lon="-0.1039440">
        <ele>1593.0</ele>
        <time>2022-07-24T08:25:04Z</time>
      </trkpt>
      <trkpt lat="42.6987020" lon="-0.1039520">
        <ele>1592.0</ele>
        <time>2022-07-24T08:25:06Z</time>
      </trkpt>
      <trkpt lat="42.6987720" lon="-0.1039540">
        <ele>1590.4</ele>
        <time>2022-07-24T08:25:11Z</time>
      </trkpt>
      <trkpt lat="42.6988090" lon="-0.1039600">
        <ele>1589.0</ele>
        <time>2022-07-24T08:25:14Z</time>
      </trkpt>
      <trkpt lat="42.6987950" lon="-0.1039990">
        <ele>1588.4</ele>
        <time>2022-07-24T08:25:17Z</time>
      </trkpt>
      <trkpt lat="42.6987860" lon="-0.1040060">
        <ele>1588.0</ele>
        <time>2022-07-24T08:25:18Z</time>
      </trkpt>
      <trkpt lat="42.6987560" lon="-0.1040300">
        <ele>1587.4</ele>
        <time>2022-07-24T08:25:21Z</time>
      </trkpt>
      <trkpt lat="42.6987480" lon="-0.1040270">
        <ele>1587.2</ele>
        <time>2022-07-24T08:25:22Z</time>
      </trkpt>
      <trkpt lat="42.6987410" lon="-0.1040210">
        <ele>1586.4</ele>
        <time>2022-07-24T08:25:23Z</time>
      </trkpt>
      <trkpt lat="42.6987150" lon="-0.1040160">
        <ele>1586.2</ele>
        <time>2022-07-24T08:25:25Z</time>
      </trkpt>
      <trkpt lat="42.6986720" lon="-0.1040170">
        <ele>1585.2</ele>
        <time>2022-07-24T08:25:28Z</time>
      </trkpt>
      <trkpt lat="42.6986380" lon="-0.1040650">
        <ele>1584.6</ele>
        <time>2022-07-24T08:25:31Z</time>
      </trkpt>
      <trkpt lat="42.6986310" lon="-0.1041480">
        <ele>1583.0</ele>
        <time>2022-07-24T08:25:35Z</time>
      </trkpt>
      <trkpt lat="42.6986590" lon="-0.1041580">
        <ele>1582.4</ele>
        <time>2022-07-24T08:25:37Z</time>
      </trkpt>
      <trkpt lat="42.6986740" lon="-0.1041570">
        <ele>1582.2</ele>
        <time>2022-07-24T08:25:38Z</time>
      </trkpt>
      <trkpt lat="42.6987260" lon="-0.1042030">
        <ele>1580.6</ele>
        <time>2022-07-24T08:25:43Z</time>
      </trkpt>
      <trkpt lat="42.6987280" lon="-0.1042070">
        <ele>1580.0</ele>
        <time>2022-07-24T08:25:44Z</time>
      </trkpt>
      <trkpt lat="42.6987690" lon="-0.1042090">
        <ele>1579.4</ele>
        <time>2022-07-24T08:25:47Z</time>
      </trkpt>
      <trkpt lat="42.6987740" lon="-0.1042390">
        <ele>1578.2</ele>
        <time>2022-07-24T08:25:50Z</time>
      </trkpt>
      <trkpt lat="42.6987740" lon="-0.1042450">
        <ele>1577.8</ele>
        <time>2022-07-24T08:25:51Z</time>
      </trkpt>
      <trkpt lat="42.6987560" lon="-0.1042510">
        <ele>1576.6</ele>
        <time>2022-07-24T08:25:55Z</time>
      </trkpt>
      <trkpt lat="42.6987510" lon="-0.1042360">
        <ele>1576.2</ele>
        <time>2022-07-24T08:25:57Z</time>
      </trkpt>
      <trkpt lat="42.6987490" lon="-0.1042250">
        <ele>1576.2</ele>
        <time>2022-07-24T08:25:58Z</time>
      </trkpt>
      <trkpt lat="42.6987440" lon="-0.1042170">
        <ele>1575.8</ele>
        <time>2022-07-24T08:25:59Z</time>
      </trkpt>
      <trkpt lat="42.6987320" lon="-0.1042090">
        <ele>1574.8</ele>
        <time>2022-07-24T08:26:00Z</time>
      </trkpt>
      <trkpt lat="42.6987260" lon="-0.1041850">
        <ele>1573.8</ele>
        <time>2022-07-24T08:26:02Z</time>
      </trkpt>
      <trkpt lat="42.6986930" lon="-0.1042060">
        <ele>1573.4</ele>
        <time>2022-07-24T08:26:05Z</time>
      </trkpt>
      <trkpt lat="42.6986600" lon="-0.1042220">
        <ele>1572.8</ele>
        <time>2022-07-24T08:26:06Z</time>
      </trkpt>
      <trkpt lat="42.6985440" lon="-0.1042600">
        <ele>1571.0</ele>
        <time>2022-07-24T08:26:11Z</time>
      </trkpt>
      <trkpt lat="42.6985110" lon="-0.1042300">
        <ele>1570.2</ele>
        <time>2022-07-24T08:26:14Z</time>
      </trkpt>
      <trkpt lat="42.6984530" lon="-0.1042240">
        <ele>1569.2</ele>
        <time>2022-07-24T08:26:18Z</time>
      </trkpt>
      <trkpt lat="42.6983750" lon="-0.1042480">
        <ele>1568.6</ele>
        <time>2022-07-24T08:26:22Z</time>
      </trkpt>
      <trkpt lat="42.6983540" lon="-0.1042530">
        <ele>1568.0</ele>
        <time>2022-07-24T08:26:23Z</time>
      </trkpt>
      <trkpt lat="42.6982860" lon="-0.1043080">
        <ele>1566.6</ele>
        <time>2022-07-24T08:26:26Z</time>
      </trkpt>
      <trkpt lat="42.6982260" lon="-0.1043730">
        <ele>1565.2</ele>
        <time>2022-07-24T08:26:29Z</time>
      </trkpt>
      <trkpt lat="42.6981890" lon="-0.1043890">
        <ele>1564.6</ele>
        <time>2022-07-24T08:26:31Z</time>
      </trkpt>
      <trkpt lat="42.6981030" lon="-0.1043820">
        <ele>1564.0</ele>
        <time>2022-07-24T08:26:35Z</time>
      </trkpt>
      <trkpt lat="42.6980610" lon="-0.1043720">
        <ele>1562.4</ele>
        <time>2022-07-24T08:26:37Z</time>
      </trkpt>
      <trkpt lat="42.6980170" lon="-0.1043420">
        <ele>1560.4</ele>
        <time>2022-07-24T08:26:41Z</time>
      </trkpt>
      <trkpt lat="42.6979850" lon="-0.1043240">
        <ele>1560.0</ele>
        <time>2022-07-24T08:26:44Z</time>
      </trkpt>
      <trkpt lat="42.6979010" lon="-0.1043350">
        <ele>1559.0</ele>
        <time>2022-07-24T08:26:49Z</time>
      </trkpt>
      <trkpt lat="42.6978860" lon="-0.1043420">
        <ele>1558.8</ele>
        <time>2022-07-24T08:26:51Z</time>
      </trkpt>
      <trkpt lat="42.6978910" lon="-0.1043110">
        <ele>1558.6</ele>
        <time>2022-07-24T08:26:52Z</time>
      </trkpt>
      <trkpt lat="42.6979160" lon="-0.1042730">
        <ele>1557.8</ele>
        <time>2022-07-24T08:26:55Z</time>
      </trkpt>
      <trkpt lat="42.6979340" lon="-0.1042630">
        <ele>1557.6</ele>
        <time>2022-07-24T08:26:56Z</time>
      </trkpt>
      <trkpt lat="42.6979610" lon="-0.1043110">
        <ele>1556.2</ele>
        <time>2022-07-24T08:27:01Z</time>
      </trkpt>
      <trkpt lat="42.6979550" lon="-0.1043070">
        <ele>1555.8</ele>
        <time>2022-07-24T08:27:03Z</time>
      </trkpt>
      <trkpt lat="42.6979440" lon="-0.1043120">
        <ele>1555.0</ele>
        <time>2022-07-24T08:27:05Z</time>
      </trkpt>
      <trkpt lat="42.6979300" lon="-0.1043200">
        <ele>1554.8</ele>
        <time>2022-07-24T08:27:06Z</time>
      </trkpt>
      <trkpt lat="42.6979240" lon="-0.1043240">
        <ele>1554.6</ele>
        <time>2022-07-24T08:27:07Z</time>
      </trkpt>
      <trkpt lat="42.6979270" lon="-0.1043290">
        <ele>1554.4</ele>
        <time>2022-07-24T08:27:08Z</time>
      </trkpt>
      <trkpt lat="42.6979100" lon="-0.1043880">
        <ele>1553.4</ele>
        <time>2022-07-24T08:27:11Z</time>
      </trkpt>
      <trkpt lat="42.6979090" lon="-0.1044440">
        <ele>1552.2</ele>
        <time>2022-07-24T08:27:14Z</time>
      </trkpt>
      <trkpt lat="42.6979410" lon="-0.1044740">
        <ele>1551.6</ele>
        <time>2022-07-24T08:27:17Z</time>
      </trkpt>
      <trkpt lat="42.6979900" lon="-0.1044770">
        <ele>1550.6</ele>
        <time>2022-07-24T08:27:20Z</time>
      </trkpt>
      <trkpt lat="42.6980700" lon="-0.1044910">
        <ele>1548.8</ele>
        <time>2022-07-24T08:27:25Z</time>
      </trkpt>
      <trkpt lat="42.6981030" lon="-0.1044860">
        <ele>1548.4</ele>
        <time>2022-07-24T08:27:26Z</time>
      </trkpt>
      <trkpt lat="42.6981160" lon="-0.1044950">
        <ele>1548.0</ele>
        <time>2022-07-24T08:27:27Z</time>
      </trkpt>
      <trkpt lat="42.6981410" lon="-0.1044940">
        <ele>1547.8</ele>
        <time>2022-07-24T08:27:28Z</time>
      </trkpt>
      <trkpt lat="42.6981480" lon="-0.1045060">
        <ele>1547.2</ele>
        <time>2022-07-24T08:27:29Z</time>
      </trkpt>
      <trkpt lat="42.6981820" lon="-0.1045170">
        <ele>1546.4</ele>
        <time>2022-07-24T08:27:32Z</time>
      </trkpt>
      <trkpt lat="42.6981840" lon="-0.1045580">
        <ele>1545.8</ele>
        <time>2022-07-24T08:27:33Z</time>
      </trkpt>
      <trkpt lat="42.6981900" lon="-0.1046070">
        <ele>1545.4</ele>
        <time>2022-07-24T08:27:35Z</time>
      </trkpt>
      <trkpt lat="42.6981850" lon="-0.1046180">
        <ele>1544.8</ele>
        <time>2022-07-24T08:27:36Z</time>
      </trkpt>
      <trkpt lat="42.6981630" lon="-0.1046450">
        <ele>1544.0</ele>
        <time>2022-07-24T08:27:38Z</time>
      </trkpt>
      <trkpt lat="42.6981240" lon="-0.1046910">
        <ele>1542.8</ele>
        <time>2022-07-24T08:27:41Z</time>
      </trkpt>
      <trkpt lat="42.6980860" lon="-0.1046880">
        <ele>1540.6</ele>
        <time>2022-07-24T08:27:45Z</time>
      </trkpt>
      <trkpt lat="42.6980510" lon="-0.1046950">
        <ele>1540.2</ele>
        <time>2022-07-24T08:27:47Z</time>
      </trkpt>
      <trkpt lat="42.6980300" lon="-0.1046970">
        <ele>1539.6</ele>
        <time>2022-07-24T08:27:49Z</time>
      </trkpt>
      <trkpt lat="42.6980330" lon="-0.1047040">
        <ele>1538.8</ele>
        <time>2022-07-24T08:27:51Z</time>
      </trkpt>
      <trkpt lat="42.6980470" lon="-0.1047020">
        <ele>1538.4</ele>
        <time>2022-07-24T08:27:52Z</time>
      </trkpt>
      <trkpt lat="42.6980570" lon="-0.1047020">
        <ele>1538.4</ele>
        <time>2022-07-24T08:27:53Z</time>
      </trkpt>
      <trkpt lat="42.6981120" lon="-0.1047060">
        <ele>1537.4</ele>
        <time>2022-07-24T08:27:57Z</time>
      </trkpt>
      <trkpt lat="42.6981320" lon="-0.1047050">
        <ele>1537.2</ele>
        <time>2022-07-24T08:27:58Z</time>
      </trkpt>
      <trkpt lat="42.6982200" lon="-0.1047300">
        <ele>1535.4</ele>
        <time>2022-07-24T08:28:03Z</time>
      </trkpt>
      <trkpt lat="42.6982630" lon="-0.1047310">
        <ele>1534.8</ele>
        <time>2022-07-24T08:28:05Z</time>
      </trkpt>
      <trkpt lat="42.6982790" lon="-0.1047310">
        <ele>1534.6</ele>
        <time>2022-07-24T08:28:06Z</time>
      </trkpt>
      <trkpt lat="42.6983170" lon="-0.1047350">
        <ele>1533.6</ele>
        <time>2022-07-24T08:28:09Z</time>
      </trkpt>
      <trkpt lat="42.6983330" lon="-0.1047310">
        <ele>1533.2</ele>
        <time>2022-07-24T08:28:10Z</time>
      </trkpt>
      <trkpt lat="42.6983780" lon="-0.1047200">
        <ele>1532.4</ele>
        <time>2022-07-24T08:28:14Z</time>
      </trkpt>
      <trkpt lat="42.6983870" lon="-0.1047220">
        <ele>1531.6</ele>
        <time>2022-07-24T08:28:16Z</time>
      </trkpt>
      <trkpt lat="42.6984090" lon="-0.1047230">
        <ele>1531.2</ele>
        <time>2022-07-24T08:28:19Z</time>
      </trkpt>
      <trkpt lat="42.6984130" lon="-0.1047350">
        <ele>1530.8</ele>
        <time>2022-07-24T08:28:20Z</time>
      </trkpt>
      <trkpt lat="42.6984310" lon="-0.1047500">
        <ele>1530.2</ele>
        <time>2022-07-24T08:28:23Z</time>
      </trkpt>
      <trkpt lat="42.6984350" lon="-0.1047490">
        <ele>1530.0</ele>
        <time>2022-07-24T08:28:24Z</time>
      </trkpt>
      <trkpt lat="42.6984140" lon="-0.1047710">
        <ele>1527.8</ele>
        <time>2022-07-24T08:28:29Z</time>
      </trkpt>
      <trkpt lat="42.6984050" lon="-0.1047700">
        <ele>1527.2</ele>
        <time>2022-07-24T08:28:31Z</time>
      </trkpt>
      <trkpt lat="42.6983450" lon="-0.1048790">
        <ele>1526.0</ele>
        <time>2022-07-24T08:28:35Z</time>
      </trkpt>
      <trkpt lat="42.6983240" lon="-0.1049040">
        <ele>1525.8</ele>
        <time>2022-07-24T08:28:36Z</time>
      </trkpt>
      <trkpt lat="42.6982920" lon="-0.1049310">
        <ele>1525.0</ele>
        <time>2022-07-24T08:28:38Z</time>
      </trkpt>
      <trkpt lat="42.6982350" lon="-0.1049700">
        <ele>1524.0</ele>
        <time>2022-07-24T08:28:41Z</time>
      </trkpt>
      <trkpt lat="42.6981890" lon="-0.1050040">
        <ele>1522.8</ele>
        <time>2022-07-24T08:28:45Z</time>
      </trkpt>
      <trkpt lat="42.6981630" lon="-0.1050240">
        <ele>1522.4</ele>
        <time>2022-07-24T08:28:47Z</time>
      </trkpt>
      <trkpt lat="42.6981520" lon="-0.1050250">
        <ele>1522.2</ele>
        <time>2022-07-24T08:28:48Z</time>
      </trkpt>
      <trkpt lat="42.6981380" lon="-0.1050220">
        <ele>1521.8</ele>
        <time>2022-07-24T08:28:49Z</time>
      </trkpt>
      <trkpt lat="42.6981250" lon="-0.1050170">
        <ele>1521.6</ele>
        <time>2022-07-24T08:28:50Z</time>
      </trkpt>
      <trkpt lat="42.6981160" lon="-0.1050130">
        <ele>1521.6</ele>
        <time>2022-07-24T08:28:51Z</time>
      </trkpt>
      <trkpt lat="42.6980940" lon="-0.1050110">
        <ele>1521.0</ele>
        <time>2022-07-24T08:28:53Z</time>
      </trkpt>
      <trkpt lat="42.6980850" lon="-0.1050150">
        <ele>1520.8</ele>
        <time>2022-07-24T08:28:54Z</time>
      </trkpt>
      <trkpt lat="42.6980870" lon="-0.1050110">
        <ele>1520.6</ele>
        <time>2022-07-24T08:28:55Z</time>
      </trkpt>
      <trkpt lat="42.6981080" lon="-0.1050040">
        <ele>1520.2</ele>
        <time>2022-07-24T08:28:56Z</time>
      </trkpt>
      <trkpt lat="42.6980750" lon="-0.1050850">
        <ele>1517.6</ele>
        <time>2022-07-24T08:29:02Z</time>
      </trkpt>
      <trkpt lat="42.6980190" lon="-0.1051300">
        <ele>1516.2</ele>
        <time>2022-07-24T08:29:07Z</time>
      </trkpt>
      <trkpt lat="42.6980060" lon="-0.1051400">
        <ele>1516.0</ele>
        <time>2022-07-24T08:29:08Z</time>
      </trkpt>
      <trkpt lat="42.6979850" lon="-0.1051600">
        <ele>1515.2</ele>
        <time>2022-07-24T08:29:10Z</time>
      </trkpt>
      <trkpt lat="42.6979780" lon="-0.1051670">
        <ele>1515.0</ele>
        <time>2022-07-24T08:29:11Z</time>
      </trkpt>
      <trkpt lat="42.6979570" lon="-0.1051760">
        <ele>1514.4</ele>
        <time>2022-07-24T08:29:13Z</time>
      </trkpt>
      <trkpt lat="42.6979420" lon="-0.1051700">
        <ele>1513.4</ele>
        <time>2022-07-24T08:29:16Z</time>
      </trkpt>
      <trkpt lat="42.6979350" lon="-0.1051690">
        <ele>1512.6</ele>
        <time>2022-07-24T08:29:18Z</time>
      </trkpt>
      <trkpt lat="42.6979060" lon="-0.1051710">
        <ele>1511.8</ele>
        <time>2022-07-24T08:29:23Z</time>
      </trkpt>
      <trkpt lat="42.6978830" lon="-0.1051710">
        <ele>1511.0</ele>
        <time>2022-07-24T08:29:26Z</time>
      </trkpt>
      <trkpt lat="42.6978780" lon="-0.1051670">
        <ele>1510.8</ele>
        <time>2022-07-24T08:29:27Z</time>
      </trkpt>
      <trkpt lat="42.6978360" lon="-0.1051250">
        <ele>1509.4</ele>
        <time>2022-07-24T08:29:33Z</time>
      </trkpt>
      <trkpt lat="42.6978220" lon="-0.1051200">
        <ele>1509.0</ele>
        <time>2022-07-24T08:29:34Z</time>
      </trkpt>
      <trkpt lat="42.6978000" lon="-0.1051200">
        <ele>1508.8</ele>
        <time>2022-07-24T08:29:36Z</time>
      </trkpt>
      <trkpt lat="42.6977560" lon="-0.1050980">
        <ele>1508.0</ele>
        <time>2022-07-24T08:29:41Z</time>
      </trkpt>
      <trkpt lat="42.6976990" lon="-0.1051420">
        <ele>1507.6</ele>
        <time>2022-07-24T08:29:43Z</time>
      </trkpt>
      <trkpt lat="42.6976130" lon="-0.1051800">
        <ele>1506.8</ele>
        <time>2022-07-24T08:29:47Z</time>
      </trkpt>
      <trkpt lat="42.6975950" lon="-0.1051780">
        <ele>1506.8</ele>
        <time>2022-07-24T08:29:48Z</time>
      </trkpt>
      <trkpt lat="42.6975400" lon="-0.1052600">
        <ele>1506.2</ele>
        <time>2022-07-24T08:29:52Z</time>
      </trkpt>
      <trkpt lat="42.6975480" lon="-0.1052530">
        <ele>1505.4</ele>
        <time>2022-07-24T08:29:57Z</time>
      </trkpt>
      <trkpt lat="42.6975460" lon="-0.1052520">
        <ele>1505.0</ele>
        <time>2022-07-24T08:29:58Z</time>
      </trkpt>
      <trkpt lat="42.6974780" lon="-0.1053250">
        <ele>1503.8</ele>
        <time>2022-07-24T08:30:02Z</time>
      </trkpt>
      <trkpt lat="42.6974460" lon="-0.1053730">
        <ele>1503.0</ele>
        <time>2022-07-24T08:30:04Z</time>
      </trkpt>
      <trkpt lat="42.6974240" lon="-0.1054110">
        <ele>1503.0</ele>
        <time>2022-07-24T08:30:05Z</time>
      </trkpt>
      <trkpt lat="42.6973390" lon="-0.1054990">
        <ele>1501.2</ele>
        <time>2022-07-24T08:30:09Z</time>
      </trkpt>
      <trkpt lat="42.6973120" lon="-0.1055240">
        <ele>1501.4</ele>
        <time>2022-07-24T08:30:10Z</time>
      </trkpt>
      <trkpt lat="42.6972640" lon="-0.1055600">
        <ele>1500.8</ele>
        <time>2022-07-24T08:30:12Z</time>
      </trkpt>
      <trkpt lat="42.6972260" lon="-0.1055840">
        <ele>1499.0</ele>
        <time>2022-07-24T08:30:15Z</time>
      </trkpt>
      <trkpt lat="42.6971860" lon="-0.1055610">
        <ele>1498.2</ele>
        <time>2022-07-24T08:30:18Z</time>
      </trkpt>
      <trkpt lat="42.6971720" lon="-0.1055520">
        <ele>1497.8</ele>
        <time>2022-07-24T08:30:19Z</time>
      </trkpt>
      <trkpt lat="42.6970700" lon="-0.1055790">
        <ele>1496.6</ele>
        <time>2022-07-24T08:30:23Z</time>
      </trkpt>
      <trkpt lat="42.6970460" lon="-0.1055710">
        <ele>1496.0</ele>
        <time>2022-07-24T08:30:25Z</time>
      </trkpt>
      <trkpt lat="42.6970330" lon="-0.1055660">
        <ele>1495.4</ele>
        <time>2022-07-24T08:30:26Z</time>
      </trkpt>
      <trkpt lat="42.6969580" lon="-0.1055760">
        <ele>1494.0</ele>
        <time>2022-07-24T08:30:30Z</time>
      </trkpt>
      <trkpt lat="42.6969330" lon="-0.1055360">
        <ele>1493.2</ele>
        <time>2022-07-24T08:30:33Z</time>
      </trkpt>
      <trkpt lat="42.6968970" lon="-0.1055660">
        <ele>1493.0</ele>
        <time>2022-07-24T08:30:34Z</time>
      </trkpt>
      <trkpt lat="42.6968500" lon="-0.1055890">
        <ele>1492.0</ele>
        <time>2022-07-24T08:30:36Z</time>
      </trkpt>
      <trkpt lat="42.6968030" lon="-0.1055780">
        <ele>1491.0</ele>
        <time>2022-07-24T08:30:39Z</time>
      </trkpt>
      <trkpt lat="42.6967420" lon="-0.1055750">
        <ele>1490.4</ele>
        <time>2022-07-24T08:30:42Z</time>
      </trkpt>
      <trkpt lat="42.6967110" lon="-0.1055870">
        <ele>1489.0</ele>
        <time>2022-07-24T08:30:46Z</time>
      </trkpt>
      <trkpt lat="42.6966800" lon="-0.1055990">
        <ele>1488.6</ele>
        <time>2022-07-24T08:30:48Z</time>
      </trkpt>
      <trkpt lat="42.6966500" lon="-0.1056110">
        <ele>1488.2</ele>
        <time>2022-07-24T08:30:49Z</time>
      </trkpt>
      <trkpt lat="42.6965500" lon="-0.1056780">
        <ele>1488.0</ele>
        <time>2022-07-24T08:30:50Z</time>
      </trkpt>
      <trkpt lat="42.6965420" lon="-0.1057100">
        <ele>1486.0</ele>
        <time>2022-07-24T08:30:56Z</time>
      </trkpt>
      <trkpt lat="42.6965340" lon="-0.1057420">
        <ele>1484.4</ele>
        <time>2022-07-24T08:31:00Z</time>
      </trkpt>
      <trkpt lat="42.6965260" lon="-0.1057740">
        <ele>1483.6</ele>
        <time>2022-07-24T08:31:02Z</time>
      </trkpt>
      <trkpt lat="42.6965180" lon="-0.1058060">
        <ele>1483.6</ele>
        <time>2022-07-24T08:31:03Z</time>
      </trkpt>
      <trkpt lat="42.6965090" lon="-0.1058330">
        <ele>1482.8</ele>
        <time>2022-07-24T08:31:05Z</time>
      </trkpt>
      <trkpt lat="42.6964820" lon="-0.1057640">
        <ele>1480.4</ele>
        <time>2022-07-24T08:31:10Z</time>
      </trkpt>
      <trkpt lat="42.6964560" lon="-0.1058470">
        <ele>1479.2</ele>
        <time>2022-07-24T08:31:13Z</time>
      </trkpt>
      <trkpt lat="42.6964300" lon="-0.1059140">
        <ele>1477.8</ele>
        <time>2022-07-24T08:31:18Z</time>
      </trkpt>
      <trkpt lat="42.6964180" lon="-0.1059310">
        <ele>1477.4</ele>
        <time>2022-07-24T08:31:19Z</time>
      </trkpt>
      <trkpt lat="42.6963970" lon="-0.1059490">
        <ele>1477.0</ele>
        <time>2022-07-24T08:31:21Z</time>
      </trkpt>
      <trkpt lat="42.6963570" lon="-0.1059680">
        <ele>1476.0</ele>
        <time>2022-07-24T08:31:24Z</time>
      </trkpt>
      <trkpt lat="42.6963180" lon="-0.1059390">
        <ele>1474.4</ele>
        <time>2022-07-24T08:31:27Z</time>
      </trkpt>
      <trkpt lat="42.6963070" lon="-0.1059400">
        <ele>1474.0</ele>
        <time>2022-07-24T08:31:28Z</time>
      </trkpt>
      <trkpt lat="42.6962750" lon="-0.1059330">
        <ele>1472.8</ele>
        <time>2022-07-24T08:31:30Z</time>
      </trkpt>
      <trkpt lat="42.6962260" lon="-0.1059480">
        <ele>1472.0</ele>
        <time>2022-07-24T08:31:33Z</time>
      </trkpt>
      <trkpt lat="42.6962060" lon="-0.1059140">
        <ele>1471.2</ele>
        <time>2022-07-24T08:31:35Z</time>
      </trkpt>
      <trkpt lat="42.6961990" lon="-0.1058670">
        <ele>1470.4</ele>
        <time>2022-07-24T08:31:37Z</time>
      </trkpt>
      <trkpt lat="42.6961780" lon="-0.1057600">
        <ele>1468.2</ele>
        <time>2022-07-24T08:31:42Z</time>
      </trkpt>
      <trkpt lat="42.6961460" lon="-0.1056670">
        <ele>1466.6</ele>
        <time>2022-07-24T08:31:47Z</time>
      </trkpt>
      <trkpt lat="42.6961300" lon="-0.1056640">
        <ele>1466.2</ele>
        <time>2022-07-24T08:31:48Z</time>
      </trkpt>
      <trkpt lat="42.6960950" lon="-0.1056660">
        <ele>1465.8</ele>
        <time>2022-07-24T08:31:50Z</time>
      </trkpt>
      <trkpt lat="42.6960380" lon="-0.1056500">
        <ele>1464.4</ele>
        <time>2022-07-24T08:31:54Z</time>
      </trkpt>
      <trkpt lat="42.6959630" lon="-0.1056140">
        <ele>1462.6</ele>
        <time>2022-07-24T08:31:59Z</time>
      </trkpt>
      <trkpt lat="42.6959500" lon="-0.1056120">
        <ele>1462.4</ele>
        <time>2022-07-24T08:32:00Z</time>
      </trkpt>
      <trkpt lat="42.6958700" lon="-0.1056110">
        <ele>1461.4</ele>
        <time>2022-07-24T08:32:05Z</time>
      </trkpt>
      <trkpt lat="42.6958160" lon="-0.1056060">
        <ele>1460.8</ele>
        <time>2022-07-24T08:32:08Z</time>
      </trkpt>
      <trkpt lat="42.6957470" lon="-0.1056140">
        <ele>1459.6</ele>
        <time>2022-07-24T08:32:12Z</time>
      </trkpt>
      <trkpt lat="42.6957250" lon="-0.1056310">
        <ele>1458.8</ele>
        <time>2022-07-24T08:32:14Z</time>
      </trkpt>
      <trkpt lat="42.6957120" lon="-0.1056370">
        <ele>1458.6</ele>
        <time>2022-07-24T08:32:15Z</time>
      </trkpt>
      <trkpt lat="42.6956880" lon="-0.1056440">
        <ele>1458.4</ele>
        <time>2022-07-24T08:32:16Z</time>
      </trkpt>
      <trkpt lat="42.6957020" lon="-0.1057070">
        <ele>1457.8</ele>
        <time>2022-07-24T08:32:20Z</time>
      </trkpt>
      <trkpt lat="42.6957130" lon="-0.1057000">
        <ele>1457.4</ele>
        <time>2022-07-24T08:32:21Z</time>
      </trkpt>
      <trkpt lat="42.6957150" lon="-0.1056810">
        <ele>1455.6</ele>
        <time>2022-07-24T08:32:25Z</time>
      </trkpt>
      <trkpt lat="42.6957010" lon="-0.1056900">
        <ele>1455.0</ele>
        <time>2022-07-24T08:32:26Z</time>
      </trkpt>
      <trkpt lat="42.6957280" lon="-0.1056750">
        <ele>1454.0</ele>
        <time>2022-07-24T08:32:30Z</time>
      </trkpt>
      <trkpt lat="42.6957230" lon="-0.1056390">
        <ele>1453.8</ele>
        <time>2022-07-24T08:32:31Z</time>
      </trkpt>
      <trkpt lat="42.6957340" lon="-0.1056340">
        <ele>1453.2</ele>
        <time>2022-07-24T08:32:34Z</time>
      </trkpt>
      <trkpt lat="42.6957200" lon="-0.1056470">
        <ele>1452.6</ele>
        <time>2022-07-24T08:32:36Z</time>
      </trkpt>
      <trkpt lat="42.6957040" lon="-0.1056560">
        <ele>1451.6</ele>
        <time>2022-07-24T08:32:38Z</time>
      </trkpt>
      <trkpt lat="42.6956530" lon="-0.1057080">
        <ele>1451.0</ele>
        <time>2022-07-24T08:32:40Z</time>
      </trkpt>
      <trkpt lat="42.6955790" lon="-0.1057690">
        <ele>1450.4</ele>
        <time>2022-07-24T08:32:42Z</time>
      </trkpt>
      <trkpt lat="42.6955170" lon="-0.1058170">
        <ele>1449.6</ele>
        <time>2022-07-24T08:32:45Z</time>
      </trkpt>
      <trkpt lat="42.6955050" lon="-0.1058350">
        <ele>1449.2</ele>
        <time>2022-07-24T08:32:46Z</time>
      </trkpt>
      <trkpt lat="42.6954960" lon="-0.1058460">
        <ele>1448.8</ele>
        <time>2022-07-24T08:32:47Z</time>
      </trkpt>
      <trkpt lat="42.6954850" lon="-0.1058520">
        <ele>1448.6</ele>
        <time>2022-07-24T08:32:48Z</time>
      </trkpt>
      <trkpt lat="42.6954570" lon="-0.1058330">
        <ele>1448.2</ele>
        <time>2022-07-24T08:32:51Z</time>
      </trkpt>
      <trkpt lat="42.6954430" lon="-0.1058220">
        <ele>1447.8</ele>
        <time>2022-07-24T08:32:52Z</time>
      </trkpt>
      <trkpt lat="42.6954050" lon="-0.1057560">
        <ele>1446.0</ele>
        <time>2022-07-24T08:32:56Z</time>
      </trkpt>
      <trkpt lat="42.6953950" lon="-0.1057080">
        <ele>1445.0</ele>
        <time>2022-07-24T08:32:59Z</time>
      </trkpt>
      <trkpt lat="42.6953900" lon="-0.1057010">
        <ele>1444.8</ele>
        <time>2022-07-24T08:33:00Z</time>
      </trkpt>
      <trkpt lat="42.6953820" lon="-0.1057010">
        <ele>1443.6</ele>
        <time>2022-07-24T08:33:02Z</time>
      </trkpt>
      <trkpt lat="42.6953590" lon="-0.1057380">
        <ele>1442.6</ele>
        <time>2022-07-24T08:33:05Z</time>
      </trkpt>
      <trkpt lat="42.6953470" lon="-0.1057660">
        <ele>1442.2</ele>
        <time>2022-07-24T08:33:06Z</time>
      </trkpt>
      <trkpt lat="42.6952800" lon="-0.1058700">
        <ele>1440.8</ele>
        <time>2022-07-24T08:33:11Z</time>
      </trkpt>
      <trkpt lat="42.6952420" lon="-0.1059250">
        <ele>1439.8</ele>
        <time>2022-07-24T08:33:14Z</time>
      </trkpt>
      <trkpt lat="42.6952000" lon="-0.1059770">
        <ele>1438.6</ele>
        <time>2022-07-24T08:33:17Z</time>
      </trkpt>
      <trkpt lat="42.6951520" lon="-0.1060110">
        <ele>1437.6</ele>
        <time>2022-07-24T08:33:23Z</time>
      </trkpt>
      <trkpt lat="42.6951480" lon="-0.1060090">
        <ele>1437.6</ele>
        <time>2022-07-24T08:33:24Z</time>
      </trkpt>
      <trkpt lat="42.6951410" lon="-0.1060140">
        <ele>1437.6</ele>
        <time>2022-07-24T08:33:25Z</time>
      </trkpt>
      <trkpt lat="42.6951070" lon="-0.1060640">
        <ele>1437.6</ele>
        <time>2022-07-24T08:33:31Z</time>
      </trkpt>
      <trkpt lat="42.6950580" lon="-0.1061100">
        <ele>1438.0</ele>
        <time>2022-07-24T08:33:38Z</time>
      </trkpt>
      <trkpt lat="42.6950490" lon="-0.1061240">
        <ele>1438.2</ele>
        <time>2022-07-24T08:33:39Z</time>
      </trkpt>
      <trkpt lat="42.6950270" lon="-0.1061580">
        <ele>1438.0</ele>
        <time>2022-07-24T08:33:41Z</time>
      </trkpt>
      <trkpt lat="42.6950010" lon="-0.1061920">
        <ele>1438.2</ele>
        <time>2022-07-24T08:33:44Z</time>
      </trkpt>
      <trkpt lat="42.6949880" lon="-0.1062060">
        <ele>1438.0</ele>
        <time>2022-07-24T08:33:45Z</time>
      </trkpt>
      <trkpt lat="42.6949460" lon="-0.1062870">
        <ele>1437.6</ele>
        <time>2022-07-24T08:33:49Z</time>
      </trkpt>
      <trkpt lat="42.6949310" lon="-0.1063150">
        <ele>1437.4</ele>
        <time>2022-07-24T08:33:51Z</time>
      </trkpt>
      <trkpt lat="42.6948580" lon="-0.1063930">
        <ele>1436.6</ele>
        <time>2022-07-24T08:33:57Z</time>
      </trkpt>
      <trkpt lat="42.6947980" lon="-0.1064640">
        <ele>1435.6</ele>
        <time>2022-07-24T08:34:03Z</time>
      </trkpt>
      <trkpt lat="42.6947320" lon="-0.1065080">
        <ele>1435.0</ele>
        <time>2022-07-24T08:34:08Z</time>
      </trkpt>
      <trkpt lat="42.6947140" lon="-0.1065140">
        <ele>1435.0</ele>
        <time>2022-07-24T08:34:09Z</time>
      </trkpt>
      <trkpt lat="42.6945680" lon="-0.1065730">
        <ele>1434.8</ele>
        <time>2022-07-24T08:34:18Z</time>
      </trkpt>
      <trkpt lat="42.6945060" lon="-0.1065930">
        <ele>1434.4</ele>
        <time>2022-07-24T08:34:22Z</time>
      </trkpt>
      <trkpt lat="42.6944760" lon="-0.1066130">
        <ele>1434.4</ele>
        <time>2022-07-24T08:34:24Z</time>
      </trkpt>
      <trkpt lat="42.6944010" lon="-0.1067200">
        <ele>1434.0</ele>
        <time>2022-07-24T08:34:31Z</time>
      </trkpt>
      <trkpt lat="42.6943740" lon="-0.1068060">
        <ele>1433.4</ele>
        <time>2022-07-24T08:34:36Z</time>
      </trkpt>
      <trkpt lat="42.6943590" lon="-0.1068440">
        <ele>1433.4</ele>
        <time>2022-07-24T08:34:38Z</time>
      </trkpt>
      <trkpt lat="42.6943180" lon="-0.1069460">
        <ele>1433.0</ele>
        <time>2022-07-24T08:34:45Z</time>
      </trkpt>
      <trkpt lat="42.6943500" lon="-0.1070540">
        <ele>1433.0</ele>
        <time>2022-07-24T08:34:52Z</time>
      </trkpt>
      <trkpt lat="42.6943660" lon="-0.1072290">
        <ele>1432.8</ele>
        <time>2022-07-24T08:35:00Z</time>
      </trkpt>
      <trkpt lat="42.6943770" lon="-0.1074190">
        <ele>1432.8</ele>
        <time>2022-07-24T08:35:08Z</time>
      </trkpt>
      <trkpt lat="42.6943750" lon="-0.1075730">
        <ele>1432.8</ele>
        <time>2022-07-24T08:35:15Z</time>
      </trkpt>
      <trkpt lat="42.6943370" lon="-0.1076830">
        <ele>1432.8</ele>
        <time>2022-07-24T08:35:21Z</time>
      </trkpt>
      <trkpt lat="42.6943120" lon="-0.1077310">
        <ele>1433.0</ele>
        <time>2022-07-24T08:35:24Z</time>
      </trkpt>
      <trkpt lat="42.6942860" lon="-0.1077440">
        <ele>1432.8</ele>
        <time>2022-07-24T08:35:26Z</time>
      </trkpt>
      <trkpt lat="42.6942690" lon="-0.1077360">
        <ele>1432.8</ele>
        <time>2022-07-24T08:35:27Z</time>
      </trkpt>
      <trkpt lat="42.6941250" lon="-0.1076920">
        <ele>1432.8</ele>
        <time>2022-07-24T08:35:34Z</time>
      </trkpt>
      <trkpt lat="42.6941060" lon="-0.1076900">
        <ele>1432.6</ele>
        <time>2022-07-24T08:35:35Z</time>
      </trkpt>
      <trkpt lat="42.6940340" lon="-0.1076940">
        <ele>1432.0</ele>
        <time>2022-07-24T08:35:40Z</time>
      </trkpt>
      <trkpt lat="42.6939170" lon="-0.1077250">
        <ele>1431.4</ele>
        <time>2022-07-24T08:35:48Z</time>
      </trkpt>
      <trkpt lat="42.6938240" lon="-0.1077330">
        <ele>1431.0</ele>
        <time>2022-07-24T08:35:54Z</time>
      </trkpt>
      <trkpt lat="42.6937940" lon="-0.1077410">
        <ele>1431.0</ele>
        <time>2022-07-24T08:35:56Z</time>
      </trkpt>
      <trkpt lat="42.6936960" lon="-0.1077370">
        <ele>1430.6</ele>
        <time>2022-07-24T08:36:03Z</time>
      </trkpt>
      <trkpt lat="42.6936290" lon="-0.1077460">
        <ele>1430.6</ele>
        <time>2022-07-24T08:36:08Z</time>
      </trkpt>
      <trkpt lat="42.6936110" lon="-0.1077510">
        <ele>1430.6</ele>
        <time>2022-07-24T08:36:09Z</time>
      </trkpt>
      <trkpt lat="42.6935890" lon="-0.1077650">
        <ele>1430.4</ele>
        <time>2022-07-24T08:36:11Z</time>
      </trkpt>
      <trkpt lat="42.6934520" lon="-0.1077790">
        <ele>1430.2</ele>
        <time>2022-07-24T08:36:20Z</time>
      </trkpt>
      <trkpt lat="42.6933550" lon="-0.1077930">
        <ele>1429.8</ele>
        <time>2022-07-24T08:36:26Z</time>
      </trkpt>
      <trkpt lat="42.6933210" lon="-0.1077930">
        <ele>1429.6</ele>
        <time>2022-07-24T08:36:28Z</time>
      </trkpt>
      <trkpt lat="42.6931830" lon="-0.1077900">
        <ele>1429.6</ele>
        <time>2022-07-24T08:36:36Z</time>
      </trkpt>
      <trkpt lat="42.6930960" lon="-0.1078020">
        <ele>1429.4</ele>
        <time>2022-07-24T08:36:42Z</time>
      </trkpt>
      <trkpt lat="42.6930790" lon="-0.1078030">
        <ele>1429.4</ele>
        <time>2022-07-24T08:36:43Z</time>
      </trkpt>
      <trkpt lat="42.6929890" lon="-0.1078170">
        <ele>1429.4</ele>
        <time>2022-07-24T08:36:49Z</time>
      </trkpt>
      <trkpt lat="42.6929450" lon="-0.1078070">
        <ele>1429.4</ele>
        <time>2022-07-24T08:36:52Z</time>
      </trkpt>
      <trkpt lat="42.6929210" lon="-0.1077780">
        <ele>1429.4</ele>
        <time>2022-07-24T08:36:54Z</time>
      </trkpt>
      <trkpt lat="42.6928220" lon="-0.1076920">
        <ele>1429.4</ele>
        <time>2022-07-24T08:37:02Z</time>
      </trkpt>
      <trkpt lat="42.6927580" lon="-0.1076470">
        <ele>1429.4</ele>
        <time>2022-07-24T08:37:07Z</time>
      </trkpt>
      <trkpt lat="42.6927130" lon="-0.1075870">
        <ele>1429.2</ele>
        <time>2022-07-24T08:37:11Z</time>
      </trkpt>
      <trkpt lat="42.6926410" lon="-0.1074990">
        <ele>1429.0</ele>
        <time>2022-07-24T08:37:19Z</time>
      </trkpt>
      <trkpt lat="42.6926310" lon="-0.1074930">
        <ele>1429.0</ele>
        <time>2022-07-24T08:37:20Z</time>
      </trkpt>
      <trkpt lat="42.6926050" lon="-0.1074370">
        <ele>1429.0</ele>
        <time>2022-07-24T08:37:23Z</time>
      </trkpt>
      <trkpt lat="42.6926030" lon="-0.1073960">
        <ele>1428.8</ele>
        <time>2022-07-24T08:37:25Z</time>
      </trkpt>
      <trkpt lat="42.6925800" lon="-0.1072720">
        <ele>1428.6</ele>
        <time>2022-07-24T08:37:30Z</time>
      </trkpt>
      <trkpt lat="42.6925480" lon="-0.1072000">
        <ele>1428.6</ele>
        <time>2022-07-24T08:37:34Z</time>
      </trkpt>
      <trkpt lat="42.6925050" lon="-0.1071650">
        <ele>1428.8</ele>
        <time>2022-07-24T08:37:37Z</time>
      </trkpt>
      <trkpt lat="42.6924420" lon="-0.1071700">
        <ele>1428.6</ele>
        <time>2022-07-24T08:37:41Z</time>
      </trkpt>
      <trkpt lat="42.6923440" lon="-0.1071900">
        <ele>1429.0</ele>
        <time>2022-07-24T08:37:47Z</time>
      </trkpt>
      <trkpt lat="42.6923160" lon="-0.1072060">
        <ele>1428.8</ele>
        <time>2022-07-24T08:37:50Z</time>
      </trkpt>
      <trkpt lat="42.6922600" lon="-0.1071580">
        <ele>1428.8</ele>
        <time>2022-07-24T08:37:53Z</time>
      </trkpt>
      <trkpt lat="42.6922380" lon="-0.1071690">
        <ele>1428.8</ele>
        <time>2022-07-24T08:37:56Z</time>
      </trkpt>
      <trkpt lat="42.6922130" lon="-0.1072130">
        <ele>1428.8</ele>
        <time>2022-07-24T08:37:58Z</time>
      </trkpt>
      <trkpt lat="42.6921870" lon="-0.1072250">
        <ele>1428.8</ele>
        <time>2022-07-24T08:38:00Z</time>
      </trkpt>
      <trkpt lat="42.6921400" lon="-0.1072280">
        <ele>1428.8</ele>
        <time>2022-07-24T08:38:03Z</time>
      </trkpt>
      <trkpt lat="42.6920430" lon="-0.1071780">
        <ele>1428.8</ele>
        <time>2022-07-24T08:38:10Z</time>
      </trkpt>
      <trkpt lat="42.6920330" lon="-0.1071750">
        <ele>1428.6</ele>
        <time>2022-07-24T08:38:12Z</time>
      </trkpt>
      <trkpt lat="42.6919970" lon="-0.1071800">
        <ele>1428.8</ele>
        <time>2022-07-24T08:38:16Z</time>
      </trkpt>
      <trkpt lat="42.6919410" lon="-0.1072220">
        <ele>1428.6</ele>
        <time>2022-07-24T08:38:20Z</time>
      </trkpt>
      <trkpt lat="42.6919180" lon="-0.1072670">
        <ele>1428.4</ele>
        <time>2022-07-24T08:38:23Z</time>
      </trkpt>
      <trkpt lat="42.6918820" lon="-0.1072360">
        <ele>1428.2</ele>
        <time>2022-07-24T08:38:30Z</time>
      </trkpt>
      <trkpt lat="42.6918790" lon="-0.1072370">
        <ele>1428.2</ele>
        <time>2022-07-24T08:38:31Z</time>
      </trkpt>
      <trkpt lat="42.6918710" lon="-0.1072490">
        <ele>1428.2</ele>
        <time>2022-07-24T08:38:32Z</time>
      </trkpt>
      <trkpt lat="42.6918570" lon="-0.1072540">
        <ele>1428.2</ele>
        <time>2022-07-24T08:38:35Z</time>
      </trkpt>
      <trkpt lat="42.6918540" lon="-0.1072460">
        <ele>1428.0</ele>
        <time>2022-07-24T08:38:38Z</time>
      </trkpt>
      <trkpt lat="42.6918680" lon="-0.1072660">
        <ele>1428.0</ele>
        <time>2022-07-24T08:38:42Z</time>
      </trkpt>
      <trkpt lat="42.6918620" lon="-0.1072750">
        <ele>1427.2</ele>
        <time>2022-07-24T08:38:51Z</time>
      </trkpt>
      <trkpt lat="42.6918450" lon="-0.1072250">
        <ele>1427.0</ele>
        <time>2022-07-24T08:39:02Z</time>
      </trkpt>
      <trkpt lat="42.6918420" lon="-0.1072050">
        <ele>1427.0</ele>
        <time>2022-07-24T08:39:10Z</time>
      </trkpt>
      <trkpt lat="42.6918140" lon="-0.1071820">
        <ele>1427.0</ele>
        <time>2022-07-24T08:39:16Z</time>
      </trkpt>
      <trkpt lat="42.6917940" lon="-0.1071750">
        <ele>1427.2</ele>
        <time>2022-07-24T08:39:31Z</time>
      </trkpt>
      <trkpt lat="42.6917960" lon="-0.1071720">
        <ele>1427.2</ele>
        <time>2022-07-24T08:39:32Z</time>
      </trkpt>
      <trkpt lat="42.6918230" lon="-0.1071850">
        <ele>1427.2</ele>
        <time>2022-07-24T08:39:47Z</time>
      </trkpt>
      <trkpt lat="42.6918010" lon="-0.1072240">
        <ele>1427.0</ele>
        <time>2022-07-24T08:39:59Z</time>
      </trkpt>
      <trkpt lat="42.6918010" lon="-0.1072240">
        <ele>1427.2</ele>
        <time>2022-07-24T08:40:00Z</time>
      </trkpt>
      <trkpt lat="42.6918010" lon="-0.1072240">
        <ele>1427.2</ele>
        <time>2022-07-24T08:40:02Z</time>
      </trkpt>
      <trkpt lat="42.6918060" lon="-0.1072150">
        <ele>1427.2</ele>
        <time>2022-07-24T08:40:05Z</time>
      </trkpt>
    </trkseg>
  </trk>
</gpx>
